<?xml version="1.0" encoding="UTF-8"?><gpx version="1.1" creator="Relive" xmlns="http://www.topografix.com/GPX/1/1" xmlns:xsi="http://www.w3.org/2001/XMLSchema-instance" xsi:schemaLocation="http://www.topografix.com/GPX/1/1 http://www.topografix.com/GPX/1/1/gpx.xsd http://www.garmin.com/xmlschemas/TrackPointExtension/v1 http://www.garmin.com/xmlschemas/TrackPointExtensionv1.xsd http://www.garmin.com/xmlschemas/GpxExtensions/v3 http://www.garmin.com/xmlschemas/GpxExtensionsv3.xsd" xmlns:gpxtpx="http://www.garmin.com/xmlschemas/TrackPointExtension/v1" xmlns:gpxx="http://www.garmin.com/xmlschemas/GpxExtensions/v3"><metadata><time>2025-04-28T05:30:56.000Z</time><name>Morning Apr 28th</name></metadata><trk><trkseg><trkpt lat="45.9782" lon="10.3165"><time>2025-04-28T05:30:56.000Z</time><ele>316.8</ele></trkpt><trkpt lat="45.9782" lon="10.3165"><time>2025-04-28T05:30:57.000Z</time><ele>316.8</ele></trkpt><trkpt lat="45.9782" lon="10.316504"><time>2025-04-28T05:30:58.000Z</time><ele>316.8</ele></trkpt><trkpt lat="45.9782" lon="10.316504"><time>2025-04-28T05:30:59.000Z</time><ele>316.8</ele></trkpt><trkpt lat="45.9782" lon="10.316504"><time>2025-04-28T05:31:00.000Z</time><ele>316.8</ele></trkpt><trkpt lat="45.978201" lon="10.316504"><time>2025-04-28T05:31:01.000Z</time><ele>316.8</ele></trkpt><trkpt lat="45.978201" lon="10.316504"><time>2025-04-28T05:31:02.000Z</time><ele>316.8</ele></trkpt><trkpt lat="45.978202" lon="10.316504"><time>2025-04-28T05:31:03.000Z</time><ele>316.8</ele></trkpt><trkpt lat="45.978202" lon="10.316504"><time>2025-04-28T05:31:04.000Z</time><ele>316.8</ele></trkpt><trkpt lat="45.978202" lon="10.316504"><time>2025-04-28T05:31:05.000Z</time><ele>316.8</ele></trkpt><trkpt lat="45.978197" lon="10.316502"><time>2025-04-28T05:31:06.000Z</time><ele>316.8</ele></trkpt><trkpt lat="45.97818" lon="10.316494"><time>2025-04-28T05:31:07.000Z</time><ele>316.8</ele></trkpt><trkpt lat="45.978168" lon="10.31649"><time>2025-04-28T05:31:08.000Z</time><ele>316.8</ele></trkpt><trkpt lat="45.978155" lon="10.316484"><time>2025-04-28T05:31:09.000Z</time><ele>316.8</ele></trkpt><trkpt lat="45.978138" lon="10.316484"><time>2025-04-28T05:31:10.000Z</time><ele>316.8</ele></trkpt><trkpt lat="45.978119" lon="10.316486"><time>2025-04-28T05:31:11.000Z</time><ele>316.8</ele></trkpt><trkpt lat="45.9781" lon="10.316487"><time>2025-04-28T05:31:12.000Z</time><ele>316.8</ele></trkpt><trkpt lat="45.978082" lon="10.316485"><time>2025-04-28T05:31:13.000Z</time><ele>316.8</ele></trkpt><trkpt lat="45.978065" lon="10.316482"><time>2025-04-28T05:31:14.000Z</time><ele>316.8</ele></trkpt><trkpt lat="45.978047" lon="10.316475"><time>2025-04-28T05:31:15.000Z</time><ele>317.2</ele></trkpt><trkpt lat="45.978031" lon="10.316472"><time>2025-04-28T05:31:16.000Z</time><ele>317.6</ele></trkpt><trkpt lat="45.978018" lon="10.31647"><time>2025-04-28T05:31:17.000Z</time><ele>317.8</ele></trkpt><trkpt lat="45.978006" lon="10.316473"><time>2025-04-28T05:31:18.000Z</time><ele>317.8</ele></trkpt><trkpt lat="45.978003" lon="10.316478"><time>2025-04-28T05:31:19.000Z</time><ele>317.8</ele></trkpt><trkpt lat="45.977991" lon="10.316481"><time>2025-04-28T05:31:20.000Z</time><ele>317.8</ele></trkpt><trkpt lat="45.977982" lon="10.316484"><time>2025-04-28T05:31:21.000Z</time><ele>317.8</ele></trkpt><trkpt lat="45.977975" lon="10.316488"><time>2025-04-28T05:31:22.000Z</time><ele>317.8</ele></trkpt><trkpt lat="45.977974" lon="10.316488"><time>2025-04-28T05:31:23.000Z</time><ele>317.8</ele></trkpt><trkpt lat="45.977979" lon="10.316494"><time>2025-04-28T05:31:24.000Z</time><ele>317.8</ele></trkpt><trkpt lat="45.977965" lon="10.316499"><time>2025-04-28T05:31:25.000Z</time><ele>317.6</ele></trkpt><trkpt lat="45.977955" lon="10.316502"><time>2025-04-28T05:31:26.000Z</time><ele>317.6</ele></trkpt><trkpt lat="45.977941" lon="10.316506"><time>2025-04-28T05:31:27.000Z</time><ele>317.6</ele></trkpt><trkpt lat="45.977931" lon="10.316514"><time>2025-04-28T05:31:28.000Z</time><ele>317.4</ele></trkpt><trkpt lat="45.977916" lon="10.316521"><time>2025-04-28T05:31:29.000Z</time><ele>317.4</ele></trkpt><trkpt lat="45.977912" lon="10.31653"><time>2025-04-28T05:31:30.000Z</time><ele>317.4</ele></trkpt><trkpt lat="45.977908" lon="10.316543"><time>2025-04-28T05:31:31.000Z</time><ele>317.4</ele></trkpt><trkpt lat="45.977904" lon="10.316557"><time>2025-04-28T05:31:32.000Z</time><ele>317.4</ele></trkpt><trkpt lat="45.977893" lon="10.316563"><time>2025-04-28T05:31:33.000Z</time><ele>317.2</ele></trkpt><trkpt lat="45.977878" lon="10.316572"><time>2025-04-28T05:31:34.000Z</time><ele>317.2</ele></trkpt><trkpt lat="45.977873" lon="10.316582"><time>2025-04-28T05:31:35.000Z</time><ele>317.2</ele></trkpt><trkpt lat="45.977866" lon="10.316595"><time>2025-04-28T05:31:36.000Z</time><ele>317</ele></trkpt><trkpt lat="45.977865" lon="10.316605"><time>2025-04-28T05:31:37.000Z</time><ele>317</ele></trkpt><trkpt lat="45.977855" lon="10.316615"><time>2025-04-28T05:31:38.000Z</time><ele>317</ele></trkpt><trkpt lat="45.977873" lon="10.316624"><time>2025-04-28T05:31:39.000Z</time><ele>317</ele></trkpt><trkpt lat="45.977871" lon="10.316638"><time>2025-04-28T05:31:40.000Z</time><ele>316.8</ele></trkpt><trkpt lat="45.977866" lon="10.316658"><time>2025-04-28T05:31:41.000Z</time><ele>316.8</ele></trkpt><trkpt lat="45.977858" lon="10.316679"><time>2025-04-28T05:31:42.000Z</time><ele>316.8</ele></trkpt><trkpt lat="45.97785" lon="10.316698"><time>2025-04-28T05:31:43.000Z</time><ele>316.8</ele></trkpt><trkpt lat="45.97784" lon="10.316719"><time>2025-04-28T05:31:44.000Z</time><ele>316.6</ele></trkpt><trkpt lat="45.977824" lon="10.316742"><time>2025-04-28T05:31:45.000Z</time><ele>316.6</ele></trkpt><trkpt lat="45.977815" lon="10.316756"><time>2025-04-28T05:31:46.000Z</time><ele>316.6</ele></trkpt><trkpt lat="45.977813" lon="10.316773"><time>2025-04-28T05:31:47.000Z</time><ele>316.4</ele></trkpt><trkpt lat="45.977805" lon="10.316787"><time>2025-04-28T05:31:48.000Z</time><ele>316.4</ele></trkpt><trkpt lat="45.977803" lon="10.316792"><time>2025-04-28T05:31:49.000Z</time><ele>316.2</ele></trkpt><trkpt lat="45.977798" lon="10.316805"><time>2025-04-28T05:31:50.000Z</time><ele>316.2</ele></trkpt><trkpt lat="45.977805" lon="10.31682"><time>2025-04-28T05:31:51.000Z</time><ele>316.2</ele></trkpt><trkpt lat="45.977818" lon="10.316839"><time>2025-04-28T05:31:52.000Z</time><ele>316</ele></trkpt><trkpt lat="45.977825" lon="10.31685"><time>2025-04-28T05:31:53.000Z</time><ele>316</ele></trkpt><trkpt lat="45.977824" lon="10.316864"><time>2025-04-28T05:31:54.000Z</time><ele>315.8</ele></trkpt><trkpt lat="45.977818" lon="10.316864"><time>2025-04-28T05:31:55.000Z</time><ele>315.8</ele></trkpt><trkpt lat="45.977808" lon="10.316868"><time>2025-04-28T05:31:56.000Z</time><ele>315.8</ele></trkpt><trkpt lat="45.977798" lon="10.316869"><time>2025-04-28T05:31:57.000Z</time><ele>315.6</ele></trkpt><trkpt lat="45.977787" lon="10.316859"><time>2025-04-28T05:31:58.000Z</time><ele>315.6</ele></trkpt><trkpt lat="45.977772" lon="10.31685"><time>2025-04-28T05:31:59.000Z</time><ele>315.6</ele></trkpt><trkpt lat="45.977769" lon="10.316846"><time>2025-04-28T05:32:00.000Z</time><ele>315.6</ele></trkpt><trkpt lat="45.977789" lon="10.316838"><time>2025-04-28T05:32:01.000Z</time><ele>316.2</ele></trkpt><trkpt lat="45.977796" lon="10.316832"><time>2025-04-28T05:32:02.000Z</time><ele>316.2</ele></trkpt><trkpt lat="45.977802" lon="10.316827"><time>2025-04-28T05:32:03.000Z</time><ele>316.2</ele></trkpt><trkpt lat="45.977799" lon="10.316831"><time>2025-04-28T05:32:04.000Z</time><ele>316.2</ele></trkpt><trkpt lat="45.977785" lon="10.316835"><time>2025-04-28T05:32:05.000Z</time><ele>316.2</ele></trkpt><trkpt lat="45.977767" lon="10.316839"><time>2025-04-28T05:32:06.000Z</time><ele>315.6</ele></trkpt><trkpt lat="45.977757" lon="10.316835"><time>2025-04-28T05:32:07.000Z</time><ele>315.6</ele></trkpt><trkpt lat="45.977746" lon="10.316832"><time>2025-04-28T05:32:08.000Z</time><ele>315.6</ele></trkpt><trkpt lat="45.977729" lon="10.316828"><time>2025-04-28T05:32:09.000Z</time><ele>315.6</ele></trkpt><trkpt lat="45.9777" lon="10.316826"><time>2025-04-28T05:32:10.000Z</time><ele>315.4</ele></trkpt><trkpt lat="45.977658" lon="10.316825"><time>2025-04-28T05:32:11.000Z</time><ele>315.2</ele></trkpt><trkpt lat="45.977622" lon="10.316834"><time>2025-04-28T05:32:12.000Z</time><ele>315.2</ele></trkpt><trkpt lat="45.97758" lon="10.316841"><time>2025-04-28T05:32:13.000Z</time><ele>315</ele></trkpt><trkpt lat="45.977549" lon="10.316851"><time>2025-04-28T05:32:14.000Z</time><ele>315</ele></trkpt><trkpt lat="45.977517" lon="10.316857"><time>2025-04-28T05:32:15.000Z</time><ele>315</ele></trkpt><trkpt lat="45.977497" lon="10.316853"><time>2025-04-28T05:32:16.000Z</time><ele>314.8</ele></trkpt><trkpt lat="45.97748" lon="10.316846"><time>2025-04-28T05:32:17.000Z</time><ele>314.8</ele></trkpt><trkpt lat="45.977458" lon="10.316834"><time>2025-04-28T05:32:18.000Z</time><ele>314.8</ele></trkpt><trkpt lat="45.977444" lon="10.316828"><time>2025-04-28T05:32:19.000Z</time><ele>314.6</ele></trkpt><trkpt lat="45.977428" lon="10.316821"><time>2025-04-28T05:32:20.000Z</time><ele>314.6</ele></trkpt><trkpt lat="45.977414" lon="10.316817"><time>2025-04-28T05:32:21.000Z</time><ele>314.6</ele></trkpt><trkpt lat="45.977399" lon="10.316812"><time>2025-04-28T05:32:22.000Z</time><ele>314.4</ele></trkpt><trkpt lat="45.977383" lon="10.316803"><time>2025-04-28T05:32:23.000Z</time><ele>314.4</ele></trkpt><trkpt lat="45.977368" lon="10.316797"><time>2025-04-28T05:32:24.000Z</time><ele>314.2</ele></trkpt><trkpt lat="45.977353" lon="10.316787"><time>2025-04-28T05:32:25.000Z</time><ele>314.2</ele></trkpt><trkpt lat="45.977337" lon="10.316782"><time>2025-04-28T05:32:26.000Z</time><ele>314.2</ele></trkpt><trkpt lat="45.977324" lon="10.316781"><time>2025-04-28T05:32:27.000Z</time><ele>314</ele></trkpt><trkpt lat="45.97731" lon="10.316776"><time>2025-04-28T05:32:28.000Z</time><ele>314</ele></trkpt><trkpt lat="45.977295" lon="10.316775"><time>2025-04-28T05:32:29.000Z</time><ele>314</ele></trkpt><trkpt lat="45.977279" lon="10.316786"><time>2025-04-28T05:32:30.000Z</time><ele>314</ele></trkpt><trkpt lat="45.977261" lon="10.316792"><time>2025-04-28T05:32:31.000Z</time><ele>314</ele></trkpt><trkpt lat="45.977239" lon="10.316783"><time>2025-04-28T05:32:32.000Z</time><ele>313.8</ele></trkpt><trkpt lat="45.977221" lon="10.316788"><time>2025-04-28T05:32:33.000Z</time><ele>313.8</ele></trkpt><trkpt lat="45.977201" lon="10.316796"><time>2025-04-28T05:32:34.000Z</time><ele>313.8</ele></trkpt><trkpt lat="45.977189" lon="10.316803"><time>2025-04-28T05:32:35.000Z</time><ele>313.6</ele></trkpt><trkpt lat="45.977167" lon="10.316799"><time>2025-04-28T05:32:37.000Z</time><ele>313.6</ele></trkpt><trkpt lat="45.977161" lon="10.316796"><time>2025-04-28T05:32:38.000Z</time><ele>313.6</ele></trkpt><trkpt lat="45.977145" lon="10.316779"><time>2025-04-28T05:32:39.000Z</time><ele>313.4</ele></trkpt><trkpt lat="45.977133" lon="10.316763"><time>2025-04-28T05:32:40.000Z</time><ele>313.4</ele></trkpt><trkpt lat="45.97712" lon="10.316755"><time>2025-04-28T05:32:41.000Z</time><ele>313.4</ele></trkpt><trkpt lat="45.977108" lon="10.316755"><time>2025-04-28T05:32:42.000Z</time><ele>313.4</ele></trkpt><trkpt lat="45.977099" lon="10.316754"><time>2025-04-28T05:32:43.000Z</time><ele>313.2</ele></trkpt><trkpt lat="45.977091" lon="10.31675"><time>2025-04-28T05:32:44.000Z</time><ele>313.2</ele></trkpt><trkpt lat="45.977083" lon="10.316753"><time>2025-04-28T05:32:45.000Z</time><ele>313.2</ele></trkpt><trkpt lat="45.977076" lon="10.316749"><time>2025-04-28T05:32:46.000Z</time><ele>313.2</ele></trkpt><trkpt lat="45.977067" lon="10.31675"><time>2025-04-28T05:32:47.000Z</time><ele>313.2</ele></trkpt><trkpt lat="45.977053" lon="10.316746"><time>2025-04-28T05:32:48.000Z</time><ele>313.2</ele></trkpt><trkpt lat="45.977037" lon="10.316743"><time>2025-04-28T05:32:49.000Z</time><ele>313.2</ele></trkpt><trkpt lat="45.977015" lon="10.316736"><time>2025-04-28T05:32:50.000Z</time><ele>313.4</ele></trkpt><trkpt lat="45.976993" lon="10.316726"><time>2025-04-28T05:32:51.000Z</time><ele>313.4</ele></trkpt><trkpt lat="45.976972" lon="10.316704"><time>2025-04-28T05:32:52.000Z</time><ele>313.4</ele></trkpt><trkpt lat="45.976952" lon="10.316692"><time>2025-04-28T05:32:53.000Z</time><ele>313.4</ele></trkpt><trkpt lat="45.976941" lon="10.316685"><time>2025-04-28T05:32:54.000Z</time><ele>313.2</ele></trkpt><trkpt lat="45.976914" lon="10.316687"><time>2025-04-28T05:32:55.000Z</time><ele>313.2</ele></trkpt><trkpt lat="45.976906" lon="10.316682"><time>2025-04-28T05:32:56.000Z</time><ele>313.2</ele></trkpt><trkpt lat="45.976889" lon="10.31669"><time>2025-04-28T05:32:57.000Z</time><ele>313</ele></trkpt><trkpt lat="45.976878" lon="10.316697"><time>2025-04-28T05:32:58.000Z</time><ele>313</ele></trkpt><trkpt lat="45.97687" lon="10.316705"><time>2025-04-28T05:32:59.000Z</time><ele>313</ele></trkpt><trkpt lat="45.976861" lon="10.316709"><time>2025-04-28T05:33:00.000Z</time><ele>313</ele></trkpt><trkpt lat="45.976849" lon="10.31672"><time>2025-04-28T05:33:01.000Z</time><ele>313</ele></trkpt><trkpt lat="45.976834" lon="10.316727"><time>2025-04-28T05:33:02.000Z</time><ele>312.8</ele></trkpt><trkpt lat="45.976821" lon="10.316728"><time>2025-04-28T05:33:03.000Z</time><ele>312.6</ele></trkpt><trkpt lat="45.976809" lon="10.316719"><time>2025-04-28T05:33:04.000Z</time><ele>312.6</ele></trkpt><trkpt lat="45.976799" lon="10.316722"><time>2025-04-28T05:33:05.000Z</time><ele>312.4</ele></trkpt><trkpt lat="45.976786" lon="10.316722"><time>2025-04-28T05:33:06.000Z</time><ele>312.4</ele></trkpt><trkpt lat="45.976773" lon="10.316716"><time>2025-04-28T05:33:07.000Z</time><ele>312.2</ele></trkpt><trkpt lat="45.976765" lon="10.31672"><time>2025-04-28T05:33:08.000Z</time><ele>312.2</ele></trkpt><trkpt lat="45.976752" lon="10.316729"><time>2025-04-28T05:33:09.000Z</time><ele>312.2</ele></trkpt><trkpt lat="45.976745" lon="10.316729"><time>2025-04-28T05:33:10.000Z</time><ele>312.2</ele></trkpt><trkpt lat="45.976735" lon="10.316724"><time>2025-04-28T05:33:11.000Z</time><ele>312</ele></trkpt><trkpt lat="45.976719" lon="10.316725"><time>2025-04-28T05:33:12.000Z</time><ele>311.8</ele></trkpt><trkpt lat="45.976706" lon="10.316731"><time>2025-04-28T05:33:13.000Z</time><ele>311.8</ele></trkpt><trkpt lat="45.9767" lon="10.316738"><time>2025-04-28T05:33:14.000Z</time><ele>311.8</ele></trkpt><trkpt lat="45.976692" lon="10.316746"><time>2025-04-28T05:33:15.000Z</time><ele>311.6</ele></trkpt><trkpt lat="45.976688" lon="10.316757"><time>2025-04-28T05:33:16.000Z</time><ele>311.6</ele></trkpt><trkpt lat="45.976678" lon="10.316784"><time>2025-04-28T05:33:17.000Z</time><ele>311.6</ele></trkpt><trkpt lat="45.97667" lon="10.316795"><time>2025-04-28T05:33:18.000Z</time><ele>311.6</ele></trkpt><trkpt lat="45.976662" lon="10.316806"><time>2025-04-28T05:33:19.000Z</time><ele>311.6</ele></trkpt><trkpt lat="45.976654" lon="10.316822"><time>2025-04-28T05:33:20.000Z</time><ele>311.6</ele></trkpt><trkpt lat="45.976637" lon="10.316836"><time>2025-04-28T05:33:21.000Z</time><ele>311.6</ele></trkpt><trkpt lat="45.976624" lon="10.316834"><time>2025-04-28T05:33:22.000Z</time><ele>311.4</ele></trkpt><trkpt lat="45.976601" lon="10.316833"><time>2025-04-28T05:33:23.000Z</time><ele>311.4</ele></trkpt><trkpt lat="45.976588" lon="10.316837"><time>2025-04-28T05:33:24.000Z</time><ele>311.4</ele></trkpt><trkpt lat="45.976572" lon="10.316831"><time>2025-04-28T05:33:25.000Z</time><ele>311.2</ele></trkpt><trkpt lat="45.976554" lon="10.316826"><time>2025-04-28T05:33:26.000Z</time><ele>311.2</ele></trkpt><trkpt lat="45.976535" lon="10.316822"><time>2025-04-28T05:33:27.000Z</time><ele>311.2</ele></trkpt><trkpt lat="45.976521" lon="10.316813"><time>2025-04-28T05:33:28.000Z</time><ele>311</ele></trkpt><trkpt lat="45.976505" lon="10.316801"><time>2025-04-28T05:33:29.000Z</time><ele>311</ele></trkpt><trkpt lat="45.976492" lon="10.316797"><time>2025-04-28T05:33:30.000Z</time><ele>311</ele></trkpt><trkpt lat="45.976471" lon="10.316794"><time>2025-04-28T05:33:31.000Z</time><ele>311</ele></trkpt><trkpt lat="45.976448" lon="10.316785"><time>2025-04-28T05:33:32.000Z</time><ele>310.8</ele></trkpt><trkpt lat="45.976438" lon="10.316769"><time>2025-04-28T05:33:33.000Z</time><ele>310.8</ele></trkpt><trkpt lat="45.976429" lon="10.316746"><time>2025-04-28T05:33:34.000Z</time><ele>310.8</ele></trkpt><trkpt lat="45.976419" lon="10.316726"><time>2025-04-28T05:33:35.000Z</time><ele>310.8</ele></trkpt><trkpt lat="45.976409" lon="10.316672"><time>2025-04-28T05:33:36.000Z</time><ele>310.8</ele></trkpt><trkpt lat="45.976396" lon="10.316657"><time>2025-04-28T05:33:37.000Z</time><ele>310.8</ele></trkpt><trkpt lat="45.976383" lon="10.316634"><time>2025-04-28T05:33:38.000Z</time><ele>310.8</ele></trkpt><trkpt lat="45.976374" lon="10.316619"><time>2025-04-28T05:33:39.000Z</time><ele>310.8</ele></trkpt><trkpt lat="45.976361" lon="10.316584"><time>2025-04-28T05:33:40.000Z</time><ele>310.8</ele></trkpt><trkpt lat="45.976351" lon="10.316559"><time>2025-04-28T05:33:41.000Z</time><ele>310.6</ele></trkpt><trkpt lat="45.976338" lon="10.316537"><time>2025-04-28T05:33:42.000Z</time><ele>310.6</ele></trkpt><trkpt lat="45.976326" lon="10.316533"><time>2025-04-28T05:33:43.000Z</time><ele>310.4</ele></trkpt><trkpt lat="45.976315" lon="10.316525"><time>2025-04-28T05:33:44.000Z</time><ele>310.2</ele></trkpt><trkpt lat="45.976306" lon="10.316519"><time>2025-04-28T05:33:45.000Z</time><ele>310.2</ele></trkpt><trkpt lat="45.976289" lon="10.316517"><time>2025-04-28T05:33:46.000Z</time><ele>310.2</ele></trkpt><trkpt lat="45.976273" lon="10.316514"><time>2025-04-28T05:33:47.000Z</time><ele>310.2</ele></trkpt><trkpt lat="45.976257" lon="10.316512"><time>2025-04-28T05:33:48.000Z</time><ele>310</ele></trkpt><trkpt lat="45.976238" lon="10.316513"><time>2025-04-28T05:33:49.000Z</time><ele>310</ele></trkpt><trkpt lat="45.976225" lon="10.316509"><time>2025-04-28T05:33:50.000Z</time><ele>309.8</ele></trkpt><trkpt lat="45.976212" lon="10.316502"><time>2025-04-28T05:33:51.000Z</time><ele>309.8</ele></trkpt><trkpt lat="45.976199" lon="10.316503"><time>2025-04-28T05:33:52.000Z</time><ele>309.6</ele></trkpt><trkpt lat="45.976189" lon="10.316489"><time>2025-04-28T05:33:53.000Z</time><ele>309.6</ele></trkpt><trkpt lat="45.976177" lon="10.316476"><time>2025-04-28T05:33:54.000Z</time><ele>309.6</ele></trkpt><trkpt lat="45.976162" lon="10.316468"><time>2025-04-28T05:33:55.000Z</time><ele>309.4</ele></trkpt><trkpt lat="45.976143" lon="10.316461"><time>2025-04-28T05:33:56.000Z</time><ele>309.4</ele></trkpt><trkpt lat="45.976129" lon="10.316448"><time>2025-04-28T05:33:57.000Z</time><ele>309.4</ele></trkpt><trkpt lat="45.976118" lon="10.316432"><time>2025-04-28T05:33:58.000Z</time><ele>309.4</ele></trkpt><trkpt lat="45.976104" lon="10.316426"><time>2025-04-28T05:33:59.000Z</time><ele>309.2</ele></trkpt><trkpt lat="45.976091" lon="10.316421"><time>2025-04-28T05:34:00.000Z</time><ele>309.2</ele></trkpt><trkpt lat="45.976085" lon="10.316415"><time>2025-04-28T05:34:01.000Z</time><ele>309</ele></trkpt><trkpt lat="45.976077" lon="10.316411"><time>2025-04-28T05:34:02.000Z</time><ele>309</ele></trkpt><trkpt lat="45.976072" lon="10.316405"><time>2025-04-28T05:34:03.000Z</time><ele>309</ele></trkpt><trkpt lat="45.976061" lon="10.316397"><time>2025-04-28T05:34:04.000Z</time><ele>308.8</ele></trkpt><trkpt lat="45.976046" lon="10.316384"><time>2025-04-28T05:34:05.000Z</time><ele>308.8</ele></trkpt><trkpt lat="45.976029" lon="10.316374"><time>2025-04-28T05:34:06.000Z</time><ele>308.8</ele></trkpt><trkpt lat="45.976015" lon="10.31636"><time>2025-04-28T05:34:07.000Z</time><ele>308.8</ele></trkpt><trkpt lat="45.976005" lon="10.316356"><time>2025-04-28T05:34:08.000Z</time><ele>308.6</ele></trkpt><trkpt lat="45.975994" lon="10.316349"><time>2025-04-28T05:34:09.000Z</time><ele>308.6</ele></trkpt><trkpt lat="45.975988" lon="10.316335"><time>2025-04-28T05:34:10.000Z</time><ele>308.6</ele></trkpt><trkpt lat="45.97598" lon="10.316321"><time>2025-04-28T05:34:11.000Z</time><ele>308.4</ele></trkpt><trkpt lat="45.975966" lon="10.316311"><time>2025-04-28T05:34:12.000Z</time><ele>308.4</ele></trkpt><trkpt lat="45.975955" lon="10.316302"><time>2025-04-28T05:34:13.000Z</time><ele>308.2</ele></trkpt><trkpt lat="45.97594" lon="10.316289"><time>2025-04-28T05:34:14.000Z</time><ele>308.2</ele></trkpt><trkpt lat="45.97593" lon="10.316279"><time>2025-04-28T05:34:15.000Z</time><ele>308.2</ele></trkpt><trkpt lat="45.975921" lon="10.316274"><time>2025-04-28T05:34:16.000Z</time><ele>308.2</ele></trkpt><trkpt lat="45.975912" lon="10.316264"><time>2025-04-28T05:34:17.000Z</time><ele>308.2</ele></trkpt><trkpt lat="45.975902" lon="10.316252"><time>2025-04-28T05:34:18.000Z</time><ele>308.2</ele></trkpt><trkpt lat="45.975892" lon="10.316244"><time>2025-04-28T05:34:19.000Z</time><ele>308.2</ele></trkpt><trkpt lat="45.975881" lon="10.316228"><time>2025-04-28T05:34:20.000Z</time><ele>308.2</ele></trkpt><trkpt lat="45.975872" lon="10.316219"><time>2025-04-28T05:34:21.000Z</time><ele>308.2</ele></trkpt><trkpt lat="45.975859" lon="10.316208"><time>2025-04-28T05:34:22.000Z</time><ele>308</ele></trkpt><trkpt lat="45.975852" lon="10.316204"><time>2025-04-28T05:34:23.000Z</time><ele>308</ele></trkpt><trkpt lat="45.975843" lon="10.3162"><time>2025-04-28T05:34:24.000Z</time><ele>307.8</ele></trkpt><trkpt lat="45.975835" lon="10.316197"><time>2025-04-28T05:34:25.000Z</time><ele>307.8</ele></trkpt><trkpt lat="45.975825" lon="10.316201"><time>2025-04-28T05:34:26.000Z</time><ele>307.8</ele></trkpt><trkpt lat="45.975813" lon="10.316191"><time>2025-04-28T05:34:27.000Z</time><ele>307.8</ele></trkpt><trkpt lat="45.975803" lon="10.31619"><time>2025-04-28T05:34:28.000Z</time><ele>307.8</ele></trkpt><trkpt lat="45.975794" lon="10.316183"><time>2025-04-28T05:34:29.000Z</time><ele>307.8</ele></trkpt><trkpt lat="45.975783" lon="10.316184"><time>2025-04-28T05:34:30.000Z</time><ele>307.8</ele></trkpt><trkpt lat="45.975771" lon="10.316171"><time>2025-04-28T05:34:31.000Z</time><ele>307.8</ele></trkpt><trkpt lat="45.975756" lon="10.316158"><time>2025-04-28T05:34:32.000Z</time><ele>307.6</ele></trkpt><trkpt lat="45.975748" lon="10.316149"><time>2025-04-28T05:34:33.000Z</time><ele>307.6</ele></trkpt><trkpt lat="45.975741" lon="10.316145"><time>2025-04-28T05:34:34.000Z</time><ele>307.6</ele></trkpt><trkpt lat="45.975735" lon="10.31614"><time>2025-04-28T05:34:35.000Z</time><ele>307.6</ele></trkpt><trkpt lat="45.975722" lon="10.316135"><time>2025-04-28T05:34:36.000Z</time><ele>307.6</ele></trkpt><trkpt lat="45.975704" lon="10.316129"><time>2025-04-28T05:34:37.000Z</time><ele>307.6</ele></trkpt><trkpt lat="45.97569" lon="10.316121"><time>2025-04-28T05:34:38.000Z</time><ele>307.6</ele></trkpt><trkpt lat="45.975677" lon="10.316115"><time>2025-04-28T05:34:39.000Z</time><ele>307.6</ele></trkpt><trkpt lat="45.975668" lon="10.316097"><time>2025-04-28T05:34:40.000Z</time><ele>307.6</ele></trkpt><trkpt lat="45.975654" lon="10.316075"><time>2025-04-28T05:34:41.000Z</time><ele>307.6</ele></trkpt><trkpt lat="45.97564" lon="10.316066"><time>2025-04-28T05:34:42.000Z</time><ele>307.6</ele></trkpt><trkpt lat="45.975623" lon="10.316063"><time>2025-04-28T05:34:43.000Z</time><ele>307.4</ele></trkpt><trkpt lat="45.97561" lon="10.316053"><time>2025-04-28T05:34:44.000Z</time><ele>307.4</ele></trkpt><trkpt lat="45.975605" lon="10.316044"><time>2025-04-28T05:34:45.000Z</time><ele>307.4</ele></trkpt><trkpt lat="45.975597" lon="10.316037"><time>2025-04-28T05:34:46.000Z</time><ele>307.4</ele></trkpt><trkpt lat="45.975586" lon="10.316033"><time>2025-04-28T05:34:47.000Z</time><ele>307.4</ele></trkpt><trkpt lat="45.975577" lon="10.316027"><time>2025-04-28T05:34:48.000Z</time><ele>307.4</ele></trkpt><trkpt lat="45.975568" lon="10.316021"><time>2025-04-28T05:34:49.000Z</time><ele>307.4</ele></trkpt><trkpt lat="45.975559" lon="10.316008"><time>2025-04-28T05:34:50.000Z</time><ele>307.4</ele></trkpt><trkpt lat="45.975553" lon="10.315993"><time>2025-04-28T05:34:51.000Z</time><ele>307.4</ele></trkpt><trkpt lat="45.975541" lon="10.315977"><time>2025-04-28T05:34:52.000Z</time><ele>307.4</ele></trkpt><trkpt lat="45.975531" lon="10.315971"><time>2025-04-28T05:34:53.000Z</time><ele>307.4</ele></trkpt><trkpt lat="45.975516" lon="10.315964"><time>2025-04-28T05:34:54.000Z</time><ele>307.4</ele></trkpt><trkpt lat="45.975501" lon="10.315961"><time>2025-04-28T05:34:55.000Z</time><ele>307.4</ele></trkpt><trkpt lat="45.975484" lon="10.315953"><time>2025-04-28T05:34:56.000Z</time><ele>307.4</ele></trkpt><trkpt lat="45.975471" lon="10.315944"><time>2025-04-28T05:34:57.000Z</time><ele>307.4</ele></trkpt><trkpt lat="45.97546" lon="10.315942"><time>2025-04-28T05:34:58.000Z</time><ele>307.4</ele></trkpt><trkpt lat="45.975445" lon="10.315933"><time>2025-04-28T05:34:59.000Z</time><ele>307.4</ele></trkpt><trkpt lat="45.975428" lon="10.315933"><time>2025-04-28T05:35:00.000Z</time><ele>307.4</ele></trkpt><trkpt lat="45.975416" lon="10.315936"><time>2025-04-28T05:35:01.000Z</time><ele>307.4</ele></trkpt><trkpt lat="45.975402" lon="10.315924"><time>2025-04-28T05:35:02.000Z</time><ele>307.4</ele></trkpt><trkpt lat="45.97539" lon="10.315913"><time>2025-04-28T05:35:03.000Z</time><ele>307.4</ele></trkpt><trkpt lat="45.975378" lon="10.315904"><time>2025-04-28T05:35:04.000Z</time><ele>307.4</ele></trkpt><trkpt lat="45.975366" lon="10.315893"><time>2025-04-28T05:35:05.000Z</time><ele>307.4</ele></trkpt><trkpt lat="45.975354" lon="10.315885"><time>2025-04-28T05:35:06.000Z</time><ele>307.4</ele></trkpt><trkpt lat="45.975345" lon="10.315877"><time>2025-04-28T05:35:07.000Z</time><ele>307.2</ele></trkpt><trkpt lat="45.975337" lon="10.315868"><time>2025-04-28T05:35:08.000Z</time><ele>307.2</ele></trkpt><trkpt lat="45.975325" lon="10.31586"><time>2025-04-28T05:35:09.000Z</time><ele>307.2</ele></trkpt><trkpt lat="45.975315" lon="10.315851"><time>2025-04-28T05:35:10.000Z</time><ele>307.2</ele></trkpt><trkpt lat="45.975304" lon="10.315845"><time>2025-04-28T05:35:11.000Z</time><ele>307.2</ele></trkpt><trkpt lat="45.975293" lon="10.315833"><time>2025-04-28T05:35:12.000Z</time><ele>307.2</ele></trkpt><trkpt lat="45.975284" lon="10.315819"><time>2025-04-28T05:35:13.000Z</time><ele>307.2</ele></trkpt><trkpt lat="45.975275" lon="10.315811"><time>2025-04-28T05:35:14.000Z</time><ele>307.2</ele></trkpt><trkpt lat="45.975274" lon="10.315806"><time>2025-04-28T05:35:15.000Z</time><ele>307.4</ele></trkpt><trkpt lat="45.975266" lon="10.31579"><time>2025-04-28T05:35:16.000Z</time><ele>307.4</ele></trkpt><trkpt lat="45.975254" lon="10.315778"><time>2025-04-28T05:35:17.000Z</time><ele>307.2</ele></trkpt><trkpt lat="45.975244" lon="10.315766"><time>2025-04-28T05:35:18.000Z</time><ele>307.2</ele></trkpt><trkpt lat="45.975235" lon="10.315756"><time>2025-04-28T05:35:19.000Z</time><ele>307.2</ele></trkpt><trkpt lat="45.975224" lon="10.315747"><time>2025-04-28T05:35:20.000Z</time><ele>307.2</ele></trkpt><trkpt lat="45.975213" lon="10.315741"><time>2025-04-28T05:35:21.000Z</time><ele>307.2</ele></trkpt><trkpt lat="45.975194" lon="10.315732"><time>2025-04-28T05:35:22.000Z</time><ele>307.2</ele></trkpt><trkpt lat="45.975182" lon="10.315723"><time>2025-04-28T05:35:23.000Z</time><ele>307.2</ele></trkpt><trkpt lat="45.975169" lon="10.315705"><time>2025-04-28T05:35:24.000Z</time><ele>307.2</ele></trkpt><trkpt lat="45.975154" lon="10.315686"><time>2025-04-28T05:35:25.000Z</time><ele>307.2</ele></trkpt><trkpt lat="45.975145" lon="10.315667"><time>2025-04-28T05:35:26.000Z</time><ele>307.2</ele></trkpt><trkpt lat="45.975135" lon="10.315644"><time>2025-04-28T05:35:27.000Z</time><ele>307.4</ele></trkpt><trkpt lat="45.975123" lon="10.315623"><time>2025-04-28T05:35:28.000Z</time><ele>307.2</ele></trkpt><trkpt lat="45.975111" lon="10.31561"><time>2025-04-28T05:35:29.000Z</time><ele>307.2</ele></trkpt><trkpt lat="45.9751" lon="10.3156"><time>2025-04-28T05:35:30.000Z</time><ele>307.2</ele></trkpt><trkpt lat="45.975083" lon="10.315583"><time>2025-04-28T05:35:31.000Z</time><ele>307.2</ele></trkpt><trkpt lat="45.975071" lon="10.315571"><time>2025-04-28T05:35:32.000Z</time><ele>307.2</ele></trkpt><trkpt lat="45.975058" lon="10.315555"><time>2025-04-28T05:35:33.000Z</time><ele>307.2</ele></trkpt><trkpt lat="45.975044" lon="10.31554"><time>2025-04-28T05:35:34.000Z</time><ele>307.2</ele></trkpt><trkpt lat="45.975031" lon="10.315529"><time>2025-04-28T05:35:35.000Z</time><ele>307.2</ele></trkpt><trkpt lat="45.975021" lon="10.315515"><time>2025-04-28T05:35:36.000Z</time><ele>307.2</ele></trkpt><trkpt lat="45.975009" lon="10.3155"><time>2025-04-28T05:35:37.000Z</time><ele>307.2</ele></trkpt><trkpt lat="45.974999" lon="10.315486"><time>2025-04-28T05:35:38.000Z</time><ele>307.2</ele></trkpt><trkpt lat="45.974993" lon="10.315479"><time>2025-04-28T05:35:39.000Z</time><ele>307.2</ele></trkpt><trkpt lat="45.974987" lon="10.315466"><time>2025-04-28T05:35:40.000Z</time><ele>307.2</ele></trkpt><trkpt lat="45.974977" lon="10.315449"><time>2025-04-28T05:35:41.000Z</time><ele>307.2</ele></trkpt><trkpt lat="45.974968" lon="10.315431"><time>2025-04-28T05:35:42.000Z</time><ele>307.2</ele></trkpt><trkpt lat="45.974958" lon="10.315416"><time>2025-04-28T05:35:43.000Z</time><ele>307.2</ele></trkpt><trkpt lat="45.97495" lon="10.315407"><time>2025-04-28T05:35:44.000Z</time><ele>307.2</ele></trkpt><trkpt lat="45.974939" lon="10.315395"><time>2025-04-28T05:35:45.000Z</time><ele>307.2</ele></trkpt><trkpt lat="45.974926" lon="10.315381"><time>2025-04-28T05:35:46.000Z</time><ele>307.2</ele></trkpt><trkpt lat="45.974913" lon="10.315368"><time>2025-04-28T05:35:47.000Z</time><ele>307.2</ele></trkpt><trkpt lat="45.974903" lon="10.315355"><time>2025-04-28T05:35:48.000Z</time><ele>307.2</ele></trkpt><trkpt lat="45.974894" lon="10.315341"><time>2025-04-28T05:35:49.000Z</time><ele>307.2</ele></trkpt><trkpt lat="45.974884" lon="10.315327"><time>2025-04-28T05:35:50.000Z</time><ele>307.2</ele></trkpt><trkpt lat="45.974873" lon="10.315315"><time>2025-04-28T05:35:51.000Z</time><ele>307.2</ele></trkpt><trkpt lat="45.974864" lon="10.315303"><time>2025-04-28T05:35:52.000Z</time><ele>307.2</ele></trkpt><trkpt lat="45.97485" lon="10.315287"><time>2025-04-28T05:35:53.000Z</time><ele>307.2</ele></trkpt><trkpt lat="45.974836" lon="10.315272"><time>2025-04-28T05:35:54.000Z</time><ele>307.2</ele></trkpt><trkpt lat="45.974827" lon="10.315257"><time>2025-04-28T05:35:55.000Z</time><ele>307.2</ele></trkpt><trkpt lat="45.974817" lon="10.31524"><time>2025-04-28T05:35:56.000Z</time><ele>307.2</ele></trkpt><trkpt lat="45.97481" lon="10.315231"><time>2025-04-28T05:35:57.000Z</time><ele>307</ele></trkpt><trkpt lat="45.974801" lon="10.315216"><time>2025-04-28T05:35:58.000Z</time><ele>307</ele></trkpt><trkpt lat="45.97479" lon="10.315197"><time>2025-04-28T05:35:59.000Z</time><ele>307</ele></trkpt><trkpt lat="45.974778" lon="10.315177"><time>2025-04-28T05:36:00.000Z</time><ele>307</ele></trkpt><trkpt lat="45.974769" lon="10.315168"><time>2025-04-28T05:36:01.000Z</time><ele>307</ele></trkpt><trkpt lat="45.974756" lon="10.315152"><time>2025-04-28T05:36:02.000Z</time><ele>307</ele></trkpt><trkpt lat="45.974749" lon="10.315137"><time>2025-04-28T05:36:03.000Z</time><ele>307</ele></trkpt><trkpt lat="45.974741" lon="10.315112"><time>2025-04-28T05:36:04.000Z</time><ele>307</ele></trkpt><trkpt lat="45.974735" lon="10.315097"><time>2025-04-28T05:36:05.000Z</time><ele>307.2</ele></trkpt><trkpt lat="45.974727" lon="10.315081"><time>2025-04-28T05:36:06.000Z</time><ele>307.2</ele></trkpt><trkpt lat="45.974724" lon="10.315072"><time>2025-04-28T05:36:07.000Z</time><ele>307.2</ele></trkpt><trkpt lat="45.974722" lon="10.315069"><time>2025-04-28T05:36:08.000Z</time><ele>307.2</ele></trkpt><trkpt lat="45.974718" lon="10.315062"><time>2025-04-28T05:36:09.000Z</time><ele>307.2</ele></trkpt><trkpt lat="45.974711" lon="10.315055"><time>2025-04-28T05:36:10.000Z</time><ele>307.2</ele></trkpt><trkpt lat="45.974701" lon="10.31504"><time>2025-04-28T05:36:11.000Z</time><ele>307.2</ele></trkpt><trkpt lat="45.974695" lon="10.31503"><time>2025-04-28T05:36:12.000Z</time><ele>307</ele></trkpt><trkpt lat="45.974686" lon="10.315015"><time>2025-04-28T05:36:13.000Z</time><ele>307</ele></trkpt><trkpt lat="45.974675" lon="10.314994"><time>2025-04-28T05:36:14.000Z</time><ele>307</ele></trkpt><trkpt lat="45.974669" lon="10.314975"><time>2025-04-28T05:36:15.000Z</time><ele>307</ele></trkpt><trkpt lat="45.974663" lon="10.314959"><time>2025-04-28T05:36:16.000Z</time><ele>307</ele></trkpt><trkpt lat="45.974656" lon="10.314935"><time>2025-04-28T05:36:17.000Z</time><ele>306.8</ele></trkpt><trkpt lat="45.974649" lon="10.314909"><time>2025-04-28T05:36:18.000Z</time><ele>306.8</ele></trkpt><trkpt lat="45.974643" lon="10.314889"><time>2025-04-28T05:36:19.000Z</time><ele>306.8</ele></trkpt><trkpt lat="45.974634" lon="10.314869"><time>2025-04-28T05:36:20.000Z</time><ele>306.8</ele></trkpt><trkpt lat="45.974625" lon="10.314857"><time>2025-04-28T05:36:21.000Z</time><ele>306.8</ele></trkpt><trkpt lat="45.974615" lon="10.314845"><time>2025-04-28T05:36:22.000Z</time><ele>306.8</ele></trkpt><trkpt lat="45.974604" lon="10.314828"><time>2025-04-28T05:36:23.000Z</time><ele>306.8</ele></trkpt><trkpt lat="45.974595" lon="10.314813"><time>2025-04-28T05:36:24.000Z</time><ele>306.6</ele></trkpt><trkpt lat="45.974583" lon="10.314798"><time>2025-04-28T05:36:25.000Z</time><ele>306.6</ele></trkpt><trkpt lat="45.97457" lon="10.314785"><time>2025-04-28T05:36:26.000Z</time><ele>306.6</ele></trkpt><trkpt lat="45.974557" lon="10.314769"><time>2025-04-28T05:36:27.000Z</time><ele>306.6</ele></trkpt><trkpt lat="45.974548" lon="10.314755"><time>2025-04-28T05:36:28.000Z</time><ele>306.6</ele></trkpt><trkpt lat="45.974541" lon="10.314743"><time>2025-04-28T05:36:29.000Z</time><ele>306.6</ele></trkpt><trkpt lat="45.974534" lon="10.314731"><time>2025-04-28T05:36:30.000Z</time><ele>306.6</ele></trkpt><trkpt lat="45.974524" lon="10.314707"><time>2025-04-28T05:36:31.000Z</time><ele>306.6</ele></trkpt><trkpt lat="45.97452" lon="10.314689"><time>2025-04-28T05:36:32.000Z</time><ele>306.8</ele></trkpt><trkpt lat="45.974516" lon="10.31468"><time>2025-04-28T05:36:33.000Z</time><ele>306.8</ele></trkpt><trkpt lat="45.974507" lon="10.314663"><time>2025-04-28T05:36:34.000Z</time><ele>306.8</ele></trkpt><trkpt lat="45.974505" lon="10.314653"><time>2025-04-28T05:36:35.000Z</time><ele>306.8</ele></trkpt><trkpt lat="45.974499" lon="10.314634"><time>2025-04-28T05:36:36.000Z</time><ele>306.8</ele></trkpt><trkpt lat="45.974495" lon="10.314623"><time>2025-04-28T05:36:37.000Z</time><ele>306.8</ele></trkpt><trkpt lat="45.974492" lon="10.314615"><time>2025-04-28T05:36:38.000Z</time><ele>306.8</ele></trkpt><trkpt lat="45.974484" lon="10.314604"><time>2025-04-28T05:36:39.000Z</time><ele>306.8</ele></trkpt><trkpt lat="45.974476" lon="10.314592"><time>2025-04-28T05:36:40.000Z</time><ele>306.8</ele></trkpt><trkpt lat="45.97447" lon="10.314581"><time>2025-04-28T05:36:41.000Z</time><ele>306.8</ele></trkpt><trkpt lat="45.974459" lon="10.314565"><time>2025-04-28T05:36:42.000Z</time><ele>306.8</ele></trkpt><trkpt lat="45.97445" lon="10.314557"><time>2025-04-28T05:36:43.000Z</time><ele>306.8</ele></trkpt><trkpt lat="45.974442" lon="10.314551"><time>2025-04-28T05:36:44.000Z</time><ele>307</ele></trkpt><trkpt lat="45.974436" lon="10.314539"><time>2025-04-28T05:36:45.000Z</time><ele>307</ele></trkpt><trkpt lat="45.97443" lon="10.314526"><time>2025-04-28T05:36:46.000Z</time><ele>306.8</ele></trkpt><trkpt lat="45.974419" lon="10.314509"><time>2025-04-28T05:36:47.000Z</time><ele>306.8</ele></trkpt><trkpt lat="45.97441" lon="10.314498"><time>2025-04-28T05:36:48.000Z</time><ele>306.8</ele></trkpt><trkpt lat="45.9744" lon="10.314488"><time>2025-04-28T05:36:49.000Z</time><ele>306.8</ele></trkpt><trkpt lat="45.974387" lon="10.314475"><time>2025-04-28T05:36:50.000Z</time><ele>306.8</ele></trkpt><trkpt lat="45.974378" lon="10.314463"><time>2025-04-28T05:36:51.000Z</time><ele>306.8</ele></trkpt><trkpt lat="45.974367" lon="10.314443"><time>2025-04-28T05:36:52.000Z</time><ele>306.8</ele></trkpt><trkpt lat="45.974355" lon="10.314429"><time>2025-04-28T05:36:53.000Z</time><ele>306.8</ele></trkpt><trkpt lat="45.974343" lon="10.31441"><time>2025-04-28T05:36:54.000Z</time><ele>306.8</ele></trkpt><trkpt lat="45.974335" lon="10.314398"><time>2025-04-28T05:36:55.000Z</time><ele>306.8</ele></trkpt><trkpt lat="45.974326" lon="10.314383"><time>2025-04-28T05:36:56.000Z</time><ele>306.6</ele></trkpt><trkpt lat="45.974318" lon="10.314364"><time>2025-04-28T05:36:57.000Z</time><ele>306.6</ele></trkpt><trkpt lat="45.974309" lon="10.314342"><time>2025-04-28T05:36:58.000Z</time><ele>306.6</ele></trkpt><trkpt lat="45.974294" lon="10.314328"><time>2025-04-28T05:36:59.000Z</time><ele>306.6</ele></trkpt><trkpt lat="45.974288" lon="10.314318"><time>2025-04-28T05:37:00.000Z</time><ele>306.6</ele></trkpt><trkpt lat="45.97427" lon="10.314307"><time>2025-04-28T05:37:01.000Z</time><ele>306.6</ele></trkpt><trkpt lat="45.974259" lon="10.314292"><time>2025-04-28T05:37:02.000Z</time><ele>306.6</ele></trkpt><trkpt lat="45.974245" lon="10.314277"><time>2025-04-28T05:37:03.000Z</time><ele>306.6</ele></trkpt><trkpt lat="45.974241" lon="10.314265"><time>2025-04-28T05:37:04.000Z</time><ele>306.6</ele></trkpt><trkpt lat="45.974237" lon="10.314252"><time>2025-04-28T05:37:05.000Z</time><ele>306.6</ele></trkpt><trkpt lat="45.974236" lon="10.31424"><time>2025-04-28T05:37:06.000Z</time><ele>306.4</ele></trkpt><trkpt lat="45.974243" lon="10.314238"><time>2025-04-28T05:37:07.000Z</time><ele>306.4</ele></trkpt><trkpt lat="45.974233" lon="10.314223"><time>2025-04-28T05:37:08.000Z</time><ele>306.4</ele></trkpt><trkpt lat="45.974227" lon="10.314208"><time>2025-04-28T05:37:09.000Z</time><ele>306.4</ele></trkpt><trkpt lat="45.974217" lon="10.314188"><time>2025-04-28T05:37:10.000Z</time><ele>306.4</ele></trkpt><trkpt lat="45.974203" lon="10.314163"><time>2025-04-28T05:37:11.000Z</time><ele>306.4</ele></trkpt><trkpt lat="45.974194" lon="10.314152"><time>2025-04-28T05:37:12.000Z</time><ele>306.4</ele></trkpt><trkpt lat="45.974185" lon="10.314139"><time>2025-04-28T05:37:13.000Z</time><ele>306.4</ele></trkpt><trkpt lat="45.974174" lon="10.314129"><time>2025-04-28T05:37:14.000Z</time><ele>306.4</ele></trkpt><trkpt lat="45.974167" lon="10.31412"><time>2025-04-28T05:37:15.000Z</time><ele>306.4</ele></trkpt><trkpt lat="45.97416" lon="10.314107"><time>2025-04-28T05:37:16.000Z</time><ele>306.6</ele></trkpt><trkpt lat="45.974153" lon="10.314099"><time>2025-04-28T05:37:17.000Z</time><ele>306.4</ele></trkpt><trkpt lat="45.974148" lon="10.314089"><time>2025-04-28T05:37:18.000Z</time><ele>306.4</ele></trkpt><trkpt lat="45.97414" lon="10.314077"><time>2025-04-28T05:37:19.000Z</time><ele>306.4</ele></trkpt><trkpt lat="45.974131" lon="10.314063"><time>2025-04-28T05:37:20.000Z</time><ele>306.4</ele></trkpt><trkpt lat="45.974123" lon="10.314052"><time>2025-04-28T05:37:21.000Z</time><ele>306.4</ele></trkpt><trkpt lat="45.974112" lon="10.314041"><time>2025-04-28T05:37:22.000Z</time><ele>306.4</ele></trkpt><trkpt lat="45.974102" lon="10.314031"><time>2025-04-28T05:37:23.000Z</time><ele>306.4</ele></trkpt><trkpt lat="45.97409" lon="10.314017"><time>2025-04-28T05:37:24.000Z</time><ele>306.4</ele></trkpt><trkpt lat="45.974079" lon="10.314"><time>2025-04-28T05:37:25.000Z</time><ele>306.4</ele></trkpt><trkpt lat="45.974067" lon="10.313983"><time>2025-04-28T05:37:26.000Z</time><ele>306.4</ele></trkpt><trkpt lat="45.974059" lon="10.313973"><time>2025-04-28T05:37:27.000Z</time><ele>306.4</ele></trkpt><trkpt lat="45.974045" lon="10.313958"><time>2025-04-28T05:37:28.000Z</time><ele>306.4</ele></trkpt><trkpt lat="45.974036" lon="10.313946"><time>2025-04-28T05:37:29.000Z</time><ele>306.4</ele></trkpt><trkpt lat="45.974029" lon="10.313934"><time>2025-04-28T05:37:30.000Z</time><ele>306.4</ele></trkpt><trkpt lat="45.974019" lon="10.313918"><time>2025-04-28T05:37:31.000Z</time><ele>306.4</ele></trkpt><trkpt lat="45.974007" lon="10.313903"><time>2025-04-28T05:37:32.000Z</time><ele>306.4</ele></trkpt><trkpt lat="45.973998" lon="10.313886"><time>2025-04-28T05:37:33.000Z</time><ele>306.4</ele></trkpt><trkpt lat="45.973985" lon="10.313866"><time>2025-04-28T05:37:34.000Z</time><ele>306.4</ele></trkpt><trkpt lat="45.973972" lon="10.313852"><time>2025-04-28T05:37:35.000Z</time><ele>306.4</ele></trkpt><trkpt lat="45.973966" lon="10.313837"><time>2025-04-28T05:37:36.000Z</time><ele>306.4</ele></trkpt><trkpt lat="45.973959" lon="10.31382"><time>2025-04-28T05:37:37.000Z</time><ele>306.4</ele></trkpt><trkpt lat="45.973955" lon="10.313811"><time>2025-04-28T05:37:38.000Z</time><ele>306.4</ele></trkpt><trkpt lat="45.973947" lon="10.313792"><time>2025-04-28T05:37:39.000Z</time><ele>306.4</ele></trkpt><trkpt lat="45.973936" lon="10.313779"><time>2025-04-28T05:37:40.000Z</time><ele>306.4</ele></trkpt><trkpt lat="45.973926" lon="10.313758"><time>2025-04-28T05:37:41.000Z</time><ele>306.2</ele></trkpt><trkpt lat="45.973922" lon="10.31374"><time>2025-04-28T05:37:42.000Z</time><ele>306.2</ele></trkpt><trkpt lat="45.973918" lon="10.313734"><time>2025-04-28T05:37:43.000Z</time><ele>306.2</ele></trkpt><trkpt lat="45.973913" lon="10.313731"><time>2025-04-28T05:37:44.000Z</time><ele>306.2</ele></trkpt><trkpt lat="45.973901" lon="10.313716"><time>2025-04-28T05:37:45.000Z</time><ele>306.4</ele></trkpt><trkpt lat="45.973893" lon="10.313704"><time>2025-04-28T05:37:46.000Z</time><ele>306.4</ele></trkpt><trkpt lat="45.973884" lon="10.313691"><time>2025-04-28T05:37:47.000Z</time><ele>306.4</ele></trkpt><trkpt lat="45.973869" lon="10.313672"><time>2025-04-28T05:37:48.000Z</time><ele>306.4</ele></trkpt><trkpt lat="45.973859" lon="10.313661"><time>2025-04-28T05:37:49.000Z</time><ele>306.4</ele></trkpt><trkpt lat="45.973848" lon="10.313645"><time>2025-04-28T05:37:50.000Z</time><ele>306.4</ele></trkpt><trkpt lat="45.97384" lon="10.313632"><time>2025-04-28T05:37:51.000Z</time><ele>306.4</ele></trkpt><trkpt lat="45.973833" lon="10.31362"><time>2025-04-28T05:37:52.000Z</time><ele>306.4</ele></trkpt><trkpt lat="45.973828" lon="10.313611"><time>2025-04-28T05:37:53.000Z</time><ele>306.6</ele></trkpt><trkpt lat="45.97382" lon="10.313599"><time>2025-04-28T05:37:54.000Z</time><ele>306.6</ele></trkpt><trkpt lat="45.973811" lon="10.313587"><time>2025-04-28T05:37:55.000Z</time><ele>306.6</ele></trkpt><trkpt lat="45.973794" lon="10.313565"><time>2025-04-28T05:37:56.000Z</time><ele>306.6</ele></trkpt><trkpt lat="45.97378" lon="10.313547"><time>2025-04-28T05:37:57.000Z</time><ele>306.6</ele></trkpt><trkpt lat="45.97377" lon="10.313535"><time>2025-04-28T05:37:58.000Z</time><ele>306.6</ele></trkpt><trkpt lat="45.973758" lon="10.313515"><time>2025-04-28T05:37:59.000Z</time><ele>306.6</ele></trkpt><trkpt lat="45.973749" lon="10.3135"><time>2025-04-28T05:38:00.000Z</time><ele>306.6</ele></trkpt><trkpt lat="45.973739" lon="10.313484"><time>2025-04-28T05:38:01.000Z</time><ele>306.6</ele></trkpt><trkpt lat="45.973732" lon="10.313468"><time>2025-04-28T05:38:02.000Z</time><ele>306.6</ele></trkpt><trkpt lat="45.973723" lon="10.313451"><time>2025-04-28T05:38:03.000Z</time><ele>306.6</ele></trkpt><trkpt lat="45.973714" lon="10.313436"><time>2025-04-28T05:38:04.000Z</time><ele>306.6</ele></trkpt><trkpt lat="45.973705" lon="10.313423"><time>2025-04-28T05:38:05.000Z</time><ele>306.6</ele></trkpt><trkpt lat="45.973693" lon="10.313408"><time>2025-04-28T05:38:06.000Z</time><ele>306.6</ele></trkpt><trkpt lat="45.973681" lon="10.313394"><time>2025-04-28T05:38:07.000Z</time><ele>306.6</ele></trkpt><trkpt lat="45.973666" lon="10.313377"><time>2025-04-28T05:38:08.000Z</time><ele>306.6</ele></trkpt><trkpt lat="45.973655" lon="10.313365"><time>2025-04-28T05:38:09.000Z</time><ele>306.6</ele></trkpt><trkpt lat="45.973644" lon="10.313349"><time>2025-04-28T05:38:10.000Z</time><ele>306.6</ele></trkpt><trkpt lat="45.973636" lon="10.313331"><time>2025-04-28T05:38:11.000Z</time><ele>306.6</ele></trkpt><trkpt lat="45.973628" lon="10.313315"><time>2025-04-28T05:38:12.000Z</time><ele>306.6</ele></trkpt><trkpt lat="45.973619" lon="10.313301"><time>2025-04-28T05:38:13.000Z</time><ele>306.6</ele></trkpt><trkpt lat="45.97361" lon="10.313287"><time>2025-04-28T05:38:14.000Z</time><ele>306.6</ele></trkpt><trkpt lat="45.973593" lon="10.31327"><time>2025-04-28T05:38:15.000Z</time><ele>306.6</ele></trkpt><trkpt lat="45.97358" lon="10.313252"><time>2025-04-28T05:38:16.000Z</time><ele>306.6</ele></trkpt><trkpt lat="45.973566" lon="10.313231"><time>2025-04-28T05:38:17.000Z</time><ele>306.6</ele></trkpt><trkpt lat="45.973556" lon="10.313218"><time>2025-04-28T05:38:18.000Z</time><ele>306.6</ele></trkpt><trkpt lat="45.973544" lon="10.313204"><time>2025-04-28T05:38:19.000Z</time><ele>306.8</ele></trkpt><trkpt lat="45.973537" lon="10.313189"><time>2025-04-28T05:38:20.000Z</time><ele>306.8</ele></trkpt><trkpt lat="45.973532" lon="10.313177"><time>2025-04-28T05:38:21.000Z</time><ele>306.8</ele></trkpt><trkpt lat="45.973522" lon="10.313159"><time>2025-04-28T05:38:22.000Z</time><ele>306.8</ele></trkpt><trkpt lat="45.973515" lon="10.313148"><time>2025-04-28T05:38:23.000Z</time><ele>306.8</ele></trkpt><trkpt lat="45.973509" lon="10.313136"><time>2025-04-28T05:38:24.000Z</time><ele>306.8</ele></trkpt><trkpt lat="45.973502" lon="10.313127"><time>2025-04-28T05:38:25.000Z</time><ele>306.8</ele></trkpt><trkpt lat="45.973491" lon="10.313112"><time>2025-04-28T05:38:26.000Z</time><ele>306.8</ele></trkpt><trkpt lat="45.973482" lon="10.313099"><time>2025-04-28T05:38:27.000Z</time><ele>306.8</ele></trkpt><trkpt lat="45.973472" lon="10.313085"><time>2025-04-28T05:38:28.000Z</time><ele>306.8</ele></trkpt><trkpt lat="45.973461" lon="10.313074"><time>2025-04-28T05:38:29.000Z</time><ele>307</ele></trkpt><trkpt lat="45.97345" lon="10.313059"><time>2025-04-28T05:38:30.000Z</time><ele>307</ele></trkpt><trkpt lat="45.97344" lon="10.313046"><time>2025-04-28T05:38:31.000Z</time><ele>307</ele></trkpt><trkpt lat="45.973431" lon="10.313032"><time>2025-04-28T05:38:32.000Z</time><ele>307</ele></trkpt><trkpt lat="45.973423" lon="10.313016"><time>2025-04-28T05:38:33.000Z</time><ele>307</ele></trkpt><trkpt lat="45.973413" lon="10.313003"><time>2025-04-28T05:38:34.000Z</time><ele>307.2</ele></trkpt><trkpt lat="45.973404" lon="10.31299"><time>2025-04-28T05:38:35.000Z</time><ele>307.2</ele></trkpt><trkpt lat="45.973395" lon="10.312977"><time>2025-04-28T05:38:36.000Z</time><ele>307.2</ele></trkpt><trkpt lat="45.973387" lon="10.312962"><time>2025-04-28T05:38:37.000Z</time><ele>307.2</ele></trkpt><trkpt lat="45.973381" lon="10.312948"><time>2025-04-28T05:38:38.000Z</time><ele>307.2</ele></trkpt><trkpt lat="45.973372" lon="10.312931"><time>2025-04-28T05:38:39.000Z</time><ele>307.2</ele></trkpt><trkpt lat="45.973367" lon="10.312917"><time>2025-04-28T05:38:40.000Z</time><ele>307.4</ele></trkpt><trkpt lat="45.973361" lon="10.312905"><time>2025-04-28T05:38:41.000Z</time><ele>307.4</ele></trkpt><trkpt lat="45.97335" lon="10.312891"><time>2025-04-28T05:38:42.000Z</time><ele>307.6</ele></trkpt><trkpt lat="45.97334" lon="10.31288"><time>2025-04-28T05:38:43.000Z</time><ele>307.6</ele></trkpt><trkpt lat="45.973327" lon="10.312868"><time>2025-04-28T05:38:44.000Z</time><ele>307.6</ele></trkpt><trkpt lat="45.973314" lon="10.312853"><time>2025-04-28T05:38:45.000Z</time><ele>307.6</ele></trkpt><trkpt lat="45.973303" lon="10.312837"><time>2025-04-28T05:38:46.000Z</time><ele>307.6</ele></trkpt><trkpt lat="45.973292" lon="10.31282"><time>2025-04-28T05:38:47.000Z</time><ele>307.8</ele></trkpt><trkpt lat="45.97328" lon="10.312806"><time>2025-04-28T05:38:48.000Z</time><ele>307.8</ele></trkpt><trkpt lat="45.973269" lon="10.312796"><time>2025-04-28T05:38:49.000Z</time><ele>307.8</ele></trkpt><trkpt lat="45.973258" lon="10.312785"><time>2025-04-28T05:38:50.000Z</time><ele>307.8</ele></trkpt><trkpt lat="45.973249" lon="10.312773"><time>2025-04-28T05:38:51.000Z</time><ele>307.8</ele></trkpt><trkpt lat="45.973242" lon="10.312758"><time>2025-04-28T05:38:52.000Z</time><ele>307.8</ele></trkpt><trkpt lat="45.973232" lon="10.312741"><time>2025-04-28T05:38:53.000Z</time><ele>308</ele></trkpt><trkpt lat="45.973223" lon="10.312731"><time>2025-04-28T05:38:54.000Z</time><ele>308</ele></trkpt><trkpt lat="45.973214" lon="10.312721"><time>2025-04-28T05:38:55.000Z</time><ele>308</ele></trkpt><trkpt lat="45.973201" lon="10.312709"><time>2025-04-28T05:38:56.000Z</time><ele>308</ele></trkpt><trkpt lat="45.973189" lon="10.312695"><time>2025-04-28T05:38:57.000Z</time><ele>308.2</ele></trkpt><trkpt lat="45.973177" lon="10.312681"><time>2025-04-28T05:38:58.000Z</time><ele>308.2</ele></trkpt><trkpt lat="45.973166" lon="10.312666"><time>2025-04-28T05:38:59.000Z</time><ele>308.2</ele></trkpt><trkpt lat="45.973155" lon="10.312652"><time>2025-04-28T05:39:00.000Z</time><ele>308.4</ele></trkpt><trkpt lat="45.973147" lon="10.312639"><time>2025-04-28T05:39:01.000Z</time><ele>308.4</ele></trkpt><trkpt lat="45.973137" lon="10.312626"><time>2025-04-28T05:39:02.000Z</time><ele>308.4</ele></trkpt><trkpt lat="45.97313" lon="10.312614"><time>2025-04-28T05:39:03.000Z</time><ele>308.6</ele></trkpt><trkpt lat="45.973122" lon="10.3126"><time>2025-04-28T05:39:04.000Z</time><ele>308.6</ele></trkpt><trkpt lat="45.973117" lon="10.31259"><time>2025-04-28T05:39:05.000Z</time><ele>308.6</ele></trkpt><trkpt lat="45.973107" lon="10.312574"><time>2025-04-28T05:39:06.000Z</time><ele>308.8</ele></trkpt><trkpt lat="45.973102" lon="10.312567"><time>2025-04-28T05:39:07.000Z</time><ele>308.8</ele></trkpt><trkpt lat="45.973095" lon="10.312558"><time>2025-04-28T05:39:08.000Z</time><ele>308.8</ele></trkpt><trkpt lat="45.973087" lon="10.312548"><time>2025-04-28T05:39:09.000Z</time><ele>308.8</ele></trkpt><trkpt lat="45.973076" lon="10.312538"><time>2025-04-28T05:39:10.000Z</time><ele>308.8</ele></trkpt><trkpt lat="45.973069" lon="10.312531"><time>2025-04-28T05:39:11.000Z</time><ele>309</ele></trkpt><trkpt lat="45.973057" lon="10.312522"><time>2025-04-28T05:39:12.000Z</time><ele>309</ele></trkpt><trkpt lat="45.973043" lon="10.312512"><time>2025-04-28T05:39:13.000Z</time><ele>309.2</ele></trkpt><trkpt lat="45.973033" lon="10.312505"><time>2025-04-28T05:39:14.000Z</time><ele>309.2</ele></trkpt><trkpt lat="45.973025" lon="10.312497"><time>2025-04-28T05:39:15.000Z</time><ele>309.2</ele></trkpt><trkpt lat="45.973018" lon="10.312489"><time>2025-04-28T05:39:16.000Z</time><ele>309.2</ele></trkpt><trkpt lat="45.973011" lon="10.312477"><time>2025-04-28T05:39:17.000Z</time><ele>309.4</ele></trkpt><trkpt lat="45.973002" lon="10.312462"><time>2025-04-28T05:39:18.000Z</time><ele>309.4</ele></trkpt><trkpt lat="45.972992" lon="10.312454"><time>2025-04-28T05:39:19.000Z</time><ele>309.4</ele></trkpt><trkpt lat="45.972983" lon="10.312448"><time>2025-04-28T05:39:20.000Z</time><ele>309.6</ele></trkpt><trkpt lat="45.972973" lon="10.31245"><time>2025-04-28T05:39:21.000Z</time><ele>309.6</ele></trkpt><trkpt lat="45.972962" lon="10.312455"><time>2025-04-28T05:39:22.000Z</time><ele>309.6</ele></trkpt><trkpt lat="45.972961" lon="10.312456"><time>2025-04-28T05:39:23.000Z</time><ele>309.8</ele></trkpt><trkpt lat="45.972961" lon="10.312456"><time>2025-04-28T05:39:24.000Z</time><ele>309.8</ele></trkpt><trkpt lat="45.972957" lon="10.312462"><time>2025-04-28T05:39:25.000Z</time><ele>309.8</ele></trkpt><trkpt lat="45.972957" lon="10.312463"><time>2025-04-28T05:39:26.000Z</time><ele>309.8</ele></trkpt><trkpt lat="45.972957" lon="10.312465"><time>2025-04-28T05:39:27.000Z</time><ele>310</ele></trkpt><trkpt lat="45.972958" lon="10.312465"><time>2025-04-28T05:39:28.000Z</time><ele>310</ele></trkpt><trkpt lat="45.972958" lon="10.312465"><time>2025-04-28T05:39:29.000Z</time><ele>310.2</ele></trkpt><trkpt lat="45.972959" lon="10.312467"><time>2025-04-28T05:39:30.000Z</time><ele>310.2</ele></trkpt><trkpt lat="45.972958" lon="10.312464"><time>2025-04-28T05:39:31.000Z</time><ele>310.2</ele></trkpt><trkpt lat="45.972957" lon="10.31246"><time>2025-04-28T05:39:32.000Z</time><ele>310</ele></trkpt><trkpt lat="45.972954" lon="10.312454"><time>2025-04-28T05:39:33.000Z</time><ele>310</ele></trkpt><trkpt lat="45.972953" lon="10.312447"><time>2025-04-28T05:39:34.000Z</time><ele>310</ele></trkpt><trkpt lat="45.972953" lon="10.312441"><time>2025-04-28T05:39:35.000Z</time><ele>310</ele></trkpt><trkpt lat="45.972951" lon="10.31243"><time>2025-04-28T05:39:36.000Z</time><ele>310</ele></trkpt><trkpt lat="45.972955" lon="10.312421"><time>2025-04-28T05:39:37.000Z</time><ele>310</ele></trkpt><trkpt lat="45.972959" lon="10.312412"><time>2025-04-28T05:39:38.000Z</time><ele>310</ele></trkpt><trkpt lat="45.972961" lon="10.312401"><time>2025-04-28T05:39:39.000Z</time><ele>310.2</ele></trkpt><trkpt lat="45.972959" lon="10.312389"><time>2025-04-28T05:39:40.000Z</time><ele>310.2</ele></trkpt><trkpt lat="45.97296" lon="10.312377"><time>2025-04-28T05:39:41.000Z</time><ele>310.2</ele></trkpt><trkpt lat="45.972964" lon="10.312365"><time>2025-04-28T05:39:42.000Z</time><ele>310.4</ele></trkpt><trkpt lat="45.97297" lon="10.312349"><time>2025-04-28T05:39:43.000Z</time><ele>310.4</ele></trkpt><trkpt lat="45.972979" lon="10.312335"><time>2025-04-28T05:39:44.000Z</time><ele>310.4</ele></trkpt><trkpt lat="45.972993" lon="10.312322"><time>2025-04-28T05:39:45.000Z</time><ele>310.4</ele></trkpt><trkpt lat="45.973005" lon="10.312309"><time>2025-04-28T05:39:46.000Z</time><ele>310.6</ele></trkpt><trkpt lat="45.973012" lon="10.312297"><time>2025-04-28T05:39:47.000Z</time><ele>310.8</ele></trkpt><trkpt lat="45.973015" lon="10.312284"><time>2025-04-28T05:39:48.000Z</time><ele>310.8</ele></trkpt><trkpt lat="45.97302" lon="10.312269"><time>2025-04-28T05:39:49.000Z</time><ele>310.8</ele></trkpt><trkpt lat="45.973029" lon="10.312255"><time>2025-04-28T05:39:50.000Z</time><ele>310.8</ele></trkpt><trkpt lat="45.97304" lon="10.312243"><time>2025-04-28T05:39:51.000Z</time><ele>311</ele></trkpt><trkpt lat="45.973048" lon="10.312234"><time>2025-04-28T05:39:52.000Z</time><ele>311</ele></trkpt><trkpt lat="45.973051" lon="10.312227"><time>2025-04-28T05:39:53.000Z</time><ele>311</ele></trkpt><trkpt lat="45.973049" lon="10.312216"><time>2025-04-28T05:39:54.000Z</time><ele>311.2</ele></trkpt><trkpt lat="45.973049" lon="10.312202"><time>2025-04-28T05:39:55.000Z</time><ele>311.2</ele></trkpt><trkpt lat="45.973053" lon="10.312184"><time>2025-04-28T05:39:56.000Z</time><ele>311.4</ele></trkpt><trkpt lat="45.973056" lon="10.312162"><time>2025-04-28T05:39:57.000Z</time><ele>311.4</ele></trkpt><trkpt lat="45.973061" lon="10.312148"><time>2025-04-28T05:39:58.000Z</time><ele>311.8</ele></trkpt><trkpt lat="45.973068" lon="10.312137"><time>2025-04-28T05:39:59.000Z</time><ele>311.8</ele></trkpt><trkpt lat="45.973074" lon="10.312129"><time>2025-04-28T05:40:00.000Z</time><ele>312</ele></trkpt><trkpt lat="45.973082" lon="10.312116"><time>2025-04-28T05:40:01.000Z</time><ele>312.2</ele></trkpt><trkpt lat="45.97308" lon="10.312122"><time>2025-04-28T05:40:02.000Z</time><ele>312.2</ele></trkpt><trkpt lat="45.973079" lon="10.312113"><time>2025-04-28T05:40:03.000Z</time><ele>312.2</ele></trkpt><trkpt lat="45.973089" lon="10.312108"><time>2025-04-28T05:40:04.000Z</time><ele>312.2</ele></trkpt><trkpt lat="45.973101" lon="10.312104"><time>2025-04-28T05:40:05.000Z</time><ele>312.2</ele></trkpt><trkpt lat="45.973107" lon="10.312098"><time>2025-04-28T05:40:06.000Z</time><ele>312.2</ele></trkpt><trkpt lat="45.973112" lon="10.312087"><time>2025-04-28T05:40:07.000Z</time><ele>312.2</ele></trkpt><trkpt lat="45.973119" lon="10.312072"><time>2025-04-28T05:40:08.000Z</time><ele>312.2</ele></trkpt><trkpt lat="45.97312" lon="10.312058"><time>2025-04-28T05:40:09.000Z</time><ele>312.2</ele></trkpt><trkpt lat="45.973119" lon="10.312045"><time>2025-04-28T05:40:10.000Z</time><ele>312.2</ele></trkpt><trkpt lat="45.973128" lon="10.31203"><time>2025-04-28T05:40:11.000Z</time><ele>312.4</ele></trkpt><trkpt lat="45.973133" lon="10.312018"><time>2025-04-28T05:40:12.000Z</time><ele>312.6</ele></trkpt><trkpt lat="45.973142" lon="10.312006"><time>2025-04-28T05:40:13.000Z</time><ele>312.8</ele></trkpt><trkpt lat="45.973153" lon="10.311995"><time>2025-04-28T05:40:14.000Z</time><ele>312.8</ele></trkpt><trkpt lat="45.973174" lon="10.311991"><time>2025-04-28T05:40:15.000Z</time><ele>313</ele></trkpt><trkpt lat="45.97319" lon="10.311989"><time>2025-04-28T05:40:16.000Z</time><ele>313</ele></trkpt><trkpt lat="45.973202" lon="10.311979"><time>2025-04-28T05:40:17.000Z</time><ele>313.2</ele></trkpt><trkpt lat="45.973213" lon="10.311969"><time>2025-04-28T05:40:18.000Z</time><ele>313.2</ele></trkpt><trkpt lat="45.973216" lon="10.311965"><time>2025-04-28T05:40:19.000Z</time><ele>313.4</ele></trkpt><trkpt lat="45.973218" lon="10.311963"><time>2025-04-28T05:40:20.000Z</time><ele>313.4</ele></trkpt><trkpt lat="45.973219" lon="10.311962"><time>2025-04-28T05:40:21.000Z</time><ele>313.4</ele></trkpt><trkpt lat="45.97322" lon="10.311961"><time>2025-04-28T05:40:22.000Z</time><ele>313.4</ele></trkpt><trkpt lat="45.973219" lon="10.31196"><time>2025-04-28T05:40:23.000Z</time><ele>313.4</ele></trkpt><trkpt lat="45.97322" lon="10.31196"><time>2025-04-28T05:40:24.000Z</time><ele>313.4</ele></trkpt><trkpt lat="45.973222" lon="10.311956"><time>2025-04-28T05:40:25.000Z</time><ele>313.6</ele></trkpt><trkpt lat="45.973228" lon="10.311953"><time>2025-04-28T05:40:26.000Z</time><ele>313.6</ele></trkpt><trkpt lat="45.973233" lon="10.311947"><time>2025-04-28T05:40:27.000Z</time><ele>313.6</ele></trkpt><trkpt lat="45.973243" lon="10.311936"><time>2025-04-28T05:40:28.000Z</time><ele>313.6</ele></trkpt><trkpt lat="45.973244" lon="10.311933"><time>2025-04-28T05:40:29.000Z</time><ele>313.8</ele></trkpt><trkpt lat="45.973246" lon="10.31193"><time>2025-04-28T05:40:30.000Z</time><ele>314</ele></trkpt><trkpt lat="45.973248" lon="10.311927"><time>2025-04-28T05:40:31.000Z</time><ele>314.2</ele></trkpt><trkpt lat="45.973251" lon="10.311921"><time>2025-04-28T05:40:32.000Z</time><ele>314.2</ele></trkpt><trkpt lat="45.973254" lon="10.311916"><time>2025-04-28T05:40:33.000Z</time><ele>314.2</ele></trkpt><trkpt lat="45.973259" lon="10.31191"><time>2025-04-28T05:40:34.000Z</time><ele>314.4</ele></trkpt><trkpt lat="45.973259" lon="10.311889"><time>2025-04-28T05:40:35.000Z</time><ele>314.4</ele></trkpt><trkpt lat="45.973255" lon="10.311884"><time>2025-04-28T05:40:36.000Z</time><ele>314.6</ele></trkpt><trkpt lat="45.973258" lon="10.311878"><time>2025-04-28T05:40:37.000Z</time><ele>314.8</ele></trkpt><trkpt lat="45.97327" lon="10.311834"><time>2025-04-28T05:40:38.000Z</time><ele>315</ele></trkpt><trkpt lat="45.973299" lon="10.311809"><time>2025-04-28T05:40:39.000Z</time><ele>315.2</ele></trkpt><trkpt lat="45.973316" lon="10.311791"><time>2025-04-28T05:40:40.000Z</time><ele>315.4</ele></trkpt><trkpt lat="45.97334" lon="10.311771"><time>2025-04-28T05:40:41.000Z</time><ele>315.6</ele></trkpt><trkpt lat="45.973344" lon="10.31175"><time>2025-04-28T05:40:42.000Z</time><ele>315.8</ele></trkpt><trkpt lat="45.973344" lon="10.311736"><time>2025-04-28T05:40:43.000Z</time><ele>316</ele></trkpt><trkpt lat="45.973345" lon="10.311722"><time>2025-04-28T05:40:44.000Z</time><ele>316</ele></trkpt><trkpt lat="45.973352" lon="10.311709"><time>2025-04-28T05:40:45.000Z</time><ele>316.2</ele></trkpt><trkpt lat="45.973358" lon="10.311695"><time>2025-04-28T05:40:46.000Z</time><ele>316.4</ele></trkpt><trkpt lat="45.973359" lon="10.311681"><time>2025-04-28T05:40:47.000Z</time><ele>316.6</ele></trkpt><trkpt lat="45.973363" lon="10.311665"><time>2025-04-28T05:40:48.000Z</time><ele>316.6</ele></trkpt><trkpt lat="45.973362" lon="10.311648"><time>2025-04-28T05:40:49.000Z</time><ele>316.8</ele></trkpt><trkpt lat="45.973362" lon="10.311631"><time>2025-04-28T05:40:50.000Z</time><ele>317</ele></trkpt><trkpt lat="45.973364" lon="10.311612"><time>2025-04-28T05:40:51.000Z</time><ele>317.2</ele></trkpt><trkpt lat="45.973367" lon="10.311595"><time>2025-04-28T05:40:52.000Z</time><ele>317.4</ele></trkpt><trkpt lat="45.973371" lon="10.311578"><time>2025-04-28T05:40:53.000Z</time><ele>317.6</ele></trkpt><trkpt lat="45.973385" lon="10.311568"><time>2025-04-28T05:40:54.000Z</time><ele>317.8</ele></trkpt><trkpt lat="45.973401" lon="10.311558"><time>2025-04-28T05:40:55.000Z</time><ele>318</ele></trkpt><trkpt lat="45.973414" lon="10.311551"><time>2025-04-28T05:40:56.000Z</time><ele>318.2</ele></trkpt><trkpt lat="45.973425" lon="10.31154"><time>2025-04-28T05:40:57.000Z</time><ele>318.6</ele></trkpt><trkpt lat="45.973433" lon="10.311529"><time>2025-04-28T05:40:58.000Z</time><ele>318.8</ele></trkpt><trkpt lat="45.97344" lon="10.311508"><time>2025-04-28T05:40:59.000Z</time><ele>318.8</ele></trkpt><trkpt lat="45.973444" lon="10.311489"><time>2025-04-28T05:41:00.000Z</time><ele>318.8</ele></trkpt><trkpt lat="45.97345" lon="10.311472"><time>2025-04-28T05:41:01.000Z</time><ele>318.8</ele></trkpt><trkpt lat="45.973453" lon="10.311461"><time>2025-04-28T05:41:02.000Z</time><ele>318.8</ele></trkpt><trkpt lat="45.973459" lon="10.311446"><time>2025-04-28T05:41:03.000Z</time><ele>318.8</ele></trkpt><trkpt lat="45.973464" lon="10.311431"><time>2025-04-28T05:41:04.000Z</time><ele>318.8</ele></trkpt><trkpt lat="45.973476" lon="10.311419"><time>2025-04-28T05:41:05.000Z</time><ele>318.8</ele></trkpt><trkpt lat="45.973487" lon="10.311402"><time>2025-04-28T05:41:06.000Z</time><ele>319</ele></trkpt><trkpt lat="45.9735" lon="10.311384"><time>2025-04-28T05:41:07.000Z</time><ele>319</ele></trkpt><trkpt lat="45.973505" lon="10.311363"><time>2025-04-28T05:41:08.000Z</time><ele>319.2</ele></trkpt><trkpt lat="45.97351" lon="10.311348"><time>2025-04-28T05:41:09.000Z</time><ele>319.2</ele></trkpt><trkpt lat="45.973515" lon="10.311345"><time>2025-04-28T05:41:10.000Z</time><ele>319.4</ele></trkpt><trkpt lat="45.973509" lon="10.311339"><time>2025-04-28T05:41:11.000Z</time><ele>319.4</ele></trkpt><trkpt lat="45.973506" lon="10.311326"><time>2025-04-28T05:41:12.000Z</time><ele>319.6</ele></trkpt><trkpt lat="45.973508" lon="10.311311"><time>2025-04-28T05:41:13.000Z</time><ele>319.8</ele></trkpt><trkpt lat="45.973505" lon="10.3113"><time>2025-04-28T05:41:14.000Z</time><ele>320</ele></trkpt><trkpt lat="45.973494" lon="10.311279"><time>2025-04-28T05:41:15.000Z</time><ele>320.2</ele></trkpt><trkpt lat="45.973489" lon="10.311254"><time>2025-04-28T05:41:16.000Z</time><ele>320.4</ele></trkpt><trkpt lat="45.973478" lon="10.311238"><time>2025-04-28T05:41:17.000Z</time><ele>320.4</ele></trkpt><trkpt lat="45.973474" lon="10.311219"><time>2025-04-28T05:41:18.000Z</time><ele>320.4</ele></trkpt><trkpt lat="45.973468" lon="10.311206"><time>2025-04-28T05:41:19.000Z</time><ele>320.4</ele></trkpt><trkpt lat="45.97346" lon="10.31119"><time>2025-04-28T05:41:20.000Z</time><ele>320.6</ele></trkpt><trkpt lat="45.973455" lon="10.311173"><time>2025-04-28T05:41:21.000Z</time><ele>320.8</ele></trkpt><trkpt lat="45.973446" lon="10.311159"><time>2025-04-28T05:41:22.000Z</time><ele>320.8</ele></trkpt><trkpt lat="45.97344" lon="10.311151"><time>2025-04-28T05:41:23.000Z</time><ele>321</ele></trkpt><trkpt lat="45.973434" lon="10.31114"><time>2025-04-28T05:41:24.000Z</time><ele>321</ele></trkpt><trkpt lat="45.973433" lon="10.311128"><time>2025-04-28T05:41:25.000Z</time><ele>321.2</ele></trkpt><trkpt lat="45.97343" lon="10.311119"><time>2025-04-28T05:41:26.000Z</time><ele>321.2</ele></trkpt><trkpt lat="45.973429" lon="10.311104"><time>2025-04-28T05:41:27.000Z</time><ele>321.4</ele></trkpt><trkpt lat="45.973428" lon="10.311088"><time>2025-04-28T05:41:28.000Z</time><ele>321.4</ele></trkpt><trkpt lat="45.973424" lon="10.311072"><time>2025-04-28T05:41:29.000Z</time><ele>321.6</ele></trkpt><trkpt lat="45.973418" lon="10.311054"><time>2025-04-28T05:41:30.000Z</time><ele>321.6</ele></trkpt><trkpt lat="45.973413" lon="10.311036"><time>2025-04-28T05:41:31.000Z</time><ele>321.8</ele></trkpt><trkpt lat="45.973408" lon="10.31102"><time>2025-04-28T05:41:32.000Z</time><ele>321.8</ele></trkpt><trkpt lat="45.973404" lon="10.311005"><time>2025-04-28T05:41:33.000Z</time><ele>321.8</ele></trkpt><trkpt lat="45.973403" lon="10.310984"><time>2025-04-28T05:41:34.000Z</time><ele>322</ele></trkpt><trkpt lat="45.973399" lon="10.310967"><time>2025-04-28T05:41:35.000Z</time><ele>322</ele></trkpt><trkpt lat="45.973393" lon="10.310953"><time>2025-04-28T05:41:36.000Z</time><ele>322.2</ele></trkpt><trkpt lat="45.973388" lon="10.31094"><time>2025-04-28T05:41:37.000Z</time><ele>322.4</ele></trkpt><trkpt lat="45.973381" lon="10.310927"><time>2025-04-28T05:41:38.000Z</time><ele>322.6</ele></trkpt><trkpt lat="45.973376" lon="10.310913"><time>2025-04-28T05:41:39.000Z</time><ele>322.6</ele></trkpt><trkpt lat="45.973371" lon="10.310904"><time>2025-04-28T05:41:40.000Z</time><ele>322.8</ele></trkpt><trkpt lat="45.973368" lon="10.310888"><time>2025-04-28T05:41:41.000Z</time><ele>323</ele></trkpt><trkpt lat="45.973364" lon="10.310873"><time>2025-04-28T05:41:42.000Z</time><ele>323</ele></trkpt><trkpt lat="45.97336" lon="10.310856"><time>2025-04-28T05:41:43.000Z</time><ele>323.2</ele></trkpt><trkpt lat="45.973355" lon="10.310842"><time>2025-04-28T05:41:44.000Z</time><ele>323.2</ele></trkpt><trkpt lat="45.97335" lon="10.310834"><time>2025-04-28T05:41:45.000Z</time><ele>323.4</ele></trkpt><trkpt lat="45.97335" lon="10.310818"><time>2025-04-28T05:41:46.000Z</time><ele>323.6</ele></trkpt><trkpt lat="45.973349" lon="10.310799"><time>2025-04-28T05:41:47.000Z</time><ele>323.6</ele></trkpt><trkpt lat="45.973344" lon="10.310782"><time>2025-04-28T05:41:48.000Z</time><ele>323.8</ele></trkpt><trkpt lat="45.97334" lon="10.310767"><time>2025-04-28T05:41:49.000Z</time><ele>323.8</ele></trkpt><trkpt lat="45.973341" lon="10.31075"><time>2025-04-28T05:41:50.000Z</time><ele>324</ele></trkpt><trkpt lat="45.973335" lon="10.310736"><time>2025-04-28T05:41:51.000Z</time><ele>324.2</ele></trkpt><trkpt lat="45.973326" lon="10.310722"><time>2025-04-28T05:41:52.000Z</time><ele>324.4</ele></trkpt><trkpt lat="45.973321" lon="10.310704"><time>2025-04-28T05:41:53.000Z</time><ele>324.4</ele></trkpt><trkpt lat="45.973313" lon="10.310691"><time>2025-04-28T05:41:54.000Z</time><ele>324.6</ele></trkpt><trkpt lat="45.973308" lon="10.310678"><time>2025-04-28T05:41:55.000Z</time><ele>324.8</ele></trkpt><trkpt lat="45.973302" lon="10.310667"><time>2025-04-28T05:41:56.000Z</time><ele>325</ele></trkpt><trkpt lat="45.973295" lon="10.310653"><time>2025-04-28T05:41:57.000Z</time><ele>325</ele></trkpt><trkpt lat="45.97329" lon="10.310639"><time>2025-04-28T05:41:58.000Z</time><ele>325.2</ele></trkpt><trkpt lat="45.973284" lon="10.310628"><time>2025-04-28T05:41:59.000Z</time><ele>325.4</ele></trkpt><trkpt lat="45.97328" lon="10.310615"><time>2025-04-28T05:42:00.000Z</time><ele>325.4</ele></trkpt><trkpt lat="45.973275" lon="10.310601"><time>2025-04-28T05:42:01.000Z</time><ele>325.6</ele></trkpt><trkpt lat="45.973269" lon="10.310585"><time>2025-04-28T05:42:02.000Z</time><ele>325.8</ele></trkpt><trkpt lat="45.973264" lon="10.31057"><time>2025-04-28T05:42:03.000Z</time><ele>325.8</ele></trkpt><trkpt lat="45.973259" lon="10.310557"><time>2025-04-28T05:42:04.000Z</time><ele>326</ele></trkpt><trkpt lat="45.973256" lon="10.310542"><time>2025-04-28T05:42:05.000Z</time><ele>326.2</ele></trkpt><trkpt lat="45.973253" lon="10.310524"><time>2025-04-28T05:42:06.000Z</time><ele>326.4</ele></trkpt><trkpt lat="45.973249" lon="10.310508"><time>2025-04-28T05:42:07.000Z</time><ele>326.6</ele></trkpt><trkpt lat="45.973246" lon="10.310496"><time>2025-04-28T05:42:08.000Z</time><ele>326.8</ele></trkpt><trkpt lat="45.973242" lon="10.310478"><time>2025-04-28T05:42:09.000Z</time><ele>326.8</ele></trkpt><trkpt lat="45.973237" lon="10.310461"><time>2025-04-28T05:42:10.000Z</time><ele>327</ele></trkpt><trkpt lat="45.973231" lon="10.310446"><time>2025-04-28T05:42:11.000Z</time><ele>327.2</ele></trkpt><trkpt lat="45.973224" lon="10.310431"><time>2025-04-28T05:42:12.000Z</time><ele>327.4</ele></trkpt><trkpt lat="45.973221" lon="10.310417"><time>2025-04-28T05:42:13.000Z</time><ele>327.6</ele></trkpt><trkpt lat="45.973217" lon="10.3104"><time>2025-04-28T05:42:14.000Z</time><ele>327.8</ele></trkpt><trkpt lat="45.973214" lon="10.310381"><time>2025-04-28T05:42:15.000Z</time><ele>328</ele></trkpt><trkpt lat="45.973206" lon="10.310365"><time>2025-04-28T05:42:16.000Z</time><ele>328.2</ele></trkpt><trkpt lat="45.9732" lon="10.31035"><time>2025-04-28T05:42:17.000Z</time><ele>328.4</ele></trkpt><trkpt lat="45.973196" lon="10.310337"><time>2025-04-28T05:42:18.000Z</time><ele>328.6</ele></trkpt><trkpt lat="45.973189" lon="10.310324"><time>2025-04-28T05:42:19.000Z</time><ele>328.6</ele></trkpt><trkpt lat="45.973185" lon="10.310312"><time>2025-04-28T05:42:20.000Z</time><ele>328.8</ele></trkpt><trkpt lat="45.973178" lon="10.310302"><time>2025-04-28T05:42:21.000Z</time><ele>329</ele></trkpt><trkpt lat="45.97317" lon="10.310291"><time>2025-04-28T05:42:22.000Z</time><ele>329.2</ele></trkpt><trkpt lat="45.973162" lon="10.310285"><time>2025-04-28T05:42:23.000Z</time><ele>329.4</ele></trkpt><trkpt lat="45.973157" lon="10.310275"><time>2025-04-28T05:42:24.000Z</time><ele>329.6</ele></trkpt><trkpt lat="45.973152" lon="10.310264"><time>2025-04-28T05:42:25.000Z</time><ele>329.8</ele></trkpt><trkpt lat="45.97315" lon="10.310254"><time>2025-04-28T05:42:26.000Z</time><ele>329.8</ele></trkpt><trkpt lat="45.973149" lon="10.310241"><time>2025-04-28T05:42:27.000Z</time><ele>330.2</ele></trkpt><trkpt lat="45.97315" lon="10.310226"><time>2025-04-28T05:42:28.000Z</time><ele>330.4</ele></trkpt><trkpt lat="45.973151" lon="10.31021"><time>2025-04-28T05:42:29.000Z</time><ele>330.4</ele></trkpt><trkpt lat="45.973147" lon="10.310199"><time>2025-04-28T05:42:30.000Z</time><ele>330.6</ele></trkpt><trkpt lat="45.973147" lon="10.310196"><time>2025-04-28T05:42:31.000Z</time><ele>331</ele></trkpt><trkpt lat="45.973148" lon="10.310188"><time>2025-04-28T05:42:32.000Z</time><ele>331</ele></trkpt><trkpt lat="45.973146" lon="10.310185"><time>2025-04-28T05:42:33.000Z</time><ele>331.4</ele></trkpt><trkpt lat="45.973145" lon="10.310177"><time>2025-04-28T05:42:34.000Z</time><ele>331.6</ele></trkpt><trkpt lat="45.973153" lon="10.310159"><time>2025-04-28T05:42:35.000Z</time><ele>331.8</ele></trkpt><trkpt lat="45.97315" lon="10.310147"><time>2025-04-28T05:42:36.000Z</time><ele>332.2</ele></trkpt><trkpt lat="45.973149" lon="10.31013"><time>2025-04-28T05:42:37.000Z</time><ele>332.4</ele></trkpt><trkpt lat="45.973145" lon="10.310118"><time>2025-04-28T05:42:38.000Z</time><ele>332.4</ele></trkpt><trkpt lat="45.973145" lon="10.310106"><time>2025-04-28T05:42:39.000Z</time><ele>332.6</ele></trkpt><trkpt lat="45.973149" lon="10.310092"><time>2025-04-28T05:42:40.000Z</time><ele>333</ele></trkpt><trkpt lat="45.973153" lon="10.310082"><time>2025-04-28T05:42:41.000Z</time><ele>333</ele></trkpt><trkpt lat="45.973153" lon="10.310069"><time>2025-04-28T05:42:42.000Z</time><ele>333.4</ele></trkpt><trkpt lat="45.973155" lon="10.310056"><time>2025-04-28T05:42:43.000Z</time><ele>333.4</ele></trkpt><trkpt lat="45.973158" lon="10.310043"><time>2025-04-28T05:42:44.000Z</time><ele>333.8</ele></trkpt><trkpt lat="45.973158" lon="10.310034"><time>2025-04-28T05:42:45.000Z</time><ele>334.2</ele></trkpt><trkpt lat="45.973164" lon="10.310024"><time>2025-04-28T05:42:46.000Z</time><ele>334.4</ele></trkpt><trkpt lat="45.97317" lon="10.310015"><time>2025-04-28T05:42:47.000Z</time><ele>334.6</ele></trkpt><trkpt lat="45.973174" lon="10.310008"><time>2025-04-28T05:42:48.000Z</time><ele>334.8</ele></trkpt><trkpt lat="45.973178" lon="10.31"><time>2025-04-28T05:42:49.000Z</time><ele>335</ele></trkpt><trkpt lat="45.973183" lon="10.309991"><time>2025-04-28T05:42:50.000Z</time><ele>335.4</ele></trkpt><trkpt lat="45.973191" lon="10.309978"><time>2025-04-28T05:42:51.000Z</time><ele>335.6</ele></trkpt><trkpt lat="45.973197" lon="10.309968"><time>2025-04-28T05:42:52.000Z</time><ele>335.8</ele></trkpt><trkpt lat="45.973203" lon="10.309962"><time>2025-04-28T05:42:53.000Z</time><ele>336.2</ele></trkpt><trkpt lat="45.973208" lon="10.309956"><time>2025-04-28T05:42:54.000Z</time><ele>336.2</ele></trkpt><trkpt lat="45.973216" lon="10.309949"><time>2025-04-28T05:42:55.000Z</time><ele>336.6</ele></trkpt><trkpt lat="45.973222" lon="10.309941"><time>2025-04-28T05:42:56.000Z</time><ele>336.8</ele></trkpt><trkpt lat="45.973228" lon="10.309932"><time>2025-04-28T05:42:57.000Z</time><ele>337</ele></trkpt><trkpt lat="45.973237" lon="10.309928"><time>2025-04-28T05:42:58.000Z</time><ele>337.2</ele></trkpt><trkpt lat="45.973247" lon="10.309923"><time>2025-04-28T05:42:59.000Z</time><ele>337.4</ele></trkpt><trkpt lat="45.973256" lon="10.309917"><time>2025-04-28T05:43:00.000Z</time><ele>337.6</ele></trkpt><trkpt lat="45.973267" lon="10.309915"><time>2025-04-28T05:43:01.000Z</time><ele>337.8</ele></trkpt><trkpt lat="45.973274" lon="10.309917"><time>2025-04-28T05:43:02.000Z</time><ele>337.8</ele></trkpt><trkpt lat="45.973283" lon="10.309918"><time>2025-04-28T05:43:03.000Z</time><ele>338</ele></trkpt><trkpt lat="45.973291" lon="10.309919"><time>2025-04-28T05:43:04.000Z</time><ele>338.2</ele></trkpt><trkpt lat="45.973298" lon="10.309923"><time>2025-04-28T05:43:05.000Z</time><ele>338.4</ele></trkpt><trkpt lat="45.973308" lon="10.309925"><time>2025-04-28T05:43:06.000Z</time><ele>338.6</ele></trkpt><trkpt lat="45.973312" lon="10.309925"><time>2025-04-28T05:43:07.000Z</time><ele>338.8</ele></trkpt><trkpt lat="45.973316" lon="10.309923"><time>2025-04-28T05:43:08.000Z</time><ele>338.8</ele></trkpt><trkpt lat="45.973318" lon="10.309921"><time>2025-04-28T05:43:09.000Z</time><ele>338.8</ele></trkpt><trkpt lat="45.973318" lon="10.309922"><time>2025-04-28T05:43:10.000Z</time><ele>339</ele></trkpt><trkpt lat="45.973318" lon="10.309924"><time>2025-04-28T05:43:11.000Z</time><ele>339</ele></trkpt><trkpt lat="45.973317" lon="10.309927"><time>2025-04-28T05:43:12.000Z</time><ele>339.2</ele></trkpt><trkpt lat="45.973318" lon="10.309931"><time>2025-04-28T05:43:13.000Z</time><ele>339.2</ele></trkpt><trkpt lat="45.973322" lon="10.309942"><time>2025-04-28T05:43:14.000Z</time><ele>339.2</ele></trkpt><trkpt lat="45.973329" lon="10.309954"><time>2025-04-28T05:43:15.000Z</time><ele>339.2</ele></trkpt><trkpt lat="45.973335" lon="10.30996"><time>2025-04-28T05:43:16.000Z</time><ele>339.4</ele></trkpt><trkpt lat="45.973335" lon="10.309974"><time>2025-04-28T05:43:17.000Z</time><ele>339.6</ele></trkpt><trkpt lat="45.973347" lon="10.309978"><time>2025-04-28T05:43:18.000Z</time><ele>339.6</ele></trkpt><trkpt lat="45.973356" lon="10.309979"><time>2025-04-28T05:43:19.000Z</time><ele>339.8</ele></trkpt><trkpt lat="45.973366" lon="10.309976"><time>2025-04-28T05:43:20.000Z</time><ele>340</ele></trkpt><trkpt lat="45.97337" lon="10.309971"><time>2025-04-28T05:43:21.000Z</time><ele>340.2</ele></trkpt><trkpt lat="45.973374" lon="10.309968"><time>2025-04-28T05:43:22.000Z</time><ele>340.2</ele></trkpt><trkpt lat="45.973379" lon="10.309965"><time>2025-04-28T05:43:23.000Z</time><ele>340.4</ele></trkpt><trkpt lat="45.97339" lon="10.309965"><time>2025-04-28T05:43:24.000Z</time><ele>340.6</ele></trkpt><trkpt lat="45.9734" lon="10.309968"><time>2025-04-28T05:43:25.000Z</time><ele>340.8</ele></trkpt><trkpt lat="45.973415" lon="10.309974"><time>2025-04-28T05:43:26.000Z</time><ele>341</ele></trkpt><trkpt lat="45.973433" lon="10.309978"><time>2025-04-28T05:43:27.000Z</time><ele>341.2</ele></trkpt><trkpt lat="45.973447" lon="10.30998"><time>2025-04-28T05:43:28.000Z</time><ele>341.4</ele></trkpt><trkpt lat="45.973454" lon="10.309981"><time>2025-04-28T05:43:29.000Z</time><ele>341.6</ele></trkpt><trkpt lat="45.973458" lon="10.309988"><time>2025-04-28T05:43:30.000Z</time><ele>341.8</ele></trkpt><trkpt lat="45.973468" lon="10.309993"><time>2025-04-28T05:43:31.000Z</time><ele>341.8</ele></trkpt><trkpt lat="45.973474" lon="10.310006"><time>2025-04-28T05:43:32.000Z</time><ele>342</ele></trkpt><trkpt lat="45.973478" lon="10.310016"><time>2025-04-28T05:43:33.000Z</time><ele>342</ele></trkpt><trkpt lat="45.973484" lon="10.310024"><time>2025-04-28T05:43:34.000Z</time><ele>342.2</ele></trkpt><trkpt lat="45.973493" lon="10.310035"><time>2025-04-28T05:43:35.000Z</time><ele>342.4</ele></trkpt><trkpt lat="45.973498" lon="10.310044"><time>2025-04-28T05:43:36.000Z</time><ele>342.6</ele></trkpt><trkpt lat="45.973507" lon="10.310051"><time>2025-04-28T05:43:37.000Z</time><ele>342.8</ele></trkpt><trkpt lat="45.973514" lon="10.310053"><time>2025-04-28T05:43:38.000Z</time><ele>343</ele></trkpt><trkpt lat="45.97352" lon="10.310054"><time>2025-04-28T05:43:39.000Z</time><ele>343.4</ele></trkpt><trkpt lat="45.973529" lon="10.310062"><time>2025-04-28T05:43:40.000Z</time><ele>343.6</ele></trkpt><trkpt lat="45.973537" lon="10.310069"><time>2025-04-28T05:43:41.000Z</time><ele>343.8</ele></trkpt><trkpt lat="45.973545" lon="10.310075"><time>2025-04-28T05:43:42.000Z</time><ele>344</ele></trkpt><trkpt lat="45.973554" lon="10.310076"><time>2025-04-28T05:43:43.000Z</time><ele>344.2</ele></trkpt><trkpt lat="45.973561" lon="10.310077"><time>2025-04-28T05:43:44.000Z</time><ele>344.6</ele></trkpt><trkpt lat="45.973569" lon="10.310082"><time>2025-04-28T05:43:45.000Z</time><ele>344.8</ele></trkpt><trkpt lat="45.973573" lon="10.310086"><time>2025-04-28T05:43:46.000Z</time><ele>345</ele></trkpt><trkpt lat="45.973579" lon="10.310105"><time>2025-04-28T05:43:47.000Z</time><ele>345.2</ele></trkpt><trkpt lat="45.973582" lon="10.310131"><time>2025-04-28T05:43:48.000Z</time><ele>345.2</ele></trkpt><trkpt lat="45.973584" lon="10.310153"><time>2025-04-28T05:43:49.000Z</time><ele>345.4</ele></trkpt><trkpt lat="45.973593" lon="10.310166"><time>2025-04-28T05:43:50.000Z</time><ele>345.4</ele></trkpt><trkpt lat="45.973602" lon="10.310184"><time>2025-04-28T05:43:51.000Z</time><ele>345.4</ele></trkpt><trkpt lat="45.973609" lon="10.3102"><time>2025-04-28T05:43:52.000Z</time><ele>345.4</ele></trkpt><trkpt lat="45.973613" lon="10.310212"><time>2025-04-28T05:43:53.000Z</time><ele>345.4</ele></trkpt><trkpt lat="45.973617" lon="10.310226"><time>2025-04-28T05:43:54.000Z</time><ele>345.4</ele></trkpt><trkpt lat="45.973622" lon="10.310242"><time>2025-04-28T05:43:55.000Z</time><ele>345.4</ele></trkpt><trkpt lat="45.973637" lon="10.310263"><time>2025-04-28T05:43:56.000Z</time><ele>345.4</ele></trkpt><trkpt lat="45.97364" lon="10.31027"><time>2025-04-28T05:43:57.000Z</time><ele>345.4</ele></trkpt><trkpt lat="45.973641" lon="10.310273"><time>2025-04-28T05:43:58.000Z</time><ele>345.4</ele></trkpt><trkpt lat="45.97364" lon="10.310271"><time>2025-04-28T05:43:59.000Z</time><ele>345.4</ele></trkpt><trkpt lat="45.973641" lon="10.310269"><time>2025-04-28T05:44:00.000Z</time><ele>345.4</ele></trkpt><trkpt lat="45.973642" lon="10.310269"><time>2025-04-28T05:44:01.000Z</time><ele>345.6</ele></trkpt><trkpt lat="45.973641" lon="10.310269"><time>2025-04-28T05:44:02.000Z</time><ele>345.6</ele></trkpt><trkpt lat="45.973641" lon="10.310266"><time>2025-04-28T05:44:03.000Z</time><ele>345.6</ele></trkpt><trkpt lat="45.973641" lon="10.310263"><time>2025-04-28T05:44:04.000Z</time><ele>345.6</ele></trkpt><trkpt lat="45.973642" lon="10.310261"><time>2025-04-28T05:44:05.000Z</time><ele>345.8</ele></trkpt><trkpt lat="45.973642" lon="10.310258"><time>2025-04-28T05:44:06.000Z</time><ele>345.8</ele></trkpt><trkpt lat="45.973642" lon="10.310257"><time>2025-04-28T05:44:07.000Z</time><ele>345.8</ele></trkpt><trkpt lat="45.973643" lon="10.310258"><time>2025-04-28T05:44:08.000Z</time><ele>345.8</ele></trkpt><trkpt lat="45.973642" lon="10.310258"><time>2025-04-28T05:44:09.000Z</time><ele>345.8</ele></trkpt><trkpt lat="45.973645" lon="10.310257"><time>2025-04-28T05:44:10.000Z</time><ele>345.8</ele></trkpt><trkpt lat="45.973646" lon="10.310261"><time>2025-04-28T05:44:11.000Z</time><ele>345.8</ele></trkpt><trkpt lat="45.973648" lon="10.310268"><time>2025-04-28T05:44:12.000Z</time><ele>345.6</ele></trkpt><trkpt lat="45.973651" lon="10.310274"><time>2025-04-28T05:44:13.000Z</time><ele>345.6</ele></trkpt><trkpt lat="45.973651" lon="10.310288"><time>2025-04-28T05:44:14.000Z</time><ele>345.6</ele></trkpt><trkpt lat="45.973653" lon="10.310303"><time>2025-04-28T05:44:15.000Z</time><ele>345.6</ele></trkpt><trkpt lat="45.973657" lon="10.310317"><time>2025-04-28T05:44:16.000Z</time><ele>345.6</ele></trkpt><trkpt lat="45.973661" lon="10.310332"><time>2025-04-28T05:44:17.000Z</time><ele>345.8</ele></trkpt><trkpt lat="45.973665" lon="10.310342"><time>2025-04-28T05:44:18.000Z</time><ele>346</ele></trkpt><trkpt lat="45.973669" lon="10.31035"><time>2025-04-28T05:44:19.000Z</time><ele>346</ele></trkpt><trkpt lat="45.973676" lon="10.310359"><time>2025-04-28T05:44:20.000Z</time><ele>346.2</ele></trkpt><trkpt lat="45.97368" lon="10.310375"><time>2025-04-28T05:44:21.000Z</time><ele>346.2</ele></trkpt><trkpt lat="45.973684" lon="10.310391"><time>2025-04-28T05:44:22.000Z</time><ele>346.4</ele></trkpt><trkpt lat="45.973687" lon="10.310408"><time>2025-04-28T05:44:23.000Z</time><ele>346.4</ele></trkpt><trkpt lat="45.97369" lon="10.310423"><time>2025-04-28T05:44:24.000Z</time><ele>346.4</ele></trkpt><trkpt lat="45.973691" lon="10.31044"><time>2025-04-28T05:44:25.000Z</time><ele>346.4</ele></trkpt><trkpt lat="45.973698" lon="10.310455"><time>2025-04-28T05:44:26.000Z</time><ele>346.6</ele></trkpt><trkpt lat="45.973704" lon="10.31047"><time>2025-04-28T05:44:27.000Z</time><ele>346.6</ele></trkpt><trkpt lat="45.973709" lon="10.310484"><time>2025-04-28T05:44:28.000Z</time><ele>346.8</ele></trkpt><trkpt lat="45.97371" lon="10.310501"><time>2025-04-28T05:44:29.000Z</time><ele>346.8</ele></trkpt><trkpt lat="45.973713" lon="10.310517"><time>2025-04-28T05:44:30.000Z</time><ele>346.8</ele></trkpt><trkpt lat="45.973717" lon="10.310529"><time>2025-04-28T05:44:31.000Z</time><ele>347</ele></trkpt><trkpt lat="45.97372" lon="10.310546"><time>2025-04-28T05:44:32.000Z</time><ele>347</ele></trkpt><trkpt lat="45.973728" lon="10.310563"><time>2025-04-28T05:44:33.000Z</time><ele>347.2</ele></trkpt><trkpt lat="45.973738" lon="10.310579"><time>2025-04-28T05:44:34.000Z</time><ele>347.4</ele></trkpt><trkpt lat="45.973746" lon="10.310592"><time>2025-04-28T05:44:35.000Z</time><ele>347.4</ele></trkpt><trkpt lat="45.973758" lon="10.310619"><time>2025-04-28T05:44:36.000Z</time><ele>347.6</ele></trkpt><trkpt lat="45.973766" lon="10.310637"><time>2025-04-28T05:44:37.000Z</time><ele>347.8</ele></trkpt><trkpt lat="45.973776" lon="10.310648"><time>2025-04-28T05:44:38.000Z</time><ele>348</ele></trkpt><trkpt lat="45.973786" lon="10.310648"><time>2025-04-28T05:44:39.000Z</time><ele>348</ele></trkpt><trkpt lat="45.973792" lon="10.310647"><time>2025-04-28T05:44:40.000Z</time><ele>348.2</ele></trkpt><trkpt lat="45.973801" lon="10.310656"><time>2025-04-28T05:44:41.000Z</time><ele>348.2</ele></trkpt><trkpt lat="45.973814" lon="10.310668"><time>2025-04-28T05:44:42.000Z</time><ele>348.4</ele></trkpt><trkpt lat="45.973821" lon="10.310672"><time>2025-04-28T05:44:43.000Z</time><ele>348.4</ele></trkpt><trkpt lat="45.973834" lon="10.310682"><time>2025-04-28T05:44:44.000Z</time><ele>348.6</ele></trkpt><trkpt lat="45.973847" lon="10.310681"><time>2025-04-28T05:44:45.000Z</time><ele>348.8</ele></trkpt><trkpt lat="45.973856" lon="10.310679"><time>2025-04-28T05:44:46.000Z</time><ele>349</ele></trkpt><trkpt lat="45.973864" lon="10.310678"><time>2025-04-28T05:44:47.000Z</time><ele>349</ele></trkpt><trkpt lat="45.973872" lon="10.310676"><time>2025-04-28T05:44:48.000Z</time><ele>349.2</ele></trkpt><trkpt lat="45.973882" lon="10.310673"><time>2025-04-28T05:44:49.000Z</time><ele>349.2</ele></trkpt><trkpt lat="45.973892" lon="10.31067"><time>2025-04-28T05:44:50.000Z</time><ele>349.2</ele></trkpt><trkpt lat="45.973902" lon="10.310664"><time>2025-04-28T05:44:51.000Z</time><ele>349.6</ele></trkpt><trkpt lat="45.973913" lon="10.31066"><time>2025-04-28T05:44:52.000Z</time><ele>349.8</ele></trkpt><trkpt lat="45.973924" lon="10.310656"><time>2025-04-28T05:44:53.000Z</time><ele>349.8</ele></trkpt><trkpt lat="45.973932" lon="10.310651"><time>2025-04-28T05:44:54.000Z</time><ele>350</ele></trkpt><trkpt lat="45.973941" lon="10.310649"><time>2025-04-28T05:44:55.000Z</time><ele>350</ele></trkpt><trkpt lat="45.973951" lon="10.310644"><time>2025-04-28T05:44:56.000Z</time><ele>350.2</ele></trkpt><trkpt lat="45.973963" lon="10.310639"><time>2025-04-28T05:44:57.000Z</time><ele>350.4</ele></trkpt><trkpt lat="45.973975" lon="10.310633"><time>2025-04-28T05:44:58.000Z</time><ele>350.4</ele></trkpt><trkpt lat="45.973983" lon="10.310631"><time>2025-04-28T05:44:59.000Z</time><ele>350.6</ele></trkpt><trkpt lat="45.973992" lon="10.310628"><time>2025-04-28T05:45:00.000Z</time><ele>350.8</ele></trkpt><trkpt lat="45.974006" lon="10.310625"><time>2025-04-28T05:45:01.000Z</time><ele>351</ele></trkpt><trkpt lat="45.974016" lon="10.310627"><time>2025-04-28T05:45:02.000Z</time><ele>351.2</ele></trkpt><trkpt lat="45.974025" lon="10.310631"><time>2025-04-28T05:45:03.000Z</time><ele>351.2</ele></trkpt><trkpt lat="45.974034" lon="10.310639"><time>2025-04-28T05:45:04.000Z</time><ele>351.4</ele></trkpt><trkpt lat="45.974042" lon="10.310642"><time>2025-04-28T05:45:05.000Z</time><ele>351.6</ele></trkpt><trkpt lat="45.97405" lon="10.310645"><time>2025-04-28T05:45:06.000Z</time><ele>351.8</ele></trkpt><trkpt lat="45.974058" lon="10.310642"><time>2025-04-28T05:45:07.000Z</time><ele>352</ele></trkpt><trkpt lat="45.97407" lon="10.310637"><time>2025-04-28T05:45:08.000Z</time><ele>352.2</ele></trkpt><trkpt lat="45.974078" lon="10.310636"><time>2025-04-28T05:45:09.000Z</time><ele>352.4</ele></trkpt><trkpt lat="45.974092" lon="10.310636"><time>2025-04-28T05:45:10.000Z</time><ele>352.6</ele></trkpt><trkpt lat="45.974099" lon="10.310644"><time>2025-04-28T05:45:11.000Z</time><ele>352.8</ele></trkpt><trkpt lat="45.974111" lon="10.310653"><time>2025-04-28T05:45:12.000Z</time><ele>353</ele></trkpt><trkpt lat="45.974123" lon="10.310661"><time>2025-04-28T05:45:13.000Z</time><ele>353.2</ele></trkpt><trkpt lat="45.974136" lon="10.310667"><time>2025-04-28T05:45:14.000Z</time><ele>353.2</ele></trkpt><trkpt lat="45.974143" lon="10.310667"><time>2025-04-28T05:45:15.000Z</time><ele>353.4</ele></trkpt><trkpt lat="45.974152" lon="10.31066"><time>2025-04-28T05:45:16.000Z</time><ele>353.6</ele></trkpt><trkpt lat="45.974159" lon="10.310656"><time>2025-04-28T05:45:17.000Z</time><ele>353.8</ele></trkpt><trkpt lat="45.974167" lon="10.310654"><time>2025-04-28T05:45:18.000Z</time><ele>354</ele></trkpt><trkpt lat="45.974177" lon="10.310648"><time>2025-04-28T05:45:19.000Z</time><ele>354</ele></trkpt><trkpt lat="45.974194" lon="10.310644"><time>2025-04-28T05:45:20.000Z</time><ele>354.2</ele></trkpt><trkpt lat="45.974206" lon="10.310638"><time>2025-04-28T05:45:21.000Z</time><ele>354.2</ele></trkpt><trkpt lat="45.974219" lon="10.310631"><time>2025-04-28T05:45:22.000Z</time><ele>354.4</ele></trkpt><trkpt lat="45.974243" lon="10.310625"><time>2025-04-28T05:45:23.000Z</time><ele>354.8</ele></trkpt><trkpt lat="45.974267" lon="10.310616"><time>2025-04-28T05:45:24.000Z</time><ele>355.2</ele></trkpt><trkpt lat="45.974277" lon="10.310612"><time>2025-04-28T05:45:25.000Z</time><ele>355.4</ele></trkpt><trkpt lat="45.974286" lon="10.310604"><time>2025-04-28T05:45:26.000Z</time><ele>355.6</ele></trkpt><trkpt lat="45.974291" lon="10.310596"><time>2025-04-28T05:45:27.000Z</time><ele>355.8</ele></trkpt><trkpt lat="45.974293" lon="10.310592"><time>2025-04-28T05:45:28.000Z</time><ele>356</ele></trkpt><trkpt lat="45.974289" lon="10.310586"><time>2025-04-28T05:45:29.000Z</time><ele>356</ele></trkpt><trkpt lat="45.97428" lon="10.31058"><time>2025-04-28T05:45:30.000Z</time><ele>356</ele></trkpt><trkpt lat="45.974266" lon="10.310573"><time>2025-04-28T05:45:31.000Z</time><ele>356.2</ele></trkpt><trkpt lat="45.974254" lon="10.310557"><time>2025-04-28T05:45:32.000Z</time><ele>356.2</ele></trkpt><trkpt lat="45.974242" lon="10.310551"><time>2025-04-28T05:45:33.000Z</time><ele>356.2</ele></trkpt><trkpt lat="45.974236" lon="10.310543"><time>2025-04-28T05:45:34.000Z</time><ele>356.2</ele></trkpt><trkpt lat="45.974234" lon="10.310533"><time>2025-04-28T05:45:35.000Z</time><ele>356.4</ele></trkpt><trkpt lat="45.974231" lon="10.310519"><time>2025-04-28T05:45:36.000Z</time><ele>356.4</ele></trkpt><trkpt lat="45.974232" lon="10.310505"><time>2025-04-28T05:45:37.000Z</time><ele>356.6</ele></trkpt><trkpt lat="45.974231" lon="10.31049"><time>2025-04-28T05:45:38.000Z</time><ele>356.8</ele></trkpt><trkpt lat="45.974227" lon="10.310467"><time>2025-04-28T05:45:39.000Z</time><ele>357</ele></trkpt><trkpt lat="45.974223" lon="10.310439"><time>2025-04-28T05:45:40.000Z</time><ele>357.2</ele></trkpt><trkpt lat="45.974214" lon="10.310428"><time>2025-04-28T05:45:41.000Z</time><ele>357.4</ele></trkpt><trkpt lat="45.974204" lon="10.310424"><time>2025-04-28T05:45:42.000Z</time><ele>357.6</ele></trkpt><trkpt lat="45.974194" lon="10.310419"><time>2025-04-28T05:45:43.000Z</time><ele>357.8</ele></trkpt><trkpt lat="45.974181" lon="10.310409"><time>2025-04-28T05:45:44.000Z</time><ele>358</ele></trkpt><trkpt lat="45.974172" lon="10.310398"><time>2025-04-28T05:45:45.000Z</time><ele>358.2</ele></trkpt><trkpt lat="45.974169" lon="10.31039"><time>2025-04-28T05:45:46.000Z</time><ele>358.6</ele></trkpt><trkpt lat="45.974163" lon="10.310373"><time>2025-04-28T05:45:47.000Z</time><ele>358.8</ele></trkpt><trkpt lat="45.974159" lon="10.310365"><time>2025-04-28T05:45:48.000Z</time><ele>359</ele></trkpt><trkpt lat="45.974151" lon="10.310359"><time>2025-04-28T05:45:49.000Z</time><ele>359.2</ele></trkpt><trkpt lat="45.97414" lon="10.310353"><time>2025-04-28T05:45:50.000Z</time><ele>359.6</ele></trkpt><trkpt lat="45.974131" lon="10.310352"><time>2025-04-28T05:45:51.000Z</time><ele>359.8</ele></trkpt><trkpt lat="45.974124" lon="10.310347"><time>2025-04-28T05:45:52.000Z</time><ele>360</ele></trkpt><trkpt lat="45.974121" lon="10.310344"><time>2025-04-28T05:45:53.000Z</time><ele>360.2</ele></trkpt><trkpt lat="45.974115" lon="10.310336"><time>2025-04-28T05:45:54.000Z</time><ele>360.6</ele></trkpt><trkpt lat="45.974108" lon="10.310328"><time>2025-04-28T05:45:55.000Z</time><ele>360.8</ele></trkpt><trkpt lat="45.974104" lon="10.310319"><time>2025-04-28T05:45:56.000Z</time><ele>361</ele></trkpt><trkpt lat="45.974105" lon="10.310307"><time>2025-04-28T05:45:57.000Z</time><ele>361</ele></trkpt><trkpt lat="45.974104" lon="10.310294"><time>2025-04-28T05:45:58.000Z</time><ele>361.2</ele></trkpt><trkpt lat="45.974103" lon="10.310282"><time>2025-04-28T05:45:59.000Z</time><ele>361.4</ele></trkpt><trkpt lat="45.974098" lon="10.310274"><time>2025-04-28T05:46:00.000Z</time><ele>361.6</ele></trkpt><trkpt lat="45.97409" lon="10.310265"><time>2025-04-28T05:46:01.000Z</time><ele>362</ele></trkpt><trkpt lat="45.974087" lon="10.31025"><time>2025-04-28T05:46:02.000Z</time><ele>362.2</ele></trkpt><trkpt lat="45.974084" lon="10.31024"><time>2025-04-28T05:46:03.000Z</time><ele>362.4</ele></trkpt><trkpt lat="45.974081" lon="10.31023"><time>2025-04-28T05:46:04.000Z</time><ele>362.6</ele></trkpt><trkpt lat="45.974079" lon="10.31022"><time>2025-04-28T05:46:05.000Z</time><ele>362.8</ele></trkpt><trkpt lat="45.974083" lon="10.310209"><time>2025-04-28T05:46:06.000Z</time><ele>363</ele></trkpt><trkpt lat="45.974085" lon="10.310191"><time>2025-04-28T05:46:07.000Z</time><ele>363.2</ele></trkpt><trkpt lat="45.974084" lon="10.310175"><time>2025-04-28T05:46:08.000Z</time><ele>363.2</ele></trkpt><trkpt lat="45.974085" lon="10.310158"><time>2025-04-28T05:46:09.000Z</time><ele>363.4</ele></trkpt><trkpt lat="45.974088" lon="10.310144"><time>2025-04-28T05:46:10.000Z</time><ele>363.6</ele></trkpt><trkpt lat="45.974091" lon="10.310131"><time>2025-04-28T05:46:11.000Z</time><ele>363.8</ele></trkpt><trkpt lat="45.974094" lon="10.310118"><time>2025-04-28T05:46:12.000Z</time><ele>364.2</ele></trkpt><trkpt lat="45.974094" lon="10.310107"><time>2025-04-28T05:46:13.000Z</time><ele>364.4</ele></trkpt><trkpt lat="45.974096" lon="10.310095"><time>2025-04-28T05:46:14.000Z</time><ele>364.6</ele></trkpt><trkpt lat="45.974101" lon="10.310078"><time>2025-04-28T05:46:15.000Z</time><ele>365</ele></trkpt><trkpt lat="45.974103" lon="10.310067"><time>2025-04-28T05:46:16.000Z</time><ele>365.2</ele></trkpt><trkpt lat="45.974105" lon="10.310055"><time>2025-04-28T05:46:17.000Z</time><ele>365.4</ele></trkpt><trkpt lat="45.974103" lon="10.310044"><time>2025-04-28T05:46:18.000Z</time><ele>365.4</ele></trkpt><trkpt lat="45.974103" lon="10.310035"><time>2025-04-28T05:46:19.000Z</time><ele>365.8</ele></trkpt><trkpt lat="45.97411" lon="10.310026"><time>2025-04-28T05:46:20.000Z</time><ele>365.8</ele></trkpt><trkpt lat="45.974115" lon="10.310021"><time>2025-04-28T05:46:21.000Z</time><ele>366.2</ele></trkpt><trkpt lat="45.97412" lon="10.31001"><time>2025-04-28T05:46:22.000Z</time><ele>366.4</ele></trkpt><trkpt lat="45.974131" lon="10.309999"><time>2025-04-28T05:46:23.000Z</time><ele>366.6</ele></trkpt><trkpt lat="45.97414" lon="10.309991"><time>2025-04-28T05:46:24.000Z</time><ele>366.8</ele></trkpt><trkpt lat="45.974152" lon="10.30998"><time>2025-04-28T05:46:25.000Z</time><ele>367.2</ele></trkpt><trkpt lat="45.974156" lon="10.30997"><time>2025-04-28T05:46:26.000Z</time><ele>367.2</ele></trkpt><trkpt lat="45.974165" lon="10.309958"><time>2025-04-28T05:46:27.000Z</time><ele>367.4</ele></trkpt><trkpt lat="45.974171" lon="10.309949"><time>2025-04-28T05:46:28.000Z</time><ele>367.4</ele></trkpt><trkpt lat="45.974177" lon="10.309947"><time>2025-04-28T05:46:29.000Z</time><ele>367.6</ele></trkpt><trkpt lat="45.974177" lon="10.309945"><time>2025-04-28T05:46:30.000Z</time><ele>367.8</ele></trkpt><trkpt lat="45.97419" lon="10.309944"><time>2025-04-28T05:46:31.000Z</time><ele>368</ele></trkpt><trkpt lat="45.974196" lon="10.309945"><time>2025-04-28T05:46:32.000Z</time><ele>368</ele></trkpt><trkpt lat="45.974199" lon="10.309944"><time>2025-04-28T05:46:33.000Z</time><ele>368.2</ele></trkpt><trkpt lat="45.974206" lon="10.309944"><time>2025-04-28T05:46:34.000Z</time><ele>368.4</ele></trkpt><trkpt lat="45.974213" lon="10.30994"><time>2025-04-28T05:46:35.000Z</time><ele>368.6</ele></trkpt><trkpt lat="45.974223" lon="10.309939"><time>2025-04-28T05:46:36.000Z</time><ele>368.8</ele></trkpt><trkpt lat="45.974233" lon="10.309936"><time>2025-04-28T05:46:37.000Z</time><ele>369</ele></trkpt><trkpt lat="45.974242" lon="10.309935"><time>2025-04-28T05:46:38.000Z</time><ele>369.2</ele></trkpt><trkpt lat="45.974247" lon="10.309937"><time>2025-04-28T05:46:39.000Z</time><ele>369.6</ele></trkpt><trkpt lat="45.974254" lon="10.309941"><time>2025-04-28T05:46:40.000Z</time><ele>369.8</ele></trkpt><trkpt lat="45.974257" lon="10.309942"><time>2025-04-28T05:46:41.000Z</time><ele>369.8</ele></trkpt><trkpt lat="45.97426" lon="10.309938"><time>2025-04-28T05:46:42.000Z</time><ele>370</ele></trkpt><trkpt lat="45.97426" lon="10.30993"><time>2025-04-28T05:46:43.000Z</time><ele>370.2</ele></trkpt><trkpt lat="45.974265" lon="10.309933"><time>2025-04-28T05:46:44.000Z</time><ele>370.2</ele></trkpt><trkpt lat="45.974272" lon="10.309929"><time>2025-04-28T05:46:45.000Z</time><ele>370.6</ele></trkpt><trkpt lat="45.974277" lon="10.309932"><time>2025-04-28T05:46:46.000Z</time><ele>370.8</ele></trkpt><trkpt lat="45.974288" lon="10.309928"><time>2025-04-28T05:46:47.000Z</time><ele>370.8</ele></trkpt><trkpt lat="45.974295" lon="10.309923"><time>2025-04-28T05:46:48.000Z</time><ele>371.2</ele></trkpt><trkpt lat="45.974301" lon="10.309918"><time>2025-04-28T05:46:49.000Z</time><ele>371.4</ele></trkpt><trkpt lat="45.974306" lon="10.309911"><time>2025-04-28T05:46:50.000Z</time><ele>371.6</ele></trkpt><trkpt lat="45.974313" lon="10.309899"><time>2025-04-28T05:46:51.000Z</time><ele>371.6</ele></trkpt><trkpt lat="45.974317" lon="10.30988"><time>2025-04-28T05:46:52.000Z</time><ele>371.8</ele></trkpt><trkpt lat="45.974319" lon="10.309866"><time>2025-04-28T05:46:53.000Z</time><ele>372</ele></trkpt><trkpt lat="45.974325" lon="10.309859"><time>2025-04-28T05:46:54.000Z</time><ele>372.2</ele></trkpt><trkpt lat="45.974332" lon="10.309848"><time>2025-04-28T05:46:55.000Z</time><ele>372.4</ele></trkpt><trkpt lat="45.974336" lon="10.309833"><time>2025-04-28T05:46:56.000Z</time><ele>372.8</ele></trkpt><trkpt lat="45.974341" lon="10.30982"><time>2025-04-28T05:46:57.000Z</time><ele>373</ele></trkpt><trkpt lat="45.974348" lon="10.309797"><time>2025-04-28T05:46:58.000Z</time><ele>373.2</ele></trkpt><trkpt lat="45.974353" lon="10.309781"><time>2025-04-28T05:46:59.000Z</time><ele>373.2</ele></trkpt><trkpt lat="45.974355" lon="10.309768"><time>2025-04-28T05:47:00.000Z</time><ele>373.4</ele></trkpt><trkpt lat="45.974355" lon="10.309763"><time>2025-04-28T05:47:01.000Z</time><ele>373.6</ele></trkpt><trkpt lat="45.974357" lon="10.309748"><time>2025-04-28T05:47:02.000Z</time><ele>373.8</ele></trkpt><trkpt lat="45.974357" lon="10.309733"><time>2025-04-28T05:47:03.000Z</time><ele>373.8</ele></trkpt><trkpt lat="45.974357" lon="10.309718"><time>2025-04-28T05:47:04.000Z</time><ele>374.2</ele></trkpt><trkpt lat="45.974351" lon="10.309707"><time>2025-04-28T05:47:05.000Z</time><ele>374.4</ele></trkpt><trkpt lat="45.974346" lon="10.309693"><time>2025-04-28T05:47:06.000Z</time><ele>374.6</ele></trkpt><trkpt lat="45.974343" lon="10.309678"><time>2025-04-28T05:47:07.000Z</time><ele>374.8</ele></trkpt><trkpt lat="45.974341" lon="10.309665"><time>2025-04-28T05:47:08.000Z</time><ele>375</ele></trkpt><trkpt lat="45.974339" lon="10.309649"><time>2025-04-28T05:47:09.000Z</time><ele>375.4</ele></trkpt><trkpt lat="45.974334" lon="10.309638"><time>2025-04-28T05:47:10.000Z</time><ele>375.6</ele></trkpt><trkpt lat="45.974334" lon="10.309626"><time>2025-04-28T05:47:11.000Z</time><ele>375.6</ele></trkpt><trkpt lat="45.974332" lon="10.309615"><time>2025-04-28T05:47:12.000Z</time><ele>375.8</ele></trkpt><trkpt lat="45.974334" lon="10.309607"><time>2025-04-28T05:47:13.000Z</time><ele>376</ele></trkpt><trkpt lat="45.974334" lon="10.309596"><time>2025-04-28T05:47:14.000Z</time><ele>376.2</ele></trkpt><trkpt lat="45.974332" lon="10.309584"><time>2025-04-28T05:47:15.000Z</time><ele>376.4</ele></trkpt><trkpt lat="45.974331" lon="10.309577"><time>2025-04-28T05:47:16.000Z</time><ele>376.6</ele></trkpt><trkpt lat="45.974333" lon="10.30957"><time>2025-04-28T05:47:17.000Z</time><ele>376.8</ele></trkpt><trkpt lat="45.974334" lon="10.309565"><time>2025-04-28T05:47:18.000Z</time><ele>376.8</ele></trkpt><trkpt lat="45.974336" lon="10.309562"><time>2025-04-28T05:47:19.000Z</time><ele>377</ele></trkpt><trkpt lat="45.974337" lon="10.309561"><time>2025-04-28T05:47:20.000Z</time><ele>377</ele></trkpt><trkpt lat="45.974338" lon="10.309561"><time>2025-04-28T05:47:21.000Z</time><ele>377.2</ele></trkpt><trkpt lat="45.974338" lon="10.309563"><time>2025-04-28T05:47:22.000Z</time><ele>377.2</ele></trkpt><trkpt lat="45.974339" lon="10.309563"><time>2025-04-28T05:47:23.000Z</time><ele>377.2</ele></trkpt><trkpt lat="45.974342" lon="10.30956"><time>2025-04-28T05:47:24.000Z</time><ele>377.4</ele></trkpt><trkpt lat="45.974339" lon="10.30955"><time>2025-04-28T05:47:25.000Z</time><ele>377.6</ele></trkpt><trkpt lat="45.974338" lon="10.30954"><time>2025-04-28T05:47:26.000Z</time><ele>377.6</ele></trkpt><trkpt lat="45.974337" lon="10.309529"><time>2025-04-28T05:47:27.000Z</time><ele>377.8</ele></trkpt><trkpt lat="45.974337" lon="10.309517"><time>2025-04-28T05:47:28.000Z</time><ele>378</ele></trkpt><trkpt lat="45.974339" lon="10.309508"><time>2025-04-28T05:47:29.000Z</time><ele>378.2</ele></trkpt><trkpt lat="45.974341" lon="10.309501"><time>2025-04-28T05:47:30.000Z</time><ele>378.2</ele></trkpt><trkpt lat="45.974343" lon="10.309493"><time>2025-04-28T05:47:31.000Z</time><ele>378.6</ele></trkpt><trkpt lat="45.974345" lon="10.309488"><time>2025-04-28T05:47:32.000Z</time><ele>378.8</ele></trkpt><trkpt lat="45.974346" lon="10.309478"><time>2025-04-28T05:47:33.000Z</time><ele>379</ele></trkpt><trkpt lat="45.974345" lon="10.309471"><time>2025-04-28T05:47:34.000Z</time><ele>379.2</ele></trkpt><trkpt lat="45.974348" lon="10.309462"><time>2025-04-28T05:47:35.000Z</time><ele>379.2</ele></trkpt><trkpt lat="45.974351" lon="10.309449"><time>2025-04-28T05:47:36.000Z</time><ele>379.2</ele></trkpt><trkpt lat="45.974353" lon="10.309434"><time>2025-04-28T05:47:37.000Z</time><ele>379.4</ele></trkpt><trkpt lat="45.97435" lon="10.309422"><time>2025-04-28T05:47:38.000Z</time><ele>379.6</ele></trkpt><trkpt lat="45.974351" lon="10.309413"><time>2025-04-28T05:47:39.000Z</time><ele>379.8</ele></trkpt><trkpt lat="45.974352" lon="10.309403"><time>2025-04-28T05:47:40.000Z</time><ele>380.2</ele></trkpt><trkpt lat="45.974357" lon="10.309394"><time>2025-04-28T05:47:41.000Z</time><ele>380.2</ele></trkpt><trkpt lat="45.97436" lon="10.309388"><time>2025-04-28T05:47:42.000Z</time><ele>380.6</ele></trkpt><trkpt lat="45.974365" lon="10.309379"><time>2025-04-28T05:47:43.000Z</time><ele>380.6</ele></trkpt><trkpt lat="45.974369" lon="10.309368"><time>2025-04-28T05:47:44.000Z</time><ele>380.8</ele></trkpt><trkpt lat="45.974377" lon="10.30936"><time>2025-04-28T05:47:45.000Z</time><ele>381.2</ele></trkpt><trkpt lat="45.974381" lon="10.309354"><time>2025-04-28T05:47:46.000Z</time><ele>381.4</ele></trkpt><trkpt lat="45.974383" lon="10.309348"><time>2025-04-28T05:47:47.000Z</time><ele>381.6</ele></trkpt><trkpt lat="45.974389" lon="10.309337"><time>2025-04-28T05:47:48.000Z</time><ele>381.8</ele></trkpt><trkpt lat="45.974398" lon="10.309326"><time>2025-04-28T05:47:49.000Z</time><ele>382</ele></trkpt><trkpt lat="45.974401" lon="10.309317"><time>2025-04-28T05:47:50.000Z</time><ele>382.2</ele></trkpt><trkpt lat="45.974402" lon="10.309308"><time>2025-04-28T05:47:51.000Z</time><ele>382.4</ele></trkpt><trkpt lat="45.974406" lon="10.309298"><time>2025-04-28T05:47:52.000Z</time><ele>382.6</ele></trkpt><trkpt lat="45.974406" lon="10.30929"><time>2025-04-28T05:47:53.000Z</time><ele>383</ele></trkpt><trkpt lat="45.974407" lon="10.309281"><time>2025-04-28T05:47:54.000Z</time><ele>383.2</ele></trkpt><trkpt lat="45.974409" lon="10.309269"><time>2025-04-28T05:47:55.000Z</time><ele>383.2</ele></trkpt><trkpt lat="45.974409" lon="10.309258"><time>2025-04-28T05:47:56.000Z</time><ele>383.6</ele></trkpt><trkpt lat="45.974409" lon="10.309245"><time>2025-04-28T05:47:57.000Z</time><ele>383.8</ele></trkpt><trkpt lat="45.97441" lon="10.309237"><time>2025-04-28T05:47:58.000Z</time><ele>384</ele></trkpt><trkpt lat="45.97441" lon="10.309226"><time>2025-04-28T05:47:59.000Z</time><ele>384.2</ele></trkpt><trkpt lat="45.974414" lon="10.309213"><time>2025-04-28T05:48:00.000Z</time><ele>384.2</ele></trkpt><trkpt lat="45.974416" lon="10.309201"><time>2025-04-28T05:48:01.000Z</time><ele>384.8</ele></trkpt><trkpt lat="45.974418" lon="10.309187"><time>2025-04-28T05:48:02.000Z</time><ele>385</ele></trkpt><trkpt lat="45.974424" lon="10.309164"><time>2025-04-28T05:48:03.000Z</time><ele>385.2</ele></trkpt><trkpt lat="45.974427" lon="10.309149"><time>2025-04-28T05:48:04.000Z</time><ele>385.4</ele></trkpt><trkpt lat="45.974428" lon="10.309135"><time>2025-04-28T05:48:05.000Z</time><ele>385.6</ele></trkpt><trkpt lat="45.974422" lon="10.309121"><time>2025-04-28T05:48:06.000Z</time><ele>385.8</ele></trkpt><trkpt lat="45.974417" lon="10.309111"><time>2025-04-28T05:48:07.000Z</time><ele>386</ele></trkpt><trkpt lat="45.974415" lon="10.309098"><time>2025-04-28T05:48:08.000Z</time><ele>386.2</ele></trkpt><trkpt lat="45.974414" lon="10.309088"><time>2025-04-28T05:48:09.000Z</time><ele>386.6</ele></trkpt><trkpt lat="45.974416" lon="10.309076"><time>2025-04-28T05:48:10.000Z</time><ele>386.8</ele></trkpt><trkpt lat="45.974417" lon="10.309062"><time>2025-04-28T05:48:11.000Z</time><ele>386.8</ele></trkpt><trkpt lat="45.974415" lon="10.309049"><time>2025-04-28T05:48:12.000Z</time><ele>387</ele></trkpt><trkpt lat="45.974416" lon="10.309039"><time>2025-04-28T05:48:13.000Z</time><ele>387.2</ele></trkpt><trkpt lat="45.974418" lon="10.309028"><time>2025-04-28T05:48:14.000Z</time><ele>387.4</ele></trkpt><trkpt lat="45.974417" lon="10.309019"><time>2025-04-28T05:48:15.000Z</time><ele>387.6</ele></trkpt><trkpt lat="45.974416" lon="10.309008"><time>2025-04-28T05:48:16.000Z</time><ele>387.8</ele></trkpt><trkpt lat="45.974415" lon="10.308998"><time>2025-04-28T05:48:17.000Z</time><ele>388.2</ele></trkpt><trkpt lat="45.974415" lon="10.308987"><time>2025-04-28T05:48:18.000Z</time><ele>388.4</ele></trkpt><trkpt lat="45.974422" lon="10.308975"><time>2025-04-28T05:48:19.000Z</time><ele>388.6</ele></trkpt><trkpt lat="45.974425" lon="10.308965"><time>2025-04-28T05:48:20.000Z</time><ele>388.8</ele></trkpt><trkpt lat="45.974428" lon="10.30895"><time>2025-04-28T05:48:21.000Z</time><ele>388.8</ele></trkpt><trkpt lat="45.974427" lon="10.308937"><time>2025-04-28T05:48:22.000Z</time><ele>389</ele></trkpt><trkpt lat="45.974427" lon="10.308928"><time>2025-04-28T05:48:23.000Z</time><ele>389.4</ele></trkpt><trkpt lat="45.974423" lon="10.308921"><time>2025-04-28T05:48:24.000Z</time><ele>389.4</ele></trkpt><trkpt lat="45.97442" lon="10.308921"><time>2025-04-28T05:48:25.000Z</time><ele>389.8</ele></trkpt><trkpt lat="45.974414" lon="10.308913"><time>2025-04-28T05:48:26.000Z</time><ele>390</ele></trkpt><trkpt lat="45.974407" lon="10.308903"><time>2025-04-28T05:48:27.000Z</time><ele>390</ele></trkpt><trkpt lat="45.974408" lon="10.308895"><time>2025-04-28T05:48:28.000Z</time><ele>390.4</ele></trkpt><trkpt lat="45.974409" lon="10.308881"><time>2025-04-28T05:48:29.000Z</time><ele>390.6</ele></trkpt><trkpt lat="45.97441" lon="10.308859"><time>2025-04-28T05:48:30.000Z</time><ele>390.8</ele></trkpt><trkpt lat="45.974409" lon="10.308851"><time>2025-04-28T05:48:31.000Z</time><ele>391</ele></trkpt><trkpt lat="45.974412" lon="10.308839"><time>2025-04-28T05:48:32.000Z</time><ele>391.4</ele></trkpt><trkpt lat="45.974408" lon="10.308829"><time>2025-04-28T05:48:33.000Z</time><ele>391.4</ele></trkpt><trkpt lat="45.974404" lon="10.308817"><time>2025-04-28T05:48:34.000Z</time><ele>391.8</ele></trkpt><trkpt lat="45.974397" lon="10.308804"><time>2025-04-28T05:48:35.000Z</time><ele>391.8</ele></trkpt><trkpt lat="45.974395" lon="10.308797"><time>2025-04-28T05:48:36.000Z</time><ele>392.2</ele></trkpt><trkpt lat="45.974392" lon="10.308792"><time>2025-04-28T05:48:37.000Z</time><ele>392.4</ele></trkpt><trkpt lat="45.974391" lon="10.308778"><time>2025-04-28T05:48:38.000Z</time><ele>392.6</ele></trkpt><trkpt lat="45.974389" lon="10.308769"><time>2025-04-28T05:48:39.000Z</time><ele>392.8</ele></trkpt><trkpt lat="45.974393" lon="10.308763"><time>2025-04-28T05:48:40.000Z</time><ele>393</ele></trkpt><trkpt lat="45.974394" lon="10.308757"><time>2025-04-28T05:48:41.000Z</time><ele>393.2</ele></trkpt><trkpt lat="45.974395" lon="10.308753"><time>2025-04-28T05:48:42.000Z</time><ele>393.2</ele></trkpt><trkpt lat="45.974398" lon="10.308752"><time>2025-04-28T05:48:43.000Z</time><ele>393.4</ele></trkpt><trkpt lat="45.974414" lon="10.308746"><time>2025-04-28T05:48:44.000Z</time><ele>393.4</ele></trkpt><trkpt lat="45.974421" lon="10.308747"><time>2025-04-28T05:48:45.000Z</time><ele>393.4</ele></trkpt><trkpt lat="45.974426" lon="10.308744"><time>2025-04-28T05:48:46.000Z</time><ele>393.4</ele></trkpt><trkpt lat="45.974423" lon="10.308746"><time>2025-04-28T05:48:47.000Z</time><ele>393.6</ele></trkpt><trkpt lat="45.974419" lon="10.308741"><time>2025-04-28T05:48:48.000Z</time><ele>393.8</ele></trkpt><trkpt lat="45.974416" lon="10.308739"><time>2025-04-28T05:48:49.000Z</time><ele>393.8</ele></trkpt><trkpt lat="45.974405" lon="10.30874"><time>2025-04-28T05:48:50.000Z</time><ele>394</ele></trkpt><trkpt lat="45.974401" lon="10.308734"><time>2025-04-28T05:48:51.000Z</time><ele>394</ele></trkpt><trkpt lat="45.974396" lon="10.308727"><time>2025-04-28T05:48:52.000Z</time><ele>394.2</ele></trkpt><trkpt lat="45.974389" lon="10.308719"><time>2025-04-28T05:48:53.000Z</time><ele>394.4</ele></trkpt><trkpt lat="45.974391" lon="10.308713"><time>2025-04-28T05:48:54.000Z</time><ele>394.6</ele></trkpt><trkpt lat="45.974394" lon="10.308711"><time>2025-04-28T05:48:55.000Z</time><ele>394.8</ele></trkpt><trkpt lat="45.974402" lon="10.308703"><time>2025-04-28T05:48:56.000Z</time><ele>395</ele></trkpt><trkpt lat="45.974407" lon="10.308701"><time>2025-04-28T05:48:57.000Z</time><ele>395.2</ele></trkpt><trkpt lat="45.974405" lon="10.308707"><time>2025-04-28T05:48:58.000Z</time><ele>395.2</ele></trkpt><trkpt lat="45.974407" lon="10.30871"><time>2025-04-28T05:48:59.000Z</time><ele>395.2</ele></trkpt><trkpt lat="45.974406" lon="10.308711"><time>2025-04-28T05:49:00.000Z</time><ele>395.2</ele></trkpt><trkpt lat="45.974406" lon="10.308711"><time>2025-04-28T05:49:01.000Z</time><ele>395.2</ele></trkpt><trkpt lat="45.974406" lon="10.308711"><time>2025-04-28T05:49:02.000Z</time><ele>395.2</ele></trkpt><trkpt lat="45.974406" lon="10.308711"><time>2025-04-28T05:49:03.000Z</time><ele>395.2</ele></trkpt><trkpt lat="45.974406" lon="10.308711"><time>2025-04-28T05:49:04.000Z</time><ele>395.2</ele></trkpt><trkpt lat="45.974406" lon="10.308711"><time>2025-04-28T05:49:05.000Z</time><ele>395</ele></trkpt><trkpt lat="45.974402" lon="10.308707"><time>2025-04-28T05:49:06.000Z</time><ele>395</ele></trkpt><trkpt lat="45.974393" lon="10.308695"><time>2025-04-28T05:49:07.000Z</time><ele>395</ele></trkpt><trkpt lat="45.974384" lon="10.308683"><time>2025-04-28T05:49:08.000Z</time><ele>395</ele></trkpt><trkpt lat="45.974377" lon="10.308676"><time>2025-04-28T05:49:09.000Z</time><ele>395</ele></trkpt><trkpt lat="45.974372" lon="10.308669"><time>2025-04-28T05:49:10.000Z</time><ele>395</ele></trkpt><trkpt lat="45.974368" lon="10.308663"><time>2025-04-28T05:49:11.000Z</time><ele>395</ele></trkpt><trkpt lat="45.974357" lon="10.308655"><time>2025-04-28T05:49:12.000Z</time><ele>395</ele></trkpt><trkpt lat="45.974338" lon="10.308644"><time>2025-04-28T05:49:13.000Z</time><ele>394.8</ele></trkpt><trkpt lat="45.97432" lon="10.308637"><time>2025-04-28T05:49:14.000Z</time><ele>394.6</ele></trkpt><trkpt lat="45.974303" lon="10.308624"><time>2025-04-28T05:49:15.000Z</time><ele>394.4</ele></trkpt><trkpt lat="45.974292" lon="10.308611"><time>2025-04-28T05:49:16.000Z</time><ele>394.2</ele></trkpt><trkpt lat="45.974281" lon="10.3086"><time>2025-04-28T05:49:17.000Z</time><ele>394</ele></trkpt><trkpt lat="45.97427" lon="10.308594"><time>2025-04-28T05:49:18.000Z</time><ele>393.8</ele></trkpt><trkpt lat="45.97426" lon="10.308585"><time>2025-04-28T05:49:19.000Z</time><ele>393.8</ele></trkpt><trkpt lat="45.97425" lon="10.308572"><time>2025-04-28T05:49:20.000Z</time><ele>393.6</ele></trkpt><trkpt lat="45.974244" lon="10.308568"><time>2025-04-28T05:49:21.000Z</time><ele>393.6</ele></trkpt><trkpt lat="45.974242" lon="10.308564"><time>2025-04-28T05:49:22.000Z</time><ele>393.6</ele></trkpt><trkpt lat="45.974238" lon="10.308551"><time>2025-04-28T05:49:23.000Z</time><ele>393.6</ele></trkpt><trkpt lat="45.974229" lon="10.30854"><time>2025-04-28T05:49:24.000Z</time><ele>393.6</ele></trkpt><trkpt lat="45.974221" lon="10.308532"><time>2025-04-28T05:49:25.000Z</time><ele>393.6</ele></trkpt><trkpt lat="45.974208" lon="10.308522"><time>2025-04-28T05:49:26.000Z</time><ele>393.4</ele></trkpt><trkpt lat="45.974192" lon="10.308508"><time>2025-04-28T05:49:27.000Z</time><ele>393.4</ele></trkpt><trkpt lat="45.974184" lon="10.308495"><time>2025-04-28T05:49:28.000Z</time><ele>393.4</ele></trkpt><trkpt lat="45.974177" lon="10.308479"><time>2025-04-28T05:49:29.000Z</time><ele>393.2</ele></trkpt><trkpt lat="45.974169" lon="10.308461"><time>2025-04-28T05:49:30.000Z</time><ele>393.2</ele></trkpt><trkpt lat="45.974158" lon="10.308443"><time>2025-04-28T05:49:31.000Z</time><ele>393.2</ele></trkpt><trkpt lat="45.974142" lon="10.308443"><time>2025-04-28T05:49:32.000Z</time><ele>393.4</ele></trkpt><trkpt lat="45.974136" lon="10.30844"><time>2025-04-28T05:49:33.000Z</time><ele>393.4</ele></trkpt><trkpt lat="45.974126" lon="10.308441"><time>2025-04-28T05:49:34.000Z</time><ele>393.4</ele></trkpt><trkpt lat="45.974116" lon="10.308433"><time>2025-04-28T05:49:35.000Z</time><ele>393.6</ele></trkpt><trkpt lat="45.974099" lon="10.308426"><time>2025-04-28T05:49:36.000Z</time><ele>393.6</ele></trkpt><trkpt lat="45.974088" lon="10.308423"><time>2025-04-28T05:49:37.000Z</time><ele>393.6</ele></trkpt><trkpt lat="45.974075" lon="10.308422"><time>2025-04-28T05:49:38.000Z</time><ele>393.8</ele></trkpt><trkpt lat="45.97406" lon="10.30842"><time>2025-04-28T05:49:39.000Z</time><ele>393.8</ele></trkpt><trkpt lat="45.974045" lon="10.308426"><time>2025-04-28T05:49:40.000Z</time><ele>394</ele></trkpt><trkpt lat="45.974025" lon="10.308428"><time>2025-04-28T05:49:41.000Z</time><ele>394.2</ele></trkpt><trkpt lat="45.974006" lon="10.308432"><time>2025-04-28T05:49:42.000Z</time><ele>394.2</ele></trkpt><trkpt lat="45.97399" lon="10.308434"><time>2025-04-28T05:49:43.000Z</time><ele>394.2</ele></trkpt><trkpt lat="45.973979" lon="10.308447"><time>2025-04-28T05:49:44.000Z</time><ele>394.4</ele></trkpt><trkpt lat="45.97397" lon="10.308457"><time>2025-04-28T05:49:45.000Z</time><ele>394.4</ele></trkpt><trkpt lat="45.97396" lon="10.30846"><time>2025-04-28T05:49:46.000Z</time><ele>394.4</ele></trkpt><trkpt lat="45.97395" lon="10.308462"><time>2025-04-28T05:49:47.000Z</time><ele>394.6</ele></trkpt><trkpt lat="45.973942" lon="10.30848"><time>2025-04-28T05:49:48.000Z</time><ele>394.6</ele></trkpt><trkpt lat="45.973928" lon="10.308495"><time>2025-04-28T05:49:49.000Z</time><ele>394.6</ele></trkpt><trkpt lat="45.973911" lon="10.308495"><time>2025-04-28T05:49:50.000Z</time><ele>394.8</ele></trkpt><trkpt lat="45.973892" lon="10.308497"><time>2025-04-28T05:49:51.000Z</time><ele>395</ele></trkpt><trkpt lat="45.97388" lon="10.308503"><time>2025-04-28T05:49:52.000Z</time><ele>395</ele></trkpt><trkpt lat="45.973874" lon="10.308506"><time>2025-04-28T05:49:53.000Z</time><ele>395</ele></trkpt><trkpt lat="45.973866" lon="10.308509"><time>2025-04-28T05:49:54.000Z</time><ele>395.4</ele></trkpt><trkpt lat="45.973855" lon="10.308509"><time>2025-04-28T05:49:55.000Z</time><ele>395.6</ele></trkpt><trkpt lat="45.973846" lon="10.30851"><time>2025-04-28T05:49:56.000Z</time><ele>395.8</ele></trkpt><trkpt lat="45.973835" lon="10.30851"><time>2025-04-28T05:49:57.000Z</time><ele>395.8</ele></trkpt><trkpt lat="45.973828" lon="10.308507"><time>2025-04-28T05:49:58.000Z</time><ele>396.2</ele></trkpt><trkpt lat="45.973819" lon="10.308507"><time>2025-04-28T05:49:59.000Z</time><ele>396.2</ele></trkpt><trkpt lat="45.973811" lon="10.308504"><time>2025-04-28T05:50:00.000Z</time><ele>396.6</ele></trkpt><trkpt lat="45.9738" lon="10.3085"><time>2025-04-28T05:50:01.000Z</time><ele>396.8</ele></trkpt><trkpt lat="45.973789" lon="10.308496"><time>2025-04-28T05:50:02.000Z</time><ele>396.8</ele></trkpt><trkpt lat="45.973778" lon="10.308491"><time>2025-04-28T05:50:03.000Z</time><ele>397</ele></trkpt><trkpt lat="45.973766" lon="10.30849"><time>2025-04-28T05:50:04.000Z</time><ele>397</ele></trkpt><trkpt lat="45.973751" lon="10.308488"><time>2025-04-28T05:50:05.000Z</time><ele>397</ele></trkpt><trkpt lat="45.973737" lon="10.308483"><time>2025-04-28T05:50:06.000Z</time><ele>397</ele></trkpt><trkpt lat="45.973725" lon="10.308476"><time>2025-04-28T05:50:07.000Z</time><ele>397</ele></trkpt><trkpt lat="45.973714" lon="10.308469"><time>2025-04-28T05:50:08.000Z</time><ele>397.2</ele></trkpt><trkpt lat="45.973702" lon="10.308464"><time>2025-04-28T05:50:09.000Z</time><ele>397.2</ele></trkpt><trkpt lat="45.973693" lon="10.308456"><time>2025-04-28T05:50:10.000Z</time><ele>397.2</ele></trkpt><trkpt lat="45.973681" lon="10.30845"><time>2025-04-28T05:50:11.000Z</time><ele>397.2</ele></trkpt><trkpt lat="45.973672" lon="10.308448"><time>2025-04-28T05:50:12.000Z</time><ele>397.2</ele></trkpt><trkpt lat="45.973663" lon="10.308441"><time>2025-04-28T05:50:13.000Z</time><ele>397.2</ele></trkpt><trkpt lat="45.973654" lon="10.308435"><time>2025-04-28T05:50:14.000Z</time><ele>397.4</ele></trkpt><trkpt lat="45.973643" lon="10.30843"><time>2025-04-28T05:50:15.000Z</time><ele>397.4</ele></trkpt><trkpt lat="45.973632" lon="10.308425"><time>2025-04-28T05:50:16.000Z</time><ele>397.6</ele></trkpt><trkpt lat="45.973625" lon="10.308419"><time>2025-04-28T05:50:17.000Z</time><ele>397.6</ele></trkpt><trkpt lat="45.973614" lon="10.308416"><time>2025-04-28T05:50:18.000Z</time><ele>397.6</ele></trkpt><trkpt lat="45.973604" lon="10.308413"><time>2025-04-28T05:50:19.000Z</time><ele>397.6</ele></trkpt><trkpt lat="45.97359" lon="10.308411"><time>2025-04-28T05:50:20.000Z</time><ele>397.6</ele></trkpt><trkpt lat="45.97358" lon="10.308408"><time>2025-04-28T05:50:21.000Z</time><ele>397.6</ele></trkpt><trkpt lat="45.973571" lon="10.308402"><time>2025-04-28T05:50:22.000Z</time><ele>397.8</ele></trkpt><trkpt lat="45.973557" lon="10.308395"><time>2025-04-28T05:50:23.000Z</time><ele>397.8</ele></trkpt><trkpt lat="45.973545" lon="10.30839"><time>2025-04-28T05:50:24.000Z</time><ele>397.8</ele></trkpt><trkpt lat="45.973534" lon="10.308382"><time>2025-04-28T05:50:25.000Z</time><ele>398</ele></trkpt><trkpt lat="45.973524" lon="10.308371"><time>2025-04-28T05:50:26.000Z</time><ele>398</ele></trkpt><trkpt lat="45.973516" lon="10.308361"><time>2025-04-28T05:50:27.000Z</time><ele>398.2</ele></trkpt><trkpt lat="45.973507" lon="10.308355"><time>2025-04-28T05:50:28.000Z</time><ele>398.2</ele></trkpt><trkpt lat="45.973494" lon="10.308344"><time>2025-04-28T05:50:29.000Z</time><ele>398.2</ele></trkpt><trkpt lat="45.973479" lon="10.308337"><time>2025-04-28T05:50:30.000Z</time><ele>398.2</ele></trkpt><trkpt lat="45.973465" lon="10.308323"><time>2025-04-28T05:50:31.000Z</time><ele>398.4</ele></trkpt><trkpt lat="45.973451" lon="10.308312"><time>2025-04-28T05:50:32.000Z</time><ele>398.6</ele></trkpt><trkpt lat="45.973442" lon="10.3083"><time>2025-04-28T05:50:33.000Z</time><ele>398.6</ele></trkpt><trkpt lat="45.973434" lon="10.308287"><time>2025-04-28T05:50:34.000Z</time><ele>398.8</ele></trkpt><trkpt lat="45.973428" lon="10.308274"><time>2025-04-28T05:50:35.000Z</time><ele>398.8</ele></trkpt><trkpt lat="45.973419" lon="10.308265"><time>2025-04-28T05:50:36.000Z</time><ele>398.8</ele></trkpt><trkpt lat="45.973406" lon="10.30826"><time>2025-04-28T05:50:37.000Z</time><ele>399</ele></trkpt><trkpt lat="45.973392" lon="10.308254"><time>2025-04-28T05:50:38.000Z</time><ele>399</ele></trkpt><trkpt lat="45.973379" lon="10.308248"><time>2025-04-28T05:50:39.000Z</time><ele>399</ele></trkpt><trkpt lat="45.97337" lon="10.308238"><time>2025-04-28T05:50:40.000Z</time><ele>399.4</ele></trkpt><trkpt lat="45.973365" lon="10.308221"><time>2025-04-28T05:50:41.000Z</time><ele>399.4</ele></trkpt><trkpt lat="45.973357" lon="10.308206"><time>2025-04-28T05:50:42.000Z</time><ele>399.6</ele></trkpt><trkpt lat="45.973345" lon="10.308194"><time>2025-04-28T05:50:43.000Z</time><ele>399.6</ele></trkpt><trkpt lat="45.973334" lon="10.30818"><time>2025-04-28T05:50:44.000Z</time><ele>399.6</ele></trkpt><trkpt lat="45.973324" lon="10.308163"><time>2025-04-28T05:50:45.000Z</time><ele>399.8</ele></trkpt><trkpt lat="45.973302" lon="10.308151"><time>2025-04-28T05:50:46.000Z</time><ele>399.8</ele></trkpt><trkpt lat="45.973283" lon="10.308141"><time>2025-04-28T05:50:47.000Z</time><ele>399.8</ele></trkpt><trkpt lat="45.973269" lon="10.308134"><time>2025-04-28T05:50:48.000Z</time><ele>400</ele></trkpt><trkpt lat="45.973265" lon="10.308128"><time>2025-04-28T05:50:49.000Z</time><ele>400.2</ele></trkpt><trkpt lat="45.973256" lon="10.308126"><time>2025-04-28T05:50:50.000Z</time><ele>400.4</ele></trkpt><trkpt lat="45.973247" lon="10.308122"><time>2025-04-28T05:50:51.000Z</time><ele>400.4</ele></trkpt><trkpt lat="45.973239" lon="10.308119"><time>2025-04-28T05:50:52.000Z</time><ele>400.4</ele></trkpt><trkpt lat="45.973235" lon="10.308109"><time>2025-04-28T05:50:53.000Z</time><ele>400.6</ele></trkpt><trkpt lat="45.973226" lon="10.308101"><time>2025-04-28T05:50:54.000Z</time><ele>400.6</ele></trkpt><trkpt lat="45.973216" lon="10.308089"><time>2025-04-28T05:50:55.000Z</time><ele>400.6</ele></trkpt><trkpt lat="45.973209" lon="10.308071"><time>2025-04-28T05:50:56.000Z</time><ele>400.6</ele></trkpt><trkpt lat="45.973194" lon="10.308066"><time>2025-04-28T05:50:57.000Z</time><ele>400.8</ele></trkpt><trkpt lat="45.973184" lon="10.30806"><time>2025-04-28T05:50:58.000Z</time><ele>400.8</ele></trkpt><trkpt lat="45.97317" lon="10.308053"><time>2025-04-28T05:50:59.000Z</time><ele>400.8</ele></trkpt><trkpt lat="45.973162" lon="10.308046"><time>2025-04-28T05:51:00.000Z</time><ele>401</ele></trkpt><trkpt lat="45.973152" lon="10.308039"><time>2025-04-28T05:51:01.000Z</time><ele>401</ele></trkpt><trkpt lat="45.973142" lon="10.308037"><time>2025-04-28T05:51:02.000Z</time><ele>401.2</ele></trkpt><trkpt lat="45.973131" lon="10.308031"><time>2025-04-28T05:51:03.000Z</time><ele>401.2</ele></trkpt><trkpt lat="45.973121" lon="10.308026"><time>2025-04-28T05:51:04.000Z</time><ele>401.4</ele></trkpt><trkpt lat="45.973109" lon="10.308017"><time>2025-04-28T05:51:05.000Z</time><ele>401.4</ele></trkpt><trkpt lat="45.973099" lon="10.308009"><time>2025-04-28T05:51:06.000Z</time><ele>401.4</ele></trkpt><trkpt lat="45.973088" lon="10.308004"><time>2025-04-28T05:51:07.000Z</time><ele>401.6</ele></trkpt><trkpt lat="45.973079" lon="10.307995"><time>2025-04-28T05:51:08.000Z</time><ele>401.8</ele></trkpt><trkpt lat="45.973072" lon="10.307988"><time>2025-04-28T05:51:09.000Z</time><ele>401.8</ele></trkpt><trkpt lat="45.973062" lon="10.307978"><time>2025-04-28T05:51:10.000Z</time><ele>402</ele></trkpt><trkpt lat="45.973053" lon="10.307961"><time>2025-04-28T05:51:11.000Z</time><ele>402</ele></trkpt><trkpt lat="45.973043" lon="10.307949"><time>2025-04-28T05:51:12.000Z</time><ele>402</ele></trkpt><trkpt lat="45.973038" lon="10.307944"><time>2025-04-28T05:51:13.000Z</time><ele>402</ele></trkpt><trkpt lat="45.973033" lon="10.307936"><time>2025-04-28T05:51:14.000Z</time><ele>402</ele></trkpt><trkpt lat="45.973019" lon="10.307938"><time>2025-04-28T05:51:15.000Z</time><ele>402.2</ele></trkpt><trkpt lat="45.973007" lon="10.307932"><time>2025-04-28T05:51:16.000Z</time><ele>402.2</ele></trkpt><trkpt lat="45.973004" lon="10.307929"><time>2025-04-28T05:51:17.000Z</time><ele>402.2</ele></trkpt><trkpt lat="45.972994" lon="10.307925"><time>2025-04-28T05:51:18.000Z</time><ele>402.2</ele></trkpt><trkpt lat="45.972993" lon="10.307907"><time>2025-04-28T05:51:19.000Z</time><ele>402.4</ele></trkpt><trkpt lat="45.972988" lon="10.307893"><time>2025-04-28T05:51:20.000Z</time><ele>402.2</ele></trkpt><trkpt lat="45.972981" lon="10.30788"><time>2025-04-28T05:51:21.000Z</time><ele>402.2</ele></trkpt><trkpt lat="45.97297" lon="10.307872"><time>2025-04-28T05:51:22.000Z</time><ele>402.2</ele></trkpt><trkpt lat="45.972962" lon="10.307857"><time>2025-04-28T05:51:23.000Z</time><ele>402.2</ele></trkpt><trkpt lat="45.972958" lon="10.30784"><time>2025-04-28T05:51:24.000Z</time><ele>402</ele></trkpt><trkpt lat="45.972953" lon="10.307828"><time>2025-04-28T05:51:25.000Z</time><ele>402</ele></trkpt><trkpt lat="45.97295" lon="10.307818"><time>2025-04-28T05:51:26.000Z</time><ele>402</ele></trkpt><trkpt lat="45.972944" lon="10.307804"><time>2025-04-28T05:51:27.000Z</time><ele>402</ele></trkpt><trkpt lat="45.972936" lon="10.307793"><time>2025-04-28T05:51:28.000Z</time><ele>401.8</ele></trkpt><trkpt lat="45.972929" lon="10.307781"><time>2025-04-28T05:51:29.000Z</time><ele>401.8</ele></trkpt><trkpt lat="45.972919" lon="10.307764"><time>2025-04-28T05:51:30.000Z</time><ele>401.8</ele></trkpt><trkpt lat="45.972912" lon="10.307751"><time>2025-04-28T05:51:31.000Z</time><ele>401.8</ele></trkpt><trkpt lat="45.972906" lon="10.307731"><time>2025-04-28T05:51:32.000Z</time><ele>401.8</ele></trkpt><trkpt lat="45.9729" lon="10.307713"><time>2025-04-28T05:51:33.000Z</time><ele>401.8</ele></trkpt><trkpt lat="45.972894" lon="10.307695"><time>2025-04-28T05:51:34.000Z</time><ele>401.8</ele></trkpt><trkpt lat="45.972889" lon="10.307677"><time>2025-04-28T05:51:35.000Z</time><ele>401.8</ele></trkpt><trkpt lat="45.97289" lon="10.307656"><time>2025-04-28T05:51:36.000Z</time><ele>401.8</ele></trkpt><trkpt lat="45.972891" lon="10.307633"><time>2025-04-28T05:51:37.000Z</time><ele>401.6</ele></trkpt><trkpt lat="45.972887" lon="10.307614"><time>2025-04-28T05:51:38.000Z</time><ele>401.6</ele></trkpt><trkpt lat="45.972882" lon="10.307602"><time>2025-04-28T05:51:39.000Z</time><ele>401.6</ele></trkpt><trkpt lat="45.972874" lon="10.307593"><time>2025-04-28T05:51:40.000Z</time><ele>401.6</ele></trkpt><trkpt lat="45.972866" lon="10.307589"><time>2025-04-28T05:51:41.000Z</time><ele>401.6</ele></trkpt><trkpt lat="45.972859" lon="10.307589"><time>2025-04-28T05:51:42.000Z</time><ele>401.6</ele></trkpt><trkpt lat="45.972851" lon="10.307584"><time>2025-04-28T05:51:43.000Z</time><ele>401.6</ele></trkpt><trkpt lat="45.972845" lon="10.307567"><time>2025-04-28T05:51:44.000Z</time><ele>401.6</ele></trkpt><trkpt lat="45.972838" lon="10.307555"><time>2025-04-28T05:51:45.000Z</time><ele>401.6</ele></trkpt><trkpt lat="45.972832" lon="10.307534"><time>2025-04-28T05:51:46.000Z</time><ele>401.6</ele></trkpt><trkpt lat="45.972824" lon="10.307516"><time>2025-04-28T05:51:47.000Z</time><ele>401.6</ele></trkpt><trkpt lat="45.972808" lon="10.307509"><time>2025-04-28T05:51:48.000Z</time><ele>401.6</ele></trkpt><trkpt lat="45.972794" lon="10.307507"><time>2025-04-28T05:51:49.000Z</time><ele>401.6</ele></trkpt><trkpt lat="45.972775" lon="10.307497"><time>2025-04-28T05:51:50.000Z</time><ele>401.6</ele></trkpt><trkpt lat="45.972764" lon="10.307489"><time>2025-04-28T05:51:51.000Z</time><ele>401.6</ele></trkpt><trkpt lat="45.972745" lon="10.307482"><time>2025-04-28T05:51:52.000Z</time><ele>401.6</ele></trkpt><trkpt lat="45.972725" lon="10.307479"><time>2025-04-28T05:51:53.000Z</time><ele>401.6</ele></trkpt><trkpt lat="45.972713" lon="10.307465"><time>2025-04-28T05:51:54.000Z</time><ele>401.6</ele></trkpt><trkpt lat="45.972698" lon="10.307447"><time>2025-04-28T05:51:55.000Z</time><ele>401.6</ele></trkpt><trkpt lat="45.972692" lon="10.307417"><time>2025-04-28T05:51:56.000Z</time><ele>401.6</ele></trkpt><trkpt lat="45.972687" lon="10.307393"><time>2025-04-28T05:51:57.000Z</time><ele>401.6</ele></trkpt><trkpt lat="45.972675" lon="10.307384"><time>2025-04-28T05:51:58.000Z</time><ele>401.6</ele></trkpt><trkpt lat="45.97267" lon="10.307366"><time>2025-04-28T05:51:59.000Z</time><ele>401.6</ele></trkpt><trkpt lat="45.972659" lon="10.307355"><time>2025-04-28T05:52:00.000Z</time><ele>401.4</ele></trkpt><trkpt lat="45.97264" lon="10.307351"><time>2025-04-28T05:52:01.000Z</time><ele>401.4</ele></trkpt><trkpt lat="45.972625" lon="10.307345"><time>2025-04-28T05:52:02.000Z</time><ele>401.4</ele></trkpt><trkpt lat="45.972611" lon="10.307334"><time>2025-04-28T05:52:03.000Z</time><ele>401.4</ele></trkpt><trkpt lat="45.972603" lon="10.307316"><time>2025-04-28T05:52:04.000Z</time><ele>401.4</ele></trkpt><trkpt lat="45.972597" lon="10.307302"><time>2025-04-28T05:52:05.000Z</time><ele>401.2</ele></trkpt><trkpt lat="45.972594" lon="10.307287"><time>2025-04-28T05:52:06.000Z</time><ele>401</ele></trkpt><trkpt lat="45.972591" lon="10.307275"><time>2025-04-28T05:52:07.000Z</time><ele>401</ele></trkpt><trkpt lat="45.972578" lon="10.307265"><time>2025-04-28T05:52:08.000Z</time><ele>400.8</ele></trkpt><trkpt lat="45.972566" lon="10.307258"><time>2025-04-28T05:52:09.000Z</time><ele>400.8</ele></trkpt><trkpt lat="45.972557" lon="10.307249"><time>2025-04-28T05:52:10.000Z</time><ele>400.8</ele></trkpt><trkpt lat="45.972544" lon="10.307244"><time>2025-04-28T05:52:11.000Z</time><ele>400.6</ele></trkpt><trkpt lat="45.972531" lon="10.307236"><time>2025-04-28T05:52:12.000Z</time><ele>400.6</ele></trkpt><trkpt lat="45.97252" lon="10.307228"><time>2025-04-28T05:52:13.000Z</time><ele>400.4</ele></trkpt><trkpt lat="45.972517" lon="10.307214"><time>2025-04-28T05:52:14.000Z</time><ele>400.2</ele></trkpt><trkpt lat="45.97251" lon="10.307214"><time>2025-04-28T05:52:15.000Z</time><ele>400</ele></trkpt><trkpt lat="45.972504" lon="10.307215"><time>2025-04-28T05:52:16.000Z</time><ele>400</ele></trkpt><trkpt lat="45.972499" lon="10.307214"><time>2025-04-28T05:52:17.000Z</time><ele>400</ele></trkpt><trkpt lat="45.9725" lon="10.307216"><time>2025-04-28T05:52:18.000Z</time><ele>400</ele></trkpt><trkpt lat="45.972498" lon="10.307218"><time>2025-04-28T05:52:19.000Z</time><ele>400</ele></trkpt><trkpt lat="45.972495" lon="10.30722"><time>2025-04-28T05:52:20.000Z</time><ele>400</ele></trkpt><trkpt lat="45.972491" lon="10.30722"><time>2025-04-28T05:52:21.000Z</time><ele>400</ele></trkpt><trkpt lat="45.972488" lon="10.30721"><time>2025-04-28T05:52:22.000Z</time><ele>399.8</ele></trkpt><trkpt lat="45.972485" lon="10.307198"><time>2025-04-28T05:52:23.000Z</time><ele>399.8</ele></trkpt><trkpt lat="45.972481" lon="10.307184"><time>2025-04-28T05:52:24.000Z</time><ele>399.8</ele></trkpt><trkpt lat="45.972467" lon="10.307175"><time>2025-04-28T05:52:25.000Z</time><ele>399.6</ele></trkpt><trkpt lat="45.972457" lon="10.30716"><time>2025-04-28T05:52:26.000Z</time><ele>399.6</ele></trkpt><trkpt lat="45.972448" lon="10.307146"><time>2025-04-28T05:52:27.000Z</time><ele>399.6</ele></trkpt><trkpt lat="45.972446" lon="10.307128"><time>2025-04-28T05:52:28.000Z</time><ele>399.6</ele></trkpt><trkpt lat="45.972448" lon="10.307109"><time>2025-04-28T05:52:29.000Z</time><ele>399.6</ele></trkpt><trkpt lat="45.972445" lon="10.307091"><time>2025-04-28T05:52:30.000Z</time><ele>399.6</ele></trkpt><trkpt lat="45.972438" lon="10.307076"><time>2025-04-28T05:52:31.000Z</time><ele>399.8</ele></trkpt><trkpt lat="45.97243" lon="10.307062"><time>2025-04-28T05:52:32.000Z</time><ele>399.8</ele></trkpt><trkpt lat="45.972421" lon="10.307051"><time>2025-04-28T05:52:33.000Z</time><ele>399.8</ele></trkpt><trkpt lat="45.97241" lon="10.307044"><time>2025-04-28T05:52:34.000Z</time><ele>400</ele></trkpt><trkpt lat="45.972403" lon="10.307032"><time>2025-04-28T05:52:35.000Z</time><ele>400</ele></trkpt><trkpt lat="45.972398" lon="10.307013"><time>2025-04-28T05:52:36.000Z</time><ele>400.2</ele></trkpt><trkpt lat="45.972398" lon="10.306987"><time>2025-04-28T05:52:37.000Z</time><ele>400.2</ele></trkpt><trkpt lat="45.972392" lon="10.306973"><time>2025-04-28T05:52:38.000Z</time><ele>400.2</ele></trkpt><trkpt lat="45.97239" lon="10.306959"><time>2025-04-28T05:52:39.000Z</time><ele>400.4</ele></trkpt><trkpt lat="45.972385" lon="10.306947"><time>2025-04-28T05:52:40.000Z</time><ele>400.4</ele></trkpt><trkpt lat="45.972377" lon="10.306935"><time>2025-04-28T05:52:41.000Z</time><ele>400.6</ele></trkpt><trkpt lat="45.972376" lon="10.30691"><time>2025-04-28T05:52:42.000Z</time><ele>400.6</ele></trkpt><trkpt lat="45.972371" lon="10.306893"><time>2025-04-28T05:52:43.000Z</time><ele>400.6</ele></trkpt><trkpt lat="45.972366" lon="10.306879"><time>2025-04-28T05:52:44.000Z</time><ele>400.6</ele></trkpt><trkpt lat="45.972357" lon="10.306854"><time>2025-04-28T05:52:45.000Z</time><ele>400.8</ele></trkpt><trkpt lat="45.972345" lon="10.306832"><time>2025-04-28T05:52:46.000Z</time><ele>400.8</ele></trkpt><trkpt lat="45.972339" lon="10.306817"><time>2025-04-28T05:52:47.000Z</time><ele>400.8</ele></trkpt><trkpt lat="45.972334" lon="10.30679"><time>2025-04-28T05:52:48.000Z</time><ele>400.8</ele></trkpt><trkpt lat="45.972328" lon="10.306772"><time>2025-04-28T05:52:49.000Z</time><ele>400.8</ele></trkpt><trkpt lat="45.972319" lon="10.306755"><time>2025-04-28T05:52:50.000Z</time><ele>400.8</ele></trkpt><trkpt lat="45.972313" lon="10.306738"><time>2025-04-28T05:52:51.000Z</time><ele>400.8</ele></trkpt><trkpt lat="45.972309" lon="10.306724"><time>2025-04-28T05:52:52.000Z</time><ele>400.8</ele></trkpt><trkpt lat="45.972307" lon="10.306708"><time>2025-04-28T05:52:53.000Z</time><ele>400.8</ele></trkpt><trkpt lat="45.972302" lon="10.306685"><time>2025-04-28T05:52:54.000Z</time><ele>400.8</ele></trkpt><trkpt lat="45.972299" lon="10.306668"><time>2025-04-28T05:52:55.000Z</time><ele>400.8</ele></trkpt><trkpt lat="45.972294" lon="10.306658"><time>2025-04-28T05:52:56.000Z</time><ele>400.8</ele></trkpt><trkpt lat="45.972291" lon="10.30664"><time>2025-04-28T05:52:57.000Z</time><ele>400.8</ele></trkpt><trkpt lat="45.972288" lon="10.306621"><time>2025-04-28T05:52:58.000Z</time><ele>400.8</ele></trkpt><trkpt lat="45.972283" lon="10.306603"><time>2025-04-28T05:52:59.000Z</time><ele>400.8</ele></trkpt><trkpt lat="45.972273" lon="10.306586"><time>2025-04-28T05:53:00.000Z</time><ele>400.8</ele></trkpt><trkpt lat="45.972268" lon="10.306567"><time>2025-04-28T05:53:01.000Z</time><ele>400.8</ele></trkpt><trkpt lat="45.972265" lon="10.306549"><time>2025-04-28T05:53:02.000Z</time><ele>401</ele></trkpt><trkpt lat="45.972262" lon="10.306526"><time>2025-04-28T05:53:03.000Z</time><ele>401</ele></trkpt><trkpt lat="45.972254" lon="10.306512"><time>2025-04-28T05:53:04.000Z</time><ele>401.2</ele></trkpt><trkpt lat="45.972246" lon="10.306498"><time>2025-04-28T05:53:05.000Z</time><ele>401.2</ele></trkpt><trkpt lat="45.972242" lon="10.306489"><time>2025-04-28T05:53:06.000Z</time><ele>401.4</ele></trkpt><trkpt lat="45.972234" lon="10.306479"><time>2025-04-28T05:53:07.000Z</time><ele>401.4</ele></trkpt><trkpt lat="45.97222" lon="10.306462"><time>2025-04-28T05:53:08.000Z</time><ele>401.4</ele></trkpt><trkpt lat="45.972207" lon="10.30645"><time>2025-04-28T05:53:09.000Z</time><ele>401.6</ele></trkpt><trkpt lat="45.972198" lon="10.306434"><time>2025-04-28T05:53:10.000Z</time><ele>401.6</ele></trkpt><trkpt lat="45.972186" lon="10.306417"><time>2025-04-28T05:53:11.000Z</time><ele>401.8</ele></trkpt><trkpt lat="45.972178" lon="10.306412"><time>2025-04-28T05:53:12.000Z</time><ele>401.8</ele></trkpt><trkpt lat="45.972158" lon="10.306406"><time>2025-04-28T05:53:13.000Z</time><ele>402</ele></trkpt><trkpt lat="45.972149" lon="10.306396"><time>2025-04-28T05:53:14.000Z</time><ele>402.2</ele></trkpt><trkpt lat="45.972143" lon="10.30638"><time>2025-04-28T05:53:15.000Z</time><ele>402.4</ele></trkpt><trkpt lat="45.972136" lon="10.306368"><time>2025-04-28T05:53:16.000Z</time><ele>402.6</ele></trkpt><trkpt lat="45.972126" lon="10.306364"><time>2025-04-28T05:53:17.000Z</time><ele>402.8</ele></trkpt><trkpt lat="45.972114" lon="10.306363"><time>2025-04-28T05:53:18.000Z</time><ele>403</ele></trkpt><trkpt lat="45.972106" lon="10.306351"><time>2025-04-28T05:53:19.000Z</time><ele>403.2</ele></trkpt><trkpt lat="45.972098" lon="10.30634"><time>2025-04-28T05:53:20.000Z</time><ele>403.4</ele></trkpt><trkpt lat="45.972092" lon="10.306328"><time>2025-04-28T05:53:21.000Z</time><ele>403.6</ele></trkpt><trkpt lat="45.972085" lon="10.306319"><time>2025-04-28T05:53:22.000Z</time><ele>403.8</ele></trkpt><trkpt lat="45.972078" lon="10.306312"><time>2025-04-28T05:53:23.000Z</time><ele>404</ele></trkpt><trkpt lat="45.972072" lon="10.306304"><time>2025-04-28T05:53:24.000Z</time><ele>404.2</ele></trkpt><trkpt lat="45.972072" lon="10.306288"><time>2025-04-28T05:53:25.000Z</time><ele>404.4</ele></trkpt><trkpt lat="45.972076" lon="10.306272"><time>2025-04-28T05:53:26.000Z</time><ele>404.6</ele></trkpt><trkpt lat="45.972083" lon="10.306253"><time>2025-04-28T05:53:27.000Z</time><ele>404.8</ele></trkpt><trkpt lat="45.972085" lon="10.306243"><time>2025-04-28T05:53:28.000Z</time><ele>405</ele></trkpt><trkpt lat="45.972081" lon="10.306241"><time>2025-04-28T05:53:29.000Z</time><ele>405.2</ele></trkpt><trkpt lat="45.972075" lon="10.306235"><time>2025-04-28T05:53:30.000Z</time><ele>405.4</ele></trkpt><trkpt lat="45.972066" lon="10.306228"><time>2025-04-28T05:53:31.000Z</time><ele>405.6</ele></trkpt><trkpt lat="45.972055" lon="10.306227"><time>2025-04-28T05:53:32.000Z</time><ele>405.8</ele></trkpt><trkpt lat="45.97205" lon="10.306225"><time>2025-04-28T05:53:33.000Z</time><ele>406</ele></trkpt><trkpt lat="45.972048" lon="10.306206"><time>2025-04-28T05:53:34.000Z</time><ele>406.2</ele></trkpt><trkpt lat="45.972046" lon="10.306185"><time>2025-04-28T05:53:35.000Z</time><ele>406.4</ele></trkpt><trkpt lat="45.97204" lon="10.306169"><time>2025-04-28T05:53:36.000Z</time><ele>406.4</ele></trkpt><trkpt lat="45.972036" lon="10.306157"><time>2025-04-28T05:53:37.000Z</time><ele>406.6</ele></trkpt><trkpt lat="45.972027" lon="10.306143"><time>2025-04-28T05:53:38.000Z</time><ele>406.6</ele></trkpt><trkpt lat="45.972018" lon="10.306122"><time>2025-04-28T05:53:39.000Z</time><ele>406.8</ele></trkpt><trkpt lat="45.972012" lon="10.306107"><time>2025-04-28T05:53:40.000Z</time><ele>407</ele></trkpt><trkpt lat="45.972015" lon="10.306093"><time>2025-04-28T05:53:41.000Z</time><ele>407.2</ele></trkpt><trkpt lat="45.972007" lon="10.306087"><time>2025-04-28T05:53:42.000Z</time><ele>407.2</ele></trkpt><trkpt lat="45.971999" lon="10.306083"><time>2025-04-28T05:53:43.000Z</time><ele>407.4</ele></trkpt><trkpt lat="45.971986" lon="10.306074"><time>2025-04-28T05:53:44.000Z</time><ele>407.4</ele></trkpt><trkpt lat="45.97198" lon="10.306067"><time>2025-04-28T05:53:45.000Z</time><ele>407.6</ele></trkpt><trkpt lat="45.971965" lon="10.306071"><time>2025-04-28T05:53:46.000Z</time><ele>407.6</ele></trkpt><trkpt lat="45.971952" lon="10.306072"><time>2025-04-28T05:53:47.000Z</time><ele>407.8</ele></trkpt><trkpt lat="45.971938" lon="10.306071"><time>2025-04-28T05:53:48.000Z</time><ele>407.8</ele></trkpt><trkpt lat="45.971924" lon="10.306073"><time>2025-04-28T05:53:49.000Z</time><ele>407.8</ele></trkpt><trkpt lat="45.971913" lon="10.306074"><time>2025-04-28T05:53:50.000Z</time><ele>408</ele></trkpt><trkpt lat="45.9719" lon="10.306067"><time>2025-04-28T05:53:51.000Z</time><ele>408.2</ele></trkpt><trkpt lat="45.97189" lon="10.306051"><time>2025-04-28T05:53:52.000Z</time><ele>408.4</ele></trkpt><trkpt lat="45.97188" lon="10.30604"><time>2025-04-28T05:53:53.000Z</time><ele>408.4</ele></trkpt><trkpt lat="45.971864" lon="10.306035"><time>2025-04-28T05:53:54.000Z</time><ele>408.6</ele></trkpt><trkpt lat="45.971857" lon="10.306028"><time>2025-04-28T05:53:55.000Z</time><ele>408.8</ele></trkpt><trkpt lat="45.971851" lon="10.306027"><time>2025-04-28T05:53:56.000Z</time><ele>408.8</ele></trkpt><trkpt lat="45.971847" lon="10.306028"><time>2025-04-28T05:53:57.000Z</time><ele>409</ele></trkpt><trkpt lat="45.971844" lon="10.306029"><time>2025-04-28T05:53:58.000Z</time><ele>409</ele></trkpt><trkpt lat="45.971832" lon="10.306021"><time>2025-04-28T05:53:59.000Z</time><ele>409</ele></trkpt><trkpt lat="45.971821" lon="10.306014"><time>2025-04-28T05:54:00.000Z</time><ele>409.2</ele></trkpt><trkpt lat="45.971808" lon="10.306016"><time>2025-04-28T05:54:01.000Z</time><ele>409.2</ele></trkpt><trkpt lat="45.971797" lon="10.306016"><time>2025-04-28T05:54:02.000Z</time><ele>409.4</ele></trkpt><trkpt lat="45.971787" lon="10.306018"><time>2025-04-28T05:54:03.000Z</time><ele>409.4</ele></trkpt><trkpt lat="45.971776" lon="10.306021"><time>2025-04-28T05:54:04.000Z</time><ele>409.4</ele></trkpt><trkpt lat="45.971767" lon="10.306018"><time>2025-04-28T05:54:05.000Z</time><ele>409.6</ele></trkpt><trkpt lat="45.971755" lon="10.306017"><time>2025-04-28T05:54:06.000Z</time><ele>409.6</ele></trkpt><trkpt lat="45.971743" lon="10.30601"><time>2025-04-28T05:54:07.000Z</time><ele>409.8</ele></trkpt><trkpt lat="45.97173" lon="10.306007"><time>2025-04-28T05:54:08.000Z</time><ele>409.8</ele></trkpt><trkpt lat="45.971714" lon="10.306005"><time>2025-04-28T05:54:09.000Z</time><ele>409.8</ele></trkpt><trkpt lat="45.971697" lon="10.305994"><time>2025-04-28T05:54:10.000Z</time><ele>409.8</ele></trkpt><trkpt lat="45.971686" lon="10.305983"><time>2025-04-28T05:54:11.000Z</time><ele>410</ele></trkpt><trkpt lat="45.971678" lon="10.305983"><time>2025-04-28T05:54:12.000Z</time><ele>410</ele></trkpt><trkpt lat="45.971666" lon="10.305982"><time>2025-04-28T05:54:13.000Z</time><ele>410</ele></trkpt><trkpt lat="45.97165" lon="10.305972"><time>2025-04-28T05:54:14.000Z</time><ele>410</ele></trkpt><trkpt lat="45.97163" lon="10.305953"><time>2025-04-28T05:54:15.000Z</time><ele>410</ele></trkpt><trkpt lat="45.971614" lon="10.305937"><time>2025-04-28T05:54:16.000Z</time><ele>410</ele></trkpt><trkpt lat="45.971594" lon="10.305918"><time>2025-04-28T05:54:17.000Z</time><ele>410</ele></trkpt><trkpt lat="45.971578" lon="10.305901"><time>2025-04-28T05:54:18.000Z</time><ele>410</ele></trkpt><trkpt lat="45.97157" lon="10.305877"><time>2025-04-28T05:54:19.000Z</time><ele>410</ele></trkpt><trkpt lat="45.971561" lon="10.305867"><time>2025-04-28T05:54:20.000Z</time><ele>410</ele></trkpt><trkpt lat="45.971551" lon="10.305865"><time>2025-04-28T05:54:21.000Z</time><ele>410</ele></trkpt><trkpt lat="45.971542" lon="10.305866"><time>2025-04-28T05:54:22.000Z</time><ele>410</ele></trkpt><trkpt lat="45.971532" lon="10.305864"><time>2025-04-28T05:54:23.000Z</time><ele>410</ele></trkpt><trkpt lat="45.971524" lon="10.305854"><time>2025-04-28T05:54:24.000Z</time><ele>410</ele></trkpt><trkpt lat="45.971512" lon="10.305862"><time>2025-04-28T05:54:25.000Z</time><ele>410</ele></trkpt><trkpt lat="45.971503" lon="10.305875"><time>2025-04-28T05:54:26.000Z</time><ele>410</ele></trkpt><trkpt lat="45.971484" lon="10.305873"><time>2025-04-28T05:54:27.000Z</time><ele>410.2</ele></trkpt><trkpt lat="45.971461" lon="10.305861"><time>2025-04-28T05:54:28.000Z</time><ele>410.2</ele></trkpt><trkpt lat="45.971454" lon="10.305843"><time>2025-04-28T05:54:29.000Z</time><ele>410.2</ele></trkpt><trkpt lat="45.971453" lon="10.305833"><time>2025-04-28T05:54:30.000Z</time><ele>410.2</ele></trkpt><trkpt lat="45.971437" lon="10.305818"><time>2025-04-28T05:54:31.000Z</time><ele>410.2</ele></trkpt><trkpt lat="45.971425" lon="10.305808"><time>2025-04-28T05:54:32.000Z</time><ele>410.2</ele></trkpt><trkpt lat="45.971415" lon="10.3058"><time>2025-04-28T05:54:33.000Z</time><ele>410.2</ele></trkpt><trkpt lat="45.971402" lon="10.305791"><time>2025-04-28T05:54:34.000Z</time><ele>410.2</ele></trkpt><trkpt lat="45.971398" lon="10.30578"><time>2025-04-28T05:54:35.000Z</time><ele>410.2</ele></trkpt><trkpt lat="45.971389" lon="10.305759"><time>2025-04-28T05:54:36.000Z</time><ele>410.2</ele></trkpt><trkpt lat="45.971385" lon="10.305752"><time>2025-04-28T05:54:37.000Z</time><ele>410.2</ele></trkpt><trkpt lat="45.971383" lon="10.305746"><time>2025-04-28T05:54:38.000Z</time><ele>410.2</ele></trkpt><trkpt lat="45.971381" lon="10.305724"><time>2025-04-28T05:54:39.000Z</time><ele>410.2</ele></trkpt><trkpt lat="45.971373" lon="10.305717"><time>2025-04-28T05:54:40.000Z</time><ele>410.4</ele></trkpt><trkpt lat="45.97136" lon="10.305726"><time>2025-04-28T05:54:41.000Z</time><ele>410.4</ele></trkpt><trkpt lat="45.971353" lon="10.305721"><time>2025-04-28T05:54:42.000Z</time><ele>410.4</ele></trkpt><trkpt lat="45.971342" lon="10.305721"><time>2025-04-28T05:54:43.000Z</time><ele>410.6</ele></trkpt><trkpt lat="45.971328" lon="10.30572"><time>2025-04-28T05:54:44.000Z</time><ele>410.6</ele></trkpt><trkpt lat="45.971317" lon="10.305711"><time>2025-04-28T05:54:45.000Z</time><ele>410.6</ele></trkpt><trkpt lat="45.971306" lon="10.305701"><time>2025-04-28T05:54:46.000Z</time><ele>410.8</ele></trkpt><trkpt lat="45.971296" lon="10.305691"><time>2025-04-28T05:54:47.000Z</time><ele>410.8</ele></trkpt><trkpt lat="45.971289" lon="10.305673"><time>2025-04-28T05:54:48.000Z</time><ele>411</ele></trkpt><trkpt lat="45.971279" lon="10.305666"><time>2025-04-28T05:54:49.000Z</time><ele>411</ele></trkpt><trkpt lat="45.971267" lon="10.305661"><time>2025-04-28T05:54:50.000Z</time><ele>411.2</ele></trkpt><trkpt lat="45.971247" lon="10.305665"><time>2025-04-28T05:54:51.000Z</time><ele>411.2</ele></trkpt><trkpt lat="45.971229" lon="10.30566"><time>2025-04-28T05:54:52.000Z</time><ele>411.2</ele></trkpt><trkpt lat="45.971208" lon="10.305643"><time>2025-04-28T05:54:53.000Z</time><ele>411.4</ele></trkpt><trkpt lat="45.971185" lon="10.305623"><time>2025-04-28T05:54:54.000Z</time><ele>411.6</ele></trkpt><trkpt lat="45.971177" lon="10.305611"><time>2025-04-28T05:54:55.000Z</time><ele>411.8</ele></trkpt><trkpt lat="45.971169" lon="10.305604"><time>2025-04-28T05:54:56.000Z</time><ele>412</ele></trkpt><trkpt lat="45.97116" lon="10.305603"><time>2025-04-28T05:54:57.000Z</time><ele>412</ele></trkpt><trkpt lat="45.971152" lon="10.3056"><time>2025-04-28T05:54:58.000Z</time><ele>412.2</ele></trkpt><trkpt lat="45.971147" lon="10.30559"><time>2025-04-28T05:54:59.000Z</time><ele>412.2</ele></trkpt><trkpt lat="45.971139" lon="10.305586"><time>2025-04-28T05:55:00.000Z</time><ele>412.6</ele></trkpt><trkpt lat="45.971126" lon="10.305588"><time>2025-04-28T05:55:01.000Z</time><ele>412.8</ele></trkpt><trkpt lat="45.971121" lon="10.305586"><time>2025-04-28T05:55:02.000Z</time><ele>412.8</ele></trkpt><trkpt lat="45.971107" lon="10.305582"><time>2025-04-28T05:55:03.000Z</time><ele>413</ele></trkpt><trkpt lat="45.971102" lon="10.305575"><time>2025-04-28T05:55:04.000Z</time><ele>413</ele></trkpt><trkpt lat="45.971102" lon="10.305561"><time>2025-04-28T05:55:05.000Z</time><ele>413</ele></trkpt><trkpt lat="45.971104" lon="10.305538"><time>2025-04-28T05:55:06.000Z</time><ele>413.2</ele></trkpt><trkpt lat="45.971094" lon="10.305525"><time>2025-04-28T05:55:07.000Z</time><ele>413.2</ele></trkpt><trkpt lat="45.971083" lon="10.30552"><time>2025-04-28T05:55:08.000Z</time><ele>413.2</ele></trkpt><trkpt lat="45.971066" lon="10.305516"><time>2025-04-28T05:55:09.000Z</time><ele>413.2</ele></trkpt><trkpt lat="45.97105" lon="10.305515"><time>2025-04-28T05:55:10.000Z</time><ele>413.4</ele></trkpt><trkpt lat="45.971031" lon="10.305514"><time>2025-04-28T05:55:11.000Z</time><ele>413.4</ele></trkpt><trkpt lat="45.971018" lon="10.305509"><time>2025-04-28T05:55:12.000Z</time><ele>413.4</ele></trkpt><trkpt lat="45.971004" lon="10.305507"><time>2025-04-28T05:55:13.000Z</time><ele>413.6</ele></trkpt><trkpt lat="45.970992" lon="10.305505"><time>2025-04-28T05:55:14.000Z</time><ele>413.6</ele></trkpt><trkpt lat="45.970984" lon="10.305496"><time>2025-04-28T05:55:15.000Z</time><ele>413.6</ele></trkpt><trkpt lat="45.970973" lon="10.305491"><time>2025-04-28T05:55:16.000Z</time><ele>413.6</ele></trkpt><trkpt lat="45.970957" lon="10.305491"><time>2025-04-28T05:55:17.000Z</time><ele>413.8</ele></trkpt><trkpt lat="45.970945" lon="10.305492"><time>2025-04-28T05:55:18.000Z</time><ele>413.8</ele></trkpt><trkpt lat="45.97093" lon="10.305492"><time>2025-04-28T05:55:19.000Z</time><ele>413.8</ele></trkpt><trkpt lat="45.970916" lon="10.30549"><time>2025-04-28T05:55:20.000Z</time><ele>414</ele></trkpt><trkpt lat="45.970913" lon="10.305486"><time>2025-04-28T05:55:21.000Z</time><ele>414</ele></trkpt><trkpt lat="45.9709" lon="10.305483"><time>2025-04-28T05:55:22.000Z</time><ele>414.2</ele></trkpt><trkpt lat="45.970893" lon="10.305478"><time>2025-04-28T05:55:23.000Z</time><ele>414.2</ele></trkpt><trkpt lat="45.970888" lon="10.305469"><time>2025-04-28T05:55:24.000Z</time><ele>414.4</ele></trkpt><trkpt lat="45.970881" lon="10.305459"><time>2025-04-28T05:55:25.000Z</time><ele>414.4</ele></trkpt><trkpt lat="45.970873" lon="10.305447"><time>2025-04-28T05:55:26.000Z</time><ele>414.6</ele></trkpt><trkpt lat="45.970867" lon="10.305433"><time>2025-04-28T05:55:27.000Z</time><ele>414.8</ele></trkpt><trkpt lat="45.970858" lon="10.305428"><time>2025-04-28T05:55:28.000Z</time><ele>414.8</ele></trkpt><trkpt lat="45.970844" lon="10.305426"><time>2025-04-28T05:55:29.000Z</time><ele>415</ele></trkpt><trkpt lat="45.970832" lon="10.305421"><time>2025-04-28T05:55:30.000Z</time><ele>415.2</ele></trkpt><trkpt lat="45.970817" lon="10.305415"><time>2025-04-28T05:55:31.000Z</time><ele>415.2</ele></trkpt><trkpt lat="45.970808" lon="10.305406"><time>2025-04-28T05:55:32.000Z</time><ele>415.4</ele></trkpt><trkpt lat="45.9708" lon="10.305398"><time>2025-04-28T05:55:33.000Z</time><ele>415.6</ele></trkpt><trkpt lat="45.970792" lon="10.305385"><time>2025-04-28T05:55:34.000Z</time><ele>415.6</ele></trkpt><trkpt lat="45.97078" lon="10.305377"><time>2025-04-28T05:55:35.000Z</time><ele>415.8</ele></trkpt><trkpt lat="45.970769" lon="10.305374"><time>2025-04-28T05:55:36.000Z</time><ele>416.2</ele></trkpt><trkpt lat="45.970758" lon="10.305374"><time>2025-04-28T05:55:37.000Z</time><ele>416.4</ele></trkpt><trkpt lat="45.970751" lon="10.305365"><time>2025-04-28T05:55:38.000Z</time><ele>416.4</ele></trkpt><trkpt lat="45.970728" lon="10.305377"><time>2025-04-28T05:55:39.000Z</time><ele>416.6</ele></trkpt><trkpt lat="45.970708" lon="10.305381"><time>2025-04-28T05:55:40.000Z</time><ele>416.8</ele></trkpt><trkpt lat="45.970699" lon="10.305369"><time>2025-04-28T05:55:41.000Z</time><ele>417</ele></trkpt><trkpt lat="45.970694" lon="10.30535"><time>2025-04-28T05:55:42.000Z</time><ele>417</ele></trkpt><trkpt lat="45.970688" lon="10.305333"><time>2025-04-28T05:55:43.000Z</time><ele>417.2</ele></trkpt><trkpt lat="45.970681" lon="10.305314"><time>2025-04-28T05:55:44.000Z</time><ele>417.4</ele></trkpt><trkpt lat="45.970672" lon="10.305301"><time>2025-04-28T05:55:45.000Z</time><ele>417.6</ele></trkpt><trkpt lat="45.970669" lon="10.305287"><time>2025-04-28T05:55:46.000Z</time><ele>417.8</ele></trkpt><trkpt lat="45.970663" lon="10.305284"><time>2025-04-28T05:55:47.000Z</time><ele>418</ele></trkpt><trkpt lat="45.970656" lon="10.305286"><time>2025-04-28T05:55:48.000Z</time><ele>418.2</ele></trkpt><trkpt lat="45.970652" lon="10.30528"><time>2025-04-28T05:55:49.000Z</time><ele>418.4</ele></trkpt><trkpt lat="45.970645" lon="10.305259"><time>2025-04-28T05:55:50.000Z</time><ele>418.6</ele></trkpt><trkpt lat="45.97064" lon="10.305243"><time>2025-04-28T05:55:51.000Z</time><ele>418.6</ele></trkpt><trkpt lat="45.970633" lon="10.305225"><time>2025-04-28T05:55:52.000Z</time><ele>418.8</ele></trkpt><trkpt lat="45.970628" lon="10.30522"><time>2025-04-28T05:55:53.000Z</time><ele>418.8</ele></trkpt><trkpt lat="45.970626" lon="10.305218"><time>2025-04-28T05:55:54.000Z</time><ele>418.8</ele></trkpt><trkpt lat="45.97062" lon="10.305209"><time>2025-04-28T05:55:55.000Z</time><ele>419</ele></trkpt><trkpt lat="45.97061" lon="10.305204"><time>2025-04-28T05:55:56.000Z</time><ele>419</ele></trkpt><trkpt lat="45.970599" lon="10.305203"><time>2025-04-28T05:55:57.000Z</time><ele>419</ele></trkpt><trkpt lat="45.970586" lon="10.305205"><time>2025-04-28T05:55:58.000Z</time><ele>419</ele></trkpt><trkpt lat="45.970574" lon="10.305198"><time>2025-04-28T05:55:59.000Z</time><ele>419.2</ele></trkpt><trkpt lat="45.970564" lon="10.305196"><time>2025-04-28T05:56:00.000Z</time><ele>419.2</ele></trkpt><trkpt lat="45.970549" lon="10.305173"><time>2025-04-28T05:56:01.000Z</time><ele>419.4</ele></trkpt><trkpt lat="45.970535" lon="10.305151"><time>2025-04-28T05:56:02.000Z</time><ele>419.6</ele></trkpt><trkpt lat="45.970516" lon="10.305136"><time>2025-04-28T05:56:03.000Z</time><ele>419.6</ele></trkpt><trkpt lat="45.970496" lon="10.305129"><time>2025-04-28T05:56:04.000Z</time><ele>419.8</ele></trkpt><trkpt lat="45.970481" lon="10.305115"><time>2025-04-28T05:56:05.000Z</time><ele>419.8</ele></trkpt><trkpt lat="45.970468" lon="10.305115"><time>2025-04-28T05:56:06.000Z</time><ele>419.8</ele></trkpt><trkpt lat="45.970459" lon="10.305126"><time>2025-04-28T05:56:07.000Z</time><ele>420</ele></trkpt><trkpt lat="45.970448" lon="10.305129"><time>2025-04-28T05:56:08.000Z</time><ele>420.2</ele></trkpt><trkpt lat="45.970432" lon="10.305139"><time>2025-04-28T05:56:09.000Z</time><ele>420.4</ele></trkpt><trkpt lat="45.970419" lon="10.305138"><time>2025-04-28T05:56:10.000Z</time><ele>420.4</ele></trkpt><trkpt lat="45.970411" lon="10.305138"><time>2025-04-28T05:56:11.000Z</time><ele>420.6</ele></trkpt><trkpt lat="45.970408" lon="10.305139"><time>2025-04-28T05:56:12.000Z</time><ele>420.8</ele></trkpt><trkpt lat="45.970402" lon="10.305136"><time>2025-04-28T05:56:13.000Z</time><ele>420.8</ele></trkpt><trkpt lat="45.970399" lon="10.305133"><time>2025-04-28T05:56:14.000Z</time><ele>421</ele></trkpt><trkpt lat="45.970388" lon="10.305132"><time>2025-04-28T05:56:15.000Z</time><ele>421</ele></trkpt><trkpt lat="45.970379" lon="10.305128"><time>2025-04-28T05:56:16.000Z</time><ele>421</ele></trkpt><trkpt lat="45.970365" lon="10.305132"><time>2025-04-28T05:56:17.000Z</time><ele>421</ele></trkpt><trkpt lat="45.97035" lon="10.305127"><time>2025-04-28T05:56:18.000Z</time><ele>421</ele></trkpt><trkpt lat="45.970333" lon="10.30512"><time>2025-04-28T05:56:19.000Z</time><ele>421.2</ele></trkpt><trkpt lat="45.970316" lon="10.305125"><time>2025-04-28T05:56:20.000Z</time><ele>421.2</ele></trkpt><trkpt lat="45.970299" lon="10.305127"><time>2025-04-28T05:56:21.000Z</time><ele>421.4</ele></trkpt><trkpt lat="45.970289" lon="10.305124"><time>2025-04-28T05:56:22.000Z</time><ele>421.4</ele></trkpt><trkpt lat="45.970279" lon="10.305128"><time>2025-04-28T05:56:23.000Z</time><ele>421.4</ele></trkpt><trkpt lat="45.970269" lon="10.305117"><time>2025-04-28T05:56:24.000Z</time><ele>421.6</ele></trkpt><trkpt lat="45.97026" lon="10.305102"><time>2025-04-28T05:56:25.000Z</time><ele>421.6</ele></trkpt><trkpt lat="45.970243" lon="10.305092"><time>2025-04-28T05:56:26.000Z</time><ele>421.8</ele></trkpt><trkpt lat="45.970235" lon="10.305078"><time>2025-04-28T05:56:27.000Z</time><ele>422</ele></trkpt><trkpt lat="45.970228" lon="10.305071"><time>2025-04-28T05:56:28.000Z</time><ele>422.2</ele></trkpt><trkpt lat="45.970223" lon="10.305068"><time>2025-04-28T05:56:29.000Z</time><ele>422.2</ele></trkpt><trkpt lat="45.970207" lon="10.305055"><time>2025-04-28T05:56:30.000Z</time><ele>422.4</ele></trkpt><trkpt lat="45.970196" lon="10.305048"><time>2025-04-28T05:56:31.000Z</time><ele>422.4</ele></trkpt><trkpt lat="45.970187" lon="10.305046"><time>2025-04-28T05:56:32.000Z</time><ele>422.6</ele></trkpt><trkpt lat="45.970175" lon="10.30504"><time>2025-04-28T05:56:33.000Z</time><ele>422.8</ele></trkpt><trkpt lat="45.970167" lon="10.305034"><time>2025-04-28T05:56:34.000Z</time><ele>423</ele></trkpt><trkpt lat="45.970159" lon="10.305027"><time>2025-04-28T05:56:35.000Z</time><ele>423</ele></trkpt><trkpt lat="45.97015" lon="10.305021"><time>2025-04-28T05:56:36.000Z</time><ele>423.2</ele></trkpt><trkpt lat="45.970142" lon="10.305017"><time>2025-04-28T05:56:37.000Z</time><ele>423.2</ele></trkpt><trkpt lat="45.970135" lon="10.305011"><time>2025-04-28T05:56:38.000Z</time><ele>423.2</ele></trkpt><trkpt lat="45.970122" lon="10.304998"><time>2025-04-28T05:56:39.000Z</time><ele>423.4</ele></trkpt><trkpt lat="45.970119" lon="10.304988"><time>2025-04-28T05:56:40.000Z</time><ele>423.6</ele></trkpt><trkpt lat="45.970118" lon="10.304972"><time>2025-04-28T05:56:41.000Z</time><ele>423.8</ele></trkpt><trkpt lat="45.970118" lon="10.304964"><time>2025-04-28T05:56:42.000Z</time><ele>424</ele></trkpt><trkpt lat="45.970111" lon="10.304956"><time>2025-04-28T05:56:43.000Z</time><ele>424.2</ele></trkpt><trkpt lat="45.970103" lon="10.304944"><time>2025-04-28T05:56:44.000Z</time><ele>424.4</ele></trkpt><trkpt lat="45.9701" lon="10.304928"><time>2025-04-28T05:56:45.000Z</time><ele>424.6</ele></trkpt><trkpt lat="45.970094" lon="10.304908"><time>2025-04-28T05:56:46.000Z</time><ele>424.8</ele></trkpt><trkpt lat="45.970083" lon="10.304896"><time>2025-04-28T05:56:47.000Z</time><ele>424.8</ele></trkpt><trkpt lat="45.970075" lon="10.304876"><time>2025-04-28T05:56:48.000Z</time><ele>425</ele></trkpt><trkpt lat="45.970068" lon="10.304859"><time>2025-04-28T05:56:49.000Z</time><ele>425.2</ele></trkpt><trkpt lat="45.97006" lon="10.304842"><time>2025-04-28T05:56:50.000Z</time><ele>425.4</ele></trkpt><trkpt lat="45.970056" lon="10.304833"><time>2025-04-28T05:56:51.000Z</time><ele>425.6</ele></trkpt><trkpt lat="45.970052" lon="10.304819"><time>2025-04-28T05:56:52.000Z</time><ele>425.8</ele></trkpt><trkpt lat="45.970042" lon="10.304803"><time>2025-04-28T05:56:53.000Z</time><ele>426</ele></trkpt><trkpt lat="45.970041" lon="10.304795"><time>2025-04-28T05:56:54.000Z</time><ele>426</ele></trkpt><trkpt lat="45.970047" lon="10.304786"><time>2025-04-28T05:56:55.000Z</time><ele>426.4</ele></trkpt><trkpt lat="45.970048" lon="10.304782"><time>2025-04-28T05:56:56.000Z</time><ele>426.6</ele></trkpt><trkpt lat="45.970048" lon="10.304777"><time>2025-04-28T05:56:57.000Z</time><ele>426.6</ele></trkpt><trkpt lat="45.970044" lon="10.304767"><time>2025-04-28T05:56:58.000Z</time><ele>426.6</ele></trkpt><trkpt lat="45.97004" lon="10.30475"><time>2025-04-28T05:56:59.000Z</time><ele>426.8</ele></trkpt><trkpt lat="45.970036" lon="10.304736"><time>2025-04-28T05:57:00.000Z</time><ele>426.8</ele></trkpt><trkpt lat="45.970039" lon="10.304722"><time>2025-04-28T05:57:01.000Z</time><ele>427</ele></trkpt><trkpt lat="45.970039" lon="10.304708"><time>2025-04-28T05:57:02.000Z</time><ele>427</ele></trkpt><trkpt lat="45.970036" lon="10.304691"><time>2025-04-28T05:57:03.000Z</time><ele>427</ele></trkpt><trkpt lat="45.97003" lon="10.304672"><time>2025-04-28T05:57:04.000Z</time><ele>427</ele></trkpt><trkpt lat="45.970023" lon="10.304652"><time>2025-04-28T05:57:05.000Z</time><ele>427.2</ele></trkpt><trkpt lat="45.970019" lon="10.304637"><time>2025-04-28T05:57:06.000Z</time><ele>427.2</ele></trkpt><trkpt lat="45.970015" lon="10.304621"><time>2025-04-28T05:57:07.000Z</time><ele>427.2</ele></trkpt><trkpt lat="45.970015" lon="10.304607"><time>2025-04-28T05:57:08.000Z</time><ele>427.2</ele></trkpt><trkpt lat="45.970012" lon="10.304588"><time>2025-04-28T05:57:09.000Z</time><ele>427.2</ele></trkpt><trkpt lat="45.970003" lon="10.304572"><time>2025-04-28T05:57:10.000Z</time><ele>427.2</ele></trkpt><trkpt lat="45.969997" lon="10.304564"><time>2025-04-28T05:57:11.000Z</time><ele>427.2</ele></trkpt><trkpt lat="45.969989" lon="10.304548"><time>2025-04-28T05:57:12.000Z</time><ele>427.2</ele></trkpt><trkpt lat="45.969979" lon="10.304533"><time>2025-04-28T05:57:13.000Z</time><ele>427.2</ele></trkpt><trkpt lat="45.969969" lon="10.304518"><time>2025-04-28T05:57:14.000Z</time><ele>427.2</ele></trkpt><trkpt lat="45.969963" lon="10.304504"><time>2025-04-28T05:57:15.000Z</time><ele>427.2</ele></trkpt><trkpt lat="45.969957" lon="10.30449"><time>2025-04-28T05:57:16.000Z</time><ele>427.2</ele></trkpt><trkpt lat="45.96995" lon="10.30447"><time>2025-04-28T05:57:17.000Z</time><ele>427.2</ele></trkpt><trkpt lat="45.969942" lon="10.304452"><time>2025-04-28T05:57:18.000Z</time><ele>427.2</ele></trkpt><trkpt lat="45.969933" lon="10.304436"><time>2025-04-28T05:57:19.000Z</time><ele>427.4</ele></trkpt><trkpt lat="45.96993" lon="10.304419"><time>2025-04-28T05:57:20.000Z</time><ele>427.4</ele></trkpt><trkpt lat="45.969922" lon="10.304402"><time>2025-04-28T05:57:21.000Z</time><ele>427.4</ele></trkpt><trkpt lat="45.969916" lon="10.30439"><time>2025-04-28T05:57:22.000Z</time><ele>427.4</ele></trkpt><trkpt lat="45.969909" lon="10.304377"><time>2025-04-28T05:57:23.000Z</time><ele>427.4</ele></trkpt><trkpt lat="45.969905" lon="10.304362"><time>2025-04-28T05:57:24.000Z</time><ele>427.6</ele></trkpt><trkpt lat="45.969903" lon="10.304344"><time>2025-04-28T05:57:25.000Z</time><ele>427.6</ele></trkpt><trkpt lat="45.969898" lon="10.304324"><time>2025-04-28T05:57:26.000Z</time><ele>427.8</ele></trkpt><trkpt lat="45.969893" lon="10.304306"><time>2025-04-28T05:57:27.000Z</time><ele>427.8</ele></trkpt><trkpt lat="45.969892" lon="10.304291"><time>2025-04-28T05:57:28.000Z</time><ele>427.8</ele></trkpt><trkpt lat="45.969888" lon="10.304275"><time>2025-04-28T05:57:29.000Z</time><ele>428</ele></trkpt><trkpt lat="45.969892" lon="10.304261"><time>2025-04-28T05:57:30.000Z</time><ele>428.2</ele></trkpt><trkpt lat="45.969891" lon="10.304246"><time>2025-04-28T05:57:31.000Z</time><ele>428.2</ele></trkpt><trkpt lat="45.969888" lon="10.304235"><time>2025-04-28T05:57:32.000Z</time><ele>428.2</ele></trkpt><trkpt lat="45.969884" lon="10.304221"><time>2025-04-28T05:57:33.000Z</time><ele>428.4</ele></trkpt><trkpt lat="45.969877" lon="10.304209"><time>2025-04-28T05:57:34.000Z</time><ele>428.4</ele></trkpt><trkpt lat="45.969874" lon="10.304196"><time>2025-04-28T05:57:35.000Z</time><ele>428.8</ele></trkpt><trkpt lat="45.969868" lon="10.304181"><time>2025-04-28T05:57:36.000Z</time><ele>429</ele></trkpt><trkpt lat="45.969862" lon="10.304172"><time>2025-04-28T05:57:37.000Z</time><ele>429.2</ele></trkpt><trkpt lat="45.969862" lon="10.304156"><time>2025-04-28T05:57:38.000Z</time><ele>429.2</ele></trkpt><trkpt lat="45.969862" lon="10.304143"><time>2025-04-28T05:57:39.000Z</time><ele>429.4</ele></trkpt><trkpt lat="45.969862" lon="10.304125"><time>2025-04-28T05:57:40.000Z</time><ele>429.6</ele></trkpt><trkpt lat="45.96986" lon="10.304116"><time>2025-04-28T05:57:41.000Z</time><ele>429.6</ele></trkpt><trkpt lat="45.969856" lon="10.304105"><time>2025-04-28T05:57:42.000Z</time><ele>429.8</ele></trkpt><trkpt lat="45.969849" lon="10.304088"><time>2025-04-28T05:57:43.000Z</time><ele>429.8</ele></trkpt><trkpt lat="45.969843" lon="10.30408"><time>2025-04-28T05:57:44.000Z</time><ele>430</ele></trkpt><trkpt lat="45.969842" lon="10.304067"><time>2025-04-28T05:57:45.000Z</time><ele>430.2</ele></trkpt><trkpt lat="45.969842" lon="10.304049"><time>2025-04-28T05:57:46.000Z</time><ele>430.4</ele></trkpt><trkpt lat="45.96984" lon="10.304036"><time>2025-04-28T05:57:47.000Z</time><ele>430.6</ele></trkpt><trkpt lat="45.96984" lon="10.304019"><time>2025-04-28T05:57:48.000Z</time><ele>430.8</ele></trkpt><trkpt lat="45.969842" lon="10.304003"><time>2025-04-28T05:57:49.000Z</time><ele>431</ele></trkpt><trkpt lat="45.969841" lon="10.303987"><time>2025-04-28T05:57:50.000Z</time><ele>431</ele></trkpt><trkpt lat="45.969838" lon="10.30397"><time>2025-04-28T05:57:51.000Z</time><ele>431.2</ele></trkpt><trkpt lat="45.969836" lon="10.30395"><time>2025-04-28T05:57:52.000Z</time><ele>431.2</ele></trkpt><trkpt lat="45.969835" lon="10.303937"><time>2025-04-28T05:57:53.000Z</time><ele>431.4</ele></trkpt><trkpt lat="45.969832" lon="10.303919"><time>2025-04-28T05:57:54.000Z</time><ele>431.6</ele></trkpt><trkpt lat="45.969827" lon="10.303906"><time>2025-04-28T05:57:55.000Z</time><ele>431.8</ele></trkpt><trkpt lat="45.969825" lon="10.30389"><time>2025-04-28T05:57:56.000Z</time><ele>431.8</ele></trkpt><trkpt lat="45.969825" lon="10.303873"><time>2025-04-28T05:57:57.000Z</time><ele>432</ele></trkpt><trkpt lat="45.969821" lon="10.30386"><time>2025-04-28T05:57:58.000Z</time><ele>432.2</ele></trkpt><trkpt lat="45.969819" lon="10.303845"><time>2025-04-28T05:57:59.000Z</time><ele>432.6</ele></trkpt><trkpt lat="45.969821" lon="10.30383"><time>2025-04-28T05:58:00.000Z</time><ele>432.6</ele></trkpt><trkpt lat="45.969825" lon="10.303813"><time>2025-04-28T05:58:01.000Z</time><ele>432.8</ele></trkpt><trkpt lat="45.969828" lon="10.303795"><time>2025-04-28T05:58:02.000Z</time><ele>433</ele></trkpt><trkpt lat="45.969824" lon="10.30378"><time>2025-04-28T05:58:03.000Z</time><ele>433.2</ele></trkpt><trkpt lat="45.969823" lon="10.303765"><time>2025-04-28T05:58:04.000Z</time><ele>433.4</ele></trkpt><trkpt lat="45.969823" lon="10.303749"><time>2025-04-28T05:58:05.000Z</time><ele>433.4</ele></trkpt><trkpt lat="45.969822" lon="10.303732"><time>2025-04-28T05:58:06.000Z</time><ele>433.4</ele></trkpt><trkpt lat="45.969822" lon="10.303712"><time>2025-04-28T05:58:07.000Z</time><ele>433.8</ele></trkpt><trkpt lat="45.969817" lon="10.303696"><time>2025-04-28T05:58:08.000Z</time><ele>434</ele></trkpt><trkpt lat="45.969812" lon="10.30368"><time>2025-04-28T05:58:09.000Z</time><ele>434.2</ele></trkpt><trkpt lat="45.969809" lon="10.303661"><time>2025-04-28T05:58:10.000Z</time><ele>434.2</ele></trkpt><trkpt lat="45.969803" lon="10.303642"><time>2025-04-28T05:58:11.000Z</time><ele>434.2</ele></trkpt><trkpt lat="45.969801" lon="10.303627"><time>2025-04-28T05:58:12.000Z</time><ele>434.4</ele></trkpt><trkpt lat="45.969801" lon="10.303613"><time>2025-04-28T05:58:13.000Z</time><ele>434.6</ele></trkpt><trkpt lat="45.9698" lon="10.303596"><time>2025-04-28T05:58:14.000Z</time><ele>434.6</ele></trkpt><trkpt lat="45.969797" lon="10.303582"><time>2025-04-28T05:58:15.000Z</time><ele>434.6</ele></trkpt><trkpt lat="45.969793" lon="10.303569"><time>2025-04-28T05:58:16.000Z</time><ele>434.8</ele></trkpt><trkpt lat="45.969791" lon="10.303551"><time>2025-04-28T05:58:17.000Z</time><ele>435</ele></trkpt><trkpt lat="45.969795" lon="10.303535"><time>2025-04-28T05:58:18.000Z</time><ele>435</ele></trkpt><trkpt lat="45.969797" lon="10.303519"><time>2025-04-28T05:58:19.000Z</time><ele>435.2</ele></trkpt><trkpt lat="45.969798" lon="10.303505"><time>2025-04-28T05:58:20.000Z</time><ele>435.2</ele></trkpt><trkpt lat="45.969799" lon="10.303489"><time>2025-04-28T05:58:21.000Z</time><ele>435.2</ele></trkpt><trkpt lat="45.969797" lon="10.303474"><time>2025-04-28T05:58:22.000Z</time><ele>435.4</ele></trkpt><trkpt lat="45.969794" lon="10.303458"><time>2025-04-28T05:58:23.000Z</time><ele>435.4</ele></trkpt><trkpt lat="45.969794" lon="10.303444"><time>2025-04-28T05:58:24.000Z</time><ele>435.6</ele></trkpt><trkpt lat="45.969794" lon="10.303428"><time>2025-04-28T05:58:25.000Z</time><ele>435.6</ele></trkpt><trkpt lat="45.969791" lon="10.30341"><time>2025-04-28T05:58:26.000Z</time><ele>435.8</ele></trkpt><trkpt lat="45.969786" lon="10.303396"><time>2025-04-28T05:58:27.000Z</time><ele>435.8</ele></trkpt><trkpt lat="45.969778" lon="10.303384"><time>2025-04-28T05:58:28.000Z</time><ele>436</ele></trkpt><trkpt lat="45.969769" lon="10.303372"><time>2025-04-28T05:58:29.000Z</time><ele>436</ele></trkpt><trkpt lat="45.969763" lon="10.303359"><time>2025-04-28T05:58:30.000Z</time><ele>436.2</ele></trkpt><trkpt lat="45.969758" lon="10.30335"><time>2025-04-28T05:58:31.000Z</time><ele>436.4</ele></trkpt><trkpt lat="45.969751" lon="10.303338"><time>2025-04-28T05:58:32.000Z</time><ele>436.6</ele></trkpt><trkpt lat="45.969746" lon="10.303326"><time>2025-04-28T05:58:33.000Z</time><ele>436.6</ele></trkpt><trkpt lat="45.969741" lon="10.303311"><time>2025-04-28T05:58:34.000Z</time><ele>436.8</ele></trkpt><trkpt lat="45.969733" lon="10.303293"><time>2025-04-28T05:58:35.000Z</time><ele>436.8</ele></trkpt><trkpt lat="45.96973" lon="10.303281"><time>2025-04-28T05:58:36.000Z</time><ele>437</ele></trkpt><trkpt lat="45.96972" lon="10.303272"><time>2025-04-28T05:58:37.000Z</time><ele>437.2</ele></trkpt><trkpt lat="45.969712" lon="10.303257"><time>2025-04-28T05:58:38.000Z</time><ele>437.4</ele></trkpt><trkpt lat="45.969704" lon="10.303245"><time>2025-04-28T05:58:39.000Z</time><ele>437.4</ele></trkpt><trkpt lat="45.969701" lon="10.303229"><time>2025-04-28T05:58:40.000Z</time><ele>437.6</ele></trkpt><trkpt lat="45.969702" lon="10.303211"><time>2025-04-28T05:58:41.000Z</time><ele>437.8</ele></trkpt><trkpt lat="45.969701" lon="10.303197"><time>2025-04-28T05:58:42.000Z</time><ele>438</ele></trkpt><trkpt lat="45.9697" lon="10.303183"><time>2025-04-28T05:58:43.000Z</time><ele>438</ele></trkpt><trkpt lat="45.9697" lon="10.303166"><time>2025-04-28T05:58:44.000Z</time><ele>438.2</ele></trkpt><trkpt lat="45.969698" lon="10.303152"><time>2025-04-28T05:58:45.000Z</time><ele>438.4</ele></trkpt><trkpt lat="45.9697" lon="10.303136"><time>2025-04-28T05:58:46.000Z</time><ele>438.4</ele></trkpt><trkpt lat="45.969703" lon="10.303116"><time>2025-04-28T05:58:47.000Z</time><ele>438.4</ele></trkpt><trkpt lat="45.969708" lon="10.303102"><time>2025-04-28T05:58:48.000Z</time><ele>438.8</ele></trkpt><trkpt lat="45.969708" lon="10.303089"><time>2025-04-28T05:58:49.000Z</time><ele>439</ele></trkpt><trkpt lat="45.969708" lon="10.303079"><time>2025-04-28T05:58:50.000Z</time><ele>439</ele></trkpt><trkpt lat="45.969699" lon="10.303065"><time>2025-04-28T05:58:51.000Z</time><ele>439.2</ele></trkpt><trkpt lat="45.969696" lon="10.303048"><time>2025-04-28T05:58:52.000Z</time><ele>439.2</ele></trkpt><trkpt lat="45.969695" lon="10.303032"><time>2025-04-28T05:58:53.000Z</time><ele>439.4</ele></trkpt><trkpt lat="45.969696" lon="10.303017"><time>2025-04-28T05:58:54.000Z</time><ele>439.8</ele></trkpt><trkpt lat="45.969694" lon="10.303002"><time>2025-04-28T05:58:55.000Z</time><ele>439.8</ele></trkpt><trkpt lat="45.969696" lon="10.302984"><time>2025-04-28T05:58:56.000Z</time><ele>440</ele></trkpt><trkpt lat="45.969703" lon="10.302959"><time>2025-04-28T05:58:57.000Z</time><ele>440.2</ele></trkpt><trkpt lat="45.969705" lon="10.302945"><time>2025-04-28T05:58:58.000Z</time><ele>440.2</ele></trkpt><trkpt lat="45.969699" lon="10.302926"><time>2025-04-28T05:58:59.000Z</time><ele>440.2</ele></trkpt><trkpt lat="45.9697" lon="10.302915"><time>2025-04-28T05:59:00.000Z</time><ele>440</ele></trkpt><trkpt lat="45.969695" lon="10.302906"><time>2025-04-28T05:59:01.000Z</time><ele>440</ele></trkpt><trkpt lat="45.969695" lon="10.3029"><time>2025-04-28T05:59:02.000Z</time><ele>440</ele></trkpt><trkpt lat="45.969698" lon="10.302902"><time>2025-04-28T05:59:03.000Z</time><ele>440</ele></trkpt><trkpt lat="45.969702" lon="10.302903"><time>2025-04-28T05:59:04.000Z</time><ele>440</ele></trkpt><trkpt lat="45.969702" lon="10.302907"><time>2025-04-28T05:59:05.000Z</time><ele>439.8</ele></trkpt><trkpt lat="45.969704" lon="10.302916"><time>2025-04-28T05:59:06.000Z</time><ele>439.8</ele></trkpt><trkpt lat="45.969702" lon="10.302923"><time>2025-04-28T05:59:07.000Z</time><ele>439.8</ele></trkpt><trkpt lat="45.969706" lon="10.302926"><time>2025-04-28T05:59:08.000Z</time><ele>439.8</ele></trkpt><trkpt lat="45.969719" lon="10.30292"><time>2025-04-28T05:59:09.000Z</time><ele>439.8</ele></trkpt><trkpt lat="45.969721" lon="10.302916"><time>2025-04-28T05:59:10.000Z</time><ele>439.8</ele></trkpt><trkpt lat="45.96972" lon="10.302906"><time>2025-04-28T05:59:11.000Z</time><ele>439.8</ele></trkpt><trkpt lat="45.96972" lon="10.302902"><time>2025-04-28T05:59:12.000Z</time><ele>439.8</ele></trkpt><trkpt lat="45.969714" lon="10.302897"><time>2025-04-28T05:59:13.000Z</time><ele>440</ele></trkpt><trkpt lat="45.96971" lon="10.302896"><time>2025-04-28T05:59:14.000Z</time><ele>440</ele></trkpt><trkpt lat="45.969708" lon="10.302893"><time>2025-04-28T05:59:15.000Z</time><ele>440</ele></trkpt><trkpt lat="45.969708" lon="10.302893"><time>2025-04-28T05:59:16.000Z</time><ele>439.8</ele></trkpt><trkpt lat="45.969708" lon="10.302893"><time>2025-04-28T05:59:17.000Z</time><ele>439.6</ele></trkpt><trkpt lat="45.969708" lon="10.302893"><time>2025-04-28T05:59:18.000Z</time><ele>439.6</ele></trkpt><trkpt lat="45.969708" lon="10.302893"><time>2025-04-28T05:59:19.000Z</time><ele>439.6</ele></trkpt><trkpt lat="45.969708" lon="10.302893"><time>2025-04-28T05:59:20.000Z</time><ele>439.4</ele></trkpt><trkpt lat="45.969708" lon="10.302893"><time>2025-04-28T05:59:21.000Z</time><ele>439.4</ele></trkpt><trkpt lat="45.969703" lon="10.302894"><time>2025-04-28T05:59:22.000Z</time><ele>439.2</ele></trkpt><trkpt lat="45.96969" lon="10.302896"><time>2025-04-28T05:59:23.000Z</time><ele>439</ele></trkpt><trkpt lat="45.969678" lon="10.302901"><time>2025-04-28T05:59:24.000Z</time><ele>439</ele></trkpt><trkpt lat="45.969662" lon="10.302906"><time>2025-04-28T05:59:25.000Z</time><ele>438.8</ele></trkpt><trkpt lat="45.969645" lon="10.302905"><time>2025-04-28T05:59:26.000Z</time><ele>438.6</ele></trkpt><trkpt lat="45.969626" lon="10.302898"><time>2025-04-28T05:59:27.000Z</time><ele>438.6</ele></trkpt><trkpt lat="45.969604" lon="10.302891"><time>2025-04-28T05:59:28.000Z</time><ele>438.6</ele></trkpt><trkpt lat="45.969582" lon="10.302884"><time>2025-04-28T05:59:29.000Z</time><ele>438.6</ele></trkpt><trkpt lat="45.969556" lon="10.302878"><time>2025-04-28T05:59:30.000Z</time><ele>438.4</ele></trkpt><trkpt lat="45.969537" lon="10.302881"><time>2025-04-28T05:59:31.000Z</time><ele>438.4</ele></trkpt><trkpt lat="45.969526" lon="10.30289"><time>2025-04-28T05:59:32.000Z</time><ele>438.4</ele></trkpt><trkpt lat="45.969518" lon="10.302901"><time>2025-04-28T05:59:33.000Z</time><ele>438.4</ele></trkpt><trkpt lat="45.969509" lon="10.302919"><time>2025-04-28T05:59:34.000Z</time><ele>438.2</ele></trkpt><trkpt lat="45.969497" lon="10.302934"><time>2025-04-28T05:59:35.000Z</time><ele>438.2</ele></trkpt><trkpt lat="45.969495" lon="10.302935"><time>2025-04-28T05:59:36.000Z</time><ele>438.2</ele></trkpt><trkpt lat="45.9695" lon="10.302938"><time>2025-04-28T05:59:37.000Z</time><ele>438.2</ele></trkpt><trkpt lat="45.969501" lon="10.302938"><time>2025-04-28T05:59:38.000Z</time><ele>438.2</ele></trkpt><trkpt lat="45.9695" lon="10.302936"><time>2025-04-28T05:59:39.000Z</time><ele>438.2</ele></trkpt><trkpt lat="45.969501" lon="10.302938"><time>2025-04-28T05:59:40.000Z</time><ele>438.2</ele></trkpt><trkpt lat="45.969502" lon="10.30294"><time>2025-04-28T05:59:41.000Z</time><ele>438.2</ele></trkpt><trkpt lat="45.969494" lon="10.302935"><time>2025-04-28T05:59:42.000Z</time><ele>438.2</ele></trkpt><trkpt lat="45.969485" lon="10.30294"><time>2025-04-28T05:59:43.000Z</time><ele>438.2</ele></trkpt><trkpt lat="45.969482" lon="10.302943"><time>2025-04-28T05:59:44.000Z</time><ele>438.2</ele></trkpt><trkpt lat="45.969485" lon="10.302947"><time>2025-04-28T05:59:45.000Z</time><ele>438.2</ele></trkpt><trkpt lat="45.969496" lon="10.302951"><time>2025-04-28T05:59:46.000Z</time><ele>438.2</ele></trkpt><trkpt lat="45.969503" lon="10.302944"><time>2025-04-28T05:59:47.000Z</time><ele>438.2</ele></trkpt><trkpt lat="45.96951" lon="10.302932"><time>2025-04-28T05:59:48.000Z</time><ele>438.2</ele></trkpt><trkpt lat="45.969506" lon="10.302942"><time>2025-04-28T05:59:49.000Z</time><ele>438.2</ele></trkpt><trkpt lat="45.969501" lon="10.302952"><time>2025-04-28T05:59:50.000Z</time><ele>438.2</ele></trkpt><trkpt lat="45.9695" lon="10.302953"><time>2025-04-28T05:59:51.000Z</time><ele>438.2</ele></trkpt><trkpt lat="45.9695" lon="10.302953"><time>2025-04-28T05:59:52.000Z</time><ele>438.2</ele></trkpt><trkpt lat="45.969498" lon="10.302954"><time>2025-04-28T05:59:53.000Z</time><ele>438</ele></trkpt><trkpt lat="45.969498" lon="10.302956"><time>2025-04-28T05:59:54.000Z</time><ele>437.8</ele></trkpt><trkpt lat="45.969499" lon="10.302958"><time>2025-04-28T05:59:55.000Z</time><ele>437.8</ele></trkpt><trkpt lat="45.969499" lon="10.302955"><time>2025-04-28T05:59:56.000Z</time><ele>437.8</ele></trkpt><trkpt lat="45.969499" lon="10.302952"><time>2025-04-28T05:59:57.000Z</time><ele>437.8</ele></trkpt><trkpt lat="45.969497" lon="10.302957"><time>2025-04-28T05:59:58.000Z</time><ele>437.8</ele></trkpt><trkpt lat="45.969492" lon="10.302953"><time>2025-04-28T05:59:59.000Z</time><ele>437.8</ele></trkpt><trkpt lat="45.969487" lon="10.302956"><time>2025-04-28T06:00:00.000Z</time><ele>437.8</ele></trkpt><trkpt lat="45.969479" lon="10.302968"><time>2025-04-28T06:00:01.000Z</time><ele>437.8</ele></trkpt><trkpt lat="45.969478" lon="10.302969"><time>2025-04-28T06:00:02.000Z</time><ele>437.8</ele></trkpt><trkpt lat="45.969478" lon="10.302981"><time>2025-04-28T06:00:03.000Z</time><ele>437.8</ele></trkpt><trkpt lat="45.969479" lon="10.302987"><time>2025-04-28T06:00:04.000Z</time><ele>437.8</ele></trkpt><trkpt lat="45.969481" lon="10.302987"><time>2025-04-28T06:00:05.000Z</time><ele>437.8</ele></trkpt><trkpt lat="45.969484" lon="10.302992"><time>2025-04-28T06:00:06.000Z</time><ele>437.8</ele></trkpt><trkpt lat="45.969489" lon="10.302995"><time>2025-04-28T06:00:07.000Z</time><ele>437.8</ele></trkpt><trkpt lat="45.969489" lon="10.302995"><time>2025-04-28T06:00:08.000Z</time><ele>437.8</ele></trkpt><trkpt lat="45.969489" lon="10.302994"><time>2025-04-28T06:00:09.000Z</time><ele>438</ele></trkpt><trkpt lat="45.969489" lon="10.302989"><time>2025-04-28T06:00:10.000Z</time><ele>438</ele></trkpt><trkpt lat="45.969488" lon="10.302982"><time>2025-04-28T06:00:11.000Z</time><ele>438</ele></trkpt><trkpt lat="45.96949" lon="10.302983"><time>2025-04-28T06:00:12.000Z</time><ele>437.8</ele></trkpt><trkpt lat="45.969491" lon="10.302981"><time>2025-04-28T06:00:13.000Z</time><ele>437.8</ele></trkpt><trkpt lat="45.969493" lon="10.302982"><time>2025-04-28T06:00:14.000Z</time><ele>437.8</ele></trkpt><trkpt lat="45.969488" lon="10.302976"><time>2025-04-28T06:00:15.000Z</time><ele>437.8</ele></trkpt><trkpt lat="45.969489" lon="10.302975"><time>2025-04-28T06:00:16.000Z</time><ele>437.8</ele></trkpt><trkpt lat="45.969492" lon="10.302976"><time>2025-04-28T06:00:17.000Z</time><ele>437.8</ele></trkpt><trkpt lat="45.969495" lon="10.302975"><time>2025-04-28T06:00:18.000Z</time><ele>437.8</ele></trkpt><trkpt lat="45.969499" lon="10.302969"><time>2025-04-28T06:00:19.000Z</time><ele>437.6</ele></trkpt><trkpt lat="45.969498" lon="10.302956"><time>2025-04-28T06:00:20.000Z</time><ele>438.2</ele></trkpt><trkpt lat="45.969498" lon="10.30295"><time>2025-04-28T06:00:21.000Z</time><ele>438.2</ele></trkpt><trkpt lat="45.9695" lon="10.302948"><time>2025-04-28T06:00:22.000Z</time><ele>438.2</ele></trkpt><trkpt lat="45.969497" lon="10.302948"><time>2025-04-28T06:00:23.000Z</time><ele>438</ele></trkpt><trkpt lat="45.969503" lon="10.302951"><time>2025-04-28T06:00:24.000Z</time><ele>437.8</ele></trkpt><trkpt lat="45.969511" lon="10.302955"><time>2025-04-28T06:00:25.000Z</time><ele>437.6</ele></trkpt><trkpt lat="45.969524" lon="10.302957"><time>2025-04-28T06:00:26.000Z</time><ele>437.6</ele></trkpt><trkpt lat="45.969526" lon="10.302955"><time>2025-04-28T06:00:27.000Z</time><ele>437.6</ele></trkpt><trkpt lat="45.969531" lon="10.302954"><time>2025-04-28T06:00:28.000Z</time><ele>437.6</ele></trkpt><trkpt lat="45.969537" lon="10.302955"><time>2025-04-28T06:00:29.000Z</time><ele>437.6</ele></trkpt><trkpt lat="45.969534" lon="10.302955"><time>2025-04-28T06:00:30.000Z</time><ele>437.6</ele></trkpt><trkpt lat="45.969531" lon="10.302957"><time>2025-04-28T06:00:31.000Z</time><ele>437.6</ele></trkpt><trkpt lat="45.969536" lon="10.302953"><time>2025-04-28T06:00:32.000Z</time><ele>437.6</ele></trkpt><trkpt lat="45.969534" lon="10.302952"><time>2025-04-28T06:00:33.000Z</time><ele>437.4</ele></trkpt><trkpt lat="45.969534" lon="10.302952"><time>2025-04-28T06:00:34.000Z</time><ele>437.4</ele></trkpt><trkpt lat="45.969533" lon="10.302947"><time>2025-04-28T06:00:35.000Z</time><ele>437.4</ele></trkpt><trkpt lat="45.969541" lon="10.30294"><time>2025-04-28T06:00:36.000Z</time><ele>437.4</ele></trkpt><trkpt lat="45.969543" lon="10.302934"><time>2025-04-28T06:00:37.000Z</time><ele>437.4</ele></trkpt><trkpt lat="45.969546" lon="10.302932"><time>2025-04-28T06:00:38.000Z</time><ele>437.2</ele></trkpt><trkpt lat="45.969552" lon="10.302926"><time>2025-04-28T06:00:39.000Z</time><ele>437.2</ele></trkpt><trkpt lat="45.969549" lon="10.302924"><time>2025-04-28T06:00:40.000Z</time><ele>437.4</ele></trkpt><trkpt lat="45.969545" lon="10.302919"><time>2025-04-28T06:00:41.000Z</time><ele>437.4</ele></trkpt><trkpt lat="45.969544" lon="10.302911"><time>2025-04-28T06:00:42.000Z</time><ele>437.4</ele></trkpt><trkpt lat="45.969542" lon="10.302906"><time>2025-04-28T06:00:43.000Z</time><ele>437.6</ele></trkpt><trkpt lat="45.969536" lon="10.302909"><time>2025-04-28T06:00:44.000Z</time><ele>437.6</ele></trkpt><trkpt lat="45.969538" lon="10.302914"><time>2025-04-28T06:00:45.000Z</time><ele>437.6</ele></trkpt><trkpt lat="45.969537" lon="10.302913"><time>2025-04-28T06:00:46.000Z</time><ele>437.6</ele></trkpt><trkpt lat="45.969537" lon="10.302912"><time>2025-04-28T06:00:47.000Z</time><ele>437.6</ele></trkpt><trkpt lat="45.969538" lon="10.302913"><time>2025-04-28T06:00:48.000Z</time><ele>437.6</ele></trkpt><trkpt lat="45.969539" lon="10.302909"><time>2025-04-28T06:00:49.000Z</time><ele>437.6</ele></trkpt><trkpt lat="45.96954" lon="10.302908"><time>2025-04-28T06:00:50.000Z</time><ele>437.6</ele></trkpt><trkpt lat="45.969539" lon="10.302907"><time>2025-04-28T06:00:51.000Z</time><ele>437.8</ele></trkpt><trkpt lat="45.969539" lon="10.302906"><time>2025-04-28T06:00:52.000Z</time><ele>437.8</ele></trkpt><trkpt lat="45.969534" lon="10.302915"><time>2025-04-28T06:00:53.000Z</time><ele>437.8</ele></trkpt><trkpt lat="45.969535" lon="10.302912"><time>2025-04-28T06:00:54.000Z</time><ele>437.8</ele></trkpt><trkpt lat="45.969535" lon="10.302911"><time>2025-04-28T06:00:55.000Z</time><ele>437.6</ele></trkpt><trkpt lat="45.969534" lon="10.302908"><time>2025-04-28T06:00:56.000Z</time><ele>437.6</ele></trkpt><trkpt lat="45.969533" lon="10.302907"><time>2025-04-28T06:00:57.000Z</time><ele>437.6</ele></trkpt><trkpt lat="45.969533" lon="10.302907"><time>2025-04-28T06:00:58.000Z</time><ele>437.6</ele></trkpt><trkpt lat="45.96953" lon="10.302909"><time>2025-04-28T06:00:59.000Z</time><ele>437.6</ele></trkpt><trkpt lat="45.969536" lon="10.302912"><time>2025-04-28T06:01:00.000Z</time><ele>437.6</ele></trkpt><trkpt lat="45.969536" lon="10.302921"><time>2025-04-28T06:01:01.000Z</time><ele>437.6</ele></trkpt><trkpt lat="45.969535" lon="10.302922"><time>2025-04-28T06:01:02.000Z</time><ele>437.6</ele></trkpt><trkpt lat="45.969535" lon="10.302923"><time>2025-04-28T06:01:03.000Z</time><ele>437.8</ele></trkpt><trkpt lat="45.969535" lon="10.302917"><time>2025-04-28T06:01:04.000Z</time><ele>437.8</ele></trkpt><trkpt lat="45.969538" lon="10.302916"><time>2025-04-28T06:01:05.000Z</time><ele>437.8</ele></trkpt><trkpt lat="45.969539" lon="10.302912"><time>2025-04-28T06:01:06.000Z</time><ele>438</ele></trkpt><trkpt lat="45.969539" lon="10.302904"><time>2025-04-28T06:01:07.000Z</time><ele>438</ele></trkpt><trkpt lat="45.969541" lon="10.302895"><time>2025-04-28T06:01:08.000Z</time><ele>438</ele></trkpt><trkpt lat="45.969549" lon="10.302894"><time>2025-04-28T06:01:09.000Z</time><ele>438</ele></trkpt><trkpt lat="45.96955" lon="10.302895"><time>2025-04-28T06:01:10.000Z</time><ele>438</ele></trkpt><trkpt lat="45.969551" lon="10.302893"><time>2025-04-28T06:01:11.000Z</time><ele>438</ele></trkpt><trkpt lat="45.96955" lon="10.302893"><time>2025-04-28T06:01:12.000Z</time><ele>438</ele></trkpt><trkpt lat="45.969549" lon="10.302895"><time>2025-04-28T06:01:13.000Z</time><ele>438</ele></trkpt><trkpt lat="45.969548" lon="10.302895"><time>2025-04-28T06:01:14.000Z</time><ele>438</ele></trkpt><trkpt lat="45.969551" lon="10.302894"><time>2025-04-28T06:01:15.000Z</time><ele>438</ele></trkpt><trkpt lat="45.969552" lon="10.302891"><time>2025-04-28T06:01:16.000Z</time><ele>438</ele></trkpt><trkpt lat="45.969548" lon="10.302891"><time>2025-04-28T06:01:17.000Z</time><ele>438</ele></trkpt><trkpt lat="45.969545" lon="10.302893"><time>2025-04-28T06:01:18.000Z</time><ele>438</ele></trkpt><trkpt lat="45.96955" lon="10.302899"><time>2025-04-28T06:01:19.000Z</time><ele>438</ele></trkpt><trkpt lat="45.969553" lon="10.302903"><time>2025-04-28T06:01:20.000Z</time><ele>438</ele></trkpt><trkpt lat="45.969558" lon="10.302913"><time>2025-04-28T06:01:21.000Z</time><ele>438</ele></trkpt><trkpt lat="45.96956" lon="10.302919"><time>2025-04-28T06:01:22.000Z</time><ele>437.8</ele></trkpt><trkpt lat="45.969561" lon="10.302919"><time>2025-04-28T06:01:23.000Z</time><ele>437.8</ele></trkpt><trkpt lat="45.969563" lon="10.302918"><time>2025-04-28T06:01:24.000Z</time><ele>437.8</ele></trkpt><trkpt lat="45.969577" lon="10.302922"><time>2025-04-28T06:01:25.000Z</time><ele>437.8</ele></trkpt><trkpt lat="45.969581" lon="10.302921"><time>2025-04-28T06:01:26.000Z</time><ele>437.8</ele></trkpt><trkpt lat="45.969574" lon="10.302921"><time>2025-04-28T06:01:27.000Z</time><ele>437.8</ele></trkpt><trkpt lat="45.969567" lon="10.302915"><time>2025-04-28T06:01:28.000Z</time><ele>437.8</ele></trkpt><trkpt lat="45.969562" lon="10.30292"><time>2025-04-28T06:01:29.000Z</time><ele>437.8</ele></trkpt><trkpt lat="45.969553" lon="10.302925"><time>2025-04-28T06:01:30.000Z</time><ele>437.8</ele></trkpt><trkpt lat="45.969551" lon="10.30292"><time>2025-04-28T06:01:31.000Z</time><ele>437.8</ele></trkpt><trkpt lat="45.969539" lon="10.302916"><time>2025-04-28T06:01:32.000Z</time><ele>437.8</ele></trkpt><trkpt lat="45.969524" lon="10.302917"><time>2025-04-28T06:01:33.000Z</time><ele>438</ele></trkpt><trkpt lat="45.969509" lon="10.302935"><time>2025-04-28T06:01:34.000Z</time><ele>438</ele></trkpt><trkpt lat="45.969497" lon="10.302951"><time>2025-04-28T06:01:35.000Z</time><ele>438</ele></trkpt><trkpt lat="45.969486" lon="10.302964"><time>2025-04-28T06:01:36.000Z</time><ele>438</ele></trkpt><trkpt lat="45.969476" lon="10.302973"><time>2025-04-28T06:01:37.000Z</time><ele>437.8</ele></trkpt><trkpt lat="45.969466" lon="10.302984"><time>2025-04-28T06:01:38.000Z</time><ele>437.8</ele></trkpt><trkpt lat="45.969455" lon="10.302997"><time>2025-04-28T06:01:39.000Z</time><ele>437.8</ele></trkpt><trkpt lat="45.969446" lon="10.303007"><time>2025-04-28T06:01:40.000Z</time><ele>438.2</ele></trkpt><trkpt lat="45.969444" lon="10.303019"><time>2025-04-28T06:01:41.000Z</time><ele>438.2</ele></trkpt><trkpt lat="45.969438" lon="10.303022"><time>2025-04-28T06:01:42.000Z</time><ele>438.4</ele></trkpt><trkpt lat="45.96943" lon="10.303033"><time>2025-04-28T06:01:43.000Z</time><ele>438.4</ele></trkpt><trkpt lat="45.969417" lon="10.303039"><time>2025-04-28T06:01:44.000Z</time><ele>438.4</ele></trkpt><trkpt lat="45.969406" lon="10.303048"><time>2025-04-28T06:01:45.000Z</time><ele>438.4</ele></trkpt><trkpt lat="45.969402" lon="10.303047"><time>2025-04-28T06:01:46.000Z</time><ele>438.2</ele></trkpt><trkpt lat="45.969405" lon="10.303051"><time>2025-04-28T06:01:47.000Z</time><ele>438</ele></trkpt><trkpt lat="45.969419" lon="10.303063"><time>2025-04-28T06:01:48.000Z</time><ele>438</ele></trkpt><trkpt lat="45.969421" lon="10.303078"><time>2025-04-28T06:01:49.000Z</time><ele>438</ele></trkpt><trkpt lat="45.969423" lon="10.303075"><time>2025-04-28T06:01:50.000Z</time><ele>438</ele></trkpt><trkpt lat="45.969425" lon="10.303068"><time>2025-04-28T06:01:51.000Z</time><ele>438.2</ele></trkpt><trkpt lat="45.969423" lon="10.303061"><time>2025-04-28T06:01:52.000Z</time><ele>438.2</ele></trkpt><trkpt lat="45.969422" lon="10.303056"><time>2025-04-28T06:01:53.000Z</time><ele>438.4</ele></trkpt><trkpt lat="45.969422" lon="10.303053"><time>2025-04-28T06:01:54.000Z</time><ele>438.4</ele></trkpt><trkpt lat="45.969422" lon="10.303051"><time>2025-04-28T06:01:55.000Z</time><ele>438.4</ele></trkpt><trkpt lat="45.96942" lon="10.303054"><time>2025-04-28T06:01:56.000Z</time><ele>438.4</ele></trkpt><trkpt lat="45.969416" lon="10.303058"><time>2025-04-28T06:01:57.000Z</time><ele>438.4</ele></trkpt><trkpt lat="45.96941" lon="10.303053"><time>2025-04-28T06:01:58.000Z</time><ele>438.4</ele></trkpt><trkpt lat="45.969411" lon="10.303055"><time>2025-04-28T06:01:59.000Z</time><ele>438.4</ele></trkpt><trkpt lat="45.969401" lon="10.303051"><time>2025-04-28T06:02:00.000Z</time><ele>438.4</ele></trkpt><trkpt lat="45.969401" lon="10.303045"><time>2025-04-28T06:02:01.000Z</time><ele>438.2</ele></trkpt><trkpt lat="45.969381" lon="10.303061"><time>2025-04-28T06:02:02.000Z</time><ele>438</ele></trkpt><trkpt lat="45.969364" lon="10.303073"><time>2025-04-28T06:02:03.000Z</time><ele>437.8</ele></trkpt><trkpt lat="45.969343" lon="10.303085"><time>2025-04-28T06:02:04.000Z</time><ele>437.6</ele></trkpt><trkpt lat="45.969328" lon="10.303103"><time>2025-04-28T06:02:05.000Z</time><ele>437.4</ele></trkpt><trkpt lat="45.969315" lon="10.303126"><time>2025-04-28T06:02:06.000Z</time><ele>437.2</ele></trkpt><trkpt lat="45.969303" lon="10.303142"><time>2025-04-28T06:02:07.000Z</time><ele>437</ele></trkpt><trkpt lat="45.969295" lon="10.303154"><time>2025-04-28T06:02:08.000Z</time><ele>436.8</ele></trkpt><trkpt lat="45.969283" lon="10.303161"><time>2025-04-28T06:02:09.000Z</time><ele>436.6</ele></trkpt><trkpt lat="45.969264" lon="10.30317"><time>2025-04-28T06:02:10.000Z</time><ele>436.4</ele></trkpt><trkpt lat="45.969238" lon="10.303192"><time>2025-04-28T06:02:11.000Z</time><ele>436.2</ele></trkpt><trkpt lat="45.969219" lon="10.303202"><time>2025-04-28T06:02:12.000Z</time><ele>436.2</ele></trkpt><trkpt lat="45.969198" lon="10.303208"><time>2025-04-28T06:02:13.000Z</time><ele>436</ele></trkpt><trkpt lat="45.969181" lon="10.303216"><time>2025-04-28T06:02:14.000Z</time><ele>436</ele></trkpt><trkpt lat="45.969169" lon="10.303223"><time>2025-04-28T06:02:15.000Z</time><ele>435.8</ele></trkpt><trkpt lat="45.969161" lon="10.30323"><time>2025-04-28T06:02:16.000Z</time><ele>435.6</ele></trkpt><trkpt lat="45.969153" lon="10.303235"><time>2025-04-28T06:02:17.000Z</time><ele>435.6</ele></trkpt><trkpt lat="45.969143" lon="10.303239"><time>2025-04-28T06:02:18.000Z</time><ele>435.4</ele></trkpt><trkpt lat="45.969131" lon="10.303245"><time>2025-04-28T06:02:19.000Z</time><ele>435.2</ele></trkpt><trkpt lat="45.96912" lon="10.303249"><time>2025-04-28T06:02:20.000Z</time><ele>435.2</ele></trkpt><trkpt lat="45.969107" lon="10.303252"><time>2025-04-28T06:02:21.000Z</time><ele>435.2</ele></trkpt><trkpt lat="45.969094" lon="10.303256"><time>2025-04-28T06:02:22.000Z</time><ele>435</ele></trkpt><trkpt lat="45.969082" lon="10.303262"><time>2025-04-28T06:02:23.000Z</time><ele>435</ele></trkpt><trkpt lat="45.969072" lon="10.303267"><time>2025-04-28T06:02:24.000Z</time><ele>435</ele></trkpt><trkpt lat="45.969065" lon="10.303272"><time>2025-04-28T06:02:25.000Z</time><ele>434.8</ele></trkpt><trkpt lat="45.969055" lon="10.303279"><time>2025-04-28T06:02:26.000Z</time><ele>434.8</ele></trkpt><trkpt lat="45.969045" lon="10.303284"><time>2025-04-28T06:02:27.000Z</time><ele>434.8</ele></trkpt><trkpt lat="45.969035" lon="10.30329"><time>2025-04-28T06:02:28.000Z</time><ele>434.8</ele></trkpt><trkpt lat="45.969026" lon="10.303297"><time>2025-04-28T06:02:29.000Z</time><ele>434.8</ele></trkpt><trkpt lat="45.969013" lon="10.303302"><time>2025-04-28T06:02:30.000Z</time><ele>434.8</ele></trkpt><trkpt lat="45.968997" lon="10.303308"><time>2025-04-28T06:02:31.000Z</time><ele>434.8</ele></trkpt><trkpt lat="45.968982" lon="10.303314"><time>2025-04-28T06:02:32.000Z</time><ele>434.8</ele></trkpt><trkpt lat="45.968971" lon="10.303322"><time>2025-04-28T06:02:33.000Z</time><ele>434.8</ele></trkpt><trkpt lat="45.968958" lon="10.303321"><time>2025-04-28T06:02:34.000Z</time><ele>434.8</ele></trkpt><trkpt lat="45.968944" lon="10.303311"><time>2025-04-28T06:02:35.000Z</time><ele>434.8</ele></trkpt><trkpt lat="45.968927" lon="10.303313"><time>2025-04-28T06:02:36.000Z</time><ele>435</ele></trkpt><trkpt lat="45.968913" lon="10.303316"><time>2025-04-28T06:02:37.000Z</time><ele>435.2</ele></trkpt><trkpt lat="45.968898" lon="10.303318"><time>2025-04-28T06:02:38.000Z</time><ele>435.2</ele></trkpt><trkpt lat="45.968886" lon="10.303317"><time>2025-04-28T06:02:39.000Z</time><ele>435.2</ele></trkpt><trkpt lat="45.968869" lon="10.303311"><time>2025-04-28T06:02:40.000Z</time><ele>435.4</ele></trkpt><trkpt lat="45.968858" lon="10.303319"><time>2025-04-28T06:02:41.000Z</time><ele>435.4</ele></trkpt><trkpt lat="45.968837" lon="10.303324"><time>2025-04-28T06:02:42.000Z</time><ele>435.4</ele></trkpt><trkpt lat="45.968821" lon="10.303333"><time>2025-04-28T06:02:43.000Z</time><ele>435.6</ele></trkpt><trkpt lat="45.968803" lon="10.303348"><time>2025-04-28T06:02:44.000Z</time><ele>435.6</ele></trkpt><trkpt lat="45.968783" lon="10.303357"><time>2025-04-28T06:02:45.000Z</time><ele>435.6</ele></trkpt><trkpt lat="45.968762" lon="10.303362"><time>2025-04-28T06:02:46.000Z</time><ele>435.8</ele></trkpt><trkpt lat="45.968743" lon="10.303363"><time>2025-04-28T06:02:47.000Z</time><ele>435.8</ele></trkpt><trkpt lat="45.968725" lon="10.303367"><time>2025-04-28T06:02:48.000Z</time><ele>435.8</ele></trkpt><trkpt lat="45.968712" lon="10.303373"><time>2025-04-28T06:02:49.000Z</time><ele>436</ele></trkpt><trkpt lat="45.968703" lon="10.303386"><time>2025-04-28T06:02:50.000Z</time><ele>436</ele></trkpt><trkpt lat="45.968695" lon="10.303405"><time>2025-04-28T06:02:51.000Z</time><ele>436</ele></trkpt><trkpt lat="45.968681" lon="10.303416"><time>2025-04-28T06:02:52.000Z</time><ele>436.2</ele></trkpt><trkpt lat="45.968669" lon="10.303421"><time>2025-04-28T06:02:53.000Z</time><ele>436.2</ele></trkpt><trkpt lat="45.968653" lon="10.303423"><time>2025-04-28T06:02:54.000Z</time><ele>436.2</ele></trkpt><trkpt lat="45.968642" lon="10.303426"><time>2025-04-28T06:02:55.000Z</time><ele>436.4</ele></trkpt><trkpt lat="45.968627" lon="10.303427"><time>2025-04-28T06:02:56.000Z</time><ele>436.4</ele></trkpt><trkpt lat="45.968607" lon="10.303428"><time>2025-04-28T06:02:57.000Z</time><ele>436.6</ele></trkpt><trkpt lat="45.968579" lon="10.303437"><time>2025-04-28T06:02:58.000Z</time><ele>436.6</ele></trkpt><trkpt lat="45.968565" lon="10.303438"><time>2025-04-28T06:02:59.000Z</time><ele>436.8</ele></trkpt><trkpt lat="45.968549" lon="10.303442"><time>2025-04-28T06:03:00.000Z</time><ele>436.8</ele></trkpt><trkpt lat="45.968535" lon="10.303446"><time>2025-04-28T06:03:01.000Z</time><ele>436.8</ele></trkpt><trkpt lat="45.968524" lon="10.303456"><time>2025-04-28T06:03:02.000Z</time><ele>436.8</ele></trkpt><trkpt lat="45.968514" lon="10.303461"><time>2025-04-28T06:03:03.000Z</time><ele>436.8</ele></trkpt><trkpt lat="45.968503" lon="10.303463"><time>2025-04-28T06:03:04.000Z</time><ele>437</ele></trkpt><trkpt lat="45.968487" lon="10.303465"><time>2025-04-28T06:03:05.000Z</time><ele>437</ele></trkpt><trkpt lat="45.968468" lon="10.303476"><time>2025-04-28T06:03:06.000Z</time><ele>437.2</ele></trkpt><trkpt lat="45.968451" lon="10.303482"><time>2025-04-28T06:03:07.000Z</time><ele>437.2</ele></trkpt><trkpt lat="45.968441" lon="10.303488"><time>2025-04-28T06:03:08.000Z</time><ele>437.4</ele></trkpt><trkpt lat="45.968432" lon="10.303492"><time>2025-04-28T06:03:09.000Z</time><ele>437.4</ele></trkpt><trkpt lat="45.968424" lon="10.303501"><time>2025-04-28T06:03:10.000Z</time><ele>437.6</ele></trkpt><trkpt lat="45.968417" lon="10.303504"><time>2025-04-28T06:03:11.000Z</time><ele>437.6</ele></trkpt><trkpt lat="45.968405" lon="10.303509"><time>2025-04-28T06:03:12.000Z</time><ele>437.6</ele></trkpt><trkpt lat="45.968396" lon="10.303513"><time>2025-04-28T06:03:13.000Z</time><ele>437.8</ele></trkpt><trkpt lat="45.968387" lon="10.303514"><time>2025-04-28T06:03:14.000Z</time><ele>437.8</ele></trkpt><trkpt lat="45.968374" lon="10.30352"><time>2025-04-28T06:03:15.000Z</time><ele>437.8</ele></trkpt><trkpt lat="45.968366" lon="10.303523"><time>2025-04-28T06:03:16.000Z</time><ele>437.8</ele></trkpt><trkpt lat="45.968356" lon="10.303528"><time>2025-04-28T06:03:17.000Z</time><ele>437.8</ele></trkpt><trkpt lat="45.968345" lon="10.303533"><time>2025-04-28T06:03:18.000Z</time><ele>437.8</ele></trkpt><trkpt lat="45.968335" lon="10.303532"><time>2025-04-28T06:03:19.000Z</time><ele>438</ele></trkpt><trkpt lat="45.968325" lon="10.303539"><time>2025-04-28T06:03:20.000Z</time><ele>438</ele></trkpt><trkpt lat="45.968315" lon="10.303547"><time>2025-04-28T06:03:21.000Z</time><ele>438.2</ele></trkpt><trkpt lat="45.968303" lon="10.303553"><time>2025-04-28T06:03:22.000Z</time><ele>438.2</ele></trkpt><trkpt lat="45.968293" lon="10.303554"><time>2025-04-28T06:03:23.000Z</time><ele>438.2</ele></trkpt><trkpt lat="45.968287" lon="10.303554"><time>2025-04-28T06:03:24.000Z</time><ele>438.4</ele></trkpt><trkpt lat="45.968283" lon="10.30355"><time>2025-04-28T06:03:25.000Z</time><ele>438.4</ele></trkpt><trkpt lat="45.968271" lon="10.303555"><time>2025-04-28T06:03:26.000Z</time><ele>438.4</ele></trkpt><trkpt lat="45.968258" lon="10.303564"><time>2025-04-28T06:03:27.000Z</time><ele>438.6</ele></trkpt><trkpt lat="45.968247" lon="10.303568"><time>2025-04-28T06:03:28.000Z</time><ele>438.8</ele></trkpt><trkpt lat="45.968233" lon="10.303569"><time>2025-04-28T06:03:29.000Z</time><ele>439</ele></trkpt><trkpt lat="45.968224" lon="10.30357"><time>2025-04-28T06:03:30.000Z</time><ele>439</ele></trkpt><trkpt lat="45.968215" lon="10.303577"><time>2025-04-28T06:03:31.000Z</time><ele>439.2</ele></trkpt><trkpt lat="45.968212" lon="10.303576"><time>2025-04-28T06:03:32.000Z</time><ele>439.2</ele></trkpt><trkpt lat="45.968211" lon="10.303577"><time>2025-04-28T06:03:33.000Z</time><ele>439.2</ele></trkpt><trkpt lat="45.968212" lon="10.303575"><time>2025-04-28T06:03:34.000Z</time><ele>439.2</ele></trkpt><trkpt lat="45.968214" lon="10.303574"><time>2025-04-28T06:03:35.000Z</time><ele>439.4</ele></trkpt><trkpt lat="45.968214" lon="10.303573"><time>2025-04-28T06:03:36.000Z</time><ele>439.4</ele></trkpt><trkpt lat="45.96821" lon="10.303574"><time>2025-04-28T06:03:37.000Z</time><ele>439.4</ele></trkpt><trkpt lat="45.968206" lon="10.303571"><time>2025-04-28T06:03:38.000Z</time><ele>439.4</ele></trkpt><trkpt lat="45.968198" lon="10.303577"><time>2025-04-28T06:03:39.000Z</time><ele>439.4</ele></trkpt><trkpt lat="45.968188" lon="10.303584"><time>2025-04-28T06:03:40.000Z</time><ele>439.4</ele></trkpt><trkpt lat="45.968177" lon="10.303593"><time>2025-04-28T06:03:41.000Z</time><ele>439.4</ele></trkpt><trkpt lat="45.968167" lon="10.303599"><time>2025-04-28T06:03:42.000Z</time><ele>439.4</ele></trkpt><trkpt lat="45.968158" lon="10.303604"><time>2025-04-28T06:03:43.000Z</time><ele>439.4</ele></trkpt><trkpt lat="45.968148" lon="10.303606"><time>2025-04-28T06:03:44.000Z</time><ele>439.6</ele></trkpt><trkpt lat="45.968134" lon="10.303607"><time>2025-04-28T06:03:45.000Z</time><ele>439.8</ele></trkpt><trkpt lat="45.968121" lon="10.303607"><time>2025-04-28T06:03:46.000Z</time><ele>439.8</ele></trkpt><trkpt lat="45.968106" lon="10.303605"><time>2025-04-28T06:03:47.000Z</time><ele>440</ele></trkpt><trkpt lat="45.968093" lon="10.303604"><time>2025-04-28T06:03:48.000Z</time><ele>440</ele></trkpt><trkpt lat="45.968081" lon="10.303605"><time>2025-04-28T06:03:49.000Z</time><ele>440.2</ele></trkpt><trkpt lat="45.96807" lon="10.303603"><time>2025-04-28T06:03:50.000Z</time><ele>440.2</ele></trkpt><trkpt lat="45.968061" lon="10.303605"><time>2025-04-28T06:03:51.000Z</time><ele>440.2</ele></trkpt><trkpt lat="45.968049" lon="10.303611"><time>2025-04-28T06:03:52.000Z</time><ele>440.2</ele></trkpt><trkpt lat="45.968036" lon="10.303616"><time>2025-04-28T06:03:53.000Z</time><ele>440.2</ele></trkpt><trkpt lat="45.968032" lon="10.303617"><time>2025-04-28T06:03:54.000Z</time><ele>440.4</ele></trkpt><trkpt lat="45.968026" lon="10.303622"><time>2025-04-28T06:03:55.000Z</time><ele>440.4</ele></trkpt><trkpt lat="45.96802" lon="10.303633"><time>2025-04-28T06:03:56.000Z</time><ele>440.6</ele></trkpt><trkpt lat="45.96801" lon="10.303644"><time>2025-04-28T06:03:57.000Z</time><ele>440.8</ele></trkpt><trkpt lat="45.968003" lon="10.30366"><time>2025-04-28T06:03:58.000Z</time><ele>440.8</ele></trkpt><trkpt lat="45.967997" lon="10.303672"><time>2025-04-28T06:03:59.000Z</time><ele>440.8</ele></trkpt><trkpt lat="45.96799" lon="10.303683"><time>2025-04-28T06:04:00.000Z</time><ele>440.8</ele></trkpt><trkpt lat="45.967983" lon="10.30369"><time>2025-04-28T06:04:01.000Z</time><ele>440.8</ele></trkpt><trkpt lat="45.967973" lon="10.3037"><time>2025-04-28T06:04:02.000Z</time><ele>440.6</ele></trkpt><trkpt lat="45.967961" lon="10.303709"><time>2025-04-28T06:04:03.000Z</time><ele>440.6</ele></trkpt><trkpt lat="45.967944" lon="10.303716"><time>2025-04-28T06:04:04.000Z</time><ele>440.6</ele></trkpt><trkpt lat="45.967934" lon="10.303724"><time>2025-04-28T06:04:05.000Z</time><ele>440.6</ele></trkpt><trkpt lat="45.967921" lon="10.303726"><time>2025-04-28T06:04:06.000Z</time><ele>440.6</ele></trkpt><trkpt lat="45.967906" lon="10.303734"><time>2025-04-28T06:04:07.000Z</time><ele>440.6</ele></trkpt><trkpt lat="45.967895" lon="10.303736"><time>2025-04-28T06:04:08.000Z</time><ele>440.6</ele></trkpt><trkpt lat="45.967888" lon="10.303737"><time>2025-04-28T06:04:09.000Z</time><ele>440.6</ele></trkpt><trkpt lat="45.967877" lon="10.303734"><time>2025-04-28T06:04:10.000Z</time><ele>440.6</ele></trkpt><trkpt lat="45.967866" lon="10.30373"><time>2025-04-28T06:04:11.000Z</time><ele>440.6</ele></trkpt><trkpt lat="45.967855" lon="10.303732"><time>2025-04-28T06:04:12.000Z</time><ele>440.8</ele></trkpt><trkpt lat="45.967845" lon="10.303736"><time>2025-04-28T06:04:13.000Z</time><ele>440.8</ele></trkpt><trkpt lat="45.967834" lon="10.30374"><time>2025-04-28T06:04:14.000Z</time><ele>441</ele></trkpt><trkpt lat="45.967819" lon="10.303736"><time>2025-04-28T06:04:15.000Z</time><ele>441</ele></trkpt><trkpt lat="45.967813" lon="10.303732"><time>2025-04-28T06:04:16.000Z</time><ele>441</ele></trkpt><trkpt lat="45.967806" lon="10.303732"><time>2025-04-28T06:04:17.000Z</time><ele>441.2</ele></trkpt><trkpt lat="45.9678" lon="10.303733"><time>2025-04-28T06:04:18.000Z</time><ele>441.4</ele></trkpt><trkpt lat="45.967793" lon="10.303731"><time>2025-04-28T06:04:19.000Z</time><ele>441.8</ele></trkpt><trkpt lat="45.967785" lon="10.303727"><time>2025-04-28T06:04:20.000Z</time><ele>442</ele></trkpt><trkpt lat="45.967777" lon="10.303722"><time>2025-04-28T06:04:21.000Z</time><ele>442</ele></trkpt><trkpt lat="45.967773" lon="10.303718"><time>2025-04-28T06:04:22.000Z</time><ele>442.2</ele></trkpt><trkpt lat="45.96777" lon="10.303716"><time>2025-04-28T06:04:23.000Z</time><ele>442.4</ele></trkpt><trkpt lat="45.967768" lon="10.303716"><time>2025-04-28T06:04:24.000Z</time><ele>442.4</ele></trkpt><trkpt lat="45.967765" lon="10.303715"><time>2025-04-28T06:04:25.000Z</time><ele>442.6</ele></trkpt><trkpt lat="45.967759" lon="10.303712"><time>2025-04-28T06:04:26.000Z</time><ele>442.6</ele></trkpt><trkpt lat="45.967756" lon="10.303707"><time>2025-04-28T06:04:27.000Z</time><ele>442.6</ele></trkpt><trkpt lat="45.967755" lon="10.303705"><time>2025-04-28T06:04:28.000Z</time><ele>442.8</ele></trkpt><trkpt lat="45.967753" lon="10.303702"><time>2025-04-28T06:04:29.000Z</time><ele>443</ele></trkpt><trkpt lat="45.96775" lon="10.303699"><time>2025-04-28T06:04:30.000Z</time><ele>443.2</ele></trkpt><trkpt lat="45.967747" lon="10.303695"><time>2025-04-28T06:04:31.000Z</time><ele>443.2</ele></trkpt><trkpt lat="45.967746" lon="10.303696"><time>2025-04-28T06:04:32.000Z</time><ele>443.2</ele></trkpt><trkpt lat="45.967746" lon="10.303696"><time>2025-04-28T06:04:33.000Z</time><ele>443.2</ele></trkpt><trkpt lat="45.967743" lon="10.303693"><time>2025-04-28T06:04:34.000Z</time><ele>443.2</ele></trkpt><trkpt lat="45.967735" lon="10.30369"><time>2025-04-28T06:04:35.000Z</time><ele>443.2</ele></trkpt><trkpt lat="45.967726" lon="10.303691"><time>2025-04-28T06:04:36.000Z</time><ele>443.2</ele></trkpt><trkpt lat="45.967717" lon="10.303692"><time>2025-04-28T06:04:37.000Z</time><ele>443.2</ele></trkpt><trkpt lat="45.967707" lon="10.303692"><time>2025-04-28T06:04:38.000Z</time><ele>443.2</ele></trkpt><trkpt lat="45.967693" lon="10.303691"><time>2025-04-28T06:04:39.000Z</time><ele>443.4</ele></trkpt><trkpt lat="45.967683" lon="10.303691"><time>2025-04-28T06:04:40.000Z</time><ele>443.4</ele></trkpt><trkpt lat="45.967682" lon="10.303692"><time>2025-04-28T06:04:41.000Z</time><ele>443.4</ele></trkpt><trkpt lat="45.967683" lon="10.303694"><time>2025-04-28T06:04:42.000Z</time><ele>443.4</ele></trkpt><trkpt lat="45.967684" lon="10.303698"><time>2025-04-28T06:04:43.000Z</time><ele>443.6</ele></trkpt><trkpt lat="45.967684" lon="10.303698"><time>2025-04-28T06:04:44.000Z</time><ele>443.8</ele></trkpt><trkpt lat="45.967683" lon="10.303697"><time>2025-04-28T06:04:45.000Z</time><ele>443.8</ele></trkpt><trkpt lat="45.967683" lon="10.303695"><time>2025-04-28T06:04:46.000Z</time><ele>444</ele></trkpt><trkpt lat="45.967673" lon="10.303684"><time>2025-04-28T06:04:47.000Z</time><ele>444</ele></trkpt><trkpt lat="45.96767" lon="10.303681"><time>2025-04-28T06:04:48.000Z</time><ele>443.8</ele></trkpt><trkpt lat="45.967656" lon="10.303677"><time>2025-04-28T06:04:49.000Z</time><ele>443.8</ele></trkpt><trkpt lat="45.967647" lon="10.303676"><time>2025-04-28T06:04:50.000Z</time><ele>443.8</ele></trkpt><trkpt lat="45.96764" lon="10.303669"><time>2025-04-28T06:04:51.000Z</time><ele>443.6</ele></trkpt><trkpt lat="45.967632" lon="10.303658"><time>2025-04-28T06:04:52.000Z</time><ele>443.6</ele></trkpt><trkpt lat="45.967623" lon="10.303652"><time>2025-04-28T06:04:53.000Z</time><ele>443.6</ele></trkpt><trkpt lat="45.967611" lon="10.303654"><time>2025-04-28T06:04:54.000Z</time><ele>443.2</ele></trkpt><trkpt lat="45.967599" lon="10.303656"><time>2025-04-28T06:04:55.000Z</time><ele>443.2</ele></trkpt><trkpt lat="45.96759" lon="10.303657"><time>2025-04-28T06:04:56.000Z</time><ele>443</ele></trkpt><trkpt lat="45.96758" lon="10.30366"><time>2025-04-28T06:04:57.000Z</time><ele>442.8</ele></trkpt><trkpt lat="45.967572" lon="10.30366"><time>2025-04-28T06:04:58.000Z</time><ele>442.8</ele></trkpt><trkpt lat="45.967562" lon="10.303655"><time>2025-04-28T06:04:59.000Z</time><ele>442.6</ele></trkpt><trkpt lat="45.967558" lon="10.303652"><time>2025-04-28T06:05:00.000Z</time><ele>442.6</ele></trkpt><trkpt lat="45.967558" lon="10.303653"><time>2025-04-28T06:05:01.000Z</time><ele>442.6</ele></trkpt><trkpt lat="45.967558" lon="10.303655"><time>2025-04-28T06:05:02.000Z</time><ele>442.4</ele></trkpt><trkpt lat="45.967558" lon="10.303658"><time>2025-04-28T06:05:03.000Z</time><ele>442.4</ele></trkpt><trkpt lat="45.967558" lon="10.303663"><time>2025-04-28T06:05:04.000Z</time><ele>442.4</ele></trkpt><trkpt lat="45.967553" lon="10.303665"><time>2025-04-28T06:05:05.000Z</time><ele>442.4</ele></trkpt><trkpt lat="45.967545" lon="10.303661"><time>2025-04-28T06:05:06.000Z</time><ele>442.4</ele></trkpt><trkpt lat="45.967537" lon="10.30366"><time>2025-04-28T06:05:07.000Z</time><ele>442.2</ele></trkpt><trkpt lat="45.967528" lon="10.303662"><time>2025-04-28T06:05:08.000Z</time><ele>442.2</ele></trkpt><trkpt lat="45.967519" lon="10.303664"><time>2025-04-28T06:05:09.000Z</time><ele>442.2</ele></trkpt><trkpt lat="45.967505" lon="10.303661"><time>2025-04-28T06:05:10.000Z</time><ele>442</ele></trkpt><trkpt lat="45.967493" lon="10.303664"><time>2025-04-28T06:05:11.000Z</time><ele>442</ele></trkpt><trkpt lat="45.967476" lon="10.30366"><time>2025-04-28T06:05:12.000Z</time><ele>442</ele></trkpt><trkpt lat="45.967469" lon="10.303651"><time>2025-04-28T06:05:13.000Z</time><ele>441.8</ele></trkpt><trkpt lat="45.967456" lon="10.303644"><time>2025-04-28T06:05:14.000Z</time><ele>441.6</ele></trkpt><trkpt lat="45.967445" lon="10.303641"><time>2025-04-28T06:05:15.000Z</time><ele>441.2</ele></trkpt><trkpt lat="45.967437" lon="10.303641"><time>2025-04-28T06:05:16.000Z</time><ele>441</ele></trkpt><trkpt lat="45.967424" lon="10.303631"><time>2025-04-28T06:05:17.000Z</time><ele>440.8</ele></trkpt><trkpt lat="45.96741" lon="10.303623"><time>2025-04-28T06:05:18.000Z</time><ele>440.6</ele></trkpt><trkpt lat="45.967396" lon="10.303618"><time>2025-04-28T06:05:19.000Z</time><ele>440.4</ele></trkpt><trkpt lat="45.967381" lon="10.303621"><time>2025-04-28T06:05:20.000Z</time><ele>440</ele></trkpt><trkpt lat="45.967366" lon="10.303623"><time>2025-04-28T06:05:21.000Z</time><ele>439.8</ele></trkpt><trkpt lat="45.967352" lon="10.303626"><time>2025-04-28T06:05:22.000Z</time><ele>439.8</ele></trkpt><trkpt lat="45.967339" lon="10.303627"><time>2025-04-28T06:05:23.000Z</time><ele>439.6</ele></trkpt><trkpt lat="45.967332" lon="10.303626"><time>2025-04-28T06:05:24.000Z</time><ele>439.6</ele></trkpt><trkpt lat="45.967325" lon="10.303619"><time>2025-04-28T06:05:25.000Z</time><ele>439.4</ele></trkpt><trkpt lat="45.967315" lon="10.30361"><time>2025-04-28T06:05:26.000Z</time><ele>439.2</ele></trkpt><trkpt lat="45.9673" lon="10.303605"><time>2025-04-28T06:05:27.000Z</time><ele>439.2</ele></trkpt><trkpt lat="45.967274" lon="10.303593"><time>2025-04-28T06:05:28.000Z</time><ele>439</ele></trkpt><trkpt lat="45.967255" lon="10.30358"><time>2025-04-28T06:05:29.000Z</time><ele>439</ele></trkpt><trkpt lat="45.967242" lon="10.303573"><time>2025-04-28T06:05:30.000Z</time><ele>438.8</ele></trkpt><trkpt lat="45.967232" lon="10.303562"><time>2025-04-28T06:05:31.000Z</time><ele>438.8</ele></trkpt><trkpt lat="45.967218" lon="10.303548"><time>2025-04-28T06:05:32.000Z</time><ele>438.8</ele></trkpt><trkpt lat="45.967209" lon="10.303535"><time>2025-04-28T06:05:33.000Z</time><ele>438.8</ele></trkpt><trkpt lat="45.967198" lon="10.303527"><time>2025-04-28T06:05:34.000Z</time><ele>438.6</ele></trkpt><trkpt lat="45.967187" lon="10.303526"><time>2025-04-28T06:05:35.000Z</time><ele>438.6</ele></trkpt><trkpt lat="45.967176" lon="10.30352"><time>2025-04-28T06:05:36.000Z</time><ele>438.4</ele></trkpt><trkpt lat="45.967164" lon="10.30351"><time>2025-04-28T06:05:37.000Z</time><ele>438.2</ele></trkpt><trkpt lat="45.967158" lon="10.303498"><time>2025-04-28T06:05:38.000Z</time><ele>438.2</ele></trkpt><trkpt lat="45.967155" lon="10.303485"><time>2025-04-28T06:05:39.000Z</time><ele>438</ele></trkpt><trkpt lat="45.967149" lon="10.303475"><time>2025-04-28T06:05:40.000Z</time><ele>437.8</ele></trkpt><trkpt lat="45.967142" lon="10.303475"><time>2025-04-28T06:05:41.000Z</time><ele>437.6</ele></trkpt><trkpt lat="45.967129" lon="10.30347"><time>2025-04-28T06:05:42.000Z</time><ele>437.6</ele></trkpt><trkpt lat="45.96712" lon="10.303463"><time>2025-04-28T06:05:43.000Z</time><ele>437.4</ele></trkpt><trkpt lat="45.967112" lon="10.303453"><time>2025-04-28T06:05:44.000Z</time><ele>437.4</ele></trkpt><trkpt lat="45.967104" lon="10.303444"><time>2025-04-28T06:05:45.000Z</time><ele>437.4</ele></trkpt><trkpt lat="45.967098" lon="10.303431"><time>2025-04-28T06:05:46.000Z</time><ele>437.2</ele></trkpt><trkpt lat="45.967091" lon="10.303417"><time>2025-04-28T06:05:47.000Z</time><ele>437</ele></trkpt><trkpt lat="45.967085" lon="10.303407"><time>2025-04-28T06:05:48.000Z</time><ele>437</ele></trkpt><trkpt lat="45.967076" lon="10.303398"><time>2025-04-28T06:05:49.000Z</time><ele>436.8</ele></trkpt><trkpt lat="45.967075" lon="10.303383"><time>2025-04-28T06:05:50.000Z</time><ele>436.6</ele></trkpt><trkpt lat="45.967069" lon="10.303375"><time>2025-04-28T06:05:51.000Z</time><ele>436.6</ele></trkpt><trkpt lat="45.96706" lon="10.303373"><time>2025-04-28T06:05:52.000Z</time><ele>436.4</ele></trkpt><trkpt lat="45.96705" lon="10.303366"><time>2025-04-28T06:05:53.000Z</time><ele>436.4</ele></trkpt><trkpt lat="45.96704" lon="10.303356"><time>2025-04-28T06:05:54.000Z</time><ele>436.4</ele></trkpt><trkpt lat="45.96703" lon="10.303349"><time>2025-04-28T06:05:55.000Z</time><ele>436.2</ele></trkpt><trkpt lat="45.967024" lon="10.303345"><time>2025-04-28T06:05:56.000Z</time><ele>436.2</ele></trkpt><trkpt lat="45.967015" lon="10.303341"><time>2025-04-28T06:05:57.000Z</time><ele>436</ele></trkpt><trkpt lat="45.967002" lon="10.303334"><time>2025-04-28T06:05:58.000Z</time><ele>435.8</ele></trkpt><trkpt lat="45.966992" lon="10.303325"><time>2025-04-28T06:05:59.000Z</time><ele>435.8</ele></trkpt><trkpt lat="45.966986" lon="10.303317"><time>2025-04-28T06:06:00.000Z</time><ele>435.6</ele></trkpt><trkpt lat="45.966979" lon="10.303311"><time>2025-04-28T06:06:01.000Z</time><ele>435.6</ele></trkpt><trkpt lat="45.966967" lon="10.303311"><time>2025-04-28T06:06:02.000Z</time><ele>435.6</ele></trkpt><trkpt lat="45.96695" lon="10.30331"><time>2025-04-28T06:06:03.000Z</time><ele>435.6</ele></trkpt><trkpt lat="45.966937" lon="10.30331"><time>2025-04-28T06:06:04.000Z</time><ele>435.6</ele></trkpt><trkpt lat="45.966923" lon="10.303316"><time>2025-04-28T06:06:05.000Z</time><ele>435.6</ele></trkpt><trkpt lat="45.966914" lon="10.303318"><time>2025-04-28T06:06:06.000Z</time><ele>435.6</ele></trkpt><trkpt lat="45.966907" lon="10.30332"><time>2025-04-28T06:06:07.000Z</time><ele>435.6</ele></trkpt><trkpt lat="45.966895" lon="10.303322"><time>2025-04-28T06:06:08.000Z</time><ele>435.6</ele></trkpt><trkpt lat="45.966882" lon="10.303321"><time>2025-04-28T06:06:09.000Z</time><ele>435.8</ele></trkpt><trkpt lat="45.966874" lon="10.303311"><time>2025-04-28T06:06:10.000Z</time><ele>435.8</ele></trkpt><trkpt lat="45.966865" lon="10.3033"><time>2025-04-28T06:06:11.000Z</time><ele>435.8</ele></trkpt><trkpt lat="45.966848" lon="10.303283"><time>2025-04-28T06:06:12.000Z</time><ele>435.8</ele></trkpt><trkpt lat="45.966828" lon="10.303261"><time>2025-04-28T06:06:13.000Z</time><ele>435.8</ele></trkpt><trkpt lat="45.966816" lon="10.303245"><time>2025-04-28T06:06:14.000Z</time><ele>436</ele></trkpt><trkpt lat="45.966797" lon="10.30324"><time>2025-04-28T06:06:15.000Z</time><ele>436.2</ele></trkpt><trkpt lat="45.966777" lon="10.303236"><time>2025-04-28T06:06:16.000Z</time><ele>436.2</ele></trkpt><trkpt lat="45.966755" lon="10.303231"><time>2025-04-28T06:06:17.000Z</time><ele>436.4</ele></trkpt><trkpt lat="45.966734" lon="10.303225"><time>2025-04-28T06:06:18.000Z</time><ele>436.6</ele></trkpt><trkpt lat="45.966717" lon="10.303224"><time>2025-04-28T06:06:19.000Z</time><ele>436.6</ele></trkpt><trkpt lat="45.966704" lon="10.303214"><time>2025-04-28T06:06:20.000Z</time><ele>436.8</ele></trkpt><trkpt lat="45.966689" lon="10.303209"><time>2025-04-28T06:06:21.000Z</time><ele>436.8</ele></trkpt><trkpt lat="45.966678" lon="10.303194"><time>2025-04-28T06:06:22.000Z</time><ele>436.8</ele></trkpt><trkpt lat="45.966667" lon="10.30319"><time>2025-04-28T06:06:23.000Z</time><ele>437</ele></trkpt><trkpt lat="45.966661" lon="10.30318"><time>2025-04-28T06:06:24.000Z</time><ele>437.2</ele></trkpt><trkpt lat="45.966648" lon="10.303172"><time>2025-04-28T06:06:25.000Z</time><ele>437.2</ele></trkpt><trkpt lat="45.966635" lon="10.303165"><time>2025-04-28T06:06:26.000Z</time><ele>437.2</ele></trkpt><trkpt lat="45.966621" lon="10.303158"><time>2025-04-28T06:06:27.000Z</time><ele>437.4</ele></trkpt><trkpt lat="45.966609" lon="10.303141"><time>2025-04-28T06:06:28.000Z</time><ele>437.4</ele></trkpt><trkpt lat="45.966604" lon="10.303127"><time>2025-04-28T06:06:29.000Z</time><ele>437.2</ele></trkpt><trkpt lat="45.966597" lon="10.303115"><time>2025-04-28T06:06:30.000Z</time><ele>437</ele></trkpt><trkpt lat="45.966593" lon="10.303108"><time>2025-04-28T06:06:31.000Z</time><ele>437</ele></trkpt><trkpt lat="45.966585" lon="10.303105"><time>2025-04-28T06:06:32.000Z</time><ele>436.8</ele></trkpt><trkpt lat="45.966581" lon="10.303099"><time>2025-04-28T06:06:33.000Z</time><ele>436.6</ele></trkpt><trkpt lat="45.96657" lon="10.303086"><time>2025-04-28T06:06:34.000Z</time><ele>436.4</ele></trkpt><trkpt lat="45.966558" lon="10.303074"><time>2025-04-28T06:06:35.000Z</time><ele>436.2</ele></trkpt><trkpt lat="45.966556" lon="10.303055"><time>2025-04-28T06:06:36.000Z</time><ele>436.2</ele></trkpt><trkpt lat="45.966548" lon="10.30305"><time>2025-04-28T06:06:37.000Z</time><ele>436</ele></trkpt><trkpt lat="45.966541" lon="10.303038"><time>2025-04-28T06:06:38.000Z</time><ele>435.8</ele></trkpt><trkpt lat="45.966524" lon="10.303018"><time>2025-04-28T06:06:39.000Z</time><ele>435.6</ele></trkpt><trkpt lat="45.966503" lon="10.303006"><time>2025-04-28T06:06:40.000Z</time><ele>435.4</ele></trkpt><trkpt lat="45.966483" lon="10.302989"><time>2025-04-28T06:06:41.000Z</time><ele>435.4</ele></trkpt><trkpt lat="45.966472" lon="10.302964"><time>2025-04-28T06:06:42.000Z</time><ele>435.4</ele></trkpt><trkpt lat="45.966466" lon="10.302953"><time>2025-04-28T06:06:43.000Z</time><ele>435.2</ele></trkpt><trkpt lat="45.966458" lon="10.302947"><time>2025-04-28T06:06:44.000Z</time><ele>435</ele></trkpt><trkpt lat="45.966446" lon="10.302943"><time>2025-04-28T06:06:45.000Z</time><ele>434.8</ele></trkpt><trkpt lat="45.966436" lon="10.30294"><time>2025-04-28T06:06:46.000Z</time><ele>434.8</ele></trkpt><trkpt lat="45.966423" lon="10.302942"><time>2025-04-28T06:06:47.000Z</time><ele>434.6</ele></trkpt><trkpt lat="45.966413" lon="10.30294"><time>2025-04-28T06:06:48.000Z</time><ele>434.6</ele></trkpt><trkpt lat="45.966405" lon="10.302928"><time>2025-04-28T06:06:49.000Z</time><ele>434.4</ele></trkpt><trkpt lat="45.966395" lon="10.302916"><time>2025-04-28T06:06:50.000Z</time><ele>434.4</ele></trkpt><trkpt lat="45.966384" lon="10.302905"><time>2025-04-28T06:06:51.000Z</time><ele>434.2</ele></trkpt><trkpt lat="45.966374" lon="10.302895"><time>2025-04-28T06:06:52.000Z</time><ele>434.2</ele></trkpt><trkpt lat="45.966362" lon="10.30289"><time>2025-04-28T06:06:53.000Z</time><ele>434.2</ele></trkpt><trkpt lat="45.966349" lon="10.302889"><time>2025-04-28T06:06:54.000Z</time><ele>434.2</ele></trkpt><trkpt lat="45.966338" lon="10.302888"><time>2025-04-28T06:06:55.000Z</time><ele>434</ele></trkpt><trkpt lat="45.966329" lon="10.302879"><time>2025-04-28T06:06:56.000Z</time><ele>433.8</ele></trkpt><trkpt lat="45.966327" lon="10.302865"><time>2025-04-28T06:06:57.000Z</time><ele>433.6</ele></trkpt><trkpt lat="45.966332" lon="10.302845"><time>2025-04-28T06:06:58.000Z</time><ele>433.6</ele></trkpt><trkpt lat="45.966332" lon="10.302818"><time>2025-04-28T06:06:59.000Z</time><ele>433.6</ele></trkpt><trkpt lat="45.96632" lon="10.3028"><time>2025-04-28T06:07:00.000Z</time><ele>433.6</ele></trkpt><trkpt lat="45.966311" lon="10.302789"><time>2025-04-28T06:07:01.000Z</time><ele>433.6</ele></trkpt><trkpt lat="45.966302" lon="10.302774"><time>2025-04-28T06:07:02.000Z</time><ele>433.4</ele></trkpt><trkpt lat="45.966291" lon="10.302767"><time>2025-04-28T06:07:03.000Z</time><ele>433.4</ele></trkpt><trkpt lat="45.966277" lon="10.302762"><time>2025-04-28T06:07:04.000Z</time><ele>433.4</ele></trkpt><trkpt lat="45.966265" lon="10.302751"><time>2025-04-28T06:07:05.000Z</time><ele>433.4</ele></trkpt><trkpt lat="45.96626" lon="10.302737"><time>2025-04-28T06:07:06.000Z</time><ele>433.4</ele></trkpt><trkpt lat="45.96626" lon="10.302721"><time>2025-04-28T06:07:07.000Z</time><ele>433.4</ele></trkpt><trkpt lat="45.966259" lon="10.302705"><time>2025-04-28T06:07:08.000Z</time><ele>433.4</ele></trkpt><trkpt lat="45.966254" lon="10.302689"><time>2025-04-28T06:07:09.000Z</time><ele>433.2</ele></trkpt><trkpt lat="45.966241" lon="10.302678"><time>2025-04-28T06:07:10.000Z</time><ele>433.2</ele></trkpt><trkpt lat="45.966229" lon="10.302666"><time>2025-04-28T06:07:11.000Z</time><ele>433.2</ele></trkpt><trkpt lat="45.966222" lon="10.302644"><time>2025-04-28T06:07:12.000Z</time><ele>433.2</ele></trkpt><trkpt lat="45.966222" lon="10.30262"><time>2025-04-28T06:07:13.000Z</time><ele>433.2</ele></trkpt><trkpt lat="45.966211" lon="10.30261"><time>2025-04-28T06:07:14.000Z</time><ele>433.2</ele></trkpt><trkpt lat="45.966204" lon="10.302605"><time>2025-04-28T06:07:15.000Z</time><ele>433.2</ele></trkpt><trkpt lat="45.966178" lon="10.302612"><time>2025-04-28T06:07:16.000Z</time><ele>433.2</ele></trkpt><trkpt lat="45.966154" lon="10.302621"><time>2025-04-28T06:07:17.000Z</time><ele>433.2</ele></trkpt><trkpt lat="45.966135" lon="10.302617"><time>2025-04-28T06:07:18.000Z</time><ele>433.2</ele></trkpt><trkpt lat="45.966115" lon="10.302612"><time>2025-04-28T06:07:19.000Z</time><ele>433.2</ele></trkpt><trkpt lat="45.966101" lon="10.3026"><time>2025-04-28T06:07:20.000Z</time><ele>433.2</ele></trkpt><trkpt lat="45.966092" lon="10.302588"><time>2025-04-28T06:07:21.000Z</time><ele>433.4</ele></trkpt><trkpt lat="45.966084" lon="10.302582"><time>2025-04-28T06:07:22.000Z</time><ele>433.4</ele></trkpt><trkpt lat="45.966071" lon="10.30258"><time>2025-04-28T06:07:23.000Z</time><ele>433.4</ele></trkpt><trkpt lat="45.966051" lon="10.302578"><time>2025-04-28T06:07:24.000Z</time><ele>433.6</ele></trkpt><trkpt lat="45.96603" lon="10.302578"><time>2025-04-28T06:07:25.000Z</time><ele>433.6</ele></trkpt><trkpt lat="45.966003" lon="10.302573"><time>2025-04-28T06:07:26.000Z</time><ele>433.8</ele></trkpt><trkpt lat="45.965985" lon="10.302568"><time>2025-04-28T06:07:27.000Z</time><ele>434</ele></trkpt><trkpt lat="45.965974" lon="10.302556"><time>2025-04-28T06:07:28.000Z</time><ele>434</ele></trkpt><trkpt lat="45.965972" lon="10.302546"><time>2025-04-28T06:07:29.000Z</time><ele>434.2</ele></trkpt><trkpt lat="45.96597" lon="10.302528"><time>2025-04-28T06:07:30.000Z</time><ele>434.2</ele></trkpt><trkpt lat="45.965965" lon="10.302509"><time>2025-04-28T06:07:31.000Z</time><ele>434.2</ele></trkpt><trkpt lat="45.96596" lon="10.3025"><time>2025-04-28T06:07:32.000Z</time><ele>434.2</ele></trkpt><trkpt lat="45.965956" lon="10.30249"><time>2025-04-28T06:07:33.000Z</time><ele>434.2</ele></trkpt><trkpt lat="45.965952" lon="10.302479"><time>2025-04-28T06:07:34.000Z</time><ele>434.2</ele></trkpt><trkpt lat="45.965947" lon="10.302468"><time>2025-04-28T06:07:35.000Z</time><ele>434.2</ele></trkpt><trkpt lat="45.965941" lon="10.302459"><time>2025-04-28T06:07:36.000Z</time><ele>434.4</ele></trkpt><trkpt lat="45.965932" lon="10.302448"><time>2025-04-28T06:07:37.000Z</time><ele>434.4</ele></trkpt><trkpt lat="45.965921" lon="10.302436"><time>2025-04-28T06:07:38.000Z</time><ele>434.4</ele></trkpt><trkpt lat="45.965907" lon="10.302427"><time>2025-04-28T06:07:39.000Z</time><ele>434.4</ele></trkpt><trkpt lat="45.965901" lon="10.302418"><time>2025-04-28T06:07:40.000Z</time><ele>434.6</ele></trkpt><trkpt lat="45.96589" lon="10.30241"><time>2025-04-28T06:07:41.000Z</time><ele>434.8</ele></trkpt><trkpt lat="45.96588" lon="10.3024"><time>2025-04-28T06:07:42.000Z</time><ele>434.8</ele></trkpt><trkpt lat="45.965875" lon="10.302388"><time>2025-04-28T06:07:43.000Z</time><ele>435</ele></trkpt><trkpt lat="45.965866" lon="10.302375"><time>2025-04-28T06:07:44.000Z</time><ele>435</ele></trkpt><trkpt lat="45.965855" lon="10.302358"><time>2025-04-28T06:07:45.000Z</time><ele>435.2</ele></trkpt><trkpt lat="45.965842" lon="10.302347"><time>2025-04-28T06:07:46.000Z</time><ele>435.4</ele></trkpt><trkpt lat="45.96583" lon="10.302338"><time>2025-04-28T06:07:47.000Z</time><ele>435.4</ele></trkpt><trkpt lat="45.965818" lon="10.302336"><time>2025-04-28T06:07:48.000Z</time><ele>435.4</ele></trkpt><trkpt lat="45.965808" lon="10.302336"><time>2025-04-28T06:07:49.000Z</time><ele>435.6</ele></trkpt><trkpt lat="45.965798" lon="10.302327"><time>2025-04-28T06:07:50.000Z</time><ele>435.6</ele></trkpt><trkpt lat="45.965793" lon="10.302308"><time>2025-04-28T06:07:51.000Z</time><ele>435.8</ele></trkpt><trkpt lat="45.965788" lon="10.3023"><time>2025-04-28T06:07:52.000Z</time><ele>435.8</ele></trkpt><trkpt lat="45.965781" lon="10.302286"><time>2025-04-28T06:07:53.000Z</time><ele>436.2</ele></trkpt><trkpt lat="45.965769" lon="10.302281"><time>2025-04-28T06:07:54.000Z</time><ele>436.2</ele></trkpt><trkpt lat="45.965759" lon="10.302271"><time>2025-04-28T06:07:55.000Z</time><ele>436.4</ele></trkpt><trkpt lat="45.965749" lon="10.30226"><time>2025-04-28T06:07:56.000Z</time><ele>436.4</ele></trkpt><trkpt lat="45.965742" lon="10.302251"><time>2025-04-28T06:07:57.000Z</time><ele>436.6</ele></trkpt><trkpt lat="45.965732" lon="10.302242"><time>2025-04-28T06:07:58.000Z</time><ele>436.6</ele></trkpt><trkpt lat="45.965723" lon="10.302229"><time>2025-04-28T06:07:59.000Z</time><ele>436.6</ele></trkpt><trkpt lat="45.965716" lon="10.302217"><time>2025-04-28T06:08:00.000Z</time><ele>436.6</ele></trkpt><trkpt lat="45.965701" lon="10.302205"><time>2025-04-28T06:08:01.000Z</time><ele>436.6</ele></trkpt><trkpt lat="45.965688" lon="10.30219"><time>2025-04-28T06:08:02.000Z</time><ele>436.6</ele></trkpt><trkpt lat="45.965679" lon="10.302171"><time>2025-04-28T06:08:03.000Z</time><ele>436.6</ele></trkpt><trkpt lat="45.965672" lon="10.302152"><time>2025-04-28T06:08:04.000Z</time><ele>436.6</ele></trkpt><trkpt lat="45.965667" lon="10.302132"><time>2025-04-28T06:08:05.000Z</time><ele>436.6</ele></trkpt><trkpt lat="45.965664" lon="10.302111"><time>2025-04-28T06:08:06.000Z</time><ele>436.6</ele></trkpt><trkpt lat="45.96566" lon="10.30209"><time>2025-04-28T06:08:07.000Z</time><ele>436.6</ele></trkpt><trkpt lat="45.965655" lon="10.302074"><time>2025-04-28T06:08:08.000Z</time><ele>436.6</ele></trkpt><trkpt lat="45.965651" lon="10.302061"><time>2025-04-28T06:08:09.000Z</time><ele>436.4</ele></trkpt><trkpt lat="45.965652" lon="10.302049"><time>2025-04-28T06:08:10.000Z</time><ele>436.4</ele></trkpt><trkpt lat="45.965648" lon="10.302037"><time>2025-04-28T06:08:11.000Z</time><ele>436.4</ele></trkpt><trkpt lat="45.96564" lon="10.302019"><time>2025-04-28T06:08:12.000Z</time><ele>436.2</ele></trkpt><trkpt lat="45.965636" lon="10.301999"><time>2025-04-28T06:08:13.000Z</time><ele>436</ele></trkpt><trkpt lat="45.965631" lon="10.301979"><time>2025-04-28T06:08:14.000Z</time><ele>436</ele></trkpt><trkpt lat="45.965622" lon="10.301958"><time>2025-04-28T06:08:15.000Z</time><ele>435.8</ele></trkpt><trkpt lat="45.965613" lon="10.301939"><time>2025-04-28T06:08:16.000Z</time><ele>435.8</ele></trkpt><trkpt lat="45.965601" lon="10.301914"><time>2025-04-28T06:08:17.000Z</time><ele>435.6</ele></trkpt><trkpt lat="45.965603" lon="10.301889"><time>2025-04-28T06:08:18.000Z</time><ele>435.6</ele></trkpt><trkpt lat="45.9656" lon="10.301868"><time>2025-04-28T06:08:19.000Z</time><ele>435.6</ele></trkpt><trkpt lat="45.965596" lon="10.301855"><time>2025-04-28T06:08:20.000Z</time><ele>435.6</ele></trkpt><trkpt lat="45.965588" lon="10.301842"><time>2025-04-28T06:08:21.000Z</time><ele>435.6</ele></trkpt><trkpt lat="45.965578" lon="10.301827"><time>2025-04-28T06:08:22.000Z</time><ele>435.4</ele></trkpt><trkpt lat="45.96557" lon="10.301807"><time>2025-04-28T06:08:23.000Z</time><ele>435.4</ele></trkpt><trkpt lat="45.965559" lon="10.301793"><time>2025-04-28T06:08:24.000Z</time><ele>435.2</ele></trkpt><trkpt lat="45.965553" lon="10.301777"><time>2025-04-28T06:08:25.000Z</time><ele>435.2</ele></trkpt><trkpt lat="45.965545" lon="10.301764"><time>2025-04-28T06:08:26.000Z</time><ele>435.2</ele></trkpt><trkpt lat="45.965539" lon="10.301751"><time>2025-04-28T06:08:27.000Z</time><ele>435.2</ele></trkpt><trkpt lat="45.965534" lon="10.30174"><time>2025-04-28T06:08:28.000Z</time><ele>435.2</ele></trkpt><trkpt lat="45.965531" lon="10.301724"><time>2025-04-28T06:08:29.000Z</time><ele>435.2</ele></trkpt><trkpt lat="45.965535" lon="10.3017"><time>2025-04-28T06:08:30.000Z</time><ele>435</ele></trkpt><trkpt lat="45.965532" lon="10.301686"><time>2025-04-28T06:08:31.000Z</time><ele>435</ele></trkpt><trkpt lat="45.965525" lon="10.301672"><time>2025-04-28T06:08:32.000Z</time><ele>435</ele></trkpt><trkpt lat="45.965511" lon="10.301658"><time>2025-04-28T06:08:33.000Z</time><ele>435</ele></trkpt><trkpt lat="45.965502" lon="10.301646"><time>2025-04-28T06:08:34.000Z</time><ele>435</ele></trkpt><trkpt lat="45.965502" lon="10.301629"><time>2025-04-28T06:08:35.000Z</time><ele>435</ele></trkpt><trkpt lat="45.965504" lon="10.30161"><time>2025-04-28T06:08:36.000Z</time><ele>435</ele></trkpt><trkpt lat="45.965499" lon="10.301592"><time>2025-04-28T06:08:37.000Z</time><ele>435</ele></trkpt><trkpt lat="45.965499" lon="10.301564"><time>2025-04-28T06:08:38.000Z</time><ele>434.8</ele></trkpt><trkpt lat="45.965495" lon="10.301542"><time>2025-04-28T06:08:39.000Z</time><ele>434.8</ele></trkpt><trkpt lat="45.965484" lon="10.301529"><time>2025-04-28T06:08:40.000Z</time><ele>434.8</ele></trkpt><trkpt lat="45.965472" lon="10.30152"><time>2025-04-28T06:08:41.000Z</time><ele>434.8</ele></trkpt><trkpt lat="45.965454" lon="10.301516"><time>2025-04-28T06:08:42.000Z</time><ele>435</ele></trkpt><trkpt lat="45.965443" lon="10.301496"><time>2025-04-28T06:08:43.000Z</time><ele>435</ele></trkpt><trkpt lat="45.965436" lon="10.301481"><time>2025-04-28T06:08:44.000Z</time><ele>435</ele></trkpt><trkpt lat="45.965424" lon="10.301469"><time>2025-04-28T06:08:45.000Z</time><ele>435</ele></trkpt><trkpt lat="45.965415" lon="10.301459"><time>2025-04-28T06:08:46.000Z</time><ele>435</ele></trkpt><trkpt lat="45.965407" lon="10.301449"><time>2025-04-28T06:08:47.000Z</time><ele>435</ele></trkpt><trkpt lat="45.9654" lon="10.301433"><time>2025-04-28T06:08:48.000Z</time><ele>435</ele></trkpt><trkpt lat="45.965397" lon="10.301409"><time>2025-04-28T06:08:49.000Z</time><ele>435</ele></trkpt><trkpt lat="45.965397" lon="10.301395"><time>2025-04-28T06:08:50.000Z</time><ele>435</ele></trkpt><trkpt lat="45.965392" lon="10.301381"><time>2025-04-28T06:08:51.000Z</time><ele>435</ele></trkpt><trkpt lat="45.965387" lon="10.30137"><time>2025-04-28T06:08:52.000Z</time><ele>435</ele></trkpt><trkpt lat="45.965385" lon="10.301357"><time>2025-04-28T06:08:53.000Z</time><ele>435</ele></trkpt><trkpt lat="45.965384" lon="10.301342"><time>2025-04-28T06:08:54.000Z</time><ele>435</ele></trkpt><trkpt lat="45.965384" lon="10.301335"><time>2025-04-28T06:08:55.000Z</time><ele>435</ele></trkpt><trkpt lat="45.965381" lon="10.301327"><time>2025-04-28T06:08:56.000Z</time><ele>434.8</ele></trkpt><trkpt lat="45.965375" lon="10.301318"><time>2025-04-28T06:08:57.000Z</time><ele>434.6</ele></trkpt><trkpt lat="45.965367" lon="10.301314"><time>2025-04-28T06:08:58.000Z</time><ele>434.4</ele></trkpt><trkpt lat="45.965357" lon="10.30131"><time>2025-04-28T06:08:59.000Z</time><ele>434.4</ele></trkpt><trkpt lat="45.965347" lon="10.301297"><time>2025-04-28T06:09:00.000Z</time><ele>434.4</ele></trkpt><trkpt lat="45.965339" lon="10.301282"><time>2025-04-28T06:09:01.000Z</time><ele>434.4</ele></trkpt><trkpt lat="45.965333" lon="10.301267"><time>2025-04-28T06:09:02.000Z</time><ele>434.4</ele></trkpt><trkpt lat="45.965333" lon="10.301255"><time>2025-04-28T06:09:03.000Z</time><ele>434.4</ele></trkpt><trkpt lat="45.965336" lon="10.301247"><time>2025-04-28T06:09:04.000Z</time><ele>434.4</ele></trkpt><trkpt lat="45.965334" lon="10.301237"><time>2025-04-28T06:09:05.000Z</time><ele>434.4</ele></trkpt><trkpt lat="45.965327" lon="10.301233"><time>2025-04-28T06:09:06.000Z</time><ele>434.4</ele></trkpt><trkpt lat="45.965315" lon="10.301233"><time>2025-04-28T06:09:07.000Z</time><ele>434.4</ele></trkpt><trkpt lat="45.965299" lon="10.301234"><time>2025-04-28T06:09:08.000Z</time><ele>434.2</ele></trkpt><trkpt lat="45.965286" lon="10.301242"><time>2025-04-28T06:09:09.000Z</time><ele>434.2</ele></trkpt><trkpt lat="45.965272" lon="10.301245"><time>2025-04-28T06:09:10.000Z</time><ele>434.2</ele></trkpt><trkpt lat="45.965247" lon="10.301238"><time>2025-04-28T06:09:11.000Z</time><ele>434.2</ele></trkpt><trkpt lat="45.96523" lon="10.301236"><time>2025-04-28T06:09:12.000Z</time><ele>434.4</ele></trkpt><trkpt lat="45.965207" lon="10.301237"><time>2025-04-28T06:09:13.000Z</time><ele>434.4</ele></trkpt><trkpt lat="45.965193" lon="10.301232"><time>2025-04-28T06:09:14.000Z</time><ele>434.6</ele></trkpt><trkpt lat="45.965182" lon="10.301223"><time>2025-04-28T06:09:15.000Z</time><ele>434.8</ele></trkpt><trkpt lat="45.96517" lon="10.30121"><time>2025-04-28T06:09:16.000Z</time><ele>435</ele></trkpt><trkpt lat="45.965155" lon="10.301205"><time>2025-04-28T06:09:17.000Z</time><ele>435</ele></trkpt><trkpt lat="45.965136" lon="10.301196"><time>2025-04-28T06:09:18.000Z</time><ele>435</ele></trkpt><trkpt lat="45.965119" lon="10.301185"><time>2025-04-28T06:09:19.000Z</time><ele>435.2</ele></trkpt><trkpt lat="45.965115" lon="10.301179"><time>2025-04-28T06:09:20.000Z</time><ele>435.2</ele></trkpt><trkpt lat="45.965102" lon="10.30117"><time>2025-04-28T06:09:21.000Z</time><ele>435.4</ele></trkpt><trkpt lat="45.965093" lon="10.301167"><time>2025-04-28T06:09:22.000Z</time><ele>435.4</ele></trkpt><trkpt lat="45.965083" lon="10.301165"><time>2025-04-28T06:09:23.000Z</time><ele>435.6</ele></trkpt><trkpt lat="45.965084" lon="10.301146"><time>2025-04-28T06:09:24.000Z</time><ele>435.6</ele></trkpt><trkpt lat="45.965082" lon="10.30113"><time>2025-04-28T06:09:25.000Z</time><ele>435.8</ele></trkpt><trkpt lat="45.965074" lon="10.301119"><time>2025-04-28T06:09:26.000Z</time><ele>435.8</ele></trkpt><trkpt lat="45.965071" lon="10.301103"><time>2025-04-28T06:09:27.000Z</time><ele>436</ele></trkpt><trkpt lat="45.965063" lon="10.30109"><time>2025-04-28T06:09:28.000Z</time><ele>436</ele></trkpt><trkpt lat="45.965054" lon="10.301076"><time>2025-04-28T06:09:29.000Z</time><ele>436.2</ele></trkpt><trkpt lat="45.965046" lon="10.301065"><time>2025-04-28T06:09:30.000Z</time><ele>436.4</ele></trkpt><trkpt lat="45.965043" lon="10.301053"><time>2025-04-28T06:09:31.000Z</time><ele>436.4</ele></trkpt><trkpt lat="45.965039" lon="10.301038"><time>2025-04-28T06:09:32.000Z</time><ele>436.6</ele></trkpt><trkpt lat="45.965031" lon="10.301027"><time>2025-04-28T06:09:33.000Z</time><ele>436.8</ele></trkpt><trkpt lat="45.965024" lon="10.301013"><time>2025-04-28T06:09:34.000Z</time><ele>436.8</ele></trkpt><trkpt lat="45.965021" lon="10.300998"><time>2025-04-28T06:09:35.000Z</time><ele>437</ele></trkpt><trkpt lat="45.965017" lon="10.300985"><time>2025-04-28T06:09:36.000Z</time><ele>437.2</ele></trkpt><trkpt lat="45.96501" lon="10.300977"><time>2025-04-28T06:09:37.000Z</time><ele>437.4</ele></trkpt><trkpt lat="45.964998" lon="10.300961"><time>2025-04-28T06:09:38.000Z</time><ele>437.8</ele></trkpt><trkpt lat="45.964998" lon="10.30096"><time>2025-04-28T06:09:39.000Z</time><ele>438</ele></trkpt><trkpt lat="45.964993" lon="10.300954"><time>2025-04-28T06:09:40.000Z</time><ele>438.2</ele></trkpt><trkpt lat="45.964988" lon="10.300948"><time>2025-04-28T06:09:41.000Z</time><ele>438.4</ele></trkpt><trkpt lat="45.964982" lon="10.300944"><time>2025-04-28T06:09:42.000Z</time><ele>438.4</ele></trkpt><trkpt lat="45.964975" lon="10.300936"><time>2025-04-28T06:09:43.000Z</time><ele>438.8</ele></trkpt><trkpt lat="45.964966" lon="10.300926"><time>2025-04-28T06:09:44.000Z</time><ele>439</ele></trkpt><trkpt lat="45.964958" lon="10.300916"><time>2025-04-28T06:09:45.000Z</time><ele>439</ele></trkpt><trkpt lat="45.964947" lon="10.300908"><time>2025-04-28T06:09:46.000Z</time><ele>439.2</ele></trkpt><trkpt lat="45.964934" lon="10.300902"><time>2025-04-28T06:09:47.000Z</time><ele>439.2</ele></trkpt><trkpt lat="45.964922" lon="10.300896"><time>2025-04-28T06:09:48.000Z</time><ele>439.2</ele></trkpt><trkpt lat="45.964911" lon="10.300888"><time>2025-04-28T06:09:49.000Z</time><ele>439.2</ele></trkpt><trkpt lat="45.964902" lon="10.30088"><time>2025-04-28T06:09:50.000Z</time><ele>439.2</ele></trkpt><trkpt lat="45.964889" lon="10.30087"><time>2025-04-28T06:09:51.000Z</time><ele>439.2</ele></trkpt><trkpt lat="45.964876" lon="10.300862"><time>2025-04-28T06:09:52.000Z</time><ele>439.2</ele></trkpt><trkpt lat="45.964862" lon="10.300855"><time>2025-04-28T06:09:53.000Z</time><ele>439.2</ele></trkpt><trkpt lat="45.964851" lon="10.300848"><time>2025-04-28T06:09:54.000Z</time><ele>439.2</ele></trkpt><trkpt lat="45.964841" lon="10.300837"><time>2025-04-28T06:09:55.000Z</time><ele>439.2</ele></trkpt><trkpt lat="45.96483" lon="10.300829"><time>2025-04-28T06:09:56.000Z</time><ele>439.2</ele></trkpt><trkpt lat="45.964814" lon="10.300829"><time>2025-04-28T06:09:57.000Z</time><ele>439.4</ele></trkpt><trkpt lat="45.964802" lon="10.300829"><time>2025-04-28T06:09:58.000Z</time><ele>439.4</ele></trkpt><trkpt lat="45.964793" lon="10.300829"><time>2025-04-28T06:09:59.000Z</time><ele>439.4</ele></trkpt><trkpt lat="45.964769" lon="10.300835"><time>2025-04-28T06:10:00.000Z</time><ele>439.4</ele></trkpt><trkpt lat="45.964749" lon="10.300835"><time>2025-04-28T06:10:01.000Z</time><ele>439.6</ele></trkpt><trkpt lat="45.964738" lon="10.300834"><time>2025-04-28T06:10:02.000Z</time><ele>439.8</ele></trkpt><trkpt lat="45.964732" lon="10.300833"><time>2025-04-28T06:10:03.000Z</time><ele>439.8</ele></trkpt><trkpt lat="45.964723" lon="10.300838"><time>2025-04-28T06:10:04.000Z</time><ele>440</ele></trkpt><trkpt lat="45.964712" lon="10.300842"><time>2025-04-28T06:10:05.000Z</time><ele>440</ele></trkpt><trkpt lat="45.964699" lon="10.300843"><time>2025-04-28T06:10:06.000Z</time><ele>440</ele></trkpt><trkpt lat="45.96469" lon="10.300839"><time>2025-04-28T06:10:07.000Z</time><ele>440.2</ele></trkpt><trkpt lat="45.964678" lon="10.300834"><time>2025-04-28T06:10:08.000Z</time><ele>440.4</ele></trkpt><trkpt lat="45.964671" lon="10.300836"><time>2025-04-28T06:10:09.000Z</time><ele>440.4</ele></trkpt><trkpt lat="45.96466" lon="10.300835"><time>2025-04-28T06:10:10.000Z</time><ele>440.6</ele></trkpt><trkpt lat="45.964648" lon="10.30083"><time>2025-04-28T06:10:11.000Z</time><ele>440.8</ele></trkpt><trkpt lat="45.964636" lon="10.300825"><time>2025-04-28T06:10:12.000Z</time><ele>441</ele></trkpt><trkpt lat="45.964625" lon="10.300823"><time>2025-04-28T06:10:13.000Z</time><ele>441</ele></trkpt><trkpt lat="45.964615" lon="10.30082"><time>2025-04-28T06:10:14.000Z</time><ele>441.2</ele></trkpt><trkpt lat="45.964609" lon="10.300817"><time>2025-04-28T06:10:15.000Z</time><ele>441.4</ele></trkpt><trkpt lat="45.964608" lon="10.300806"><time>2025-04-28T06:10:16.000Z</time><ele>441.6</ele></trkpt><trkpt lat="45.96461" lon="10.300803"><time>2025-04-28T06:10:17.000Z</time><ele>441.6</ele></trkpt><trkpt lat="45.96461" lon="10.300801"><time>2025-04-28T06:10:18.000Z</time><ele>441.6</ele></trkpt><trkpt lat="45.964603" lon="10.300799"><time>2025-04-28T06:10:19.000Z</time><ele>441.8</ele></trkpt><trkpt lat="45.964594" lon="10.300796"><time>2025-04-28T06:10:20.000Z</time><ele>441.8</ele></trkpt><trkpt lat="45.964587" lon="10.300791"><time>2025-04-28T06:10:21.000Z</time><ele>442</ele></trkpt><trkpt lat="45.964583" lon="10.30078"><time>2025-04-28T06:10:22.000Z</time><ele>442</ele></trkpt><trkpt lat="45.964576" lon="10.300772"><time>2025-04-28T06:10:23.000Z</time><ele>441.8</ele></trkpt><trkpt lat="45.964568" lon="10.300764"><time>2025-04-28T06:10:24.000Z</time><ele>441.8</ele></trkpt><trkpt lat="45.964558" lon="10.300758"><time>2025-04-28T06:10:25.000Z</time><ele>441.8</ele></trkpt><trkpt lat="45.964551" lon="10.300744"><time>2025-04-28T06:10:26.000Z</time><ele>441.8</ele></trkpt><trkpt lat="45.964542" lon="10.300728"><time>2025-04-28T06:10:27.000Z</time><ele>441.6</ele></trkpt><trkpt lat="45.964536" lon="10.300713"><time>2025-04-28T06:10:28.000Z</time><ele>441.6</ele></trkpt><trkpt lat="45.964522" lon="10.300695"><time>2025-04-28T06:10:29.000Z</time><ele>441.4</ele></trkpt><trkpt lat="45.964514" lon="10.300678"><time>2025-04-28T06:10:30.000Z</time><ele>441.4</ele></trkpt><trkpt lat="45.964506" lon="10.300657"><time>2025-04-28T06:10:31.000Z</time><ele>441.4</ele></trkpt><trkpt lat="45.9645" lon="10.300637"><time>2025-04-28T06:10:32.000Z</time><ele>441.2</ele></trkpt><trkpt lat="45.964493" lon="10.30061"><time>2025-04-28T06:10:33.000Z</time><ele>441.2</ele></trkpt><trkpt lat="45.964487" lon="10.30059"><time>2025-04-28T06:10:34.000Z</time><ele>441.2</ele></trkpt><trkpt lat="45.964482" lon="10.300579"><time>2025-04-28T06:10:35.000Z</time><ele>441.2</ele></trkpt><trkpt lat="45.96448" lon="10.300564"><time>2025-04-28T06:10:36.000Z</time><ele>441.2</ele></trkpt><trkpt lat="45.964473" lon="10.300548"><time>2025-04-28T06:10:37.000Z</time><ele>441.2</ele></trkpt><trkpt lat="45.964467" lon="10.300535"><time>2025-04-28T06:10:38.000Z</time><ele>441.2</ele></trkpt><trkpt lat="45.964465" lon="10.300521"><time>2025-04-28T06:10:39.000Z</time><ele>441.2</ele></trkpt><trkpt lat="45.964466" lon="10.300501"><time>2025-04-28T06:10:40.000Z</time><ele>441.2</ele></trkpt><trkpt lat="45.964468" lon="10.300477"><time>2025-04-28T06:10:41.000Z</time><ele>441.2</ele></trkpt><trkpt lat="45.964465" lon="10.300457"><time>2025-04-28T06:10:42.000Z</time><ele>441.4</ele></trkpt><trkpt lat="45.964459" lon="10.300441"><time>2025-04-28T06:10:43.000Z</time><ele>441.4</ele></trkpt><trkpt lat="45.964456" lon="10.300424"><time>2025-04-28T06:10:44.000Z</time><ele>441.4</ele></trkpt><trkpt lat="45.96445" lon="10.300404"><time>2025-04-28T06:10:45.000Z</time><ele>441.6</ele></trkpt><trkpt lat="45.964447" lon="10.300383"><time>2025-04-28T06:10:46.000Z</time><ele>441.8</ele></trkpt><trkpt lat="45.964447" lon="10.300364"><time>2025-04-28T06:10:47.000Z</time><ele>441.8</ele></trkpt><trkpt lat="45.964447" lon="10.300349"><time>2025-04-28T06:10:48.000Z</time><ele>441.8</ele></trkpt><trkpt lat="45.964444" lon="10.300336"><time>2025-04-28T06:10:49.000Z</time><ele>442</ele></trkpt><trkpt lat="45.964436" lon="10.300323"><time>2025-04-28T06:10:50.000Z</time><ele>442</ele></trkpt><trkpt lat="45.964425" lon="10.300315"><time>2025-04-28T06:10:51.000Z</time><ele>442.2</ele></trkpt><trkpt lat="45.964417" lon="10.300307"><time>2025-04-28T06:10:52.000Z</time><ele>442.4</ele></trkpt><trkpt lat="45.964413" lon="10.300295"><time>2025-04-28T06:10:53.000Z</time><ele>442.6</ele></trkpt><trkpt lat="45.964408" lon="10.300283"><time>2025-04-28T06:10:54.000Z</time><ele>442.8</ele></trkpt><trkpt lat="45.964406" lon="10.300272"><time>2025-04-28T06:10:55.000Z</time><ele>443</ele></trkpt><trkpt lat="45.964397" lon="10.300263"><time>2025-04-28T06:10:56.000Z</time><ele>443.2</ele></trkpt><trkpt lat="45.964384" lon="10.300259"><time>2025-04-28T06:10:57.000Z</time><ele>443.2</ele></trkpt><trkpt lat="45.964376" lon="10.300254"><time>2025-04-28T06:10:58.000Z</time><ele>443.4</ele></trkpt><trkpt lat="45.964364" lon="10.30027"><time>2025-04-28T06:10:59.000Z</time><ele>443.4</ele></trkpt><trkpt lat="45.964352" lon="10.30027"><time>2025-04-28T06:11:00.000Z</time><ele>443.6</ele></trkpt><trkpt lat="45.964342" lon="10.300264"><time>2025-04-28T06:11:01.000Z</time><ele>443.6</ele></trkpt><trkpt lat="45.964332" lon="10.300257"><time>2025-04-28T06:11:02.000Z</time><ele>443.6</ele></trkpt><trkpt lat="45.964325" lon="10.300243"><time>2025-04-28T06:11:03.000Z</time><ele>443.8</ele></trkpt><trkpt lat="45.964317" lon="10.300233"><time>2025-04-28T06:11:04.000Z</time><ele>443.8</ele></trkpt><trkpt lat="45.964301" lon="10.300229"><time>2025-04-28T06:11:05.000Z</time><ele>443.8</ele></trkpt><trkpt lat="45.964288" lon="10.300226"><time>2025-04-28T06:11:06.000Z</time><ele>443.8</ele></trkpt><trkpt lat="45.964278" lon="10.300226"><time>2025-04-28T06:11:07.000Z</time><ele>444</ele></trkpt><trkpt lat="45.96427" lon="10.300233"><time>2025-04-28T06:11:08.000Z</time><ele>444.2</ele></trkpt><trkpt lat="45.964263" lon="10.30024"><time>2025-04-28T06:11:09.000Z</time><ele>444.4</ele></trkpt><trkpt lat="45.964251" lon="10.300245"><time>2025-04-28T06:11:10.000Z</time><ele>444.6</ele></trkpt><trkpt lat="45.964243" lon="10.300252"><time>2025-04-28T06:11:11.000Z</time><ele>444.8</ele></trkpt><trkpt lat="45.964231" lon="10.300259"><time>2025-04-28T06:11:12.000Z</time><ele>445</ele></trkpt><trkpt lat="45.964219" lon="10.300272"><time>2025-04-28T06:11:13.000Z</time><ele>445.2</ele></trkpt><trkpt lat="45.964206" lon="10.300273"><time>2025-04-28T06:11:14.000Z</time><ele>445.6</ele></trkpt><trkpt lat="45.964191" lon="10.300274"><time>2025-04-28T06:11:15.000Z</time><ele>445.8</ele></trkpt><trkpt lat="45.964177" lon="10.300273"><time>2025-04-28T06:11:16.000Z</time><ele>445.8</ele></trkpt><trkpt lat="45.964166" lon="10.300273"><time>2025-04-28T06:11:17.000Z</time><ele>446</ele></trkpt><trkpt lat="45.964161" lon="10.300267"><time>2025-04-28T06:11:18.000Z</time><ele>446</ele></trkpt><trkpt lat="45.964156" lon="10.300266"><time>2025-04-28T06:11:19.000Z</time><ele>446.2</ele></trkpt><trkpt lat="45.964148" lon="10.300265"><time>2025-04-28T06:11:20.000Z</time><ele>446.4</ele></trkpt><trkpt lat="45.964135" lon="10.300267"><time>2025-04-28T06:11:21.000Z</time><ele>446.6</ele></trkpt><trkpt lat="45.964123" lon="10.30027"><time>2025-04-28T06:11:22.000Z</time><ele>446.8</ele></trkpt><trkpt lat="45.964111" lon="10.300271"><time>2025-04-28T06:11:23.000Z</time><ele>446.8</ele></trkpt><trkpt lat="45.964102" lon="10.300271"><time>2025-04-28T06:11:24.000Z</time><ele>447</ele></trkpt><trkpt lat="45.964092" lon="10.300272"><time>2025-04-28T06:11:25.000Z</time><ele>447.2</ele></trkpt><trkpt lat="45.964085" lon="10.300267"><time>2025-04-28T06:11:26.000Z</time><ele>447.4</ele></trkpt><trkpt lat="45.964082" lon="10.300257"><time>2025-04-28T06:11:27.000Z</time><ele>447.6</ele></trkpt><trkpt lat="45.964076" lon="10.300248"><time>2025-04-28T06:11:28.000Z</time><ele>447.8</ele></trkpt><trkpt lat="45.964069" lon="10.300239"><time>2025-04-28T06:11:29.000Z</time><ele>448</ele></trkpt><trkpt lat="45.964061" lon="10.300232"><time>2025-04-28T06:11:30.000Z</time><ele>448.2</ele></trkpt><trkpt lat="45.964051" lon="10.300232"><time>2025-04-28T06:11:31.000Z</time><ele>448.4</ele></trkpt><trkpt lat="45.964034" lon="10.30023"><time>2025-04-28T06:11:32.000Z</time><ele>448.4</ele></trkpt><trkpt lat="45.964016" lon="10.300227"><time>2025-04-28T06:11:33.000Z</time><ele>448.6</ele></trkpt><trkpt lat="45.964002" lon="10.300217"><time>2025-04-28T06:11:34.000Z</time><ele>448.6</ele></trkpt><trkpt lat="45.963991" lon="10.300207"><time>2025-04-28T06:11:35.000Z</time><ele>448.6</ele></trkpt><trkpt lat="45.963984" lon="10.3002"><time>2025-04-28T06:11:36.000Z</time><ele>448.8</ele></trkpt><trkpt lat="45.963968" lon="10.300205"><time>2025-04-28T06:11:37.000Z</time><ele>448.8</ele></trkpt><trkpt lat="45.963953" lon="10.300206"><time>2025-04-28T06:11:38.000Z</time><ele>449</ele></trkpt><trkpt lat="45.963932" lon="10.300207"><time>2025-04-28T06:11:39.000Z</time><ele>449</ele></trkpt><trkpt lat="45.963914" lon="10.300206"><time>2025-04-28T06:11:40.000Z</time><ele>449.2</ele></trkpt><trkpt lat="45.963898" lon="10.300203"><time>2025-04-28T06:11:41.000Z</time><ele>449.4</ele></trkpt><trkpt lat="45.963875" lon="10.30021"><time>2025-04-28T06:11:42.000Z</time><ele>449.6</ele></trkpt><trkpt lat="45.963857" lon="10.300213"><time>2025-04-28T06:11:43.000Z</time><ele>449.6</ele></trkpt><trkpt lat="45.963832" lon="10.300218"><time>2025-04-28T06:11:44.000Z</time><ele>449.8</ele></trkpt><trkpt lat="45.963821" lon="10.30022"><time>2025-04-28T06:11:45.000Z</time><ele>450</ele></trkpt><trkpt lat="45.963818" lon="10.300219"><time>2025-04-28T06:11:46.000Z</time><ele>450.2</ele></trkpt><trkpt lat="45.963819" lon="10.300216"><time>2025-04-28T06:11:47.000Z</time><ele>450.6</ele></trkpt><trkpt lat="45.96382" lon="10.300213"><time>2025-04-28T06:11:48.000Z</time><ele>450.6</ele></trkpt><trkpt lat="45.963819" lon="10.300203"><time>2025-04-28T06:11:49.000Z</time><ele>450.8</ele></trkpt><trkpt lat="45.96382" lon="10.300202"><time>2025-04-28T06:11:50.000Z</time><ele>450.8</ele></trkpt><trkpt lat="45.96381" lon="10.300209"><time>2025-04-28T06:11:51.000Z</time><ele>450.8</ele></trkpt><trkpt lat="45.963806" lon="10.30021"><time>2025-04-28T06:11:52.000Z</time><ele>450.8</ele></trkpt><trkpt lat="45.963802" lon="10.300216"><time>2025-04-28T06:11:53.000Z</time><ele>450.8</ele></trkpt><trkpt lat="45.963798" lon="10.300222"><time>2025-04-28T06:11:54.000Z</time><ele>450.8</ele></trkpt><trkpt lat="45.963791" lon="10.30023"><time>2025-04-28T06:11:55.000Z</time><ele>450.8</ele></trkpt><trkpt lat="45.963787" lon="10.300247"><time>2025-04-28T06:11:56.000Z</time><ele>450.8</ele></trkpt><trkpt lat="45.96378" lon="10.300262"><time>2025-04-28T06:11:57.000Z</time><ele>451</ele></trkpt><trkpt lat="45.963769" lon="10.300267"><time>2025-04-28T06:11:58.000Z</time><ele>451</ele></trkpt><trkpt lat="45.963772" lon="10.300276"><time>2025-04-28T06:11:59.000Z</time><ele>451</ele></trkpt><trkpt lat="45.963775" lon="10.300286"><time>2025-04-28T06:12:00.000Z</time><ele>451</ele></trkpt><trkpt lat="45.96377" lon="10.300297"><time>2025-04-28T06:12:01.000Z</time><ele>451</ele></trkpt><trkpt lat="45.963768" lon="10.300303"><time>2025-04-28T06:12:02.000Z</time><ele>451.2</ele></trkpt><trkpt lat="45.963766" lon="10.300303"><time>2025-04-28T06:12:03.000Z</time><ele>451.2</ele></trkpt><trkpt lat="45.963767" lon="10.30031"><time>2025-04-28T06:12:04.000Z</time><ele>451.4</ele></trkpt><trkpt lat="45.963768" lon="10.300309"><time>2025-04-28T06:12:05.000Z</time><ele>451.4</ele></trkpt><trkpt lat="45.963768" lon="10.300308"><time>2025-04-28T06:12:06.000Z</time><ele>451.4</ele></trkpt><trkpt lat="45.963769" lon="10.300307"><time>2025-04-28T06:12:07.000Z</time><ele>451.4</ele></trkpt><trkpt lat="45.963769" lon="10.300304"><time>2025-04-28T06:12:08.000Z</time><ele>451.6</ele></trkpt><trkpt lat="45.963765" lon="10.300298"><time>2025-04-28T06:12:09.000Z</time><ele>451.6</ele></trkpt><trkpt lat="45.963764" lon="10.300299"><time>2025-04-28T06:12:10.000Z</time><ele>451.6</ele></trkpt><trkpt lat="45.963765" lon="10.300302"><time>2025-04-28T06:12:11.000Z</time><ele>451.6</ele></trkpt><trkpt lat="45.963766" lon="10.300303"><time>2025-04-28T06:12:12.000Z</time><ele>451.6</ele></trkpt><trkpt lat="45.963767" lon="10.300303"><time>2025-04-28T06:12:13.000Z</time><ele>451.6</ele></trkpt><trkpt lat="45.963773" lon="10.300312"><time>2025-04-28T06:12:14.000Z</time><ele>451.6</ele></trkpt><trkpt lat="45.963776" lon="10.300312"><time>2025-04-28T06:12:15.000Z</time><ele>451.6</ele></trkpt><trkpt lat="45.963776" lon="10.30031"><time>2025-04-28T06:12:16.000Z</time><ele>451.6</ele></trkpt><trkpt lat="45.963774" lon="10.300312"><time>2025-04-28T06:12:17.000Z</time><ele>451.4</ele></trkpt><trkpt lat="45.963775" lon="10.300315"><time>2025-04-28T06:12:18.000Z</time><ele>451.4</ele></trkpt><trkpt lat="45.963777" lon="10.300311"><time>2025-04-28T06:12:19.000Z</time><ele>451.4</ele></trkpt><trkpt lat="45.963779" lon="10.300311"><time>2025-04-28T06:12:20.000Z</time><ele>451.4</ele></trkpt><trkpt lat="45.963779" lon="10.30031"><time>2025-04-28T06:12:21.000Z</time><ele>451.6</ele></trkpt><trkpt lat="45.963779" lon="10.30031"><time>2025-04-28T06:12:22.000Z</time><ele>451.6</ele></trkpt><trkpt lat="45.963779" lon="10.30031"><time>2025-04-28T06:12:23.000Z</time><ele>451.8</ele></trkpt><trkpt lat="45.963779" lon="10.30031"><time>2025-04-28T06:12:24.000Z</time><ele>451.8</ele></trkpt><trkpt lat="45.963779" lon="10.30031"><time>2025-04-28T06:12:25.000Z</time><ele>451.6</ele></trkpt><trkpt lat="45.963779" lon="10.30031"><time>2025-04-28T06:12:26.000Z</time><ele>451.6</ele></trkpt><trkpt lat="45.963779" lon="10.30031"><time>2025-04-28T06:12:27.000Z</time><ele>451.6</ele></trkpt><trkpt lat="45.963779" lon="10.30031"><time>2025-04-28T06:12:28.000Z</time><ele>451.6</ele></trkpt><trkpt lat="45.963779" lon="10.30031"><time>2025-04-28T06:12:29.000Z</time><ele>451.6</ele></trkpt><trkpt lat="45.963779" lon="10.30031"><time>2025-04-28T06:12:30.000Z</time><ele>451.6</ele></trkpt><trkpt lat="45.963779" lon="10.30031"><time>2025-04-28T06:12:31.000Z</time><ele>451.6</ele></trkpt><trkpt lat="45.963779" lon="10.30031"><time>2025-04-28T06:12:32.000Z</time><ele>451.6</ele></trkpt><trkpt lat="45.963779" lon="10.30031"><time>2025-04-28T06:12:33.000Z</time><ele>451.4</ele></trkpt><trkpt lat="45.963779" lon="10.30031"><time>2025-04-28T06:12:34.000Z</time><ele>451.4</ele></trkpt><trkpt lat="45.963779" lon="10.30031"><time>2025-04-28T06:12:35.000Z</time><ele>451.4</ele></trkpt><trkpt lat="45.963779" lon="10.300309"><time>2025-04-28T06:12:36.000Z</time><ele>451.4</ele></trkpt><trkpt lat="45.963779" lon="10.300309"><time>2025-04-28T06:12:37.000Z</time><ele>451.4</ele></trkpt><trkpt lat="45.963779" lon="10.300308"><time>2025-04-28T06:12:38.000Z</time><ele>451.4</ele></trkpt><trkpt lat="45.963779" lon="10.300308"><time>2025-04-28T06:12:39.000Z</time><ele>451.4</ele></trkpt><trkpt lat="45.963779" lon="10.300308"><time>2025-04-28T06:12:40.000Z</time><ele>451.4</ele></trkpt><trkpt lat="45.963781" lon="10.300308"><time>2025-04-28T06:12:41.000Z</time><ele>451.4</ele></trkpt><trkpt lat="45.963781" lon="10.300308"><time>2025-04-28T06:12:42.000Z</time><ele>451.4</ele></trkpt><trkpt lat="45.963783" lon="10.300308"><time>2025-04-28T06:12:43.000Z</time><ele>451.4</ele></trkpt><trkpt lat="45.963784" lon="10.300308"><time>2025-04-28T06:12:44.000Z</time><ele>451.4</ele></trkpt><trkpt lat="45.963784" lon="10.300308"><time>2025-04-28T06:12:45.000Z</time><ele>451.4</ele></trkpt><trkpt lat="45.963785" lon="10.300308"><time>2025-04-28T06:12:46.000Z</time><ele>451.2</ele></trkpt><trkpt lat="45.963785" lon="10.300307"><time>2025-04-28T06:12:47.000Z</time><ele>451.2</ele></trkpt><trkpt lat="45.963785" lon="10.300307"><time>2025-04-28T06:12:48.000Z</time><ele>451.2</ele></trkpt><trkpt lat="45.963785" lon="10.300307"><time>2025-04-28T06:12:49.000Z</time><ele>451.2</ele></trkpt><trkpt lat="45.963786" lon="10.300306"><time>2025-04-28T06:12:50.000Z</time><ele>451.2</ele></trkpt><trkpt lat="45.963786" lon="10.300306"><time>2025-04-28T06:12:51.000Z</time><ele>451.2</ele></trkpt><trkpt lat="45.963787" lon="10.300306"><time>2025-04-28T06:12:52.000Z</time><ele>451.2</ele></trkpt><trkpt lat="45.963788" lon="10.300305"><time>2025-04-28T06:12:53.000Z</time><ele>451.2</ele></trkpt><trkpt lat="45.963788" lon="10.300305"><time>2025-04-28T06:12:54.000Z</time><ele>451.2</ele></trkpt><trkpt lat="45.963788" lon="10.300305"><time>2025-04-28T06:12:55.000Z</time><ele>451.2</ele></trkpt><trkpt lat="45.963788" lon="10.300305"><time>2025-04-28T06:12:56.000Z</time><ele>451.2</ele></trkpt><trkpt lat="45.963789" lon="10.300304"><time>2025-04-28T06:12:57.000Z</time><ele>451.2</ele></trkpt><trkpt lat="45.963789" lon="10.300304"><time>2025-04-28T06:12:58.000Z</time><ele>451.2</ele></trkpt><trkpt lat="45.963795" lon="10.300304"><time>2025-04-28T06:12:59.000Z</time><ele>451.2</ele></trkpt><trkpt lat="45.963798" lon="10.300304"><time>2025-04-28T06:13:00.000Z</time><ele>451.2</ele></trkpt><trkpt lat="45.963799" lon="10.300304"><time>2025-04-28T06:13:01.000Z</time><ele>451.2</ele></trkpt><trkpt lat="45.9638" lon="10.300303"><time>2025-04-28T06:13:02.000Z</time><ele>451.2</ele></trkpt><trkpt lat="45.963801" lon="10.300303"><time>2025-04-28T06:13:03.000Z</time><ele>451.2</ele></trkpt><trkpt lat="45.963802" lon="10.300298"><time>2025-04-28T06:13:04.000Z</time><ele>451.2</ele></trkpt><trkpt lat="45.963802" lon="10.300296"><time>2025-04-28T06:13:05.000Z</time><ele>451.2</ele></trkpt><trkpt lat="45.963802" lon="10.300294"><time>2025-04-28T06:13:06.000Z</time><ele>451.2</ele></trkpt><trkpt lat="45.963803" lon="10.300286"><time>2025-04-28T06:13:07.000Z</time><ele>451.2</ele></trkpt><trkpt lat="45.963803" lon="10.300265"><time>2025-04-28T06:13:08.000Z</time><ele>451.2</ele></trkpt><trkpt lat="45.963803" lon="10.300246"><time>2025-04-28T06:13:09.000Z</time><ele>451.2</ele></trkpt><trkpt lat="45.963806" lon="10.300228"><time>2025-04-28T06:13:10.000Z</time><ele>451.2</ele></trkpt><trkpt lat="45.963808" lon="10.300212"><time>2025-04-28T06:13:11.000Z</time><ele>451.2</ele></trkpt><trkpt lat="45.963808" lon="10.300195"><time>2025-04-28T06:13:12.000Z</time><ele>451.2</ele></trkpt><trkpt lat="45.96381" lon="10.300176"><time>2025-04-28T06:13:13.000Z</time><ele>451.2</ele></trkpt><trkpt lat="45.963813" lon="10.300152"><time>2025-04-28T06:13:14.000Z</time><ele>451.2</ele></trkpt><trkpt lat="45.963811" lon="10.300138"><time>2025-04-28T06:13:15.000Z</time><ele>451.2</ele></trkpt><trkpt lat="45.963813" lon="10.300125"><time>2025-04-28T06:13:16.000Z</time><ele>451.2</ele></trkpt><trkpt lat="45.963817" lon="10.300128"><time>2025-04-28T06:13:17.000Z</time><ele>451.2</ele></trkpt><trkpt lat="45.963818" lon="10.300123"><time>2025-04-28T06:13:18.000Z</time><ele>452.2</ele></trkpt><trkpt lat="45.963819" lon="10.300114"><time>2025-04-28T06:13:19.000Z</time><ele>453</ele></trkpt><trkpt lat="45.963819" lon="10.300106"><time>2025-04-28T06:13:20.000Z</time><ele>453.4</ele></trkpt><trkpt lat="45.96382" lon="10.300102"><time>2025-04-28T06:13:21.000Z</time><ele>453.8</ele></trkpt><trkpt lat="45.963818" lon="10.300104"><time>2025-04-28T06:13:22.000Z</time><ele>454.2</ele></trkpt><trkpt lat="45.963816" lon="10.300103"><time>2025-04-28T06:13:23.000Z</time><ele>454.4</ele></trkpt><trkpt lat="45.963815" lon="10.300098"><time>2025-04-28T06:13:24.000Z</time><ele>454.6</ele></trkpt><trkpt lat="45.963812" lon="10.300089"><time>2025-04-28T06:13:25.000Z</time><ele>454.8</ele></trkpt><trkpt lat="45.963814" lon="10.300078"><time>2025-04-28T06:13:26.000Z</time><ele>454.8</ele></trkpt><trkpt lat="45.963817" lon="10.300067"><time>2025-04-28T06:13:27.000Z</time><ele>455</ele></trkpt><trkpt lat="45.963822" lon="10.300059"><time>2025-04-28T06:13:28.000Z</time><ele>455.4</ele></trkpt><trkpt lat="45.963826" lon="10.300042"><time>2025-04-28T06:13:29.000Z</time><ele>455.6</ele></trkpt><trkpt lat="45.963826" lon="10.30003"><time>2025-04-28T06:13:30.000Z</time><ele>455.8</ele></trkpt><trkpt lat="45.963823" lon="10.300024"><time>2025-04-28T06:13:31.000Z</time><ele>456</ele></trkpt><trkpt lat="45.963822" lon="10.300018"><time>2025-04-28T06:13:32.000Z</time><ele>456.2</ele></trkpt><trkpt lat="45.963821" lon="10.300009"><time>2025-04-28T06:13:33.000Z</time><ele>456.2</ele></trkpt><trkpt lat="45.963823" lon="10.299995"><time>2025-04-28T06:13:34.000Z</time><ele>456.6</ele></trkpt><trkpt lat="45.963824" lon="10.299986"><time>2025-04-28T06:13:35.000Z</time><ele>456.6</ele></trkpt><trkpt lat="45.963824" lon="10.29998"><time>2025-04-28T06:13:36.000Z</time><ele>456.8</ele></trkpt><trkpt lat="45.963823" lon="10.299973"><time>2025-04-28T06:13:37.000Z</time><ele>457</ele></trkpt><trkpt lat="45.963822" lon="10.299972"><time>2025-04-28T06:13:38.000Z</time><ele>457</ele></trkpt><trkpt lat="45.963825" lon="10.299961"><time>2025-04-28T06:13:39.000Z</time><ele>457</ele></trkpt><trkpt lat="45.96383" lon="10.299954"><time>2025-04-28T06:13:40.000Z</time><ele>457.2</ele></trkpt><trkpt lat="45.963831" lon="10.299944"><time>2025-04-28T06:13:41.000Z</time><ele>457.2</ele></trkpt><trkpt lat="45.963821" lon="10.299948"><time>2025-04-28T06:13:42.000Z</time><ele>457.4</ele></trkpt><trkpt lat="45.963812" lon="10.29995"><time>2025-04-28T06:13:43.000Z</time><ele>457.6</ele></trkpt><trkpt lat="45.963809" lon="10.299949"><time>2025-04-28T06:13:44.000Z</time><ele>457.6</ele></trkpt><trkpt lat="45.963808" lon="10.299942"><time>2025-04-28T06:13:45.000Z</time><ele>457.6</ele></trkpt><trkpt lat="45.963806" lon="10.299944"><time>2025-04-28T06:13:46.000Z</time><ele>457.6</ele></trkpt><trkpt lat="45.963805" lon="10.299946"><time>2025-04-28T06:13:47.000Z</time><ele>457.6</ele></trkpt><trkpt lat="45.96381" lon="10.299938"><time>2025-04-28T06:13:48.000Z</time><ele>457.8</ele></trkpt><trkpt lat="45.963809" lon="10.299936"><time>2025-04-28T06:13:49.000Z</time><ele>457.8</ele></trkpt><trkpt lat="45.963803" lon="10.299935"><time>2025-04-28T06:13:50.000Z</time><ele>457.8</ele></trkpt><trkpt lat="45.963804" lon="10.299933"><time>2025-04-28T06:13:51.000Z</time><ele>458</ele></trkpt><trkpt lat="45.963807" lon="10.299924"><time>2025-04-28T06:13:52.000Z</time><ele>458.2</ele></trkpt><trkpt lat="45.963809" lon="10.299917"><time>2025-04-28T06:13:53.000Z</time><ele>458.2</ele></trkpt><trkpt lat="45.96381" lon="10.299912"><time>2025-04-28T06:13:54.000Z</time><ele>458.6</ele></trkpt><trkpt lat="45.963809" lon="10.299907"><time>2025-04-28T06:13:55.000Z</time><ele>458.8</ele></trkpt><trkpt lat="45.963807" lon="10.299905"><time>2025-04-28T06:13:56.000Z</time><ele>459</ele></trkpt><trkpt lat="45.963807" lon="10.299899"><time>2025-04-28T06:13:57.000Z</time><ele>459.2</ele></trkpt><trkpt lat="45.963807" lon="10.299898"><time>2025-04-28T06:13:58.000Z</time><ele>459.4</ele></trkpt><trkpt lat="45.963807" lon="10.299898"><time>2025-04-28T06:13:59.000Z</time><ele>459.6</ele></trkpt><trkpt lat="45.963803" lon="10.299896"><time>2025-04-28T06:14:00.000Z</time><ele>459.6</ele></trkpt><trkpt lat="45.963805" lon="10.299886"><time>2025-04-28T06:14:01.000Z</time><ele>460</ele></trkpt><trkpt lat="45.963807" lon="10.299879"><time>2025-04-28T06:14:02.000Z</time><ele>460.2</ele></trkpt><trkpt lat="45.963808" lon="10.299871"><time>2025-04-28T06:14:03.000Z</time><ele>460.4</ele></trkpt><trkpt lat="45.963804" lon="10.299865"><time>2025-04-28T06:14:04.000Z</time><ele>460.6</ele></trkpt><trkpt lat="45.963804" lon="10.299852"><time>2025-04-28T06:14:05.000Z</time><ele>460.8</ele></trkpt><trkpt lat="45.963802" lon="10.299844"><time>2025-04-28T06:14:06.000Z</time><ele>461</ele></trkpt><trkpt lat="45.963804" lon="10.299841"><time>2025-04-28T06:14:07.000Z</time><ele>461.2</ele></trkpt><trkpt lat="45.963806" lon="10.299836"><time>2025-04-28T06:14:08.000Z</time><ele>461.4</ele></trkpt><trkpt lat="45.963803" lon="10.299831"><time>2025-04-28T06:14:09.000Z</time><ele>461.6</ele></trkpt><trkpt lat="45.963806" lon="10.299825"><time>2025-04-28T06:14:10.000Z</time><ele>461.8</ele></trkpt><trkpt lat="45.963811" lon="10.299816"><time>2025-04-28T06:14:11.000Z</time><ele>462</ele></trkpt><trkpt lat="45.963812" lon="10.299808"><time>2025-04-28T06:14:12.000Z</time><ele>462</ele></trkpt><trkpt lat="45.963814" lon="10.299801"><time>2025-04-28T06:14:13.000Z</time><ele>462.2</ele></trkpt><trkpt lat="45.963814" lon="10.299797"><time>2025-04-28T06:14:14.000Z</time><ele>462.4</ele></trkpt><trkpt lat="45.963813" lon="10.299792"><time>2025-04-28T06:14:15.000Z</time><ele>462.6</ele></trkpt><trkpt lat="45.963812" lon="10.29979"><time>2025-04-28T06:14:16.000Z</time><ele>462.8</ele></trkpt><trkpt lat="45.963817" lon="10.29978"><time>2025-04-28T06:14:17.000Z</time><ele>463</ele></trkpt><trkpt lat="45.963819" lon="10.299768"><time>2025-04-28T06:14:18.000Z</time><ele>463.2</ele></trkpt><trkpt lat="45.963822" lon="10.299755"><time>2025-04-28T06:14:19.000Z</time><ele>463.2</ele></trkpt><trkpt lat="45.963824" lon="10.299743"><time>2025-04-28T06:14:20.000Z</time><ele>463.4</ele></trkpt><trkpt lat="45.963827" lon="10.299734"><time>2025-04-28T06:14:21.000Z</time><ele>463.6</ele></trkpt><trkpt lat="45.963829" lon="10.299727"><time>2025-04-28T06:14:22.000Z</time><ele>463.8</ele></trkpt><trkpt lat="45.963832" lon="10.299723"><time>2025-04-28T06:14:23.000Z</time><ele>464</ele></trkpt><trkpt lat="45.963837" lon="10.299713"><time>2025-04-28T06:14:24.000Z</time><ele>464.2</ele></trkpt><trkpt lat="45.963844" lon="10.299706"><time>2025-04-28T06:14:25.000Z</time><ele>464.4</ele></trkpt><trkpt lat="45.963848" lon="10.299699"><time>2025-04-28T06:14:26.000Z</time><ele>464.6</ele></trkpt><trkpt lat="45.963849" lon="10.299695"><time>2025-04-28T06:14:27.000Z</time><ele>464.8</ele></trkpt><trkpt lat="45.963849" lon="10.299686"><time>2025-04-28T06:14:28.000Z</time><ele>465</ele></trkpt><trkpt lat="45.963851" lon="10.299681"><time>2025-04-28T06:14:29.000Z</time><ele>465.2</ele></trkpt><trkpt lat="45.963852" lon="10.299672"><time>2025-04-28T06:14:30.000Z</time><ele>465.4</ele></trkpt><trkpt lat="45.963854" lon="10.299666"><time>2025-04-28T06:14:31.000Z</time><ele>465.6</ele></trkpt><trkpt lat="45.963859" lon="10.299658"><time>2025-04-28T06:14:32.000Z</time><ele>465.6</ele></trkpt><trkpt lat="45.963855" lon="10.299651"><time>2025-04-28T06:14:33.000Z</time><ele>466</ele></trkpt><trkpt lat="45.963855" lon="10.299641"><time>2025-04-28T06:14:34.000Z</time><ele>466</ele></trkpt><trkpt lat="45.963861" lon="10.299634"><time>2025-04-28T06:14:35.000Z</time><ele>466.2</ele></trkpt><trkpt lat="45.963875" lon="10.29962"><time>2025-04-28T06:14:36.000Z</time><ele>466.6</ele></trkpt><trkpt lat="45.963884" lon="10.299609"><time>2025-04-28T06:14:37.000Z</time><ele>466.6</ele></trkpt><trkpt lat="45.963889" lon="10.299598"><time>2025-04-28T06:14:38.000Z</time><ele>466.8</ele></trkpt><trkpt lat="45.96389" lon="10.299596"><time>2025-04-28T06:14:39.000Z</time><ele>467.2</ele></trkpt><trkpt lat="45.963888" lon="10.299595"><time>2025-04-28T06:14:40.000Z</time><ele>467.2</ele></trkpt><trkpt lat="45.963885" lon="10.299597"><time>2025-04-28T06:14:41.000Z</time><ele>467.6</ele></trkpt><trkpt lat="45.963885" lon="10.299597"><time>2025-04-28T06:14:42.000Z</time><ele>467.8</ele></trkpt><trkpt lat="45.963891" lon="10.299596"><time>2025-04-28T06:14:43.000Z</time><ele>467.8</ele></trkpt><trkpt lat="45.963892" lon="10.299604"><time>2025-04-28T06:14:44.000Z</time><ele>468</ele></trkpt><trkpt lat="45.963894" lon="10.299613"><time>2025-04-28T06:14:45.000Z</time><ele>468.2</ele></trkpt><trkpt lat="45.963894" lon="10.299619"><time>2025-04-28T06:14:46.000Z</time><ele>468.6</ele></trkpt><trkpt lat="45.963897" lon="10.299614"><time>2025-04-28T06:14:47.000Z</time><ele>468.8</ele></trkpt><trkpt lat="45.963906" lon="10.29961"><time>2025-04-28T06:14:48.000Z</time><ele>468.8</ele></trkpt><trkpt lat="45.963912" lon="10.29961"><time>2025-04-28T06:14:49.000Z</time><ele>469</ele></trkpt><trkpt lat="45.963919" lon="10.299612"><time>2025-04-28T06:14:50.000Z</time><ele>469</ele></trkpt><trkpt lat="45.963923" lon="10.299613"><time>2025-04-28T06:14:51.000Z</time><ele>469.4</ele></trkpt><trkpt lat="45.963923" lon="10.299615"><time>2025-04-28T06:14:52.000Z</time><ele>469.6</ele></trkpt><trkpt lat="45.963923" lon="10.299619"><time>2025-04-28T06:14:53.000Z</time><ele>469.8</ele></trkpt><trkpt lat="45.963926" lon="10.29962"><time>2025-04-28T06:14:54.000Z</time><ele>470</ele></trkpt><trkpt lat="45.963929" lon="10.299618"><time>2025-04-28T06:14:55.000Z</time><ele>470.2</ele></trkpt><trkpt lat="45.963936" lon="10.299607"><time>2025-04-28T06:14:56.000Z</time><ele>470.4</ele></trkpt><trkpt lat="45.96394" lon="10.299595"><time>2025-04-28T06:14:57.000Z</time><ele>470.4</ele></trkpt><trkpt lat="45.96394" lon="10.299593"><time>2025-04-28T06:14:58.000Z</time><ele>470.6</ele></trkpt><trkpt lat="45.96394" lon="10.299591"><time>2025-04-28T06:14:59.000Z</time><ele>470.8</ele></trkpt><trkpt lat="45.963941" lon="10.299588"><time>2025-04-28T06:15:00.000Z</time><ele>470.8</ele></trkpt><trkpt lat="45.963941" lon="10.299586"><time>2025-04-28T06:15:01.000Z</time><ele>471</ele></trkpt><trkpt lat="45.963942" lon="10.299571"><time>2025-04-28T06:15:02.000Z</time><ele>471.2</ele></trkpt><trkpt lat="45.963943" lon="10.299565"><time>2025-04-28T06:15:03.000Z</time><ele>471.4</ele></trkpt><trkpt lat="45.96394" lon="10.299558"><time>2025-04-28T06:15:04.000Z</time><ele>471.6</ele></trkpt><trkpt lat="45.963936" lon="10.299553"><time>2025-04-28T06:15:05.000Z</time><ele>471.8</ele></trkpt><trkpt lat="45.963934" lon="10.299545"><time>2025-04-28T06:15:06.000Z</time><ele>472</ele></trkpt><trkpt lat="45.963943" lon="10.299526"><time>2025-04-28T06:15:07.000Z</time><ele>472</ele></trkpt><trkpt lat="45.963953" lon="10.299517"><time>2025-04-28T06:15:08.000Z</time><ele>472.2</ele></trkpt><trkpt lat="45.963954" lon="10.299511"><time>2025-04-28T06:15:09.000Z</time><ele>472.4</ele></trkpt><trkpt lat="45.963958" lon="10.299508"><time>2025-04-28T06:15:10.000Z</time><ele>472.6</ele></trkpt><trkpt lat="45.963963" lon="10.299499"><time>2025-04-28T06:15:11.000Z</time><ele>472.8</ele></trkpt><trkpt lat="45.963964" lon="10.299488"><time>2025-04-28T06:15:12.000Z</time><ele>472.8</ele></trkpt><trkpt lat="45.963961" lon="10.299483"><time>2025-04-28T06:15:13.000Z</time><ele>473</ele></trkpt><trkpt lat="45.963964" lon="10.299477"><time>2025-04-28T06:15:14.000Z</time><ele>473.2</ele></trkpt><trkpt lat="45.963967" lon="10.299469"><time>2025-04-28T06:15:15.000Z</time><ele>473.4</ele></trkpt><trkpt lat="45.963969" lon="10.299464"><time>2025-04-28T06:15:16.000Z</time><ele>473.6</ele></trkpt><trkpt lat="45.963972" lon="10.299458"><time>2025-04-28T06:15:17.000Z</time><ele>473.8</ele></trkpt><trkpt lat="45.963978" lon="10.299452"><time>2025-04-28T06:15:18.000Z</time><ele>474</ele></trkpt><trkpt lat="45.963983" lon="10.299441"><time>2025-04-28T06:15:19.000Z</time><ele>474</ele></trkpt><trkpt lat="45.963984" lon="10.299437"><time>2025-04-28T06:15:20.000Z</time><ele>474.2</ele></trkpt><trkpt lat="45.963986" lon="10.299433"><time>2025-04-28T06:15:21.000Z</time><ele>474.4</ele></trkpt><trkpt lat="45.963986" lon="10.299428"><time>2025-04-28T06:15:22.000Z</time><ele>474.6</ele></trkpt><trkpt lat="45.963987" lon="10.299424"><time>2025-04-28T06:15:23.000Z</time><ele>474.8</ele></trkpt><trkpt lat="45.963986" lon="10.299416"><time>2025-04-28T06:15:24.000Z</time><ele>475</ele></trkpt><trkpt lat="45.96398" lon="10.299412"><time>2025-04-28T06:15:25.000Z</time><ele>475.2</ele></trkpt><trkpt lat="45.963975" lon="10.299408"><time>2025-04-28T06:15:26.000Z</time><ele>475.4</ele></trkpt><trkpt lat="45.96397" lon="10.299402"><time>2025-04-28T06:15:27.000Z</time><ele>475.6</ele></trkpt><trkpt lat="45.963971" lon="10.299391"><time>2025-04-28T06:15:28.000Z</time><ele>475.6</ele></trkpt><trkpt lat="45.963968" lon="10.299385"><time>2025-04-28T06:15:29.000Z</time><ele>476</ele></trkpt><trkpt lat="45.963963" lon="10.299381"><time>2025-04-28T06:15:30.000Z</time><ele>476.2</ele></trkpt><trkpt lat="45.963959" lon="10.299379"><time>2025-04-28T06:15:31.000Z</time><ele>476.2</ele></trkpt><trkpt lat="45.963955" lon="10.299371"><time>2025-04-28T06:15:32.000Z</time><ele>476.4</ele></trkpt><trkpt lat="45.96395" lon="10.299369"><time>2025-04-28T06:15:33.000Z</time><ele>476.6</ele></trkpt><trkpt lat="45.963946" lon="10.299362"><time>2025-04-28T06:15:34.000Z</time><ele>476.8</ele></trkpt><trkpt lat="45.963941" lon="10.299352"><time>2025-04-28T06:15:35.000Z</time><ele>477</ele></trkpt><trkpt lat="45.963936" lon="10.299347"><time>2025-04-28T06:15:36.000Z</time><ele>477</ele></trkpt><trkpt lat="45.963931" lon="10.299336"><time>2025-04-28T06:15:37.000Z</time><ele>477.2</ele></trkpt><trkpt lat="45.963926" lon="10.299327"><time>2025-04-28T06:15:38.000Z</time><ele>477.4</ele></trkpt><trkpt lat="45.963922" lon="10.299323"><time>2025-04-28T06:15:39.000Z</time><ele>477.6</ele></trkpt><trkpt lat="45.963919" lon="10.299321"><time>2025-04-28T06:15:40.000Z</time><ele>477.8</ele></trkpt><trkpt lat="45.963911" lon="10.299319"><time>2025-04-28T06:15:41.000Z</time><ele>478</ele></trkpt><trkpt lat="45.963906" lon="10.299312"><time>2025-04-28T06:15:42.000Z</time><ele>478.2</ele></trkpt><trkpt lat="45.963907" lon="10.29931"><time>2025-04-28T06:15:43.000Z</time><ele>478.4</ele></trkpt><trkpt lat="45.963902" lon="10.299308"><time>2025-04-28T06:15:44.000Z</time><ele>478.4</ele></trkpt><trkpt lat="45.963895" lon="10.29931"><time>2025-04-28T06:15:45.000Z</time><ele>478.6</ele></trkpt><trkpt lat="45.963886" lon="10.299314"><time>2025-04-28T06:15:46.000Z</time><ele>478.6</ele></trkpt><trkpt lat="45.963882" lon="10.299317"><time>2025-04-28T06:15:47.000Z</time><ele>479</ele></trkpt><trkpt lat="45.963874" lon="10.29932"><time>2025-04-28T06:15:48.000Z</time><ele>479.2</ele></trkpt><trkpt lat="45.963865" lon="10.299318"><time>2025-04-28T06:15:49.000Z</time><ele>479.4</ele></trkpt><trkpt lat="45.963861" lon="10.29932"><time>2025-04-28T06:15:50.000Z</time><ele>479.6</ele></trkpt><trkpt lat="45.963857" lon="10.299323"><time>2025-04-28T06:15:51.000Z</time><ele>479.6</ele></trkpt><trkpt lat="45.963854" lon="10.299325"><time>2025-04-28T06:15:52.000Z</time><ele>479.8</ele></trkpt><trkpt lat="45.963853" lon="10.299327"><time>2025-04-28T06:15:53.000Z</time><ele>480</ele></trkpt><trkpt lat="45.963854" lon="10.299328"><time>2025-04-28T06:15:54.000Z</time><ele>480.2</ele></trkpt><trkpt lat="45.963852" lon="10.299331"><time>2025-04-28T06:15:55.000Z</time><ele>480.4</ele></trkpt><trkpt lat="45.963851" lon="10.299335"><time>2025-04-28T06:15:56.000Z</time><ele>480.6</ele></trkpt><trkpt lat="45.963846" lon="10.299335"><time>2025-04-28T06:15:57.000Z</time><ele>480.6</ele></trkpt><trkpt lat="45.963841" lon="10.29933"><time>2025-04-28T06:15:58.000Z</time><ele>480.8</ele></trkpt><trkpt lat="45.963837" lon="10.29933"><time>2025-04-28T06:15:59.000Z</time><ele>480.8</ele></trkpt><trkpt lat="45.963833" lon="10.299335"><time>2025-04-28T06:16:00.000Z</time><ele>481.2</ele></trkpt><trkpt lat="45.963835" lon="10.299321"><time>2025-04-28T06:16:01.000Z</time><ele>481.2</ele></trkpt><trkpt lat="45.963837" lon="10.299311"><time>2025-04-28T06:16:02.000Z</time><ele>481.4</ele></trkpt><trkpt lat="45.963837" lon="10.299306"><time>2025-04-28T06:16:03.000Z</time><ele>481.6</ele></trkpt><trkpt lat="45.963836" lon="10.299302"><time>2025-04-28T06:16:04.000Z</time><ele>481.8</ele></trkpt><trkpt lat="45.96383" lon="10.299292"><time>2025-04-28T06:16:05.000Z</time><ele>481.8</ele></trkpt><trkpt lat="45.963828" lon="10.299287"><time>2025-04-28T06:16:06.000Z</time><ele>482.2</ele></trkpt><trkpt lat="45.963829" lon="10.299284"><time>2025-04-28T06:16:07.000Z</time><ele>482.4</ele></trkpt><trkpt lat="45.963829" lon="10.299281"><time>2025-04-28T06:16:08.000Z</time><ele>482.6</ele></trkpt><trkpt lat="45.963826" lon="10.299281"><time>2025-04-28T06:16:09.000Z</time><ele>482.6</ele></trkpt><trkpt lat="45.963825" lon="10.299272"><time>2025-04-28T06:16:10.000Z</time><ele>482.8</ele></trkpt><trkpt lat="45.963822" lon="10.29927"><time>2025-04-28T06:16:11.000Z</time><ele>483</ele></trkpt><trkpt lat="45.963817" lon="10.299262"><time>2025-04-28T06:16:12.000Z</time><ele>483.2</ele></trkpt><trkpt lat="45.963819" lon="10.299257"><time>2025-04-28T06:16:13.000Z</time><ele>483.2</ele></trkpt><trkpt lat="45.963821" lon="10.299247"><time>2025-04-28T06:16:14.000Z</time><ele>483.4</ele></trkpt><trkpt lat="45.963821" lon="10.299243"><time>2025-04-28T06:16:15.000Z</time><ele>483.6</ele></trkpt><trkpt lat="45.963819" lon="10.299238"><time>2025-04-28T06:16:16.000Z</time><ele>484</ele></trkpt><trkpt lat="45.963818" lon="10.299233"><time>2025-04-28T06:16:17.000Z</time><ele>484.4</ele></trkpt><trkpt lat="45.963815" lon="10.299231"><time>2025-04-28T06:16:18.000Z</time><ele>484.6</ele></trkpt><trkpt lat="45.963813" lon="10.299227"><time>2025-04-28T06:16:19.000Z</time><ele>484.6</ele></trkpt><trkpt lat="45.963805" lon="10.299225"><time>2025-04-28T06:16:20.000Z</time><ele>484.8</ele></trkpt><trkpt lat="45.963803" lon="10.299225"><time>2025-04-28T06:16:21.000Z</time><ele>485</ele></trkpt><trkpt lat="45.963803" lon="10.299219"><time>2025-04-28T06:16:22.000Z</time><ele>485.2</ele></trkpt><trkpt lat="45.963805" lon="10.299214"><time>2025-04-28T06:16:23.000Z</time><ele>485.4</ele></trkpt><trkpt lat="45.963808" lon="10.29921"><time>2025-04-28T06:16:24.000Z</time><ele>485.4</ele></trkpt><trkpt lat="45.963814" lon="10.299198"><time>2025-04-28T06:16:25.000Z</time><ele>485.6</ele></trkpt><trkpt lat="45.963822" lon="10.299187"><time>2025-04-28T06:16:26.000Z</time><ele>485.8</ele></trkpt><trkpt lat="45.963822" lon="10.29918"><time>2025-04-28T06:16:27.000Z</time><ele>485.8</ele></trkpt><trkpt lat="45.963822" lon="10.299174"><time>2025-04-28T06:16:28.000Z</time><ele>486</ele></trkpt><trkpt lat="45.963822" lon="10.29917"><time>2025-04-28T06:16:29.000Z</time><ele>486.2</ele></trkpt><trkpt lat="45.963824" lon="10.29917"><time>2025-04-28T06:16:30.000Z</time><ele>486.2</ele></trkpt><trkpt lat="45.963824" lon="10.299169"><time>2025-04-28T06:16:31.000Z</time><ele>486.4</ele></trkpt><trkpt lat="45.963826" lon="10.299168"><time>2025-04-28T06:16:32.000Z</time><ele>486.6</ele></trkpt><trkpt lat="45.96383" lon="10.299164"><time>2025-04-28T06:16:33.000Z</time><ele>486.8</ele></trkpt><trkpt lat="45.963837" lon="10.299158"><time>2025-04-28T06:16:34.000Z</time><ele>487</ele></trkpt><trkpt lat="45.963837" lon="10.299161"><time>2025-04-28T06:16:35.000Z</time><ele>487.2</ele></trkpt><trkpt lat="45.963839" lon="10.299164"><time>2025-04-28T06:16:36.000Z</time><ele>487.4</ele></trkpt><trkpt lat="45.963845" lon="10.299163"><time>2025-04-28T06:16:37.000Z</time><ele>487.6</ele></trkpt><trkpt lat="45.963849" lon="10.299171"><time>2025-04-28T06:16:38.000Z</time><ele>487.6</ele></trkpt><trkpt lat="45.963854" lon="10.299169"><time>2025-04-28T06:16:39.000Z</time><ele>487.8</ele></trkpt><trkpt lat="45.963862" lon="10.299167"><time>2025-04-28T06:16:40.000Z</time><ele>487.8</ele></trkpt><trkpt lat="45.963869" lon="10.299168"><time>2025-04-28T06:16:41.000Z</time><ele>488</ele></trkpt><trkpt lat="45.963878" lon="10.299166"><time>2025-04-28T06:16:42.000Z</time><ele>488</ele></trkpt><trkpt lat="45.963886" lon="10.299162"><time>2025-04-28T06:16:43.000Z</time><ele>488</ele></trkpt><trkpt lat="45.963893" lon="10.299163"><time>2025-04-28T06:16:44.000Z</time><ele>488</ele></trkpt><trkpt lat="45.963897" lon="10.299168"><time>2025-04-28T06:16:45.000Z</time><ele>488.2</ele></trkpt><trkpt lat="45.963898" lon="10.299173"><time>2025-04-28T06:16:46.000Z</time><ele>488.4</ele></trkpt><trkpt lat="45.963902" lon="10.299174"><time>2025-04-28T06:16:47.000Z</time><ele>488.4</ele></trkpt><trkpt lat="45.963905" lon="10.299176"><time>2025-04-28T06:16:48.000Z</time><ele>488.6</ele></trkpt><trkpt lat="45.963908" lon="10.299177"><time>2025-04-28T06:16:49.000Z</time><ele>488.8</ele></trkpt><trkpt lat="45.963912" lon="10.29918"><time>2025-04-28T06:16:50.000Z</time><ele>489</ele></trkpt><trkpt lat="45.963914" lon="10.299194"><time>2025-04-28T06:16:51.000Z</time><ele>489.2</ele></trkpt><trkpt lat="45.963917" lon="10.299199"><time>2025-04-28T06:16:52.000Z</time><ele>489.2</ele></trkpt><trkpt lat="45.963922" lon="10.299202"><time>2025-04-28T06:16:53.000Z</time><ele>489.4</ele></trkpt><trkpt lat="45.963925" lon="10.299208"><time>2025-04-28T06:16:54.000Z</time><ele>489.6</ele></trkpt><trkpt lat="45.963931" lon="10.299211"><time>2025-04-28T06:16:55.000Z</time><ele>489.8</ele></trkpt><trkpt lat="45.963939" lon="10.299208"><time>2025-04-28T06:16:56.000Z</time><ele>489.8</ele></trkpt><trkpt lat="45.963943" lon="10.299208"><time>2025-04-28T06:16:57.000Z</time><ele>490</ele></trkpt><trkpt lat="45.963946" lon="10.299213"><time>2025-04-28T06:16:58.000Z</time><ele>490.2</ele></trkpt><trkpt lat="45.963954" lon="10.299209"><time>2025-04-28T06:16:59.000Z</time><ele>490.4</ele></trkpt><trkpt lat="45.963964" lon="10.2992"><time>2025-04-28T06:17:00.000Z</time><ele>490.6</ele></trkpt><trkpt lat="45.963973" lon="10.299192"><time>2025-04-28T06:17:01.000Z</time><ele>490.8</ele></trkpt><trkpt lat="45.963982" lon="10.299182"><time>2025-04-28T06:17:02.000Z</time><ele>491</ele></trkpt><trkpt lat="45.963987" lon="10.299179"><time>2025-04-28T06:17:03.000Z</time><ele>491.2</ele></trkpt><trkpt lat="45.96399" lon="10.299177"><time>2025-04-28T06:17:04.000Z</time><ele>491.4</ele></trkpt><trkpt lat="45.963997" lon="10.299173"><time>2025-04-28T06:17:05.000Z</time><ele>491.6</ele></trkpt><trkpt lat="45.964006" lon="10.299168"><time>2025-04-28T06:17:06.000Z</time><ele>491.6</ele></trkpt><trkpt lat="45.96401" lon="10.299164"><time>2025-04-28T06:17:07.000Z</time><ele>492</ele></trkpt><trkpt lat="45.964011" lon="10.29916"><time>2025-04-28T06:17:08.000Z</time><ele>492.2</ele></trkpt><trkpt lat="45.964014" lon="10.299146"><time>2025-04-28T06:17:09.000Z</time><ele>492.4</ele></trkpt><trkpt lat="45.964015" lon="10.299145"><time>2025-04-28T06:17:10.000Z</time><ele>492.6</ele></trkpt><trkpt lat="45.964021" lon="10.299139"><time>2025-04-28T06:17:11.000Z</time><ele>492.6</ele></trkpt><trkpt lat="45.964026" lon="10.29914"><time>2025-04-28T06:17:12.000Z</time><ele>492.8</ele></trkpt><trkpt lat="45.964034" lon="10.299156"><time>2025-04-28T06:17:13.000Z</time><ele>493</ele></trkpt><trkpt lat="45.964027" lon="10.299178"><time>2025-04-28T06:17:14.000Z</time><ele>493.2</ele></trkpt><trkpt lat="45.964023" lon="10.299184"><time>2025-04-28T06:17:15.000Z</time><ele>493.4</ele></trkpt><trkpt lat="45.964017" lon="10.299187"><time>2025-04-28T06:17:16.000Z</time><ele>493.6</ele></trkpt><trkpt lat="45.964017" lon="10.299192"><time>2025-04-28T06:17:17.000Z</time><ele>493.6</ele></trkpt><trkpt lat="45.964025" lon="10.299185"><time>2025-04-28T06:17:18.000Z</time><ele>493.8</ele></trkpt><trkpt lat="45.964027" lon="10.299186"><time>2025-04-28T06:17:19.000Z</time><ele>494</ele></trkpt><trkpt lat="45.964035" lon="10.299189"><time>2025-04-28T06:17:20.000Z</time><ele>494.2</ele></trkpt><trkpt lat="45.964047" lon="10.299179"><time>2025-04-28T06:17:21.000Z</time><ele>494.4</ele></trkpt><trkpt lat="45.96405" lon="10.299177"><time>2025-04-28T06:17:22.000Z</time><ele>494.6</ele></trkpt><trkpt lat="45.964055" lon="10.299168"><time>2025-04-28T06:17:23.000Z</time><ele>494.6</ele></trkpt><trkpt lat="45.96406" lon="10.299169"><time>2025-04-28T06:17:24.000Z</time><ele>494.8</ele></trkpt><trkpt lat="45.964063" lon="10.299172"><time>2025-04-28T06:17:25.000Z</time><ele>495</ele></trkpt><trkpt lat="45.964065" lon="10.299171"><time>2025-04-28T06:17:26.000Z</time><ele>495.2</ele></trkpt><trkpt lat="45.964067" lon="10.299172"><time>2025-04-28T06:17:27.000Z</time><ele>495.4</ele></trkpt><trkpt lat="45.964076" lon="10.299166"><time>2025-04-28T06:17:28.000Z</time><ele>495.6</ele></trkpt><trkpt lat="45.964093" lon="10.299156"><time>2025-04-28T06:17:29.000Z</time><ele>495.8</ele></trkpt><trkpt lat="45.9641" lon="10.299152"><time>2025-04-28T06:17:30.000Z</time><ele>495.8</ele></trkpt><trkpt lat="45.96411" lon="10.299157"><time>2025-04-28T06:17:31.000Z</time><ele>496</ele></trkpt><trkpt lat="45.964119" lon="10.299157"><time>2025-04-28T06:17:32.000Z</time><ele>496.2</ele></trkpt><trkpt lat="45.964122" lon="10.299155"><time>2025-04-28T06:17:33.000Z</time><ele>496.4</ele></trkpt><trkpt lat="45.964124" lon="10.299151"><time>2025-04-28T06:17:34.000Z</time><ele>496.6</ele></trkpt><trkpt lat="45.964129" lon="10.299145"><time>2025-04-28T06:17:35.000Z</time><ele>496.8</ele></trkpt><trkpt lat="45.964138" lon="10.299138"><time>2025-04-28T06:17:36.000Z</time><ele>497</ele></trkpt><trkpt lat="45.964147" lon="10.299133"><time>2025-04-28T06:17:37.000Z</time><ele>497.2</ele></trkpt><trkpt lat="45.964152" lon="10.29913"><time>2025-04-28T06:17:38.000Z</time><ele>497.4</ele></trkpt><trkpt lat="45.964155" lon="10.299124"><time>2025-04-28T06:17:39.000Z</time><ele>497.6</ele></trkpt><trkpt lat="45.964159" lon="10.299124"><time>2025-04-28T06:17:40.000Z</time><ele>498</ele></trkpt><trkpt lat="45.964161" lon="10.299123"><time>2025-04-28T06:17:41.000Z</time><ele>498.2</ele></trkpt><trkpt lat="45.964164" lon="10.299123"><time>2025-04-28T06:17:42.000Z</time><ele>498.2</ele></trkpt><trkpt lat="45.964164" lon="10.299112"><time>2025-04-28T06:17:43.000Z</time><ele>498.2</ele></trkpt><trkpt lat="45.964167" lon="10.299106"><time>2025-04-28T06:17:44.000Z</time><ele>498.8</ele></trkpt><trkpt lat="45.964167" lon="10.299102"><time>2025-04-28T06:17:45.000Z</time><ele>499.2</ele></trkpt><trkpt lat="45.964175" lon="10.299094"><time>2025-04-28T06:17:46.000Z</time><ele>499.4</ele></trkpt><trkpt lat="45.964178" lon="10.299091"><time>2025-04-28T06:17:47.000Z</time><ele>499.6</ele></trkpt><trkpt lat="45.96418" lon="10.299085"><time>2025-04-28T06:17:48.000Z</time><ele>499.8</ele></trkpt><trkpt lat="45.964181" lon="10.299081"><time>2025-04-28T06:17:49.000Z</time><ele>500</ele></trkpt><trkpt lat="45.964185" lon="10.299075"><time>2025-04-28T06:17:50.000Z</time><ele>500.2</ele></trkpt><trkpt lat="45.964188" lon="10.29907"><time>2025-04-28T06:17:51.000Z</time><ele>500.2</ele></trkpt><trkpt lat="45.964187" lon="10.299063"><time>2025-04-28T06:17:52.000Z</time><ele>500.4</ele></trkpt><trkpt lat="45.964186" lon="10.299055"><time>2025-04-28T06:17:53.000Z</time><ele>500.4</ele></trkpt><trkpt lat="45.964189" lon="10.299054"><time>2025-04-28T06:17:54.000Z</time><ele>500.6</ele></trkpt><trkpt lat="45.964191" lon="10.299048"><time>2025-04-28T06:17:55.000Z</time><ele>500.8</ele></trkpt><trkpt lat="45.964192" lon="10.299044"><time>2025-04-28T06:17:56.000Z</time><ele>500.8</ele></trkpt><trkpt lat="45.964192" lon="10.299039"><time>2025-04-28T06:17:57.000Z</time><ele>501</ele></trkpt><trkpt lat="45.964187" lon="10.299035"><time>2025-04-28T06:17:58.000Z</time><ele>501.2</ele></trkpt><trkpt lat="45.964186" lon="10.299029"><time>2025-04-28T06:17:59.000Z</time><ele>501.4</ele></trkpt><trkpt lat="45.964179" lon="10.299029"><time>2025-04-28T06:18:00.000Z</time><ele>501.8</ele></trkpt><trkpt lat="45.964173" lon="10.299025"><time>2025-04-28T06:18:01.000Z</time><ele>501.8</ele></trkpt><trkpt lat="45.964164" lon="10.299024"><time>2025-04-28T06:18:02.000Z</time><ele>502.2</ele></trkpt><trkpt lat="45.964163" lon="10.299021"><time>2025-04-28T06:18:03.000Z</time><ele>502.4</ele></trkpt><trkpt lat="45.964162" lon="10.29902"><time>2025-04-28T06:18:04.000Z</time><ele>502.4</ele></trkpt><trkpt lat="45.964161" lon="10.299017"><time>2025-04-28T06:18:05.000Z</time><ele>502.8</ele></trkpt><trkpt lat="45.964158" lon="10.299018"><time>2025-04-28T06:18:06.000Z</time><ele>503</ele></trkpt><trkpt lat="45.964157" lon="10.299008"><time>2025-04-28T06:18:07.000Z</time><ele>503.2</ele></trkpt><trkpt lat="45.964158" lon="10.299001"><time>2025-04-28T06:18:08.000Z</time><ele>503.2</ele></trkpt><trkpt lat="45.964158" lon="10.298996"><time>2025-04-28T06:18:09.000Z</time><ele>503.4</ele></trkpt><trkpt lat="45.964159" lon="10.298988"><time>2025-04-28T06:18:10.000Z</time><ele>503.4</ele></trkpt><trkpt lat="45.964155" lon="10.298986"><time>2025-04-28T06:18:11.000Z</time><ele>503.6</ele></trkpt><trkpt lat="45.964153" lon="10.298975"><time>2025-04-28T06:18:12.000Z</time><ele>503.6</ele></trkpt><trkpt lat="45.964151" lon="10.298963"><time>2025-04-28T06:18:13.000Z</time><ele>503.8</ele></trkpt><trkpt lat="45.964151" lon="10.29896"><time>2025-04-28T06:18:14.000Z</time><ele>504.2</ele></trkpt><trkpt lat="45.964147" lon="10.298947"><time>2025-04-28T06:18:15.000Z</time><ele>504.2</ele></trkpt><trkpt lat="45.964146" lon="10.298947"><time>2025-04-28T06:18:16.000Z</time><ele>504.4</ele></trkpt><trkpt lat="45.964147" lon="10.298948"><time>2025-04-28T06:18:17.000Z</time><ele>504.6</ele></trkpt><trkpt lat="45.964147" lon="10.298946"><time>2025-04-28T06:18:18.000Z</time><ele>504.8</ele></trkpt><trkpt lat="45.964153" lon="10.298928"><time>2025-04-28T06:18:19.000Z</time><ele>504.8</ele></trkpt><trkpt lat="45.964153" lon="10.298916"><time>2025-04-28T06:18:20.000Z</time><ele>505.2</ele></trkpt><trkpt lat="45.964154" lon="10.298902"><time>2025-04-28T06:18:21.000Z</time><ele>505.4</ele></trkpt><trkpt lat="45.964157" lon="10.298897"><time>2025-04-28T06:18:22.000Z</time><ele>505.6</ele></trkpt><trkpt lat="45.964153" lon="10.298893"><time>2025-04-28T06:18:23.000Z</time><ele>505.8</ele></trkpt><trkpt lat="45.964151" lon="10.298892"><time>2025-04-28T06:18:24.000Z</time><ele>506</ele></trkpt><trkpt lat="45.964149" lon="10.298889"><time>2025-04-28T06:18:25.000Z</time><ele>506.2</ele></trkpt><trkpt lat="45.964148" lon="10.298875"><time>2025-04-28T06:18:26.000Z</time><ele>506.4</ele></trkpt><trkpt lat="45.964144" lon="10.29887"><time>2025-04-28T06:18:27.000Z</time><ele>506.6</ele></trkpt><trkpt lat="45.96413" lon="10.29887"><time>2025-04-28T06:18:28.000Z</time><ele>506.8</ele></trkpt><trkpt lat="45.964118" lon="10.298878"><time>2025-04-28T06:18:29.000Z</time><ele>507</ele></trkpt><trkpt lat="45.964114" lon="10.298869"><time>2025-04-28T06:18:30.000Z</time><ele>507.2</ele></trkpt><trkpt lat="45.964114" lon="10.298865"><time>2025-04-28T06:18:31.000Z</time><ele>507.4</ele></trkpt><trkpt lat="45.964115" lon="10.298864"><time>2025-04-28T06:18:32.000Z</time><ele>507.6</ele></trkpt><trkpt lat="45.964114" lon="10.298863"><time>2025-04-28T06:18:33.000Z</time><ele>507.6</ele></trkpt><trkpt lat="45.964114" lon="10.298861"><time>2025-04-28T06:18:34.000Z</time><ele>507.8</ele></trkpt><trkpt lat="45.96412" lon="10.298848"><time>2025-04-28T06:18:35.000Z</time><ele>507.8</ele></trkpt><trkpt lat="45.964123" lon="10.298844"><time>2025-04-28T06:18:36.000Z</time><ele>508</ele></trkpt><trkpt lat="45.964129" lon="10.298832"><time>2025-04-28T06:18:37.000Z</time><ele>508</ele></trkpt><trkpt lat="45.964138" lon="10.298827"><time>2025-04-28T06:18:38.000Z</time><ele>508.2</ele></trkpt><trkpt lat="45.964143" lon="10.298827"><time>2025-04-28T06:18:39.000Z</time><ele>508.4</ele></trkpt><trkpt lat="45.96415" lon="10.29882"><time>2025-04-28T06:18:40.000Z</time><ele>508.6</ele></trkpt><trkpt lat="45.964155" lon="10.298818"><time>2025-04-28T06:18:41.000Z</time><ele>508.8</ele></trkpt><trkpt lat="45.964156" lon="10.29882"><time>2025-04-28T06:18:42.000Z</time><ele>509</ele></trkpt><trkpt lat="45.964158" lon="10.298816"><time>2025-04-28T06:18:43.000Z</time><ele>509</ele></trkpt><trkpt lat="45.964164" lon="10.298818"><time>2025-04-28T06:18:44.000Z</time><ele>509</ele></trkpt><trkpt lat="45.964171" lon="10.298808"><time>2025-04-28T06:18:45.000Z</time><ele>509.2</ele></trkpt><trkpt lat="45.964173" lon="10.298807"><time>2025-04-28T06:18:46.000Z</time><ele>509.6</ele></trkpt><trkpt lat="45.964171" lon="10.29881"><time>2025-04-28T06:18:47.000Z</time><ele>509.8</ele></trkpt><trkpt lat="45.964175" lon="10.298804"><time>2025-04-28T06:18:48.000Z</time><ele>510</ele></trkpt><trkpt lat="45.964182" lon="10.298792"><time>2025-04-28T06:18:49.000Z</time><ele>510.2</ele></trkpt><trkpt lat="45.964187" lon="10.29878"><time>2025-04-28T06:18:50.000Z</time><ele>510.6</ele></trkpt><trkpt lat="45.964192" lon="10.298776"><time>2025-04-28T06:18:51.000Z</time><ele>511</ele></trkpt><trkpt lat="45.964194" lon="10.298774"><time>2025-04-28T06:18:52.000Z</time><ele>511</ele></trkpt><trkpt lat="45.964193" lon="10.298775"><time>2025-04-28T06:18:53.000Z</time><ele>511.2</ele></trkpt><trkpt lat="45.964197" lon="10.29877"><time>2025-04-28T06:18:54.000Z</time><ele>511.2</ele></trkpt><trkpt lat="45.964198" lon="10.298766"><time>2025-04-28T06:18:55.000Z</time><ele>511.4</ele></trkpt><trkpt lat="45.964198" lon="10.298762"><time>2025-04-28T06:18:56.000Z</time><ele>511.6</ele></trkpt><trkpt lat="45.964201" lon="10.298753"><time>2025-04-28T06:18:57.000Z</time><ele>511.8</ele></trkpt><trkpt lat="45.964207" lon="10.298745"><time>2025-04-28T06:18:58.000Z</time><ele>512</ele></trkpt><trkpt lat="45.964216" lon="10.298731"><time>2025-04-28T06:18:59.000Z</time><ele>512.2</ele></trkpt><trkpt lat="45.964222" lon="10.298722"><time>2025-04-28T06:19:00.000Z</time><ele>512.2</ele></trkpt><trkpt lat="45.964225" lon="10.298714"><time>2025-04-28T06:19:01.000Z</time><ele>512.4</ele></trkpt><trkpt lat="45.964229" lon="10.298703"><time>2025-04-28T06:19:02.000Z</time><ele>512.6</ele></trkpt><trkpt lat="45.964229" lon="10.298693"><time>2025-04-28T06:19:03.000Z</time><ele>512.8</ele></trkpt><trkpt lat="45.964231" lon="10.298678"><time>2025-04-28T06:19:04.000Z</time><ele>513</ele></trkpt><trkpt lat="45.96423" lon="10.298667"><time>2025-04-28T06:19:05.000Z</time><ele>513.2</ele></trkpt><trkpt lat="45.964234" lon="10.298655"><time>2025-04-28T06:19:06.000Z</time><ele>513.2</ele></trkpt><trkpt lat="45.964235" lon="10.298643"><time>2025-04-28T06:19:07.000Z</time><ele>513.4</ele></trkpt><trkpt lat="45.964234" lon="10.298636"><time>2025-04-28T06:19:08.000Z</time><ele>513.6</ele></trkpt><trkpt lat="45.964237" lon="10.298629"><time>2025-04-28T06:19:09.000Z</time><ele>513.6</ele></trkpt><trkpt lat="45.964237" lon="10.298622"><time>2025-04-28T06:19:10.000Z</time><ele>513.8</ele></trkpt><trkpt lat="45.964235" lon="10.298623"><time>2025-04-28T06:19:11.000Z</time><ele>513.8</ele></trkpt><trkpt lat="45.964236" lon="10.29862"><time>2025-04-28T06:19:12.000Z</time><ele>514</ele></trkpt><trkpt lat="45.964238" lon="10.29861"><time>2025-04-28T06:19:13.000Z</time><ele>514</ele></trkpt><trkpt lat="45.964237" lon="10.298598"><time>2025-04-28T06:19:14.000Z</time><ele>514.2</ele></trkpt><trkpt lat="45.964241" lon="10.298585"><time>2025-04-28T06:19:15.000Z</time><ele>514.4</ele></trkpt><trkpt lat="45.964245" lon="10.298572"><time>2025-04-28T06:19:16.000Z</time><ele>514.8</ele></trkpt><trkpt lat="45.964249" lon="10.298569"><time>2025-04-28T06:19:17.000Z</time><ele>515</ele></trkpt><trkpt lat="45.964251" lon="10.29857"><time>2025-04-28T06:19:18.000Z</time><ele>515.2</ele></trkpt><trkpt lat="45.964252" lon="10.298571"><time>2025-04-28T06:19:19.000Z</time><ele>515.2</ele></trkpt><trkpt lat="45.964252" lon="10.298565"><time>2025-04-28T06:19:20.000Z</time><ele>515.4</ele></trkpt><trkpt lat="45.964252" lon="10.298556"><time>2025-04-28T06:19:21.000Z</time><ele>515.4</ele></trkpt><trkpt lat="45.96425" lon="10.298552"><time>2025-04-28T06:19:22.000Z</time><ele>515.4</ele></trkpt><trkpt lat="45.964253" lon="10.298536"><time>2025-04-28T06:19:23.000Z</time><ele>515.8</ele></trkpt><trkpt lat="45.964259" lon="10.298523"><time>2025-04-28T06:19:24.000Z</time><ele>515.8</ele></trkpt><trkpt lat="45.964262" lon="10.298519"><time>2025-04-28T06:19:25.000Z</time><ele>516</ele></trkpt><trkpt lat="45.964266" lon="10.298514"><time>2025-04-28T06:19:26.000Z</time><ele>516.2</ele></trkpt><trkpt lat="45.964259" lon="10.298519"><time>2025-04-28T06:19:27.000Z</time><ele>516.4</ele></trkpt><trkpt lat="45.964254" lon="10.298519"><time>2025-04-28T06:19:28.000Z</time><ele>516.6</ele></trkpt><trkpt lat="45.964251" lon="10.29852"><time>2025-04-28T06:19:29.000Z</time><ele>516.8</ele></trkpt><trkpt lat="45.964251" lon="10.298516"><time>2025-04-28T06:19:30.000Z</time><ele>517</ele></trkpt><trkpt lat="45.964252" lon="10.298515"><time>2025-04-28T06:19:31.000Z</time><ele>517.2</ele></trkpt><trkpt lat="45.964253" lon="10.298513"><time>2025-04-28T06:19:32.000Z</time><ele>517.4</ele></trkpt><trkpt lat="45.964255" lon="10.298511"><time>2025-04-28T06:19:33.000Z</time><ele>517.6</ele></trkpt><trkpt lat="45.964258" lon="10.29851"><time>2025-04-28T06:19:34.000Z</time><ele>517.8</ele></trkpt><trkpt lat="45.964263" lon="10.298507"><time>2025-04-28T06:19:35.000Z</time><ele>517.8</ele></trkpt><trkpt lat="45.964266" lon="10.298499"><time>2025-04-28T06:19:36.000Z</time><ele>518</ele></trkpt><trkpt lat="45.964269" lon="10.298488"><time>2025-04-28T06:19:37.000Z</time><ele>518.2</ele></trkpt><trkpt lat="45.964273" lon="10.298485"><time>2025-04-28T06:19:38.000Z</time><ele>518.4</ele></trkpt><trkpt lat="45.964274" lon="10.298471"><time>2025-04-28T06:19:39.000Z</time><ele>518.4</ele></trkpt><trkpt lat="45.964277" lon="10.298466"><time>2025-04-28T06:19:40.000Z</time><ele>518.4</ele></trkpt><trkpt lat="45.964275" lon="10.298465"><time>2025-04-28T06:19:41.000Z</time><ele>518.4</ele></trkpt><trkpt lat="45.964274" lon="10.298462"><time>2025-04-28T06:19:42.000Z</time><ele>518.6</ele></trkpt><trkpt lat="45.964275" lon="10.298461"><time>2025-04-28T06:19:43.000Z</time><ele>518.6</ele></trkpt><trkpt lat="45.964275" lon="10.298461"><time>2025-04-28T06:19:44.000Z</time><ele>518.6</ele></trkpt><trkpt lat="45.964276" lon="10.298459"><time>2025-04-28T06:19:45.000Z</time><ele>518.6</ele></trkpt><trkpt lat="45.964279" lon="10.298457"><time>2025-04-28T06:19:46.000Z</time><ele>518.8</ele></trkpt><trkpt lat="45.964281" lon="10.298455"><time>2025-04-28T06:19:47.000Z</time><ele>518.8</ele></trkpt><trkpt lat="45.964286" lon="10.298457"><time>2025-04-28T06:19:48.000Z</time><ele>518.8</ele></trkpt><trkpt lat="45.964283" lon="10.29846"><time>2025-04-28T06:19:49.000Z</time><ele>518.8</ele></trkpt><trkpt lat="45.964283" lon="10.29846"><time>2025-04-28T06:19:50.000Z</time><ele>519</ele></trkpt><trkpt lat="45.964285" lon="10.298459"><time>2025-04-28T06:19:51.000Z</time><ele>519</ele></trkpt><trkpt lat="45.964284" lon="10.298462"><time>2025-04-28T06:19:52.000Z</time><ele>519.2</ele></trkpt><trkpt lat="45.964287" lon="10.298456"><time>2025-04-28T06:19:53.000Z</time><ele>519.2</ele></trkpt><trkpt lat="45.964292" lon="10.298449"><time>2025-04-28T06:19:54.000Z</time><ele>519.4</ele></trkpt><trkpt lat="45.964293" lon="10.298445"><time>2025-04-28T06:19:55.000Z</time><ele>519.4</ele></trkpt><trkpt lat="45.964292" lon="10.298436"><time>2025-04-28T06:19:56.000Z</time><ele>519.4</ele></trkpt><trkpt lat="45.964292" lon="10.298431"><time>2025-04-28T06:19:57.000Z</time><ele>519.8</ele></trkpt><trkpt lat="45.964293" lon="10.298426"><time>2025-04-28T06:19:58.000Z</time><ele>520</ele></trkpt><trkpt lat="45.964295" lon="10.298422"><time>2025-04-28T06:19:59.000Z</time><ele>520.2</ele></trkpt><trkpt lat="45.964299" lon="10.298416"><time>2025-04-28T06:20:00.000Z</time><ele>520.2</ele></trkpt><trkpt lat="45.964305" lon="10.298407"><time>2025-04-28T06:20:01.000Z</time><ele>520.4</ele></trkpt><trkpt lat="45.964307" lon="10.298403"><time>2025-04-28T06:20:02.000Z</time><ele>520.4</ele></trkpt><trkpt lat="45.964311" lon="10.2984"><time>2025-04-28T06:20:03.000Z</time><ele>520.4</ele></trkpt><trkpt lat="45.964314" lon="10.298394"><time>2025-04-28T06:20:04.000Z</time><ele>520.6</ele></trkpt><trkpt lat="45.964317" lon="10.298384"><time>2025-04-28T06:20:05.000Z</time><ele>520.8</ele></trkpt><trkpt lat="45.964323" lon="10.298372"><time>2025-04-28T06:20:06.000Z</time><ele>521</ele></trkpt><trkpt lat="45.964329" lon="10.298364"><time>2025-04-28T06:20:07.000Z</time><ele>521.2</ele></trkpt><trkpt lat="45.964335" lon="10.298354"><time>2025-04-28T06:20:08.000Z</time><ele>521.4</ele></trkpt><trkpt lat="45.964336" lon="10.298349"><time>2025-04-28T06:20:09.000Z</time><ele>521.6</ele></trkpt><trkpt lat="45.964335" lon="10.298346"><time>2025-04-28T06:20:10.000Z</time><ele>521.8</ele></trkpt><trkpt lat="45.964338" lon="10.298334"><time>2025-04-28T06:20:11.000Z</time><ele>521.8</ele></trkpt><trkpt lat="45.964341" lon="10.298332"><time>2025-04-28T06:20:12.000Z</time><ele>522</ele></trkpt><trkpt lat="45.964344" lon="10.298324"><time>2025-04-28T06:20:13.000Z</time><ele>522</ele></trkpt><trkpt lat="45.964347" lon="10.298322"><time>2025-04-28T06:20:14.000Z</time><ele>522.2</ele></trkpt><trkpt lat="45.964347" lon="10.298315"><time>2025-04-28T06:20:15.000Z</time><ele>522.4</ele></trkpt><trkpt lat="45.964347" lon="10.298314"><time>2025-04-28T06:20:16.000Z</time><ele>522.6</ele></trkpt><trkpt lat="45.964346" lon="10.298313"><time>2025-04-28T06:20:17.000Z</time><ele>522.8</ele></trkpt><trkpt lat="45.964339" lon="10.298318"><time>2025-04-28T06:20:18.000Z</time><ele>523</ele></trkpt><trkpt lat="45.964334" lon="10.298302"><time>2025-04-28T06:20:19.000Z</time><ele>523</ele></trkpt><trkpt lat="45.964332" lon="10.298288"><time>2025-04-28T06:20:20.000Z</time><ele>523.2</ele></trkpt><trkpt lat="45.964331" lon="10.298281"><time>2025-04-28T06:20:21.000Z</time><ele>523.4</ele></trkpt><trkpt lat="45.964335" lon="10.298261"><time>2025-04-28T06:20:22.000Z</time><ele>523.6</ele></trkpt><trkpt lat="45.964333" lon="10.298253"><time>2025-04-28T06:20:23.000Z</time><ele>523.8</ele></trkpt><trkpt lat="45.964332" lon="10.298248"><time>2025-04-28T06:20:24.000Z</time><ele>524</ele></trkpt><trkpt lat="45.964329" lon="10.298245"><time>2025-04-28T06:20:25.000Z</time><ele>524.2</ele></trkpt><trkpt lat="45.964319" lon="10.298247"><time>2025-04-28T06:20:26.000Z</time><ele>524.4</ele></trkpt><trkpt lat="45.964314" lon="10.298246"><time>2025-04-28T06:20:27.000Z</time><ele>524.6</ele></trkpt><trkpt lat="45.964311" lon="10.29824"><time>2025-04-28T06:20:28.000Z</time><ele>524.8</ele></trkpt><trkpt lat="45.964311" lon="10.298227"><time>2025-04-28T06:20:29.000Z</time><ele>525</ele></trkpt><trkpt lat="45.964306" lon="10.298218"><time>2025-04-28T06:20:30.000Z</time><ele>525.2</ele></trkpt><trkpt lat="45.964302" lon="10.298225"><time>2025-04-28T06:20:31.000Z</time><ele>525.2</ele></trkpt><trkpt lat="45.964304" lon="10.298225"><time>2025-04-28T06:20:32.000Z</time><ele>525.4</ele></trkpt><trkpt lat="45.964305" lon="10.298216"><time>2025-04-28T06:20:33.000Z</time><ele>525.4</ele></trkpt><trkpt lat="45.964309" lon="10.298209"><time>2025-04-28T06:20:34.000Z</time><ele>525.6</ele></trkpt><trkpt lat="45.964305" lon="10.298203"><time>2025-04-28T06:20:35.000Z</time><ele>525.8</ele></trkpt><trkpt lat="45.964303" lon="10.298199"><time>2025-04-28T06:20:36.000Z</time><ele>526</ele></trkpt><trkpt lat="45.964296" lon="10.298198"><time>2025-04-28T06:20:37.000Z</time><ele>526</ele></trkpt><trkpt lat="45.964292" lon="10.298193"><time>2025-04-28T06:20:38.000Z</time><ele>526.2</ele></trkpt><trkpt lat="45.964288" lon="10.298192"><time>2025-04-28T06:20:39.000Z</time><ele>526.4</ele></trkpt><trkpt lat="45.964289" lon="10.298189"><time>2025-04-28T06:20:40.000Z</time><ele>526.4</ele></trkpt><trkpt lat="45.964281" lon="10.298191"><time>2025-04-28T06:20:41.000Z</time><ele>526.8</ele></trkpt><trkpt lat="45.96428" lon="10.298184"><time>2025-04-28T06:20:42.000Z</time><ele>527</ele></trkpt><trkpt lat="45.964278" lon="10.298172"><time>2025-04-28T06:20:43.000Z</time><ele>527</ele></trkpt><trkpt lat="45.964277" lon="10.298167"><time>2025-04-28T06:20:44.000Z</time><ele>527.2</ele></trkpt><trkpt lat="45.964272" lon="10.298161"><time>2025-04-28T06:20:45.000Z</time><ele>527.4</ele></trkpt><trkpt lat="45.964261" lon="10.298154"><time>2025-04-28T06:20:46.000Z</time><ele>527.6</ele></trkpt><trkpt lat="45.964254" lon="10.298147"><time>2025-04-28T06:20:47.000Z</time><ele>528</ele></trkpt><trkpt lat="45.964249" lon="10.298145"><time>2025-04-28T06:20:48.000Z</time><ele>528</ele></trkpt><trkpt lat="45.964242" lon="10.298141"><time>2025-04-28T06:20:49.000Z</time><ele>528.4</ele></trkpt><trkpt lat="45.964237" lon="10.298144"><time>2025-04-28T06:20:50.000Z</time><ele>528.6</ele></trkpt><trkpt lat="45.964229" lon="10.298145"><time>2025-04-28T06:20:51.000Z</time><ele>528.6</ele></trkpt><trkpt lat="45.964216" lon="10.298147"><time>2025-04-28T06:20:52.000Z</time><ele>528.8</ele></trkpt><trkpt lat="45.96421" lon="10.29815"><time>2025-04-28T06:20:53.000Z</time><ele>529</ele></trkpt><trkpt lat="45.964216" lon="10.298131"><time>2025-04-28T06:20:54.000Z</time><ele>529.2</ele></trkpt><trkpt lat="45.964218" lon="10.29812"><time>2025-04-28T06:20:55.000Z</time><ele>529.4</ele></trkpt><trkpt lat="45.964216" lon="10.298106"><time>2025-04-28T06:20:56.000Z</time><ele>529.4</ele></trkpt><trkpt lat="45.964213" lon="10.298094"><time>2025-04-28T06:20:57.000Z</time><ele>529.8</ele></trkpt><trkpt lat="45.964211" lon="10.298084"><time>2025-04-28T06:20:58.000Z</time><ele>530</ele></trkpt><trkpt lat="45.96421" lon="10.298077"><time>2025-04-28T06:20:59.000Z</time><ele>530</ele></trkpt><trkpt lat="45.964208" lon="10.298072"><time>2025-04-28T06:21:00.000Z</time><ele>530.2</ele></trkpt><trkpt lat="45.9642" lon="10.298078"><time>2025-04-28T06:21:01.000Z</time><ele>530.4</ele></trkpt><trkpt lat="45.964198" lon="10.298075"><time>2025-04-28T06:21:02.000Z</time><ele>530.6</ele></trkpt><trkpt lat="45.964199" lon="10.298069"><time>2025-04-28T06:21:03.000Z</time><ele>530.8</ele></trkpt><trkpt lat="45.964195" lon="10.298069"><time>2025-04-28T06:21:04.000Z</time><ele>531</ele></trkpt><trkpt lat="45.964187" lon="10.29807"><time>2025-04-28T06:21:05.000Z</time><ele>531.4</ele></trkpt><trkpt lat="45.964179" lon="10.29807"><time>2025-04-28T06:21:06.000Z</time><ele>531.4</ele></trkpt><trkpt lat="45.964172" lon="10.298068"><time>2025-04-28T06:21:07.000Z</time><ele>531.6</ele></trkpt><trkpt lat="45.964164" lon="10.298072"><time>2025-04-28T06:21:08.000Z</time><ele>531.8</ele></trkpt><trkpt lat="45.964159" lon="10.29807"><time>2025-04-28T06:21:09.000Z</time><ele>532</ele></trkpt><trkpt lat="45.964164" lon="10.298062"><time>2025-04-28T06:21:10.000Z</time><ele>532</ele></trkpt><trkpt lat="45.96416" lon="10.29806"><time>2025-04-28T06:21:11.000Z</time><ele>532.2</ele></trkpt><trkpt lat="45.964158" lon="10.298059"><time>2025-04-28T06:21:12.000Z</time><ele>532.6</ele></trkpt><trkpt lat="45.964164" lon="10.298039"><time>2025-04-28T06:21:13.000Z</time><ele>532.8</ele></trkpt><trkpt lat="45.964165" lon="10.298035"><time>2025-04-28T06:21:14.000Z</time><ele>532.8</ele></trkpt><trkpt lat="45.964161" lon="10.29803"><time>2025-04-28T06:21:15.000Z</time><ele>533</ele></trkpt><trkpt lat="45.964161" lon="10.298036"><time>2025-04-28T06:21:16.000Z</time><ele>533.4</ele></trkpt><trkpt lat="45.964161" lon="10.298039"><time>2025-04-28T06:21:17.000Z</time><ele>533.6</ele></trkpt><trkpt lat="45.964156" lon="10.298042"><time>2025-04-28T06:21:18.000Z</time><ele>533.6</ele></trkpt><trkpt lat="45.964168" lon="10.298054"><time>2025-04-28T06:21:19.000Z</time><ele>533.8</ele></trkpt><trkpt lat="45.964168" lon="10.298053"><time>2025-04-28T06:21:20.000Z</time><ele>534</ele></trkpt><trkpt lat="45.964171" lon="10.298044"><time>2025-04-28T06:21:21.000Z</time><ele>534.2</ele></trkpt><trkpt lat="45.964169" lon="10.298038"><time>2025-04-28T06:21:22.000Z</time><ele>534.4</ele></trkpt><trkpt lat="45.964161" lon="10.298022"><time>2025-04-28T06:21:23.000Z</time><ele>534.6</ele></trkpt><trkpt lat="45.964151" lon="10.298011"><time>2025-04-28T06:21:24.000Z</time><ele>534.8</ele></trkpt><trkpt lat="45.964159" lon="10.297998"><time>2025-04-28T06:21:25.000Z</time><ele>535</ele></trkpt><trkpt lat="45.964167" lon="10.297994"><time>2025-04-28T06:21:26.000Z</time><ele>535</ele></trkpt><trkpt lat="45.964178" lon="10.297988"><time>2025-04-28T06:21:27.000Z</time><ele>535.2</ele></trkpt><trkpt lat="45.964177" lon="10.297982"><time>2025-04-28T06:21:28.000Z</time><ele>535.2</ele></trkpt><trkpt lat="45.964185" lon="10.29796"><time>2025-04-28T06:21:29.000Z</time><ele>535.4</ele></trkpt><trkpt lat="45.964196" lon="10.29795"><time>2025-04-28T06:21:30.000Z</time><ele>535.4</ele></trkpt><trkpt lat="45.964206" lon="10.297936"><time>2025-04-28T06:21:31.000Z</time><ele>535.6</ele></trkpt><trkpt lat="45.964208" lon="10.29792"><time>2025-04-28T06:21:32.000Z</time><ele>535.8</ele></trkpt><trkpt lat="45.964211" lon="10.297913"><time>2025-04-28T06:21:33.000Z</time><ele>535.8</ele></trkpt><trkpt lat="45.964216" lon="10.297903"><time>2025-04-28T06:21:34.000Z</time><ele>536</ele></trkpt><trkpt lat="45.964211" lon="10.2979"><time>2025-04-28T06:21:35.000Z</time><ele>536.4</ele></trkpt><trkpt lat="45.964206" lon="10.297907"><time>2025-04-28T06:21:36.000Z</time><ele>536.6</ele></trkpt><trkpt lat="45.964208" lon="10.297911"><time>2025-04-28T06:21:37.000Z</time><ele>536.8</ele></trkpt><trkpt lat="45.964211" lon="10.297908"><time>2025-04-28T06:21:38.000Z</time><ele>536.8</ele></trkpt><trkpt lat="45.964211" lon="10.297906"><time>2025-04-28T06:21:39.000Z</time><ele>537</ele></trkpt><trkpt lat="45.96421" lon="10.297905"><time>2025-04-28T06:21:40.000Z</time><ele>537.2</ele></trkpt><trkpt lat="45.96421" lon="10.297903"><time>2025-04-28T06:21:41.000Z</time><ele>537.4</ele></trkpt><trkpt lat="45.96421" lon="10.297892"><time>2025-04-28T06:21:42.000Z</time><ele>537.6</ele></trkpt><trkpt lat="45.964209" lon="10.297889"><time>2025-04-28T06:21:43.000Z</time><ele>537.6</ele></trkpt><trkpt lat="45.964208" lon="10.297885"><time>2025-04-28T06:21:44.000Z</time><ele>537.6</ele></trkpt><trkpt lat="45.964205" lon="10.297873"><time>2025-04-28T06:21:45.000Z</time><ele>537.8</ele></trkpt><trkpt lat="45.964204" lon="10.29786"><time>2025-04-28T06:21:46.000Z</time><ele>537.8</ele></trkpt><trkpt lat="45.964206" lon="10.297847"><time>2025-04-28T06:21:47.000Z</time><ele>538</ele></trkpt><trkpt lat="45.964206" lon="10.297836"><time>2025-04-28T06:21:48.000Z</time><ele>538.2</ele></trkpt><trkpt lat="45.964203" lon="10.297822"><time>2025-04-28T06:21:49.000Z</time><ele>538.2</ele></trkpt><trkpt lat="45.964211" lon="10.297803"><time>2025-04-28T06:21:50.000Z</time><ele>538.4</ele></trkpt><trkpt lat="45.964209" lon="10.297791"><time>2025-04-28T06:21:51.000Z</time><ele>538.6</ele></trkpt><trkpt lat="45.964201" lon="10.297776"><time>2025-04-28T06:21:52.000Z</time><ele>538.6</ele></trkpt><trkpt lat="45.964199" lon="10.297759"><time>2025-04-28T06:21:53.000Z</time><ele>538.8</ele></trkpt><trkpt lat="45.964197" lon="10.297746"><time>2025-04-28T06:21:54.000Z</time><ele>539</ele></trkpt><trkpt lat="45.964191" lon="10.297744"><time>2025-04-28T06:21:55.000Z</time><ele>539</ele></trkpt><trkpt lat="45.964177" lon="10.297742"><time>2025-04-28T06:21:56.000Z</time><ele>539.2</ele></trkpt><trkpt lat="45.964164" lon="10.297745"><time>2025-04-28T06:21:57.000Z</time><ele>539.4</ele></trkpt><trkpt lat="45.964147" lon="10.297745"><time>2025-04-28T06:21:58.000Z</time><ele>539.6</ele></trkpt><trkpt lat="45.964143" lon="10.297732"><time>2025-04-28T06:21:59.000Z</time><ele>539.6</ele></trkpt><trkpt lat="45.96415" lon="10.29771"><time>2025-04-28T06:22:00.000Z</time><ele>540</ele></trkpt><trkpt lat="45.964155" lon="10.297692"><time>2025-04-28T06:22:01.000Z</time><ele>540.2</ele></trkpt><trkpt lat="45.964157" lon="10.297679"><time>2025-04-28T06:22:02.000Z</time><ele>540.4</ele></trkpt><trkpt lat="45.964156" lon="10.29767"><time>2025-04-28T06:22:03.000Z</time><ele>540.6</ele></trkpt><trkpt lat="45.964156" lon="10.297661"><time>2025-04-28T06:22:04.000Z</time><ele>540.6</ele></trkpt><trkpt lat="45.964153" lon="10.297654"><time>2025-04-28T06:22:05.000Z</time><ele>540.8</ele></trkpt><trkpt lat="45.964151" lon="10.297644"><time>2025-04-28T06:22:06.000Z</time><ele>541</ele></trkpt><trkpt lat="45.964151" lon="10.297644"><time>2025-04-28T06:22:07.000Z</time><ele>541.2</ele></trkpt><trkpt lat="45.964153" lon="10.297638"><time>2025-04-28T06:22:08.000Z</time><ele>541.2</ele></trkpt><trkpt lat="45.964155" lon="10.297634"><time>2025-04-28T06:22:09.000Z</time><ele>541.4</ele></trkpt><trkpt lat="45.964153" lon="10.297636"><time>2025-04-28T06:22:10.000Z</time><ele>541.6</ele></trkpt><trkpt lat="45.964151" lon="10.297634"><time>2025-04-28T06:22:11.000Z</time><ele>541.8</ele></trkpt><trkpt lat="45.964146" lon="10.29763"><time>2025-04-28T06:22:12.000Z</time><ele>541.8</ele></trkpt><trkpt lat="45.964142" lon="10.297625"><time>2025-04-28T06:22:13.000Z</time><ele>542</ele></trkpt><trkpt lat="45.964143" lon="10.297623"><time>2025-04-28T06:22:14.000Z</time><ele>542.2</ele></trkpt><trkpt lat="45.964143" lon="10.297619"><time>2025-04-28T06:22:15.000Z</time><ele>542.2</ele></trkpt><trkpt lat="45.964146" lon="10.297609"><time>2025-04-28T06:22:16.000Z</time><ele>542.4</ele></trkpt><trkpt lat="45.964155" lon="10.297589"><time>2025-04-28T06:22:17.000Z</time><ele>542.6</ele></trkpt><trkpt lat="45.964157" lon="10.297575"><time>2025-04-28T06:22:18.000Z</time><ele>542.8</ele></trkpt><trkpt lat="45.964163" lon="10.297564"><time>2025-04-28T06:22:19.000Z</time><ele>543</ele></trkpt><trkpt lat="45.964166" lon="10.297558"><time>2025-04-28T06:22:20.000Z</time><ele>543.2</ele></trkpt><trkpt lat="45.964168" lon="10.29755"><time>2025-04-28T06:22:21.000Z</time><ele>543.4</ele></trkpt><trkpt lat="45.964169" lon="10.297541"><time>2025-04-28T06:22:22.000Z</time><ele>543.4</ele></trkpt><trkpt lat="45.964171" lon="10.297537"><time>2025-04-28T06:22:23.000Z</time><ele>543.6</ele></trkpt><trkpt lat="45.964172" lon="10.297533"><time>2025-04-28T06:22:24.000Z</time><ele>543.8</ele></trkpt><trkpt lat="45.964173" lon="10.297529"><time>2025-04-28T06:22:25.000Z</time><ele>543.8</ele></trkpt><trkpt lat="45.964178" lon="10.297523"><time>2025-04-28T06:22:26.000Z</time><ele>544</ele></trkpt><trkpt lat="45.964181" lon="10.297517"><time>2025-04-28T06:22:27.000Z</time><ele>544.2</ele></trkpt><trkpt lat="45.964186" lon="10.29751"><time>2025-04-28T06:22:28.000Z</time><ele>544.4</ele></trkpt><trkpt lat="45.964182" lon="10.297505"><time>2025-04-28T06:22:29.000Z</time><ele>544.6</ele></trkpt><trkpt lat="45.964182" lon="10.297503"><time>2025-04-28T06:22:30.000Z</time><ele>544.8</ele></trkpt><trkpt lat="45.96418" lon="10.297499"><time>2025-04-28T06:22:31.000Z</time><ele>545.2</ele></trkpt><trkpt lat="45.964185" lon="10.297486"><time>2025-04-28T06:22:32.000Z</time><ele>545.4</ele></trkpt><trkpt lat="45.964189" lon="10.297471"><time>2025-04-28T06:22:33.000Z</time><ele>545.6</ele></trkpt><trkpt lat="45.964179" lon="10.297467"><time>2025-04-28T06:22:34.000Z</time><ele>545.8</ele></trkpt><trkpt lat="45.96417" lon="10.297463"><time>2025-04-28T06:22:35.000Z</time><ele>545.8</ele></trkpt><trkpt lat="45.96416" lon="10.297458"><time>2025-04-28T06:22:36.000Z</time><ele>546.2</ele></trkpt><trkpt lat="45.964161" lon="10.297448"><time>2025-04-28T06:22:37.000Z</time><ele>546.2</ele></trkpt><trkpt lat="45.964162" lon="10.297445"><time>2025-04-28T06:22:38.000Z</time><ele>546.4</ele></trkpt><trkpt lat="45.964163" lon="10.297441"><time>2025-04-28T06:22:39.000Z</time><ele>546.8</ele></trkpt><trkpt lat="45.964162" lon="10.297439"><time>2025-04-28T06:22:40.000Z</time><ele>546.8</ele></trkpt><trkpt lat="45.964164" lon="10.297431"><time>2025-04-28T06:22:41.000Z</time><ele>547</ele></trkpt><trkpt lat="45.964165" lon="10.29743"><time>2025-04-28T06:22:42.000Z</time><ele>547.2</ele></trkpt><trkpt lat="45.964171" lon="10.297425"><time>2025-04-28T06:22:43.000Z</time><ele>547.4</ele></trkpt><trkpt lat="45.964178" lon="10.297415"><time>2025-04-28T06:22:44.000Z</time><ele>547.4</ele></trkpt><trkpt lat="45.964187" lon="10.297408"><time>2025-04-28T06:22:45.000Z</time><ele>547.4</ele></trkpt><trkpt lat="45.964195" lon="10.297399"><time>2025-04-28T06:22:46.000Z</time><ele>547.6</ele></trkpt><trkpt lat="45.964204" lon="10.297389"><time>2025-04-28T06:22:47.000Z</time><ele>547.8</ele></trkpt><trkpt lat="45.96421" lon="10.297377"><time>2025-04-28T06:22:48.000Z</time><ele>547.8</ele></trkpt><trkpt lat="45.964218" lon="10.297368"><time>2025-04-28T06:22:49.000Z</time><ele>548</ele></trkpt><trkpt lat="45.964227" lon="10.297353"><time>2025-04-28T06:22:50.000Z</time><ele>548.2</ele></trkpt><trkpt lat="45.964237" lon="10.297343"><time>2025-04-28T06:22:51.000Z</time><ele>548.2</ele></trkpt><trkpt lat="45.964249" lon="10.297329"><time>2025-04-28T06:22:52.000Z</time><ele>548.4</ele></trkpt><trkpt lat="45.964252" lon="10.297327"><time>2025-04-28T06:22:53.000Z</time><ele>548.6</ele></trkpt><trkpt lat="45.964256" lon="10.297335"><time>2025-04-28T06:22:54.000Z</time><ele>548.8</ele></trkpt><trkpt lat="45.964263" lon="10.297333"><time>2025-04-28T06:22:55.000Z</time><ele>549</ele></trkpt><trkpt lat="45.964274" lon="10.297329"><time>2025-04-28T06:22:56.000Z</time><ele>549</ele></trkpt><trkpt lat="45.964287" lon="10.297314"><time>2025-04-28T06:22:57.000Z</time><ele>549.2</ele></trkpt><trkpt lat="45.964291" lon="10.297309"><time>2025-04-28T06:22:58.000Z</time><ele>549.4</ele></trkpt><trkpt lat="45.964298" lon="10.297304"><time>2025-04-28T06:22:59.000Z</time><ele>549.6</ele></trkpt><trkpt lat="45.964305" lon="10.297293"><time>2025-04-28T06:23:00.000Z</time><ele>549.6</ele></trkpt><trkpt lat="45.964309" lon="10.297292"><time>2025-04-28T06:23:01.000Z</time><ele>549.6</ele></trkpt><trkpt lat="45.96432" lon="10.297267"><time>2025-04-28T06:23:02.000Z</time><ele>549.8</ele></trkpt><trkpt lat="45.964332" lon="10.297261"><time>2025-04-28T06:23:03.000Z</time><ele>550</ele></trkpt><trkpt lat="45.964333" lon="10.297252"><time>2025-04-28T06:23:04.000Z</time><ele>550.2</ele></trkpt><trkpt lat="45.964341" lon="10.297239"><time>2025-04-28T06:23:05.000Z</time><ele>550.2</ele></trkpt><trkpt lat="45.964345" lon="10.297235"><time>2025-04-28T06:23:06.000Z</time><ele>550.4</ele></trkpt><trkpt lat="45.964346" lon="10.29723"><time>2025-04-28T06:23:07.000Z</time><ele>550.6</ele></trkpt><trkpt lat="45.964344" lon="10.297232"><time>2025-04-28T06:23:08.000Z</time><ele>550.8</ele></trkpt><trkpt lat="45.964344" lon="10.29723"><time>2025-04-28T06:23:09.000Z</time><ele>550.8</ele></trkpt><trkpt lat="45.964346" lon="10.297222"><time>2025-04-28T06:23:10.000Z</time><ele>551</ele></trkpt><trkpt lat="45.964351" lon="10.297206"><time>2025-04-28T06:23:11.000Z</time><ele>551.2</ele></trkpt><trkpt lat="45.964349" lon="10.297203"><time>2025-04-28T06:23:12.000Z</time><ele>551.4</ele></trkpt><trkpt lat="45.964338" lon="10.29721"><time>2025-04-28T06:23:13.000Z</time><ele>551.6</ele></trkpt><trkpt lat="45.964334" lon="10.297205"><time>2025-04-28T06:23:14.000Z</time><ele>551.8</ele></trkpt><trkpt lat="45.964336" lon="10.297198"><time>2025-04-28T06:23:15.000Z</time><ele>552</ele></trkpt><trkpt lat="45.964339" lon="10.297194"><time>2025-04-28T06:23:16.000Z</time><ele>552.2</ele></trkpt><trkpt lat="45.964342" lon="10.297189"><time>2025-04-28T06:23:17.000Z</time><ele>552.4</ele></trkpt><trkpt lat="45.964342" lon="10.297179"><time>2025-04-28T06:23:18.000Z</time><ele>552.6</ele></trkpt><trkpt lat="45.96434" lon="10.297172"><time>2025-04-28T06:23:19.000Z</time><ele>552.8</ele></trkpt><trkpt lat="45.964337" lon="10.297164"><time>2025-04-28T06:23:20.000Z</time><ele>553</ele></trkpt><trkpt lat="45.964338" lon="10.297156"><time>2025-04-28T06:23:21.000Z</time><ele>553.2</ele></trkpt><trkpt lat="45.964337" lon="10.297152"><time>2025-04-28T06:23:22.000Z</time><ele>553.2</ele></trkpt><trkpt lat="45.964335" lon="10.297146"><time>2025-04-28T06:23:23.000Z</time><ele>553.4</ele></trkpt><trkpt lat="45.964331" lon="10.297136"><time>2025-04-28T06:23:24.000Z</time><ele>553.4</ele></trkpt><trkpt lat="45.964334" lon="10.297114"><time>2025-04-28T06:23:25.000Z</time><ele>553.6</ele></trkpt><trkpt lat="45.964328" lon="10.297105"><time>2025-04-28T06:23:26.000Z</time><ele>553.8</ele></trkpt><trkpt lat="45.964316" lon="10.297107"><time>2025-04-28T06:23:27.000Z</time><ele>554</ele></trkpt><trkpt lat="45.964305" lon="10.297115"><time>2025-04-28T06:23:28.000Z</time><ele>554.2</ele></trkpt><trkpt lat="45.964301" lon="10.297116"><time>2025-04-28T06:23:29.000Z</time><ele>554.2</ele></trkpt><trkpt lat="45.964306" lon="10.297105"><time>2025-04-28T06:23:30.000Z</time><ele>554.6</ele></trkpt><trkpt lat="45.964312" lon="10.297087"><time>2025-04-28T06:23:31.000Z</time><ele>554.6</ele></trkpt><trkpt lat="45.96432" lon="10.297068"><time>2025-04-28T06:23:32.000Z</time><ele>554.8</ele></trkpt><trkpt lat="45.964323" lon="10.297059"><time>2025-04-28T06:23:33.000Z</time><ele>555</ele></trkpt><trkpt lat="45.964321" lon="10.297056"><time>2025-04-28T06:23:34.000Z</time><ele>555.2</ele></trkpt><trkpt lat="45.964321" lon="10.297049"><time>2025-04-28T06:23:35.000Z</time><ele>555.4</ele></trkpt><trkpt lat="45.964319" lon="10.297048"><time>2025-04-28T06:23:36.000Z</time><ele>555.6</ele></trkpt><trkpt lat="45.964325" lon="10.297037"><time>2025-04-28T06:23:37.000Z</time><ele>555.8</ele></trkpt><trkpt lat="45.964331" lon="10.297031"><time>2025-04-28T06:23:38.000Z</time><ele>555.8</ele></trkpt><trkpt lat="45.964334" lon="10.297024"><time>2025-04-28T06:23:39.000Z</time><ele>556.2</ele></trkpt><trkpt lat="45.96433" lon="10.297021"><time>2025-04-28T06:23:40.000Z</time><ele>556.2</ele></trkpt><trkpt lat="45.964333" lon="10.297011"><time>2025-04-28T06:23:41.000Z</time><ele>556.4</ele></trkpt><trkpt lat="45.964334" lon="10.297004"><time>2025-04-28T06:23:42.000Z</time><ele>556.6</ele></trkpt><trkpt lat="45.964332" lon="10.297001"><time>2025-04-28T06:23:43.000Z</time><ele>556.8</ele></trkpt><trkpt lat="45.964331" lon="10.296999"><time>2025-04-28T06:23:44.000Z</time><ele>557</ele></trkpt><trkpt lat="45.96433" lon="10.296995"><time>2025-04-28T06:23:45.000Z</time><ele>557.2</ele></trkpt><trkpt lat="45.964328" lon="10.296992"><time>2025-04-28T06:23:46.000Z</time><ele>557.4</ele></trkpt><trkpt lat="45.964337" lon="10.296964"><time>2025-04-28T06:23:47.000Z</time><ele>557.6</ele></trkpt><trkpt lat="45.964328" lon="10.296959"><time>2025-04-28T06:23:48.000Z</time><ele>557.8</ele></trkpt><trkpt lat="45.964323" lon="10.296957"><time>2025-04-28T06:23:49.000Z</time><ele>558</ele></trkpt><trkpt lat="45.964306" lon="10.296962"><time>2025-04-28T06:23:50.000Z</time><ele>558.2</ele></trkpt><trkpt lat="45.964301" lon="10.296957"><time>2025-04-28T06:23:51.000Z</time><ele>558.2</ele></trkpt><trkpt lat="45.964294" lon="10.296955"><time>2025-04-28T06:23:52.000Z</time><ele>558.4</ele></trkpt><trkpt lat="45.964284" lon="10.296952"><time>2025-04-28T06:23:53.000Z</time><ele>558.6</ele></trkpt><trkpt lat="45.964273" lon="10.29695"><time>2025-04-28T06:23:54.000Z</time><ele>558.8</ele></trkpt><trkpt lat="45.964269" lon="10.296946"><time>2025-04-28T06:23:55.000Z</time><ele>559</ele></trkpt><trkpt lat="45.964267" lon="10.296943"><time>2025-04-28T06:23:56.000Z</time><ele>559.2</ele></trkpt><trkpt lat="45.96427" lon="10.296935"><time>2025-04-28T06:23:57.000Z</time><ele>559.4</ele></trkpt><trkpt lat="45.964276" lon="10.296924"><time>2025-04-28T06:23:58.000Z</time><ele>559.4</ele></trkpt><trkpt lat="45.96428" lon="10.296915"><time>2025-04-28T06:23:59.000Z</time><ele>559.6</ele></trkpt><trkpt lat="45.964286" lon="10.296907"><time>2025-04-28T06:24:00.000Z</time><ele>559.6</ele></trkpt><trkpt lat="45.964289" lon="10.2969"><time>2025-04-28T06:24:01.000Z</time><ele>559.8</ele></trkpt><trkpt lat="45.964293" lon="10.296897"><time>2025-04-28T06:24:02.000Z</time><ele>559.8</ele></trkpt><trkpt lat="45.964298" lon="10.296891"><time>2025-04-28T06:24:03.000Z</time><ele>559.8</ele></trkpt><trkpt lat="45.964301" lon="10.296887"><time>2025-04-28T06:24:04.000Z</time><ele>560</ele></trkpt><trkpt lat="45.964302" lon="10.296891"><time>2025-04-28T06:24:05.000Z</time><ele>560.2</ele></trkpt><trkpt lat="45.964304" lon="10.296894"><time>2025-04-28T06:24:06.000Z</time><ele>560.4</ele></trkpt><trkpt lat="45.964306" lon="10.296894"><time>2025-04-28T06:24:07.000Z</time><ele>560.6</ele></trkpt><trkpt lat="45.964307" lon="10.296891"><time>2025-04-28T06:24:08.000Z</time><ele>560.6</ele></trkpt><trkpt lat="45.964308" lon="10.296889"><time>2025-04-28T06:24:09.000Z</time><ele>560.8</ele></trkpt><trkpt lat="45.964309" lon="10.296878"><time>2025-04-28T06:24:10.000Z</time><ele>561</ele></trkpt><trkpt lat="45.96431" lon="10.29686"><time>2025-04-28T06:24:11.000Z</time><ele>561.4</ele></trkpt><trkpt lat="45.964306" lon="10.296847"><time>2025-04-28T06:24:12.000Z</time><ele>561.6</ele></trkpt><trkpt lat="45.964309" lon="10.296836"><time>2025-04-28T06:24:13.000Z</time><ele>561.8</ele></trkpt><trkpt lat="45.96432" lon="10.296818"><time>2025-04-28T06:24:14.000Z</time><ele>561.8</ele></trkpt><trkpt lat="45.964326" lon="10.296814"><time>2025-04-28T06:24:15.000Z</time><ele>562</ele></trkpt><trkpt lat="45.964326" lon="10.296812"><time>2025-04-28T06:24:16.000Z</time><ele>562</ele></trkpt><trkpt lat="45.964326" lon="10.296812"><time>2025-04-28T06:24:17.000Z</time><ele>562.4</ele></trkpt><trkpt lat="45.964326" lon="10.296812"><time>2025-04-28T06:24:18.000Z</time><ele>562.4</ele></trkpt><trkpt lat="45.964326" lon="10.296812"><time>2025-04-28T06:24:19.000Z</time><ele>562.6</ele></trkpt><trkpt lat="45.964326" lon="10.296812"><time>2025-04-28T06:24:20.000Z</time><ele>562.6</ele></trkpt><trkpt lat="45.964326" lon="10.296812"><time>2025-04-28T06:24:21.000Z</time><ele>562.8</ele></trkpt><trkpt lat="45.964326" lon="10.296812"><time>2025-04-28T06:24:22.000Z</time><ele>563.2</ele></trkpt><trkpt lat="45.964326" lon="10.296812"><time>2025-04-28T06:24:23.000Z</time><ele>563.4</ele></trkpt><trkpt lat="45.964326" lon="10.296812"><time>2025-04-28T06:24:24.000Z</time><ele>563.6</ele></trkpt><trkpt lat="45.964324" lon="10.296812"><time>2025-04-28T06:24:25.000Z</time><ele>563.8</ele></trkpt><trkpt lat="45.964323" lon="10.296812"><time>2025-04-28T06:24:26.000Z</time><ele>564</ele></trkpt><trkpt lat="45.964321" lon="10.296812"><time>2025-04-28T06:24:27.000Z</time><ele>564</ele></trkpt><trkpt lat="45.96432" lon="10.296812"><time>2025-04-28T06:24:28.000Z</time><ele>564</ele></trkpt><trkpt lat="45.964318" lon="10.296812"><time>2025-04-28T06:24:29.000Z</time><ele>564.2</ele></trkpt><trkpt lat="45.964311" lon="10.296812"><time>2025-04-28T06:24:30.000Z</time><ele>564.4</ele></trkpt><trkpt lat="45.964307" lon="10.296804"><time>2025-04-28T06:24:31.000Z</time><ele>564.6</ele></trkpt><trkpt lat="45.964292" lon="10.296802"><time>2025-04-28T06:24:32.000Z</time><ele>564.8</ele></trkpt><trkpt lat="45.964284" lon="10.296789"><time>2025-04-28T06:24:33.000Z</time><ele>564.8</ele></trkpt><trkpt lat="45.96428" lon="10.296772"><time>2025-04-28T06:24:34.000Z</time><ele>565</ele></trkpt><trkpt lat="45.964274" lon="10.296753"><time>2025-04-28T06:24:35.000Z</time><ele>565.2</ele></trkpt><trkpt lat="45.964269" lon="10.296732"><time>2025-04-28T06:24:36.000Z</time><ele>565.4</ele></trkpt><trkpt lat="45.96427" lon="10.296708"><time>2025-04-28T06:24:37.000Z</time><ele>565.4</ele></trkpt><trkpt lat="45.964275" lon="10.29669"><time>2025-04-28T06:24:38.000Z</time><ele>565.4</ele></trkpt><trkpt lat="45.964273" lon="10.296677"><time>2025-04-28T06:24:39.000Z</time><ele>565.6</ele></trkpt><trkpt lat="45.964271" lon="10.296668"><time>2025-04-28T06:24:40.000Z</time><ele>565.8</ele></trkpt><trkpt lat="45.964272" lon="10.296669"><time>2025-04-28T06:24:41.000Z</time><ele>565.8</ele></trkpt><trkpt lat="45.964272" lon="10.296669"><time>2025-04-28T06:24:42.000Z</time><ele>565.8</ele></trkpt><trkpt lat="45.964271" lon="10.296665"><time>2025-04-28T06:24:43.000Z</time><ele>565.8</ele></trkpt><trkpt lat="45.964267" lon="10.296664"><time>2025-04-28T06:24:44.000Z</time><ele>566</ele></trkpt><trkpt lat="45.964267" lon="10.296663"><time>2025-04-28T06:24:45.000Z</time><ele>566</ele></trkpt><trkpt lat="45.964269" lon="10.296664"><time>2025-04-28T06:24:46.000Z</time><ele>566</ele></trkpt><trkpt lat="45.964272" lon="10.29666"><time>2025-04-28T06:24:47.000Z</time><ele>565.8</ele></trkpt><trkpt lat="45.964274" lon="10.296661"><time>2025-04-28T06:24:48.000Z</time><ele>565.8</ele></trkpt><trkpt lat="45.964272" lon="10.296651"><time>2025-04-28T06:24:49.000Z</time><ele>565.8</ele></trkpt><trkpt lat="45.964274" lon="10.296648"><time>2025-04-28T06:24:50.000Z</time><ele>565.8</ele></trkpt><trkpt lat="45.964274" lon="10.296648"><time>2025-04-28T06:24:51.000Z</time><ele>565.8</ele></trkpt><trkpt lat="45.964274" lon="10.296648"><time>2025-04-28T06:24:52.000Z</time><ele>565.8</ele></trkpt><trkpt lat="45.964274" lon="10.296648"><time>2025-04-28T06:24:53.000Z</time><ele>565.8</ele></trkpt><trkpt lat="45.964274" lon="10.296648"><time>2025-04-28T06:24:54.000Z</time><ele>565.8</ele></trkpt><trkpt lat="45.964274" lon="10.296648"><time>2025-04-28T06:24:55.000Z</time><ele>565.8</ele></trkpt><trkpt lat="45.964274" lon="10.296648"><time>2025-04-28T06:24:56.000Z</time><ele>565.8</ele></trkpt><trkpt lat="45.964274" lon="10.296648"><time>2025-04-28T06:24:57.000Z</time><ele>565.8</ele></trkpt><trkpt lat="45.964274" lon="10.296649"><time>2025-04-28T06:24:58.000Z</time><ele>565.8</ele></trkpt><trkpt lat="45.964274" lon="10.296649"><time>2025-04-28T06:24:59.000Z</time><ele>565.8</ele></trkpt><trkpt lat="45.964275" lon="10.296647"><time>2025-04-28T06:25:00.000Z</time><ele>565.8</ele></trkpt><trkpt lat="45.96427" lon="10.296645"><time>2025-04-28T06:25:01.000Z</time><ele>566</ele></trkpt><trkpt lat="45.96427" lon="10.296645"><time>2025-04-28T06:25:02.000Z</time><ele>566.2</ele></trkpt><trkpt lat="45.96427" lon="10.296645"><time>2025-04-28T06:25:03.000Z</time><ele>566.2</ele></trkpt><trkpt lat="45.96427" lon="10.296645"><time>2025-04-28T06:25:04.000Z</time><ele>566.4</ele></trkpt><trkpt lat="45.96427" lon="10.296645"><time>2025-04-28T06:25:05.000Z</time><ele>566.6</ele></trkpt><trkpt lat="45.96427" lon="10.296645"><time>2025-04-28T06:25:06.000Z</time><ele>566.6</ele></trkpt><trkpt lat="45.96427" lon="10.296645"><time>2025-04-28T06:25:07.000Z</time><ele>566.8</ele></trkpt><trkpt lat="45.96427" lon="10.296645"><time>2025-04-28T06:25:08.000Z</time><ele>566.8</ele></trkpt><trkpt lat="45.96427" lon="10.296645"><time>2025-04-28T06:25:09.000Z</time><ele>567</ele></trkpt><trkpt lat="45.96427" lon="10.296645"><time>2025-04-28T06:25:10.000Z</time><ele>567</ele></trkpt><trkpt lat="45.96427" lon="10.296645"><time>2025-04-28T06:25:11.000Z</time><ele>567.2</ele></trkpt><trkpt lat="45.964271" lon="10.296645"><time>2025-04-28T06:25:12.000Z</time><ele>567.2</ele></trkpt><trkpt lat="45.964271" lon="10.296645"><time>2025-04-28T06:25:13.000Z</time><ele>567.4</ele></trkpt><trkpt lat="45.964272" lon="10.296636"><time>2025-04-28T06:25:14.000Z</time><ele>567.6</ele></trkpt><trkpt lat="45.964272" lon="10.29663"><time>2025-04-28T06:25:15.000Z</time><ele>567.8</ele></trkpt><trkpt lat="45.964272" lon="10.29663"><time>2025-04-28T06:25:16.000Z</time><ele>568</ele></trkpt><trkpt lat="45.964273" lon="10.29663"><time>2025-04-28T06:25:17.000Z</time><ele>568.2</ele></trkpt><trkpt lat="45.964273" lon="10.296628"><time>2025-04-28T06:25:18.000Z</time><ele>568.4</ele></trkpt><trkpt lat="45.964273" lon="10.296627"><time>2025-04-28T06:25:19.000Z</time><ele>568.6</ele></trkpt><trkpt lat="45.964277" lon="10.296627"><time>2025-04-28T06:25:20.000Z</time><ele>568.8</ele></trkpt><trkpt lat="45.964279" lon="10.296627"><time>2025-04-28T06:25:21.000Z</time><ele>568.8</ele></trkpt><trkpt lat="45.96428" lon="10.296627"><time>2025-04-28T06:25:22.000Z</time><ele>569</ele></trkpt><trkpt lat="45.96428" lon="10.296627"><time>2025-04-28T06:25:23.000Z</time><ele>569.2</ele></trkpt><trkpt lat="45.964281" lon="10.296627"><time>2025-04-28T06:25:24.000Z</time><ele>569.2</ele></trkpt><trkpt lat="45.964283" lon="10.296627"><time>2025-04-28T06:25:25.000Z</time><ele>569.4</ele></trkpt><trkpt lat="45.964286" lon="10.296627"><time>2025-04-28T06:25:26.000Z</time><ele>569.6</ele></trkpt><trkpt lat="45.964287" lon="10.296627"><time>2025-04-28T06:25:27.000Z</time><ele>569.8</ele></trkpt><trkpt lat="45.964291" lon="10.296627"><time>2025-04-28T06:25:28.000Z</time><ele>570</ele></trkpt><trkpt lat="45.964294" lon="10.296627"><time>2025-04-28T06:25:29.000Z</time><ele>570.2</ele></trkpt><trkpt lat="45.9643" lon="10.296632"><time>2025-04-28T06:25:30.000Z</time><ele>570.4</ele></trkpt><trkpt lat="45.964315" lon="10.296629"><time>2025-04-28T06:25:31.000Z</time><ele>570.4</ele></trkpt><trkpt lat="45.964328" lon="10.296628"><time>2025-04-28T06:25:32.000Z</time><ele>570.6</ele></trkpt><trkpt lat="45.964346" lon="10.296622"><time>2025-04-28T06:25:33.000Z</time><ele>570.8</ele></trkpt><trkpt lat="45.964359" lon="10.296624"><time>2025-04-28T06:25:34.000Z</time><ele>571</ele></trkpt><trkpt lat="45.964373" lon="10.296623"><time>2025-04-28T06:25:35.000Z</time><ele>571</ele></trkpt><trkpt lat="45.964383" lon="10.296618"><time>2025-04-28T06:25:36.000Z</time><ele>571.2</ele></trkpt><trkpt lat="45.964395" lon="10.296611"><time>2025-04-28T06:25:37.000Z</time><ele>571.4</ele></trkpt><trkpt lat="45.964405" lon="10.296611"><time>2025-04-28T06:25:38.000Z</time><ele>571.6</ele></trkpt><trkpt lat="45.964415" lon="10.296606"><time>2025-04-28T06:25:39.000Z</time><ele>571.8</ele></trkpt><trkpt lat="45.96442" lon="10.296596"><time>2025-04-28T06:25:40.000Z</time><ele>572</ele></trkpt><trkpt lat="45.964423" lon="10.29659"><time>2025-04-28T06:25:41.000Z</time><ele>572.2</ele></trkpt><trkpt lat="45.964425" lon="10.296582"><time>2025-04-28T06:25:42.000Z</time><ele>572.2</ele></trkpt><trkpt lat="45.964425" lon="10.296579"><time>2025-04-28T06:25:43.000Z</time><ele>572.4</ele></trkpt><trkpt lat="45.964428" lon="10.296573"><time>2025-04-28T06:25:44.000Z</time><ele>572.6</ele></trkpt><trkpt lat="45.964428" lon="10.296569"><time>2025-04-28T06:25:45.000Z</time><ele>572.8</ele></trkpt><trkpt lat="45.964431" lon="10.296563"><time>2025-04-28T06:25:46.000Z</time><ele>573</ele></trkpt><trkpt lat="45.964433" lon="10.296557"><time>2025-04-28T06:25:47.000Z</time><ele>573.2</ele></trkpt><trkpt lat="45.964432" lon="10.296547"><time>2025-04-28T06:25:48.000Z</time><ele>573.4</ele></trkpt><trkpt lat="45.964434" lon="10.29654"><time>2025-04-28T06:25:49.000Z</time><ele>573.6</ele></trkpt><trkpt lat="45.964439" lon="10.296524"><time>2025-04-28T06:25:50.000Z</time><ele>573.6</ele></trkpt><trkpt lat="45.96444" lon="10.29652"><time>2025-04-28T06:25:51.000Z</time><ele>573.8</ele></trkpt><trkpt lat="45.964436" lon="10.296515"><time>2025-04-28T06:25:52.000Z</time><ele>574</ele></trkpt><trkpt lat="45.964435" lon="10.296511"><time>2025-04-28T06:25:53.000Z</time><ele>574.2</ele></trkpt><trkpt lat="45.964433" lon="10.29651"><time>2025-04-28T06:25:54.000Z</time><ele>574.4</ele></trkpt><trkpt lat="45.96443" lon="10.296508"><time>2025-04-28T06:25:55.000Z</time><ele>574.6</ele></trkpt><trkpt lat="45.964431" lon="10.296503"><time>2025-04-28T06:25:56.000Z</time><ele>574.8</ele></trkpt><trkpt lat="45.964433" lon="10.296492"><time>2025-04-28T06:25:57.000Z</time><ele>575</ele></trkpt><trkpt lat="45.964429" lon="10.29649"><time>2025-04-28T06:25:58.000Z</time><ele>575.2</ele></trkpt><trkpt lat="45.964427" lon="10.296486"><time>2025-04-28T06:25:59.000Z</time><ele>575.4</ele></trkpt><trkpt lat="45.964424" lon="10.296483"><time>2025-04-28T06:26:00.000Z</time><ele>575.6</ele></trkpt><trkpt lat="45.964431" lon="10.296467"><time>2025-04-28T06:26:01.000Z</time><ele>575.8</ele></trkpt><trkpt lat="45.964441" lon="10.296451"><time>2025-04-28T06:26:02.000Z</time><ele>576.2</ele></trkpt><trkpt lat="45.964442" lon="10.29645"><time>2025-04-28T06:26:03.000Z</time><ele>576.4</ele></trkpt><trkpt lat="45.964452" lon="10.296445"><time>2025-04-28T06:26:04.000Z</time><ele>576.6</ele></trkpt><trkpt lat="45.964453" lon="10.296446"><time>2025-04-28T06:26:05.000Z</time><ele>576.8</ele></trkpt><trkpt lat="45.964455" lon="10.296447"><time>2025-04-28T06:26:06.000Z</time><ele>576.8</ele></trkpt><trkpt lat="45.964459" lon="10.296441"><time>2025-04-28T06:26:07.000Z</time><ele>577.2</ele></trkpt><trkpt lat="45.96446" lon="10.296434"><time>2025-04-28T06:26:08.000Z</time><ele>577.2</ele></trkpt><trkpt lat="45.964457" lon="10.296422"><time>2025-04-28T06:26:09.000Z</time><ele>577.4</ele></trkpt><trkpt lat="45.964461" lon="10.296411"><time>2025-04-28T06:26:10.000Z</time><ele>577.6</ele></trkpt><trkpt lat="45.964461" lon="10.2964"><time>2025-04-28T06:26:11.000Z</time><ele>577.8</ele></trkpt><trkpt lat="45.964455" lon="10.296389"><time>2025-04-28T06:26:12.000Z</time><ele>578</ele></trkpt><trkpt lat="45.964455" lon="10.296387"><time>2025-04-28T06:26:13.000Z</time><ele>578.2</ele></trkpt><trkpt lat="45.964468" lon="10.296378"><time>2025-04-28T06:26:14.000Z</time><ele>578.4</ele></trkpt><trkpt lat="45.964478" lon="10.296366"><time>2025-04-28T06:26:15.000Z</time><ele>578.6</ele></trkpt><trkpt lat="45.964487" lon="10.29635"><time>2025-04-28T06:26:16.000Z</time><ele>578.8</ele></trkpt><trkpt lat="45.964493" lon="10.296341"><time>2025-04-28T06:26:17.000Z</time><ele>579.2</ele></trkpt><trkpt lat="45.964504" lon="10.296322"><time>2025-04-28T06:26:18.000Z</time><ele>579.2</ele></trkpt><trkpt lat="45.964515" lon="10.296316"><time>2025-04-28T06:26:19.000Z</time><ele>579.4</ele></trkpt><trkpt lat="45.964524" lon="10.296312"><time>2025-04-28T06:26:20.000Z</time><ele>579.6</ele></trkpt><trkpt lat="45.964537" lon="10.296306"><time>2025-04-28T06:26:21.000Z</time><ele>579.6</ele></trkpt><trkpt lat="45.964552" lon="10.296303"><time>2025-04-28T06:26:22.000Z</time><ele>579.8</ele></trkpt><trkpt lat="45.964556" lon="10.296306"><time>2025-04-28T06:26:23.000Z</time><ele>579.8</ele></trkpt><trkpt lat="45.964557" lon="10.296304"><time>2025-04-28T06:26:24.000Z</time><ele>580</ele></trkpt><trkpt lat="45.964561" lon="10.296308"><time>2025-04-28T06:26:25.000Z</time><ele>580</ele></trkpt><trkpt lat="45.964564" lon="10.296312"><time>2025-04-28T06:26:26.000Z</time><ele>580.2</ele></trkpt><trkpt lat="45.964572" lon="10.296309"><time>2025-04-28T06:26:27.000Z</time><ele>580.2</ele></trkpt><trkpt lat="45.964579" lon="10.296305"><time>2025-04-28T06:26:28.000Z</time><ele>580.4</ele></trkpt><trkpt lat="45.964588" lon="10.296298"><time>2025-04-28T06:26:29.000Z</time><ele>580.6</ele></trkpt><trkpt lat="45.964596" lon="10.296299"><time>2025-04-28T06:26:30.000Z</time><ele>580.8</ele></trkpt><trkpt lat="45.964598" lon="10.296298"><time>2025-04-28T06:26:31.000Z</time><ele>581</ele></trkpt><trkpt lat="45.964599" lon="10.296297"><time>2025-04-28T06:26:32.000Z</time><ele>581.2</ele></trkpt><trkpt lat="45.964595" lon="10.296299"><time>2025-04-28T06:26:33.000Z</time><ele>581.4</ele></trkpt><trkpt lat="45.964605" lon="10.296297"><time>2025-04-28T06:26:34.000Z</time><ele>581.4</ele></trkpt><trkpt lat="45.964614" lon="10.296296"><time>2025-04-28T06:26:35.000Z</time><ele>581.6</ele></trkpt><trkpt lat="45.964624" lon="10.296295"><time>2025-04-28T06:26:36.000Z</time><ele>581.8</ele></trkpt><trkpt lat="45.964634" lon="10.296299"><time>2025-04-28T06:26:37.000Z</time><ele>581.8</ele></trkpt><trkpt lat="45.964646" lon="10.296296"><time>2025-04-28T06:26:38.000Z</time><ele>581.8</ele></trkpt><trkpt lat="45.964654" lon="10.29629"><time>2025-04-28T06:26:39.000Z</time><ele>582</ele></trkpt><trkpt lat="45.964669" lon="10.29628"><time>2025-04-28T06:26:40.000Z</time><ele>582</ele></trkpt><trkpt lat="45.964676" lon="10.296275"><time>2025-04-28T06:26:41.000Z</time><ele>582.4</ele></trkpt><trkpt lat="45.964685" lon="10.29627"><time>2025-04-28T06:26:42.000Z</time><ele>582.6</ele></trkpt><trkpt lat="45.964697" lon="10.296262"><time>2025-04-28T06:26:43.000Z</time><ele>582.8</ele></trkpt><trkpt lat="45.964701" lon="10.296262"><time>2025-04-28T06:26:44.000Z</time><ele>583</ele></trkpt><trkpt lat="45.964716" lon="10.296264"><time>2025-04-28T06:26:45.000Z</time><ele>583</ele></trkpt><trkpt lat="45.964724" lon="10.296266"><time>2025-04-28T06:26:46.000Z</time><ele>583</ele></trkpt><trkpt lat="45.96473" lon="10.296268"><time>2025-04-28T06:26:47.000Z</time><ele>583.2</ele></trkpt><trkpt lat="45.964736" lon="10.296268"><time>2025-04-28T06:26:48.000Z</time><ele>583.2</ele></trkpt><trkpt lat="45.96474" lon="10.296269"><time>2025-04-28T06:26:49.000Z</time><ele>583.4</ele></trkpt><trkpt lat="45.964747" lon="10.296265"><time>2025-04-28T06:26:50.000Z</time><ele>583.6</ele></trkpt><trkpt lat="45.964758" lon="10.296258"><time>2025-04-28T06:26:51.000Z</time><ele>583.8</ele></trkpt><trkpt lat="45.964768" lon="10.296251"><time>2025-04-28T06:26:52.000Z</time><ele>583.8</ele></trkpt><trkpt lat="45.964777" lon="10.296244"><time>2025-04-28T06:26:53.000Z</time><ele>584</ele></trkpt><trkpt lat="45.964782" lon="10.296243"><time>2025-04-28T06:26:54.000Z</time><ele>584.2</ele></trkpt><trkpt lat="45.964787" lon="10.296241"><time>2025-04-28T06:26:55.000Z</time><ele>584.2</ele></trkpt><trkpt lat="45.964791" lon="10.29624"><time>2025-04-28T06:26:56.000Z</time><ele>584.2</ele></trkpt><trkpt lat="45.964799" lon="10.296234"><time>2025-04-28T06:26:57.000Z</time><ele>584.4</ele></trkpt><trkpt lat="45.964819" lon="10.296215"><time>2025-04-28T06:26:58.000Z</time><ele>584.4</ele></trkpt><trkpt lat="45.964823" lon="10.296213"><time>2025-04-28T06:26:59.000Z</time><ele>584.6</ele></trkpt><trkpt lat="45.964822" lon="10.296215"><time>2025-04-28T06:27:00.000Z</time><ele>584.8</ele></trkpt><trkpt lat="45.964824" lon="10.296207"><time>2025-04-28T06:27:01.000Z</time><ele>585</ele></trkpt><trkpt lat="45.964833" lon="10.296206"><time>2025-04-28T06:27:02.000Z</time><ele>585</ele></trkpt><trkpt lat="45.96484" lon="10.296209"><time>2025-04-28T06:27:03.000Z</time><ele>585.2</ele></trkpt><trkpt lat="45.964848" lon="10.296197"><time>2025-04-28T06:27:04.000Z</time><ele>585.4</ele></trkpt><trkpt lat="45.96486" lon="10.296189"><time>2025-04-28T06:27:05.000Z</time><ele>585.6</ele></trkpt><trkpt lat="45.964867" lon="10.296181"><time>2025-04-28T06:27:06.000Z</time><ele>585.8</ele></trkpt><trkpt lat="45.964871" lon="10.296171"><time>2025-04-28T06:27:07.000Z</time><ele>586</ele></trkpt><trkpt lat="45.964873" lon="10.296172"><time>2025-04-28T06:27:08.000Z</time><ele>586</ele></trkpt><trkpt lat="45.964877" lon="10.296167"><time>2025-04-28T06:27:09.000Z</time><ele>586.2</ele></trkpt><trkpt lat="45.964882" lon="10.296161"><time>2025-04-28T06:27:10.000Z</time><ele>586.4</ele></trkpt><trkpt lat="45.964886" lon="10.296161"><time>2025-04-28T06:27:11.000Z</time><ele>586.4</ele></trkpt><trkpt lat="45.964892" lon="10.296159"><time>2025-04-28T06:27:12.000Z</time><ele>586.6</ele></trkpt><trkpt lat="45.964902" lon="10.296152"><time>2025-04-28T06:27:13.000Z</time><ele>586.6</ele></trkpt><trkpt lat="45.964912" lon="10.296144"><time>2025-04-28T06:27:14.000Z</time><ele>586.6</ele></trkpt><trkpt lat="45.964921" lon="10.296136"><time>2025-04-28T06:27:15.000Z</time><ele>586.8</ele></trkpt><trkpt lat="45.964929" lon="10.296133"><time>2025-04-28T06:27:16.000Z</time><ele>587</ele></trkpt><trkpt lat="45.964937" lon="10.296137"><time>2025-04-28T06:27:17.000Z</time><ele>587</ele></trkpt><trkpt lat="45.964944" lon="10.29614"><time>2025-04-28T06:27:18.000Z</time><ele>587.2</ele></trkpt><trkpt lat="45.96495" lon="10.296142"><time>2025-04-28T06:27:19.000Z</time><ele>587.4</ele></trkpt><trkpt lat="45.964954" lon="10.296146"><time>2025-04-28T06:27:20.000Z</time><ele>587.4</ele></trkpt><trkpt lat="45.96496" lon="10.29615"><time>2025-04-28T06:27:21.000Z</time><ele>587.6</ele></trkpt><trkpt lat="45.96497" lon="10.296149"><time>2025-04-28T06:27:22.000Z</time><ele>587.8</ele></trkpt><trkpt lat="45.964979" lon="10.296149"><time>2025-04-28T06:27:23.000Z</time><ele>588</ele></trkpt><trkpt lat="45.964988" lon="10.296147"><time>2025-04-28T06:27:24.000Z</time><ele>588</ele></trkpt><trkpt lat="45.964995" lon="10.296147"><time>2025-04-28T06:27:25.000Z</time><ele>588.2</ele></trkpt><trkpt lat="45.965005" lon="10.296139"><time>2025-04-28T06:27:26.000Z</time><ele>588.2</ele></trkpt><trkpt lat="45.965019" lon="10.296128"><time>2025-04-28T06:27:27.000Z</time><ele>588.4</ele></trkpt><trkpt lat="45.96503" lon="10.296113"><time>2025-04-28T06:27:28.000Z</time><ele>588.6</ele></trkpt><trkpt lat="45.965035" lon="10.29611"><time>2025-04-28T06:27:29.000Z</time><ele>588.8</ele></trkpt><trkpt lat="45.96504" lon="10.296105"><time>2025-04-28T06:27:30.000Z</time><ele>588.8</ele></trkpt><trkpt lat="45.965048" lon="10.296099"><time>2025-04-28T06:27:31.000Z</time><ele>589</ele></trkpt><trkpt lat="45.965058" lon="10.296092"><time>2025-04-28T06:27:32.000Z</time><ele>589</ele></trkpt><trkpt lat="45.965061" lon="10.296088"><time>2025-04-28T06:27:33.000Z</time><ele>589.2</ele></trkpt><trkpt lat="45.965065" lon="10.296088"><time>2025-04-28T06:27:34.000Z</time><ele>589.4</ele></trkpt><trkpt lat="45.965073" lon="10.296084"><time>2025-04-28T06:27:35.000Z</time><ele>589.6</ele></trkpt><trkpt lat="45.965082" lon="10.296078"><time>2025-04-28T06:27:36.000Z</time><ele>589.6</ele></trkpt><trkpt lat="45.965088" lon="10.29608"><time>2025-04-28T06:27:37.000Z</time><ele>589.8</ele></trkpt><trkpt lat="45.96509" lon="10.296084"><time>2025-04-28T06:27:38.000Z</time><ele>590</ele></trkpt><trkpt lat="45.965094" lon="10.296094"><time>2025-04-28T06:27:39.000Z</time><ele>590.2</ele></trkpt><trkpt lat="45.965102" lon="10.296089"><time>2025-04-28T06:27:40.000Z</time><ele>590.4</ele></trkpt><trkpt lat="45.965108" lon="10.29609"><time>2025-04-28T06:27:41.000Z</time><ele>590.4</ele></trkpt><trkpt lat="45.965112" lon="10.296088"><time>2025-04-28T06:27:42.000Z</time><ele>590.6</ele></trkpt><trkpt lat="45.965116" lon="10.296087"><time>2025-04-28T06:27:43.000Z</time><ele>590.6</ele></trkpt><trkpt lat="45.965126" lon="10.296068"><time>2025-04-28T06:27:44.000Z</time><ele>590.8</ele></trkpt><trkpt lat="45.965139" lon="10.296049"><time>2025-04-28T06:27:45.000Z</time><ele>590.8</ele></trkpt><trkpt lat="45.965147" lon="10.296045"><time>2025-04-28T06:27:46.000Z</time><ele>591</ele></trkpt><trkpt lat="45.965155" lon="10.296044"><time>2025-04-28T06:27:47.000Z</time><ele>591.2</ele></trkpt><trkpt lat="45.965166" lon="10.296032"><time>2025-04-28T06:27:48.000Z</time><ele>591.4</ele></trkpt><trkpt lat="45.965173" lon="10.296025"><time>2025-04-28T06:27:49.000Z</time><ele>591.6</ele></trkpt><trkpt lat="45.965179" lon="10.296022"><time>2025-04-28T06:27:50.000Z</time><ele>591.8</ele></trkpt><trkpt lat="45.965185" lon="10.29602"><time>2025-04-28T06:27:51.000Z</time><ele>591.8</ele></trkpt><trkpt lat="45.965193" lon="10.296018"><time>2025-04-28T06:27:52.000Z</time><ele>592</ele></trkpt><trkpt lat="45.9652" lon="10.296012"><time>2025-04-28T06:27:53.000Z</time><ele>592</ele></trkpt><trkpt lat="45.96521" lon="10.296006"><time>2025-04-28T06:27:54.000Z</time><ele>592.2</ele></trkpt><trkpt lat="45.965217" lon="10.296"><time>2025-04-28T06:27:55.000Z</time><ele>592.2</ele></trkpt><trkpt lat="45.965227" lon="10.295991"><time>2025-04-28T06:27:56.000Z</time><ele>592.4</ele></trkpt><trkpt lat="45.965243" lon="10.29597"><time>2025-04-28T06:27:57.000Z</time><ele>592.6</ele></trkpt><trkpt lat="45.96526" lon="10.295947"><time>2025-04-28T06:27:58.000Z</time><ele>592.8</ele></trkpt><trkpt lat="45.965275" lon="10.295922"><time>2025-04-28T06:27:59.000Z</time><ele>593</ele></trkpt><trkpt lat="45.965283" lon="10.295909"><time>2025-04-28T06:28:00.000Z</time><ele>593</ele></trkpt><trkpt lat="45.965288" lon="10.295898"><time>2025-04-28T06:28:01.000Z</time><ele>593.2</ele></trkpt><trkpt lat="45.965293" lon="10.295893"><time>2025-04-28T06:28:02.000Z</time><ele>593.4</ele></trkpt><trkpt lat="45.965288" lon="10.295889"><time>2025-04-28T06:28:03.000Z</time><ele>593.8</ele></trkpt><trkpt lat="45.965293" lon="10.295885"><time>2025-04-28T06:28:04.000Z</time><ele>594</ele></trkpt><trkpt lat="45.965298" lon="10.295879"><time>2025-04-28T06:28:05.000Z</time><ele>594.2</ele></trkpt><trkpt lat="45.965296" lon="10.295877"><time>2025-04-28T06:28:06.000Z</time><ele>594.2</ele></trkpt><trkpt lat="45.965288" lon="10.295876"><time>2025-04-28T06:28:07.000Z</time><ele>594.4</ele></trkpt><trkpt lat="45.96528" lon="10.295879"><time>2025-04-28T06:28:08.000Z</time><ele>594.4</ele></trkpt><trkpt lat="45.965275" lon="10.295881"><time>2025-04-28T06:28:09.000Z</time><ele>594.4</ele></trkpt><trkpt lat="45.965275" lon="10.295878"><time>2025-04-28T06:28:10.000Z</time><ele>594.4</ele></trkpt><trkpt lat="45.965272" lon="10.295877"><time>2025-04-28T06:28:11.000Z</time><ele>594.6</ele></trkpt><trkpt lat="45.965271" lon="10.295876"><time>2025-04-28T06:28:12.000Z</time><ele>594.8</ele></trkpt><trkpt lat="45.965268" lon="10.295877"><time>2025-04-28T06:28:13.000Z</time><ele>594.8</ele></trkpt><trkpt lat="45.965262" lon="10.295877"><time>2025-04-28T06:28:14.000Z</time><ele>595.4</ele></trkpt><trkpt lat="45.965259" lon="10.295874"><time>2025-04-28T06:28:15.000Z</time><ele>595.6</ele></trkpt><trkpt lat="45.965253" lon="10.295878"><time>2025-04-28T06:28:16.000Z</time><ele>595.8</ele></trkpt><trkpt lat="45.96525" lon="10.295882"><time>2025-04-28T06:28:17.000Z</time><ele>595.8</ele></trkpt><trkpt lat="45.965248" lon="10.295884"><time>2025-04-28T06:28:18.000Z</time><ele>596</ele></trkpt><trkpt lat="45.965247" lon="10.295885"><time>2025-04-28T06:28:19.000Z</time><ele>596</ele></trkpt><trkpt lat="45.965249" lon="10.295883"><time>2025-04-28T06:28:20.000Z</time><ele>596</ele></trkpt><trkpt lat="45.965252" lon="10.295883"><time>2025-04-28T06:28:21.000Z</time><ele>596.2</ele></trkpt><trkpt lat="45.965253" lon="10.29588"><time>2025-04-28T06:28:22.000Z</time><ele>596.2</ele></trkpt><trkpt lat="45.965254" lon="10.29588"><time>2025-04-28T06:28:23.000Z</time><ele>596.4</ele></trkpt><trkpt lat="45.965256" lon="10.295876"><time>2025-04-28T06:28:24.000Z</time><ele>596.4</ele></trkpt><trkpt lat="45.965256" lon="10.295875"><time>2025-04-28T06:28:25.000Z</time><ele>596.4</ele></trkpt><trkpt lat="45.965259" lon="10.295873"><time>2025-04-28T06:28:26.000Z</time><ele>596.2</ele></trkpt><trkpt lat="45.965259" lon="10.29587"><time>2025-04-28T06:28:27.000Z</time><ele>596.2</ele></trkpt><trkpt lat="45.96526" lon="10.29587"><time>2025-04-28T06:28:28.000Z</time><ele>596.2</ele></trkpt><trkpt lat="45.965262" lon="10.295868"><time>2025-04-28T06:28:29.000Z</time><ele>596.2</ele></trkpt><trkpt lat="45.965264" lon="10.295867"><time>2025-04-28T06:28:30.000Z</time><ele>596</ele></trkpt><trkpt lat="45.965263" lon="10.295868"><time>2025-04-28T06:28:31.000Z</time><ele>595.8</ele></trkpt><trkpt lat="45.965263" lon="10.295868"><time>2025-04-28T06:28:32.000Z</time><ele>595.8</ele></trkpt><trkpt lat="45.965263" lon="10.295868"><time>2025-04-28T06:28:33.000Z</time><ele>595.6</ele></trkpt><trkpt lat="45.965263" lon="10.295868"><time>2025-04-28T06:28:34.000Z</time><ele>595.6</ele></trkpt><trkpt lat="45.965263" lon="10.295868"><time>2025-04-28T06:28:35.000Z</time><ele>595.6</ele></trkpt><trkpt lat="45.965263" lon="10.295868"><time>2025-04-28T06:28:36.000Z</time><ele>595.6</ele></trkpt><trkpt lat="45.965263" lon="10.295868"><time>2025-04-28T06:28:37.000Z</time><ele>595.4</ele></trkpt><trkpt lat="45.965263" lon="10.295868"><time>2025-04-28T06:28:38.000Z</time><ele>595.4</ele></trkpt><trkpt lat="45.965263" lon="10.295868"><time>2025-04-28T06:28:39.000Z</time><ele>595.4</ele></trkpt><trkpt lat="45.965263" lon="10.295868"><time>2025-04-28T06:28:40.000Z</time><ele>595.4</ele></trkpt><trkpt lat="45.965263" lon="10.295868"><time>2025-04-28T06:28:41.000Z</time><ele>595.4</ele></trkpt><trkpt lat="45.965263" lon="10.295868"><time>2025-04-28T06:28:42.000Z</time><ele>595.6</ele></trkpt><trkpt lat="45.965263" lon="10.29587"><time>2025-04-28T06:28:43.000Z</time><ele>595.6</ele></trkpt><trkpt lat="45.965263" lon="10.29587"><time>2025-04-28T06:28:44.000Z</time><ele>595.6</ele></trkpt><trkpt lat="45.965263" lon="10.29587"><time>2025-04-28T06:28:45.000Z</time><ele>595.8</ele></trkpt><trkpt lat="45.965263" lon="10.29587"><time>2025-04-28T06:28:46.000Z</time><ele>595.8</ele></trkpt><trkpt lat="45.965263" lon="10.29587"><time>2025-04-28T06:28:47.000Z</time><ele>595.8</ele></trkpt><trkpt lat="45.965263" lon="10.29587"><time>2025-04-28T06:28:48.000Z</time><ele>595.8</ele></trkpt><trkpt lat="45.965263" lon="10.29587"><time>2025-04-28T06:28:49.000Z</time><ele>595.8</ele></trkpt><trkpt lat="45.965264" lon="10.29587"><time>2025-04-28T06:28:50.000Z</time><ele>595.8</ele></trkpt><trkpt lat="45.965264" lon="10.29587"><time>2025-04-28T06:28:51.000Z</time><ele>595.8</ele></trkpt><trkpt lat="45.965264" lon="10.29587"><time>2025-04-28T06:28:52.000Z</time><ele>595.8</ele></trkpt><trkpt lat="45.965266" lon="10.29587"><time>2025-04-28T06:28:53.000Z</time><ele>595.8</ele></trkpt><trkpt lat="45.965266" lon="10.29587"><time>2025-04-28T06:28:54.000Z</time><ele>596</ele></trkpt><trkpt lat="45.965266" lon="10.295869"><time>2025-04-28T06:28:55.000Z</time><ele>595.8</ele></trkpt><trkpt lat="45.965266" lon="10.295868"><time>2025-04-28T06:28:56.000Z</time><ele>595.6</ele></trkpt><trkpt lat="45.965267" lon="10.295868"><time>2025-04-28T06:28:57.000Z</time><ele>595.6</ele></trkpt><trkpt lat="45.965267" lon="10.295868"><time>2025-04-28T06:28:58.000Z</time><ele>595.6</ele></trkpt><trkpt lat="45.96527" lon="10.295867"><time>2025-04-28T06:28:59.000Z</time><ele>595.6</ele></trkpt><trkpt lat="45.965281" lon="10.295867"><time>2025-04-28T06:29:00.000Z</time><ele>595.6</ele></trkpt><trkpt lat="45.965284" lon="10.295865"><time>2025-04-28T06:29:01.000Z</time><ele>595.6</ele></trkpt><trkpt lat="45.965288" lon="10.295863"><time>2025-04-28T06:29:02.000Z</time><ele>595.4</ele></trkpt><trkpt lat="45.965288" lon="10.29586"><time>2025-04-28T06:29:03.000Z</time><ele>595.4</ele></trkpt><trkpt lat="45.965294" lon="10.295856"><time>2025-04-28T06:29:04.000Z</time><ele>595.4</ele></trkpt><trkpt lat="45.965298" lon="10.295853"><time>2025-04-28T06:29:05.000Z</time><ele>595.4</ele></trkpt><trkpt lat="45.965308" lon="10.295845"><time>2025-04-28T06:29:06.000Z</time><ele>595.4</ele></trkpt><trkpt lat="45.96531" lon="10.295842"><time>2025-04-28T06:29:07.000Z</time><ele>595.4</ele></trkpt><trkpt lat="45.965312" lon="10.29584"><time>2025-04-28T06:29:08.000Z</time><ele>595.6</ele></trkpt><trkpt lat="45.965312" lon="10.295839"><time>2025-04-28T06:29:09.000Z</time><ele>595.6</ele></trkpt><trkpt lat="45.965312" lon="10.295835"><time>2025-04-28T06:29:10.000Z</time><ele>595.6</ele></trkpt><trkpt lat="45.965312" lon="10.295834"><time>2025-04-28T06:29:11.000Z</time><ele>595.6</ele></trkpt><trkpt lat="45.965312" lon="10.295834"><time>2025-04-28T06:29:12.000Z</time><ele>595.6</ele></trkpt><trkpt lat="45.965312" lon="10.295834"><time>2025-04-28T06:29:13.000Z</time><ele>595.6</ele></trkpt><trkpt lat="45.965312" lon="10.295834"><time>2025-04-28T06:29:14.000Z</time><ele>595.6</ele></trkpt><trkpt lat="45.965312" lon="10.295834"><time>2025-04-28T06:29:15.000Z</time><ele>595.6</ele></trkpt><trkpt lat="45.965313" lon="10.295834"><time>2025-04-28T06:29:16.000Z</time><ele>595.6</ele></trkpt><trkpt lat="45.965313" lon="10.295834"><time>2025-04-28T06:29:17.000Z</time><ele>595.6</ele></trkpt><trkpt lat="45.965314" lon="10.295834"><time>2025-04-28T06:29:18.000Z</time><ele>595.6</ele></trkpt><trkpt lat="45.965314" lon="10.295834"><time>2025-04-28T06:29:19.000Z</time><ele>595.6</ele></trkpt><trkpt lat="45.965315" lon="10.295834"><time>2025-04-28T06:29:20.000Z</time><ele>595.6</ele></trkpt><trkpt lat="45.965318" lon="10.295834"><time>2025-04-28T06:29:21.000Z</time><ele>595.6</ele></trkpt><trkpt lat="45.965318" lon="10.295834"><time>2025-04-28T06:29:22.000Z</time><ele>595.6</ele></trkpt><trkpt lat="45.965319" lon="10.295834"><time>2025-04-28T06:29:23.000Z</time><ele>595.6</ele></trkpt><trkpt lat="45.965319" lon="10.295834"><time>2025-04-28T06:29:24.000Z</time><ele>595.8</ele></trkpt><trkpt lat="45.965318" lon="10.295835"><time>2025-04-28T06:29:25.000Z</time><ele>595.8</ele></trkpt><trkpt lat="45.965318" lon="10.295836"><time>2025-04-28T06:29:26.000Z</time><ele>595.6</ele></trkpt><trkpt lat="45.965318" lon="10.295836"><time>2025-04-28T06:29:27.000Z</time><ele>595.6</ele></trkpt><trkpt lat="45.965317" lon="10.295836"><time>2025-04-28T06:29:28.000Z</time><ele>595.6</ele></trkpt><trkpt lat="45.965316" lon="10.295837"><time>2025-04-28T06:29:29.000Z</time><ele>595.6</ele></trkpt><trkpt lat="45.965316" lon="10.295837"><time>2025-04-28T06:29:30.000Z</time><ele>595.6</ele></trkpt><trkpt lat="45.965315" lon="10.295837"><time>2025-04-28T06:29:31.000Z</time><ele>595.6</ele></trkpt><trkpt lat="45.965314" lon="10.295837"><time>2025-04-28T06:29:32.000Z</time><ele>595.6</ele></trkpt><trkpt lat="45.965314" lon="10.295837"><time>2025-04-28T06:29:33.000Z</time><ele>595.8</ele></trkpt><trkpt lat="45.965314" lon="10.295837"><time>2025-04-28T06:29:34.000Z</time><ele>596</ele></trkpt><trkpt lat="45.965314" lon="10.295837"><time>2025-04-28T06:29:35.000Z</time><ele>596</ele></trkpt><trkpt lat="45.965314" lon="10.295837"><time>2025-04-28T06:29:36.000Z</time><ele>596.2</ele></trkpt><trkpt lat="45.965316" lon="10.295837"><time>2025-04-28T06:29:37.000Z</time><ele>596.2</ele></trkpt><trkpt lat="45.965316" lon="10.295837"><time>2025-04-28T06:29:38.000Z</time><ele>596.4</ele></trkpt><trkpt lat="45.965317" lon="10.295837"><time>2025-04-28T06:29:39.000Z</time><ele>596.4</ele></trkpt><trkpt lat="45.965318" lon="10.295837"><time>2025-04-28T06:29:40.000Z</time><ele>596.6</ele></trkpt><trkpt lat="45.965318" lon="10.295837"><time>2025-04-28T06:29:41.000Z</time><ele>596.6</ele></trkpt><trkpt lat="45.965318" lon="10.295837"><time>2025-04-28T06:29:42.000Z</time><ele>596.6</ele></trkpt><trkpt lat="45.965318" lon="10.295837"><time>2025-04-28T06:29:43.000Z</time><ele>596.8</ele></trkpt><trkpt lat="45.965319" lon="10.295837"><time>2025-04-28T06:29:44.000Z</time><ele>597</ele></trkpt><trkpt lat="45.965319" lon="10.295837"><time>2025-04-28T06:29:45.000Z</time><ele>597.2</ele></trkpt><trkpt lat="45.965319" lon="10.295837"><time>2025-04-28T06:29:46.000Z</time><ele>597.4</ele></trkpt><trkpt lat="45.96532" lon="10.295837"><time>2025-04-28T06:29:47.000Z</time><ele>597.6</ele></trkpt><trkpt lat="45.96532" lon="10.295837"><time>2025-04-28T06:29:48.000Z</time><ele>597.8</ele></trkpt><trkpt lat="45.96532" lon="10.295836"><time>2025-04-28T06:29:49.000Z</time><ele>597.8</ele></trkpt><trkpt lat="45.965321" lon="10.295836"><time>2025-04-28T06:29:50.000Z</time><ele>598</ele></trkpt><trkpt lat="45.965322" lon="10.295835"><time>2025-04-28T06:29:51.000Z</time><ele>598.2</ele></trkpt><trkpt lat="45.965326" lon="10.295835"><time>2025-04-28T06:29:52.000Z</time><ele>598.4</ele></trkpt><trkpt lat="45.96533" lon="10.295831"><time>2025-04-28T06:29:53.000Z</time><ele>598.4</ele></trkpt><trkpt lat="45.965336" lon="10.295825"><time>2025-04-28T06:29:54.000Z</time><ele>598.6</ele></trkpt><trkpt lat="45.965339" lon="10.295819"><time>2025-04-28T06:29:55.000Z</time><ele>598.8</ele></trkpt><trkpt lat="45.965341" lon="10.295814"><time>2025-04-28T06:29:56.000Z</time><ele>598.8</ele></trkpt><trkpt lat="45.965344" lon="10.295809"><time>2025-04-28T06:29:57.000Z</time><ele>599</ele></trkpt><trkpt lat="45.965347" lon="10.295804"><time>2025-04-28T06:29:58.000Z</time><ele>599.2</ele></trkpt><trkpt lat="45.965352" lon="10.295796"><time>2025-04-28T06:29:59.000Z</time><ele>599.2</ele></trkpt><trkpt lat="45.965355" lon="10.29579"><time>2025-04-28T06:30:00.000Z</time><ele>599.4</ele></trkpt><trkpt lat="45.965361" lon="10.295784"><time>2025-04-28T06:30:01.000Z</time><ele>599.4</ele></trkpt><trkpt lat="45.965366" lon="10.29578"><time>2025-04-28T06:30:02.000Z</time><ele>599.6</ele></trkpt><trkpt lat="45.965372" lon="10.295773"><time>2025-04-28T06:30:03.000Z</time><ele>599.6</ele></trkpt><trkpt lat="45.965379" lon="10.295766"><time>2025-04-28T06:30:04.000Z</time><ele>599.8</ele></trkpt><trkpt lat="45.965385" lon="10.295757"><time>2025-04-28T06:30:05.000Z</time><ele>600</ele></trkpt><trkpt lat="45.965389" lon="10.295749"><time>2025-04-28T06:30:06.000Z</time><ele>600.2</ele></trkpt><trkpt lat="45.965392" lon="10.295739"><time>2025-04-28T06:30:07.000Z</time><ele>600.4</ele></trkpt><trkpt lat="45.965394" lon="10.295726"><time>2025-04-28T06:30:08.000Z</time><ele>600.4</ele></trkpt><trkpt lat="45.965394" lon="10.295713"><time>2025-04-28T06:30:09.000Z</time><ele>600.6</ele></trkpt><trkpt lat="45.965395" lon="10.295698"><time>2025-04-28T06:30:10.000Z</time><ele>601</ele></trkpt><trkpt lat="45.965395" lon="10.295684"><time>2025-04-28T06:30:11.000Z</time><ele>601.2</ele></trkpt><trkpt lat="45.965395" lon="10.295674"><time>2025-04-28T06:30:12.000Z</time><ele>601.4</ele></trkpt><trkpt lat="45.965396" lon="10.295666"><time>2025-04-28T06:30:13.000Z</time><ele>601.4</ele></trkpt><trkpt lat="45.965396" lon="10.29566"><time>2025-04-28T06:30:14.000Z</time><ele>601.6</ele></trkpt><trkpt lat="45.965397" lon="10.295648"><time>2025-04-28T06:30:15.000Z</time><ele>601.6</ele></trkpt><trkpt lat="45.965397" lon="10.295641"><time>2025-04-28T06:30:16.000Z</time><ele>601.6</ele></trkpt><trkpt lat="45.965398" lon="10.295635"><time>2025-04-28T06:30:17.000Z</time><ele>601.6</ele></trkpt><trkpt lat="45.965398" lon="10.295627"><time>2025-04-28T06:30:18.000Z</time><ele>601.6</ele></trkpt><trkpt lat="45.965399" lon="10.29562"><time>2025-04-28T06:30:19.000Z</time><ele>601.6</ele></trkpt><trkpt lat="45.965399" lon="10.295613"><time>2025-04-28T06:30:20.000Z</time><ele>601.6</ele></trkpt><trkpt lat="45.965399" lon="10.295606"><time>2025-04-28T06:30:21.000Z</time><ele>601.8</ele></trkpt><trkpt lat="45.965399" lon="10.295601"><time>2025-04-28T06:30:22.000Z</time><ele>602</ele></trkpt><trkpt lat="45.965399" lon="10.295596"><time>2025-04-28T06:30:23.000Z</time><ele>602</ele></trkpt><trkpt lat="45.965398" lon="10.295591"><time>2025-04-28T06:30:24.000Z</time><ele>602.2</ele></trkpt><trkpt lat="45.965398" lon="10.295588"><time>2025-04-28T06:30:25.000Z</time><ele>602.4</ele></trkpt><trkpt lat="45.965398" lon="10.295587"><time>2025-04-28T06:30:26.000Z</time><ele>602.4</ele></trkpt><trkpt lat="45.965397" lon="10.295585"><time>2025-04-28T06:30:27.000Z</time><ele>602.8</ele></trkpt><trkpt lat="45.965397" lon="10.295584"><time>2025-04-28T06:30:28.000Z</time><ele>603</ele></trkpt><trkpt lat="45.965396" lon="10.295582"><time>2025-04-28T06:30:29.000Z</time><ele>603.2</ele></trkpt><trkpt lat="45.965396" lon="10.295581"><time>2025-04-28T06:30:30.000Z</time><ele>603.2</ele></trkpt><trkpt lat="45.965396" lon="10.295579"><time>2025-04-28T06:30:31.000Z</time><ele>603.4</ele></trkpt><trkpt lat="45.965396" lon="10.295578"><time>2025-04-28T06:30:32.000Z</time><ele>603.4</ele></trkpt><trkpt lat="45.965395" lon="10.295577"><time>2025-04-28T06:30:33.000Z</time><ele>603.6</ele></trkpt><trkpt lat="45.965395" lon="10.295577"><time>2025-04-28T06:30:34.000Z</time><ele>603.8</ele></trkpt><trkpt lat="45.965395" lon="10.295575"><time>2025-04-28T06:30:35.000Z</time><ele>604.2</ele></trkpt><trkpt lat="45.965394" lon="10.295569"><time>2025-04-28T06:30:36.000Z</time><ele>604.4</ele></trkpt><trkpt lat="45.965392" lon="10.295562"><time>2025-04-28T06:30:37.000Z</time><ele>604.6</ele></trkpt><trkpt lat="45.96539" lon="10.295556"><time>2025-04-28T06:30:38.000Z</time><ele>604.8</ele></trkpt><trkpt lat="45.965388" lon="10.295547"><time>2025-04-28T06:30:39.000Z</time><ele>605</ele></trkpt><trkpt lat="45.965385" lon="10.295534"><time>2025-04-28T06:30:40.000Z</time><ele>605.2</ele></trkpt><trkpt lat="45.965383" lon="10.295526"><time>2025-04-28T06:30:41.000Z</time><ele>605.4</ele></trkpt><trkpt lat="45.965381" lon="10.29552"><time>2025-04-28T06:30:42.000Z</time><ele>605.4</ele></trkpt><trkpt lat="45.965379" lon="10.295517"><time>2025-04-28T06:30:43.000Z</time><ele>605.4</ele></trkpt><trkpt lat="45.965378" lon="10.295513"><time>2025-04-28T06:30:44.000Z</time><ele>605.6</ele></trkpt><trkpt lat="45.965377" lon="10.29551"><time>2025-04-28T06:30:45.000Z</time><ele>605.8</ele></trkpt><trkpt lat="45.965377" lon="10.295508"><time>2025-04-28T06:30:46.000Z</time><ele>606</ele></trkpt><trkpt lat="45.965376" lon="10.295506"><time>2025-04-28T06:30:47.000Z</time><ele>606.2</ele></trkpt><trkpt lat="45.965375" lon="10.295504"><time>2025-04-28T06:30:48.000Z</time><ele>606.4</ele></trkpt><trkpt lat="45.965374" lon="10.295503"><time>2025-04-28T06:30:49.000Z</time><ele>606.6</ele></trkpt><trkpt lat="45.965373" lon="10.295501"><time>2025-04-28T06:30:50.000Z</time><ele>606.6</ele></trkpt><trkpt lat="45.965372" lon="10.2955"><time>2025-04-28T06:30:51.000Z</time><ele>606.8</ele></trkpt><trkpt lat="45.965371" lon="10.295498"><time>2025-04-28T06:30:52.000Z</time><ele>606.8</ele></trkpt><trkpt lat="45.96537" lon="10.295497"><time>2025-04-28T06:30:53.000Z</time><ele>607</ele></trkpt><trkpt lat="45.965369" lon="10.295496"><time>2025-04-28T06:30:54.000Z</time><ele>607</ele></trkpt><trkpt lat="45.965368" lon="10.295493"><time>2025-04-28T06:30:55.000Z</time><ele>607.2</ele></trkpt><trkpt lat="45.965367" lon="10.295491"><time>2025-04-28T06:30:56.000Z</time><ele>607.2</ele></trkpt><trkpt lat="45.965365" lon="10.295489"><time>2025-04-28T06:30:57.000Z</time><ele>607.6</ele></trkpt><trkpt lat="45.96536" lon="10.295488"><time>2025-04-28T06:30:58.000Z</time><ele>607.8</ele></trkpt><trkpt lat="45.965353" lon="10.295487"><time>2025-04-28T06:30:59.000Z</time><ele>608</ele></trkpt><trkpt lat="45.965348" lon="10.295487"><time>2025-04-28T06:31:00.000Z</time><ele>608.2</ele></trkpt><trkpt lat="45.965344" lon="10.295486"><time>2025-04-28T06:31:01.000Z</time><ele>608.4</ele></trkpt><trkpt lat="45.96534" lon="10.295484"><time>2025-04-28T06:31:02.000Z</time><ele>608.6</ele></trkpt><trkpt lat="45.965338" lon="10.295484"><time>2025-04-28T06:31:03.000Z</time><ele>608.8</ele></trkpt><trkpt lat="45.965335" lon="10.295483"><time>2025-04-28T06:31:04.000Z</time><ele>608.8</ele></trkpt><trkpt lat="45.965332" lon="10.295483"><time>2025-04-28T06:31:05.000Z</time><ele>609</ele></trkpt><trkpt lat="45.965329" lon="10.295482"><time>2025-04-28T06:31:06.000Z</time><ele>609</ele></trkpt><trkpt lat="45.965326" lon="10.295482"><time>2025-04-28T06:31:07.000Z</time><ele>609.2</ele></trkpt><trkpt lat="45.965322" lon="10.295482"><time>2025-04-28T06:31:08.000Z</time><ele>609.4</ele></trkpt><trkpt lat="45.965319" lon="10.295482"><time>2025-04-28T06:31:09.000Z</time><ele>609.4</ele></trkpt><trkpt lat="45.965316" lon="10.295482"><time>2025-04-28T06:31:10.000Z</time><ele>609.8</ele></trkpt><trkpt lat="45.965313" lon="10.295482"><time>2025-04-28T06:31:11.000Z</time><ele>610</ele></trkpt><trkpt lat="45.96531" lon="10.295483"><time>2025-04-28T06:31:12.000Z</time><ele>610.2</ele></trkpt><trkpt lat="45.965306" lon="10.295483"><time>2025-04-28T06:31:13.000Z</time><ele>610.2</ele></trkpt><trkpt lat="45.965302" lon="10.295484"><time>2025-04-28T06:31:14.000Z</time><ele>610.2</ele></trkpt><trkpt lat="45.965298" lon="10.295484"><time>2025-04-28T06:31:15.000Z</time><ele>610.4</ele></trkpt><trkpt lat="45.965295" lon="10.295484"><time>2025-04-28T06:31:16.000Z</time><ele>610.6</ele></trkpt><trkpt lat="45.965292" lon="10.295484"><time>2025-04-28T06:31:17.000Z</time><ele>610.8</ele></trkpt><trkpt lat="45.965289" lon="10.295485"><time>2025-04-28T06:31:18.000Z</time><ele>611</ele></trkpt><trkpt lat="45.965286" lon="10.295485"><time>2025-04-28T06:31:19.000Z</time><ele>611</ele></trkpt><trkpt lat="45.965284" lon="10.295485"><time>2025-04-28T06:31:20.000Z</time><ele>611.2</ele></trkpt><trkpt lat="45.965282" lon="10.295485"><time>2025-04-28T06:31:21.000Z</time><ele>611.4</ele></trkpt><trkpt lat="45.96528" lon="10.295485"><time>2025-04-28T06:31:22.000Z</time><ele>611.4</ele></trkpt><trkpt lat="45.965278" lon="10.295485"><time>2025-04-28T06:31:23.000Z</time><ele>611.6</ele></trkpt><trkpt lat="45.965276" lon="10.295485"><time>2025-04-28T06:31:24.000Z</time><ele>612</ele></trkpt><trkpt lat="45.965274" lon="10.295485"><time>2025-04-28T06:31:25.000Z</time><ele>612</ele></trkpt><trkpt lat="45.965271" lon="10.295484"><time>2025-04-28T06:31:26.000Z</time><ele>612.4</ele></trkpt><trkpt lat="45.965268" lon="10.295484"><time>2025-04-28T06:31:27.000Z</time><ele>612.4</ele></trkpt><trkpt lat="45.965266" lon="10.295483"><time>2025-04-28T06:31:28.000Z</time><ele>612.6</ele></trkpt><trkpt lat="45.965264" lon="10.295483"><time>2025-04-28T06:31:29.000Z</time><ele>612.8</ele></trkpt><trkpt lat="45.965262" lon="10.295483"><time>2025-04-28T06:31:30.000Z</time><ele>613</ele></trkpt><trkpt lat="45.965259" lon="10.295482"><time>2025-04-28T06:31:31.000Z</time><ele>613</ele></trkpt><trkpt lat="45.965257" lon="10.295482"><time>2025-04-28T06:31:32.000Z</time><ele>613.2</ele></trkpt><trkpt lat="45.965255" lon="10.295481"><time>2025-04-28T06:31:33.000Z</time><ele>613.4</ele></trkpt><trkpt lat="45.965252" lon="10.29548"><time>2025-04-28T06:31:34.000Z</time><ele>613.4</ele></trkpt><trkpt lat="45.965243" lon="10.295478"><time>2025-04-28T06:31:35.000Z</time><ele>613.6</ele></trkpt><trkpt lat="45.965231" lon="10.295473"><time>2025-04-28T06:31:36.000Z</time><ele>613.8</ele></trkpt><trkpt lat="45.965221" lon="10.295468"><time>2025-04-28T06:31:37.000Z</time><ele>614</ele></trkpt><trkpt lat="45.965203" lon="10.29547"><time>2025-04-28T06:31:38.000Z</time><ele>614</ele></trkpt><trkpt lat="45.965185" lon="10.295471"><time>2025-04-28T06:31:39.000Z</time><ele>614.2</ele></trkpt><trkpt lat="45.965175" lon="10.295465"><time>2025-04-28T06:31:40.000Z</time><ele>614.2</ele></trkpt><trkpt lat="45.96517" lon="10.295456"><time>2025-04-28T06:31:41.000Z</time><ele>614.4</ele></trkpt><trkpt lat="45.965162" lon="10.295449"><time>2025-04-28T06:31:42.000Z</time><ele>614.6</ele></trkpt><trkpt lat="45.96515" lon="10.295444"><time>2025-04-28T06:31:43.000Z</time><ele>614.8</ele></trkpt><trkpt lat="45.965142" lon="10.295437"><time>2025-04-28T06:31:44.000Z</time><ele>615</ele></trkpt><trkpt lat="45.965139" lon="10.295431"><time>2025-04-28T06:31:45.000Z</time><ele>615.2</ele></trkpt><trkpt lat="45.965142" lon="10.295428"><time>2025-04-28T06:31:46.000Z</time><ele>615.4</ele></trkpt><trkpt lat="45.965143" lon="10.295428"><time>2025-04-28T06:31:47.000Z</time><ele>615.6</ele></trkpt><trkpt lat="45.965142" lon="10.295427"><time>2025-04-28T06:31:48.000Z</time><ele>615.8</ele></trkpt><trkpt lat="45.965139" lon="10.295424"><time>2025-04-28T06:31:49.000Z</time><ele>616</ele></trkpt><trkpt lat="45.965135" lon="10.295422"><time>2025-04-28T06:31:50.000Z</time><ele>616</ele></trkpt><trkpt lat="45.965135" lon="10.295424"><time>2025-04-28T06:31:51.000Z</time><ele>616.2</ele></trkpt><trkpt lat="45.965137" lon="10.295419"><time>2025-04-28T06:31:52.000Z</time><ele>616.4</ele></trkpt><trkpt lat="45.965136" lon="10.295415"><time>2025-04-28T06:31:53.000Z</time><ele>616.6</ele></trkpt><trkpt lat="45.965134" lon="10.295425"><time>2025-04-28T06:31:54.000Z</time><ele>616.8</ele></trkpt><trkpt lat="45.965137" lon="10.295427"><time>2025-04-28T06:31:55.000Z</time><ele>617</ele></trkpt><trkpt lat="45.965138" lon="10.295429"><time>2025-04-28T06:31:56.000Z</time><ele>617.2</ele></trkpt><trkpt lat="45.965133" lon="10.295422"><time>2025-04-28T06:31:57.000Z</time><ele>617.4</ele></trkpt><trkpt lat="45.965126" lon="10.295418"><time>2025-04-28T06:31:58.000Z</time><ele>617.6</ele></trkpt><trkpt lat="45.965129" lon="10.295416"><time>2025-04-28T06:31:59.000Z</time><ele>617.8</ele></trkpt><trkpt lat="45.965131" lon="10.295414"><time>2025-04-28T06:32:00.000Z</time><ele>617.8</ele></trkpt><trkpt lat="45.96513" lon="10.295412"><time>2025-04-28T06:32:01.000Z</time><ele>618</ele></trkpt><trkpt lat="45.965129" lon="10.29541"><time>2025-04-28T06:32:02.000Z</time><ele>618</ele></trkpt><trkpt lat="45.965128" lon="10.295409"><time>2025-04-28T06:32:03.000Z</time><ele>618.2</ele></trkpt><trkpt lat="45.965129" lon="10.295406"><time>2025-04-28T06:32:04.000Z</time><ele>618.4</ele></trkpt><trkpt lat="45.965137" lon="10.295393"><time>2025-04-28T06:32:05.000Z</time><ele>618.4</ele></trkpt><trkpt lat="45.965138" lon="10.295391"><time>2025-04-28T06:32:06.000Z</time><ele>618.4</ele></trkpt><trkpt lat="45.965133" lon="10.29539"><time>2025-04-28T06:32:07.000Z</time><ele>618.4</ele></trkpt><trkpt lat="45.965135" lon="10.295375"><time>2025-04-28T06:32:08.000Z</time><ele>618.4</ele></trkpt><trkpt lat="45.965135" lon="10.295373"><time>2025-04-28T06:32:09.000Z</time><ele>618.4</ele></trkpt><trkpt lat="45.965135" lon="10.295368"><time>2025-04-28T06:32:10.000Z</time><ele>618.6</ele></trkpt><trkpt lat="45.965128" lon="10.295366"><time>2025-04-28T06:32:11.000Z</time><ele>618.6</ele></trkpt><trkpt lat="45.965118" lon="10.295363"><time>2025-04-28T06:32:12.000Z</time><ele>618.8</ele></trkpt><trkpt lat="45.965115" lon="10.295364"><time>2025-04-28T06:32:13.000Z</time><ele>618.8</ele></trkpt><trkpt lat="45.965112" lon="10.295362"><time>2025-04-28T06:32:14.000Z</time><ele>619</ele></trkpt><trkpt lat="45.965112" lon="10.295354"><time>2025-04-28T06:32:15.000Z</time><ele>619.2</ele></trkpt><trkpt lat="45.965112" lon="10.295351"><time>2025-04-28T06:32:16.000Z</time><ele>619.4</ele></trkpt><trkpt lat="45.965104" lon="10.295346"><time>2025-04-28T06:32:17.000Z</time><ele>619.4</ele></trkpt><trkpt lat="45.9651" lon="10.295344"><time>2025-04-28T06:32:18.000Z</time><ele>619.6</ele></trkpt><trkpt lat="45.965097" lon="10.295338"><time>2025-04-28T06:32:19.000Z</time><ele>619.6</ele></trkpt><trkpt lat="45.965091" lon="10.295334"><time>2025-04-28T06:32:20.000Z</time><ele>619.8</ele></trkpt><trkpt lat="45.965086" lon="10.295332"><time>2025-04-28T06:32:21.000Z</time><ele>620</ele></trkpt><trkpt lat="45.965086" lon="10.295326"><time>2025-04-28T06:32:22.000Z</time><ele>620</ele></trkpt><trkpt lat="45.965084" lon="10.295318"><time>2025-04-28T06:32:23.000Z</time><ele>620.2</ele></trkpt><trkpt lat="45.965081" lon="10.295312"><time>2025-04-28T06:32:24.000Z</time><ele>620.2</ele></trkpt><trkpt lat="45.965078" lon="10.295311"><time>2025-04-28T06:32:25.000Z</time><ele>620.4</ele></trkpt><trkpt lat="45.965074" lon="10.295311"><time>2025-04-28T06:32:26.000Z</time><ele>620.6</ele></trkpt><trkpt lat="45.96507" lon="10.29531"><time>2025-04-28T06:32:27.000Z</time><ele>620.6</ele></trkpt><trkpt lat="45.965065" lon="10.29531"><time>2025-04-28T06:32:28.000Z</time><ele>620.8</ele></trkpt><trkpt lat="45.965059" lon="10.295308"><time>2025-04-28T06:32:29.000Z</time><ele>621</ele></trkpt><trkpt lat="45.965054" lon="10.295309"><time>2025-04-28T06:32:30.000Z</time><ele>621.2</ele></trkpt><trkpt lat="45.965045" lon="10.295304"><time>2025-04-28T06:32:31.000Z</time><ele>621.4</ele></trkpt><trkpt lat="45.965042" lon="10.295296"><time>2025-04-28T06:32:32.000Z</time><ele>621.6</ele></trkpt><trkpt lat="45.965038" lon="10.295296"><time>2025-04-28T06:32:33.000Z</time><ele>621.8</ele></trkpt><trkpt lat="45.965041" lon="10.295287"><time>2025-04-28T06:32:34.000Z</time><ele>622.2</ele></trkpt><trkpt lat="45.965049" lon="10.295266"><time>2025-04-28T06:32:35.000Z</time><ele>622.2</ele></trkpt><trkpt lat="45.965045" lon="10.295254"><time>2025-04-28T06:32:36.000Z</time><ele>622.4</ele></trkpt><trkpt lat="45.965044" lon="10.295254"><time>2025-04-28T06:32:37.000Z</time><ele>622.6</ele></trkpt><trkpt lat="45.965031" lon="10.295246"><time>2025-04-28T06:32:38.000Z</time><ele>622.8</ele></trkpt><trkpt lat="45.965027" lon="10.295243"><time>2025-04-28T06:32:39.000Z</time><ele>622.8</ele></trkpt><trkpt lat="45.965014" lon="10.295238"><time>2025-04-28T06:32:40.000Z</time><ele>623.2</ele></trkpt><trkpt lat="45.965005" lon="10.295224"><time>2025-04-28T06:32:41.000Z</time><ele>623.4</ele></trkpt><trkpt lat="45.964999" lon="10.29522"><time>2025-04-28T06:32:42.000Z</time><ele>623.6</ele></trkpt><trkpt lat="45.964994" lon="10.295223"><time>2025-04-28T06:32:43.000Z</time><ele>623.8</ele></trkpt><trkpt lat="45.96499" lon="10.295223"><time>2025-04-28T06:32:44.000Z</time><ele>624</ele></trkpt><trkpt lat="45.964974" lon="10.295223"><time>2025-04-28T06:32:45.000Z</time><ele>624.2</ele></trkpt><trkpt lat="45.964971" lon="10.295221"><time>2025-04-28T06:32:46.000Z</time><ele>624.2</ele></trkpt><trkpt lat="45.964962" lon="10.29522"><time>2025-04-28T06:32:47.000Z</time><ele>624.4</ele></trkpt><trkpt lat="45.964954" lon="10.295219"><time>2025-04-28T06:32:48.000Z</time><ele>624.6</ele></trkpt><trkpt lat="45.964942" lon="10.295218"><time>2025-04-28T06:32:49.000Z</time><ele>624.8</ele></trkpt><trkpt lat="45.964939" lon="10.295204"><time>2025-04-28T06:32:50.000Z</time><ele>625</ele></trkpt><trkpt lat="45.96493" lon="10.2952"><time>2025-04-28T06:32:51.000Z</time><ele>625</ele></trkpt><trkpt lat="45.964927" lon="10.295196"><time>2025-04-28T06:32:52.000Z</time><ele>625.4</ele></trkpt><trkpt lat="45.964919" lon="10.295188"><time>2025-04-28T06:32:53.000Z</time><ele>625.6</ele></trkpt><trkpt lat="45.964906" lon="10.29518"><time>2025-04-28T06:32:54.000Z</time><ele>625.8</ele></trkpt><trkpt lat="45.964888" lon="10.295153"><time>2025-04-28T06:32:55.000Z</time><ele>625.8</ele></trkpt><trkpt lat="45.964886" lon="10.295147"><time>2025-04-28T06:32:56.000Z</time><ele>625.8</ele></trkpt><trkpt lat="45.964884" lon="10.295144"><time>2025-04-28T06:32:57.000Z</time><ele>626</ele></trkpt><trkpt lat="45.964864" lon="10.295154"><time>2025-04-28T06:32:58.000Z</time><ele>626</ele></trkpt><trkpt lat="45.964865" lon="10.295151"><time>2025-04-28T06:32:59.000Z</time><ele>626.2</ele></trkpt><trkpt lat="45.964864" lon="10.295147"><time>2025-04-28T06:33:00.000Z</time><ele>626.6</ele></trkpt><trkpt lat="45.964862" lon="10.295145"><time>2025-04-28T06:33:01.000Z</time><ele>626.6</ele></trkpt><trkpt lat="45.964862" lon="10.295146"><time>2025-04-28T06:33:02.000Z</time><ele>626.8</ele></trkpt><trkpt lat="45.964862" lon="10.295147"><time>2025-04-28T06:33:03.000Z</time><ele>626.8</ele></trkpt><trkpt lat="45.964864" lon="10.295148"><time>2025-04-28T06:33:04.000Z</time><ele>626.8</ele></trkpt><trkpt lat="45.964863" lon="10.295148"><time>2025-04-28T06:33:05.000Z</time><ele>627</ele></trkpt><trkpt lat="45.964864" lon="10.295149"><time>2025-04-28T06:33:06.000Z</time><ele>627</ele></trkpt><trkpt lat="45.964862" lon="10.295148"><time>2025-04-28T06:33:07.000Z</time><ele>627</ele></trkpt><trkpt lat="45.964862" lon="10.295144"><time>2025-04-28T06:33:08.000Z</time><ele>627</ele></trkpt><trkpt lat="45.964861" lon="10.295146"><time>2025-04-28T06:33:09.000Z</time><ele>627</ele></trkpt><trkpt lat="45.964844" lon="10.295155"><time>2025-04-28T06:33:10.000Z</time><ele>627</ele></trkpt><trkpt lat="45.96484" lon="10.295147"><time>2025-04-28T06:33:11.000Z</time><ele>627</ele></trkpt><trkpt lat="45.964834" lon="10.295136"><time>2025-04-28T06:33:12.000Z</time><ele>627</ele></trkpt><trkpt lat="45.964834" lon="10.295129"><time>2025-04-28T06:33:13.000Z</time><ele>627.2</ele></trkpt><trkpt lat="45.964833" lon="10.295118"><time>2025-04-28T06:33:14.000Z</time><ele>627.4</ele></trkpt><trkpt lat="45.964833" lon="10.295112"><time>2025-04-28T06:33:15.000Z</time><ele>627.4</ele></trkpt><trkpt lat="45.964832" lon="10.295105"><time>2025-04-28T06:33:16.000Z</time><ele>627.6</ele></trkpt><trkpt lat="45.96483" lon="10.295098"><time>2025-04-28T06:33:17.000Z</time><ele>627.6</ele></trkpt><trkpt lat="45.964829" lon="10.29509"><time>2025-04-28T06:33:18.000Z</time><ele>627.8</ele></trkpt><trkpt lat="45.964827" lon="10.295079"><time>2025-04-28T06:33:19.000Z</time><ele>627.8</ele></trkpt><trkpt lat="45.964824" lon="10.295067"><time>2025-04-28T06:33:20.000Z</time><ele>628</ele></trkpt><trkpt lat="45.964826" lon="10.295061"><time>2025-04-28T06:33:21.000Z</time><ele>628</ele></trkpt><trkpt lat="45.964825" lon="10.295051"><time>2025-04-28T06:33:22.000Z</time><ele>628</ele></trkpt><trkpt lat="45.964823" lon="10.295045"><time>2025-04-28T06:33:23.000Z</time><ele>628.2</ele></trkpt><trkpt lat="45.964811" lon="10.295044"><time>2025-04-28T06:33:24.000Z</time><ele>628.4</ele></trkpt><trkpt lat="45.964806" lon="10.295042"><time>2025-04-28T06:33:25.000Z</time><ele>628.8</ele></trkpt><trkpt lat="45.964803" lon="10.295039"><time>2025-04-28T06:33:26.000Z</time><ele>628.8</ele></trkpt><trkpt lat="45.964795" lon="10.295034"><time>2025-04-28T06:33:27.000Z</time><ele>629</ele></trkpt><trkpt lat="45.964782" lon="10.295032"><time>2025-04-28T06:33:28.000Z</time><ele>629</ele></trkpt><trkpt lat="45.964777" lon="10.295027"><time>2025-04-28T06:33:29.000Z</time><ele>629.2</ele></trkpt><trkpt lat="45.964775" lon="10.295014"><time>2025-04-28T06:33:30.000Z</time><ele>629.2</ele></trkpt><trkpt lat="45.964774" lon="10.295011"><time>2025-04-28T06:33:31.000Z</time><ele>629.4</ele></trkpt><trkpt lat="45.964772" lon="10.295006"><time>2025-04-28T06:33:32.000Z</time><ele>629.4</ele></trkpt><trkpt lat="45.964767" lon="10.295"><time>2025-04-28T06:33:33.000Z</time><ele>629.6</ele></trkpt><trkpt lat="45.964763" lon="10.294992"><time>2025-04-28T06:33:34.000Z</time><ele>629.8</ele></trkpt><trkpt lat="45.964758" lon="10.294983"><time>2025-04-28T06:33:35.000Z</time><ele>630</ele></trkpt><trkpt lat="45.964756" lon="10.294977"><time>2025-04-28T06:33:36.000Z</time><ele>630.2</ele></trkpt><trkpt lat="45.96475" lon="10.294977"><time>2025-04-28T06:33:37.000Z</time><ele>630.4</ele></trkpt><trkpt lat="45.964747" lon="10.294981"><time>2025-04-28T06:33:38.000Z</time><ele>630.6</ele></trkpt><trkpt lat="45.964748" lon="10.294979"><time>2025-04-28T06:33:39.000Z</time><ele>630.6</ele></trkpt><trkpt lat="45.964743" lon="10.294979"><time>2025-04-28T06:33:40.000Z</time><ele>630.8</ele></trkpt><trkpt lat="45.964744" lon="10.294977"><time>2025-04-28T06:33:41.000Z</time><ele>630.8</ele></trkpt><trkpt lat="45.964746" lon="10.294976"><time>2025-04-28T06:33:42.000Z</time><ele>631</ele></trkpt><trkpt lat="45.964746" lon="10.294967"><time>2025-04-28T06:33:43.000Z</time><ele>631</ele></trkpt><trkpt lat="45.964745" lon="10.294957"><time>2025-04-28T06:33:44.000Z</time><ele>631.2</ele></trkpt><trkpt lat="45.964743" lon="10.294953"><time>2025-04-28T06:33:45.000Z</time><ele>631.2</ele></trkpt><trkpt lat="45.96474" lon="10.294946"><time>2025-04-28T06:33:46.000Z</time><ele>631.2</ele></trkpt><trkpt lat="45.96474" lon="10.294938"><time>2025-04-28T06:33:47.000Z</time><ele>631.4</ele></trkpt><trkpt lat="45.964741" lon="10.294924"><time>2025-04-28T06:33:48.000Z</time><ele>631.6</ele></trkpt><trkpt lat="45.964739" lon="10.294913"><time>2025-04-28T06:33:49.000Z</time><ele>631.6</ele></trkpt><trkpt lat="45.964741" lon="10.294905"><time>2025-04-28T06:33:50.000Z</time><ele>631.8</ele></trkpt><trkpt lat="45.964736" lon="10.294908"><time>2025-04-28T06:33:51.000Z</time><ele>632</ele></trkpt><trkpt lat="45.964735" lon="10.294905"><time>2025-04-28T06:33:52.000Z</time><ele>632</ele></trkpt><trkpt lat="45.964733" lon="10.294903"><time>2025-04-28T06:33:53.000Z</time><ele>632.4</ele></trkpt><trkpt lat="45.96473" lon="10.294901"><time>2025-04-28T06:33:54.000Z</time><ele>632.8</ele></trkpt><trkpt lat="45.96472" lon="10.294908"><time>2025-04-28T06:33:55.000Z</time><ele>633</ele></trkpt><trkpt lat="45.964718" lon="10.29491"><time>2025-04-28T06:33:56.000Z</time><ele>633</ele></trkpt><trkpt lat="45.964716" lon="10.294909"><time>2025-04-28T06:33:57.000Z</time><ele>633.2</ele></trkpt><trkpt lat="45.964716" lon="10.294907"><time>2025-04-28T06:33:58.000Z</time><ele>633.4</ele></trkpt><trkpt lat="45.964705" lon="10.294906"><time>2025-04-28T06:33:59.000Z</time><ele>633.4</ele></trkpt><trkpt lat="45.964694" lon="10.294897"><time>2025-04-28T06:34:00.000Z</time><ele>633.6</ele></trkpt><trkpt lat="45.964695" lon="10.294885"><time>2025-04-28T06:34:01.000Z</time><ele>633.8</ele></trkpt><trkpt lat="45.964691" lon="10.294883"><time>2025-04-28T06:34:02.000Z</time><ele>633.8</ele></trkpt><trkpt lat="45.964686" lon="10.294884"><time>2025-04-28T06:34:03.000Z</time><ele>634</ele></trkpt><trkpt lat="45.964676" lon="10.294878"><time>2025-04-28T06:34:04.000Z</time><ele>634.2</ele></trkpt><trkpt lat="45.964666" lon="10.294876"><time>2025-04-28T06:34:05.000Z</time><ele>634.4</ele></trkpt><trkpt lat="45.964655" lon="10.294878"><time>2025-04-28T06:34:06.000Z</time><ele>634.6</ele></trkpt><trkpt lat="45.964647" lon="10.294874"><time>2025-04-28T06:34:07.000Z</time><ele>634.8</ele></trkpt><trkpt lat="45.964644" lon="10.294874"><time>2025-04-28T06:34:08.000Z</time><ele>635</ele></trkpt><trkpt lat="45.96464" lon="10.294875"><time>2025-04-28T06:34:09.000Z</time><ele>635</ele></trkpt><trkpt lat="45.964636" lon="10.294872"><time>2025-04-28T06:34:10.000Z</time><ele>635.2</ele></trkpt><trkpt lat="45.964635" lon="10.294868"><time>2025-04-28T06:34:11.000Z</time><ele>635.4</ele></trkpt><trkpt lat="45.964629" lon="10.294865"><time>2025-04-28T06:34:12.000Z</time><ele>635.4</ele></trkpt><trkpt lat="45.964623" lon="10.294862"><time>2025-04-28T06:34:13.000Z</time><ele>635.6</ele></trkpt><trkpt lat="45.96461" lon="10.294863"><time>2025-04-28T06:34:14.000Z</time><ele>635.6</ele></trkpt><trkpt lat="45.964604" lon="10.294857"><time>2025-04-28T06:34:15.000Z</time><ele>635.8</ele></trkpt><trkpt lat="45.9646" lon="10.294852"><time>2025-04-28T06:34:16.000Z</time><ele>636</ele></trkpt><trkpt lat="45.964597" lon="10.294853"><time>2025-04-28T06:34:17.000Z</time><ele>636.2</ele></trkpt><trkpt lat="45.96459" lon="10.294856"><time>2025-04-28T06:34:18.000Z</time><ele>636.2</ele></trkpt><trkpt lat="45.964591" lon="10.294849"><time>2025-04-28T06:34:19.000Z</time><ele>636.4</ele></trkpt><trkpt lat="45.964592" lon="10.294844"><time>2025-04-28T06:34:20.000Z</time><ele>636.6</ele></trkpt><trkpt lat="45.964591" lon="10.294841"><time>2025-04-28T06:34:21.000Z</time><ele>636.8</ele></trkpt><trkpt lat="45.964587" lon="10.294839"><time>2025-04-28T06:34:22.000Z</time><ele>637</ele></trkpt><trkpt lat="45.964578" lon="10.294837"><time>2025-04-28T06:34:23.000Z</time><ele>637</ele></trkpt><trkpt lat="45.964576" lon="10.294834"><time>2025-04-28T06:34:24.000Z</time><ele>637.2</ele></trkpt><trkpt lat="45.964573" lon="10.294834"><time>2025-04-28T06:34:25.000Z</time><ele>637.4</ele></trkpt><trkpt lat="45.964566" lon="10.29483"><time>2025-04-28T06:34:26.000Z</time><ele>637.6</ele></trkpt><trkpt lat="45.964559" lon="10.294824"><time>2025-04-28T06:34:27.000Z</time><ele>637.6</ele></trkpt><trkpt lat="45.964557" lon="10.29482"><time>2025-04-28T06:34:28.000Z</time><ele>637.8</ele></trkpt><trkpt lat="45.964555" lon="10.294818"><time>2025-04-28T06:34:29.000Z</time><ele>638</ele></trkpt><trkpt lat="45.964555" lon="10.294807"><time>2025-04-28T06:34:30.000Z</time><ele>638.2</ele></trkpt><trkpt lat="45.96455" lon="10.294797"><time>2025-04-28T06:34:31.000Z</time><ele>638.4</ele></trkpt><trkpt lat="45.964545" lon="10.294789"><time>2025-04-28T06:34:32.000Z</time><ele>638.4</ele></trkpt><trkpt lat="45.964539" lon="10.294781"><time>2025-04-28T06:34:33.000Z</time><ele>638.6</ele></trkpt><trkpt lat="45.964535" lon="10.294772"><time>2025-04-28T06:34:34.000Z</time><ele>638.8</ele></trkpt><trkpt lat="45.964531" lon="10.294759"><time>2025-04-28T06:34:35.000Z</time><ele>639.2</ele></trkpt><trkpt lat="45.964532" lon="10.294743"><time>2025-04-28T06:34:36.000Z</time><ele>639.4</ele></trkpt><trkpt lat="45.964528" lon="10.294727"><time>2025-04-28T06:34:37.000Z</time><ele>639.6</ele></trkpt><trkpt lat="45.964525" lon="10.294712"><time>2025-04-28T06:34:38.000Z</time><ele>639.8</ele></trkpt><trkpt lat="45.964523" lon="10.294707"><time>2025-04-28T06:34:39.000Z</time><ele>640</ele></trkpt><trkpt lat="45.964522" lon="10.294709"><time>2025-04-28T06:34:40.000Z</time><ele>640</ele></trkpt><trkpt lat="45.96452" lon="10.294696"><time>2025-04-28T06:34:41.000Z</time><ele>640</ele></trkpt><trkpt lat="45.964518" lon="10.294696"><time>2025-04-28T06:34:42.000Z</time><ele>640</ele></trkpt><trkpt lat="45.964517" lon="10.294696"><time>2025-04-28T06:34:43.000Z</time><ele>640.2</ele></trkpt><trkpt lat="45.964517" lon="10.294699"><time>2025-04-28T06:34:44.000Z</time><ele>640.2</ele></trkpt><trkpt lat="45.964515" lon="10.2947"><time>2025-04-28T06:34:45.000Z</time><ele>640.2</ele></trkpt><trkpt lat="45.964515" lon="10.2947"><time>2025-04-28T06:34:46.000Z</time><ele>640.2</ele></trkpt><trkpt lat="45.964516" lon="10.294698"><time>2025-04-28T06:34:47.000Z</time><ele>640.2</ele></trkpt><trkpt lat="45.964508" lon="10.294699"><time>2025-04-28T06:34:48.000Z</time><ele>640.2</ele></trkpt><trkpt lat="45.964495" lon="10.294689"><time>2025-04-28T06:34:49.000Z</time><ele>640.2</ele></trkpt><trkpt lat="45.964476" lon="10.294689"><time>2025-04-28T06:34:50.000Z</time><ele>640.2</ele></trkpt><trkpt lat="45.96447" lon="10.294687"><time>2025-04-28T06:34:51.000Z</time><ele>640.4</ele></trkpt><trkpt lat="45.964466" lon="10.29468"><time>2025-04-28T06:34:52.000Z</time><ele>640.4</ele></trkpt><trkpt lat="45.964466" lon="10.294681"><time>2025-04-28T06:34:53.000Z</time><ele>640.6</ele></trkpt><trkpt lat="45.964466" lon="10.294681"><time>2025-04-28T06:34:54.000Z</time><ele>640.6</ele></trkpt><trkpt lat="45.964466" lon="10.294681"><time>2025-04-28T06:34:55.000Z</time><ele>640.8</ele></trkpt><trkpt lat="45.964466" lon="10.294681"><time>2025-04-28T06:34:56.000Z</time><ele>641</ele></trkpt><trkpt lat="45.964466" lon="10.294681"><time>2025-04-28T06:34:57.000Z</time><ele>641.2</ele></trkpt><trkpt lat="45.964466" lon="10.294681"><time>2025-04-28T06:34:58.000Z</time><ele>641.4</ele></trkpt><trkpt lat="45.964466" lon="10.294681"><time>2025-04-28T06:34:59.000Z</time><ele>641.4</ele></trkpt><trkpt lat="45.964466" lon="10.294681"><time>2025-04-28T06:35:00.000Z</time><ele>641.6</ele></trkpt><trkpt lat="45.964466" lon="10.294681"><time>2025-04-28T06:35:01.000Z</time><ele>641.8</ele></trkpt><trkpt lat="45.964466" lon="10.294681"><time>2025-04-28T06:35:02.000Z</time><ele>642</ele></trkpt><trkpt lat="45.964466" lon="10.294681"><time>2025-04-28T06:35:03.000Z</time><ele>642</ele></trkpt><trkpt lat="45.964466" lon="10.294681"><time>2025-04-28T06:35:04.000Z</time><ele>642.2</ele></trkpt><trkpt lat="45.964466" lon="10.294681"><time>2025-04-28T06:35:05.000Z</time><ele>642.6</ele></trkpt><trkpt lat="45.964466" lon="10.294681"><time>2025-04-28T06:35:06.000Z</time><ele>642.8</ele></trkpt><trkpt lat="45.964466" lon="10.294681"><time>2025-04-28T06:35:07.000Z</time><ele>643</ele></trkpt><trkpt lat="45.964466" lon="10.29468"><time>2025-04-28T06:35:08.000Z</time><ele>643</ele></trkpt><trkpt lat="45.964466" lon="10.294679"><time>2025-04-28T06:35:09.000Z</time><ele>643.2</ele></trkpt><trkpt lat="45.964465" lon="10.294672"><time>2025-04-28T06:35:10.000Z</time><ele>643.2</ele></trkpt><trkpt lat="45.964463" lon="10.294663"><time>2025-04-28T06:35:11.000Z</time><ele>643.4</ele></trkpt><trkpt lat="45.964462" lon="10.294651"><time>2025-04-28T06:35:12.000Z</time><ele>643.4</ele></trkpt><trkpt lat="45.964456" lon="10.294642"><time>2025-04-28T06:35:13.000Z</time><ele>643.6</ele></trkpt><trkpt lat="45.96445" lon="10.294636"><time>2025-04-28T06:35:14.000Z</time><ele>643.6</ele></trkpt><trkpt lat="45.964447" lon="10.294633"><time>2025-04-28T06:35:15.000Z</time><ele>643.8</ele></trkpt><trkpt lat="45.96444" lon="10.294628"><time>2025-04-28T06:35:16.000Z</time><ele>643.8</ele></trkpt><trkpt lat="45.964435" lon="10.294619"><time>2025-04-28T06:35:17.000Z</time><ele>643.8</ele></trkpt><trkpt lat="45.964431" lon="10.294609"><time>2025-04-28T06:35:18.000Z</time><ele>644</ele></trkpt><trkpt lat="45.964423" lon="10.294607"><time>2025-04-28T06:35:19.000Z</time><ele>644</ele></trkpt><trkpt lat="45.964417" lon="10.294601"><time>2025-04-28T06:35:20.000Z</time><ele>644.2</ele></trkpt><trkpt lat="45.96441" lon="10.294593"><time>2025-04-28T06:35:21.000Z</time><ele>644.2</ele></trkpt><trkpt lat="45.964401" lon="10.294579"><time>2025-04-28T06:35:22.000Z</time><ele>644.4</ele></trkpt><trkpt lat="45.964392" lon="10.294568"><time>2025-04-28T06:35:23.000Z</time><ele>644.6</ele></trkpt><trkpt lat="45.964383" lon="10.294543"><time>2025-04-28T06:35:24.000Z</time><ele>645</ele></trkpt><trkpt lat="45.964372" lon="10.294519"><time>2025-04-28T06:35:25.000Z</time><ele>645</ele></trkpt><trkpt lat="45.964362" lon="10.294497"><time>2025-04-28T06:35:26.000Z</time><ele>645.2</ele></trkpt><trkpt lat="45.964351" lon="10.294476"><time>2025-04-28T06:35:27.000Z</time><ele>645.2</ele></trkpt><trkpt lat="45.964337" lon="10.294463"><time>2025-04-28T06:35:28.000Z</time><ele>645.4</ele></trkpt><trkpt lat="45.964326" lon="10.294448"><time>2025-04-28T06:35:29.000Z</time><ele>645.6</ele></trkpt><trkpt lat="45.964317" lon="10.294439"><time>2025-04-28T06:35:30.000Z</time><ele>645.8</ele></trkpt><trkpt lat="45.964309" lon="10.294434"><time>2025-04-28T06:35:31.000Z</time><ele>646</ele></trkpt><trkpt lat="45.964304" lon="10.294428"><time>2025-04-28T06:35:32.000Z</time><ele>646.2</ele></trkpt><trkpt lat="45.964298" lon="10.29442"><time>2025-04-28T06:35:33.000Z</time><ele>646.2</ele></trkpt><trkpt lat="45.96429" lon="10.294408"><time>2025-04-28T06:35:34.000Z</time><ele>646.2</ele></trkpt><trkpt lat="45.964282" lon="10.294391"><time>2025-04-28T06:35:35.000Z</time><ele>646.4</ele></trkpt><trkpt lat="45.964268" lon="10.294384"><time>2025-04-28T06:35:36.000Z</time><ele>646.6</ele></trkpt><trkpt lat="45.964257" lon="10.294371"><time>2025-04-28T06:35:37.000Z</time><ele>646.8</ele></trkpt><trkpt lat="45.964249" lon="10.294351"><time>2025-04-28T06:35:38.000Z</time><ele>646.8</ele></trkpt><trkpt lat="45.96424" lon="10.294335"><time>2025-04-28T06:35:39.000Z</time><ele>647</ele></trkpt><trkpt lat="45.964224" lon="10.294334"><time>2025-04-28T06:35:40.000Z</time><ele>647.2</ele></trkpt><trkpt lat="45.964214" lon="10.294334"><time>2025-04-28T06:35:41.000Z</time><ele>647.2</ele></trkpt><trkpt lat="45.964208" lon="10.294325"><time>2025-04-28T06:35:42.000Z</time><ele>647.2</ele></trkpt><trkpt lat="45.964204" lon="10.294314"><time>2025-04-28T06:35:43.000Z</time><ele>647.2</ele></trkpt><trkpt lat="45.964203" lon="10.294292"><time>2025-04-28T06:35:44.000Z</time><ele>647.2</ele></trkpt><trkpt lat="45.964204" lon="10.294269"><time>2025-04-28T06:35:45.000Z</time><ele>647.4</ele></trkpt><trkpt lat="45.964204" lon="10.29425"><time>2025-04-28T06:35:46.000Z</time><ele>647.6</ele></trkpt><trkpt lat="45.964206" lon="10.294232"><time>2025-04-28T06:35:47.000Z</time><ele>647.6</ele></trkpt><trkpt lat="45.964203" lon="10.294216"><time>2025-04-28T06:35:48.000Z</time><ele>647.8</ele></trkpt><trkpt lat="45.964196" lon="10.294203"><time>2025-04-28T06:35:49.000Z</time><ele>648</ele></trkpt><trkpt lat="45.96418" lon="10.294199"><time>2025-04-28T06:35:50.000Z</time><ele>648.2</ele></trkpt><trkpt lat="45.964173" lon="10.294192"><time>2025-04-28T06:35:51.000Z</time><ele>648.2</ele></trkpt><trkpt lat="45.964172" lon="10.294178"><time>2025-04-28T06:35:52.000Z</time><ele>648.4</ele></trkpt><trkpt lat="45.964177" lon="10.294167"><time>2025-04-28T06:35:53.000Z</time><ele>648.6</ele></trkpt><trkpt lat="45.964173" lon="10.294162"><time>2025-04-28T06:35:54.000Z</time><ele>648.8</ele></trkpt><trkpt lat="45.964164" lon="10.294155"><time>2025-04-28T06:35:55.000Z</time><ele>649</ele></trkpt><trkpt lat="45.964154" lon="10.294148"><time>2025-04-28T06:35:56.000Z</time><ele>649</ele></trkpt><trkpt lat="45.964151" lon="10.294143"><time>2025-04-28T06:35:57.000Z</time><ele>649.2</ele></trkpt><trkpt lat="45.964151" lon="10.294134"><time>2025-04-28T06:35:58.000Z</time><ele>649.2</ele></trkpt><trkpt lat="45.964152" lon="10.294123"><time>2025-04-28T06:35:59.000Z</time><ele>649.2</ele></trkpt><trkpt lat="45.96415" lon="10.294113"><time>2025-04-28T06:36:00.000Z</time><ele>649.4</ele></trkpt><trkpt lat="45.964141" lon="10.294111"><time>2025-04-28T06:36:01.000Z</time><ele>649.4</ele></trkpt><trkpt lat="45.964131" lon="10.294105"><time>2025-04-28T06:36:02.000Z</time><ele>649.6</ele></trkpt><trkpt lat="45.964136" lon="10.294089"><time>2025-04-28T06:36:03.000Z</time><ele>649.6</ele></trkpt><trkpt lat="45.964146" lon="10.294071"><time>2025-04-28T06:36:04.000Z</time><ele>649.8</ele></trkpt><trkpt lat="45.964154" lon="10.294061"><time>2025-04-28T06:36:05.000Z</time><ele>650</ele></trkpt><trkpt lat="45.964156" lon="10.294053"><time>2025-04-28T06:36:06.000Z</time><ele>650.2</ele></trkpt><trkpt lat="45.964157" lon="10.29404"><time>2025-04-28T06:36:07.000Z</time><ele>650.4</ele></trkpt><trkpt lat="45.964157" lon="10.294029"><time>2025-04-28T06:36:08.000Z</time><ele>650.4</ele></trkpt><trkpt lat="45.964158" lon="10.294019"><time>2025-04-28T06:36:09.000Z</time><ele>650.6</ele></trkpt><trkpt lat="45.964161" lon="10.294007"><time>2025-04-28T06:36:10.000Z</time><ele>650.8</ele></trkpt><trkpt lat="45.964161" lon="10.294"><time>2025-04-28T06:36:11.000Z</time><ele>651</ele></trkpt><trkpt lat="45.964158" lon="10.293995"><time>2025-04-28T06:36:12.000Z</time><ele>651</ele></trkpt><trkpt lat="45.964157" lon="10.29399"><time>2025-04-28T06:36:13.000Z</time><ele>651.2</ele></trkpt><trkpt lat="45.964155" lon="10.293986"><time>2025-04-28T06:36:14.000Z</time><ele>651.4</ele></trkpt><trkpt lat="45.964154" lon="10.29398"><time>2025-04-28T06:36:15.000Z</time><ele>651.6</ele></trkpt><trkpt lat="45.964149" lon="10.293977"><time>2025-04-28T06:36:16.000Z</time><ele>651.8</ele></trkpt><trkpt lat="45.964142" lon="10.293981"><time>2025-04-28T06:36:17.000Z</time><ele>651.8</ele></trkpt><trkpt lat="45.964131" lon="10.29398"><time>2025-04-28T06:36:18.000Z</time><ele>652</ele></trkpt><trkpt lat="45.964126" lon="10.293977"><time>2025-04-28T06:36:19.000Z</time><ele>652</ele></trkpt><trkpt lat="45.964123" lon="10.293972"><time>2025-04-28T06:36:20.000Z</time><ele>652.2</ele></trkpt><trkpt lat="45.964116" lon="10.293965"><time>2025-04-28T06:36:21.000Z</time><ele>652.2</ele></trkpt><trkpt lat="45.964117" lon="10.293956"><time>2025-04-28T06:36:22.000Z</time><ele>652.6</ele></trkpt><trkpt lat="45.964116" lon="10.293946"><time>2025-04-28T06:36:23.000Z</time><ele>652.8</ele></trkpt><trkpt lat="45.964114" lon="10.293949"><time>2025-04-28T06:36:24.000Z</time><ele>653</ele></trkpt><trkpt lat="45.964112" lon="10.293942"><time>2025-04-28T06:36:25.000Z</time><ele>653.2</ele></trkpt><trkpt lat="45.964112" lon="10.293937"><time>2025-04-28T06:36:26.000Z</time><ele>653.4</ele></trkpt><trkpt lat="45.964106" lon="10.293936"><time>2025-04-28T06:36:27.000Z</time><ele>653.4</ele></trkpt><trkpt lat="45.9641" lon="10.29393"><time>2025-04-28T06:36:28.000Z</time><ele>653.4</ele></trkpt><trkpt lat="45.964091" lon="10.293925"><time>2025-04-28T06:36:29.000Z</time><ele>653.6</ele></trkpt><trkpt lat="45.964085" lon="10.293915"><time>2025-04-28T06:36:30.000Z</time><ele>653.6</ele></trkpt><trkpt lat="45.964083" lon="10.293908"><time>2025-04-28T06:36:31.000Z</time><ele>653.8</ele></trkpt><trkpt lat="45.964079" lon="10.293906"><time>2025-04-28T06:36:32.000Z</time><ele>654.2</ele></trkpt><trkpt lat="45.96407" lon="10.2939"><time>2025-04-28T06:36:33.000Z</time><ele>654.4</ele></trkpt><trkpt lat="45.964068" lon="10.293891"><time>2025-04-28T06:36:34.000Z</time><ele>654.4</ele></trkpt><trkpt lat="45.964066" lon="10.293878"><time>2025-04-28T06:36:35.000Z</time><ele>654.4</ele></trkpt><trkpt lat="45.964061" lon="10.293865"><time>2025-04-28T06:36:36.000Z</time><ele>654.6</ele></trkpt><trkpt lat="45.964061" lon="10.293857"><time>2025-04-28T06:36:37.000Z</time><ele>654.6</ele></trkpt><trkpt lat="45.964054" lon="10.293853"><time>2025-04-28T06:36:38.000Z</time><ele>654.8</ele></trkpt><trkpt lat="45.964051" lon="10.293849"><time>2025-04-28T06:36:39.000Z</time><ele>655</ele></trkpt><trkpt lat="45.964051" lon="10.293842"><time>2025-04-28T06:36:40.000Z</time><ele>655</ele></trkpt><trkpt lat="45.964047" lon="10.293836"><time>2025-04-28T06:36:41.000Z</time><ele>655.2</ele></trkpt><trkpt lat="45.96405" lon="10.29383"><time>2025-04-28T06:36:42.000Z</time><ele>655.2</ele></trkpt><trkpt lat="45.964048" lon="10.293825"><time>2025-04-28T06:36:43.000Z</time><ele>655.4</ele></trkpt><trkpt lat="45.964043" lon="10.293823"><time>2025-04-28T06:36:44.000Z</time><ele>655.6</ele></trkpt><trkpt lat="45.964044" lon="10.293817"><time>2025-04-28T06:36:45.000Z</time><ele>655.6</ele></trkpt><trkpt lat="45.964046" lon="10.293812"><time>2025-04-28T06:36:46.000Z</time><ele>656</ele></trkpt><trkpt lat="45.96405" lon="10.293803"><time>2025-04-28T06:36:47.000Z</time><ele>656.2</ele></trkpt><trkpt lat="45.964051" lon="10.293793"><time>2025-04-28T06:36:48.000Z</time><ele>656.2</ele></trkpt><trkpt lat="45.96405" lon="10.293787"><time>2025-04-28T06:36:49.000Z</time><ele>656.6</ele></trkpt><trkpt lat="45.964046" lon="10.293789"><time>2025-04-28T06:36:50.000Z</time><ele>656.8</ele></trkpt><trkpt lat="45.964039" lon="10.293778"><time>2025-04-28T06:36:51.000Z</time><ele>657</ele></trkpt><trkpt lat="45.964036" lon="10.293769"><time>2025-04-28T06:36:52.000Z</time><ele>657</ele></trkpt><trkpt lat="45.964035" lon="10.293765"><time>2025-04-28T06:36:53.000Z</time><ele>657.2</ele></trkpt><trkpt lat="45.964029" lon="10.293754"><time>2025-04-28T06:36:54.000Z</time><ele>657.2</ele></trkpt><trkpt lat="45.964024" lon="10.293737"><time>2025-04-28T06:36:55.000Z</time><ele>657.4</ele></trkpt><trkpt lat="45.96402" lon="10.293719"><time>2025-04-28T06:36:56.000Z</time><ele>657.4</ele></trkpt><trkpt lat="45.964024" lon="10.293696"><time>2025-04-28T06:36:57.000Z</time><ele>657.8</ele></trkpt><trkpt lat="45.964024" lon="10.293676"><time>2025-04-28T06:36:58.000Z</time><ele>658</ele></trkpt><trkpt lat="45.964016" lon="10.293664"><time>2025-04-28T06:36:59.000Z</time><ele>658.2</ele></trkpt><trkpt lat="45.964007" lon="10.293666"><time>2025-04-28T06:37:00.000Z</time><ele>658.6</ele></trkpt><trkpt lat="45.964" lon="10.293662"><time>2025-04-28T06:37:01.000Z</time><ele>658.8</ele></trkpt><trkpt lat="45.963997" lon="10.293645"><time>2025-04-28T06:37:02.000Z</time><ele>658.8</ele></trkpt><trkpt lat="45.963989" lon="10.293638"><time>2025-04-28T06:37:03.000Z</time><ele>658.8</ele></trkpt><trkpt lat="45.963985" lon="10.293633"><time>2025-04-28T06:37:04.000Z</time><ele>659</ele></trkpt><trkpt lat="45.963983" lon="10.293629"><time>2025-04-28T06:37:05.000Z</time><ele>659.2</ele></trkpt><trkpt lat="45.963981" lon="10.293624"><time>2025-04-28T06:37:06.000Z</time><ele>659.2</ele></trkpt><trkpt lat="45.96398" lon="10.293618"><time>2025-04-28T06:37:07.000Z</time><ele>659.4</ele></trkpt><trkpt lat="45.963973" lon="10.293622"><time>2025-04-28T06:37:08.000Z</time><ele>659.8</ele></trkpt><trkpt lat="45.96397" lon="10.293621"><time>2025-04-28T06:37:09.000Z</time><ele>659.8</ele></trkpt><trkpt lat="45.963964" lon="10.293616"><time>2025-04-28T06:37:10.000Z</time><ele>660</ele></trkpt><trkpt lat="45.963964" lon="10.293606"><time>2025-04-28T06:37:11.000Z</time><ele>660</ele></trkpt><trkpt lat="45.963963" lon="10.29359"><time>2025-04-28T06:37:12.000Z</time><ele>660</ele></trkpt><trkpt lat="45.963955" lon="10.293582"><time>2025-04-28T06:37:13.000Z</time><ele>660.2</ele></trkpt><trkpt lat="45.963948" lon="10.293563"><time>2025-04-28T06:37:14.000Z</time><ele>660.4</ele></trkpt><trkpt lat="45.963933" lon="10.293558"><time>2025-04-28T06:37:15.000Z</time><ele>660.8</ele></trkpt><trkpt lat="45.963928" lon="10.293555"><time>2025-04-28T06:37:16.000Z</time><ele>661</ele></trkpt><trkpt lat="45.963935" lon="10.293558"><time>2025-04-28T06:37:17.000Z</time><ele>661</ele></trkpt><trkpt lat="45.963933" lon="10.293556"><time>2025-04-28T06:37:18.000Z</time><ele>661.2</ele></trkpt><trkpt lat="45.963925" lon="10.293549"><time>2025-04-28T06:37:19.000Z</time><ele>661.2</ele></trkpt><trkpt lat="45.963927" lon="10.293537"><time>2025-04-28T06:37:20.000Z</time><ele>661.4</ele></trkpt><trkpt lat="45.963919" lon="10.293531"><time>2025-04-28T06:37:21.000Z</time><ele>661.6</ele></trkpt><trkpt lat="45.963917" lon="10.293523"><time>2025-04-28T06:37:22.000Z</time><ele>661.8</ele></trkpt><trkpt lat="45.963916" lon="10.293517"><time>2025-04-28T06:37:23.000Z</time><ele>662</ele></trkpt><trkpt lat="45.963914" lon="10.293512"><time>2025-04-28T06:37:24.000Z</time><ele>662.2</ele></trkpt><trkpt lat="45.963922" lon="10.293488"><time>2025-04-28T06:37:25.000Z</time><ele>662.2</ele></trkpt><trkpt lat="45.96393" lon="10.293462"><time>2025-04-28T06:37:26.000Z</time><ele>662.4</ele></trkpt><trkpt lat="45.963923" lon="10.293456"><time>2025-04-28T06:37:27.000Z</time><ele>662.4</ele></trkpt><trkpt lat="45.963897" lon="10.293466"><time>2025-04-28T06:37:28.000Z</time><ele>662.6</ele></trkpt><trkpt lat="45.963893" lon="10.293458"><time>2025-04-28T06:37:29.000Z</time><ele>662.8</ele></trkpt><trkpt lat="45.96389" lon="10.29345"><time>2025-04-28T06:37:30.000Z</time><ele>663</ele></trkpt><trkpt lat="45.963886" lon="10.293443"><time>2025-04-28T06:37:31.000Z</time><ele>663.2</ele></trkpt><trkpt lat="45.963884" lon="10.293432"><time>2025-04-28T06:37:32.000Z</time><ele>663.4</ele></trkpt><trkpt lat="45.963883" lon="10.293423"><time>2025-04-28T06:37:33.000Z</time><ele>663.4</ele></trkpt><trkpt lat="45.963881" lon="10.293413"><time>2025-04-28T06:37:34.000Z</time><ele>663.6</ele></trkpt><trkpt lat="45.963888" lon="10.293395"><time>2025-04-28T06:37:35.000Z</time><ele>663.6</ele></trkpt><trkpt lat="45.96389" lon="10.29338"><time>2025-04-28T06:37:36.000Z</time><ele>664</ele></trkpt><trkpt lat="45.963897" lon="10.293359"><time>2025-04-28T06:37:37.000Z</time><ele>664.2</ele></trkpt><trkpt lat="45.963904" lon="10.293341"><time>2025-04-28T06:37:38.000Z</time><ele>664.4</ele></trkpt><trkpt lat="45.963904" lon="10.293336"><time>2025-04-28T06:37:39.000Z</time><ele>664.6</ele></trkpt><trkpt lat="45.963905" lon="10.293332"><time>2025-04-28T06:37:40.000Z</time><ele>664.8</ele></trkpt><trkpt lat="45.963904" lon="10.293329"><time>2025-04-28T06:37:41.000Z</time><ele>665</ele></trkpt><trkpt lat="45.963901" lon="10.293325"><time>2025-04-28T06:37:42.000Z</time><ele>665</ele></trkpt><trkpt lat="45.963901" lon="10.293319"><time>2025-04-28T06:37:43.000Z</time><ele>665</ele></trkpt><trkpt lat="45.963899" lon="10.293317"><time>2025-04-28T06:37:44.000Z</time><ele>665.2</ele></trkpt><trkpt lat="45.963892" lon="10.293315"><time>2025-04-28T06:37:45.000Z</time><ele>665.2</ele></trkpt><trkpt lat="45.963883" lon="10.293316"><time>2025-04-28T06:37:46.000Z</time><ele>665.4</ele></trkpt><trkpt lat="45.96388" lon="10.293308"><time>2025-04-28T06:37:47.000Z</time><ele>665.6</ele></trkpt><trkpt lat="45.963883" lon="10.293295"><time>2025-04-28T06:37:48.000Z</time><ele>665.6</ele></trkpt><trkpt lat="45.963878" lon="10.293289"><time>2025-04-28T06:37:49.000Z</time><ele>665.8</ele></trkpt><trkpt lat="45.96388" lon="10.293274"><time>2025-04-28T06:37:50.000Z</time><ele>666</ele></trkpt><trkpt lat="45.963882" lon="10.29325"><time>2025-04-28T06:37:51.000Z</time><ele>666.2</ele></trkpt><trkpt lat="45.963879" lon="10.293244"><time>2025-04-28T06:37:52.000Z</time><ele>666.4</ele></trkpt><trkpt lat="45.963874" lon="10.293234"><time>2025-04-28T06:37:53.000Z</time><ele>666.4</ele></trkpt><trkpt lat="45.963873" lon="10.29322"><time>2025-04-28T06:37:54.000Z</time><ele>666.6</ele></trkpt><trkpt lat="45.963873" lon="10.293213"><time>2025-04-28T06:37:55.000Z</time><ele>666.6</ele></trkpt><trkpt lat="45.963873" lon="10.29321"><time>2025-04-28T06:37:56.000Z</time><ele>666.6</ele></trkpt><trkpt lat="45.96387" lon="10.293203"><time>2025-04-28T06:37:57.000Z</time><ele>666.8</ele></trkpt><trkpt lat="45.963865" lon="10.293191"><time>2025-04-28T06:37:58.000Z</time><ele>666.8</ele></trkpt><trkpt lat="45.96386" lon="10.29318"><time>2025-04-28T06:37:59.000Z</time><ele>666.8</ele></trkpt><trkpt lat="45.963856" lon="10.293174"><time>2025-04-28T06:38:00.000Z</time><ele>667</ele></trkpt><trkpt lat="45.963854" lon="10.293169"><time>2025-04-28T06:38:01.000Z</time><ele>667</ele></trkpt><trkpt lat="45.963841" lon="10.29317"><time>2025-04-28T06:38:02.000Z</time><ele>667.2</ele></trkpt><trkpt lat="45.963828" lon="10.29317"><time>2025-04-28T06:38:03.000Z</time><ele>667.4</ele></trkpt><trkpt lat="45.963816" lon="10.293167"><time>2025-04-28T06:38:04.000Z</time><ele>667.4</ele></trkpt><trkpt lat="45.963813" lon="10.293156"><time>2025-04-28T06:38:05.000Z</time><ele>667.6</ele></trkpt><trkpt lat="45.963805" lon="10.293147"><time>2025-04-28T06:38:06.000Z</time><ele>667.8</ele></trkpt><trkpt lat="45.963803" lon="10.293138"><time>2025-04-28T06:38:07.000Z</time><ele>668</ele></trkpt><trkpt lat="45.963801" lon="10.293129"><time>2025-04-28T06:38:08.000Z</time><ele>668.2</ele></trkpt><trkpt lat="45.963794" lon="10.293126"><time>2025-04-28T06:38:09.000Z</time><ele>668.2</ele></trkpt><trkpt lat="45.963785" lon="10.293129"><time>2025-04-28T06:38:10.000Z</time><ele>668.4</ele></trkpt><trkpt lat="45.96378" lon="10.293128"><time>2025-04-28T06:38:11.000Z</time><ele>668.4</ele></trkpt><trkpt lat="45.963773" lon="10.293127"><time>2025-04-28T06:38:12.000Z</time><ele>668.4</ele></trkpt><trkpt lat="45.963763" lon="10.293124"><time>2025-04-28T06:38:13.000Z</time><ele>668.6</ele></trkpt><trkpt lat="45.963757" lon="10.293117"><time>2025-04-28T06:38:14.000Z</time><ele>668.8</ele></trkpt><trkpt lat="45.96375" lon="10.29311"><time>2025-04-28T06:38:15.000Z</time><ele>669</ele></trkpt><trkpt lat="45.963745" lon="10.293098"><time>2025-04-28T06:38:16.000Z</time><ele>669</ele></trkpt><trkpt lat="45.963743" lon="10.293089"><time>2025-04-28T06:38:17.000Z</time><ele>669.2</ele></trkpt><trkpt lat="45.963746" lon="10.293075"><time>2025-04-28T06:38:18.000Z</time><ele>669.2</ele></trkpt><trkpt lat="45.963745" lon="10.293062"><time>2025-04-28T06:38:19.000Z</time><ele>669.6</ele></trkpt><trkpt lat="45.963744" lon="10.293054"><time>2025-04-28T06:38:20.000Z</time><ele>669.6</ele></trkpt><trkpt lat="45.963744" lon="10.293042"><time>2025-04-28T06:38:21.000Z</time><ele>669.8</ele></trkpt><trkpt lat="45.963742" lon="10.293037"><time>2025-04-28T06:38:22.000Z</time><ele>669.8</ele></trkpt><trkpt lat="45.963733" lon="10.293034"><time>2025-04-28T06:38:23.000Z</time><ele>669.8</ele></trkpt><trkpt lat="45.963728" lon="10.293028"><time>2025-04-28T06:38:24.000Z</time><ele>670</ele></trkpt><trkpt lat="45.963724" lon="10.293024"><time>2025-04-28T06:38:25.000Z</time><ele>670.2</ele></trkpt><trkpt lat="45.963721" lon="10.293021"><time>2025-04-28T06:38:26.000Z</time><ele>670.2</ele></trkpt><trkpt lat="45.963715" lon="10.293021"><time>2025-04-28T06:38:27.000Z</time><ele>670.6</ele></trkpt><trkpt lat="45.963705" lon="10.293022"><time>2025-04-28T06:38:28.000Z</time><ele>670.8</ele></trkpt><trkpt lat="45.963696" lon="10.293017"><time>2025-04-28T06:38:29.000Z</time><ele>671</ele></trkpt><trkpt lat="45.963686" lon="10.29301"><time>2025-04-28T06:38:30.000Z</time><ele>671</ele></trkpt><trkpt lat="45.963678" lon="10.293002"><time>2025-04-28T06:38:31.000Z</time><ele>671.2</ele></trkpt><trkpt lat="45.963669" lon="10.292998"><time>2025-04-28T06:38:32.000Z</time><ele>671.2</ele></trkpt><trkpt lat="45.963657" lon="10.29299"><time>2025-04-28T06:38:33.000Z</time><ele>671.4</ele></trkpt><trkpt lat="45.963646" lon="10.292974"><time>2025-04-28T06:38:34.000Z</time><ele>671.8</ele></trkpt><trkpt lat="45.963641" lon="10.29297"><time>2025-04-28T06:38:35.000Z</time><ele>672.2</ele></trkpt><trkpt lat="45.963639" lon="10.292966"><time>2025-04-28T06:38:36.000Z</time><ele>672.2</ele></trkpt><trkpt lat="45.963637" lon="10.292962"><time>2025-04-28T06:38:37.000Z</time><ele>672.4</ele></trkpt><trkpt lat="45.963641" lon="10.292944"><time>2025-04-28T06:38:38.000Z</time><ele>672.4</ele></trkpt><trkpt lat="45.963642" lon="10.292938"><time>2025-04-28T06:38:39.000Z</time><ele>672.6</ele></trkpt><trkpt lat="45.963637" lon="10.292928"><time>2025-04-28T06:38:40.000Z</time><ele>672.6</ele></trkpt><trkpt lat="45.963635" lon="10.292922"><time>2025-04-28T06:38:41.000Z</time><ele>672.6</ele></trkpt><trkpt lat="45.963627" lon="10.292918"><time>2025-04-28T06:38:42.000Z</time><ele>672.8</ele></trkpt><trkpt lat="45.963617" lon="10.292918"><time>2025-04-28T06:38:43.000Z</time><ele>673</ele></trkpt><trkpt lat="45.963616" lon="10.292913"><time>2025-04-28T06:38:44.000Z</time><ele>673</ele></trkpt><trkpt lat="45.963605" lon="10.292907"><time>2025-04-28T06:38:45.000Z</time><ele>673.2</ele></trkpt><trkpt lat="45.963585" lon="10.29291"><time>2025-04-28T06:38:46.000Z</time><ele>673.2</ele></trkpt><trkpt lat="45.963551" lon="10.292907"><time>2025-04-28T06:38:47.000Z</time><ele>673.4</ele></trkpt><trkpt lat="45.963524" lon="10.292909"><time>2025-04-28T06:38:48.000Z</time><ele>673.6</ele></trkpt><trkpt lat="45.963509" lon="10.2929"><time>2025-04-28T06:38:49.000Z</time><ele>673.8</ele></trkpt><trkpt lat="45.963507" lon="10.292896"><time>2025-04-28T06:38:50.000Z</time><ele>674</ele></trkpt><trkpt lat="45.963499" lon="10.292889"><time>2025-04-28T06:38:51.000Z</time><ele>674.2</ele></trkpt><trkpt lat="45.963496" lon="10.292884"><time>2025-04-28T06:38:52.000Z</time><ele>674.4</ele></trkpt><trkpt lat="45.963501" lon="10.292886"><time>2025-04-28T06:38:53.000Z</time><ele>674.6</ele></trkpt><trkpt lat="45.963514" lon="10.292867"><time>2025-04-28T06:38:54.000Z</time><ele>674.6</ele></trkpt><trkpt lat="45.963513" lon="10.292861"><time>2025-04-28T06:38:55.000Z</time><ele>674.8</ele></trkpt><trkpt lat="45.963514" lon="10.292856"><time>2025-04-28T06:38:56.000Z</time><ele>675</ele></trkpt><trkpt lat="45.963513" lon="10.292851"><time>2025-04-28T06:38:57.000Z</time><ele>675</ele></trkpt><trkpt lat="45.963517" lon="10.292837"><time>2025-04-28T06:38:58.000Z</time><ele>675.2</ele></trkpt><trkpt lat="45.963516" lon="10.29283"><time>2025-04-28T06:38:59.000Z</time><ele>675.2</ele></trkpt><trkpt lat="45.963514" lon="10.292818"><time>2025-04-28T06:39:00.000Z</time><ele>675.4</ele></trkpt><trkpt lat="45.963514" lon="10.292811"><time>2025-04-28T06:39:01.000Z</time><ele>675.6</ele></trkpt><trkpt lat="45.96351" lon="10.292798"><time>2025-04-28T06:39:02.000Z</time><ele>675.8</ele></trkpt><trkpt lat="45.963507" lon="10.292793"><time>2025-04-28T06:39:03.000Z</time><ele>676</ele></trkpt><trkpt lat="45.963507" lon="10.292788"><time>2025-04-28T06:39:04.000Z</time><ele>676.2</ele></trkpt><trkpt lat="45.963505" lon="10.292775"><time>2025-04-28T06:39:05.000Z</time><ele>676.4</ele></trkpt><trkpt lat="45.963503" lon="10.292768"><time>2025-04-28T06:39:06.000Z</time><ele>676.6</ele></trkpt><trkpt lat="45.963503" lon="10.292759"><time>2025-04-28T06:39:07.000Z</time><ele>676.8</ele></trkpt><trkpt lat="45.963504" lon="10.292751"><time>2025-04-28T06:39:08.000Z</time><ele>677</ele></trkpt><trkpt lat="45.963507" lon="10.292743"><time>2025-04-28T06:39:09.000Z</time><ele>677.2</ele></trkpt><trkpt lat="45.963509" lon="10.292733"><time>2025-04-28T06:39:10.000Z</time><ele>677.2</ele></trkpt><trkpt lat="45.963512" lon="10.292724"><time>2025-04-28T06:39:11.000Z</time><ele>677.4</ele></trkpt><trkpt lat="45.963516" lon="10.292714"><time>2025-04-28T06:39:12.000Z</time><ele>677.4</ele></trkpt><trkpt lat="45.963517" lon="10.292709"><time>2025-04-28T06:39:13.000Z</time><ele>677.4</ele></trkpt><trkpt lat="45.963504" lon="10.292706"><time>2025-04-28T06:39:14.000Z</time><ele>677.6</ele></trkpt><trkpt lat="45.963494" lon="10.292698"><time>2025-04-28T06:39:15.000Z</time><ele>677.8</ele></trkpt><trkpt lat="45.96349" lon="10.292686"><time>2025-04-28T06:39:16.000Z</time><ele>678</ele></trkpt><trkpt lat="45.963486" lon="10.292678"><time>2025-04-28T06:39:17.000Z</time><ele>678.2</ele></trkpt><trkpt lat="45.963488" lon="10.292668"><time>2025-04-28T06:39:18.000Z</time><ele>678.4</ele></trkpt><trkpt lat="45.963487" lon="10.29266"><time>2025-04-28T06:39:19.000Z</time><ele>678.4</ele></trkpt><trkpt lat="45.963482" lon="10.292652"><time>2025-04-28T06:39:20.000Z</time><ele>678.6</ele></trkpt><trkpt lat="45.96348" lon="10.292645"><time>2025-04-28T06:39:21.000Z</time><ele>678.8</ele></trkpt><trkpt lat="45.963477" lon="10.292641"><time>2025-04-28T06:39:22.000Z</time><ele>679</ele></trkpt><trkpt lat="45.963474" lon="10.292631"><time>2025-04-28T06:39:23.000Z</time><ele>679.2</ele></trkpt><trkpt lat="45.963476" lon="10.292619"><time>2025-04-28T06:39:24.000Z</time><ele>679.4</ele></trkpt><trkpt lat="45.963474" lon="10.292607"><time>2025-04-28T06:39:25.000Z</time><ele>679.6</ele></trkpt><trkpt lat="45.963473" lon="10.292597"><time>2025-04-28T06:39:26.000Z</time><ele>679.8</ele></trkpt><trkpt lat="45.963472" lon="10.292584"><time>2025-04-28T06:39:27.000Z</time><ele>679.8</ele></trkpt><trkpt lat="45.96347" lon="10.292579"><time>2025-04-28T06:39:28.000Z</time><ele>680.2</ele></trkpt><trkpt lat="45.963465" lon="10.292573"><time>2025-04-28T06:39:29.000Z</time><ele>680.2</ele></trkpt><trkpt lat="45.963463" lon="10.292567"><time>2025-04-28T06:39:30.000Z</time><ele>680.4</ele></trkpt><trkpt lat="45.963459" lon="10.292568"><time>2025-04-28T06:39:31.000Z</time><ele>680.4</ele></trkpt><trkpt lat="45.963458" lon="10.29257"><time>2025-04-28T06:39:32.000Z</time><ele>680.6</ele></trkpt><trkpt lat="45.963459" lon="10.29257"><time>2025-04-28T06:39:33.000Z</time><ele>680.6</ele></trkpt><trkpt lat="45.963452" lon="10.292576"><time>2025-04-28T06:39:34.000Z</time><ele>680.6</ele></trkpt><trkpt lat="45.963449" lon="10.292582"><time>2025-04-28T06:39:35.000Z</time><ele>680.6</ele></trkpt><trkpt lat="45.963447" lon="10.292585"><time>2025-04-28T06:39:36.000Z</time><ele>680.6</ele></trkpt><trkpt lat="45.963446" lon="10.292586"><time>2025-04-28T06:39:37.000Z</time><ele>680.6</ele></trkpt><trkpt lat="45.963445" lon="10.292585"><time>2025-04-28T06:39:38.000Z</time><ele>680.6</ele></trkpt><trkpt lat="45.963444" lon="10.292584"><time>2025-04-28T06:39:39.000Z</time><ele>680.8</ele></trkpt><trkpt lat="45.963444" lon="10.292584"><time>2025-04-28T06:39:40.000Z</time><ele>680.8</ele></trkpt><trkpt lat="45.963448" lon="10.292578"><time>2025-04-28T06:39:41.000Z</time><ele>681</ele></trkpt><trkpt lat="45.963458" lon="10.292568"><time>2025-04-28T06:39:42.000Z</time><ele>681</ele></trkpt><trkpt lat="45.963459" lon="10.292557"><time>2025-04-28T06:39:43.000Z</time><ele>681.2</ele></trkpt><trkpt lat="45.963457" lon="10.292545"><time>2025-04-28T06:39:44.000Z</time><ele>681.4</ele></trkpt><trkpt lat="45.963455" lon="10.292533"><time>2025-04-28T06:39:45.000Z</time><ele>681.6</ele></trkpt><trkpt lat="45.963455" lon="10.29252"><time>2025-04-28T06:39:46.000Z</time><ele>681.6</ele></trkpt><trkpt lat="45.963454" lon="10.292515"><time>2025-04-28T06:39:47.000Z</time><ele>682</ele></trkpt><trkpt lat="45.963455" lon="10.292508"><time>2025-04-28T06:39:48.000Z</time><ele>682.2</ele></trkpt><trkpt lat="45.96346" lon="10.292493"><time>2025-04-28T06:39:49.000Z</time><ele>682.4</ele></trkpt><trkpt lat="45.963462" lon="10.292484"><time>2025-04-28T06:39:50.000Z</time><ele>682.4</ele></trkpt><trkpt lat="45.963462" lon="10.292475"><time>2025-04-28T06:39:51.000Z</time><ele>682.6</ele></trkpt><trkpt lat="45.963463" lon="10.292468"><time>2025-04-28T06:39:52.000Z</time><ele>682.8</ele></trkpt><trkpt lat="45.963466" lon="10.292463"><time>2025-04-28T06:39:53.000Z</time><ele>682.8</ele></trkpt><trkpt lat="45.963474" lon="10.292455"><time>2025-04-28T06:39:54.000Z</time><ele>683</ele></trkpt><trkpt lat="45.963482" lon="10.292447"><time>2025-04-28T06:39:55.000Z</time><ele>683</ele></trkpt><trkpt lat="45.963481" lon="10.292436"><time>2025-04-28T06:39:56.000Z</time><ele>683</ele></trkpt><trkpt lat="45.963476" lon="10.292428"><time>2025-04-28T06:39:57.000Z</time><ele>683</ele></trkpt><trkpt lat="45.963475" lon="10.292422"><time>2025-04-28T06:39:58.000Z</time><ele>683.2</ele></trkpt><trkpt lat="45.963474" lon="10.292415"><time>2025-04-28T06:39:59.000Z</time><ele>683.4</ele></trkpt><trkpt lat="45.963476" lon="10.292405"><time>2025-04-28T06:40:00.000Z</time><ele>683.6</ele></trkpt><trkpt lat="45.963482" lon="10.292394"><time>2025-04-28T06:40:01.000Z</time><ele>683.8</ele></trkpt><trkpt lat="45.963489" lon="10.292385"><time>2025-04-28T06:40:02.000Z</time><ele>683.8</ele></trkpt><trkpt lat="45.963497" lon="10.292372"><time>2025-04-28T06:40:03.000Z</time><ele>684</ele></trkpt><trkpt lat="45.963503" lon="10.292362"><time>2025-04-28T06:40:04.000Z</time><ele>684.4</ele></trkpt><trkpt lat="45.9635" lon="10.29236"><time>2025-04-28T06:40:05.000Z</time><ele>684.6</ele></trkpt><trkpt lat="45.963493" lon="10.292356"><time>2025-04-28T06:40:06.000Z</time><ele>685</ele></trkpt><trkpt lat="45.96349" lon="10.292352"><time>2025-04-28T06:40:07.000Z</time><ele>685</ele></trkpt><trkpt lat="45.96349" lon="10.292347"><time>2025-04-28T06:40:08.000Z</time><ele>685.4</ele></trkpt><trkpt lat="45.963495" lon="10.292346"><time>2025-04-28T06:40:09.000Z</time><ele>685.4</ele></trkpt><trkpt lat="45.963498" lon="10.292344"><time>2025-04-28T06:40:10.000Z</time><ele>685.6</ele></trkpt><trkpt lat="45.963499" lon="10.29234"><time>2025-04-28T06:40:11.000Z</time><ele>685.6</ele></trkpt><trkpt lat="45.963504" lon="10.292322"><time>2025-04-28T06:40:12.000Z</time><ele>685.8</ele></trkpt><trkpt lat="45.963505" lon="10.292305"><time>2025-04-28T06:40:13.000Z</time><ele>685.8</ele></trkpt><trkpt lat="45.963505" lon="10.292302"><time>2025-04-28T06:40:14.000Z</time><ele>685.8</ele></trkpt><trkpt lat="45.963508" lon="10.292296"><time>2025-04-28T06:40:15.000Z</time><ele>686</ele></trkpt><trkpt lat="45.96351" lon="10.292294"><time>2025-04-28T06:40:16.000Z</time><ele>686.2</ele></trkpt><trkpt lat="45.963514" lon="10.292291"><time>2025-04-28T06:40:17.000Z</time><ele>686.4</ele></trkpt><trkpt lat="45.963519" lon="10.292288"><time>2025-04-28T06:40:18.000Z</time><ele>686.4</ele></trkpt><trkpt lat="45.963523" lon="10.292284"><time>2025-04-28T06:40:19.000Z</time><ele>686.6</ele></trkpt><trkpt lat="45.963526" lon="10.292284"><time>2025-04-28T06:40:20.000Z</time><ele>686.8</ele></trkpt><trkpt lat="45.963524" lon="10.292282"><time>2025-04-28T06:40:21.000Z</time><ele>687</ele></trkpt><trkpt lat="45.963522" lon="10.292277"><time>2025-04-28T06:40:22.000Z</time><ele>687.2</ele></trkpt><trkpt lat="45.963521" lon="10.292271"><time>2025-04-28T06:40:23.000Z</time><ele>687.2</ele></trkpt><trkpt lat="45.963524" lon="10.292263"><time>2025-04-28T06:40:24.000Z</time><ele>687.4</ele></trkpt><trkpt lat="45.963525" lon="10.292259"><time>2025-04-28T06:40:25.000Z</time><ele>687.6</ele></trkpt><trkpt lat="45.963527" lon="10.292253"><time>2025-04-28T06:40:26.000Z</time><ele>687.6</ele></trkpt><trkpt lat="45.963524" lon="10.292247"><time>2025-04-28T06:40:27.000Z</time><ele>687.8</ele></trkpt><trkpt lat="45.963523" lon="10.292243"><time>2025-04-28T06:40:28.000Z</time><ele>688</ele></trkpt><trkpt lat="45.963528" lon="10.292232"><time>2025-04-28T06:40:29.000Z</time><ele>688</ele></trkpt><trkpt lat="45.963527" lon="10.292232"><time>2025-04-28T06:40:30.000Z</time><ele>688.2</ele></trkpt><trkpt lat="45.963531" lon="10.292225"><time>2025-04-28T06:40:31.000Z</time><ele>688.4</ele></trkpt><trkpt lat="45.963533" lon="10.292218"><time>2025-04-28T06:40:32.000Z</time><ele>688.6</ele></trkpt><trkpt lat="45.963542" lon="10.292205"><time>2025-04-28T06:40:33.000Z</time><ele>688.8</ele></trkpt><trkpt lat="45.963555" lon="10.292197"><time>2025-04-28T06:40:34.000Z</time><ele>688.8</ele></trkpt><trkpt lat="45.963559" lon="10.292192"><time>2025-04-28T06:40:35.000Z</time><ele>689.2</ele></trkpt><trkpt lat="45.963566" lon="10.292182"><time>2025-04-28T06:40:36.000Z</time><ele>689.4</ele></trkpt><trkpt lat="45.963555" lon="10.292177"><time>2025-04-28T06:40:37.000Z</time><ele>689.6</ele></trkpt><trkpt lat="45.963538" lon="10.292171"><time>2025-04-28T06:40:38.000Z</time><ele>689.8</ele></trkpt><trkpt lat="45.963527" lon="10.292176"><time>2025-04-28T06:40:39.000Z</time><ele>689.8</ele></trkpt><trkpt lat="45.96353" lon="10.292167"><time>2025-04-28T06:40:40.000Z</time><ele>690</ele></trkpt><trkpt lat="45.963533" lon="10.292158"><time>2025-04-28T06:40:41.000Z</time><ele>690</ele></trkpt><trkpt lat="45.963532" lon="10.292153"><time>2025-04-28T06:40:42.000Z</time><ele>690.2</ele></trkpt><trkpt lat="45.963527" lon="10.292151"><time>2025-04-28T06:40:43.000Z</time><ele>690.4</ele></trkpt><trkpt lat="45.963527" lon="10.292141"><time>2025-04-28T06:40:44.000Z</time><ele>690.4</ele></trkpt><trkpt lat="45.96353" lon="10.292137"><time>2025-04-28T06:40:45.000Z</time><ele>690.6</ele></trkpt><trkpt lat="45.963535" lon="10.292134"><time>2025-04-28T06:40:46.000Z</time><ele>690.8</ele></trkpt><trkpt lat="45.963544" lon="10.292122"><time>2025-04-28T06:40:47.000Z</time><ele>691</ele></trkpt><trkpt lat="45.963546" lon="10.292114"><time>2025-04-28T06:40:48.000Z</time><ele>691.2</ele></trkpt><trkpt lat="45.963542" lon="10.292103"><time>2025-04-28T06:40:49.000Z</time><ele>691.4</ele></trkpt><trkpt lat="45.963528" lon="10.292094"><time>2025-04-28T06:40:50.000Z</time><ele>691.6</ele></trkpt><trkpt lat="45.96353" lon="10.292079"><time>2025-04-28T06:40:51.000Z</time><ele>691.8</ele></trkpt><trkpt lat="45.963529" lon="10.292075"><time>2025-04-28T06:40:52.000Z</time><ele>691.8</ele></trkpt><trkpt lat="45.963531" lon="10.29208"><time>2025-04-28T06:40:53.000Z</time><ele>692</ele></trkpt><trkpt lat="45.963538" lon="10.29207"><time>2025-04-28T06:40:54.000Z</time><ele>692.2</ele></trkpt><trkpt lat="45.963543" lon="10.292065"><time>2025-04-28T06:40:55.000Z</time><ele>692.4</ele></trkpt><trkpt lat="45.963553" lon="10.292063"><time>2025-04-28T06:40:56.000Z</time><ele>692.4</ele></trkpt><trkpt lat="45.963555" lon="10.292062"><time>2025-04-28T06:40:57.000Z</time><ele>692.6</ele></trkpt><trkpt lat="45.963557" lon="10.292056"><time>2025-04-28T06:40:58.000Z</time><ele>692.8</ele></trkpt><trkpt lat="45.963556" lon="10.292051"><time>2025-04-28T06:40:59.000Z</time><ele>693.2</ele></trkpt><trkpt lat="45.963569" lon="10.292034"><time>2025-04-28T06:41:00.000Z</time><ele>693.4</ele></trkpt><trkpt lat="45.963572" lon="10.29203"><time>2025-04-28T06:41:01.000Z</time><ele>693.6</ele></trkpt><trkpt lat="45.963574" lon="10.292025"><time>2025-04-28T06:41:02.000Z</time><ele>693.8</ele></trkpt><trkpt lat="45.963567" lon="10.292022"><time>2025-04-28T06:41:03.000Z</time><ele>693.8</ele></trkpt><trkpt lat="45.963567" lon="10.292012"><time>2025-04-28T06:41:04.000Z</time><ele>694</ele></trkpt><trkpt lat="45.963566" lon="10.292004"><time>2025-04-28T06:41:05.000Z</time><ele>694</ele></trkpt><trkpt lat="45.963564" lon="10.292006"><time>2025-04-28T06:41:06.000Z</time><ele>694.2</ele></trkpt><trkpt lat="45.963563" lon="10.291996"><time>2025-04-28T06:41:07.000Z</time><ele>694.4</ele></trkpt><trkpt lat="45.963573" lon="10.291988"><time>2025-04-28T06:41:08.000Z</time><ele>694.6</ele></trkpt><trkpt lat="45.963581" lon="10.291971"><time>2025-04-28T06:41:09.000Z</time><ele>694.8</ele></trkpt><trkpt lat="45.963582" lon="10.291968"><time>2025-04-28T06:41:10.000Z</time><ele>694.8</ele></trkpt><trkpt lat="45.963588" lon="10.291963"><time>2025-04-28T06:41:11.000Z</time><ele>695.2</ele></trkpt><trkpt lat="45.963598" lon="10.291961"><time>2025-04-28T06:41:12.000Z</time><ele>695.2</ele></trkpt><trkpt lat="45.963596" lon="10.291954"><time>2025-04-28T06:41:13.000Z</time><ele>695.4</ele></trkpt><trkpt lat="45.963595" lon="10.291942"><time>2025-04-28T06:41:14.000Z</time><ele>695.4</ele></trkpt><trkpt lat="45.963598" lon="10.291936"><time>2025-04-28T06:41:15.000Z</time><ele>695.4</ele></trkpt><trkpt lat="45.9636" lon="10.291935"><time>2025-04-28T06:41:16.000Z</time><ele>695.4</ele></trkpt><trkpt lat="45.963602" lon="10.291933"><time>2025-04-28T06:41:17.000Z</time><ele>695.4</ele></trkpt><trkpt lat="45.963605" lon="10.291932"><time>2025-04-28T06:41:18.000Z</time><ele>695.4</ele></trkpt><trkpt lat="45.963607" lon="10.291933"><time>2025-04-28T06:41:19.000Z</time><ele>695.4</ele></trkpt><trkpt lat="45.96361" lon="10.291935"><time>2025-04-28T06:41:20.000Z</time><ele>695.4</ele></trkpt><trkpt lat="45.963613" lon="10.291936"><time>2025-04-28T06:41:21.000Z</time><ele>695.4</ele></trkpt><trkpt lat="45.963614" lon="10.291936"><time>2025-04-28T06:41:22.000Z</time><ele>695.4</ele></trkpt><trkpt lat="45.963615" lon="10.291937"><time>2025-04-28T06:41:23.000Z</time><ele>695.4</ele></trkpt><trkpt lat="45.963617" lon="10.291938"><time>2025-04-28T06:41:24.000Z</time><ele>695.4</ele></trkpt><trkpt lat="45.96362" lon="10.291938"><time>2025-04-28T06:41:25.000Z</time><ele>695.4</ele></trkpt><trkpt lat="45.963622" lon="10.291938"><time>2025-04-28T06:41:26.000Z</time><ele>695.4</ele></trkpt><trkpt lat="45.963628" lon="10.291937"><time>2025-04-28T06:41:27.000Z</time><ele>695.4</ele></trkpt><trkpt lat="45.963635" lon="10.291938"><time>2025-04-28T06:41:28.000Z</time><ele>695.4</ele></trkpt><trkpt lat="45.963643" lon="10.291933"><time>2025-04-28T06:41:29.000Z</time><ele>695.4</ele></trkpt><trkpt lat="45.963644" lon="10.291931"><time>2025-04-28T06:41:30.000Z</time><ele>695.6</ele></trkpt><trkpt lat="45.963647" lon="10.291931"><time>2025-04-28T06:41:31.000Z</time><ele>695.8</ele></trkpt><trkpt lat="45.963645" lon="10.291918"><time>2025-04-28T06:41:32.000Z</time><ele>696</ele></trkpt><trkpt lat="45.96365" lon="10.291914"><time>2025-04-28T06:41:33.000Z</time><ele>696.2</ele></trkpt><trkpt lat="45.963651" lon="10.291915"><time>2025-04-28T06:41:34.000Z</time><ele>696.4</ele></trkpt><trkpt lat="45.963653" lon="10.291918"><time>2025-04-28T06:41:35.000Z</time><ele>696.6</ele></trkpt><trkpt lat="45.963656" lon="10.291921"><time>2025-04-28T06:41:36.000Z</time><ele>696.6</ele></trkpt><trkpt lat="45.963658" lon="10.291925"><time>2025-04-28T06:41:37.000Z</time><ele>696.8</ele></trkpt><trkpt lat="45.96366" lon="10.291924"><time>2025-04-28T06:41:38.000Z</time><ele>697</ele></trkpt><trkpt lat="45.96366" lon="10.291919"><time>2025-04-28T06:41:39.000Z</time><ele>697.2</ele></trkpt><trkpt lat="45.963665" lon="10.291916"><time>2025-04-28T06:41:40.000Z</time><ele>697.4</ele></trkpt><trkpt lat="45.963668" lon="10.29191"><time>2025-04-28T06:41:41.000Z</time><ele>697.8</ele></trkpt><trkpt lat="45.963669" lon="10.291911"><time>2025-04-28T06:41:42.000Z</time><ele>698</ele></trkpt><trkpt lat="45.963668" lon="10.291911"><time>2025-04-28T06:41:43.000Z</time><ele>698.2</ele></trkpt><trkpt lat="45.963671" lon="10.291908"><time>2025-04-28T06:41:44.000Z</time><ele>698.2</ele></trkpt><trkpt lat="45.963674" lon="10.291905"><time>2025-04-28T06:41:45.000Z</time><ele>698.2</ele></trkpt><trkpt lat="45.963673" lon="10.291909"><time>2025-04-28T06:41:46.000Z</time><ele>698.4</ele></trkpt><trkpt lat="45.963678" lon="10.291919"><time>2025-04-28T06:41:47.000Z</time><ele>698.6</ele></trkpt><trkpt lat="45.963677" lon="10.291925"><time>2025-04-28T06:41:48.000Z</time><ele>698.8</ele></trkpt><trkpt lat="45.96368" lon="10.291928"><time>2025-04-28T06:41:49.000Z</time><ele>699</ele></trkpt><trkpt lat="45.963688" lon="10.291928"><time>2025-04-28T06:41:50.000Z</time><ele>699.2</ele></trkpt><trkpt lat="45.963693" lon="10.291927"><time>2025-04-28T06:41:51.000Z</time><ele>699.2</ele></trkpt><trkpt lat="45.963696" lon="10.291926"><time>2025-04-28T06:41:52.000Z</time><ele>699.4</ele></trkpt><trkpt lat="45.963699" lon="10.291924"><time>2025-04-28T06:41:53.000Z</time><ele>699.4</ele></trkpt><trkpt lat="45.963702" lon="10.291921"><time>2025-04-28T06:41:54.000Z</time><ele>699.6</ele></trkpt><trkpt lat="45.963702" lon="10.291919"><time>2025-04-28T06:41:55.000Z</time><ele>699.8</ele></trkpt><trkpt lat="45.963701" lon="10.29192"><time>2025-04-28T06:41:56.000Z</time><ele>700</ele></trkpt><trkpt lat="45.963701" lon="10.29192"><time>2025-04-28T06:41:57.000Z</time><ele>700.2</ele></trkpt><trkpt lat="45.963701" lon="10.29192"><time>2025-04-28T06:41:58.000Z</time><ele>700.2</ele></trkpt><trkpt lat="45.963701" lon="10.29192"><time>2025-04-28T06:41:59.000Z</time><ele>700.4</ele></trkpt><trkpt lat="45.963701" lon="10.29192"><time>2025-04-28T06:42:00.000Z</time><ele>700.6</ele></trkpt><trkpt lat="45.963701" lon="10.29192"><time>2025-04-28T06:42:01.000Z</time><ele>700.6</ele></trkpt><trkpt lat="45.963701" lon="10.29192"><time>2025-04-28T06:42:02.000Z</time><ele>700.8</ele></trkpt><trkpt lat="45.963701" lon="10.29192"><time>2025-04-28T06:42:03.000Z</time><ele>700.8</ele></trkpt><trkpt lat="45.963701" lon="10.29192"><time>2025-04-28T06:42:04.000Z</time><ele>701.2</ele></trkpt><trkpt lat="45.963701" lon="10.291921"><time>2025-04-28T06:42:05.000Z</time><ele>701.4</ele></trkpt><trkpt lat="45.963701" lon="10.291922"><time>2025-04-28T06:42:06.000Z</time><ele>701.6</ele></trkpt><trkpt lat="45.963701" lon="10.291924"><time>2025-04-28T06:42:07.000Z</time><ele>701.6</ele></trkpt><trkpt lat="45.963701" lon="10.291925"><time>2025-04-28T06:42:08.000Z</time><ele>701.6</ele></trkpt><trkpt lat="45.963701" lon="10.291925"><time>2025-04-28T06:42:09.000Z</time><ele>701.8</ele></trkpt><trkpt lat="45.963701" lon="10.291926"><time>2025-04-28T06:42:10.000Z</time><ele>702</ele></trkpt><trkpt lat="45.9637" lon="10.291927"><time>2025-04-28T06:42:11.000Z</time><ele>702.2</ele></trkpt><trkpt lat="45.9637" lon="10.291928"><time>2025-04-28T06:42:12.000Z</time><ele>702.2</ele></trkpt><trkpt lat="45.9637" lon="10.291928"><time>2025-04-28T06:42:13.000Z</time><ele>702.4</ele></trkpt><trkpt lat="45.963703" lon="10.291934"><time>2025-04-28T06:42:14.000Z</time><ele>702.6</ele></trkpt><trkpt lat="45.963705" lon="10.29194"><time>2025-04-28T06:42:15.000Z</time><ele>702.8</ele></trkpt><trkpt lat="45.963709" lon="10.291945"><time>2025-04-28T06:42:16.000Z</time><ele>703</ele></trkpt><trkpt lat="45.963711" lon="10.29195"><time>2025-04-28T06:42:17.000Z</time><ele>703.2</ele></trkpt><trkpt lat="45.963712" lon="10.291958"><time>2025-04-28T06:42:18.000Z</time><ele>703.4</ele></trkpt><trkpt lat="45.963716" lon="10.291961"><time>2025-04-28T06:42:19.000Z</time><ele>703.4</ele></trkpt><trkpt lat="45.96372" lon="10.291964"><time>2025-04-28T06:42:20.000Z</time><ele>703.6</ele></trkpt><trkpt lat="45.963734" lon="10.29197"><time>2025-04-28T06:42:21.000Z</time><ele>703.8</ele></trkpt><trkpt lat="45.963744" lon="10.291979"><time>2025-04-28T06:42:22.000Z</time><ele>704</ele></trkpt><trkpt lat="45.963749" lon="10.291999"><time>2025-04-28T06:42:23.000Z</time><ele>704.2</ele></trkpt><trkpt lat="45.963746" lon="10.292001"><time>2025-04-28T06:42:24.000Z</time><ele>704.2</ele></trkpt><trkpt lat="45.963749" lon="10.292009"><time>2025-04-28T06:42:25.000Z</time><ele>704.4</ele></trkpt><trkpt lat="45.963753" lon="10.29201"><time>2025-04-28T06:42:26.000Z</time><ele>704.4</ele></trkpt><trkpt lat="45.963759" lon="10.29201"><time>2025-04-28T06:42:27.000Z</time><ele>704.6</ele></trkpt><trkpt lat="45.963771" lon="10.292009"><time>2025-04-28T06:42:28.000Z</time><ele>704.6</ele></trkpt><trkpt lat="45.96378" lon="10.29201"><time>2025-04-28T06:42:29.000Z</time><ele>705</ele></trkpt><trkpt lat="45.963783" lon="10.292011"><time>2025-04-28T06:42:30.000Z</time><ele>705.4</ele></trkpt><trkpt lat="45.963781" lon="10.292016"><time>2025-04-28T06:42:31.000Z</time><ele>705.6</ele></trkpt><trkpt lat="45.963781" lon="10.292009"><time>2025-04-28T06:42:32.000Z</time><ele>705.8</ele></trkpt><trkpt lat="45.963782" lon="10.292009"><time>2025-04-28T06:42:33.000Z</time><ele>706</ele></trkpt><trkpt lat="45.963783" lon="10.292012"><time>2025-04-28T06:42:34.000Z</time><ele>706</ele></trkpt><trkpt lat="45.963783" lon="10.292013"><time>2025-04-28T06:42:35.000Z</time><ele>706.2</ele></trkpt><trkpt lat="45.963795" lon="10.292011"><time>2025-04-28T06:42:36.000Z</time><ele>706.2</ele></trkpt><trkpt lat="45.963801" lon="10.292014"><time>2025-04-28T06:42:37.000Z</time><ele>706.6</ele></trkpt><trkpt lat="45.963804" lon="10.292018"><time>2025-04-28T06:42:38.000Z</time><ele>706.8</ele></trkpt><trkpt lat="45.963804" lon="10.292024"><time>2025-04-28T06:42:39.000Z</time><ele>707</ele></trkpt><trkpt lat="45.963812" lon="10.292027"><time>2025-04-28T06:42:40.000Z</time><ele>707.2</ele></trkpt><trkpt lat="45.963818" lon="10.292026"><time>2025-04-28T06:42:41.000Z</time><ele>707.4</ele></trkpt><trkpt lat="45.963821" lon="10.292027"><time>2025-04-28T06:42:42.000Z</time><ele>707.6</ele></trkpt><trkpt lat="45.963823" lon="10.292033"><time>2025-04-28T06:42:43.000Z</time><ele>707.6</ele></trkpt><trkpt lat="45.963831" lon="10.292041"><time>2025-04-28T06:42:44.000Z</time><ele>707.8</ele></trkpt><trkpt lat="45.963833" lon="10.292045"><time>2025-04-28T06:42:45.000Z</time><ele>708</ele></trkpt><trkpt lat="45.963851" lon="10.292044"><time>2025-04-28T06:42:46.000Z</time><ele>708</ele></trkpt><trkpt lat="45.963856" lon="10.292048"><time>2025-04-28T06:42:47.000Z</time><ele>708.2</ele></trkpt><trkpt lat="45.963861" lon="10.292051"><time>2025-04-28T06:42:48.000Z</time><ele>708.4</ele></trkpt><trkpt lat="45.963873" lon="10.292048"><time>2025-04-28T06:42:49.000Z</time><ele>708.6</ele></trkpt><trkpt lat="45.963878" lon="10.292049"><time>2025-04-28T06:42:50.000Z</time><ele>708.8</ele></trkpt><trkpt lat="45.96388" lon="10.292056"><time>2025-04-28T06:42:51.000Z</time><ele>708.8</ele></trkpt><trkpt lat="45.963884" lon="10.292055"><time>2025-04-28T06:42:52.000Z</time><ele>709</ele></trkpt><trkpt lat="45.963884" lon="10.292056"><time>2025-04-28T06:42:53.000Z</time><ele>709</ele></trkpt><trkpt lat="45.963888" lon="10.292062"><time>2025-04-28T06:42:54.000Z</time><ele>709.2</ele></trkpt><trkpt lat="45.963888" lon="10.292071"><time>2025-04-28T06:42:55.000Z</time><ele>709.4</ele></trkpt><trkpt lat="45.963884" lon="10.292081"><time>2025-04-28T06:42:56.000Z</time><ele>709.6</ele></trkpt><trkpt lat="45.963884" lon="10.292088"><time>2025-04-28T06:42:57.000Z</time><ele>709.8</ele></trkpt><trkpt lat="45.963884" lon="10.292092"><time>2025-04-28T06:42:58.000Z</time><ele>709.8</ele></trkpt><trkpt lat="45.963885" lon="10.292092"><time>2025-04-28T06:42:59.000Z</time><ele>710</ele></trkpt><trkpt lat="45.963887" lon="10.29209"><time>2025-04-28T06:43:00.000Z</time><ele>710.2</ele></trkpt><trkpt lat="45.963888" lon="10.292092"><time>2025-04-28T06:43:01.000Z</time><ele>710.4</ele></trkpt><trkpt lat="45.963891" lon="10.292094"><time>2025-04-28T06:43:02.000Z</time><ele>710.4</ele></trkpt><trkpt lat="45.963899" lon="10.292094"><time>2025-04-28T06:43:03.000Z</time><ele>710.6</ele></trkpt><trkpt lat="45.963901" lon="10.292095"><time>2025-04-28T06:43:04.000Z</time><ele>710.8</ele></trkpt><trkpt lat="45.963908" lon="10.292092"><time>2025-04-28T06:43:05.000Z</time><ele>711</ele></trkpt><trkpt lat="45.963912" lon="10.292099"><time>2025-04-28T06:43:06.000Z</time><ele>711.2</ele></trkpt><trkpt lat="45.963915" lon="10.2921"><time>2025-04-28T06:43:07.000Z</time><ele>711.2</ele></trkpt><trkpt lat="45.963917" lon="10.292098"><time>2025-04-28T06:43:08.000Z</time><ele>711.8</ele></trkpt><trkpt lat="45.963905" lon="10.292108"><time>2025-04-28T06:43:09.000Z</time><ele>712</ele></trkpt><trkpt lat="45.963902" lon="10.29211"><time>2025-04-28T06:43:10.000Z</time><ele>712.2</ele></trkpt><trkpt lat="45.963904" lon="10.292109"><time>2025-04-28T06:43:11.000Z</time><ele>712.4</ele></trkpt><trkpt lat="45.963904" lon="10.292109"><time>2025-04-28T06:43:12.000Z</time><ele>712.4</ele></trkpt><trkpt lat="45.963904" lon="10.292109"><time>2025-04-28T06:43:13.000Z</time><ele>712.6</ele></trkpt><trkpt lat="45.963904" lon="10.292109"><time>2025-04-28T06:43:14.000Z</time><ele>712.6</ele></trkpt><trkpt lat="45.963904" lon="10.292109"><time>2025-04-28T06:43:15.000Z</time><ele>713</ele></trkpt><trkpt lat="45.963904" lon="10.292109"><time>2025-04-28T06:43:16.000Z</time><ele>713</ele></trkpt><trkpt lat="45.963904" lon="10.292109"><time>2025-04-28T06:43:17.000Z</time><ele>713.2</ele></trkpt><trkpt lat="45.963904" lon="10.292109"><time>2025-04-28T06:43:18.000Z</time><ele>713.2</ele></trkpt><trkpt lat="45.963904" lon="10.292109"><time>2025-04-28T06:43:19.000Z</time><ele>713.6</ele></trkpt><trkpt lat="45.963904" lon="10.292109"><time>2025-04-28T06:43:20.000Z</time><ele>713.8</ele></trkpt><trkpt lat="45.963904" lon="10.292109"><time>2025-04-28T06:43:21.000Z</time><ele>713.8</ele></trkpt><trkpt lat="45.963904" lon="10.292109"><time>2025-04-28T06:43:22.000Z</time><ele>714</ele></trkpt><trkpt lat="45.963904" lon="10.292109"><time>2025-04-28T06:43:23.000Z</time><ele>714.2</ele></trkpt><trkpt lat="45.963904" lon="10.292109"><time>2025-04-28T06:43:24.000Z</time><ele>714.4</ele></trkpt><trkpt lat="45.963908" lon="10.292111"><time>2025-04-28T06:43:25.000Z</time><ele>714.6</ele></trkpt><trkpt lat="45.96392" lon="10.292103"><time>2025-04-28T06:43:26.000Z</time><ele>714.8</ele></trkpt><trkpt lat="45.963931" lon="10.292099"><time>2025-04-28T06:43:27.000Z</time><ele>714.8</ele></trkpt><trkpt lat="45.96394" lon="10.292099"><time>2025-04-28T06:43:28.000Z</time><ele>715</ele></trkpt><trkpt lat="45.963947" lon="10.292101"><time>2025-04-28T06:43:29.000Z</time><ele>715.4</ele></trkpt><trkpt lat="45.963953" lon="10.292106"><time>2025-04-28T06:43:30.000Z</time><ele>715.4</ele></trkpt><trkpt lat="45.963959" lon="10.29211"><time>2025-04-28T06:43:31.000Z</time><ele>715.6</ele></trkpt><trkpt lat="45.963957" lon="10.292132"><time>2025-04-28T06:43:32.000Z</time><ele>715.8</ele></trkpt><trkpt lat="45.963963" lon="10.292132"><time>2025-04-28T06:43:33.000Z</time><ele>716</ele></trkpt><trkpt lat="45.963968" lon="10.292134"><time>2025-04-28T06:43:34.000Z</time><ele>716.2</ele></trkpt><trkpt lat="45.963975" lon="10.292134"><time>2025-04-28T06:43:35.000Z</time><ele>716.4</ele></trkpt><trkpt lat="45.963984" lon="10.292135"><time>2025-04-28T06:43:36.000Z</time><ele>716.6</ele></trkpt><trkpt lat="45.963989" lon="10.292139"><time>2025-04-28T06:43:37.000Z</time><ele>716.8</ele></trkpt><trkpt lat="45.963991" lon="10.292148"><time>2025-04-28T06:43:38.000Z</time><ele>717.2</ele></trkpt><trkpt lat="45.963991" lon="10.292156"><time>2025-04-28T06:43:39.000Z</time><ele>717.4</ele></trkpt><trkpt lat="45.963996" lon="10.292162"><time>2025-04-28T06:43:40.000Z</time><ele>717.6</ele></trkpt><trkpt lat="45.964003" lon="10.292167"><time>2025-04-28T06:43:41.000Z</time><ele>718</ele></trkpt><trkpt lat="45.964007" lon="10.292165"><time>2025-04-28T06:43:42.000Z</time><ele>718</ele></trkpt><trkpt lat="45.964012" lon="10.292167"><time>2025-04-28T06:43:43.000Z</time><ele>718.2</ele></trkpt><trkpt lat="45.964014" lon="10.292166"><time>2025-04-28T06:43:44.000Z</time><ele>718.2</ele></trkpt><trkpt lat="45.964015" lon="10.292169"><time>2025-04-28T06:43:45.000Z</time><ele>718.2</ele></trkpt><trkpt lat="45.964017" lon="10.292167"><time>2025-04-28T06:43:46.000Z</time><ele>718.4</ele></trkpt><trkpt lat="45.964022" lon="10.292164"><time>2025-04-28T06:43:47.000Z</time><ele>718.4</ele></trkpt><trkpt lat="45.964027" lon="10.292166"><time>2025-04-28T06:43:48.000Z</time><ele>718.6</ele></trkpt><trkpt lat="45.96403" lon="10.292163"><time>2025-04-28T06:43:49.000Z</time><ele>718.8</ele></trkpt><trkpt lat="45.964033" lon="10.29216"><time>2025-04-28T06:43:50.000Z</time><ele>719</ele></trkpt><trkpt lat="45.964035" lon="10.29216"><time>2025-04-28T06:43:51.000Z</time><ele>719</ele></trkpt><trkpt lat="45.964038" lon="10.292164"><time>2025-04-28T06:43:52.000Z</time><ele>719.2</ele></trkpt><trkpt lat="45.96404" lon="10.292162"><time>2025-04-28T06:43:53.000Z</time><ele>719.4</ele></trkpt><trkpt lat="45.964039" lon="10.292162"><time>2025-04-28T06:43:54.000Z</time><ele>719.6</ele></trkpt><trkpt lat="45.964043" lon="10.292167"><time>2025-04-28T06:43:55.000Z</time><ele>719.8</ele></trkpt><trkpt lat="45.964053" lon="10.29216"><time>2025-04-28T06:43:56.000Z</time><ele>720</ele></trkpt><trkpt lat="45.964062" lon="10.292148"><time>2025-04-28T06:43:57.000Z</time><ele>720.2</ele></trkpt><trkpt lat="45.964077" lon="10.292143"><time>2025-04-28T06:43:58.000Z</time><ele>720.4</ele></trkpt><trkpt lat="45.964084" lon="10.292144"><time>2025-04-28T06:43:59.000Z</time><ele>720.4</ele></trkpt><trkpt lat="45.964092" lon="10.29215"><time>2025-04-28T06:44:00.000Z</time><ele>720.6</ele></trkpt><trkpt lat="45.964095" lon="10.292147"><time>2025-04-28T06:44:01.000Z</time><ele>720.8</ele></trkpt><trkpt lat="45.964106" lon="10.292159"><time>2025-04-28T06:44:02.000Z</time><ele>720.8</ele></trkpt><trkpt lat="45.96411" lon="10.292159"><time>2025-04-28T06:44:03.000Z</time><ele>721</ele></trkpt><trkpt lat="45.964114" lon="10.29216"><time>2025-04-28T06:44:04.000Z</time><ele>721</ele></trkpt><trkpt lat="45.964114" lon="10.292166"><time>2025-04-28T06:44:05.000Z</time><ele>721</ele></trkpt><trkpt lat="45.964119" lon="10.292167"><time>2025-04-28T06:44:06.000Z</time><ele>721.2</ele></trkpt><trkpt lat="45.964122" lon="10.292167"><time>2025-04-28T06:44:07.000Z</time><ele>721.4</ele></trkpt><trkpt lat="45.96412" lon="10.292172"><time>2025-04-28T06:44:08.000Z</time><ele>721.6</ele></trkpt><trkpt lat="45.964115" lon="10.292172"><time>2025-04-28T06:44:09.000Z</time><ele>721.8</ele></trkpt><trkpt lat="45.964115" lon="10.292181"><time>2025-04-28T06:44:10.000Z</time><ele>722</ele></trkpt><trkpt lat="45.964127" lon="10.29218"><time>2025-04-28T06:44:11.000Z</time><ele>722.2</ele></trkpt><trkpt lat="45.964145" lon="10.292178"><time>2025-04-28T06:44:12.000Z</time><ele>722.4</ele></trkpt><trkpt lat="45.964162" lon="10.292173"><time>2025-04-28T06:44:13.000Z</time><ele>722.6</ele></trkpt><trkpt lat="45.964168" lon="10.292177"><time>2025-04-28T06:44:14.000Z</time><ele>722.8</ele></trkpt><trkpt lat="45.964172" lon="10.292173"><time>2025-04-28T06:44:15.000Z</time><ele>723</ele></trkpt><trkpt lat="45.964172" lon="10.292169"><time>2025-04-28T06:44:16.000Z</time><ele>723</ele></trkpt><trkpt lat="45.964173" lon="10.292173"><time>2025-04-28T06:44:17.000Z</time><ele>723.2</ele></trkpt><trkpt lat="45.964177" lon="10.292173"><time>2025-04-28T06:44:18.000Z</time><ele>723.2</ele></trkpt><trkpt lat="45.964181" lon="10.292166"><time>2025-04-28T06:44:19.000Z</time><ele>723.2</ele></trkpt><trkpt lat="45.964185" lon="10.29216"><time>2025-04-28T06:44:20.000Z</time><ele>723.6</ele></trkpt><trkpt lat="45.964186" lon="10.292156"><time>2025-04-28T06:44:21.000Z</time><ele>723.8</ele></trkpt><trkpt lat="45.964191" lon="10.29216"><time>2025-04-28T06:44:22.000Z</time><ele>724</ele></trkpt><trkpt lat="45.964195" lon="10.292162"><time>2025-04-28T06:44:23.000Z</time><ele>724</ele></trkpt><trkpt lat="45.964198" lon="10.292161"><time>2025-04-28T06:44:24.000Z</time><ele>724.2</ele></trkpt><trkpt lat="45.964202" lon="10.292161"><time>2025-04-28T06:44:25.000Z</time><ele>724.4</ele></trkpt><trkpt lat="45.964208" lon="10.29216"><time>2025-04-28T06:44:26.000Z</time><ele>724.4</ele></trkpt><trkpt lat="45.964216" lon="10.292162"><time>2025-04-28T06:44:27.000Z</time><ele>724.6</ele></trkpt><trkpt lat="45.964222" lon="10.292154"><time>2025-04-28T06:44:28.000Z</time><ele>724.8</ele></trkpt><trkpt lat="45.964227" lon="10.292156"><time>2025-04-28T06:44:29.000Z</time><ele>725</ele></trkpt><trkpt lat="45.964233" lon="10.292154"><time>2025-04-28T06:44:30.000Z</time><ele>725.2</ele></trkpt><trkpt lat="45.964236" lon="10.292169"><time>2025-04-28T06:44:31.000Z</time><ele>725.2</ele></trkpt><trkpt lat="45.964244" lon="10.292177"><time>2025-04-28T06:44:32.000Z</time><ele>725.4</ele></trkpt><trkpt lat="45.964253" lon="10.292187"><time>2025-04-28T06:44:33.000Z</time><ele>725.4</ele></trkpt><trkpt lat="45.964263" lon="10.29219"><time>2025-04-28T06:44:34.000Z</time><ele>725.8</ele></trkpt><trkpt lat="45.964273" lon="10.292191"><time>2025-04-28T06:44:35.000Z</time><ele>726</ele></trkpt><trkpt lat="45.964277" lon="10.292192"><time>2025-04-28T06:44:36.000Z</time><ele>726.2</ele></trkpt><trkpt lat="45.964277" lon="10.292196"><time>2025-04-28T06:44:37.000Z</time><ele>726.4</ele></trkpt><trkpt lat="45.964276" lon="10.2922"><time>2025-04-28T06:44:38.000Z</time><ele>726.4</ele></trkpt><trkpt lat="45.964274" lon="10.292209"><time>2025-04-28T06:44:39.000Z</time><ele>726.4</ele></trkpt><trkpt lat="45.964276" lon="10.29221"><time>2025-04-28T06:44:40.000Z</time><ele>726.6</ele></trkpt><trkpt lat="45.964277" lon="10.292209"><time>2025-04-28T06:44:41.000Z</time><ele>726.6</ele></trkpt><trkpt lat="45.96428" lon="10.292209"><time>2025-04-28T06:44:42.000Z</time><ele>726.8</ele></trkpt><trkpt lat="45.964285" lon="10.292209"><time>2025-04-28T06:44:43.000Z</time><ele>726.8</ele></trkpt><trkpt lat="45.964288" lon="10.292207"><time>2025-04-28T06:44:44.000Z</time><ele>726.8</ele></trkpt><trkpt lat="45.964293" lon="10.292208"><time>2025-04-28T06:44:45.000Z</time><ele>727</ele></trkpt><trkpt lat="45.964298" lon="10.292211"><time>2025-04-28T06:44:46.000Z</time><ele>727.2</ele></trkpt><trkpt lat="45.964302" lon="10.292216"><time>2025-04-28T06:44:47.000Z</time><ele>727.4</ele></trkpt><trkpt lat="45.964306" lon="10.292219"><time>2025-04-28T06:44:48.000Z</time><ele>727.6</ele></trkpt><trkpt lat="45.96431" lon="10.292218"><time>2025-04-28T06:44:49.000Z</time><ele>727.8</ele></trkpt><trkpt lat="45.964311" lon="10.292223"><time>2025-04-28T06:44:50.000Z</time><ele>728</ele></trkpt><trkpt lat="45.96431" lon="10.292225"><time>2025-04-28T06:44:51.000Z</time><ele>728</ele></trkpt><trkpt lat="45.964311" lon="10.292226"><time>2025-04-28T06:44:52.000Z</time><ele>728.2</ele></trkpt><trkpt lat="45.964311" lon="10.292227"><time>2025-04-28T06:44:53.000Z</time><ele>728.2</ele></trkpt><trkpt lat="45.964312" lon="10.292229"><time>2025-04-28T06:44:54.000Z</time><ele>728.6</ele></trkpt><trkpt lat="45.964309" lon="10.29224"><time>2025-04-28T06:44:55.000Z</time><ele>728.6</ele></trkpt><trkpt lat="45.964308" lon="10.292259"><time>2025-04-28T06:44:56.000Z</time><ele>728.8</ele></trkpt><trkpt lat="45.964304" lon="10.292275"><time>2025-04-28T06:44:57.000Z</time><ele>729.2</ele></trkpt><trkpt lat="45.964307" lon="10.292274"><time>2025-04-28T06:44:58.000Z</time><ele>729.4</ele></trkpt><trkpt lat="45.964312" lon="10.29227"><time>2025-04-28T06:44:59.000Z</time><ele>729.6</ele></trkpt><trkpt lat="45.964311" lon="10.292279"><time>2025-04-28T06:45:00.000Z</time><ele>729.8</ele></trkpt><trkpt lat="45.964316" lon="10.292288"><time>2025-04-28T06:45:01.000Z</time><ele>729.8</ele></trkpt><trkpt lat="45.964323" lon="10.292289"><time>2025-04-28T06:45:02.000Z</time><ele>730</ele></trkpt><trkpt lat="45.964326" lon="10.292297"><time>2025-04-28T06:45:03.000Z</time><ele>730.2</ele></trkpt><trkpt lat="45.964332" lon="10.292303"><time>2025-04-28T06:45:04.000Z</time><ele>730.4</ele></trkpt><trkpt lat="45.964333" lon="10.292311"><time>2025-04-28T06:45:05.000Z</time><ele>730.6</ele></trkpt><trkpt lat="45.964334" lon="10.292315"><time>2025-04-28T06:45:06.000Z</time><ele>730.6</ele></trkpt><trkpt lat="45.964332" lon="10.292318"><time>2025-04-28T06:45:07.000Z</time><ele>730.8</ele></trkpt><trkpt lat="45.964334" lon="10.292315"><time>2025-04-28T06:45:08.000Z</time><ele>731</ele></trkpt><trkpt lat="45.964336" lon="10.292313"><time>2025-04-28T06:45:09.000Z</time><ele>731.2</ele></trkpt><trkpt lat="45.964333" lon="10.292317"><time>2025-04-28T06:45:10.000Z</time><ele>731.4</ele></trkpt><trkpt lat="45.964336" lon="10.292315"><time>2025-04-28T06:45:11.000Z</time><ele>731.4</ele></trkpt><trkpt lat="45.96434" lon="10.292316"><time>2025-04-28T06:45:12.000Z</time><ele>731.6</ele></trkpt><trkpt lat="45.96434" lon="10.292334"><time>2025-04-28T06:45:13.000Z</time><ele>731.6</ele></trkpt><trkpt lat="45.964342" lon="10.292337"><time>2025-04-28T06:45:14.000Z</time><ele>731.6</ele></trkpt><trkpt lat="45.964335" lon="10.292361"><time>2025-04-28T06:45:15.000Z</time><ele>731.8</ele></trkpt><trkpt lat="45.964326" lon="10.292384"><time>2025-04-28T06:45:16.000Z</time><ele>731.8</ele></trkpt><trkpt lat="45.964328" lon="10.292386"><time>2025-04-28T06:45:17.000Z</time><ele>732.2</ele></trkpt><trkpt lat="45.964328" lon="10.292387"><time>2025-04-28T06:45:18.000Z</time><ele>732.2</ele></trkpt><trkpt lat="45.964328" lon="10.292387"><time>2025-04-28T06:45:19.000Z</time><ele>732.4</ele></trkpt><trkpt lat="45.964328" lon="10.292387"><time>2025-04-28T06:45:20.000Z</time><ele>732.4</ele></trkpt><trkpt lat="45.96433" lon="10.292388"><time>2025-04-28T06:45:21.000Z</time><ele>732.6</ele></trkpt><trkpt lat="45.96434" lon="10.292402"><time>2025-04-28T06:45:22.000Z</time><ele>733</ele></trkpt><trkpt lat="45.964343" lon="10.292407"><time>2025-04-28T06:45:23.000Z</time><ele>733.2</ele></trkpt><trkpt lat="45.964346" lon="10.292409"><time>2025-04-28T06:45:24.000Z</time><ele>733.2</ele></trkpt><trkpt lat="45.964349" lon="10.292411"><time>2025-04-28T06:45:25.000Z</time><ele>733.4</ele></trkpt><trkpt lat="45.964351" lon="10.292412"><time>2025-04-28T06:45:26.000Z</time><ele>733.4</ele></trkpt><trkpt lat="45.964351" lon="10.292412"><time>2025-04-28T06:45:27.000Z</time><ele>733.6</ele></trkpt><trkpt lat="45.964351" lon="10.292412"><time>2025-04-28T06:45:28.000Z</time><ele>733.6</ele></trkpt><trkpt lat="45.964351" lon="10.292412"><time>2025-04-28T06:45:29.000Z</time><ele>733.8</ele></trkpt><trkpt lat="45.964351" lon="10.292412"><time>2025-04-28T06:45:30.000Z</time><ele>734</ele></trkpt><trkpt lat="45.964351" lon="10.292412"><time>2025-04-28T06:45:31.000Z</time><ele>734.2</ele></trkpt><trkpt lat="45.964351" lon="10.292412"><time>2025-04-28T06:45:32.000Z</time><ele>734.2</ele></trkpt><trkpt lat="45.964351" lon="10.292412"><time>2025-04-28T06:45:33.000Z</time><ele>734.6</ele></trkpt><trkpt lat="45.964351" lon="10.292412"><time>2025-04-28T06:45:34.000Z</time><ele>734.8</ele></trkpt><trkpt lat="45.964351" lon="10.292412"><time>2025-04-28T06:45:35.000Z</time><ele>734.8</ele></trkpt><trkpt lat="45.964351" lon="10.292412"><time>2025-04-28T06:45:36.000Z</time><ele>735</ele></trkpt><trkpt lat="45.964357" lon="10.292412"><time>2025-04-28T06:45:37.000Z</time><ele>735.2</ele></trkpt><trkpt lat="45.964357" lon="10.292413"><time>2025-04-28T06:45:38.000Z</time><ele>735.4</ele></trkpt><trkpt lat="45.964357" lon="10.292414"><time>2025-04-28T06:45:39.000Z</time><ele>735.4</ele></trkpt><trkpt lat="45.964358" lon="10.292414"><time>2025-04-28T06:45:40.000Z</time><ele>735.6</ele></trkpt><trkpt lat="45.964358" lon="10.292415"><time>2025-04-28T06:45:41.000Z</time><ele>735.8</ele></trkpt><trkpt lat="45.964359" lon="10.292416"><time>2025-04-28T06:45:42.000Z</time><ele>735.8</ele></trkpt><trkpt lat="45.96436" lon="10.292416"><time>2025-04-28T06:45:43.000Z</time><ele>736.2</ele></trkpt><trkpt lat="45.96436" lon="10.292416"><time>2025-04-28T06:45:44.000Z</time><ele>736.2</ele></trkpt><trkpt lat="45.96436" lon="10.292417"><time>2025-04-28T06:45:45.000Z</time><ele>736.6</ele></trkpt><trkpt lat="45.964369" lon="10.292421"><time>2025-04-28T06:45:46.000Z</time><ele>736.8</ele></trkpt><trkpt lat="45.964384" lon="10.292421"><time>2025-04-28T06:45:47.000Z</time><ele>736.8</ele></trkpt><trkpt lat="45.964396" lon="10.292423"><time>2025-04-28T06:45:48.000Z</time><ele>737</ele></trkpt><trkpt lat="45.964409" lon="10.292432"><time>2025-04-28T06:45:49.000Z</time><ele>737.2</ele></trkpt><trkpt lat="45.96442" lon="10.292441"><time>2025-04-28T06:45:50.000Z</time><ele>737.4</ele></trkpt><trkpt lat="45.964433" lon="10.292451"><time>2025-04-28T06:45:51.000Z</time><ele>737.4</ele></trkpt><trkpt lat="45.964446" lon="10.292457"><time>2025-04-28T06:45:52.000Z</time><ele>737.6</ele></trkpt><trkpt lat="45.96446" lon="10.292461"><time>2025-04-28T06:45:53.000Z</time><ele>737.8</ele></trkpt><trkpt lat="45.964473" lon="10.292463"><time>2025-04-28T06:45:54.000Z</time><ele>738</ele></trkpt><trkpt lat="45.964487" lon="10.29247"><time>2025-04-28T06:45:55.000Z</time><ele>738</ele></trkpt><trkpt lat="45.964484" lon="10.292475"><time>2025-04-28T06:45:56.000Z</time><ele>738.2</ele></trkpt><trkpt lat="45.964484" lon="10.292476"><time>2025-04-28T06:45:57.000Z</time><ele>738.4</ele></trkpt><trkpt lat="45.964486" lon="10.292477"><time>2025-04-28T06:45:58.000Z</time><ele>738.4</ele></trkpt><trkpt lat="45.964491" lon="10.29248"><time>2025-04-28T06:45:59.000Z</time><ele>738.6</ele></trkpt><trkpt lat="45.964495" lon="10.292484"><time>2025-04-28T06:46:00.000Z</time><ele>738.8</ele></trkpt><trkpt lat="45.964497" lon="10.292485"><time>2025-04-28T06:46:01.000Z</time><ele>739</ele></trkpt><trkpt lat="45.9645" lon="10.292494"><time>2025-04-28T06:46:02.000Z</time><ele>739.2</ele></trkpt><trkpt lat="45.964502" lon="10.29251"><time>2025-04-28T06:46:03.000Z</time><ele>739.2</ele></trkpt><trkpt lat="45.964505" lon="10.292525"><time>2025-04-28T06:46:04.000Z</time><ele>739.4</ele></trkpt><trkpt lat="45.964509" lon="10.292528"><time>2025-04-28T06:46:05.000Z</time><ele>739.6</ele></trkpt><trkpt lat="45.964516" lon="10.292536"><time>2025-04-28T06:46:06.000Z</time><ele>739.8</ele></trkpt><trkpt lat="45.964528" lon="10.292542"><time>2025-04-28T06:46:07.000Z</time><ele>739.8</ele></trkpt><trkpt lat="45.96454" lon="10.292547"><time>2025-04-28T06:46:08.000Z</time><ele>740</ele></trkpt><trkpt lat="45.964542" lon="10.292555"><time>2025-04-28T06:46:09.000Z</time><ele>740.2</ele></trkpt><trkpt lat="45.96455" lon="10.29256"><time>2025-04-28T06:46:10.000Z</time><ele>740.4</ele></trkpt><trkpt lat="45.96456" lon="10.292561"><time>2025-04-28T06:46:11.000Z</time><ele>740.6</ele></trkpt><trkpt lat="45.964563" lon="10.292559"><time>2025-04-28T06:46:12.000Z</time><ele>740.8</ele></trkpt><trkpt lat="45.964569" lon="10.292547"><time>2025-04-28T06:46:13.000Z</time><ele>740.8</ele></trkpt><trkpt lat="45.964573" lon="10.292543"><time>2025-04-28T06:46:14.000Z</time><ele>741</ele></trkpt><trkpt lat="45.964574" lon="10.292542"><time>2025-04-28T06:46:15.000Z</time><ele>741.2</ele></trkpt><trkpt lat="45.964575" lon="10.292545"><time>2025-04-28T06:46:16.000Z</time><ele>741.2</ele></trkpt><trkpt lat="45.964578" lon="10.292542"><time>2025-04-28T06:46:17.000Z</time><ele>741.6</ele></trkpt><trkpt lat="45.964581" lon="10.292534"><time>2025-04-28T06:46:18.000Z</time><ele>742</ele></trkpt><trkpt lat="45.964584" lon="10.292534"><time>2025-04-28T06:46:19.000Z</time><ele>742</ele></trkpt><trkpt lat="45.964589" lon="10.292532"><time>2025-04-28T06:46:20.000Z</time><ele>742.2</ele></trkpt><trkpt lat="45.964593" lon="10.292531"><time>2025-04-28T06:46:21.000Z</time><ele>742.4</ele></trkpt><trkpt lat="45.964596" lon="10.29253"><time>2025-04-28T06:46:22.000Z</time><ele>742.6</ele></trkpt><trkpt lat="45.964595" lon="10.292527"><time>2025-04-28T06:46:23.000Z</time><ele>742.6</ele></trkpt><trkpt lat="45.964597" lon="10.292525"><time>2025-04-28T06:46:24.000Z</time><ele>742.8</ele></trkpt><trkpt lat="45.964599" lon="10.292525"><time>2025-04-28T06:46:25.000Z</time><ele>742.8</ele></trkpt><trkpt lat="45.964601" lon="10.292524"><time>2025-04-28T06:46:26.000Z</time><ele>743.2</ele></trkpt><trkpt lat="45.964601" lon="10.292524"><time>2025-04-28T06:46:27.000Z</time><ele>743.4</ele></trkpt><trkpt lat="45.964601" lon="10.292524"><time>2025-04-28T06:46:28.000Z</time><ele>743.6</ele></trkpt><trkpt lat="45.964602" lon="10.292523"><time>2025-04-28T06:46:29.000Z</time><ele>743.6</ele></trkpt><trkpt lat="45.964602" lon="10.292519"><time>2025-04-28T06:46:30.000Z</time><ele>743.8</ele></trkpt><trkpt lat="45.964613" lon="10.292518"><time>2025-04-28T06:46:31.000Z</time><ele>744</ele></trkpt><trkpt lat="45.964618" lon="10.292512"><time>2025-04-28T06:46:32.000Z</time><ele>744</ele></trkpt><trkpt lat="45.964622" lon="10.292513"><time>2025-04-28T06:46:33.000Z</time><ele>744.2</ele></trkpt><trkpt lat="45.964631" lon="10.292508"><time>2025-04-28T06:46:34.000Z</time><ele>744.4</ele></trkpt><trkpt lat="45.964641" lon="10.29251"><time>2025-04-28T06:46:35.000Z</time><ele>744.4</ele></trkpt><trkpt lat="45.964645" lon="10.292509"><time>2025-04-28T06:46:36.000Z</time><ele>744.6</ele></trkpt><trkpt lat="45.964654" lon="10.292506"><time>2025-04-28T06:46:37.000Z</time><ele>744.6</ele></trkpt><trkpt lat="45.964659" lon="10.292504"><time>2025-04-28T06:46:38.000Z</time><ele>744.8</ele></trkpt><trkpt lat="45.96467" lon="10.292508"><time>2025-04-28T06:46:39.000Z</time><ele>745</ele></trkpt><trkpt lat="45.96468" lon="10.292509"><time>2025-04-28T06:46:40.000Z</time><ele>745.2</ele></trkpt><trkpt lat="45.964684" lon="10.292504"><time>2025-04-28T06:46:41.000Z</time><ele>745.4</ele></trkpt><trkpt lat="45.964683" lon="10.292501"><time>2025-04-28T06:46:42.000Z</time><ele>745.6</ele></trkpt><trkpt lat="45.964689" lon="10.292497"><time>2025-04-28T06:46:43.000Z</time><ele>746</ele></trkpt><trkpt lat="45.964696" lon="10.29249"><time>2025-04-28T06:46:44.000Z</time><ele>746.2</ele></trkpt><trkpt lat="45.9647" lon="10.292486"><time>2025-04-28T06:46:45.000Z</time><ele>746.2</ele></trkpt><trkpt lat="45.964707" lon="10.292476"><time>2025-04-28T06:46:46.000Z</time><ele>746.4</ele></trkpt><trkpt lat="45.964714" lon="10.292472"><time>2025-04-28T06:46:47.000Z</time><ele>746.4</ele></trkpt><trkpt lat="45.964715" lon="10.292479"><time>2025-04-28T06:46:48.000Z</time><ele>746.6</ele></trkpt><trkpt lat="45.964717" lon="10.292477"><time>2025-04-28T06:46:49.000Z</time><ele>746.8</ele></trkpt><trkpt lat="45.964718" lon="10.292479"><time>2025-04-28T06:46:50.000Z</time><ele>746.8</ele></trkpt><trkpt lat="45.964721" lon="10.292472"><time>2025-04-28T06:46:51.000Z</time><ele>747</ele></trkpt><trkpt lat="45.964718" lon="10.292472"><time>2025-04-28T06:46:52.000Z</time><ele>747</ele></trkpt><trkpt lat="45.964718" lon="10.292471"><time>2025-04-28T06:46:53.000Z</time><ele>747</ele></trkpt><trkpt lat="45.964723" lon="10.292461"><time>2025-04-28T06:46:54.000Z</time><ele>747</ele></trkpt><trkpt lat="45.964729" lon="10.292454"><time>2025-04-28T06:46:55.000Z</time><ele>747</ele></trkpt><trkpt lat="45.964732" lon="10.292449"><time>2025-04-28T06:46:56.000Z</time><ele>747</ele></trkpt><trkpt lat="45.964737" lon="10.292447"><time>2025-04-28T06:46:57.000Z</time><ele>747.2</ele></trkpt><trkpt lat="45.964739" lon="10.292447"><time>2025-04-28T06:46:58.000Z</time><ele>747.2</ele></trkpt><trkpt lat="45.964739" lon="10.292444"><time>2025-04-28T06:46:59.000Z</time><ele>747.4</ele></trkpt><trkpt lat="45.964743" lon="10.292445"><time>2025-04-28T06:47:00.000Z</time><ele>747.4</ele></trkpt><trkpt lat="45.964746" lon="10.292461"><time>2025-04-28T06:47:01.000Z</time><ele>747.6</ele></trkpt><trkpt lat="45.964749" lon="10.292469"><time>2025-04-28T06:47:02.000Z</time><ele>747.8</ele></trkpt><trkpt lat="45.964753" lon="10.292472"><time>2025-04-28T06:47:03.000Z</time><ele>748.2</ele></trkpt><trkpt lat="45.964755" lon="10.292473"><time>2025-04-28T06:47:04.000Z</time><ele>748.4</ele></trkpt><trkpt lat="45.964755" lon="10.292477"><time>2025-04-28T06:47:05.000Z</time><ele>748.4</ele></trkpt><trkpt lat="45.964754" lon="10.292482"><time>2025-04-28T06:47:06.000Z</time><ele>748.8</ele></trkpt><trkpt lat="45.964756" lon="10.292484"><time>2025-04-28T06:47:07.000Z</time><ele>748.8</ele></trkpt><trkpt lat="45.964764" lon="10.292483"><time>2025-04-28T06:47:08.000Z</time><ele>749</ele></trkpt><trkpt lat="45.964772" lon="10.292477"><time>2025-04-28T06:47:09.000Z</time><ele>749</ele></trkpt><trkpt lat="45.964779" lon="10.292479"><time>2025-04-28T06:47:10.000Z</time><ele>749.2</ele></trkpt><trkpt lat="45.964788" lon="10.292479"><time>2025-04-28T06:47:11.000Z</time><ele>749.2</ele></trkpt><trkpt lat="45.9648" lon="10.292469"><time>2025-04-28T06:47:12.000Z</time><ele>749.2</ele></trkpt><trkpt lat="45.96481" lon="10.292466"><time>2025-04-28T06:47:13.000Z</time><ele>749.4</ele></trkpt><trkpt lat="45.96482" lon="10.292461"><time>2025-04-28T06:47:14.000Z</time><ele>749.6</ele></trkpt><trkpt lat="45.964825" lon="10.292454"><time>2025-04-28T06:47:15.000Z</time><ele>749.6</ele></trkpt><trkpt lat="45.964827" lon="10.292451"><time>2025-04-28T06:47:16.000Z</time><ele>749.8</ele></trkpt><trkpt lat="45.964827" lon="10.292441"><time>2025-04-28T06:47:17.000Z</time><ele>749.8</ele></trkpt><trkpt lat="45.964831" lon="10.292436"><time>2025-04-28T06:47:18.000Z</time><ele>750.2</ele></trkpt><trkpt lat="45.964839" lon="10.292424"><time>2025-04-28T06:47:19.000Z</time><ele>750.2</ele></trkpt><trkpt lat="45.96484" lon="10.292419"><time>2025-04-28T06:47:20.000Z</time><ele>750.4</ele></trkpt><trkpt lat="45.96484" lon="10.292416"><time>2025-04-28T06:47:21.000Z</time><ele>750.6</ele></trkpt><trkpt lat="45.964846" lon="10.292416"><time>2025-04-28T06:47:22.000Z</time><ele>750.6</ele></trkpt><trkpt lat="45.964848" lon="10.292417"><time>2025-04-28T06:47:23.000Z</time><ele>750.8</ele></trkpt><trkpt lat="45.964858" lon="10.292412"><time>2025-04-28T06:47:24.000Z</time><ele>750.8</ele></trkpt><trkpt lat="45.964868" lon="10.292406"><time>2025-04-28T06:47:25.000Z</time><ele>750.8</ele></trkpt><trkpt lat="45.964875" lon="10.292398"><time>2025-04-28T06:47:26.000Z</time><ele>751</ele></trkpt><trkpt lat="45.964881" lon="10.292391"><time>2025-04-28T06:47:27.000Z</time><ele>751</ele></trkpt><trkpt lat="45.96489" lon="10.292382"><time>2025-04-28T06:47:28.000Z</time><ele>751.2</ele></trkpt><trkpt lat="45.964904" lon="10.292372"><time>2025-04-28T06:47:29.000Z</time><ele>751.4</ele></trkpt><trkpt lat="45.964914" lon="10.292372"><time>2025-04-28T06:47:30.000Z</time><ele>751.4</ele></trkpt><trkpt lat="45.96492" lon="10.292371"><time>2025-04-28T06:47:31.000Z</time><ele>751.6</ele></trkpt><trkpt lat="45.964929" lon="10.292369"><time>2025-04-28T06:47:32.000Z</time><ele>751.8</ele></trkpt><trkpt lat="45.964938" lon="10.292365"><time>2025-04-28T06:47:33.000Z</time><ele>751.8</ele></trkpt><trkpt lat="45.964942" lon="10.292361"><time>2025-04-28T06:47:34.000Z</time><ele>751.8</ele></trkpt><trkpt lat="45.964945" lon="10.292358"><time>2025-04-28T06:47:35.000Z</time><ele>751.8</ele></trkpt><trkpt lat="45.964948" lon="10.292355"><time>2025-04-28T06:47:36.000Z</time><ele>752</ele></trkpt><trkpt lat="45.964956" lon="10.292353"><time>2025-04-28T06:47:37.000Z</time><ele>752</ele></trkpt><trkpt lat="45.964969" lon="10.292349"><time>2025-04-28T06:47:38.000Z</time><ele>752.2</ele></trkpt><trkpt lat="45.964977" lon="10.292349"><time>2025-04-28T06:47:39.000Z</time><ele>752.2</ele></trkpt><trkpt lat="45.964983" lon="10.292345"><time>2025-04-28T06:47:40.000Z</time><ele>752.2</ele></trkpt><trkpt lat="45.964978" lon="10.292346"><time>2025-04-28T06:47:41.000Z</time><ele>752.4</ele></trkpt><trkpt lat="45.964974" lon="10.292343"><time>2025-04-28T06:47:42.000Z</time><ele>752.4</ele></trkpt><trkpt lat="45.964972" lon="10.292343"><time>2025-04-28T06:47:43.000Z</time><ele>752.6</ele></trkpt><trkpt lat="45.96498" lon="10.29234"><time>2025-04-28T06:47:44.000Z</time><ele>752.8</ele></trkpt><trkpt lat="45.964993" lon="10.292338"><time>2025-04-28T06:47:45.000Z</time><ele>753</ele></trkpt><trkpt lat="45.964996" lon="10.292333"><time>2025-04-28T06:47:46.000Z</time><ele>753</ele></trkpt><trkpt lat="45.964996" lon="10.292329"><time>2025-04-28T06:47:47.000Z</time><ele>753.2</ele></trkpt><trkpt lat="45.965005" lon="10.292328"><time>2025-04-28T06:47:48.000Z</time><ele>753.2</ele></trkpt><trkpt lat="45.965009" lon="10.292326"><time>2025-04-28T06:47:49.000Z</time><ele>753.4</ele></trkpt><trkpt lat="45.965018" lon="10.292322"><time>2025-04-28T06:47:50.000Z</time><ele>753.4</ele></trkpt><trkpt lat="45.965023" lon="10.292319"><time>2025-04-28T06:47:51.000Z</time><ele>753.4</ele></trkpt><trkpt lat="45.965032" lon="10.292311"><time>2025-04-28T06:47:52.000Z</time><ele>753.6</ele></trkpt><trkpt lat="45.96504" lon="10.29231"><time>2025-04-28T06:47:53.000Z</time><ele>753.8</ele></trkpt><trkpt lat="45.965051" lon="10.292307"><time>2025-04-28T06:47:54.000Z</time><ele>753.8</ele></trkpt><trkpt lat="45.965054" lon="10.292308"><time>2025-04-28T06:47:55.000Z</time><ele>754</ele></trkpt><trkpt lat="45.965061" lon="10.292309"><time>2025-04-28T06:47:56.000Z</time><ele>754.2</ele></trkpt><trkpt lat="45.965071" lon="10.292303"><time>2025-04-28T06:47:57.000Z</time><ele>754.2</ele></trkpt><trkpt lat="45.965074" lon="10.2923"><time>2025-04-28T06:47:58.000Z</time><ele>754.4</ele></trkpt><trkpt lat="45.965083" lon="10.292295"><time>2025-04-28T06:47:59.000Z</time><ele>754.6</ele></trkpt><trkpt lat="45.965095" lon="10.292293"><time>2025-04-28T06:48:00.000Z</time><ele>754.6</ele></trkpt><trkpt lat="45.965101" lon="10.292298"><time>2025-04-28T06:48:01.000Z</time><ele>754.8</ele></trkpt><trkpt lat="45.965104" lon="10.292294"><time>2025-04-28T06:48:02.000Z</time><ele>754.8</ele></trkpt><trkpt lat="45.965125" lon="10.292282"><time>2025-04-28T06:48:03.000Z</time><ele>755</ele></trkpt><trkpt lat="45.965145" lon="10.292275"><time>2025-04-28T06:48:04.000Z</time><ele>755.2</ele></trkpt><trkpt lat="45.965159" lon="10.292278"><time>2025-04-28T06:48:05.000Z</time><ele>755.4</ele></trkpt><trkpt lat="45.965171" lon="10.292276"><time>2025-04-28T06:48:06.000Z</time><ele>755.4</ele></trkpt><trkpt lat="45.965181" lon="10.292283"><time>2025-04-28T06:48:07.000Z</time><ele>755.6</ele></trkpt><trkpt lat="45.965188" lon="10.2923"><time>2025-04-28T06:48:08.000Z</time><ele>755.6</ele></trkpt><trkpt lat="45.965191" lon="10.292305"><time>2025-04-28T06:48:09.000Z</time><ele>755.8</ele></trkpt><trkpt lat="45.965209" lon="10.2923"><time>2025-04-28T06:48:10.000Z</time><ele>756</ele></trkpt><trkpt lat="45.965212" lon="10.292295"><time>2025-04-28T06:48:11.000Z</time><ele>756</ele></trkpt><trkpt lat="45.965224" lon="10.292285"><time>2025-04-28T06:48:12.000Z</time><ele>756.2</ele></trkpt><trkpt lat="45.965241" lon="10.292266"><time>2025-04-28T06:48:13.000Z</time><ele>756.4</ele></trkpt><trkpt lat="45.965245" lon="10.292264"><time>2025-04-28T06:48:14.000Z</time><ele>756.4</ele></trkpt><trkpt lat="45.965246" lon="10.292256"><time>2025-04-28T06:48:15.000Z</time><ele>756.6</ele></trkpt><trkpt lat="45.965252" lon="10.292249"><time>2025-04-28T06:48:16.000Z</time><ele>756.6</ele></trkpt><trkpt lat="45.965265" lon="10.292237"><time>2025-04-28T06:48:17.000Z</time><ele>756.8</ele></trkpt><trkpt lat="45.965273" lon="10.292221"><time>2025-04-28T06:48:18.000Z</time><ele>757</ele></trkpt><trkpt lat="45.965284" lon="10.292216"><time>2025-04-28T06:48:19.000Z</time><ele>757.2</ele></trkpt><trkpt lat="45.965288" lon="10.29221"><time>2025-04-28T06:48:20.000Z</time><ele>757.4</ele></trkpt><trkpt lat="45.965292" lon="10.292203"><time>2025-04-28T06:48:21.000Z</time><ele>757.4</ele></trkpt><trkpt lat="45.965292" lon="10.292198"><time>2025-04-28T06:48:22.000Z</time><ele>757.6</ele></trkpt><trkpt lat="45.965295" lon="10.292196"><time>2025-04-28T06:48:23.000Z</time><ele>758</ele></trkpt><trkpt lat="45.965303" lon="10.292197"><time>2025-04-28T06:48:24.000Z</time><ele>758.2</ele></trkpt><trkpt lat="45.965313" lon="10.292194"><time>2025-04-28T06:48:25.000Z</time><ele>758.2</ele></trkpt><trkpt lat="45.965328" lon="10.29218"><time>2025-04-28T06:48:26.000Z</time><ele>758.6</ele></trkpt><trkpt lat="45.965337" lon="10.292175"><time>2025-04-28T06:48:27.000Z</time><ele>758.8</ele></trkpt><trkpt lat="45.965342" lon="10.292173"><time>2025-04-28T06:48:28.000Z</time><ele>759</ele></trkpt><trkpt lat="45.965343" lon="10.292173"><time>2025-04-28T06:48:29.000Z</time><ele>759</ele></trkpt><trkpt lat="45.965345" lon="10.292172"><time>2025-04-28T06:48:30.000Z</time><ele>759.2</ele></trkpt><trkpt lat="45.965349" lon="10.29216"><time>2025-04-28T06:48:31.000Z</time><ele>759.2</ele></trkpt><trkpt lat="45.965359" lon="10.292153"><time>2025-04-28T06:48:32.000Z</time><ele>759.2</ele></trkpt><trkpt lat="45.965362" lon="10.292147"><time>2025-04-28T06:48:33.000Z</time><ele>759.4</ele></trkpt><trkpt lat="45.965364" lon="10.292131"><time>2025-04-28T06:48:34.000Z</time><ele>759.4</ele></trkpt><trkpt lat="45.965365" lon="10.292129"><time>2025-04-28T06:48:35.000Z</time><ele>759.6</ele></trkpt><trkpt lat="45.965368" lon="10.292126"><time>2025-04-28T06:48:36.000Z</time><ele>759.6</ele></trkpt><trkpt lat="45.965369" lon="10.292121"><time>2025-04-28T06:48:37.000Z</time><ele>759.8</ele></trkpt><trkpt lat="45.965373" lon="10.292115"><time>2025-04-28T06:48:38.000Z</time><ele>760</ele></trkpt><trkpt lat="45.965374" lon="10.292111"><time>2025-04-28T06:48:39.000Z</time><ele>760.2</ele></trkpt><trkpt lat="45.965376" lon="10.292104"><time>2025-04-28T06:48:40.000Z</time><ele>760.2</ele></trkpt><trkpt lat="45.965383" lon="10.292098"><time>2025-04-28T06:48:41.000Z</time><ele>760.4</ele></trkpt><trkpt lat="45.965393" lon="10.292085"><time>2025-04-28T06:48:42.000Z</time><ele>760.6</ele></trkpt><trkpt lat="45.965393" lon="10.292079"><time>2025-04-28T06:48:43.000Z</time><ele>760.8</ele></trkpt><trkpt lat="45.965395" lon="10.292071"><time>2025-04-28T06:48:44.000Z</time><ele>760.8</ele></trkpt><trkpt lat="45.965403" lon="10.292067"><time>2025-04-28T06:48:45.000Z</time><ele>761</ele></trkpt><trkpt lat="45.965408" lon="10.292068"><time>2025-04-28T06:48:46.000Z</time><ele>761.2</ele></trkpt><trkpt lat="45.965413" lon="10.292061"><time>2025-04-28T06:48:47.000Z</time><ele>761.4</ele></trkpt><trkpt lat="45.965413" lon="10.292053"><time>2025-04-28T06:48:48.000Z</time><ele>761.4</ele></trkpt><trkpt lat="45.965418" lon="10.292049"><time>2025-04-28T06:48:49.000Z</time><ele>761.6</ele></trkpt><trkpt lat="45.965424" lon="10.29204"><time>2025-04-28T06:48:50.000Z</time><ele>761.8</ele></trkpt><trkpt lat="45.965432" lon="10.292034"><time>2025-04-28T06:48:51.000Z</time><ele>761.8</ele></trkpt><trkpt lat="45.965447" lon="10.292019"><time>2025-04-28T06:48:52.000Z</time><ele>762</ele></trkpt><trkpt lat="45.965455" lon="10.29201"><time>2025-04-28T06:48:53.000Z</time><ele>762</ele></trkpt><trkpt lat="45.965453" lon="10.292"><time>2025-04-28T06:48:54.000Z</time><ele>762.2</ele></trkpt><trkpt lat="45.965453" lon="10.291999"><time>2025-04-28T06:48:55.000Z</time><ele>762.4</ele></trkpt><trkpt lat="45.965452" lon="10.292004"><time>2025-04-28T06:48:56.000Z</time><ele>762.4</ele></trkpt><trkpt lat="45.965462" lon="10.292001"><time>2025-04-28T06:48:57.000Z</time><ele>762.6</ele></trkpt><trkpt lat="45.965469" lon="10.291997"><time>2025-04-28T06:48:58.000Z</time><ele>762.8</ele></trkpt><trkpt lat="45.965476" lon="10.291982"><time>2025-04-28T06:48:59.000Z</time><ele>763</ele></trkpt><trkpt lat="45.965481" lon="10.291981"><time>2025-04-28T06:49:00.000Z</time><ele>763.2</ele></trkpt><trkpt lat="45.965484" lon="10.29198"><time>2025-04-28T06:49:01.000Z</time><ele>763.4</ele></trkpt><trkpt lat="45.965491" lon="10.291983"><time>2025-04-28T06:49:02.000Z</time><ele>763.8</ele></trkpt><trkpt lat="45.965498" lon="10.291983"><time>2025-04-28T06:49:03.000Z</time><ele>763.8</ele></trkpt><trkpt lat="45.965509" lon="10.291981"><time>2025-04-28T06:49:04.000Z</time><ele>764</ele></trkpt><trkpt lat="45.965521" lon="10.291978"><time>2025-04-28T06:49:05.000Z</time><ele>764.2</ele></trkpt><trkpt lat="45.965536" lon="10.291964"><time>2025-04-28T06:49:06.000Z</time><ele>764.2</ele></trkpt><trkpt lat="45.965563" lon="10.291945"><time>2025-04-28T06:49:07.000Z</time><ele>764.4</ele></trkpt><trkpt lat="45.965585" lon="10.291937"><time>2025-04-28T06:49:08.000Z</time><ele>764.4</ele></trkpt><trkpt lat="45.96559" lon="10.291934"><time>2025-04-28T06:49:09.000Z</time><ele>764.6</ele></trkpt><trkpt lat="45.965571" lon="10.291938"><time>2025-04-28T06:49:10.000Z</time><ele>764.8</ele></trkpt><trkpt lat="45.965572" lon="10.291938"><time>2025-04-28T06:49:11.000Z</time><ele>765</ele></trkpt><trkpt lat="45.965576" lon="10.291938"><time>2025-04-28T06:49:12.000Z</time><ele>765</ele></trkpt><trkpt lat="45.965578" lon="10.29194"><time>2025-04-28T06:49:13.000Z</time><ele>765.2</ele></trkpt><trkpt lat="45.965583" lon="10.291938"><time>2025-04-28T06:49:14.000Z</time><ele>765.2</ele></trkpt><trkpt lat="45.965593" lon="10.29192"><time>2025-04-28T06:49:15.000Z</time><ele>765.4</ele></trkpt><trkpt lat="45.965601" lon="10.291917"><time>2025-04-28T06:49:16.000Z</time><ele>765.8</ele></trkpt><trkpt lat="45.965605" lon="10.291914"><time>2025-04-28T06:49:17.000Z</time><ele>766</ele></trkpt><trkpt lat="45.965608" lon="10.29191"><time>2025-04-28T06:49:18.000Z</time><ele>766.2</ele></trkpt><trkpt lat="45.96561" lon="10.291909"><time>2025-04-28T06:49:19.000Z</time><ele>766.2</ele></trkpt><trkpt lat="45.965616" lon="10.291904"><time>2025-04-28T06:49:20.000Z</time><ele>766.2</ele></trkpt><trkpt lat="45.965626" lon="10.291894"><time>2025-04-28T06:49:21.000Z</time><ele>766.4</ele></trkpt><trkpt lat="45.965634" lon="10.291888"><time>2025-04-28T06:49:22.000Z</time><ele>766.4</ele></trkpt><trkpt lat="45.965642" lon="10.291886"><time>2025-04-28T06:49:23.000Z</time><ele>766.6</ele></trkpt><trkpt lat="45.965652" lon="10.291883"><time>2025-04-28T06:49:24.000Z</time><ele>766.8</ele></trkpt><trkpt lat="45.965656" lon="10.29188"><time>2025-04-28T06:49:25.000Z</time><ele>766.8</ele></trkpt><trkpt lat="45.96566" lon="10.291877"><time>2025-04-28T06:49:26.000Z</time><ele>767</ele></trkpt><trkpt lat="45.965663" lon="10.291873"><time>2025-04-28T06:49:27.000Z</time><ele>767</ele></trkpt><trkpt lat="45.965665" lon="10.291872"><time>2025-04-28T06:49:28.000Z</time><ele>767.2</ele></trkpt><trkpt lat="45.965666" lon="10.29187"><time>2025-04-28T06:49:29.000Z</time><ele>767.4</ele></trkpt><trkpt lat="45.965664" lon="10.291873"><time>2025-04-28T06:49:30.000Z</time><ele>767.4</ele></trkpt><trkpt lat="45.965666" lon="10.291868"><time>2025-04-28T06:49:31.000Z</time><ele>767.6</ele></trkpt><trkpt lat="45.965667" lon="10.291864"><time>2025-04-28T06:49:32.000Z</time><ele>767.6</ele></trkpt><trkpt lat="45.965673" lon="10.291866"><time>2025-04-28T06:49:33.000Z</time><ele>767.8</ele></trkpt><trkpt lat="45.965673" lon="10.291865"><time>2025-04-28T06:49:34.000Z</time><ele>768.2</ele></trkpt><trkpt lat="45.965667" lon="10.29186"><time>2025-04-28T06:49:35.000Z</time><ele>768.4</ele></trkpt><trkpt lat="45.965667" lon="10.291858"><time>2025-04-28T06:49:36.000Z</time><ele>768.6</ele></trkpt><trkpt lat="45.965671" lon="10.291857"><time>2025-04-28T06:49:37.000Z</time><ele>768.8</ele></trkpt><trkpt lat="45.965676" lon="10.291847"><time>2025-04-28T06:49:38.000Z</time><ele>769</ele></trkpt><trkpt lat="45.965682" lon="10.291836"><time>2025-04-28T06:49:39.000Z</time><ele>769.2</ele></trkpt><trkpt lat="45.965683" lon="10.291831"><time>2025-04-28T06:49:40.000Z</time><ele>769.2</ele></trkpt><trkpt lat="45.965689" lon="10.291831"><time>2025-04-28T06:49:41.000Z</time><ele>769.2</ele></trkpt><trkpt lat="45.965696" lon="10.29183"><time>2025-04-28T06:49:42.000Z</time><ele>769.4</ele></trkpt><trkpt lat="45.9657" lon="10.29183"><time>2025-04-28T06:49:43.000Z</time><ele>769.4</ele></trkpt><trkpt lat="45.965706" lon="10.291825"><time>2025-04-28T06:49:44.000Z</time><ele>769.6</ele></trkpt><trkpt lat="45.965714" lon="10.291816"><time>2025-04-28T06:49:45.000Z</time><ele>769.8</ele></trkpt><trkpt lat="45.965717" lon="10.291813"><time>2025-04-28T06:49:46.000Z</time><ele>769.8</ele></trkpt><trkpt lat="45.965726" lon="10.291807"><time>2025-04-28T06:49:47.000Z</time><ele>770</ele></trkpt><trkpt lat="45.965732" lon="10.291805"><time>2025-04-28T06:49:48.000Z</time><ele>770.2</ele></trkpt><trkpt lat="45.965734" lon="10.2918"><time>2025-04-28T06:49:49.000Z</time><ele>770.2</ele></trkpt><trkpt lat="45.96574" lon="10.291796"><time>2025-04-28T06:49:50.000Z</time><ele>770.4</ele></trkpt><trkpt lat="45.965746" lon="10.291794"><time>2025-04-28T06:49:51.000Z</time><ele>770.6</ele></trkpt><trkpt lat="45.965749" lon="10.291793"><time>2025-04-28T06:49:52.000Z</time><ele>770.6</ele></trkpt><trkpt lat="45.965751" lon="10.291788"><time>2025-04-28T06:49:53.000Z</time><ele>770.8</ele></trkpt><trkpt lat="45.965754" lon="10.291787"><time>2025-04-28T06:49:54.000Z</time><ele>771</ele></trkpt><trkpt lat="45.965762" lon="10.291782"><time>2025-04-28T06:49:55.000Z</time><ele>771</ele></trkpt><trkpt lat="45.965769" lon="10.291782"><time>2025-04-28T06:49:56.000Z</time><ele>771.2</ele></trkpt><trkpt lat="45.965776" lon="10.291789"><time>2025-04-28T06:49:57.000Z</time><ele>771.2</ele></trkpt><trkpt lat="45.965786" lon="10.291794"><time>2025-04-28T06:49:58.000Z</time><ele>771.4</ele></trkpt><trkpt lat="45.965794" lon="10.29179"><time>2025-04-28T06:49:59.000Z</time><ele>771.6</ele></trkpt><trkpt lat="45.965805" lon="10.291773"><time>2025-04-28T06:50:00.000Z</time><ele>772</ele></trkpt><trkpt lat="45.965813" lon="10.291754"><time>2025-04-28T06:50:01.000Z</time><ele>772.2</ele></trkpt><trkpt lat="45.965818" lon="10.291736"><time>2025-04-28T06:50:02.000Z</time><ele>772.4</ele></trkpt><trkpt lat="45.96583" lon="10.291724"><time>2025-04-28T06:50:03.000Z</time><ele>772.4</ele></trkpt><trkpt lat="45.965833" lon="10.291723"><time>2025-04-28T06:50:04.000Z</time><ele>772.6</ele></trkpt><trkpt lat="45.965836" lon="10.291721"><time>2025-04-28T06:50:05.000Z</time><ele>772.6</ele></trkpt><trkpt lat="45.96584" lon="10.291712"><time>2025-04-28T06:50:06.000Z</time><ele>772.6</ele></trkpt><trkpt lat="45.965844" lon="10.291709"><time>2025-04-28T06:50:07.000Z</time><ele>772.6</ele></trkpt><trkpt lat="45.965846" lon="10.291702"><time>2025-04-28T06:50:08.000Z</time><ele>772.8</ele></trkpt><trkpt lat="45.96585" lon="10.291701"><time>2025-04-28T06:50:09.000Z</time><ele>773</ele></trkpt><trkpt lat="45.965866" lon="10.291695"><time>2025-04-28T06:50:10.000Z</time><ele>773</ele></trkpt><trkpt lat="45.965877" lon="10.291689"><time>2025-04-28T06:50:11.000Z</time><ele>773.2</ele></trkpt><trkpt lat="45.965882" lon="10.291683"><time>2025-04-28T06:50:12.000Z</time><ele>773.4</ele></trkpt><trkpt lat="45.965896" lon="10.291663"><time>2025-04-28T06:50:13.000Z</time><ele>773.4</ele></trkpt><trkpt lat="45.965901" lon="10.291658"><time>2025-04-28T06:50:14.000Z</time><ele>773.4</ele></trkpt><trkpt lat="45.965908" lon="10.291656"><time>2025-04-28T06:50:15.000Z</time><ele>773.6</ele></trkpt><trkpt lat="45.965917" lon="10.291654"><time>2025-04-28T06:50:16.000Z</time><ele>773.6</ele></trkpt><trkpt lat="45.965925" lon="10.291662"><time>2025-04-28T06:50:17.000Z</time><ele>774</ele></trkpt><trkpt lat="45.96593" lon="10.291659"><time>2025-04-28T06:50:18.000Z</time><ele>774.2</ele></trkpt><trkpt lat="45.965933" lon="10.291656"><time>2025-04-28T06:50:19.000Z</time><ele>774.4</ele></trkpt><trkpt lat="45.965934" lon="10.291655"><time>2025-04-28T06:50:20.000Z</time><ele>774.4</ele></trkpt><trkpt lat="45.965939" lon="10.291658"><time>2025-04-28T06:50:21.000Z</time><ele>774.6</ele></trkpt><trkpt lat="45.965946" lon="10.291667"><time>2025-04-28T06:50:22.000Z</time><ele>774.8</ele></trkpt><trkpt lat="45.965952" lon="10.29168"><time>2025-04-28T06:50:23.000Z</time><ele>775</ele></trkpt><trkpt lat="45.965964" lon="10.291681"><time>2025-04-28T06:50:24.000Z</time><ele>775</ele></trkpt><trkpt lat="45.965966" lon="10.291679"><time>2025-04-28T06:50:25.000Z</time><ele>775.2</ele></trkpt><trkpt lat="45.965969" lon="10.291681"><time>2025-04-28T06:50:26.000Z</time><ele>775.4</ele></trkpt><trkpt lat="45.965963" lon="10.291684"><time>2025-04-28T06:50:27.000Z</time><ele>775.6</ele></trkpt><trkpt lat="45.965961" lon="10.291685"><time>2025-04-28T06:50:28.000Z</time><ele>775.8</ele></trkpt><trkpt lat="45.965962" lon="10.291687"><time>2025-04-28T06:50:29.000Z</time><ele>776</ele></trkpt><trkpt lat="45.965962" lon="10.291684"><time>2025-04-28T06:50:30.000Z</time><ele>776.2</ele></trkpt><trkpt lat="45.965962" lon="10.291683"><time>2025-04-28T06:50:31.000Z</time><ele>776.4</ele></trkpt><trkpt lat="45.965965" lon="10.291675"><time>2025-04-28T06:50:32.000Z</time><ele>776.6</ele></trkpt><trkpt lat="45.965963" lon="10.291667"><time>2025-04-28T06:50:33.000Z</time><ele>776.8</ele></trkpt><trkpt lat="45.965968" lon="10.291654"><time>2025-04-28T06:50:34.000Z</time><ele>776.8</ele></trkpt><trkpt lat="45.965976" lon="10.291648"><time>2025-04-28T06:50:35.000Z</time><ele>777</ele></trkpt><trkpt lat="45.965989" lon="10.291646"><time>2025-04-28T06:50:36.000Z</time><ele>777</ele></trkpt><trkpt lat="45.965996" lon="10.291652"><time>2025-04-28T06:50:37.000Z</time><ele>777.2</ele></trkpt><trkpt lat="45.966007" lon="10.291641"><time>2025-04-28T06:50:38.000Z</time><ele>777.4</ele></trkpt><trkpt lat="45.96602" lon="10.291625"><time>2025-04-28T06:50:39.000Z</time><ele>777.4</ele></trkpt><trkpt lat="45.966031" lon="10.291605"><time>2025-04-28T06:50:40.000Z</time><ele>777.6</ele></trkpt><trkpt lat="45.966046" lon="10.291591"><time>2025-04-28T06:50:41.000Z</time><ele>777.8</ele></trkpt><trkpt lat="45.966059" lon="10.29158"><time>2025-04-28T06:50:42.000Z</time><ele>777.8</ele></trkpt><trkpt lat="45.966074" lon="10.291567"><time>2025-04-28T06:50:43.000Z</time><ele>778</ele></trkpt><trkpt lat="45.966086" lon="10.291559"><time>2025-04-28T06:50:44.000Z</time><ele>778.2</ele></trkpt><trkpt lat="45.966097" lon="10.291551"><time>2025-04-28T06:50:45.000Z</time><ele>778.4</ele></trkpt><trkpt lat="45.966108" lon="10.291549"><time>2025-04-28T06:50:46.000Z</time><ele>778.6</ele></trkpt><trkpt lat="45.966117" lon="10.291548"><time>2025-04-28T06:50:47.000Z</time><ele>778.6</ele></trkpt><trkpt lat="45.96612" lon="10.291543"><time>2025-04-28T06:50:48.000Z</time><ele>778.8</ele></trkpt><trkpt lat="45.966123" lon="10.291536"><time>2025-04-28T06:50:49.000Z</time><ele>779</ele></trkpt><trkpt lat="45.96613" lon="10.291526"><time>2025-04-28T06:50:50.000Z</time><ele>779.2</ele></trkpt><trkpt lat="45.966138" lon="10.291514"><time>2025-04-28T06:50:51.000Z</time><ele>779.4</ele></trkpt><trkpt lat="45.966153" lon="10.2915"><time>2025-04-28T06:50:52.000Z</time><ele>779.4</ele></trkpt><trkpt lat="45.96616" lon="10.291499"><time>2025-04-28T06:50:53.000Z</time><ele>779.6</ele></trkpt><trkpt lat="45.966167" lon="10.291494"><time>2025-04-28T06:50:54.000Z</time><ele>779.8</ele></trkpt><trkpt lat="45.966173" lon="10.291493"><time>2025-04-28T06:50:55.000Z</time><ele>780</ele></trkpt><trkpt lat="45.966181" lon="10.291493"><time>2025-04-28T06:50:56.000Z</time><ele>780.2</ele></trkpt><trkpt lat="45.966185" lon="10.291494"><time>2025-04-28T06:50:57.000Z</time><ele>780.2</ele></trkpt><trkpt lat="45.966193" lon="10.291494"><time>2025-04-28T06:50:58.000Z</time><ele>780.2</ele></trkpt><trkpt lat="45.966206" lon="10.291491"><time>2025-04-28T06:50:59.000Z</time><ele>780.4</ele></trkpt><trkpt lat="45.966221" lon="10.291488"><time>2025-04-28T06:51:00.000Z</time><ele>780.4</ele></trkpt><trkpt lat="45.966232" lon="10.291489"><time>2025-04-28T06:51:01.000Z</time><ele>780.6</ele></trkpt><trkpt lat="45.966246" lon="10.291488"><time>2025-04-28T06:51:02.000Z</time><ele>780.8</ele></trkpt><trkpt lat="45.966257" lon="10.291485"><time>2025-04-28T06:51:03.000Z</time><ele>780.8</ele></trkpt><trkpt lat="45.966267" lon="10.291481"><time>2025-04-28T06:51:04.000Z</time><ele>781</ele></trkpt><trkpt lat="45.966275" lon="10.291478"><time>2025-04-28T06:51:05.000Z</time><ele>781</ele></trkpt><trkpt lat="45.966281" lon="10.291476"><time>2025-04-28T06:51:06.000Z</time><ele>781</ele></trkpt><trkpt lat="45.966295" lon="10.291459"><time>2025-04-28T06:51:07.000Z</time><ele>781.2</ele></trkpt><trkpt lat="45.966302" lon="10.291452"><time>2025-04-28T06:51:08.000Z</time><ele>781.4</ele></trkpt><trkpt lat="45.96631" lon="10.291443"><time>2025-04-28T06:51:09.000Z</time><ele>781.6</ele></trkpt><trkpt lat="45.966312" lon="10.291441"><time>2025-04-28T06:51:10.000Z</time><ele>781.6</ele></trkpt><trkpt lat="45.966313" lon="10.291437"><time>2025-04-28T06:51:11.000Z</time><ele>781.8</ele></trkpt><trkpt lat="45.966319" lon="10.291432"><time>2025-04-28T06:51:12.000Z</time><ele>782</ele></trkpt><trkpt lat="45.96633" lon="10.291426"><time>2025-04-28T06:51:13.000Z</time><ele>782</ele></trkpt><trkpt lat="45.966341" lon="10.291423"><time>2025-04-28T06:51:14.000Z</time><ele>782</ele></trkpt><trkpt lat="45.966345" lon="10.291425"><time>2025-04-28T06:51:15.000Z</time><ele>782.2</ele></trkpt><trkpt lat="45.966349" lon="10.291429"><time>2025-04-28T06:51:16.000Z</time><ele>782.2</ele></trkpt><trkpt lat="45.966361" lon="10.291423"><time>2025-04-28T06:51:17.000Z</time><ele>782.2</ele></trkpt><trkpt lat="45.96637" lon="10.291406"><time>2025-04-28T06:51:18.000Z</time><ele>782.4</ele></trkpt><trkpt lat="45.966372" lon="10.291384"><time>2025-04-28T06:51:19.000Z</time><ele>782.4</ele></trkpt><trkpt lat="45.966374" lon="10.291376"><time>2025-04-28T06:51:20.000Z</time><ele>782.6</ele></trkpt><trkpt lat="45.966374" lon="10.291373"><time>2025-04-28T06:51:21.000Z</time><ele>782.6</ele></trkpt><trkpt lat="45.966379" lon="10.291366"><time>2025-04-28T06:51:22.000Z</time><ele>782.8</ele></trkpt><trkpt lat="45.966394" lon="10.291356"><time>2025-04-28T06:51:23.000Z</time><ele>782.8</ele></trkpt><trkpt lat="45.966404" lon="10.291344"><time>2025-04-28T06:51:24.000Z</time><ele>783</ele></trkpt><trkpt lat="45.966414" lon="10.29133"><time>2025-04-28T06:51:25.000Z</time><ele>783.2</ele></trkpt><trkpt lat="45.966423" lon="10.291316"><time>2025-04-28T06:51:26.000Z</time><ele>783.2</ele></trkpt><trkpt lat="45.966427" lon="10.291322"><time>2025-04-28T06:51:27.000Z</time><ele>783.4</ele></trkpt><trkpt lat="45.966435" lon="10.291316"><time>2025-04-28T06:51:28.000Z</time><ele>783.4</ele></trkpt><trkpt lat="45.966444" lon="10.291309"><time>2025-04-28T06:51:29.000Z</time><ele>783.6</ele></trkpt><trkpt lat="45.966457" lon="10.291297"><time>2025-04-28T06:51:30.000Z</time><ele>783.8</ele></trkpt><trkpt lat="45.966465" lon="10.291292"><time>2025-04-28T06:51:31.000Z</time><ele>783.8</ele></trkpt><trkpt lat="45.966477" lon="10.291284"><time>2025-04-28T06:51:32.000Z</time><ele>784.2</ele></trkpt><trkpt lat="45.966485" lon="10.291283"><time>2025-04-28T06:51:33.000Z</time><ele>784.4</ele></trkpt><trkpt lat="45.966488" lon="10.291279"><time>2025-04-28T06:51:34.000Z</time><ele>784.4</ele></trkpt><trkpt lat="45.966496" lon="10.291273"><time>2025-04-28T06:51:35.000Z</time><ele>784.6</ele></trkpt><trkpt lat="45.966504" lon="10.291266"><time>2025-04-28T06:51:36.000Z</time><ele>784.6</ele></trkpt><trkpt lat="45.966512" lon="10.291258"><time>2025-04-28T06:51:37.000Z</time><ele>784.8</ele></trkpt><trkpt lat="45.96652" lon="10.291249"><time>2025-04-28T06:51:38.000Z</time><ele>784.8</ele></trkpt><trkpt lat="45.966531" lon="10.291233"><time>2025-04-28T06:51:39.000Z</time><ele>785.2</ele></trkpt><trkpt lat="45.966535" lon="10.291218"><time>2025-04-28T06:51:40.000Z</time><ele>785.4</ele></trkpt><trkpt lat="45.966535" lon="10.291211"><time>2025-04-28T06:51:41.000Z</time><ele>785.4</ele></trkpt><trkpt lat="45.966537" lon="10.291205"><time>2025-04-28T06:51:42.000Z</time><ele>785.6</ele></trkpt><trkpt lat="45.966539" lon="10.291201"><time>2025-04-28T06:51:43.000Z</time><ele>785.8</ele></trkpt><trkpt lat="45.966541" lon="10.291198"><time>2025-04-28T06:51:44.000Z</time><ele>786</ele></trkpt><trkpt lat="45.966543" lon="10.291195"><time>2025-04-28T06:51:45.000Z</time><ele>786</ele></trkpt><trkpt lat="45.966548" lon="10.291182"><time>2025-04-28T06:51:46.000Z</time><ele>786</ele></trkpt><trkpt lat="45.966547" lon="10.291177"><time>2025-04-28T06:51:47.000Z</time><ele>786.2</ele></trkpt><trkpt lat="45.966569" lon="10.291157"><time>2025-04-28T06:51:48.000Z</time><ele>786.4</ele></trkpt><trkpt lat="45.966579" lon="10.291152"><time>2025-04-28T06:51:49.000Z</time><ele>786.6</ele></trkpt><trkpt lat="45.966583" lon="10.291155"><time>2025-04-28T06:51:50.000Z</time><ele>786.6</ele></trkpt><trkpt lat="45.966587" lon="10.291152"><time>2025-04-28T06:51:51.000Z</time><ele>786.6</ele></trkpt><trkpt lat="45.966588" lon="10.291153"><time>2025-04-28T06:51:52.000Z</time><ele>786.8</ele></trkpt><trkpt lat="45.966588" lon="10.291149"><time>2025-04-28T06:51:53.000Z</time><ele>786.8</ele></trkpt><trkpt lat="45.966592" lon="10.291148"><time>2025-04-28T06:51:54.000Z</time><ele>787</ele></trkpt><trkpt lat="45.966605" lon="10.291144"><time>2025-04-28T06:51:55.000Z</time><ele>787</ele></trkpt><trkpt lat="45.966612" lon="10.291141"><time>2025-04-28T06:51:56.000Z</time><ele>787.2</ele></trkpt><trkpt lat="45.96662" lon="10.291143"><time>2025-04-28T06:51:57.000Z</time><ele>787.4</ele></trkpt><trkpt lat="45.966621" lon="10.291144"><time>2025-04-28T06:51:58.000Z</time><ele>787.6</ele></trkpt><trkpt lat="45.966622" lon="10.291148"><time>2025-04-28T06:51:59.000Z</time><ele>787.8</ele></trkpt><trkpt lat="45.966629" lon="10.291146"><time>2025-04-28T06:52:00.000Z</time><ele>788</ele></trkpt><trkpt lat="45.966638" lon="10.291145"><time>2025-04-28T06:52:01.000Z</time><ele>788.2</ele></trkpt><trkpt lat="45.966646" lon="10.291147"><time>2025-04-28T06:52:02.000Z</time><ele>788.4</ele></trkpt><trkpt lat="45.966653" lon="10.291147"><time>2025-04-28T06:52:03.000Z</time><ele>788.6</ele></trkpt><trkpt lat="45.96666" lon="10.291141"><time>2025-04-28T06:52:04.000Z</time><ele>788.8</ele></trkpt><trkpt lat="45.966663" lon="10.291138"><time>2025-04-28T06:52:05.000Z</time><ele>788.8</ele></trkpt><trkpt lat="45.96667" lon="10.291144"><time>2025-04-28T06:52:06.000Z</time><ele>789</ele></trkpt><trkpt lat="45.966678" lon="10.291143"><time>2025-04-28T06:52:07.000Z</time><ele>789.2</ele></trkpt><trkpt lat="45.966685" lon="10.291142"><time>2025-04-28T06:52:08.000Z</time><ele>789.2</ele></trkpt><trkpt lat="45.966689" lon="10.291135"><time>2025-04-28T06:52:09.000Z</time><ele>789.4</ele></trkpt><trkpt lat="45.966693" lon="10.29113"><time>2025-04-28T06:52:10.000Z</time><ele>789.6</ele></trkpt><trkpt lat="45.966691" lon="10.29113"><time>2025-04-28T06:52:11.000Z</time><ele>789.6</ele></trkpt><trkpt lat="45.966692" lon="10.29113"><time>2025-04-28T06:52:12.000Z</time><ele>789.8</ele></trkpt><trkpt lat="45.966696" lon="10.291131"><time>2025-04-28T06:52:13.000Z</time><ele>789.8</ele></trkpt><trkpt lat="45.966692" lon="10.291137"><time>2025-04-28T06:52:14.000Z</time><ele>789.8</ele></trkpt><trkpt lat="45.966683" lon="10.291147"><time>2025-04-28T06:52:15.000Z</time><ele>790</ele></trkpt><trkpt lat="45.96668" lon="10.291152"><time>2025-04-28T06:52:16.000Z</time><ele>790</ele></trkpt><trkpt lat="45.96668" lon="10.291156"><time>2025-04-28T06:52:17.000Z</time><ele>790</ele></trkpt><trkpt lat="45.966685" lon="10.291161"><time>2025-04-28T06:52:18.000Z</time><ele>790</ele></trkpt><trkpt lat="45.966692" lon="10.291161"><time>2025-04-28T06:52:19.000Z</time><ele>790.2</ele></trkpt><trkpt lat="45.966707" lon="10.291153"><time>2025-04-28T06:52:20.000Z</time><ele>790.2</ele></trkpt><trkpt lat="45.966718" lon="10.291152"><time>2025-04-28T06:52:21.000Z</time><ele>790.4</ele></trkpt><trkpt lat="45.966726" lon="10.291153"><time>2025-04-28T06:52:22.000Z</time><ele>790.6</ele></trkpt><trkpt lat="45.966734" lon="10.291152"><time>2025-04-28T06:52:23.000Z</time><ele>791</ele></trkpt><trkpt lat="45.966746" lon="10.291142"><time>2025-04-28T06:52:24.000Z</time><ele>791</ele></trkpt><trkpt lat="45.966751" lon="10.29114"><time>2025-04-28T06:52:25.000Z</time><ele>791.2</ele></trkpt><trkpt lat="45.966759" lon="10.291137"><time>2025-04-28T06:52:26.000Z</time><ele>791.2</ele></trkpt><trkpt lat="45.966768" lon="10.291133"><time>2025-04-28T06:52:27.000Z</time><ele>791.4</ele></trkpt><trkpt lat="45.966772" lon="10.291135"><time>2025-04-28T06:52:28.000Z</time><ele>791.4</ele></trkpt><trkpt lat="45.96678" lon="10.291129"><time>2025-04-28T06:52:29.000Z</time><ele>791.6</ele></trkpt><trkpt lat="45.966786" lon="10.291127"><time>2025-04-28T06:52:30.000Z</time><ele>791.8</ele></trkpt><trkpt lat="45.966792" lon="10.291129"><time>2025-04-28T06:52:31.000Z</time><ele>792.2</ele></trkpt><trkpt lat="45.966794" lon="10.291127"><time>2025-04-28T06:52:32.000Z</time><ele>792.2</ele></trkpt><trkpt lat="45.9668" lon="10.291116"><time>2025-04-28T06:52:33.000Z</time><ele>792.4</ele></trkpt><trkpt lat="45.966809" lon="10.291104"><time>2025-04-28T06:52:34.000Z</time><ele>792.6</ele></trkpt><trkpt lat="45.966818" lon="10.291092"><time>2025-04-28T06:52:35.000Z</time><ele>792.8</ele></trkpt><trkpt lat="45.966821" lon="10.29109"><time>2025-04-28T06:52:36.000Z</time><ele>793</ele></trkpt><trkpt lat="45.966835" lon="10.291091"><time>2025-04-28T06:52:37.000Z</time><ele>793.2</ele></trkpt><trkpt lat="45.966841" lon="10.291094"><time>2025-04-28T06:52:38.000Z</time><ele>793.2</ele></trkpt><trkpt lat="45.966847" lon="10.291093"><time>2025-04-28T06:52:39.000Z</time><ele>793.4</ele></trkpt><trkpt lat="45.966851" lon="10.291091"><time>2025-04-28T06:52:40.000Z</time><ele>793.6</ele></trkpt><trkpt lat="45.966859" lon="10.291085"><time>2025-04-28T06:52:41.000Z</time><ele>794</ele></trkpt><trkpt lat="45.966863" lon="10.291085"><time>2025-04-28T06:52:42.000Z</time><ele>794</ele></trkpt><trkpt lat="45.966864" lon="10.291081"><time>2025-04-28T06:52:43.000Z</time><ele>794.2</ele></trkpt><trkpt lat="45.966868" lon="10.291082"><time>2025-04-28T06:52:44.000Z</time><ele>794.2</ele></trkpt><trkpt lat="45.96687" lon="10.29108"><time>2025-04-28T06:52:45.000Z</time><ele>794.4</ele></trkpt><trkpt lat="45.966876" lon="10.291077"><time>2025-04-28T06:52:46.000Z</time><ele>794.6</ele></trkpt><trkpt lat="45.966877" lon="10.291074"><time>2025-04-28T06:52:47.000Z</time><ele>795</ele></trkpt><trkpt lat="45.966879" lon="10.291072"><time>2025-04-28T06:52:48.000Z</time><ele>795</ele></trkpt><trkpt lat="45.966881" lon="10.29107"><time>2025-04-28T06:52:49.000Z</time><ele>795.2</ele></trkpt><trkpt lat="45.966889" lon="10.291062"><time>2025-04-28T06:52:50.000Z</time><ele>795.6</ele></trkpt><trkpt lat="45.966897" lon="10.291056"><time>2025-04-28T06:52:51.000Z</time><ele>795.8</ele></trkpt><trkpt lat="45.966894" lon="10.291057"><time>2025-04-28T06:52:52.000Z</time><ele>796</ele></trkpt><trkpt lat="45.966898" lon="10.291055"><time>2025-04-28T06:52:53.000Z</time><ele>796</ele></trkpt><trkpt lat="45.966897" lon="10.291058"><time>2025-04-28T06:52:54.000Z</time><ele>796.2</ele></trkpt><trkpt lat="45.966898" lon="10.291052"><time>2025-04-28T06:52:55.000Z</time><ele>796.4</ele></trkpt><trkpt lat="45.9669" lon="10.291052"><time>2025-04-28T06:52:56.000Z</time><ele>796.4</ele></trkpt><trkpt lat="45.966894" lon="10.291049"><time>2025-04-28T06:52:57.000Z</time><ele>796.8</ele></trkpt><trkpt lat="45.966891" lon="10.291053"><time>2025-04-28T06:52:58.000Z</time><ele>797</ele></trkpt><trkpt lat="45.966887" lon="10.291054"><time>2025-04-28T06:52:59.000Z</time><ele>797.2</ele></trkpt><trkpt lat="45.966893" lon="10.291047"><time>2025-04-28T06:53:00.000Z</time><ele>797.2</ele></trkpt><trkpt lat="45.966895" lon="10.291047"><time>2025-04-28T06:53:01.000Z</time><ele>797.6</ele></trkpt><trkpt lat="45.9669" lon="10.291039"><time>2025-04-28T06:53:02.000Z</time><ele>797.8</ele></trkpt><trkpt lat="45.966902" lon="10.291038"><time>2025-04-28T06:53:03.000Z</time><ele>798</ele></trkpt><trkpt lat="45.966905" lon="10.291038"><time>2025-04-28T06:53:04.000Z</time><ele>798</ele></trkpt><trkpt lat="45.966919" lon="10.291033"><time>2025-04-28T06:53:05.000Z</time><ele>798.2</ele></trkpt><trkpt lat="45.966921" lon="10.291032"><time>2025-04-28T06:53:06.000Z</time><ele>798.2</ele></trkpt><trkpt lat="45.966921" lon="10.291033"><time>2025-04-28T06:53:07.000Z</time><ele>798.6</ele></trkpt><trkpt lat="45.96693" lon="10.291023"><time>2025-04-28T06:53:08.000Z</time><ele>798.8</ele></trkpt><trkpt lat="45.96693" lon="10.291024"><time>2025-04-28T06:53:09.000Z</time><ele>799</ele></trkpt><trkpt lat="45.96693" lon="10.291025"><time>2025-04-28T06:53:10.000Z</time><ele>799</ele></trkpt><trkpt lat="45.966935" lon="10.291016"><time>2025-04-28T06:53:11.000Z</time><ele>799.4</ele></trkpt><trkpt lat="45.966934" lon="10.291012"><time>2025-04-28T06:53:12.000Z</time><ele>799.6</ele></trkpt><trkpt lat="45.966932" lon="10.291011"><time>2025-04-28T06:53:13.000Z</time><ele>799.8</ele></trkpt><trkpt lat="45.966932" lon="10.291011"><time>2025-04-28T06:53:14.000Z</time><ele>800</ele></trkpt><trkpt lat="45.966938" lon="10.291007"><time>2025-04-28T06:53:15.000Z</time><ele>800</ele></trkpt><trkpt lat="45.966943" lon="10.291006"><time>2025-04-28T06:53:16.000Z</time><ele>800.2</ele></trkpt><trkpt lat="45.966943" lon="10.291005"><time>2025-04-28T06:53:17.000Z</time><ele>800.4</ele></trkpt><trkpt lat="45.966943" lon="10.291002"><time>2025-04-28T06:53:18.000Z</time><ele>800.6</ele></trkpt><trkpt lat="45.966946" lon="10.290993"><time>2025-04-28T06:53:19.000Z</time><ele>801</ele></trkpt><trkpt lat="45.966948" lon="10.290991"><time>2025-04-28T06:53:20.000Z</time><ele>801</ele></trkpt><trkpt lat="45.966949" lon="10.290989"><time>2025-04-28T06:53:21.000Z</time><ele>801.2</ele></trkpt><trkpt lat="45.966948" lon="10.290983"><time>2025-04-28T06:53:22.000Z</time><ele>801.2</ele></trkpt><trkpt lat="45.96695" lon="10.290979"><time>2025-04-28T06:53:23.000Z</time><ele>801.2</ele></trkpt><trkpt lat="45.966953" lon="10.290976"><time>2025-04-28T06:53:24.000Z</time><ele>801.4</ele></trkpt><trkpt lat="45.966951" lon="10.290975"><time>2025-04-28T06:53:25.000Z</time><ele>801.6</ele></trkpt><trkpt lat="45.966952" lon="10.290971"><time>2025-04-28T06:53:26.000Z</time><ele>801.8</ele></trkpt><trkpt lat="45.966961" lon="10.29096"><time>2025-04-28T06:53:27.000Z</time><ele>802</ele></trkpt><trkpt lat="45.966964" lon="10.29095"><time>2025-04-28T06:53:28.000Z</time><ele>802</ele></trkpt><trkpt lat="45.966968" lon="10.290936"><time>2025-04-28T06:53:29.000Z</time><ele>802.2</ele></trkpt><trkpt lat="45.966979" lon="10.290927"><time>2025-04-28T06:53:30.000Z</time><ele>802.4</ele></trkpt><trkpt lat="45.966981" lon="10.290923"><time>2025-04-28T06:53:31.000Z</time><ele>802.6</ele></trkpt><trkpt lat="45.966991" lon="10.29092"><time>2025-04-28T06:53:32.000Z</time><ele>802.8</ele></trkpt><trkpt lat="45.966997" lon="10.290915"><time>2025-04-28T06:53:33.000Z</time><ele>803</ele></trkpt><trkpt lat="45.967003" lon="10.290913"><time>2025-04-28T06:53:34.000Z</time><ele>803.2</ele></trkpt><trkpt lat="45.967005" lon="10.290909"><time>2025-04-28T06:53:35.000Z</time><ele>803.2</ele></trkpt><trkpt lat="45.967007" lon="10.290905"><time>2025-04-28T06:53:36.000Z</time><ele>803.4</ele></trkpt><trkpt lat="45.967007" lon="10.290901"><time>2025-04-28T06:53:37.000Z</time><ele>803.6</ele></trkpt><trkpt lat="45.967007" lon="10.290897"><time>2025-04-28T06:53:38.000Z</time><ele>803.6</ele></trkpt><trkpt lat="45.967018" lon="10.290891"><time>2025-04-28T06:53:39.000Z</time><ele>803.6</ele></trkpt><trkpt lat="45.967025" lon="10.290884"><time>2025-04-28T06:53:40.000Z</time><ele>803.8</ele></trkpt><trkpt lat="45.967036" lon="10.290879"><time>2025-04-28T06:53:41.000Z</time><ele>804</ele></trkpt><trkpt lat="45.967049" lon="10.290872"><time>2025-04-28T06:53:42.000Z</time><ele>804.2</ele></trkpt><trkpt lat="45.967053" lon="10.290864"><time>2025-04-28T06:53:43.000Z</time><ele>804.4</ele></trkpt><trkpt lat="45.967058" lon="10.290849"><time>2025-04-28T06:53:44.000Z</time><ele>804.4</ele></trkpt><trkpt lat="45.967065" lon="10.290832"><time>2025-04-28T06:53:45.000Z</time><ele>804.6</ele></trkpt><trkpt lat="45.967079" lon="10.290815"><time>2025-04-28T06:53:46.000Z</time><ele>804.8</ele></trkpt><trkpt lat="45.967088" lon="10.290804"><time>2025-04-28T06:53:47.000Z</time><ele>805</ele></trkpt><trkpt lat="45.967097" lon="10.290796"><time>2025-04-28T06:53:48.000Z</time><ele>805</ele></trkpt><trkpt lat="45.967106" lon="10.290786"><time>2025-04-28T06:53:49.000Z</time><ele>805.2</ele></trkpt><trkpt lat="45.967119" lon="10.290774"><time>2025-04-28T06:53:50.000Z</time><ele>805.4</ele></trkpt><trkpt lat="45.967131" lon="10.290758"><time>2025-04-28T06:53:51.000Z</time><ele>805.4</ele></trkpt><trkpt lat="45.967131" lon="10.290744"><time>2025-04-28T06:53:52.000Z</time><ele>805.6</ele></trkpt><trkpt lat="45.967131" lon="10.290738"><time>2025-04-28T06:53:53.000Z</time><ele>805.8</ele></trkpt><trkpt lat="45.967132" lon="10.290732"><time>2025-04-28T06:53:54.000Z</time><ele>806</ele></trkpt><trkpt lat="45.967137" lon="10.290721"><time>2025-04-28T06:53:55.000Z</time><ele>806.2</ele></trkpt><trkpt lat="45.967142" lon="10.290705"><time>2025-04-28T06:53:56.000Z</time><ele>806.2</ele></trkpt><trkpt lat="45.967146" lon="10.29069"><time>2025-04-28T06:53:57.000Z</time><ele>806.4</ele></trkpt><trkpt lat="45.967143" lon="10.290677"><time>2025-04-28T06:53:58.000Z</time><ele>806.6</ele></trkpt><trkpt lat="45.967132" lon="10.290681"><time>2025-04-28T06:53:59.000Z</time><ele>806.8</ele></trkpt><trkpt lat="45.967126" lon="10.290679"><time>2025-04-28T06:54:00.000Z</time><ele>806.8</ele></trkpt><trkpt lat="45.967126" lon="10.290673"><time>2025-04-28T06:54:01.000Z</time><ele>806.8</ele></trkpt><trkpt lat="45.967129" lon="10.29066"><time>2025-04-28T06:54:02.000Z</time><ele>807</ele></trkpt><trkpt lat="45.967125" lon="10.290646"><time>2025-04-28T06:54:03.000Z</time><ele>807.2</ele></trkpt><trkpt lat="45.967134" lon="10.290625"><time>2025-04-28T06:54:04.000Z</time><ele>807.2</ele></trkpt><trkpt lat="45.96714" lon="10.290597"><time>2025-04-28T06:54:05.000Z</time><ele>807.6</ele></trkpt><trkpt lat="45.96714" lon="10.290584"><time>2025-04-28T06:54:06.000Z</time><ele>807.8</ele></trkpt><trkpt lat="45.967132" lon="10.290566"><time>2025-04-28T06:54:07.000Z</time><ele>808</ele></trkpt><trkpt lat="45.967113" lon="10.290546"><time>2025-04-28T06:54:08.000Z</time><ele>808.2</ele></trkpt><trkpt lat="45.967113" lon="10.290535"><time>2025-04-28T06:54:09.000Z</time><ele>808.2</ele></trkpt><trkpt lat="45.967115" lon="10.290529"><time>2025-04-28T06:54:10.000Z</time><ele>808.2</ele></trkpt><trkpt lat="45.967116" lon="10.290523"><time>2025-04-28T06:54:11.000Z</time><ele>808.4</ele></trkpt><trkpt lat="45.967116" lon="10.29052"><time>2025-04-28T06:54:12.000Z</time><ele>808.8</ele></trkpt><trkpt lat="45.967116" lon="10.290516"><time>2025-04-28T06:54:13.000Z</time><ele>809</ele></trkpt><trkpt lat="45.967116" lon="10.290513"><time>2025-04-28T06:54:14.000Z</time><ele>809.2</ele></trkpt><trkpt lat="45.967117" lon="10.290511"><time>2025-04-28T06:54:15.000Z</time><ele>809.2</ele></trkpt><trkpt lat="45.967121" lon="10.290502"><time>2025-04-28T06:54:16.000Z</time><ele>809.2</ele></trkpt><trkpt lat="45.967119" lon="10.290494"><time>2025-04-28T06:54:17.000Z</time><ele>809.4</ele></trkpt><trkpt lat="45.967129" lon="10.290481"><time>2025-04-28T06:54:18.000Z</time><ele>809.4</ele></trkpt><trkpt lat="45.967149" lon="10.290474"><time>2025-04-28T06:54:19.000Z</time><ele>809.6</ele></trkpt><trkpt lat="45.967168" lon="10.290465"><time>2025-04-28T06:54:20.000Z</time><ele>809.6</ele></trkpt><trkpt lat="45.967197" lon="10.290457"><time>2025-04-28T06:54:21.000Z</time><ele>809.8</ele></trkpt><trkpt lat="45.967217" lon="10.290456"><time>2025-04-28T06:54:22.000Z</time><ele>810</ele></trkpt><trkpt lat="45.967215" lon="10.290452"><time>2025-04-28T06:54:23.000Z</time><ele>810</ele></trkpt><trkpt lat="45.967215" lon="10.290451"><time>2025-04-28T06:54:24.000Z</time><ele>810.2</ele></trkpt><trkpt lat="45.967204" lon="10.290445"><time>2025-04-28T06:54:25.000Z</time><ele>810.4</ele></trkpt><trkpt lat="45.967193" lon="10.290437"><time>2025-04-28T06:54:26.000Z</time><ele>810.6</ele></trkpt><trkpt lat="45.967197" lon="10.290433"><time>2025-04-28T06:54:27.000Z</time><ele>810.8</ele></trkpt><trkpt lat="45.967207" lon="10.290435"><time>2025-04-28T06:54:28.000Z</time><ele>811</ele></trkpt><trkpt lat="45.967216" lon="10.290437"><time>2025-04-28T06:54:29.000Z</time><ele>811</ele></trkpt><trkpt lat="45.967226" lon="10.290435"><time>2025-04-28T06:54:30.000Z</time><ele>811</ele></trkpt><trkpt lat="45.967227" lon="10.290436"><time>2025-04-28T06:54:31.000Z</time><ele>811.2</ele></trkpt><trkpt lat="45.967219" lon="10.290427"><time>2025-04-28T06:54:32.000Z</time><ele>811.2</ele></trkpt><trkpt lat="45.967207" lon="10.290407"><time>2025-04-28T06:54:33.000Z</time><ele>811.2</ele></trkpt><trkpt lat="45.967193" lon="10.290388"><time>2025-04-28T06:54:34.000Z</time><ele>811.2</ele></trkpt><trkpt lat="45.967202" lon="10.290371"><time>2025-04-28T06:54:35.000Z</time><ele>811.2</ele></trkpt><trkpt lat="45.967195" lon="10.290356"><time>2025-04-28T06:54:36.000Z</time><ele>811.2</ele></trkpt><trkpt lat="45.967195" lon="10.290345"><time>2025-04-28T06:54:37.000Z</time><ele>811.4</ele></trkpt><trkpt lat="45.967194" lon="10.290343"><time>2025-04-28T06:54:38.000Z</time><ele>811.4</ele></trkpt><trkpt lat="45.967191" lon="10.29035"><time>2025-04-28T06:54:39.000Z</time><ele>811.4</ele></trkpt><trkpt lat="45.967154" lon="10.290348"><time>2025-04-28T06:54:40.000Z</time><ele>811.4</ele></trkpt><trkpt lat="45.96716" lon="10.290338"><time>2025-04-28T06:54:41.000Z</time><ele>811.2</ele></trkpt><trkpt lat="45.967164" lon="10.290336"><time>2025-04-28T06:54:42.000Z</time><ele>811.2</ele></trkpt><trkpt lat="45.967172" lon="10.290334"><time>2025-04-28T06:54:43.000Z</time><ele>811.2</ele></trkpt><trkpt lat="45.967173" lon="10.290332"><time>2025-04-28T06:54:44.000Z</time><ele>811.2</ele></trkpt><trkpt lat="45.967175" lon="10.290332"><time>2025-04-28T06:54:45.000Z</time><ele>811.2</ele></trkpt><trkpt lat="45.967176" lon="10.290335"><time>2025-04-28T06:54:46.000Z</time><ele>811.2</ele></trkpt><trkpt lat="45.967176" lon="10.290335"><time>2025-04-28T06:54:47.000Z</time><ele>811.2</ele></trkpt><trkpt lat="45.967191" lon="10.290326"><time>2025-04-28T06:54:48.000Z</time><ele>811.2</ele></trkpt><trkpt lat="45.967205" lon="10.290318"><time>2025-04-28T06:54:49.000Z</time><ele>811.2</ele></trkpt><trkpt lat="45.967212" lon="10.290313"><time>2025-04-28T06:54:50.000Z</time><ele>811.2</ele></trkpt><trkpt lat="45.967212" lon="10.29031"><time>2025-04-28T06:54:51.000Z</time><ele>811.2</ele></trkpt><trkpt lat="45.967208" lon="10.290304"><time>2025-04-28T06:54:52.000Z</time><ele>811.4</ele></trkpt><trkpt lat="45.967206" lon="10.290307"><time>2025-04-28T06:54:53.000Z</time><ele>811.4</ele></trkpt><trkpt lat="45.967213" lon="10.290311"><time>2025-04-28T06:54:54.000Z</time><ele>811.6</ele></trkpt><trkpt lat="45.967223" lon="10.290314"><time>2025-04-28T06:54:55.000Z</time><ele>811.6</ele></trkpt><trkpt lat="45.967233" lon="10.290311"><time>2025-04-28T06:54:56.000Z</time><ele>811.6</ele></trkpt><trkpt lat="45.967231" lon="10.290309"><time>2025-04-28T06:54:57.000Z</time><ele>811.8</ele></trkpt><trkpt lat="45.967225" lon="10.290304"><time>2025-04-28T06:54:58.000Z</time><ele>811.8</ele></trkpt><trkpt lat="45.967229" lon="10.290304"><time>2025-04-28T06:54:59.000Z</time><ele>811.8</ele></trkpt><trkpt lat="45.967238" lon="10.290304"><time>2025-04-28T06:55:00.000Z</time><ele>811.6</ele></trkpt><trkpt lat="45.967244" lon="10.290304"><time>2025-04-28T06:55:01.000Z</time><ele>811.6</ele></trkpt><trkpt lat="45.967247" lon="10.290307"><time>2025-04-28T06:55:02.000Z</time><ele>811.6</ele></trkpt><trkpt lat="45.967247" lon="10.290308"><time>2025-04-28T06:55:03.000Z</time><ele>811.4</ele></trkpt><trkpt lat="45.967248" lon="10.290308"><time>2025-04-28T06:55:04.000Z</time><ele>811.4</ele></trkpt><trkpt lat="45.967264" lon="10.290302"><time>2025-04-28T06:55:05.000Z</time><ele>811.4</ele></trkpt><trkpt lat="45.967277" lon="10.290295"><time>2025-04-28T06:55:06.000Z</time><ele>811.2</ele></trkpt><trkpt lat="45.9673" lon="10.290288"><time>2025-04-28T06:55:07.000Z</time><ele>811.2</ele></trkpt><trkpt lat="45.967316" lon="10.290284"><time>2025-04-28T06:55:08.000Z</time><ele>811</ele></trkpt><trkpt lat="45.967335" lon="10.29028"><time>2025-04-28T06:55:09.000Z</time><ele>811</ele></trkpt><trkpt lat="45.96735" lon="10.290273"><time>2025-04-28T06:55:10.000Z</time><ele>811</ele></trkpt><trkpt lat="45.967355" lon="10.290268"><time>2025-04-28T06:55:11.000Z</time><ele>811</ele></trkpt><trkpt lat="45.967358" lon="10.290266"><time>2025-04-28T06:55:12.000Z</time><ele>811</ele></trkpt><trkpt lat="45.967355" lon="10.290273"><time>2025-04-28T06:55:13.000Z</time><ele>811</ele></trkpt><trkpt lat="45.967366" lon="10.290263"><time>2025-04-28T06:55:14.000Z</time><ele>811</ele></trkpt><trkpt lat="45.967373" lon="10.290256"><time>2025-04-28T06:55:15.000Z</time><ele>810.8</ele></trkpt><trkpt lat="45.96738" lon="10.290245"><time>2025-04-28T06:55:16.000Z</time><ele>810.6</ele></trkpt><trkpt lat="45.967381" lon="10.290237"><time>2025-04-28T06:55:17.000Z</time><ele>810.6</ele></trkpt><trkpt lat="45.967382" lon="10.290233"><time>2025-04-28T06:55:18.000Z</time><ele>810.4</ele></trkpt><trkpt lat="45.967394" lon="10.29022"><time>2025-04-28T06:55:19.000Z</time><ele>810.4</ele></trkpt><trkpt lat="45.967411" lon="10.290209"><time>2025-04-28T06:55:20.000Z</time><ele>810.4</ele></trkpt><trkpt lat="45.967422" lon="10.290197"><time>2025-04-28T06:55:21.000Z</time><ele>810.4</ele></trkpt><trkpt lat="45.967421" lon="10.290186"><time>2025-04-28T06:55:22.000Z</time><ele>810.2</ele></trkpt><trkpt lat="45.967425" lon="10.290178"><time>2025-04-28T06:55:23.000Z</time><ele>810.2</ele></trkpt><trkpt lat="45.967428" lon="10.290172"><time>2025-04-28T06:55:24.000Z</time><ele>810.2</ele></trkpt><trkpt lat="45.967426" lon="10.290172"><time>2025-04-28T06:55:25.000Z</time><ele>810</ele></trkpt><trkpt lat="45.967428" lon="10.290161"><time>2025-04-28T06:55:26.000Z</time><ele>810</ele></trkpt><trkpt lat="45.967438" lon="10.290153"><time>2025-04-28T06:55:27.000Z</time><ele>810</ele></trkpt><trkpt lat="45.967447" lon="10.290159"><time>2025-04-28T06:55:28.000Z</time><ele>810</ele></trkpt><trkpt lat="45.967459" lon="10.290157"><time>2025-04-28T06:55:29.000Z</time><ele>810</ele></trkpt><trkpt lat="45.967471" lon="10.290151"><time>2025-04-28T06:55:30.000Z</time><ele>810.2</ele></trkpt><trkpt lat="45.967476" lon="10.290138"><time>2025-04-28T06:55:31.000Z</time><ele>810.2</ele></trkpt><trkpt lat="45.967478" lon="10.290131"><time>2025-04-28T06:55:32.000Z</time><ele>810.2</ele></trkpt><trkpt lat="45.967478" lon="10.290132"><time>2025-04-28T06:55:33.000Z</time><ele>810.2</ele></trkpt><trkpt lat="45.967484" lon="10.290133"><time>2025-04-28T06:55:34.000Z</time><ele>810.2</ele></trkpt><trkpt lat="45.967495" lon="10.29013"><time>2025-04-28T06:55:35.000Z</time><ele>810.4</ele></trkpt><trkpt lat="45.967514" lon="10.29012"><time>2025-04-28T06:55:36.000Z</time><ele>810.4</ele></trkpt><trkpt lat="45.967526" lon="10.290111"><time>2025-04-28T06:55:37.000Z</time><ele>810.6</ele></trkpt><trkpt lat="45.967532" lon="10.290107"><time>2025-04-28T06:55:38.000Z</time><ele>810.6</ele></trkpt><trkpt lat="45.967544" lon="10.290097"><time>2025-04-28T06:55:39.000Z</time><ele>810.8</ele></trkpt><trkpt lat="45.967548" lon="10.290092"><time>2025-04-28T06:55:40.000Z</time><ele>810.8</ele></trkpt><trkpt lat="45.967552" lon="10.290092"><time>2025-04-28T06:55:41.000Z</time><ele>811</ele></trkpt><trkpt lat="45.967557" lon="10.290088"><time>2025-04-28T06:55:42.000Z</time><ele>811</ele></trkpt><trkpt lat="45.967558" lon="10.290083"><time>2025-04-28T06:55:43.000Z</time><ele>811</ele></trkpt><trkpt lat="45.967559" lon="10.29009"><time>2025-04-28T06:55:44.000Z</time><ele>811.2</ele></trkpt><trkpt lat="45.96755" lon="10.290102"><time>2025-04-28T06:55:45.000Z</time><ele>811.2</ele></trkpt><trkpt lat="45.967547" lon="10.290108"><time>2025-04-28T06:55:46.000Z</time><ele>811.2</ele></trkpt><trkpt lat="45.967547" lon="10.290113"><time>2025-04-28T06:55:47.000Z</time><ele>811.2</ele></trkpt><trkpt lat="45.967549" lon="10.290115"><time>2025-04-28T06:55:48.000Z</time><ele>811.2</ele></trkpt><trkpt lat="45.967554" lon="10.290112"><time>2025-04-28T06:55:49.000Z</time><ele>811.2</ele></trkpt><trkpt lat="45.967555" lon="10.290112"><time>2025-04-28T06:55:50.000Z</time><ele>811</ele></trkpt><trkpt lat="45.967553" lon="10.29011"><time>2025-04-28T06:55:51.000Z</time><ele>811</ele></trkpt><trkpt lat="45.967548" lon="10.290121"><time>2025-04-28T06:55:52.000Z</time><ele>810.8</ele></trkpt><trkpt lat="45.967535" lon="10.29013"><time>2025-04-28T06:55:53.000Z</time><ele>810.8</ele></trkpt><trkpt lat="45.967531" lon="10.290134"><time>2025-04-28T06:55:54.000Z</time><ele>810.8</ele></trkpt><trkpt lat="45.967532" lon="10.290137"><time>2025-04-28T06:55:55.000Z</time><ele>810.6</ele></trkpt><trkpt lat="45.96753" lon="10.290146"><time>2025-04-28T06:55:56.000Z</time><ele>810.6</ele></trkpt><trkpt lat="45.967514" lon="10.290163"><time>2025-04-28T06:55:57.000Z</time><ele>810.6</ele></trkpt><trkpt lat="45.967508" lon="10.290173"><time>2025-04-28T06:55:58.000Z</time><ele>810.4</ele></trkpt><trkpt lat="45.967513" lon="10.290175"><time>2025-04-28T06:55:59.000Z</time><ele>810.4</ele></trkpt><trkpt lat="45.967518" lon="10.290175"><time>2025-04-28T06:56:00.000Z</time><ele>810.2</ele></trkpt><trkpt lat="45.967522" lon="10.290176"><time>2025-04-28T06:56:01.000Z</time><ele>810.2</ele></trkpt><trkpt lat="45.967536" lon="10.290167"><time>2025-04-28T06:56:02.000Z</time><ele>810.2</ele></trkpt><trkpt lat="45.96755" lon="10.290159"><time>2025-04-28T06:56:03.000Z</time><ele>809.8</ele></trkpt><trkpt lat="45.96756" lon="10.290153"><time>2025-04-28T06:56:04.000Z</time><ele>809.6</ele></trkpt><trkpt lat="45.967581" lon="10.290144"><time>2025-04-28T06:56:05.000Z</time><ele>809.4</ele></trkpt><trkpt lat="45.967605" lon="10.290138"><time>2025-04-28T06:56:06.000Z</time><ele>809.4</ele></trkpt><trkpt lat="45.967629" lon="10.290133"><time>2025-04-28T06:56:07.000Z</time><ele>809.2</ele></trkpt><trkpt lat="45.967639" lon="10.29013"><time>2025-04-28T06:56:08.000Z</time><ele>809.2</ele></trkpt><trkpt lat="45.967642" lon="10.290128"><time>2025-04-28T06:56:09.000Z</time><ele>809.2</ele></trkpt><trkpt lat="45.967646" lon="10.29012"><time>2025-04-28T06:56:10.000Z</time><ele>809</ele></trkpt><trkpt lat="45.967659" lon="10.290108"><time>2025-04-28T06:56:11.000Z</time><ele>809</ele></trkpt><trkpt lat="45.967676" lon="10.290107"><time>2025-04-28T06:56:12.000Z</time><ele>809</ele></trkpt><trkpt lat="45.967682" lon="10.290106"><time>2025-04-28T06:56:13.000Z</time><ele>809</ele></trkpt><trkpt lat="45.967702" lon="10.290103"><time>2025-04-28T06:56:14.000Z</time><ele>808.8</ele></trkpt><trkpt lat="45.967706" lon="10.290103"><time>2025-04-28T06:56:15.000Z</time><ele>808.8</ele></trkpt><trkpt lat="45.967719" lon="10.29011"><time>2025-04-28T06:56:16.000Z</time><ele>808.6</ele></trkpt><trkpt lat="45.967736" lon="10.290119"><time>2025-04-28T06:56:17.000Z</time><ele>808.6</ele></trkpt><trkpt lat="45.96774" lon="10.290121"><time>2025-04-28T06:56:18.000Z</time><ele>808.6</ele></trkpt><trkpt lat="45.967755" lon="10.290123"><time>2025-04-28T06:56:19.000Z</time><ele>808.6</ele></trkpt><trkpt lat="45.967776" lon="10.290121"><time>2025-04-28T06:56:20.000Z</time><ele>808.6</ele></trkpt><trkpt lat="45.967795" lon="10.290118"><time>2025-04-28T06:56:21.000Z</time><ele>808.4</ele></trkpt><trkpt lat="45.967815" lon="10.290119"><time>2025-04-28T06:56:22.000Z</time><ele>808.4</ele></trkpt><trkpt lat="45.967834" lon="10.290117"><time>2025-04-28T06:56:23.000Z</time><ele>808.2</ele></trkpt><trkpt lat="45.967842" lon="10.29012"><time>2025-04-28T06:56:24.000Z</time><ele>808.2</ele></trkpt><trkpt lat="45.96785" lon="10.290132"><time>2025-04-28T06:56:25.000Z</time><ele>808</ele></trkpt><trkpt lat="45.967855" lon="10.290137"><time>2025-04-28T06:56:26.000Z</time><ele>808</ele></trkpt><trkpt lat="45.967875" lon="10.29016"><time>2025-04-28T06:56:27.000Z</time><ele>808</ele></trkpt><trkpt lat="45.967887" lon="10.290176"><time>2025-04-28T06:56:28.000Z</time><ele>807.8</ele></trkpt><trkpt lat="45.967886" lon="10.29018"><time>2025-04-28T06:56:29.000Z</time><ele>807.8</ele></trkpt><trkpt lat="45.967898" lon="10.290187"><time>2025-04-28T06:56:30.000Z</time><ele>808</ele></trkpt><trkpt lat="45.967916" lon="10.290188"><time>2025-04-28T06:56:31.000Z</time><ele>808</ele></trkpt><trkpt lat="45.967928" lon="10.290188"><time>2025-04-28T06:56:32.000Z</time><ele>808</ele></trkpt><trkpt lat="45.967925" lon="10.29019"><time>2025-04-28T06:56:33.000Z</time><ele>808</ele></trkpt><trkpt lat="45.967924" lon="10.290188"><time>2025-04-28T06:56:34.000Z</time><ele>808.2</ele></trkpt><trkpt lat="45.967925" lon="10.290183"><time>2025-04-28T06:56:35.000Z</time><ele>808.2</ele></trkpt><trkpt lat="45.967926" lon="10.290171"><time>2025-04-28T06:56:36.000Z</time><ele>808.2</ele></trkpt><trkpt lat="45.967923" lon="10.290171"><time>2025-04-28T06:56:37.000Z</time><ele>808.2</ele></trkpt><trkpt lat="45.967917" lon="10.290175"><time>2025-04-28T06:56:38.000Z</time><ele>808.2</ele></trkpt><trkpt lat="45.967914" lon="10.290175"><time>2025-04-28T06:56:39.000Z</time><ele>808.2</ele></trkpt><trkpt lat="45.967913" lon="10.290175"><time>2025-04-28T06:56:40.000Z</time><ele>808.2</ele></trkpt><trkpt lat="45.96792" lon="10.290178"><time>2025-04-28T06:56:41.000Z</time><ele>808.2</ele></trkpt><trkpt lat="45.967928" lon="10.290177"><time>2025-04-28T06:56:42.000Z</time><ele>808.2</ele></trkpt><trkpt lat="45.967936" lon="10.290179"><time>2025-04-28T06:56:43.000Z</time><ele>808.2</ele></trkpt><trkpt lat="45.967949" lon="10.29018"><time>2025-04-28T06:56:44.000Z</time><ele>808</ele></trkpt><trkpt lat="45.967961" lon="10.290183"><time>2025-04-28T06:56:45.000Z</time><ele>808</ele></trkpt><trkpt lat="45.967963" lon="10.290184"><time>2025-04-28T06:56:46.000Z</time><ele>808</ele></trkpt><trkpt lat="45.967962" lon="10.290186"><time>2025-04-28T06:56:47.000Z</time><ele>808</ele></trkpt><trkpt lat="45.967962" lon="10.29019"><time>2025-04-28T06:56:48.000Z</time><ele>808</ele></trkpt><trkpt lat="45.967961" lon="10.290202"><time>2025-04-28T06:56:49.000Z</time><ele>808.2</ele></trkpt><trkpt lat="45.967967" lon="10.290214"><time>2025-04-28T06:56:50.000Z</time><ele>808.2</ele></trkpt><trkpt lat="45.967978" lon="10.290221"><time>2025-04-28T06:56:51.000Z</time><ele>808.4</ele></trkpt><trkpt lat="45.96798" lon="10.29022"><time>2025-04-28T06:56:52.000Z</time><ele>808.6</ele></trkpt><trkpt lat="45.967977" lon="10.29022"><time>2025-04-28T06:56:53.000Z</time><ele>808.8</ele></trkpt><trkpt lat="45.967971" lon="10.29022"><time>2025-04-28T06:56:54.000Z</time><ele>808.8</ele></trkpt><trkpt lat="45.967978" lon="10.290223"><time>2025-04-28T06:56:55.000Z</time><ele>809</ele></trkpt><trkpt lat="45.967982" lon="10.290229"><time>2025-04-28T06:56:56.000Z</time><ele>809</ele></trkpt><trkpt lat="45.967991" lon="10.290233"><time>2025-04-28T06:56:57.000Z</time><ele>809.2</ele></trkpt><trkpt lat="45.968" lon="10.290239"><time>2025-04-28T06:56:58.000Z</time><ele>809.2</ele></trkpt><trkpt lat="45.968016" lon="10.290236"><time>2025-04-28T06:56:59.000Z</time><ele>809.4</ele></trkpt><trkpt lat="45.968033" lon="10.290232"><time>2025-04-28T06:57:00.000Z</time><ele>809.4</ele></trkpt><trkpt lat="45.968035" lon="10.290227"><time>2025-04-28T06:57:01.000Z</time><ele>809.6</ele></trkpt><trkpt lat="45.968038" lon="10.290225"><time>2025-04-28T06:57:02.000Z</time><ele>809.6</ele></trkpt><trkpt lat="45.968063" lon="10.290219"><time>2025-04-28T06:57:03.000Z</time><ele>809.8</ele></trkpt><trkpt lat="45.968097" lon="10.29021"><time>2025-04-28T06:57:04.000Z</time><ele>810</ele></trkpt><trkpt lat="45.968123" lon="10.290198"><time>2025-04-28T06:57:05.000Z</time><ele>810.2</ele></trkpt><trkpt lat="45.968149" lon="10.290189"><time>2025-04-28T06:57:06.000Z</time><ele>810.4</ele></trkpt><trkpt lat="45.968154" lon="10.290187"><time>2025-04-28T06:57:07.000Z</time><ele>810.6</ele></trkpt><trkpt lat="45.968168" lon="10.290193"><time>2025-04-28T06:57:08.000Z</time><ele>810.8</ele></trkpt><trkpt lat="45.96818" lon="10.2902"><time>2025-04-28T06:57:09.000Z</time><ele>810.8</ele></trkpt><trkpt lat="45.9682" lon="10.290207"><time>2025-04-28T06:57:10.000Z</time><ele>810.8</ele></trkpt><trkpt lat="45.968215" lon="10.290206"><time>2025-04-28T06:57:11.000Z</time><ele>810.8</ele></trkpt><trkpt lat="45.968224" lon="10.290207"><time>2025-04-28T06:57:12.000Z</time><ele>811</ele></trkpt><trkpt lat="45.968224" lon="10.290211"><time>2025-04-28T06:57:13.000Z</time><ele>811.2</ele></trkpt><trkpt lat="45.968243" lon="10.290208"><time>2025-04-28T06:57:14.000Z</time><ele>811.2</ele></trkpt><trkpt lat="45.96826" lon="10.290206"><time>2025-04-28T06:57:15.000Z</time><ele>811.4</ele></trkpt><trkpt lat="45.968283" lon="10.290213"><time>2025-04-28T06:57:16.000Z</time><ele>811.6</ele></trkpt><trkpt lat="45.968302" lon="10.290217"><time>2025-04-28T06:57:17.000Z</time><ele>811.8</ele></trkpt><trkpt lat="45.968314" lon="10.29022"><time>2025-04-28T06:57:18.000Z</time><ele>812</ele></trkpt><trkpt lat="45.968323" lon="10.29021"><time>2025-04-28T06:57:19.000Z</time><ele>812.2</ele></trkpt><trkpt lat="45.968334" lon="10.290193"><time>2025-04-28T06:57:20.000Z</time><ele>812.2</ele></trkpt><trkpt lat="45.96834" lon="10.29018"><time>2025-04-28T06:57:21.000Z</time><ele>812.6</ele></trkpt><trkpt lat="45.968337" lon="10.290178"><time>2025-04-28T06:57:22.000Z</time><ele>812.8</ele></trkpt><trkpt lat="45.968339" lon="10.290178"><time>2025-04-28T06:57:23.000Z</time><ele>813</ele></trkpt><trkpt lat="45.968342" lon="10.290178"><time>2025-04-28T06:57:24.000Z</time><ele>813</ele></trkpt><trkpt lat="45.968343" lon="10.290179"><time>2025-04-28T06:57:25.000Z</time><ele>813</ele></trkpt><trkpt lat="45.968343" lon="10.290178"><time>2025-04-28T06:57:26.000Z</time><ele>813</ele></trkpt><trkpt lat="45.968336" lon="10.290171"><time>2025-04-28T06:57:27.000Z</time><ele>812.8</ele></trkpt><trkpt lat="45.968329" lon="10.290168"><time>2025-04-28T06:57:28.000Z</time><ele>812.8</ele></trkpt><trkpt lat="45.968331" lon="10.290165"><time>2025-04-28T06:57:29.000Z</time><ele>812.6</ele></trkpt><trkpt lat="45.96833" lon="10.290159"><time>2025-04-28T06:57:30.000Z</time><ele>812.6</ele></trkpt><trkpt lat="45.968321" lon="10.290153"><time>2025-04-28T06:57:31.000Z</time><ele>812.8</ele></trkpt><trkpt lat="45.968307" lon="10.290162"><time>2025-04-28T06:57:32.000Z</time><ele>812.8</ele></trkpt><trkpt lat="45.968293" lon="10.290169"><time>2025-04-28T06:57:33.000Z</time><ele>812.8</ele></trkpt><trkpt lat="45.96829" lon="10.290168"><time>2025-04-28T06:57:34.000Z</time><ele>813</ele></trkpt><trkpt lat="45.968294" lon="10.290163"><time>2025-04-28T06:57:35.000Z</time><ele>813.2</ele></trkpt><trkpt lat="45.968294" lon="10.290156"><time>2025-04-28T06:57:36.000Z</time><ele>813.2</ele></trkpt><trkpt lat="45.968294" lon="10.290157"><time>2025-04-28T06:57:37.000Z</time><ele>813.4</ele></trkpt><trkpt lat="45.968289" lon="10.290154"><time>2025-04-28T06:57:38.000Z</time><ele>813.4</ele></trkpt><trkpt lat="45.96829" lon="10.290152"><time>2025-04-28T06:57:39.000Z</time><ele>813.4</ele></trkpt><trkpt lat="45.968301" lon="10.290147"><time>2025-04-28T06:57:40.000Z</time><ele>813.4</ele></trkpt><trkpt lat="45.968302" lon="10.290147"><time>2025-04-28T06:57:41.000Z</time><ele>813.6</ele></trkpt><trkpt lat="45.968305" lon="10.290147"><time>2025-04-28T06:57:42.000Z</time><ele>813.6</ele></trkpt><trkpt lat="45.968298" lon="10.290153"><time>2025-04-28T06:57:43.000Z</time><ele>813.6</ele></trkpt><trkpt lat="45.968292" lon="10.290162"><time>2025-04-28T06:57:44.000Z</time><ele>813.6</ele></trkpt><trkpt lat="45.968295" lon="10.290165"><time>2025-04-28T06:57:45.000Z</time><ele>813.8</ele></trkpt><trkpt lat="45.968292" lon="10.290168"><time>2025-04-28T06:57:46.000Z</time><ele>813.8</ele></trkpt><trkpt lat="45.968283" lon="10.290173"><time>2025-04-28T06:57:47.000Z</time><ele>813.8</ele></trkpt><trkpt lat="45.968284" lon="10.290174"><time>2025-04-28T06:57:48.000Z</time><ele>813.8</ele></trkpt><trkpt lat="45.968298" lon="10.290176"><time>2025-04-28T06:57:49.000Z</time><ele>813.8</ele></trkpt><trkpt lat="45.968296" lon="10.290177"><time>2025-04-28T06:57:50.000Z</time><ele>813.8</ele></trkpt><trkpt lat="45.968294" lon="10.290176"><time>2025-04-28T06:57:51.000Z</time><ele>813.8</ele></trkpt><trkpt lat="45.968293" lon="10.290175"><time>2025-04-28T06:57:52.000Z</time><ele>813.8</ele></trkpt><trkpt lat="45.968293" lon="10.290165"><time>2025-04-28T06:57:53.000Z</time><ele>813.6</ele></trkpt><trkpt lat="45.968287" lon="10.290149"><time>2025-04-28T06:57:54.000Z</time><ele>813.4</ele></trkpt><trkpt lat="45.968288" lon="10.290141"><time>2025-04-28T06:57:55.000Z</time><ele>813.2</ele></trkpt><trkpt lat="45.968281" lon="10.290136"><time>2025-04-28T06:57:56.000Z</time><ele>813.2</ele></trkpt><trkpt lat="45.968274" lon="10.29013"><time>2025-04-28T06:57:57.000Z</time><ele>813</ele></trkpt><trkpt lat="45.968281" lon="10.290118"><time>2025-04-28T06:57:58.000Z</time><ele>813</ele></trkpt><trkpt lat="45.968281" lon="10.290116"><time>2025-04-28T06:57:59.000Z</time><ele>813</ele></trkpt><trkpt lat="45.96828" lon="10.290118"><time>2025-04-28T06:58:00.000Z</time><ele>812.8</ele></trkpt><trkpt lat="45.968276" lon="10.290119"><time>2025-04-28T06:58:01.000Z</time><ele>813</ele></trkpt><trkpt lat="45.968281" lon="10.290117"><time>2025-04-28T06:58:02.000Z</time><ele>813</ele></trkpt><trkpt lat="45.968289" lon="10.290111"><time>2025-04-28T06:58:03.000Z</time><ele>813</ele></trkpt><trkpt lat="45.96829" lon="10.290107"><time>2025-04-28T06:58:04.000Z</time><ele>813</ele></trkpt><trkpt lat="45.968289" lon="10.290106"><time>2025-04-28T06:58:05.000Z</time><ele>813</ele></trkpt><trkpt lat="45.968294" lon="10.2901"><time>2025-04-28T06:58:06.000Z</time><ele>813</ele></trkpt><trkpt lat="45.968292" lon="10.2901"><time>2025-04-28T06:58:07.000Z</time><ele>813.2</ele></trkpt><trkpt lat="45.968288" lon="10.290104"><time>2025-04-28T06:58:08.000Z</time><ele>813.2</ele></trkpt><trkpt lat="45.968282" lon="10.290106"><time>2025-04-28T06:58:09.000Z</time><ele>813.4</ele></trkpt><trkpt lat="45.968278" lon="10.290106"><time>2025-04-28T06:58:10.000Z</time><ele>813.6</ele></trkpt><trkpt lat="45.96828" lon="10.290095"><time>2025-04-28T06:58:11.000Z</time><ele>813.6</ele></trkpt><trkpt lat="45.968281" lon="10.290088"><time>2025-04-28T06:58:12.000Z</time><ele>813.8</ele></trkpt><trkpt lat="45.968291" lon="10.290081"><time>2025-04-28T06:58:13.000Z</time><ele>814</ele></trkpt><trkpt lat="45.968293" lon="10.290068"><time>2025-04-28T06:58:14.000Z</time><ele>814.2</ele></trkpt><trkpt lat="45.968299" lon="10.290053"><time>2025-04-28T06:58:15.000Z</time><ele>814.2</ele></trkpt><trkpt lat="45.968292" lon="10.290037"><time>2025-04-28T06:58:16.000Z</time><ele>814.2</ele></trkpt><trkpt lat="45.968286" lon="10.290033"><time>2025-04-28T06:58:17.000Z</time><ele>814.6</ele></trkpt><trkpt lat="45.968284" lon="10.290029"><time>2025-04-28T06:58:18.000Z</time><ele>814.8</ele></trkpt><trkpt lat="45.968282" lon="10.290025"><time>2025-04-28T06:58:19.000Z</time><ele>815</ele></trkpt><trkpt lat="45.968281" lon="10.290017"><time>2025-04-28T06:58:20.000Z</time><ele>815.2</ele></trkpt><trkpt lat="45.968283" lon="10.290012"><time>2025-04-28T06:58:21.000Z</time><ele>815.2</ele></trkpt><trkpt lat="45.968289" lon="10.289997"><time>2025-04-28T06:58:22.000Z</time><ele>815.4</ele></trkpt><trkpt lat="45.968295" lon="10.289978"><time>2025-04-28T06:58:23.000Z</time><ele>815.6</ele></trkpt><trkpt lat="45.968293" lon="10.28997"><time>2025-04-28T06:58:24.000Z</time><ele>815.8</ele></trkpt><trkpt lat="45.968287" lon="10.289963"><time>2025-04-28T06:58:25.000Z</time><ele>816</ele></trkpt><trkpt lat="45.968284" lon="10.289959"><time>2025-04-28T06:58:26.000Z</time><ele>816</ele></trkpt><trkpt lat="45.968262" lon="10.289961"><time>2025-04-28T06:58:27.000Z</time><ele>816.2</ele></trkpt><trkpt lat="45.96825" lon="10.28996"><time>2025-04-28T06:58:28.000Z</time><ele>816.4</ele></trkpt><trkpt lat="45.968254" lon="10.289957"><time>2025-04-28T06:58:29.000Z</time><ele>816.6</ele></trkpt><trkpt lat="45.96826" lon="10.289951"><time>2025-04-28T06:58:30.000Z</time><ele>816.8</ele></trkpt><trkpt lat="45.968278" lon="10.28995"><time>2025-04-28T06:58:31.000Z</time><ele>817</ele></trkpt><trkpt lat="45.968276" lon="10.289952"><time>2025-04-28T06:58:32.000Z</time><ele>817</ele></trkpt><trkpt lat="45.968275" lon="10.289951"><time>2025-04-28T06:58:33.000Z</time><ele>817.2</ele></trkpt><trkpt lat="45.968266" lon="10.289958"><time>2025-04-28T06:58:34.000Z</time><ele>817.4</ele></trkpt><trkpt lat="45.968258" lon="10.289954"><time>2025-04-28T06:58:35.000Z</time><ele>817.6</ele></trkpt><trkpt lat="45.968251" lon="10.28994"><time>2025-04-28T06:58:36.000Z</time><ele>817.6</ele></trkpt><trkpt lat="45.968245" lon="10.289929"><time>2025-04-28T06:58:37.000Z</time><ele>817.8</ele></trkpt><trkpt lat="45.968237" lon="10.289925"><time>2025-04-28T06:58:38.000Z</time><ele>818</ele></trkpt><trkpt lat="45.968223" lon="10.289928"><time>2025-04-28T06:58:39.000Z</time><ele>818</ele></trkpt><trkpt lat="45.968219" lon="10.289926"><time>2025-04-28T06:58:40.000Z</time><ele>818.2</ele></trkpt><trkpt lat="45.968213" lon="10.289919"><time>2025-04-28T06:58:41.000Z</time><ele>818.4</ele></trkpt><trkpt lat="45.968208" lon="10.289917"><time>2025-04-28T06:58:42.000Z</time><ele>818.6</ele></trkpt><trkpt lat="45.968202" lon="10.289914"><time>2025-04-28T06:58:43.000Z</time><ele>818.8</ele></trkpt><trkpt lat="45.968197" lon="10.289909"><time>2025-04-28T06:58:44.000Z</time><ele>819</ele></trkpt><trkpt lat="45.968191" lon="10.289904"><time>2025-04-28T06:58:45.000Z</time><ele>819</ele></trkpt><trkpt lat="45.968187" lon="10.289903"><time>2025-04-28T06:58:46.000Z</time><ele>819.2</ele></trkpt><trkpt lat="45.968182" lon="10.289902"><time>2025-04-28T06:58:47.000Z</time><ele>819.2</ele></trkpt><trkpt lat="45.968184" lon="10.2899"><time>2025-04-28T06:58:48.000Z</time><ele>819.4</ele></trkpt><trkpt lat="45.968191" lon="10.289889"><time>2025-04-28T06:58:49.000Z</time><ele>819.8</ele></trkpt><trkpt lat="45.968191" lon="10.289877"><time>2025-04-28T06:58:50.000Z</time><ele>819.8</ele></trkpt><trkpt lat="45.968183" lon="10.289872"><time>2025-04-28T06:58:51.000Z</time><ele>820</ele></trkpt><trkpt lat="45.968172" lon="10.289868"><time>2025-04-28T06:58:52.000Z</time><ele>820.2</ele></trkpt><trkpt lat="45.968161" lon="10.289866"><time>2025-04-28T06:58:53.000Z</time><ele>820.4</ele></trkpt><trkpt lat="45.968155" lon="10.289863"><time>2025-04-28T06:58:54.000Z</time><ele>820.6</ele></trkpt><trkpt lat="45.96815" lon="10.289858"><time>2025-04-28T06:58:55.000Z</time><ele>820.6</ele></trkpt><trkpt lat="45.968148" lon="10.289856"><time>2025-04-28T06:58:56.000Z</time><ele>820.8</ele></trkpt><trkpt lat="45.968147" lon="10.289853"><time>2025-04-28T06:58:57.000Z</time><ele>821</ele></trkpt><trkpt lat="45.968146" lon="10.289846"><time>2025-04-28T06:58:58.000Z</time><ele>821.2</ele></trkpt><trkpt lat="45.968127" lon="10.289838"><time>2025-04-28T06:58:59.000Z</time><ele>821.2</ele></trkpt><trkpt lat="45.968115" lon="10.289829"><time>2025-04-28T06:59:00.000Z</time><ele>821.6</ele></trkpt><trkpt lat="45.968109" lon="10.289813"><time>2025-04-28T06:59:01.000Z</time><ele>821.8</ele></trkpt><trkpt lat="45.968116" lon="10.289802"><time>2025-04-28T06:59:02.000Z</time><ele>821.8</ele></trkpt><trkpt lat="45.968119" lon="10.289796"><time>2025-04-28T06:59:03.000Z</time><ele>822</ele></trkpt><trkpt lat="45.96812" lon="10.289792"><time>2025-04-28T06:59:04.000Z</time><ele>822</ele></trkpt><trkpt lat="45.968121" lon="10.289785"><time>2025-04-28T06:59:05.000Z</time><ele>822.2</ele></trkpt><trkpt lat="45.968114" lon="10.289785"><time>2025-04-28T06:59:06.000Z</time><ele>822.6</ele></trkpt><trkpt lat="45.968109" lon="10.289777"><time>2025-04-28T06:59:07.000Z</time><ele>822.6</ele></trkpt><trkpt lat="45.968115" lon="10.28975"><time>2025-04-28T06:59:08.000Z</time><ele>822.8</ele></trkpt><trkpt lat="45.968117" lon="10.289734"><time>2025-04-28T06:59:09.000Z</time><ele>823</ele></trkpt><trkpt lat="45.968113" lon="10.289729"><time>2025-04-28T06:59:10.000Z</time><ele>823</ele></trkpt><trkpt lat="45.968106" lon="10.289725"><time>2025-04-28T06:59:11.000Z</time><ele>823.2</ele></trkpt><trkpt lat="45.968095" lon="10.289726"><time>2025-04-28T06:59:12.000Z</time><ele>823.4</ele></trkpt><trkpt lat="45.968085" lon="10.289724"><time>2025-04-28T06:59:13.000Z</time><ele>823.8</ele></trkpt><trkpt lat="45.968084" lon="10.289732"><time>2025-04-28T06:59:14.000Z</time><ele>823.8</ele></trkpt><trkpt lat="45.968082" lon="10.289731"><time>2025-04-28T06:59:15.000Z</time><ele>824</ele></trkpt><trkpt lat="45.968078" lon="10.289738"><time>2025-04-28T06:59:16.000Z</time><ele>824.2</ele></trkpt><trkpt lat="45.968077" lon="10.28974"><time>2025-04-28T06:59:17.000Z</time><ele>824.4</ele></trkpt><trkpt lat="45.968073" lon="10.289741"><time>2025-04-28T06:59:18.000Z</time><ele>824.6</ele></trkpt><trkpt lat="45.968066" lon="10.289746"><time>2025-04-28T06:59:19.000Z</time><ele>824.6</ele></trkpt><trkpt lat="45.968054" lon="10.289753"><time>2025-04-28T06:59:20.000Z</time><ele>824.8</ele></trkpt><trkpt lat="45.968044" lon="10.289757"><time>2025-04-28T06:59:21.000Z</time><ele>824.8</ele></trkpt><trkpt lat="45.968034" lon="10.289754"><time>2025-04-28T06:59:22.000Z</time><ele>824.8</ele></trkpt><trkpt lat="45.968021" lon="10.289747"><time>2025-04-28T06:59:23.000Z</time><ele>825</ele></trkpt><trkpt lat="45.968011" lon="10.289744"><time>2025-04-28T06:59:24.000Z</time><ele>825.2</ele></trkpt><trkpt lat="45.968003" lon="10.289747"><time>2025-04-28T06:59:25.000Z</time><ele>825.4</ele></trkpt><trkpt lat="45.967995" lon="10.289743"><time>2025-04-28T06:59:26.000Z</time><ele>825.6</ele></trkpt><trkpt lat="45.967997" lon="10.289736"><time>2025-04-28T06:59:27.000Z</time><ele>825.8</ele></trkpt><trkpt lat="45.967994" lon="10.289731"><time>2025-04-28T06:59:28.000Z</time><ele>826</ele></trkpt><trkpt lat="45.967996" lon="10.289722"><time>2025-04-28T06:59:29.000Z</time><ele>826</ele></trkpt><trkpt lat="45.967994" lon="10.28972"><time>2025-04-28T06:59:30.000Z</time><ele>826.4</ele></trkpt><trkpt lat="45.967993" lon="10.28972"><time>2025-04-28T06:59:31.000Z</time><ele>826.6</ele></trkpt><trkpt lat="45.967986" lon="10.289722"><time>2025-04-28T06:59:32.000Z</time><ele>826.8</ele></trkpt><trkpt lat="45.967988" lon="10.289719"><time>2025-04-28T06:59:33.000Z</time><ele>827</ele></trkpt><trkpt lat="45.967977" lon="10.289727"><time>2025-04-28T06:59:34.000Z</time><ele>827.2</ele></trkpt><trkpt lat="45.967971" lon="10.289725"><time>2025-04-28T06:59:35.000Z</time><ele>827.4</ele></trkpt><trkpt lat="45.967967" lon="10.289714"><time>2025-04-28T06:59:36.000Z</time><ele>827.4</ele></trkpt><trkpt lat="45.967969" lon="10.289696"><time>2025-04-28T06:59:37.000Z</time><ele>827.6</ele></trkpt><trkpt lat="45.967958" lon="10.289683"><time>2025-04-28T06:59:38.000Z</time><ele>827.6</ele></trkpt><trkpt lat="45.967948" lon="10.289683"><time>2025-04-28T06:59:39.000Z</time><ele>827.8</ele></trkpt><trkpt lat="45.967937" lon="10.289677"><time>2025-04-28T06:59:40.000Z</time><ele>828</ele></trkpt><trkpt lat="45.967933" lon="10.289669"><time>2025-04-28T06:59:41.000Z</time><ele>828.2</ele></trkpt><trkpt lat="45.967929" lon="10.289658"><time>2025-04-28T06:59:42.000Z</time><ele>828.2</ele></trkpt><trkpt lat="45.967929" lon="10.289649"><time>2025-04-28T06:59:43.000Z</time><ele>828.4</ele></trkpt><trkpt lat="45.967923" lon="10.289653"><time>2025-04-28T06:59:44.000Z</time><ele>828.6</ele></trkpt><trkpt lat="45.96792" lon="10.289655"><time>2025-04-28T06:59:45.000Z</time><ele>828.6</ele></trkpt><trkpt lat="45.967909" lon="10.289662"><time>2025-04-28T06:59:46.000Z</time><ele>828.8</ele></trkpt><trkpt lat="45.967905" lon="10.289664"><time>2025-04-28T06:59:47.000Z</time><ele>829</ele></trkpt><trkpt lat="45.967909" lon="10.28966"><time>2025-04-28T06:59:48.000Z</time><ele>829</ele></trkpt><trkpt lat="45.967909" lon="10.289657"><time>2025-04-28T06:59:49.000Z</time><ele>829.2</ele></trkpt><trkpt lat="45.967911" lon="10.289652"><time>2025-04-28T06:59:50.000Z</time><ele>829.4</ele></trkpt><trkpt lat="45.967908" lon="10.289645"><time>2025-04-28T06:59:51.000Z</time><ele>829.4</ele></trkpt><trkpt lat="45.967903" lon="10.289638"><time>2025-04-28T06:59:52.000Z</time><ele>829.6</ele></trkpt><trkpt lat="45.967901" lon="10.289634"><time>2025-04-28T06:59:53.000Z</time><ele>829.8</ele></trkpt><trkpt lat="45.967906" lon="10.289632"><time>2025-04-28T06:59:54.000Z</time><ele>830</ele></trkpt><trkpt lat="45.967901" lon="10.289631"><time>2025-04-28T06:59:55.000Z</time><ele>830</ele></trkpt><trkpt lat="45.967899" lon="10.28963"><time>2025-04-28T06:59:56.000Z</time><ele>830.2</ele></trkpt><trkpt lat="45.967896" lon="10.289628"><time>2025-04-28T06:59:57.000Z</time><ele>830.2</ele></trkpt><trkpt lat="45.967908" lon="10.289627"><time>2025-04-28T06:59:58.000Z</time><ele>830.2</ele></trkpt><trkpt lat="45.967907" lon="10.289627"><time>2025-04-28T06:59:59.000Z</time><ele>830.4</ele></trkpt><trkpt lat="45.967907" lon="10.28962"><time>2025-04-28T07:00:00.000Z</time><ele>830.4</ele></trkpt><trkpt lat="45.967902" lon="10.289619"><time>2025-04-28T07:00:01.000Z</time><ele>830.6</ele></trkpt><trkpt lat="45.967896" lon="10.289619"><time>2025-04-28T07:00:02.000Z</time><ele>830.8</ele></trkpt><trkpt lat="45.967886" lon="10.289619"><time>2025-04-28T07:00:03.000Z</time><ele>831</ele></trkpt><trkpt lat="45.967869" lon="10.289619"><time>2025-04-28T07:00:04.000Z</time><ele>831.2</ele></trkpt><trkpt lat="45.967863" lon="10.289613"><time>2025-04-28T07:00:05.000Z</time><ele>831.4</ele></trkpt><trkpt lat="45.967862" lon="10.289608"><time>2025-04-28T07:00:06.000Z</time><ele>831.6</ele></trkpt><trkpt lat="45.967853" lon="10.289603"><time>2025-04-28T07:00:07.000Z</time><ele>831.8</ele></trkpt><trkpt lat="45.967854" lon="10.289602"><time>2025-04-28T07:00:08.000Z</time><ele>832</ele></trkpt><trkpt lat="45.967858" lon="10.289598"><time>2025-04-28T07:00:09.000Z</time><ele>832</ele></trkpt><trkpt lat="45.967861" lon="10.289592"><time>2025-04-28T07:00:10.000Z</time><ele>832.2</ele></trkpt><trkpt lat="45.967858" lon="10.289585"><time>2025-04-28T07:00:11.000Z</time><ele>832.4</ele></trkpt><trkpt lat="45.967855" lon="10.28958"><time>2025-04-28T07:00:12.000Z</time><ele>832.6</ele></trkpt><trkpt lat="45.967851" lon="10.28958"><time>2025-04-28T07:00:13.000Z</time><ele>832.8</ele></trkpt><trkpt lat="45.967843" lon="10.289584"><time>2025-04-28T07:00:14.000Z</time><ele>832.8</ele></trkpt><trkpt lat="45.967844" lon="10.289576"><time>2025-04-28T07:00:15.000Z</time><ele>833</ele></trkpt><trkpt lat="45.967842" lon="10.289572"><time>2025-04-28T07:00:16.000Z</time><ele>833</ele></trkpt><trkpt lat="45.967838" lon="10.289566"><time>2025-04-28T07:00:17.000Z</time><ele>833.2</ele></trkpt><trkpt lat="45.96783" lon="10.289563"><time>2025-04-28T07:00:18.000Z</time><ele>833.4</ele></trkpt><trkpt lat="45.967829" lon="10.289561"><time>2025-04-28T07:00:19.000Z</time><ele>833.4</ele></trkpt><trkpt lat="45.967833" lon="10.289557"><time>2025-04-28T07:00:20.000Z</time><ele>833.6</ele></trkpt><trkpt lat="45.967831" lon="10.289556"><time>2025-04-28T07:00:21.000Z</time><ele>833.6</ele></trkpt><trkpt lat="45.967832" lon="10.289556"><time>2025-04-28T07:00:22.000Z</time><ele>833.6</ele></trkpt><trkpt lat="45.967831" lon="10.289556"><time>2025-04-28T07:00:23.000Z</time><ele>833.8</ele></trkpt><trkpt lat="45.967829" lon="10.289553"><time>2025-04-28T07:00:24.000Z</time><ele>834</ele></trkpt><trkpt lat="45.967821" lon="10.289553"><time>2025-04-28T07:00:25.000Z</time><ele>834.2</ele></trkpt><trkpt lat="45.967817" lon="10.289554"><time>2025-04-28T07:00:26.000Z</time><ele>834.4</ele></trkpt><trkpt lat="45.967812" lon="10.289556"><time>2025-04-28T07:00:27.000Z</time><ele>834.6</ele></trkpt><trkpt lat="45.967807" lon="10.289549"><time>2025-04-28T07:00:28.000Z</time><ele>834.8</ele></trkpt><trkpt lat="45.967802" lon="10.289541"><time>2025-04-28T07:00:29.000Z</time><ele>834.8</ele></trkpt><trkpt lat="45.9678" lon="10.289535"><time>2025-04-28T07:00:30.000Z</time><ele>835.2</ele></trkpt><trkpt lat="45.967791" lon="10.289528"><time>2025-04-28T07:00:31.000Z</time><ele>835.2</ele></trkpt><trkpt lat="45.967789" lon="10.289525"><time>2025-04-28T07:00:32.000Z</time><ele>835.4</ele></trkpt><trkpt lat="45.967779" lon="10.289527"><time>2025-04-28T07:00:33.000Z</time><ele>835.8</ele></trkpt><trkpt lat="45.967776" lon="10.289525"><time>2025-04-28T07:00:34.000Z</time><ele>835.8</ele></trkpt><trkpt lat="45.967775" lon="10.289524"><time>2025-04-28T07:00:35.000Z</time><ele>836</ele></trkpt><trkpt lat="45.967767" lon="10.289521"><time>2025-04-28T07:00:36.000Z</time><ele>836.2</ele></trkpt><trkpt lat="45.967754" lon="10.289515"><time>2025-04-28T07:00:37.000Z</time><ele>836.4</ele></trkpt><trkpt lat="45.967749" lon="10.289512"><time>2025-04-28T07:00:38.000Z</time><ele>836.6</ele></trkpt><trkpt lat="45.967753" lon="10.289508"><time>2025-04-28T07:00:39.000Z</time><ele>836.6</ele></trkpt><trkpt lat="45.967756" lon="10.289508"><time>2025-04-28T07:00:40.000Z</time><ele>836.8</ele></trkpt><trkpt lat="45.967755" lon="10.289512"><time>2025-04-28T07:00:41.000Z</time><ele>836.8</ele></trkpt><trkpt lat="45.967743" lon="10.289513"><time>2025-04-28T07:00:42.000Z</time><ele>836.8</ele></trkpt><trkpt lat="45.967731" lon="10.289508"><time>2025-04-28T07:00:43.000Z</time><ele>837</ele></trkpt><trkpt lat="45.967724" lon="10.289505"><time>2025-04-28T07:00:44.000Z</time><ele>837.2</ele></trkpt><trkpt lat="45.967736" lon="10.289489"><time>2025-04-28T07:00:45.000Z</time><ele>837.2</ele></trkpt><trkpt lat="45.96774" lon="10.289488"><time>2025-04-28T07:00:46.000Z</time><ele>837.4</ele></trkpt><trkpt lat="45.967739" lon="10.289489"><time>2025-04-28T07:00:47.000Z</time><ele>837.8</ele></trkpt><trkpt lat="45.967737" lon="10.289489"><time>2025-04-28T07:00:48.000Z</time><ele>838</ele></trkpt><trkpt lat="45.967732" lon="10.289487"><time>2025-04-28T07:00:49.000Z</time><ele>838</ele></trkpt><trkpt lat="45.967722" lon="10.289483"><time>2025-04-28T07:00:50.000Z</time><ele>838.4</ele></trkpt><trkpt lat="45.967709" lon="10.289483"><time>2025-04-28T07:00:51.000Z</time><ele>838.6</ele></trkpt><trkpt lat="45.967707" lon="10.289483"><time>2025-04-28T07:00:52.000Z</time><ele>838.6</ele></trkpt><trkpt lat="45.967708" lon="10.289481"><time>2025-04-28T07:00:53.000Z</time><ele>838.8</ele></trkpt><trkpt lat="45.967707" lon="10.289477"><time>2025-04-28T07:00:54.000Z</time><ele>838.8</ele></trkpt><trkpt lat="45.967701" lon="10.289472"><time>2025-04-28T07:00:55.000Z</time><ele>839</ele></trkpt><trkpt lat="45.967701" lon="10.289474"><time>2025-04-28T07:00:56.000Z</time><ele>839.2</ele></trkpt><trkpt lat="45.967704" lon="10.289469"><time>2025-04-28T07:00:57.000Z</time><ele>839.4</ele></trkpt><trkpt lat="45.967705" lon="10.289469"><time>2025-04-28T07:00:58.000Z</time><ele>839.6</ele></trkpt><trkpt lat="45.967703" lon="10.28947"><time>2025-04-28T07:00:59.000Z</time><ele>839.8</ele></trkpt><trkpt lat="45.967703" lon="10.28947"><time>2025-04-28T07:01:00.000Z</time><ele>840</ele></trkpt><trkpt lat="45.967703" lon="10.28947"><time>2025-04-28T07:01:01.000Z</time><ele>840</ele></trkpt><trkpt lat="45.967703" lon="10.28947"><time>2025-04-28T07:01:02.000Z</time><ele>840.2</ele></trkpt><trkpt lat="45.967703" lon="10.28947"><time>2025-04-28T07:01:03.000Z</time><ele>840.6</ele></trkpt><trkpt lat="45.9677" lon="10.289471"><time>2025-04-28T07:01:04.000Z</time><ele>840.6</ele></trkpt><trkpt lat="45.967695" lon="10.289475"><time>2025-04-28T07:01:05.000Z</time><ele>840.8</ele></trkpt><trkpt lat="45.967691" lon="10.289462"><time>2025-04-28T07:01:06.000Z</time><ele>841</ele></trkpt><trkpt lat="45.967685" lon="10.289454"><time>2025-04-28T07:01:07.000Z</time><ele>841</ele></trkpt><trkpt lat="45.967678" lon="10.289454"><time>2025-04-28T07:01:08.000Z</time><ele>841.2</ele></trkpt><trkpt lat="45.967665" lon="10.289455"><time>2025-04-28T07:01:09.000Z</time><ele>841.4</ele></trkpt><trkpt lat="45.967654" lon="10.28945"><time>2025-04-28T07:01:10.000Z</time><ele>841.4</ele></trkpt><trkpt lat="45.967647" lon="10.289446"><time>2025-04-28T07:01:11.000Z</time><ele>841.6</ele></trkpt><trkpt lat="45.967637" lon="10.289441"><time>2025-04-28T07:01:12.000Z</time><ele>841.6</ele></trkpt><trkpt lat="45.967632" lon="10.289439"><time>2025-04-28T07:01:13.000Z</time><ele>841.8</ele></trkpt><trkpt lat="45.96763" lon="10.28943"><time>2025-04-28T07:01:14.000Z</time><ele>842</ele></trkpt><trkpt lat="45.967627" lon="10.289422"><time>2025-04-28T07:01:15.000Z</time><ele>842.2</ele></trkpt><trkpt lat="45.967626" lon="10.28941"><time>2025-04-28T07:01:16.000Z</time><ele>842.4</ele></trkpt><trkpt lat="45.967625" lon="10.2894"><time>2025-04-28T07:01:17.000Z</time><ele>842.6</ele></trkpt><trkpt lat="45.967626" lon="10.289395"><time>2025-04-28T07:01:18.000Z</time><ele>842.8</ele></trkpt><trkpt lat="45.967626" lon="10.289386"><time>2025-04-28T07:01:19.000Z</time><ele>843</ele></trkpt><trkpt lat="45.967628" lon="10.289381"><time>2025-04-28T07:01:20.000Z</time><ele>843.2</ele></trkpt><trkpt lat="45.96762" lon="10.289361"><time>2025-04-28T07:01:21.000Z</time><ele>843.2</ele></trkpt><trkpt lat="45.967622" lon="10.289351"><time>2025-04-28T07:01:22.000Z</time><ele>843.4</ele></trkpt><trkpt lat="45.967627" lon="10.289338"><time>2025-04-28T07:01:23.000Z</time><ele>843.6</ele></trkpt><trkpt lat="45.967631" lon="10.28932"><time>2025-04-28T07:01:24.000Z</time><ele>843.6</ele></trkpt><trkpt lat="45.967633" lon="10.289313"><time>2025-04-28T07:01:25.000Z</time><ele>844</ele></trkpt><trkpt lat="45.967637" lon="10.289308"><time>2025-04-28T07:01:26.000Z</time><ele>844.2</ele></trkpt><trkpt lat="45.967637" lon="10.289306"><time>2025-04-28T07:01:27.000Z</time><ele>844.4</ele></trkpt><trkpt lat="45.967622" lon="10.289312"><time>2025-04-28T07:01:28.000Z</time><ele>844.6</ele></trkpt><trkpt lat="45.967614" lon="10.289304"><time>2025-04-28T07:01:29.000Z</time><ele>844.8</ele></trkpt><trkpt lat="45.96761" lon="10.289299"><time>2025-04-28T07:01:30.000Z</time><ele>844.8</ele></trkpt><trkpt lat="45.96761" lon="10.289295"><time>2025-04-28T07:01:31.000Z</time><ele>845</ele></trkpt><trkpt lat="45.967614" lon="10.289282"><time>2025-04-28T07:01:32.000Z</time><ele>845</ele></trkpt><trkpt lat="45.967612" lon="10.289282"><time>2025-04-28T07:01:33.000Z</time><ele>845.4</ele></trkpt><trkpt lat="45.967605" lon="10.289286"><time>2025-04-28T07:01:34.000Z</time><ele>845.6</ele></trkpt><trkpt lat="45.967605" lon="10.289275"><time>2025-04-28T07:01:35.000Z</time><ele>845.8</ele></trkpt><trkpt lat="45.967604" lon="10.289272"><time>2025-04-28T07:01:36.000Z</time><ele>846</ele></trkpt><trkpt lat="45.967602" lon="10.289269"><time>2025-04-28T07:01:37.000Z</time><ele>846.2</ele></trkpt><trkpt lat="45.967592" lon="10.289265"><time>2025-04-28T07:01:38.000Z</time><ele>846.4</ele></trkpt><trkpt lat="45.967587" lon="10.289259"><time>2025-04-28T07:01:39.000Z</time><ele>846.4</ele></trkpt><trkpt lat="45.967585" lon="10.28925"><time>2025-04-28T07:01:40.000Z</time><ele>846.6</ele></trkpt><trkpt lat="45.967584" lon="10.28924"><time>2025-04-28T07:01:41.000Z</time><ele>846.8</ele></trkpt><trkpt lat="45.967579" lon="10.289232"><time>2025-04-28T07:01:42.000Z</time><ele>846.8</ele></trkpt><trkpt lat="45.967572" lon="10.289228"><time>2025-04-28T07:01:43.000Z</time><ele>847</ele></trkpt><trkpt lat="45.967562" lon="10.289216"><time>2025-04-28T07:01:44.000Z</time><ele>847</ele></trkpt><trkpt lat="45.967545" lon="10.289196"><time>2025-04-28T07:01:45.000Z</time><ele>847.2</ele></trkpt><trkpt lat="45.967544" lon="10.289183"><time>2025-04-28T07:01:46.000Z</time><ele>847.4</ele></trkpt><trkpt lat="45.96754" lon="10.289181"><time>2025-04-28T07:01:47.000Z</time><ele>847.4</ele></trkpt><trkpt lat="45.967529" lon="10.289184"><time>2025-04-28T07:01:48.000Z</time><ele>847.8</ele></trkpt><trkpt lat="45.967522" lon="10.289201"><time>2025-04-28T07:01:49.000Z</time><ele>847.8</ele></trkpt><trkpt lat="45.967524" lon="10.289203"><time>2025-04-28T07:01:50.000Z</time><ele>848</ele></trkpt><trkpt lat="45.967526" lon="10.289204"><time>2025-04-28T07:01:51.000Z</time><ele>848</ele></trkpt><trkpt lat="45.967543" lon="10.289192"><time>2025-04-28T07:01:52.000Z</time><ele>848</ele></trkpt><trkpt lat="45.967549" lon="10.289178"><time>2025-04-28T07:01:53.000Z</time><ele>848</ele></trkpt><trkpt lat="45.967582" lon="10.289187"><time>2025-04-28T07:01:54.000Z</time><ele>848</ele></trkpt><trkpt lat="45.967591" lon="10.289201"><time>2025-04-28T07:01:55.000Z</time><ele>848</ele></trkpt><trkpt lat="45.96759" lon="10.289205"><time>2025-04-28T07:01:56.000Z</time><ele>848</ele></trkpt><trkpt lat="45.967568" lon="10.289237"><time>2025-04-28T07:01:57.000Z</time><ele>848.2</ele></trkpt><trkpt lat="45.96755" lon="10.289264"><time>2025-04-28T07:01:58.000Z</time><ele>848.2</ele></trkpt><trkpt lat="45.967538" lon="10.289264"><time>2025-04-28T07:01:59.000Z</time><ele>848.4</ele></trkpt><trkpt lat="45.967523" lon="10.289269"><time>2025-04-28T07:02:00.000Z</time><ele>848.4</ele></trkpt><trkpt lat="45.967512" lon="10.289267"><time>2025-04-28T07:02:01.000Z</time><ele>848.6</ele></trkpt><trkpt lat="45.9675" lon="10.289266"><time>2025-04-28T07:02:02.000Z</time><ele>848.8</ele></trkpt><trkpt lat="45.96749" lon="10.289263"><time>2025-04-28T07:02:03.000Z</time><ele>848.8</ele></trkpt><trkpt lat="45.967485" lon="10.289258"><time>2025-04-28T07:02:04.000Z</time><ele>849</ele></trkpt><trkpt lat="45.967485" lon="10.289258"><time>2025-04-28T07:02:05.000Z</time><ele>849.2</ele></trkpt><trkpt lat="45.967487" lon="10.289258"><time>2025-04-28T07:02:06.000Z</time><ele>849.4</ele></trkpt><trkpt lat="45.967481" lon="10.289258"><time>2025-04-28T07:02:07.000Z</time><ele>849.6</ele></trkpt><trkpt lat="45.967467" lon="10.289256"><time>2025-04-28T07:02:08.000Z</time><ele>849.8</ele></trkpt><trkpt lat="45.96746" lon="10.289251"><time>2025-04-28T07:02:09.000Z</time><ele>849.8</ele></trkpt><trkpt lat="45.96746" lon="10.289242"><time>2025-04-28T07:02:10.000Z</time><ele>850</ele></trkpt><trkpt lat="45.967458" lon="10.289227"><time>2025-04-28T07:02:11.000Z</time><ele>850</ele></trkpt><trkpt lat="45.967446" lon="10.289223"><time>2025-04-28T07:02:12.000Z</time><ele>850</ele></trkpt><trkpt lat="45.967432" lon="10.289221"><time>2025-04-28T07:02:13.000Z</time><ele>850.4</ele></trkpt><trkpt lat="45.967416" lon="10.289224"><time>2025-04-28T07:02:14.000Z</time><ele>850.6</ele></trkpt><trkpt lat="45.967416" lon="10.289219"><time>2025-04-28T07:02:15.000Z</time><ele>850.6</ele></trkpt><trkpt lat="45.967419" lon="10.289221"><time>2025-04-28T07:02:16.000Z</time><ele>851</ele></trkpt><trkpt lat="45.967418" lon="10.289223"><time>2025-04-28T07:02:17.000Z</time><ele>851.4</ele></trkpt><trkpt lat="45.96742" lon="10.289219"><time>2025-04-28T07:02:18.000Z</time><ele>851.6</ele></trkpt><trkpt lat="45.967407" lon="10.289213"><time>2025-04-28T07:02:19.000Z</time><ele>851.8</ele></trkpt><trkpt lat="45.967403" lon="10.289215"><time>2025-04-28T07:02:20.000Z</time><ele>852</ele></trkpt><trkpt lat="45.967402" lon="10.289211"><time>2025-04-28T07:02:21.000Z</time><ele>852.2</ele></trkpt><trkpt lat="45.967398" lon="10.28921"><time>2025-04-28T07:02:22.000Z</time><ele>852.2</ele></trkpt><trkpt lat="45.967399" lon="10.289204"><time>2025-04-28T07:02:23.000Z</time><ele>852.4</ele></trkpt><trkpt lat="45.967396" lon="10.289201"><time>2025-04-28T07:02:24.000Z</time><ele>852.6</ele></trkpt><trkpt lat="45.967395" lon="10.289201"><time>2025-04-28T07:02:25.000Z</time><ele>852.6</ele></trkpt><trkpt lat="45.967399" lon="10.289188"><time>2025-04-28T07:02:26.000Z</time><ele>852.8</ele></trkpt><trkpt lat="45.967392" lon="10.289187"><time>2025-04-28T07:02:27.000Z</time><ele>852.8</ele></trkpt><trkpt lat="45.967383" lon="10.289187"><time>2025-04-28T07:02:28.000Z</time><ele>853</ele></trkpt><trkpt lat="45.967379" lon="10.289187"><time>2025-04-28T07:02:29.000Z</time><ele>853.2</ele></trkpt><trkpt lat="45.967377" lon="10.289185"><time>2025-04-28T07:02:30.000Z</time><ele>853.6</ele></trkpt><trkpt lat="45.967374" lon="10.289184"><time>2025-04-28T07:02:31.000Z</time><ele>853.8</ele></trkpt><trkpt lat="45.967372" lon="10.289182"><time>2025-04-28T07:02:32.000Z</time><ele>854</ele></trkpt><trkpt lat="45.967374" lon="10.28918"><time>2025-04-28T07:02:33.000Z</time><ele>854.2</ele></trkpt><trkpt lat="45.967374" lon="10.28918"><time>2025-04-28T07:02:34.000Z</time><ele>854.2</ele></trkpt><trkpt lat="45.967374" lon="10.28918"><time>2025-04-28T07:02:35.000Z</time><ele>854.6</ele></trkpt><trkpt lat="45.967374" lon="10.28918"><time>2025-04-28T07:02:36.000Z</time><ele>854.8</ele></trkpt><trkpt lat="45.967374" lon="10.28918"><time>2025-04-28T07:02:37.000Z</time><ele>854.8</ele></trkpt><trkpt lat="45.967374" lon="10.28918"><time>2025-04-28T07:02:38.000Z</time><ele>855</ele></trkpt><trkpt lat="45.967374" lon="10.28918"><time>2025-04-28T07:02:39.000Z</time><ele>855</ele></trkpt><trkpt lat="45.967374" lon="10.28918"><time>2025-04-28T07:02:40.000Z</time><ele>855.2</ele></trkpt><trkpt lat="45.967371" lon="10.28918"><time>2025-04-28T07:02:41.000Z</time><ele>855.2</ele></trkpt><trkpt lat="45.96737" lon="10.289174"><time>2025-04-28T07:02:42.000Z</time><ele>855.4</ele></trkpt><trkpt lat="45.96736" lon="10.289171"><time>2025-04-28T07:02:43.000Z</time><ele>855.6</ele></trkpt><trkpt lat="45.967349" lon="10.289169"><time>2025-04-28T07:02:44.000Z</time><ele>855.6</ele></trkpt><trkpt lat="45.967337" lon="10.289176"><time>2025-04-28T07:02:45.000Z</time><ele>855.8</ele></trkpt><trkpt lat="45.967329" lon="10.289177"><time>2025-04-28T07:02:46.000Z</time><ele>855.8</ele></trkpt><trkpt lat="45.967317" lon="10.289178"><time>2025-04-28T07:02:47.000Z</time><ele>856</ele></trkpt><trkpt lat="45.967307" lon="10.289178"><time>2025-04-28T07:02:48.000Z</time><ele>856.2</ele></trkpt><trkpt lat="45.967299" lon="10.289177"><time>2025-04-28T07:02:49.000Z</time><ele>856.4</ele></trkpt><trkpt lat="45.967292" lon="10.289176"><time>2025-04-28T07:02:50.000Z</time><ele>856.6</ele></trkpt><trkpt lat="45.967289" lon="10.289173"><time>2025-04-28T07:02:51.000Z</time><ele>856.8</ele></trkpt><trkpt lat="45.967295" lon="10.289168"><time>2025-04-28T07:02:52.000Z</time><ele>857</ele></trkpt><trkpt lat="45.967292" lon="10.289163"><time>2025-04-28T07:02:53.000Z</time><ele>857.2</ele></trkpt><trkpt lat="45.96729" lon="10.289161"><time>2025-04-28T07:02:54.000Z</time><ele>857.2</ele></trkpt><trkpt lat="45.967282" lon="10.289162"><time>2025-04-28T07:02:55.000Z</time><ele>857.6</ele></trkpt><trkpt lat="45.967277" lon="10.289152"><time>2025-04-28T07:02:56.000Z</time><ele>857.8</ele></trkpt><trkpt lat="45.967274" lon="10.289144"><time>2025-04-28T07:02:57.000Z</time><ele>858</ele></trkpt><trkpt lat="45.967277" lon="10.289138"><time>2025-04-28T07:02:58.000Z</time><ele>858</ele></trkpt><trkpt lat="45.967274" lon="10.289138"><time>2025-04-28T07:02:59.000Z</time><ele>858.4</ele></trkpt><trkpt lat="45.967266" lon="10.289147"><time>2025-04-28T07:03:00.000Z</time><ele>858.6</ele></trkpt><trkpt lat="45.967261" lon="10.28915"><time>2025-04-28T07:03:01.000Z</time><ele>858.8</ele></trkpt><trkpt lat="45.967255" lon="10.289148"><time>2025-04-28T07:03:02.000Z</time><ele>859</ele></trkpt><trkpt lat="45.967247" lon="10.289148"><time>2025-04-28T07:03:03.000Z</time><ele>859.2</ele></trkpt><trkpt lat="45.96724" lon="10.289145"><time>2025-04-28T07:03:04.000Z</time><ele>859.2</ele></trkpt><trkpt lat="45.967234" lon="10.289144"><time>2025-04-28T07:03:05.000Z</time><ele>859.4</ele></trkpt><trkpt lat="45.967215" lon="10.289144"><time>2025-04-28T07:03:06.000Z</time><ele>859.6</ele></trkpt><trkpt lat="45.967204" lon="10.289146"><time>2025-04-28T07:03:07.000Z</time><ele>859.6</ele></trkpt><trkpt lat="45.967199" lon="10.289146"><time>2025-04-28T07:03:08.000Z</time><ele>859.8</ele></trkpt><trkpt lat="45.967195" lon="10.289146"><time>2025-04-28T07:03:09.000Z</time><ele>860.2</ele></trkpt><trkpt lat="45.967187" lon="10.289141"><time>2025-04-28T07:03:10.000Z</time><ele>860.2</ele></trkpt><trkpt lat="45.967184" lon="10.289138"><time>2025-04-28T07:03:11.000Z</time><ele>860.4</ele></trkpt><trkpt lat="45.967176" lon="10.289133"><time>2025-04-28T07:03:12.000Z</time><ele>860.4</ele></trkpt><trkpt lat="45.967174" lon="10.289133"><time>2025-04-28T07:03:13.000Z</time><ele>860.4</ele></trkpt><trkpt lat="45.967169" lon="10.289132"><time>2025-04-28T07:03:14.000Z</time><ele>860.4</ele></trkpt><trkpt lat="45.967165" lon="10.289131"><time>2025-04-28T07:03:15.000Z</time><ele>860.4</ele></trkpt><trkpt lat="45.967165" lon="10.289131"><time>2025-04-28T07:03:16.000Z</time><ele>860.4</ele></trkpt><trkpt lat="45.96717" lon="10.289132"><time>2025-04-28T07:03:17.000Z</time><ele>860.4</ele></trkpt><trkpt lat="45.967173" lon="10.289133"><time>2025-04-28T07:03:18.000Z</time><ele>860.4</ele></trkpt><trkpt lat="45.967171" lon="10.289136"><time>2025-04-28T07:03:19.000Z</time><ele>860.4</ele></trkpt><trkpt lat="45.967171" lon="10.289138"><time>2025-04-28T07:03:20.000Z</time><ele>860.6</ele></trkpt><trkpt lat="45.967172" lon="10.28914"><time>2025-04-28T07:03:21.000Z</time><ele>860.6</ele></trkpt><trkpt lat="45.967173" lon="10.289142"><time>2025-04-28T07:03:22.000Z</time><ele>860.8</ele></trkpt><trkpt lat="45.967172" lon="10.289139"><time>2025-04-28T07:03:23.000Z</time><ele>861</ele></trkpt><trkpt lat="45.967171" lon="10.289136"><time>2025-04-28T07:03:24.000Z</time><ele>861.2</ele></trkpt><trkpt lat="45.967158" lon="10.289132"><time>2025-04-28T07:03:25.000Z</time><ele>861.2</ele></trkpt><trkpt lat="45.967138" lon="10.289125"><time>2025-04-28T07:03:26.000Z</time><ele>861.4</ele></trkpt><trkpt lat="45.967126" lon="10.289122"><time>2025-04-28T07:03:27.000Z</time><ele>861.6</ele></trkpt><trkpt lat="45.967118" lon="10.289119"><time>2025-04-28T07:03:28.000Z</time><ele>861.6</ele></trkpt><trkpt lat="45.967106" lon="10.289113"><time>2025-04-28T07:03:29.000Z</time><ele>861.6</ele></trkpt><trkpt lat="45.9671" lon="10.289118"><time>2025-04-28T07:03:30.000Z</time><ele>861.8</ele></trkpt><trkpt lat="45.967097" lon="10.289123"><time>2025-04-28T07:03:31.000Z</time><ele>862</ele></trkpt><trkpt lat="45.967092" lon="10.289124"><time>2025-04-28T07:03:32.000Z</time><ele>862.4</ele></trkpt><trkpt lat="45.967089" lon="10.289118"><time>2025-04-28T07:03:33.000Z</time><ele>862.6</ele></trkpt><trkpt lat="45.967085" lon="10.289111"><time>2025-04-28T07:03:34.000Z</time><ele>862.8</ele></trkpt><trkpt lat="45.967078" lon="10.289111"><time>2025-04-28T07:03:35.000Z</time><ele>863</ele></trkpt><trkpt lat="45.967074" lon="10.289111"><time>2025-04-28T07:03:36.000Z</time><ele>863</ele></trkpt><trkpt lat="45.96707" lon="10.28911"><time>2025-04-28T07:03:37.000Z</time><ele>863</ele></trkpt><trkpt lat="45.967066" lon="10.289112"><time>2025-04-28T07:03:38.000Z</time><ele>863.4</ele></trkpt><trkpt lat="45.967066" lon="10.289112"><time>2025-04-28T07:03:39.000Z</time><ele>863.4</ele></trkpt><trkpt lat="45.967064" lon="10.289116"><time>2025-04-28T07:03:40.000Z</time><ele>863.6</ele></trkpt><trkpt lat="45.967064" lon="10.28912"><time>2025-04-28T07:03:41.000Z</time><ele>863.8</ele></trkpt><trkpt lat="45.967061" lon="10.289124"><time>2025-04-28T07:03:42.000Z</time><ele>864</ele></trkpt><trkpt lat="45.967065" lon="10.289127"><time>2025-04-28T07:03:43.000Z</time><ele>864.2</ele></trkpt><trkpt lat="45.967068" lon="10.289127"><time>2025-04-28T07:03:44.000Z</time><ele>864.2</ele></trkpt><trkpt lat="45.967064" lon="10.289125"><time>2025-04-28T07:03:45.000Z</time><ele>864.4</ele></trkpt><trkpt lat="45.967062" lon="10.289118"><time>2025-04-28T07:03:46.000Z</time><ele>864.6</ele></trkpt><trkpt lat="45.967058" lon="10.28912"><time>2025-04-28T07:03:47.000Z</time><ele>864.6</ele></trkpt><trkpt lat="45.967061" lon="10.289118"><time>2025-04-28T07:03:48.000Z</time><ele>864.8</ele></trkpt><trkpt lat="45.967063" lon="10.289122"><time>2025-04-28T07:03:49.000Z</time><ele>865</ele></trkpt><trkpt lat="45.967065" lon="10.289127"><time>2025-04-28T07:03:50.000Z</time><ele>865.2</ele></trkpt><trkpt lat="45.967063" lon="10.289125"><time>2025-04-28T07:03:51.000Z</time><ele>865.4</ele></trkpt><trkpt lat="45.96706" lon="10.289127"><time>2025-04-28T07:03:52.000Z</time><ele>865.4</ele></trkpt><trkpt lat="45.967058" lon="10.289129"><time>2025-04-28T07:03:53.000Z</time><ele>865.6</ele></trkpt><trkpt lat="45.967057" lon="10.289129"><time>2025-04-28T07:03:54.000Z</time><ele>865.6</ele></trkpt><trkpt lat="45.967054" lon="10.289129"><time>2025-04-28T07:03:55.000Z</time><ele>865.8</ele></trkpt><trkpt lat="45.967056" lon="10.289146"><time>2025-04-28T07:03:56.000Z</time><ele>866</ele></trkpt><trkpt lat="45.96706" lon="10.289164"><time>2025-04-28T07:03:57.000Z</time><ele>866.2</ele></trkpt><trkpt lat="45.967076" lon="10.289179"><time>2025-04-28T07:03:58.000Z</time><ele>866.4</ele></trkpt><trkpt lat="45.967073" lon="10.289192"><time>2025-04-28T07:03:59.000Z</time><ele>866.4</ele></trkpt><trkpt lat="45.967067" lon="10.289198"><time>2025-04-28T07:04:00.000Z</time><ele>866.4</ele></trkpt><trkpt lat="45.967054" lon="10.289198"><time>2025-04-28T07:04:01.000Z</time><ele>866.6</ele></trkpt><trkpt lat="45.967045" lon="10.289196"><time>2025-04-28T07:04:02.000Z</time><ele>866.6</ele></trkpt><trkpt lat="45.967036" lon="10.289201"><time>2025-04-28T07:04:03.000Z</time><ele>866.8</ele></trkpt><trkpt lat="45.96703" lon="10.289205"><time>2025-04-28T07:04:04.000Z</time><ele>867</ele></trkpt><trkpt lat="45.967022" lon="10.289214"><time>2025-04-28T07:04:05.000Z</time><ele>867.2</ele></trkpt><trkpt lat="45.967013" lon="10.289223"><time>2025-04-28T07:04:06.000Z</time><ele>867.4</ele></trkpt><trkpt lat="45.966997" lon="10.289223"><time>2025-04-28T07:04:07.000Z</time><ele>867.4</ele></trkpt><trkpt lat="45.966987" lon="10.289221"><time>2025-04-28T07:04:08.000Z</time><ele>867.6</ele></trkpt><trkpt lat="45.966978" lon="10.289222"><time>2025-04-28T07:04:09.000Z</time><ele>867.8</ele></trkpt><trkpt lat="45.966971" lon="10.289221"><time>2025-04-28T07:04:10.000Z</time><ele>868</ele></trkpt><trkpt lat="45.966964" lon="10.289215"><time>2025-04-28T07:04:11.000Z</time><ele>868.2</ele></trkpt><trkpt lat="45.966958" lon="10.289212"><time>2025-04-28T07:04:12.000Z</time><ele>868.4</ele></trkpt><trkpt lat="45.966957" lon="10.289215"><time>2025-04-28T07:04:13.000Z</time><ele>868.4</ele></trkpt><trkpt lat="45.966955" lon="10.289217"><time>2025-04-28T07:04:14.000Z</time><ele>868.6</ele></trkpt><trkpt lat="45.966949" lon="10.289221"><time>2025-04-28T07:04:15.000Z</time><ele>868.6</ele></trkpt><trkpt lat="45.966946" lon="10.289227"><time>2025-04-28T07:04:16.000Z</time><ele>868.6</ele></trkpt><trkpt lat="45.96694" lon="10.289227"><time>2025-04-28T07:04:17.000Z</time><ele>868.8</ele></trkpt><trkpt lat="45.966938" lon="10.289228"><time>2025-04-28T07:04:18.000Z</time><ele>869.2</ele></trkpt><trkpt lat="45.966934" lon="10.289227"><time>2025-04-28T07:04:19.000Z</time><ele>869.6</ele></trkpt><trkpt lat="45.966927" lon="10.289228"><time>2025-04-28T07:04:20.000Z</time><ele>869.8</ele></trkpt><trkpt lat="45.96692" lon="10.289225"><time>2025-04-28T07:04:21.000Z</time><ele>870</ele></trkpt><trkpt lat="45.966917" lon="10.289225"><time>2025-04-28T07:04:22.000Z</time><ele>870</ele></trkpt><trkpt lat="45.966928" lon="10.289231"><time>2025-04-28T07:04:23.000Z</time><ele>870.2</ele></trkpt><trkpt lat="45.96693" lon="10.289235"><time>2025-04-28T07:04:24.000Z</time><ele>870.4</ele></trkpt><trkpt lat="45.966933" lon="10.289241"><time>2025-04-28T07:04:25.000Z</time><ele>870.6</ele></trkpt><trkpt lat="45.966935" lon="10.289246"><time>2025-04-28T07:04:26.000Z</time><ele>870.8</ele></trkpt><trkpt lat="45.966936" lon="10.289247"><time>2025-04-28T07:04:27.000Z</time><ele>870.8</ele></trkpt><trkpt lat="45.966935" lon="10.289244"><time>2025-04-28T07:04:28.000Z</time><ele>870.8</ele></trkpt><trkpt lat="45.966932" lon="10.289243"><time>2025-04-28T07:04:29.000Z</time><ele>871</ele></trkpt><trkpt lat="45.966931" lon="10.289242"><time>2025-04-28T07:04:30.000Z</time><ele>871.2</ele></trkpt><trkpt lat="45.966931" lon="10.289244"><time>2025-04-28T07:04:31.000Z</time><ele>871.4</ele></trkpt><trkpt lat="45.966934" lon="10.289249"><time>2025-04-28T07:04:32.000Z</time><ele>871.6</ele></trkpt><trkpt lat="45.966933" lon="10.28925"><time>2025-04-28T07:04:33.000Z</time><ele>871.8</ele></trkpt><trkpt lat="45.966932" lon="10.28925"><time>2025-04-28T07:04:34.000Z</time><ele>872</ele></trkpt><trkpt lat="45.966932" lon="10.289249"><time>2025-04-28T07:04:35.000Z</time><ele>872.2</ele></trkpt><trkpt lat="45.96693" lon="10.289249"><time>2025-04-28T07:04:36.000Z</time><ele>872.2</ele></trkpt><trkpt lat="45.966929" lon="10.289246"><time>2025-04-28T07:04:37.000Z</time><ele>872.4</ele></trkpt><trkpt lat="45.966931" lon="10.289238"><time>2025-04-28T07:04:38.000Z</time><ele>872.6</ele></trkpt><trkpt lat="45.966937" lon="10.289235"><time>2025-04-28T07:04:39.000Z</time><ele>872.8</ele></trkpt><trkpt lat="45.966938" lon="10.289233"><time>2025-04-28T07:04:40.000Z</time><ele>872.8</ele></trkpt><trkpt lat="45.966938" lon="10.289237"><time>2025-04-28T07:04:41.000Z</time><ele>873</ele></trkpt><trkpt lat="45.966939" lon="10.289238"><time>2025-04-28T07:04:42.000Z</time><ele>873.2</ele></trkpt><trkpt lat="45.966932" lon="10.289238"><time>2025-04-28T07:04:43.000Z</time><ele>873.2</ele></trkpt><trkpt lat="45.966928" lon="10.289241"><time>2025-04-28T07:04:44.000Z</time><ele>873.4</ele></trkpt><trkpt lat="45.966927" lon="10.289246"><time>2025-04-28T07:04:45.000Z</time><ele>873.6</ele></trkpt><trkpt lat="45.966923" lon="10.28925"><time>2025-04-28T07:04:46.000Z</time><ele>873.6</ele></trkpt><trkpt lat="45.96692" lon="10.289252"><time>2025-04-28T07:04:47.000Z</time><ele>873.8</ele></trkpt><trkpt lat="45.966918" lon="10.289252"><time>2025-04-28T07:04:48.000Z</time><ele>874</ele></trkpt><trkpt lat="45.966916" lon="10.289249"><time>2025-04-28T07:04:49.000Z</time><ele>874.2</ele></trkpt><trkpt lat="45.966902" lon="10.289246"><time>2025-04-28T07:04:50.000Z</time><ele>874.4</ele></trkpt><trkpt lat="45.966882" lon="10.289244"><time>2025-04-28T07:04:51.000Z</time><ele>874.6</ele></trkpt><trkpt lat="45.966881" lon="10.289246"><time>2025-04-28T07:04:52.000Z</time><ele>874.6</ele></trkpt><trkpt lat="45.96688" lon="10.289247"><time>2025-04-28T07:04:53.000Z</time><ele>874.6</ele></trkpt><trkpt lat="45.966879" lon="10.289247"><time>2025-04-28T07:04:54.000Z</time><ele>874.6</ele></trkpt><trkpt lat="45.966879" lon="10.289247"><time>2025-04-28T07:04:55.000Z</time><ele>874.8</ele></trkpt><trkpt lat="45.966879" lon="10.289247"><time>2025-04-28T07:04:56.000Z</time><ele>875.2</ele></trkpt><trkpt lat="45.96688" lon="10.289245"><time>2025-04-28T07:04:57.000Z</time><ele>875.4</ele></trkpt><trkpt lat="45.96688" lon="10.289241"><time>2025-04-28T07:04:58.000Z</time><ele>875.4</ele></trkpt><trkpt lat="45.966881" lon="10.28924"><time>2025-04-28T07:04:59.000Z</time><ele>875.6</ele></trkpt><trkpt lat="45.966887" lon="10.289242"><time>2025-04-28T07:05:00.000Z</time><ele>875.8</ele></trkpt><trkpt lat="45.966875" lon="10.289237"><time>2025-04-28T07:05:01.000Z</time><ele>876</ele></trkpt><trkpt lat="45.966866" lon="10.289241"><time>2025-04-28T07:05:02.000Z</time><ele>876.2</ele></trkpt><trkpt lat="45.966869" lon="10.289248"><time>2025-04-28T07:05:03.000Z</time><ele>876.4</ele></trkpt><trkpt lat="45.966859" lon="10.289249"><time>2025-04-28T07:05:04.000Z</time><ele>876.6</ele></trkpt><trkpt lat="45.966846" lon="10.289246"><time>2025-04-28T07:05:05.000Z</time><ele>876.6</ele></trkpt><trkpt lat="45.966826" lon="10.289249"><time>2025-04-28T07:05:06.000Z</time><ele>876.8</ele></trkpt><trkpt lat="45.966811" lon="10.289251"><time>2025-04-28T07:05:07.000Z</time><ele>876.8</ele></trkpt><trkpt lat="45.966801" lon="10.289252"><time>2025-04-28T07:05:08.000Z</time><ele>877</ele></trkpt><trkpt lat="45.966798" lon="10.289252"><time>2025-04-28T07:05:09.000Z</time><ele>877.2</ele></trkpt><trkpt lat="45.966797" lon="10.289254"><time>2025-04-28T07:05:10.000Z</time><ele>877.4</ele></trkpt><trkpt lat="45.966805" lon="10.289263"><time>2025-04-28T07:05:11.000Z</time><ele>877.6</ele></trkpt><trkpt lat="45.966809" lon="10.289273"><time>2025-04-28T07:05:12.000Z</time><ele>877.8</ele></trkpt><trkpt lat="45.966803" lon="10.289275"><time>2025-04-28T07:05:13.000Z</time><ele>877.8</ele></trkpt><trkpt lat="45.966794" lon="10.289279"><time>2025-04-28T07:05:14.000Z</time><ele>878</ele></trkpt><trkpt lat="45.966791" lon="10.289283"><time>2025-04-28T07:05:15.000Z</time><ele>878.4</ele></trkpt><trkpt lat="45.966784" lon="10.289287"><time>2025-04-28T07:05:16.000Z</time><ele>878.6</ele></trkpt><trkpt lat="45.96678" lon="10.28929"><time>2025-04-28T07:05:17.000Z</time><ele>878.8</ele></trkpt><trkpt lat="45.966776" lon="10.289292"><time>2025-04-28T07:05:18.000Z</time><ele>879</ele></trkpt><trkpt lat="45.966775" lon="10.289294"><time>2025-04-28T07:05:19.000Z</time><ele>879.2</ele></trkpt><trkpt lat="45.966769" lon="10.289294"><time>2025-04-28T07:05:20.000Z</time><ele>879.4</ele></trkpt><trkpt lat="45.966761" lon="10.289295"><time>2025-04-28T07:05:21.000Z</time><ele>879.6</ele></trkpt><trkpt lat="45.966751" lon="10.289298"><time>2025-04-28T07:05:22.000Z</time><ele>879.6</ele></trkpt><trkpt lat="45.966758" lon="10.289305"><time>2025-04-28T07:05:23.000Z</time><ele>879.8</ele></trkpt><trkpt lat="45.96676" lon="10.289311"><time>2025-04-28T07:05:24.000Z</time><ele>880</ele></trkpt><trkpt lat="45.966757" lon="10.289318"><time>2025-04-28T07:05:25.000Z</time><ele>880.2</ele></trkpt><trkpt lat="45.966747" lon="10.289324"><time>2025-04-28T07:05:26.000Z</time><ele>880.2</ele></trkpt><trkpt lat="45.966744" lon="10.289331"><time>2025-04-28T07:05:27.000Z</time><ele>880.6</ele></trkpt><trkpt lat="45.966741" lon="10.28934"><time>2025-04-28T07:05:28.000Z</time><ele>880.8</ele></trkpt><trkpt lat="45.966734" lon="10.289337"><time>2025-04-28T07:05:29.000Z</time><ele>881</ele></trkpt><trkpt lat="45.966726" lon="10.289332"><time>2025-04-28T07:05:30.000Z</time><ele>881</ele></trkpt><trkpt lat="45.966714" lon="10.289335"><time>2025-04-28T07:05:31.000Z</time><ele>881.4</ele></trkpt><trkpt lat="45.966694" lon="10.289336"><time>2025-04-28T07:05:32.000Z</time><ele>881.8</ele></trkpt><trkpt lat="45.966687" lon="10.289339"><time>2025-04-28T07:05:33.000Z</time><ele>882</ele></trkpt><trkpt lat="45.966688" lon="10.289338"><time>2025-04-28T07:05:34.000Z</time><ele>882</ele></trkpt><trkpt lat="45.966684" lon="10.289339"><time>2025-04-28T07:05:35.000Z</time><ele>882.2</ele></trkpt><trkpt lat="45.966671" lon="10.289343"><time>2025-04-28T07:05:36.000Z</time><ele>882.4</ele></trkpt><trkpt lat="45.966657" lon="10.289343"><time>2025-04-28T07:05:37.000Z</time><ele>882.8</ele></trkpt><trkpt lat="45.966656" lon="10.289343"><time>2025-04-28T07:05:38.000Z</time><ele>883.2</ele></trkpt><trkpt lat="45.96666" lon="10.289356"><time>2025-04-28T07:05:39.000Z</time><ele>883.2</ele></trkpt><trkpt lat="45.966657" lon="10.289356"><time>2025-04-28T07:05:40.000Z</time><ele>883.4</ele></trkpt><trkpt lat="45.966664" lon="10.289354"><time>2025-04-28T07:05:41.000Z</time><ele>883.8</ele></trkpt><trkpt lat="45.966668" lon="10.28935"><time>2025-04-28T07:05:42.000Z</time><ele>883.8</ele></trkpt><trkpt lat="45.966663" lon="10.289347"><time>2025-04-28T07:05:43.000Z</time><ele>884</ele></trkpt><trkpt lat="45.96666" lon="10.289352"><time>2025-04-28T07:05:44.000Z</time><ele>884</ele></trkpt><trkpt lat="45.966657" lon="10.28935"><time>2025-04-28T07:05:45.000Z</time><ele>884.2</ele></trkpt><trkpt lat="45.966656" lon="10.289349"><time>2025-04-28T07:05:46.000Z</time><ele>884.2</ele></trkpt><trkpt lat="45.966647" lon="10.289353"><time>2025-04-28T07:05:47.000Z</time><ele>884.4</ele></trkpt><trkpt lat="45.966633" lon="10.289345"><time>2025-04-28T07:05:48.000Z</time><ele>884.8</ele></trkpt><trkpt lat="45.966625" lon="10.289335"><time>2025-04-28T07:05:49.000Z</time><ele>885</ele></trkpt><trkpt lat="45.966615" lon="10.289327"><time>2025-04-28T07:05:50.000Z</time><ele>885.2</ele></trkpt><trkpt lat="45.966605" lon="10.289319"><time>2025-04-28T07:05:51.000Z</time><ele>885.4</ele></trkpt><trkpt lat="45.966601" lon="10.289315"><time>2025-04-28T07:05:52.000Z</time><ele>885.6</ele></trkpt><trkpt lat="45.966607" lon="10.289309"><time>2025-04-28T07:05:53.000Z</time><ele>885.8</ele></trkpt><trkpt lat="45.966599" lon="10.289297"><time>2025-04-28T07:05:54.000Z</time><ele>885.8</ele></trkpt><trkpt lat="45.966601" lon="10.289293"><time>2025-04-28T07:05:55.000Z</time><ele>886.2</ele></trkpt><trkpt lat="45.966587" lon="10.289292"><time>2025-04-28T07:05:56.000Z</time><ele>886.4</ele></trkpt><trkpt lat="45.966584" lon="10.289288"><time>2025-04-28T07:05:57.000Z</time><ele>886.6</ele></trkpt><trkpt lat="45.966577" lon="10.289289"><time>2025-04-28T07:05:58.000Z</time><ele>886.8</ele></trkpt><trkpt lat="45.966572" lon="10.289293"><time>2025-04-28T07:05:59.000Z</time><ele>886.8</ele></trkpt><trkpt lat="45.966571" lon="10.289296"><time>2025-04-28T07:06:00.000Z</time><ele>887</ele></trkpt><trkpt lat="45.966569" lon="10.289292"><time>2025-04-28T07:06:01.000Z</time><ele>887.2</ele></trkpt><trkpt lat="45.966584" lon="10.289302"><time>2025-04-28T07:06:02.000Z</time><ele>887.4</ele></trkpt><trkpt lat="45.966584" lon="10.289298"><time>2025-04-28T07:06:03.000Z</time><ele>887.4</ele></trkpt><trkpt lat="45.966581" lon="10.28929"><time>2025-04-28T07:06:04.000Z</time><ele>887.6</ele></trkpt><trkpt lat="45.966581" lon="10.289287"><time>2025-04-28T07:06:05.000Z</time><ele>887.8</ele></trkpt><trkpt lat="45.966573" lon="10.28928"><time>2025-04-28T07:06:06.000Z</time><ele>887.8</ele></trkpt><trkpt lat="45.966569" lon="10.289276"><time>2025-04-28T07:06:07.000Z</time><ele>887.8</ele></trkpt><trkpt lat="45.966565" lon="10.28927"><time>2025-04-28T07:06:08.000Z</time><ele>888</ele></trkpt><trkpt lat="45.966559" lon="10.289267"><time>2025-04-28T07:06:09.000Z</time><ele>888.2</ele></trkpt><trkpt lat="45.966553" lon="10.289261"><time>2025-04-28T07:06:10.000Z</time><ele>888.4</ele></trkpt><trkpt lat="45.966554" lon="10.289256"><time>2025-04-28T07:06:11.000Z</time><ele>888.6</ele></trkpt><trkpt lat="45.966555" lon="10.28925"><time>2025-04-28T07:06:12.000Z</time><ele>888.8</ele></trkpt><trkpt lat="45.966557" lon="10.289246"><time>2025-04-28T07:06:13.000Z</time><ele>889</ele></trkpt><trkpt lat="45.966555" lon="10.28924"><time>2025-04-28T07:06:14.000Z</time><ele>889.2</ele></trkpt><trkpt lat="45.966549" lon="10.289242"><time>2025-04-28T07:06:15.000Z</time><ele>889.4</ele></trkpt><trkpt lat="45.966535" lon="10.28924"><time>2025-04-28T07:06:16.000Z</time><ele>889.6</ele></trkpt><trkpt lat="45.966525" lon="10.289239"><time>2025-04-28T07:06:17.000Z</time><ele>889.6</ele></trkpt><trkpt lat="45.96652" lon="10.289235"><time>2025-04-28T07:06:18.000Z</time><ele>890</ele></trkpt><trkpt lat="45.966514" lon="10.28923"><time>2025-04-28T07:06:19.000Z</time><ele>890</ele></trkpt><trkpt lat="45.966505" lon="10.28922"><time>2025-04-28T07:06:20.000Z</time><ele>890.4</ele></trkpt><trkpt lat="45.966496" lon="10.289218"><time>2025-04-28T07:06:21.000Z</time><ele>890.6</ele></trkpt><trkpt lat="45.966491" lon="10.289215"><time>2025-04-28T07:06:22.000Z</time><ele>890.8</ele></trkpt><trkpt lat="45.966482" lon="10.289212"><time>2025-04-28T07:06:23.000Z</time><ele>891</ele></trkpt><trkpt lat="45.966473" lon="10.289214"><time>2025-04-28T07:06:24.000Z</time><ele>891</ele></trkpt><trkpt lat="45.966473" lon="10.289216"><time>2025-04-28T07:06:25.000Z</time><ele>891.2</ele></trkpt><trkpt lat="45.966471" lon="10.289207"><time>2025-04-28T07:06:26.000Z</time><ele>891.4</ele></trkpt><trkpt lat="45.966464" lon="10.289195"><time>2025-04-28T07:06:27.000Z</time><ele>891.6</ele></trkpt><trkpt lat="45.966458" lon="10.289188"><time>2025-04-28T07:06:28.000Z</time><ele>891.8</ele></trkpt><trkpt lat="45.966454" lon="10.289181"><time>2025-04-28T07:06:29.000Z</time><ele>892</ele></trkpt><trkpt lat="45.96645" lon="10.289177"><time>2025-04-28T07:06:30.000Z</time><ele>892.2</ele></trkpt><trkpt lat="45.966451" lon="10.289168"><time>2025-04-28T07:06:31.000Z</time><ele>892.2</ele></trkpt><trkpt lat="45.966451" lon="10.289167"><time>2025-04-28T07:06:32.000Z</time><ele>892.6</ele></trkpt><trkpt lat="45.96645" lon="10.289162"><time>2025-04-28T07:06:33.000Z</time><ele>892.6</ele></trkpt><trkpt lat="45.966443" lon="10.289159"><time>2025-04-28T07:06:34.000Z</time><ele>892.8</ele></trkpt><trkpt lat="45.966444" lon="10.289156"><time>2025-04-28T07:06:35.000Z</time><ele>893</ele></trkpt><trkpt lat="45.966453" lon="10.289148"><time>2025-04-28T07:06:36.000Z</time><ele>893</ele></trkpt><trkpt lat="45.966454" lon="10.289138"><time>2025-04-28T07:06:37.000Z</time><ele>893.2</ele></trkpt><trkpt lat="45.966449" lon="10.289129"><time>2025-04-28T07:06:38.000Z</time><ele>893.4</ele></trkpt><trkpt lat="45.966445" lon="10.289122"><time>2025-04-28T07:06:39.000Z</time><ele>893.4</ele></trkpt><trkpt lat="45.966441" lon="10.289108"><time>2025-04-28T07:06:40.000Z</time><ele>893.4</ele></trkpt><trkpt lat="45.96644" lon="10.289099"><time>2025-04-28T07:06:41.000Z</time><ele>893.6</ele></trkpt><trkpt lat="45.966439" lon="10.289093"><time>2025-04-28T07:06:42.000Z</time><ele>893.6</ele></trkpt><trkpt lat="45.966431" lon="10.289098"><time>2025-04-28T07:06:43.000Z</time><ele>893.6</ele></trkpt><trkpt lat="45.966425" lon="10.289095"><time>2025-04-28T07:06:44.000Z</time><ele>893.8</ele></trkpt><trkpt lat="45.966412" lon="10.289083"><time>2025-04-28T07:06:45.000Z</time><ele>894</ele></trkpt><trkpt lat="45.966404" lon="10.289073"><time>2025-04-28T07:06:46.000Z</time><ele>894</ele></trkpt><trkpt lat="45.9664" lon="10.289066"><time>2025-04-28T07:06:47.000Z</time><ele>894.4</ele></trkpt><trkpt lat="45.966398" lon="10.289061"><time>2025-04-28T07:06:48.000Z</time><ele>894.4</ele></trkpt><trkpt lat="45.9664" lon="10.289055"><time>2025-04-28T07:06:49.000Z</time><ele>894.6</ele></trkpt><trkpt lat="45.966401" lon="10.289048"><time>2025-04-28T07:06:50.000Z</time><ele>894.6</ele></trkpt><trkpt lat="45.966397" lon="10.289047"><time>2025-04-28T07:06:51.000Z</time><ele>894.8</ele></trkpt><trkpt lat="45.966393" lon="10.289048"><time>2025-04-28T07:06:52.000Z</time><ele>895</ele></trkpt><trkpt lat="45.966387" lon="10.289037"><time>2025-04-28T07:06:53.000Z</time><ele>895</ele></trkpt><trkpt lat="45.966381" lon="10.289023"><time>2025-04-28T07:06:54.000Z</time><ele>895</ele></trkpt><trkpt lat="45.966367" lon="10.289008"><time>2025-04-28T07:06:55.000Z</time><ele>895.2</ele></trkpt><trkpt lat="45.96637" lon="10.288994"><time>2025-04-28T07:06:56.000Z</time><ele>895.2</ele></trkpt><trkpt lat="45.966372" lon="10.288987"><time>2025-04-28T07:06:57.000Z</time><ele>895.4</ele></trkpt><trkpt lat="45.966367" lon="10.288968"><time>2025-04-28T07:06:58.000Z</time><ele>895.4</ele></trkpt><trkpt lat="45.96634" lon="10.288962"><time>2025-04-28T07:06:59.000Z</time><ele>895.6</ele></trkpt><trkpt lat="45.966332" lon="10.288958"><time>2025-04-28T07:07:00.000Z</time><ele>895.8</ele></trkpt><trkpt lat="45.96633" lon="10.288955"><time>2025-04-28T07:07:01.000Z</time><ele>896.2</ele></trkpt><trkpt lat="45.966338" lon="10.288951"><time>2025-04-28T07:07:02.000Z</time><ele>896.4</ele></trkpt><trkpt lat="45.966323" lon="10.288934"><time>2025-04-28T07:07:03.000Z</time><ele>896.6</ele></trkpt><trkpt lat="45.966314" lon="10.288924"><time>2025-04-28T07:07:04.000Z</time><ele>896.6</ele></trkpt><trkpt lat="45.966313" lon="10.288913"><time>2025-04-28T07:07:05.000Z</time><ele>896.8</ele></trkpt><trkpt lat="45.966306" lon="10.288901"><time>2025-04-28T07:07:06.000Z</time><ele>897</ele></trkpt><trkpt lat="45.966296" lon="10.288904"><time>2025-04-28T07:07:07.000Z</time><ele>897.2</ele></trkpt><trkpt lat="45.966303" lon="10.288897"><time>2025-04-28T07:07:08.000Z</time><ele>897.2</ele></trkpt><trkpt lat="45.966313" lon="10.288895"><time>2025-04-28T07:07:09.000Z</time><ele>897.4</ele></trkpt><trkpt lat="45.966323" lon="10.288883"><time>2025-04-28T07:07:10.000Z</time><ele>897.4</ele></trkpt><trkpt lat="45.966325" lon="10.288878"><time>2025-04-28T07:07:11.000Z</time><ele>897.6</ele></trkpt><trkpt lat="45.966323" lon="10.288876"><time>2025-04-28T07:07:12.000Z</time><ele>897.8</ele></trkpt><trkpt lat="45.966316" lon="10.288868"><time>2025-04-28T07:07:13.000Z</time><ele>897.8</ele></trkpt><trkpt lat="45.966314" lon="10.288863"><time>2025-04-28T07:07:14.000Z</time><ele>897.8</ele></trkpt><trkpt lat="45.966316" lon="10.288849"><time>2025-04-28T07:07:15.000Z</time><ele>897.8</ele></trkpt><trkpt lat="45.96631" lon="10.288841"><time>2025-04-28T07:07:16.000Z</time><ele>897.8</ele></trkpt><trkpt lat="45.966296" lon="10.28884"><time>2025-04-28T07:07:17.000Z</time><ele>897.8</ele></trkpt><trkpt lat="45.966292" lon="10.288836"><time>2025-04-28T07:07:18.000Z</time><ele>897.8</ele></trkpt><trkpt lat="45.966278" lon="10.288843"><time>2025-04-28T07:07:19.000Z</time><ele>898</ele></trkpt><trkpt lat="45.966261" lon="10.28884"><time>2025-04-28T07:07:20.000Z</time><ele>898</ele></trkpt><trkpt lat="45.966252" lon="10.288829"><time>2025-04-28T07:07:21.000Z</time><ele>898</ele></trkpt><trkpt lat="45.966249" lon="10.288818"><time>2025-04-28T07:07:22.000Z</time><ele>898.2</ele></trkpt><trkpt lat="45.966247" lon="10.288814"><time>2025-04-28T07:07:23.000Z</time><ele>898.6</ele></trkpt><trkpt lat="45.966249" lon="10.288804"><time>2025-04-28T07:07:24.000Z</time><ele>898.6</ele></trkpt><trkpt lat="45.966238" lon="10.288786"><time>2025-04-28T07:07:25.000Z</time><ele>898.8</ele></trkpt><trkpt lat="45.966222" lon="10.288769"><time>2025-04-28T07:07:26.000Z</time><ele>899</ele></trkpt><trkpt lat="45.966222" lon="10.288766"><time>2025-04-28T07:07:27.000Z</time><ele>899</ele></trkpt><trkpt lat="45.966221" lon="10.288752"><time>2025-04-28T07:07:28.000Z</time><ele>899.2</ele></trkpt><trkpt lat="45.966205" lon="10.288761"><time>2025-04-28T07:07:29.000Z</time><ele>899.4</ele></trkpt><trkpt lat="45.966189" lon="10.288771"><time>2025-04-28T07:07:30.000Z</time><ele>899.6</ele></trkpt><trkpt lat="45.966181" lon="10.288775"><time>2025-04-28T07:07:31.000Z</time><ele>899.6</ele></trkpt><trkpt lat="45.966178" lon="10.28878"><time>2025-04-28T07:07:32.000Z</time><ele>899.6</ele></trkpt><trkpt lat="45.966177" lon="10.288783"><time>2025-04-28T07:07:33.000Z</time><ele>899.8</ele></trkpt><trkpt lat="45.966159" lon="10.28876"><time>2025-04-28T07:07:34.000Z</time><ele>899.8</ele></trkpt><trkpt lat="45.966155" lon="10.288762"><time>2025-04-28T07:07:35.000Z</time><ele>899.8</ele></trkpt><trkpt lat="45.966135" lon="10.288724"><time>2025-04-28T07:07:36.000Z</time><ele>899.8</ele></trkpt><trkpt lat="45.966113" lon="10.288682"><time>2025-04-28T07:07:37.000Z</time><ele>900</ele></trkpt><trkpt lat="45.966091" lon="10.288654"><time>2025-04-28T07:07:38.000Z</time><ele>900</ele></trkpt><trkpt lat="45.966089" lon="10.28865"><time>2025-04-28T07:07:39.000Z</time><ele>900.2</ele></trkpt><trkpt lat="45.966089" lon="10.288648"><time>2025-04-28T07:07:40.000Z</time><ele>900.2</ele></trkpt><trkpt lat="45.966089" lon="10.288645"><time>2025-04-28T07:07:41.000Z</time><ele>900.2</ele></trkpt><trkpt lat="45.966076" lon="10.288643"><time>2025-04-28T07:07:42.000Z</time><ele>900.6</ele></trkpt><trkpt lat="45.966053" lon="10.28863"><time>2025-04-28T07:07:43.000Z</time><ele>900.8</ele></trkpt><trkpt lat="45.96604" lon="10.288621"><time>2025-04-28T07:07:44.000Z</time><ele>901</ele></trkpt><trkpt lat="45.966036" lon="10.288614"><time>2025-04-28T07:07:45.000Z</time><ele>901</ele></trkpt><trkpt lat="45.966037" lon="10.288606"><time>2025-04-28T07:07:46.000Z</time><ele>901.2</ele></trkpt><trkpt lat="45.966039" lon="10.288597"><time>2025-04-28T07:07:47.000Z</time><ele>901.2</ele></trkpt><trkpt lat="45.96604" lon="10.288594"><time>2025-04-28T07:07:48.000Z</time><ele>901.2</ele></trkpt><trkpt lat="45.966034" lon="10.288587"><time>2025-04-28T07:07:49.000Z</time><ele>901.2</ele></trkpt><trkpt lat="45.966028" lon="10.28858"><time>2025-04-28T07:07:50.000Z</time><ele>901.4</ele></trkpt><trkpt lat="45.96603" lon="10.288576"><time>2025-04-28T07:07:51.000Z</time><ele>901.8</ele></trkpt><trkpt lat="45.966034" lon="10.288574"><time>2025-04-28T07:07:52.000Z</time><ele>902</ele></trkpt><trkpt lat="45.966031" lon="10.288578"><time>2025-04-28T07:07:53.000Z</time><ele>902.2</ele></trkpt><trkpt lat="45.96602" lon="10.288573"><time>2025-04-28T07:07:54.000Z</time><ele>902.4</ele></trkpt><trkpt lat="45.966017" lon="10.288577"><time>2025-04-28T07:07:55.000Z</time><ele>902.6</ele></trkpt><trkpt lat="45.966018" lon="10.28858"><time>2025-04-28T07:07:56.000Z</time><ele>902.6</ele></trkpt><trkpt lat="45.966014" lon="10.288566"><time>2025-04-28T07:07:57.000Z</time><ele>902.8</ele></trkpt><trkpt lat="45.966001" lon="10.288576"><time>2025-04-28T07:07:58.000Z</time><ele>902.8</ele></trkpt><trkpt lat="45.965994" lon="10.288576"><time>2025-04-28T07:07:59.000Z</time><ele>902.8</ele></trkpt><trkpt lat="45.965985" lon="10.288573"><time>2025-04-28T07:08:00.000Z</time><ele>902.8</ele></trkpt><trkpt lat="45.965986" lon="10.288562"><time>2025-04-28T07:08:01.000Z</time><ele>902.8</ele></trkpt><trkpt lat="45.965985" lon="10.288556"><time>2025-04-28T07:08:02.000Z</time><ele>902.8</ele></trkpt><trkpt lat="45.965994" lon="10.288542"><time>2025-04-28T07:08:03.000Z</time><ele>902.8</ele></trkpt><trkpt lat="45.966013" lon="10.288537"><time>2025-04-28T07:08:04.000Z</time><ele>902.8</ele></trkpt><trkpt lat="45.96603" lon="10.288532"><time>2025-04-28T07:08:05.000Z</time><ele>902.8</ele></trkpt><trkpt lat="45.966043" lon="10.288526"><time>2025-04-28T07:08:06.000Z</time><ele>903</ele></trkpt><trkpt lat="45.966046" lon="10.288522"><time>2025-04-28T07:08:07.000Z</time><ele>903</ele></trkpt><trkpt lat="45.966049" lon="10.28852"><time>2025-04-28T07:08:08.000Z</time><ele>903</ele></trkpt><trkpt lat="45.966052" lon="10.28852"><time>2025-04-28T07:08:09.000Z</time><ele>903.2</ele></trkpt><trkpt lat="45.966063" lon="10.288523"><time>2025-04-28T07:08:10.000Z</time><ele>903.2</ele></trkpt><trkpt lat="45.966066" lon="10.288523"><time>2025-04-28T07:08:11.000Z</time><ele>903.4</ele></trkpt><trkpt lat="45.966058" lon="10.288528"><time>2025-04-28T07:08:12.000Z</time><ele>903.6</ele></trkpt><trkpt lat="45.96605" lon="10.288527"><time>2025-04-28T07:08:13.000Z</time><ele>903.8</ele></trkpt><trkpt lat="45.96605" lon="10.288527"><time>2025-04-28T07:08:14.000Z</time><ele>903.8</ele></trkpt><trkpt lat="45.966057" lon="10.288529"><time>2025-04-28T07:08:15.000Z</time><ele>904</ele></trkpt><trkpt lat="45.966061" lon="10.28853"><time>2025-04-28T07:08:16.000Z</time><ele>904</ele></trkpt><trkpt lat="45.966068" lon="10.288538"><time>2025-04-28T07:08:17.000Z</time><ele>904</ele></trkpt><trkpt lat="45.966075" lon="10.288549"><time>2025-04-28T07:08:18.000Z</time><ele>904</ele></trkpt><trkpt lat="45.96608" lon="10.288551"><time>2025-04-28T07:08:19.000Z</time><ele>904</ele></trkpt><trkpt lat="45.966076" lon="10.288553"><time>2025-04-28T07:08:20.000Z</time><ele>904</ele></trkpt><trkpt lat="45.966076" lon="10.288554"><time>2025-04-28T07:08:21.000Z</time><ele>904</ele></trkpt><trkpt lat="45.966076" lon="10.288555"><time>2025-04-28T07:08:22.000Z</time><ele>904</ele></trkpt><trkpt lat="45.966076" lon="10.288557"><time>2025-04-28T07:08:23.000Z</time><ele>904</ele></trkpt><trkpt lat="45.966076" lon="10.288557"><time>2025-04-28T07:08:24.000Z</time><ele>904</ele></trkpt><trkpt lat="45.966076" lon="10.288557"><time>2025-04-28T07:08:25.000Z</time><ele>904</ele></trkpt><trkpt lat="45.966076" lon="10.288557"><time>2025-04-28T07:08:26.000Z</time><ele>903.8</ele></trkpt><trkpt lat="45.966076" lon="10.288557"><time>2025-04-28T07:08:27.000Z</time><ele>903.8</ele></trkpt><trkpt lat="45.966076" lon="10.288557"><time>2025-04-28T07:08:28.000Z</time><ele>903.8</ele></trkpt><trkpt lat="45.966076" lon="10.288557"><time>2025-04-28T07:08:29.000Z</time><ele>903.8</ele></trkpt><trkpt lat="45.966076" lon="10.288557"><time>2025-04-28T07:08:30.000Z</time><ele>903.8</ele></trkpt><trkpt lat="45.966076" lon="10.288557"><time>2025-04-28T07:08:31.000Z</time><ele>903.8</ele></trkpt><trkpt lat="45.966076" lon="10.288557"><time>2025-04-28T07:08:32.000Z</time><ele>903.8</ele></trkpt><trkpt lat="45.966076" lon="10.288556"><time>2025-04-28T07:08:33.000Z</time><ele>904</ele></trkpt><trkpt lat="45.966076" lon="10.288555"><time>2025-04-28T07:08:34.000Z</time><ele>904</ele></trkpt><trkpt lat="45.966076" lon="10.288554"><time>2025-04-28T07:08:35.000Z</time><ele>904</ele></trkpt><trkpt lat="45.966076" lon="10.288553"><time>2025-04-28T07:08:36.000Z</time><ele>904</ele></trkpt><trkpt lat="45.966076" lon="10.288551"><time>2025-04-28T07:08:37.000Z</time><ele>904.2</ele></trkpt><trkpt lat="45.966075" lon="10.288545"><time>2025-04-28T07:08:38.000Z</time><ele>904.2</ele></trkpt><trkpt lat="45.966075" lon="10.288536"><time>2025-04-28T07:08:39.000Z</time><ele>904.4</ele></trkpt><trkpt lat="45.966073" lon="10.28853"><time>2025-04-28T07:08:40.000Z</time><ele>904.4</ele></trkpt><trkpt lat="45.966068" lon="10.288524"><time>2025-04-28T07:08:41.000Z</time><ele>904.4</ele></trkpt><trkpt lat="45.966066" lon="10.288518"><time>2025-04-28T07:08:42.000Z</time><ele>904.6</ele></trkpt><trkpt lat="45.966064" lon="10.288511"><time>2025-04-28T07:08:43.000Z</time><ele>904.6</ele></trkpt><trkpt lat="45.966061" lon="10.288503"><time>2025-04-28T07:08:44.000Z</time><ele>904.8</ele></trkpt><trkpt lat="45.966046" lon="10.288491"><time>2025-04-28T07:08:45.000Z</time><ele>904.8</ele></trkpt><trkpt lat="45.966046" lon="10.288486"><time>2025-04-28T07:08:46.000Z</time><ele>904.8</ele></trkpt><trkpt lat="45.966046" lon="10.288486"><time>2025-04-28T07:08:47.000Z</time><ele>904.8</ele></trkpt><trkpt lat="45.966046" lon="10.288486"><time>2025-04-28T07:08:48.000Z</time><ele>904.8</ele></trkpt><trkpt lat="45.966046" lon="10.288486"><time>2025-04-28T07:08:49.000Z</time><ele>904.8</ele></trkpt><trkpt lat="45.966046" lon="10.288486"><time>2025-04-28T07:08:50.000Z</time><ele>904.6</ele></trkpt><trkpt lat="45.966046" lon="10.288486"><time>2025-04-28T07:08:51.000Z</time><ele>904.6</ele></trkpt><trkpt lat="45.966046" lon="10.288486"><time>2025-04-28T07:08:52.000Z</time><ele>904.6</ele></trkpt><trkpt lat="45.96605" lon="10.288485"><time>2025-04-28T07:08:53.000Z</time><ele>904.6</ele></trkpt><trkpt lat="45.966063" lon="10.288482"><time>2025-04-28T07:08:54.000Z</time><ele>904.6</ele></trkpt><trkpt lat="45.966073" lon="10.288483"><time>2025-04-28T07:08:55.000Z</time><ele>904.6</ele></trkpt><trkpt lat="45.966081" lon="10.288485"><time>2025-04-28T07:08:56.000Z</time><ele>904.6</ele></trkpt><trkpt lat="45.96609" lon="10.288488"><time>2025-04-28T07:08:57.000Z</time><ele>904.6</ele></trkpt><trkpt lat="45.966098" lon="10.288487"><time>2025-04-28T07:08:58.000Z</time><ele>904.6</ele></trkpt><trkpt lat="45.966097" lon="10.28849"><time>2025-04-28T07:08:59.000Z</time><ele>904.6</ele></trkpt><trkpt lat="45.966099" lon="10.288487"><time>2025-04-28T07:09:00.000Z</time><ele>904.6</ele></trkpt><trkpt lat="45.966105" lon="10.288487"><time>2025-04-28T07:09:01.000Z</time><ele>904.6</ele></trkpt><trkpt lat="45.966106" lon="10.288488"><time>2025-04-28T07:09:02.000Z</time><ele>904.6</ele></trkpt><trkpt lat="45.966103" lon="10.288487"><time>2025-04-28T07:09:03.000Z</time><ele>904.6</ele></trkpt><trkpt lat="45.966093" lon="10.288488"><time>2025-04-28T07:09:04.000Z</time><ele>904.4</ele></trkpt><trkpt lat="45.966076" lon="10.288498"><time>2025-04-28T07:09:05.000Z</time><ele>904.4</ele></trkpt><trkpt lat="45.966065" lon="10.288499"><time>2025-04-28T07:09:06.000Z</time><ele>904.4</ele></trkpt><trkpt lat="45.966057" lon="10.288496"><time>2025-04-28T07:09:07.000Z</time><ele>904.4</ele></trkpt><trkpt lat="45.966051" lon="10.288498"><time>2025-04-28T07:09:08.000Z</time><ele>904.6</ele></trkpt><trkpt lat="45.966042" lon="10.2885"><time>2025-04-28T07:09:09.000Z</time><ele>904.6</ele></trkpt><trkpt lat="45.966039" lon="10.288502"><time>2025-04-28T07:09:10.000Z</time><ele>904.6</ele></trkpt><trkpt lat="45.966034" lon="10.288495"><time>2025-04-28T07:09:11.000Z</time><ele>904.8</ele></trkpt><trkpt lat="45.966021" lon="10.288477"><time>2025-04-28T07:09:12.000Z</time><ele>905</ele></trkpt><trkpt lat="45.966021" lon="10.288473"><time>2025-04-28T07:09:13.000Z</time><ele>905</ele></trkpt><trkpt lat="45.966017" lon="10.28847"><time>2025-04-28T07:09:14.000Z</time><ele>905</ele></trkpt><trkpt lat="45.966011" lon="10.288459"><time>2025-04-28T07:09:15.000Z</time><ele>905</ele></trkpt><trkpt lat="45.96601" lon="10.288456"><time>2025-04-28T07:09:16.000Z</time><ele>905.2</ele></trkpt><trkpt lat="45.966013" lon="10.288449"><time>2025-04-28T07:09:17.000Z</time><ele>905.2</ele></trkpt><trkpt lat="45.96602" lon="10.288443"><time>2025-04-28T07:09:18.000Z</time><ele>905.4</ele></trkpt><trkpt lat="45.966031" lon="10.288442"><time>2025-04-28T07:09:19.000Z</time><ele>905.6</ele></trkpt><trkpt lat="45.966033" lon="10.288441"><time>2025-04-28T07:09:20.000Z</time><ele>905.8</ele></trkpt><trkpt lat="45.966032" lon="10.288438"><time>2025-04-28T07:09:21.000Z</time><ele>905.8</ele></trkpt><trkpt lat="45.966028" lon="10.288433"><time>2025-04-28T07:09:22.000Z</time><ele>906</ele></trkpt><trkpt lat="45.966024" lon="10.28843"><time>2025-04-28T07:09:23.000Z</time><ele>906</ele></trkpt><trkpt lat="45.966022" lon="10.288427"><time>2025-04-28T07:09:24.000Z</time><ele>906.2</ele></trkpt><trkpt lat="45.966027" lon="10.288419"><time>2025-04-28T07:09:25.000Z</time><ele>906.2</ele></trkpt><trkpt lat="45.966024" lon="10.288406"><time>2025-04-28T07:09:26.000Z</time><ele>906.6</ele></trkpt><trkpt lat="45.966022" lon="10.288393"><time>2025-04-28T07:09:27.000Z</time><ele>906.8</ele></trkpt><trkpt lat="45.966019" lon="10.288384"><time>2025-04-28T07:09:28.000Z</time><ele>906.8</ele></trkpt><trkpt lat="45.966014" lon="10.288375"><time>2025-04-28T07:09:29.000Z</time><ele>907</ele></trkpt><trkpt lat="45.96602" lon="10.288368"><time>2025-04-28T07:09:30.000Z</time><ele>907.2</ele></trkpt><trkpt lat="45.966033" lon="10.288363"><time>2025-04-28T07:09:31.000Z</time><ele>907.4</ele></trkpt><trkpt lat="45.966039" lon="10.288356"><time>2025-04-28T07:09:32.000Z</time><ele>907.6</ele></trkpt><trkpt lat="45.966047" lon="10.288348"><time>2025-04-28T07:09:33.000Z</time><ele>907.8</ele></trkpt><trkpt lat="45.966052" lon="10.288334"><time>2025-04-28T07:09:34.000Z</time><ele>907.8</ele></trkpt><trkpt lat="45.966063" lon="10.288332"><time>2025-04-28T07:09:35.000Z</time><ele>908</ele></trkpt><trkpt lat="45.966085" lon="10.288327"><time>2025-04-28T07:09:36.000Z</time><ele>908.2</ele></trkpt><trkpt lat="45.966089" lon="10.288322"><time>2025-04-28T07:09:37.000Z</time><ele>908.4</ele></trkpt><trkpt lat="45.966097" lon="10.28831"><time>2025-04-28T07:09:38.000Z</time><ele>908.6</ele></trkpt><trkpt lat="45.966121" lon="10.288307"><time>2025-04-28T07:09:39.000Z</time><ele>908.8</ele></trkpt><trkpt lat="45.966148" lon="10.288301"><time>2025-04-28T07:09:40.000Z</time><ele>909</ele></trkpt><trkpt lat="45.966149" lon="10.288296"><time>2025-04-28T07:09:41.000Z</time><ele>909.4</ele></trkpt><trkpt lat="45.96614" lon="10.288282"><time>2025-04-28T07:09:42.000Z</time><ele>909.6</ele></trkpt><trkpt lat="45.966152" lon="10.288274"><time>2025-04-28T07:09:43.000Z</time><ele>909.8</ele></trkpt><trkpt lat="45.966152" lon="10.288271"><time>2025-04-28T07:09:44.000Z</time><ele>910</ele></trkpt><trkpt lat="45.966152" lon="10.288269"><time>2025-04-28T07:09:45.000Z</time><ele>910</ele></trkpt><trkpt lat="45.966153" lon="10.288265"><time>2025-04-28T07:09:46.000Z</time><ele>910</ele></trkpt><trkpt lat="45.966151" lon="10.288263"><time>2025-04-28T07:09:47.000Z</time><ele>910.2</ele></trkpt><trkpt lat="45.966146" lon="10.28826"><time>2025-04-28T07:09:48.000Z</time><ele>910.4</ele></trkpt><trkpt lat="45.966138" lon="10.288259"><time>2025-04-28T07:09:49.000Z</time><ele>910.4</ele></trkpt><trkpt lat="45.966136" lon="10.288257"><time>2025-04-28T07:09:50.000Z</time><ele>910.4</ele></trkpt><trkpt lat="45.966135" lon="10.288256"><time>2025-04-28T07:09:51.000Z</time><ele>910.6</ele></trkpt><trkpt lat="45.966134" lon="10.288257"><time>2025-04-28T07:09:52.000Z</time><ele>910.6</ele></trkpt><trkpt lat="45.966132" lon="10.288257"><time>2025-04-28T07:09:53.000Z</time><ele>910.6</ele></trkpt><trkpt lat="45.96613" lon="10.288259"><time>2025-04-28T07:09:54.000Z</time><ele>910.6</ele></trkpt><trkpt lat="45.96614" lon="10.288276"><time>2025-04-28T07:09:55.000Z</time><ele>910.6</ele></trkpt><trkpt lat="45.96614" lon="10.288281"><time>2025-04-28T07:09:56.000Z</time><ele>910.4</ele></trkpt><trkpt lat="45.966138" lon="10.288286"><time>2025-04-28T07:09:57.000Z</time><ele>910.2</ele></trkpt><trkpt lat="45.966137" lon="10.288289"><time>2025-04-28T07:09:58.000Z</time><ele>910</ele></trkpt><trkpt lat="45.966136" lon="10.288293"><time>2025-04-28T07:09:59.000Z</time><ele>909.8</ele></trkpt><trkpt lat="45.966135" lon="10.288296"><time>2025-04-28T07:10:00.000Z</time><ele>909.8</ele></trkpt><trkpt lat="45.966135" lon="10.288297"><time>2025-04-28T07:10:01.000Z</time><ele>909.8</ele></trkpt><trkpt lat="45.966135" lon="10.288297"><time>2025-04-28T07:10:02.000Z</time><ele>909.8</ele></trkpt><trkpt lat="45.966135" lon="10.288297"><time>2025-04-28T07:10:03.000Z</time><ele>909.8</ele></trkpt><trkpt lat="45.966135" lon="10.288297"><time>2025-04-28T07:10:04.000Z</time><ele>909.8</ele></trkpt><trkpt lat="45.966135" lon="10.288297"><time>2025-04-28T07:10:05.000Z</time><ele>909.8</ele></trkpt><trkpt lat="45.966135" lon="10.288297"><time>2025-04-28T07:10:06.000Z</time><ele>909.8</ele></trkpt><trkpt lat="45.966135" lon="10.288297"><time>2025-04-28T07:10:07.000Z</time><ele>909.6</ele></trkpt><trkpt lat="45.966135" lon="10.288297"><time>2025-04-28T07:10:08.000Z</time><ele>909.6</ele></trkpt><trkpt lat="45.966135" lon="10.288296"><time>2025-04-28T07:10:09.000Z</time><ele>909.6</ele></trkpt><trkpt lat="45.966135" lon="10.288296"><time>2025-04-28T07:10:10.000Z</time><ele>909.6</ele></trkpt><trkpt lat="45.966135" lon="10.288295"><time>2025-04-28T07:10:11.000Z</time><ele>909.6</ele></trkpt><trkpt lat="45.966135" lon="10.288293"><time>2025-04-28T07:10:12.000Z</time><ele>909.6</ele></trkpt><trkpt lat="45.966135" lon="10.288293"><time>2025-04-28T07:10:13.000Z</time><ele>909.6</ele></trkpt><trkpt lat="45.966135" lon="10.28829"><time>2025-04-28T07:10:14.000Z</time><ele>909.6</ele></trkpt><trkpt lat="45.966136" lon="10.288289"><time>2025-04-28T07:10:15.000Z</time><ele>910</ele></trkpt><trkpt lat="45.966137" lon="10.288289"><time>2025-04-28T07:10:16.000Z</time><ele>910</ele></trkpt><trkpt lat="45.966141" lon="10.288285"><time>2025-04-28T07:10:17.000Z</time><ele>910.2</ele></trkpt><trkpt lat="45.966146" lon="10.288282"><time>2025-04-28T07:10:18.000Z</time><ele>910.4</ele></trkpt><trkpt lat="45.966152" lon="10.288283"><time>2025-04-28T07:10:19.000Z</time><ele>910.6</ele></trkpt><trkpt lat="45.966165" lon="10.28828"><time>2025-04-28T07:10:20.000Z</time><ele>910.8</ele></trkpt><trkpt lat="45.966176" lon="10.288283"><time>2025-04-28T07:10:21.000Z</time><ele>910.8</ele></trkpt><trkpt lat="45.966182" lon="10.288281"><time>2025-04-28T07:10:22.000Z</time><ele>910.8</ele></trkpt><trkpt lat="45.966195" lon="10.28828"><time>2025-04-28T07:10:23.000Z</time><ele>911</ele></trkpt><trkpt lat="45.966204" lon="10.28828"><time>2025-04-28T07:10:24.000Z</time><ele>911</ele></trkpt><trkpt lat="45.966206" lon="10.288283"><time>2025-04-28T07:10:25.000Z</time><ele>911.2</ele></trkpt><trkpt lat="45.966208" lon="10.288283"><time>2025-04-28T07:10:26.000Z</time><ele>911.4</ele></trkpt><trkpt lat="45.966214" lon="10.288286"><time>2025-04-28T07:10:27.000Z</time><ele>911.8</ele></trkpt><trkpt lat="45.966219" lon="10.288285"><time>2025-04-28T07:10:28.000Z</time><ele>912</ele></trkpt><trkpt lat="45.966224" lon="10.288285"><time>2025-04-28T07:10:29.000Z</time><ele>912</ele></trkpt><trkpt lat="45.966226" lon="10.288285"><time>2025-04-28T07:10:30.000Z</time><ele>912</ele></trkpt><trkpt lat="45.966228" lon="10.288287"><time>2025-04-28T07:10:31.000Z</time><ele>912</ele></trkpt><trkpt lat="45.966227" lon="10.288292"><time>2025-04-28T07:10:32.000Z</time><ele>912</ele></trkpt><trkpt lat="45.96623" lon="10.288294"><time>2025-04-28T07:10:33.000Z</time><ele>912</ele></trkpt><trkpt lat="45.96623" lon="10.288292"><time>2025-04-28T07:10:34.000Z</time><ele>912</ele></trkpt><trkpt lat="45.966227" lon="10.288292"><time>2025-04-28T07:10:35.000Z</time><ele>912</ele></trkpt><trkpt lat="45.966227" lon="10.288296"><time>2025-04-28T07:10:36.000Z</time><ele>912.2</ele></trkpt><trkpt lat="45.966228" lon="10.288301"><time>2025-04-28T07:10:37.000Z</time><ele>912.4</ele></trkpt><trkpt lat="45.966244" lon="10.288313"><time>2025-04-28T07:10:38.000Z</time><ele>912.4</ele></trkpt><trkpt lat="45.966261" lon="10.288325"><time>2025-04-28T07:10:39.000Z</time><ele>912.4</ele></trkpt><trkpt lat="45.966275" lon="10.288333"><time>2025-04-28T07:10:40.000Z</time><ele>912.6</ele></trkpt><trkpt lat="45.966278" lon="10.288333"><time>2025-04-28T07:10:41.000Z</time><ele>912.8</ele></trkpt><trkpt lat="45.966279" lon="10.288335"><time>2025-04-28T07:10:42.000Z</time><ele>912.8</ele></trkpt><trkpt lat="45.966287" lon="10.288329"><time>2025-04-28T07:10:43.000Z</time><ele>913</ele></trkpt><trkpt lat="45.966294" lon="10.288327"><time>2025-04-28T07:10:44.000Z</time><ele>913</ele></trkpt><trkpt lat="45.966297" lon="10.288329"><time>2025-04-28T07:10:45.000Z</time><ele>913.4</ele></trkpt><trkpt lat="45.966303" lon="10.288335"><time>2025-04-28T07:10:46.000Z</time><ele>913.8</ele></trkpt><trkpt lat="45.966303" lon="10.288336"><time>2025-04-28T07:10:47.000Z</time><ele>914</ele></trkpt><trkpt lat="45.966314" lon="10.288348"><time>2025-04-28T07:10:48.000Z</time><ele>914.2</ele></trkpt><trkpt lat="45.966325" lon="10.288349"><time>2025-04-28T07:10:49.000Z</time><ele>914.2</ele></trkpt><trkpt lat="45.966334" lon="10.288357"><time>2025-04-28T07:10:50.000Z</time><ele>914.4</ele></trkpt><trkpt lat="45.966336" lon="10.288367"><time>2025-04-28T07:10:51.000Z</time><ele>914.6</ele></trkpt><trkpt lat="45.966337" lon="10.288371"><time>2025-04-28T07:10:52.000Z</time><ele>914.8</ele></trkpt><trkpt lat="45.966336" lon="10.288374"><time>2025-04-28T07:10:53.000Z</time><ele>914.8</ele></trkpt><trkpt lat="45.966328" lon="10.288385"><time>2025-04-28T07:10:54.000Z</time><ele>915.2</ele></trkpt><trkpt lat="45.966328" lon="10.288388"><time>2025-04-28T07:10:55.000Z</time><ele>915.2</ele></trkpt><trkpt lat="45.966334" lon="10.28839"><time>2025-04-28T07:10:56.000Z</time><ele>915.4</ele></trkpt><trkpt lat="45.966348" lon="10.288391"><time>2025-04-28T07:10:57.000Z</time><ele>915.4</ele></trkpt><trkpt lat="45.966353" lon="10.28839"><time>2025-04-28T07:10:58.000Z</time><ele>915.4</ele></trkpt><trkpt lat="45.966357" lon="10.288399"><time>2025-04-28T07:10:59.000Z</time><ele>915.6</ele></trkpt><trkpt lat="45.966357" lon="10.288405"><time>2025-04-28T07:11:00.000Z</time><ele>915.8</ele></trkpt><trkpt lat="45.966361" lon="10.288405"><time>2025-04-28T07:11:01.000Z</time><ele>916</ele></trkpt><trkpt lat="45.966359" lon="10.288406"><time>2025-04-28T07:11:02.000Z</time><ele>916.2</ele></trkpt><trkpt lat="45.966357" lon="10.288408"><time>2025-04-28T07:11:03.000Z</time><ele>916.4</ele></trkpt><trkpt lat="45.966355" lon="10.288405"><time>2025-04-28T07:11:04.000Z</time><ele>916.8</ele></trkpt><trkpt lat="45.966369" lon="10.288404"><time>2025-04-28T07:11:05.000Z</time><ele>916.8</ele></trkpt><trkpt lat="45.966381" lon="10.288408"><time>2025-04-28T07:11:06.000Z</time><ele>917</ele></trkpt><trkpt lat="45.966382" lon="10.288407"><time>2025-04-28T07:11:07.000Z</time><ele>917.2</ele></trkpt><trkpt lat="45.966381" lon="10.288406"><time>2025-04-28T07:11:08.000Z</time><ele>917.4</ele></trkpt><trkpt lat="45.966381" lon="10.288408"><time>2025-04-28T07:11:09.000Z</time><ele>917.6</ele></trkpt><trkpt lat="45.966384" lon="10.288412"><time>2025-04-28T07:11:10.000Z</time><ele>917.8</ele></trkpt><trkpt lat="45.966387" lon="10.288414"><time>2025-04-28T07:11:11.000Z</time><ele>918</ele></trkpt><trkpt lat="45.966386" lon="10.28841"><time>2025-04-28T07:11:12.000Z</time><ele>918.2</ele></trkpt><trkpt lat="45.966386" lon="10.288409"><time>2025-04-28T07:11:13.000Z</time><ele>918.4</ele></trkpt><trkpt lat="45.966389" lon="10.288409"><time>2025-04-28T07:11:14.000Z</time><ele>918.4</ele></trkpt><trkpt lat="45.966403" lon="10.288413"><time>2025-04-28T07:11:15.000Z</time><ele>918.6</ele></trkpt><trkpt lat="45.966408" lon="10.288412"><time>2025-04-28T07:11:16.000Z</time><ele>918.6</ele></trkpt><trkpt lat="45.966422" lon="10.28841"><time>2025-04-28T07:11:17.000Z</time><ele>918.8</ele></trkpt><trkpt lat="45.966447" lon="10.288396"><time>2025-04-28T07:11:18.000Z</time><ele>919</ele></trkpt><trkpt lat="45.966457" lon="10.288379"><time>2025-04-28T07:11:19.000Z</time><ele>919.2</ele></trkpt><trkpt lat="45.966455" lon="10.288367"><time>2025-04-28T07:11:20.000Z</time><ele>919.4</ele></trkpt><trkpt lat="45.966446" lon="10.288354"><time>2025-04-28T07:11:21.000Z</time><ele>919.6</ele></trkpt><trkpt lat="45.966445" lon="10.28834"><time>2025-04-28T07:11:22.000Z</time><ele>919.8</ele></trkpt><trkpt lat="45.966442" lon="10.288328"><time>2025-04-28T07:11:23.000Z</time><ele>920</ele></trkpt><trkpt lat="45.966445" lon="10.288323"><time>2025-04-28T07:11:24.000Z</time><ele>920.2</ele></trkpt><trkpt lat="45.966459" lon="10.288324"><time>2025-04-28T07:11:25.000Z</time><ele>920.4</ele></trkpt><trkpt lat="45.966462" lon="10.28832"><time>2025-04-28T07:11:26.000Z</time><ele>920.6</ele></trkpt><trkpt lat="45.966465" lon="10.288315"><time>2025-04-28T07:11:27.000Z</time><ele>920.6</ele></trkpt><trkpt lat="45.966467" lon="10.288307"><time>2025-04-28T07:11:28.000Z</time><ele>920.8</ele></trkpt><trkpt lat="45.966467" lon="10.288305"><time>2025-04-28T07:11:29.000Z</time><ele>921</ele></trkpt><trkpt lat="45.966466" lon="10.288301"><time>2025-04-28T07:11:30.000Z</time><ele>921</ele></trkpt><trkpt lat="45.966469" lon="10.288292"><time>2025-04-28T07:11:31.000Z</time><ele>921</ele></trkpt><trkpt lat="45.966478" lon="10.288295"><time>2025-04-28T07:11:32.000Z</time><ele>921.2</ele></trkpt><trkpt lat="45.966487" lon="10.288295"><time>2025-04-28T07:11:33.000Z</time><ele>921.4</ele></trkpt><trkpt lat="45.966491" lon="10.288292"><time>2025-04-28T07:11:34.000Z</time><ele>921.4</ele></trkpt><trkpt lat="45.966488" lon="10.28828"><time>2025-04-28T07:11:35.000Z</time><ele>921.6</ele></trkpt><trkpt lat="45.966487" lon="10.288268"><time>2025-04-28T07:11:36.000Z</time><ele>921.8</ele></trkpt><trkpt lat="45.96649" lon="10.288245"><time>2025-04-28T07:11:37.000Z</time><ele>922</ele></trkpt><trkpt lat="45.966491" lon="10.288236"><time>2025-04-28T07:11:38.000Z</time><ele>922.2</ele></trkpt><trkpt lat="45.966494" lon="10.28823"><time>2025-04-28T07:11:39.000Z</time><ele>922.2</ele></trkpt><trkpt lat="45.966496" lon="10.288224"><time>2025-04-28T07:11:40.000Z</time><ele>922.4</ele></trkpt><trkpt lat="45.966505" lon="10.288216"><time>2025-04-28T07:11:41.000Z</time><ele>922.6</ele></trkpt><trkpt lat="45.966512" lon="10.288211"><time>2025-04-28T07:11:42.000Z</time><ele>922.8</ele></trkpt><trkpt lat="45.966513" lon="10.288202"><time>2025-04-28T07:11:43.000Z</time><ele>922.8</ele></trkpt><trkpt lat="45.966512" lon="10.288192"><time>2025-04-28T07:11:44.000Z</time><ele>922.8</ele></trkpt><trkpt lat="45.966511" lon="10.288187"><time>2025-04-28T07:11:45.000Z</time><ele>923.2</ele></trkpt><trkpt lat="45.96651" lon="10.288183"><time>2025-04-28T07:11:46.000Z</time><ele>923.4</ele></trkpt><trkpt lat="45.96651" lon="10.288179"><time>2025-04-28T07:11:47.000Z</time><ele>923.6</ele></trkpt><trkpt lat="45.966517" lon="10.288176"><time>2025-04-28T07:11:48.000Z</time><ele>923.6</ele></trkpt><trkpt lat="45.966517" lon="10.288172"><time>2025-04-28T07:11:49.000Z</time><ele>923.8</ele></trkpt><trkpt lat="45.966532" lon="10.288164"><time>2025-04-28T07:11:50.000Z</time><ele>923.8</ele></trkpt><trkpt lat="45.966534" lon="10.288147"><time>2025-04-28T07:11:51.000Z</time><ele>923.8</ele></trkpt><trkpt lat="45.966534" lon="10.288145"><time>2025-04-28T07:11:52.000Z</time><ele>924.2</ele></trkpt><trkpt lat="45.966543" lon="10.288141"><time>2025-04-28T07:11:53.000Z</time><ele>924.4</ele></trkpt><trkpt lat="45.966546" lon="10.288138"><time>2025-04-28T07:11:54.000Z</time><ele>924.6</ele></trkpt><trkpt lat="45.966551" lon="10.288126"><time>2025-04-28T07:11:55.000Z</time><ele>924.8</ele></trkpt><trkpt lat="45.966561" lon="10.288117"><time>2025-04-28T07:11:56.000Z</time><ele>925</ele></trkpt><trkpt lat="45.966565" lon="10.28811"><time>2025-04-28T07:11:57.000Z</time><ele>925</ele></trkpt><trkpt lat="45.966553" lon="10.288106"><time>2025-04-28T07:11:58.000Z</time><ele>925.2</ele></trkpt><trkpt lat="45.966552" lon="10.288101"><time>2025-04-28T07:11:59.000Z</time><ele>925.4</ele></trkpt><trkpt lat="45.966545" lon="10.288092"><time>2025-04-28T07:12:00.000Z</time><ele>925.6</ele></trkpt><trkpt lat="45.966536" lon="10.288084"><time>2025-04-28T07:12:01.000Z</time><ele>925.8</ele></trkpt><trkpt lat="45.966531" lon="10.288074"><time>2025-04-28T07:12:02.000Z</time><ele>926</ele></trkpt><trkpt lat="45.966527" lon="10.288069"><time>2025-04-28T07:12:03.000Z</time><ele>926</ele></trkpt><trkpt lat="45.966527" lon="10.288057"><time>2025-04-28T07:12:04.000Z</time><ele>926.2</ele></trkpt><trkpt lat="45.966529" lon="10.288048"><time>2025-04-28T07:12:05.000Z</time><ele>926.2</ele></trkpt><trkpt lat="45.966528" lon="10.288041"><time>2025-04-28T07:12:06.000Z</time><ele>926.2</ele></trkpt><trkpt lat="45.96653" lon="10.288035"><time>2025-04-28T07:12:07.000Z</time><ele>926.4</ele></trkpt><trkpt lat="45.96653" lon="10.288026"><time>2025-04-28T07:12:08.000Z</time><ele>926.6</ele></trkpt><trkpt lat="45.966525" lon="10.288013"><time>2025-04-28T07:12:09.000Z</time><ele>926.6</ele></trkpt><trkpt lat="45.966522" lon="10.288004"><time>2025-04-28T07:12:10.000Z</time><ele>926.8</ele></trkpt><trkpt lat="45.96652" lon="10.287997"><time>2025-04-28T07:12:11.000Z</time><ele>927</ele></trkpt><trkpt lat="45.96652" lon="10.287992"><time>2025-04-28T07:12:12.000Z</time><ele>927.2</ele></trkpt><trkpt lat="45.966523" lon="10.287979"><time>2025-04-28T07:12:13.000Z</time><ele>927.6</ele></trkpt><trkpt lat="45.966523" lon="10.287974"><time>2025-04-28T07:12:14.000Z</time><ele>927.8</ele></trkpt><trkpt lat="45.96653" lon="10.287964"><time>2025-04-28T07:12:15.000Z</time><ele>928</ele></trkpt><trkpt lat="45.966531" lon="10.287958"><time>2025-04-28T07:12:16.000Z</time><ele>928.2</ele></trkpt><trkpt lat="45.966531" lon="10.287953"><time>2025-04-28T07:12:17.000Z</time><ele>928.4</ele></trkpt><trkpt lat="45.966532" lon="10.287948"><time>2025-04-28T07:12:18.000Z</time><ele>928.4</ele></trkpt><trkpt lat="45.966532" lon="10.287944"><time>2025-04-28T07:12:19.000Z</time><ele>928.6</ele></trkpt><trkpt lat="45.966531" lon="10.287938"><time>2025-04-28T07:12:20.000Z</time><ele>928.6</ele></trkpt><trkpt lat="45.966537" lon="10.287921"><time>2025-04-28T07:12:21.000Z</time><ele>928.6</ele></trkpt><trkpt lat="45.966546" lon="10.287913"><time>2025-04-28T07:12:22.000Z</time><ele>928.8</ele></trkpt><trkpt lat="45.966547" lon="10.287908"><time>2025-04-28T07:12:23.000Z</time><ele>928.8</ele></trkpt><trkpt lat="45.966549" lon="10.287902"><time>2025-04-28T07:12:24.000Z</time><ele>929</ele></trkpt><trkpt lat="45.966556" lon="10.287889"><time>2025-04-28T07:12:25.000Z</time><ele>929.2</ele></trkpt><trkpt lat="45.966564" lon="10.287878"><time>2025-04-28T07:12:26.000Z</time><ele>929.4</ele></trkpt><trkpt lat="45.966567" lon="10.287872"><time>2025-04-28T07:12:27.000Z</time><ele>929.8</ele></trkpt><trkpt lat="45.966569" lon="10.287863"><time>2025-04-28T07:12:28.000Z</time><ele>930</ele></trkpt><trkpt lat="45.96657" lon="10.287857"><time>2025-04-28T07:12:29.000Z</time><ele>930</ele></trkpt><trkpt lat="45.966573" lon="10.287852"><time>2025-04-28T07:12:30.000Z</time><ele>930.4</ele></trkpt><trkpt lat="45.966572" lon="10.287848"><time>2025-04-28T07:12:31.000Z</time><ele>930.4</ele></trkpt><trkpt lat="45.966573" lon="10.287847"><time>2025-04-28T07:12:32.000Z</time><ele>930.6</ele></trkpt><trkpt lat="45.96658" lon="10.287839"><time>2025-04-28T07:12:33.000Z</time><ele>930.6</ele></trkpt><trkpt lat="45.966584" lon="10.28784"><time>2025-04-28T07:12:34.000Z</time><ele>930.6</ele></trkpt><trkpt lat="45.966586" lon="10.287839"><time>2025-04-28T07:12:35.000Z</time><ele>930.6</ele></trkpt><trkpt lat="45.966586" lon="10.287837"><time>2025-04-28T07:12:36.000Z</time><ele>930.8</ele></trkpt><trkpt lat="45.966585" lon="10.287837"><time>2025-04-28T07:12:37.000Z</time><ele>930.8</ele></trkpt><trkpt lat="45.966586" lon="10.287837"><time>2025-04-28T07:12:38.000Z</time><ele>930.8</ele></trkpt><trkpt lat="45.966586" lon="10.287837"><time>2025-04-28T07:12:39.000Z</time><ele>931</ele></trkpt><trkpt lat="45.966584" lon="10.287835"><time>2025-04-28T07:12:40.000Z</time><ele>931</ele></trkpt><trkpt lat="45.966581" lon="10.287833"><time>2025-04-28T07:12:41.000Z</time><ele>930.8</ele></trkpt><trkpt lat="45.966577" lon="10.287832"><time>2025-04-28T07:12:42.000Z</time><ele>930.8</ele></trkpt><trkpt lat="45.966573" lon="10.28783"><time>2025-04-28T07:12:43.000Z</time><ele>930.8</ele></trkpt><trkpt lat="45.966571" lon="10.287828"><time>2025-04-28T07:12:44.000Z</time><ele>930.8</ele></trkpt><trkpt lat="45.966571" lon="10.28782"><time>2025-04-28T07:12:45.000Z</time><ele>931</ele></trkpt><trkpt lat="45.966572" lon="10.287813"><time>2025-04-28T07:12:46.000Z</time><ele>931.2</ele></trkpt><trkpt lat="45.966579" lon="10.287798"><time>2025-04-28T07:12:47.000Z</time><ele>931.2</ele></trkpt><trkpt lat="45.96658" lon="10.287791"><time>2025-04-28T07:12:48.000Z</time><ele>931.4</ele></trkpt><trkpt lat="45.966582" lon="10.287781"><time>2025-04-28T07:12:49.000Z</time><ele>931.4</ele></trkpt><trkpt lat="45.966585" lon="10.287771"><time>2025-04-28T07:12:50.000Z</time><ele>931.6</ele></trkpt><trkpt lat="45.966583" lon="10.287757"><time>2025-04-28T07:12:51.000Z</time><ele>931.6</ele></trkpt><trkpt lat="45.966582" lon="10.287742"><time>2025-04-28T07:12:52.000Z</time><ele>931.8</ele></trkpt><trkpt lat="45.966578" lon="10.287733"><time>2025-04-28T07:12:53.000Z</time><ele>932</ele></trkpt><trkpt lat="45.966575" lon="10.287728"><time>2025-04-28T07:12:54.000Z</time><ele>932</ele></trkpt><trkpt lat="45.966574" lon="10.287722"><time>2025-04-28T07:12:55.000Z</time><ele>932.2</ele></trkpt><trkpt lat="45.966574" lon="10.287719"><time>2025-04-28T07:12:56.000Z</time><ele>932.4</ele></trkpt><trkpt lat="45.966575" lon="10.287714"><time>2025-04-28T07:12:57.000Z</time><ele>932.6</ele></trkpt><trkpt lat="45.96657" lon="10.28771"><time>2025-04-28T07:12:58.000Z</time><ele>932.8</ele></trkpt><trkpt lat="45.966575" lon="10.287703"><time>2025-04-28T07:12:59.000Z</time><ele>933</ele></trkpt><trkpt lat="45.966582" lon="10.287695"><time>2025-04-28T07:13:00.000Z</time><ele>933</ele></trkpt><trkpt lat="45.966579" lon="10.287685"><time>2025-04-28T07:13:01.000Z</time><ele>933.2</ele></trkpt><trkpt lat="45.966573" lon="10.287674"><time>2025-04-28T07:13:02.000Z</time><ele>933.2</ele></trkpt><trkpt lat="45.966567" lon="10.287662"><time>2025-04-28T07:13:03.000Z</time><ele>933.4</ele></trkpt><trkpt lat="45.966562" lon="10.287656"><time>2025-04-28T07:13:04.000Z</time><ele>933.6</ele></trkpt><trkpt lat="45.966561" lon="10.287641"><time>2025-04-28T07:13:05.000Z</time><ele>933.8</ele></trkpt><trkpt lat="45.966561" lon="10.287637"><time>2025-04-28T07:13:06.000Z</time><ele>934</ele></trkpt><trkpt lat="45.966567" lon="10.287637"><time>2025-04-28T07:13:07.000Z</time><ele>934</ele></trkpt><trkpt lat="45.966578" lon="10.287631"><time>2025-04-28T07:13:08.000Z</time><ele>934.2</ele></trkpt><trkpt lat="45.966581" lon="10.287612"><time>2025-04-28T07:13:09.000Z</time><ele>934.2</ele></trkpt><trkpt lat="45.966586" lon="10.287604"><time>2025-04-28T07:13:10.000Z</time><ele>934.2</ele></trkpt><trkpt lat="45.96659" lon="10.287595"><time>2025-04-28T07:13:11.000Z</time><ele>934.4</ele></trkpt><trkpt lat="45.966588" lon="10.28759"><time>2025-04-28T07:13:12.000Z</time><ele>934.6</ele></trkpt><trkpt lat="45.96659" lon="10.287584"><time>2025-04-28T07:13:13.000Z</time><ele>934.8</ele></trkpt><trkpt lat="45.966596" lon="10.287578"><time>2025-04-28T07:13:14.000Z</time><ele>934.8</ele></trkpt><trkpt lat="45.966597" lon="10.287577"><time>2025-04-28T07:13:15.000Z</time><ele>935</ele></trkpt><trkpt lat="45.966596" lon="10.28757"><time>2025-04-28T07:13:16.000Z</time><ele>935.2</ele></trkpt><trkpt lat="45.966601" lon="10.28756"><time>2025-04-28T07:13:17.000Z</time><ele>935.4</ele></trkpt><trkpt lat="45.966607" lon="10.28755"><time>2025-04-28T07:13:18.000Z</time><ele>935.6</ele></trkpt><trkpt lat="45.966614" lon="10.287538"><time>2025-04-28T07:13:19.000Z</time><ele>935.8</ele></trkpt><trkpt lat="45.966617" lon="10.287522"><time>2025-04-28T07:13:20.000Z</time><ele>936</ele></trkpt><trkpt lat="45.966622" lon="10.287513"><time>2025-04-28T07:13:21.000Z</time><ele>936.2</ele></trkpt><trkpt lat="45.966623" lon="10.287511"><time>2025-04-28T07:13:22.000Z</time><ele>936.4</ele></trkpt><trkpt lat="45.966626" lon="10.287509"><time>2025-04-28T07:13:23.000Z</time><ele>936.6</ele></trkpt><trkpt lat="45.966621" lon="10.287512"><time>2025-04-28T07:13:24.000Z</time><ele>936.6</ele></trkpt><trkpt lat="45.96662" lon="10.287508"><time>2025-04-28T07:13:25.000Z</time><ele>936.8</ele></trkpt><trkpt lat="45.966621" lon="10.287505"><time>2025-04-28T07:13:26.000Z</time><ele>936.8</ele></trkpt><trkpt lat="45.966624" lon="10.287491"><time>2025-04-28T07:13:27.000Z</time><ele>936.8</ele></trkpt><trkpt lat="45.966622" lon="10.287475"><time>2025-04-28T07:13:28.000Z</time><ele>937</ele></trkpt><trkpt lat="45.966618" lon="10.287469"><time>2025-04-28T07:13:29.000Z</time><ele>937</ele></trkpt><trkpt lat="45.966627" lon="10.287468"><time>2025-04-28T07:13:30.000Z</time><ele>937</ele></trkpt><trkpt lat="45.966629" lon="10.287467"><time>2025-04-28T07:13:31.000Z</time><ele>937.2</ele></trkpt><trkpt lat="45.966632" lon="10.287463"><time>2025-04-28T07:13:32.000Z</time><ele>937.4</ele></trkpt><trkpt lat="45.966644" lon="10.287457"><time>2025-04-28T07:13:33.000Z</time><ele>937.4</ele></trkpt><trkpt lat="45.966647" lon="10.287454"><time>2025-04-28T07:13:34.000Z</time><ele>937.6</ele></trkpt><trkpt lat="45.966647" lon="10.287447"><time>2025-04-28T07:13:35.000Z</time><ele>937.6</ele></trkpt><trkpt lat="45.966636" lon="10.287441"><time>2025-04-28T07:13:36.000Z</time><ele>937.6</ele></trkpt><trkpt lat="45.966631" lon="10.287439"><time>2025-04-28T07:13:37.000Z</time><ele>937.8</ele></trkpt><trkpt lat="45.966633" lon="10.287433"><time>2025-04-28T07:13:38.000Z</time><ele>938</ele></trkpt><trkpt lat="45.966629" lon="10.287421"><time>2025-04-28T07:13:39.000Z</time><ele>938.2</ele></trkpt><trkpt lat="45.966626" lon="10.287417"><time>2025-04-28T07:13:40.000Z</time><ele>938.2</ele></trkpt><trkpt lat="45.966624" lon="10.287405"><time>2025-04-28T07:13:41.000Z</time><ele>938.4</ele></trkpt><trkpt lat="45.966623" lon="10.28739"><time>2025-04-28T07:13:42.000Z</time><ele>938.4</ele></trkpt><trkpt lat="45.966624" lon="10.287391"><time>2025-04-28T07:13:43.000Z</time><ele>938.6</ele></trkpt><trkpt lat="45.966624" lon="10.287393"><time>2025-04-28T07:13:44.000Z</time><ele>939</ele></trkpt><trkpt lat="45.966623" lon="10.287392"><time>2025-04-28T07:13:45.000Z</time><ele>939.2</ele></trkpt><trkpt lat="45.966619" lon="10.287386"><time>2025-04-28T07:13:46.000Z</time><ele>939.4</ele></trkpt><trkpt lat="45.966616" lon="10.287382"><time>2025-04-28T07:13:47.000Z</time><ele>939.6</ele></trkpt><trkpt lat="45.966606" lon="10.28737"><time>2025-04-28T07:13:48.000Z</time><ele>939.8</ele></trkpt><trkpt lat="45.966601" lon="10.287352"><time>2025-04-28T07:13:49.000Z</time><ele>940</ele></trkpt><trkpt lat="45.9666" lon="10.287348"><time>2025-04-28T07:13:50.000Z</time><ele>940</ele></trkpt><trkpt lat="45.966602" lon="10.287339"><time>2025-04-28T07:13:51.000Z</time><ele>940</ele></trkpt><trkpt lat="45.966608" lon="10.287337"><time>2025-04-28T07:13:52.000Z</time><ele>940.2</ele></trkpt><trkpt lat="45.966612" lon="10.287337"><time>2025-04-28T07:13:53.000Z</time><ele>940.2</ele></trkpt><trkpt lat="45.966612" lon="10.287335"><time>2025-04-28T07:13:54.000Z</time><ele>940.2</ele></trkpt><trkpt lat="45.96661" lon="10.287331"><time>2025-04-28T07:13:55.000Z</time><ele>940.6</ele></trkpt><trkpt lat="45.966603" lon="10.287323"><time>2025-04-28T07:13:56.000Z</time><ele>940.6</ele></trkpt><trkpt lat="45.966597" lon="10.287322"><time>2025-04-28T07:13:57.000Z</time><ele>940.8</ele></trkpt><trkpt lat="45.966597" lon="10.287319"><time>2025-04-28T07:13:58.000Z</time><ele>941</ele></trkpt><trkpt lat="45.966595" lon="10.28731"><time>2025-04-28T07:13:59.000Z</time><ele>941.2</ele></trkpt><trkpt lat="45.966601" lon="10.287298"><time>2025-04-28T07:14:00.000Z</time><ele>941.4</ele></trkpt><trkpt lat="45.966603" lon="10.287286"><time>2025-04-28T07:14:01.000Z</time><ele>941.6</ele></trkpt><trkpt lat="45.966596" lon="10.287275"><time>2025-04-28T07:14:02.000Z</time><ele>941.8</ele></trkpt><trkpt lat="45.966593" lon="10.287261"><time>2025-04-28T07:14:03.000Z</time><ele>941.8</ele></trkpt><trkpt lat="45.966592" lon="10.287251"><time>2025-04-28T07:14:04.000Z</time><ele>942</ele></trkpt><trkpt lat="45.966595" lon="10.287245"><time>2025-04-28T07:14:05.000Z</time><ele>942.2</ele></trkpt><trkpt lat="45.966594" lon="10.287238"><time>2025-04-28T07:14:06.000Z</time><ele>942.2</ele></trkpt><trkpt lat="45.966588" lon="10.287234"><time>2025-04-28T07:14:07.000Z</time><ele>942.4</ele></trkpt><trkpt lat="45.966584" lon="10.287234"><time>2025-04-28T07:14:08.000Z</time><ele>942.6</ele></trkpt><trkpt lat="45.96658" lon="10.287231"><time>2025-04-28T07:14:09.000Z</time><ele>942.8</ele></trkpt><trkpt lat="45.96657" lon="10.287221"><time>2025-04-28T07:14:10.000Z</time><ele>942.8</ele></trkpt><trkpt lat="45.96656" lon="10.287219"><time>2025-04-28T07:14:11.000Z</time><ele>943</ele></trkpt><trkpt lat="45.966548" lon="10.287215"><time>2025-04-28T07:14:12.000Z</time><ele>943.2</ele></trkpt><trkpt lat="45.966536" lon="10.287209"><time>2025-04-28T07:14:13.000Z</time><ele>943.4</ele></trkpt><trkpt lat="45.966532" lon="10.287198"><time>2025-04-28T07:14:14.000Z</time><ele>943.6</ele></trkpt><trkpt lat="45.966539" lon="10.287186"><time>2025-04-28T07:14:15.000Z</time><ele>943.8</ele></trkpt><trkpt lat="45.966535" lon="10.287176"><time>2025-04-28T07:14:16.000Z</time><ele>944</ele></trkpt><trkpt lat="45.966526" lon="10.287164"><time>2025-04-28T07:14:17.000Z</time><ele>944</ele></trkpt><trkpt lat="45.966518" lon="10.287158"><time>2025-04-28T07:14:18.000Z</time><ele>944.2</ele></trkpt><trkpt lat="45.966514" lon="10.287152"><time>2025-04-28T07:14:19.000Z</time><ele>944.4</ele></trkpt><trkpt lat="45.966509" lon="10.287138"><time>2025-04-28T07:14:20.000Z</time><ele>944.4</ele></trkpt><trkpt lat="45.966505" lon="10.287136"><time>2025-04-28T07:14:21.000Z</time><ele>944.6</ele></trkpt><trkpt lat="45.966492" lon="10.287135"><time>2025-04-28T07:14:22.000Z</time><ele>944.8</ele></trkpt><trkpt lat="45.966481" lon="10.287135"><time>2025-04-28T07:14:23.000Z</time><ele>944.8</ele></trkpt><trkpt lat="45.966473" lon="10.287135"><time>2025-04-28T07:14:24.000Z</time><ele>945</ele></trkpt><trkpt lat="45.96647" lon="10.287135"><time>2025-04-28T07:14:25.000Z</time><ele>945.2</ele></trkpt><trkpt lat="45.966477" lon="10.287131"><time>2025-04-28T07:14:26.000Z</time><ele>945.4</ele></trkpt><trkpt lat="45.966479" lon="10.287115"><time>2025-04-28T07:14:27.000Z</time><ele>945.4</ele></trkpt><trkpt lat="45.966473" lon="10.287115"><time>2025-04-28T07:14:28.000Z</time><ele>945.6</ele></trkpt><trkpt lat="45.966468" lon="10.287113"><time>2025-04-28T07:14:29.000Z</time><ele>945.8</ele></trkpt><trkpt lat="45.966465" lon="10.287109"><time>2025-04-28T07:14:30.000Z</time><ele>946</ele></trkpt><trkpt lat="45.966463" lon="10.287108"><time>2025-04-28T07:14:31.000Z</time><ele>946.2</ele></trkpt><trkpt lat="45.966468" lon="10.287108"><time>2025-04-28T07:14:32.000Z</time><ele>946.2</ele></trkpt><trkpt lat="45.966462" lon="10.287104"><time>2025-04-28T07:14:33.000Z</time><ele>946.4</ele></trkpt><trkpt lat="45.966456" lon="10.2871"><time>2025-04-28T07:14:34.000Z</time><ele>946.6</ele></trkpt><trkpt lat="45.966448" lon="10.287092"><time>2025-04-28T07:14:35.000Z</time><ele>946.8</ele></trkpt><trkpt lat="45.966441" lon="10.287082"><time>2025-04-28T07:14:36.000Z</time><ele>947.2</ele></trkpt><trkpt lat="45.966441" lon="10.28707"><time>2025-04-28T07:14:37.000Z</time><ele>947.4</ele></trkpt><trkpt lat="45.966439" lon="10.287059"><time>2025-04-28T07:14:38.000Z</time><ele>947.6</ele></trkpt><trkpt lat="45.966446" lon="10.287045"><time>2025-04-28T07:14:39.000Z</time><ele>947.8</ele></trkpt><trkpt lat="45.966447" lon="10.28704"><time>2025-04-28T07:14:40.000Z</time><ele>948</ele></trkpt><trkpt lat="45.96644" lon="10.287028"><time>2025-04-28T07:14:41.000Z</time><ele>948</ele></trkpt><trkpt lat="45.966437" lon="10.287025"><time>2025-04-28T07:14:42.000Z</time><ele>948.2</ele></trkpt><trkpt lat="45.966432" lon="10.28702"><time>2025-04-28T07:14:43.000Z</time><ele>948.2</ele></trkpt><trkpt lat="45.966428" lon="10.287018"><time>2025-04-28T07:14:44.000Z</time><ele>948.4</ele></trkpt><trkpt lat="45.966431" lon="10.287013"><time>2025-04-28T07:14:45.000Z</time><ele>948.6</ele></trkpt><trkpt lat="45.966423" lon="10.287027"><time>2025-04-28T07:14:46.000Z</time><ele>948.6</ele></trkpt><trkpt lat="45.966412" lon="10.287041"><time>2025-04-28T07:14:47.000Z</time><ele>949</ele></trkpt><trkpt lat="45.966409" lon="10.287043"><time>2025-04-28T07:14:48.000Z</time><ele>949.2</ele></trkpt><trkpt lat="45.966423" lon="10.28704"><time>2025-04-28T07:14:49.000Z</time><ele>949.2</ele></trkpt><trkpt lat="45.966441" lon="10.287032"><time>2025-04-28T07:14:50.000Z</time><ele>949.4</ele></trkpt><trkpt lat="45.966462" lon="10.287019"><time>2025-04-28T07:14:51.000Z</time><ele>949.4</ele></trkpt><trkpt lat="45.966469" lon="10.287"><time>2025-04-28T07:14:52.000Z</time><ele>949.8</ele></trkpt><trkpt lat="45.966464" lon="10.28698"><time>2025-04-28T07:14:53.000Z</time><ele>950</ele></trkpt><trkpt lat="45.966454" lon="10.286959"><time>2025-04-28T07:14:54.000Z</time><ele>950.2</ele></trkpt><trkpt lat="45.966453" lon="10.286941"><time>2025-04-28T07:14:55.000Z</time><ele>950.2</ele></trkpt><trkpt lat="45.96645" lon="10.286926"><time>2025-04-28T07:14:56.000Z</time><ele>950.6</ele></trkpt><trkpt lat="45.966434" lon="10.28692"><time>2025-04-28T07:14:57.000Z</time><ele>950.8</ele></trkpt><trkpt lat="45.966427" lon="10.286906"><time>2025-04-28T07:14:58.000Z</time><ele>950.8</ele></trkpt><trkpt lat="45.966425" lon="10.286894"><time>2025-04-28T07:14:59.000Z</time><ele>951</ele></trkpt><trkpt lat="45.966424" lon="10.286883"><time>2025-04-28T07:15:00.000Z</time><ele>951.2</ele></trkpt><trkpt lat="45.966417" lon="10.28687"><time>2025-04-28T07:15:01.000Z</time><ele>951.4</ele></trkpt><trkpt lat="45.966416" lon="10.28686"><time>2025-04-28T07:15:02.000Z</time><ele>951.4</ele></trkpt><trkpt lat="45.966383" lon="10.286853"><time>2025-04-28T07:15:03.000Z</time><ele>951.6</ele></trkpt><trkpt lat="45.966366" lon="10.286842"><time>2025-04-28T07:15:04.000Z</time><ele>951.8</ele></trkpt><trkpt lat="45.966353" lon="10.286837"><time>2025-04-28T07:15:05.000Z</time><ele>952</ele></trkpt><trkpt lat="45.96635" lon="10.286828"><time>2025-04-28T07:15:06.000Z</time><ele>952</ele></trkpt><trkpt lat="45.966355" lon="10.286817"><time>2025-04-28T07:15:07.000Z</time><ele>952.2</ele></trkpt><trkpt lat="45.966362" lon="10.286809"><time>2025-04-28T07:15:08.000Z</time><ele>952.2</ele></trkpt><trkpt lat="45.966372" lon="10.2868"><time>2025-04-28T07:15:09.000Z</time><ele>952.4</ele></trkpt><trkpt lat="45.966374" lon="10.286794"><time>2025-04-28T07:15:10.000Z</time><ele>952.6</ele></trkpt><trkpt lat="45.966373" lon="10.286788"><time>2025-04-28T07:15:11.000Z</time><ele>952.6</ele></trkpt><trkpt lat="45.966381" lon="10.286783"><time>2025-04-28T07:15:12.000Z</time><ele>952.6</ele></trkpt><trkpt lat="45.966382" lon="10.286781"><time>2025-04-28T07:15:13.000Z</time><ele>952.8</ele></trkpt><trkpt lat="45.966381" lon="10.286776"><time>2025-04-28T07:15:14.000Z</time><ele>953</ele></trkpt><trkpt lat="45.966388" lon="10.286769"><time>2025-04-28T07:15:15.000Z</time><ele>953</ele></trkpt><trkpt lat="45.966389" lon="10.286767"><time>2025-04-28T07:15:16.000Z</time><ele>953.2</ele></trkpt><trkpt lat="45.966388" lon="10.286765"><time>2025-04-28T07:15:17.000Z</time><ele>953.4</ele></trkpt><trkpt lat="45.966393" lon="10.286763"><time>2025-04-28T07:15:18.000Z</time><ele>953.6</ele></trkpt><trkpt lat="45.966394" lon="10.286757"><time>2025-04-28T07:15:19.000Z</time><ele>953.8</ele></trkpt><trkpt lat="45.966396" lon="10.286752"><time>2025-04-28T07:15:20.000Z</time><ele>954</ele></trkpt><trkpt lat="45.966395" lon="10.286748"><time>2025-04-28T07:15:21.000Z</time><ele>954.2</ele></trkpt><trkpt lat="45.966384" lon="10.286749"><time>2025-04-28T07:15:22.000Z</time><ele>954.4</ele></trkpt><trkpt lat="45.966375" lon="10.28675"><time>2025-04-28T07:15:23.000Z</time><ele>954.6</ele></trkpt><trkpt lat="45.966369" lon="10.286744"><time>2025-04-28T07:15:24.000Z</time><ele>954.6</ele></trkpt><trkpt lat="45.966368" lon="10.286744"><time>2025-04-28T07:15:25.000Z</time><ele>955</ele></trkpt><trkpt lat="45.966371" lon="10.286746"><time>2025-04-28T07:15:26.000Z</time><ele>955.2</ele></trkpt><trkpt lat="45.966375" lon="10.286745"><time>2025-04-28T07:15:27.000Z</time><ele>955.4</ele></trkpt><trkpt lat="45.966378" lon="10.28674"><time>2025-04-28T07:15:28.000Z</time><ele>955.4</ele></trkpt><trkpt lat="45.966378" lon="10.286733"><time>2025-04-28T07:15:29.000Z</time><ele>955.6</ele></trkpt><trkpt lat="45.966382" lon="10.286728"><time>2025-04-28T07:15:30.000Z</time><ele>955.8</ele></trkpt><trkpt lat="45.966382" lon="10.286723"><time>2025-04-28T07:15:31.000Z</time><ele>956</ele></trkpt><trkpt lat="45.96638" lon="10.286723"><time>2025-04-28T07:15:32.000Z</time><ele>956</ele></trkpt><trkpt lat="45.966379" lon="10.286714"><time>2025-04-28T07:15:33.000Z</time><ele>956.2</ele></trkpt><trkpt lat="45.966376" lon="10.286711"><time>2025-04-28T07:15:34.000Z</time><ele>956.2</ele></trkpt><trkpt lat="45.966368" lon="10.286703"><time>2025-04-28T07:15:35.000Z</time><ele>956.6</ele></trkpt><trkpt lat="45.966374" lon="10.286696"><time>2025-04-28T07:15:36.000Z</time><ele>957</ele></trkpt><trkpt lat="45.966365" lon="10.286683"><time>2025-04-28T07:15:37.000Z</time><ele>957.2</ele></trkpt><trkpt lat="45.966368" lon="10.286666"><time>2025-04-28T07:15:38.000Z</time><ele>957.4</ele></trkpt><trkpt lat="45.966362" lon="10.286658"><time>2025-04-28T07:15:39.000Z</time><ele>957.4</ele></trkpt><trkpt lat="45.966346" lon="10.286643"><time>2025-04-28T07:15:40.000Z</time><ele>957.6</ele></trkpt><trkpt lat="45.966339" lon="10.286646"><time>2025-04-28T07:15:41.000Z</time><ele>957.6</ele></trkpt><trkpt lat="45.966327" lon="10.286647"><time>2025-04-28T07:15:42.000Z</time><ele>957.8</ele></trkpt><trkpt lat="45.966317" lon="10.286655"><time>2025-04-28T07:15:43.000Z</time><ele>957.8</ele></trkpt><trkpt lat="45.96632" lon="10.286649"><time>2025-04-28T07:15:44.000Z</time><ele>957.8</ele></trkpt><trkpt lat="45.966331" lon="10.286637"><time>2025-04-28T07:15:45.000Z</time><ele>958</ele></trkpt><trkpt lat="45.966338" lon="10.286623"><time>2025-04-28T07:15:46.000Z</time><ele>958.2</ele></trkpt><trkpt lat="45.966339" lon="10.28662"><time>2025-04-28T07:15:47.000Z</time><ele>958.6</ele></trkpt><trkpt lat="45.966334" lon="10.286608"><time>2025-04-28T07:15:48.000Z</time><ele>958.6</ele></trkpt><trkpt lat="45.966333" lon="10.286604"><time>2025-04-28T07:15:49.000Z</time><ele>958.8</ele></trkpt><trkpt lat="45.96634" lon="10.286596"><time>2025-04-28T07:15:50.000Z</time><ele>958.8</ele></trkpt><trkpt lat="45.966341" lon="10.286593"><time>2025-04-28T07:15:51.000Z</time><ele>959</ele></trkpt><trkpt lat="45.966343" lon="10.286586"><time>2025-04-28T07:15:52.000Z</time><ele>959.2</ele></trkpt><trkpt lat="45.966344" lon="10.286584"><time>2025-04-28T07:15:53.000Z</time><ele>959.4</ele></trkpt><trkpt lat="45.966342" lon="10.286578"><time>2025-04-28T07:15:54.000Z</time><ele>959.4</ele></trkpt><trkpt lat="45.966342" lon="10.286573"><time>2025-04-28T07:15:55.000Z</time><ele>959.8</ele></trkpt><trkpt lat="45.966343" lon="10.286564"><time>2025-04-28T07:15:56.000Z</time><ele>960</ele></trkpt><trkpt lat="45.966347" lon="10.286554"><time>2025-04-28T07:15:57.000Z</time><ele>960.2</ele></trkpt><trkpt lat="45.966347" lon="10.28655"><time>2025-04-28T07:15:58.000Z</time><ele>960.2</ele></trkpt><trkpt lat="45.966346" lon="10.286547"><time>2025-04-28T07:15:59.000Z</time><ele>960.6</ele></trkpt><trkpt lat="45.966341" lon="10.286538"><time>2025-04-28T07:16:00.000Z</time><ele>960.8</ele></trkpt><trkpt lat="45.966338" lon="10.286529"><time>2025-04-28T07:16:01.000Z</time><ele>961</ele></trkpt><trkpt lat="45.966335" lon="10.286518"><time>2025-04-28T07:16:02.000Z</time><ele>961.2</ele></trkpt><trkpt lat="45.966334" lon="10.286512"><time>2025-04-28T07:16:03.000Z</time><ele>961.4</ele></trkpt><trkpt lat="45.966333" lon="10.286507"><time>2025-04-28T07:16:04.000Z</time><ele>961.4</ele></trkpt><trkpt lat="45.966337" lon="10.286502"><time>2025-04-28T07:16:05.000Z</time><ele>961.6</ele></trkpt><trkpt lat="45.966336" lon="10.286499"><time>2025-04-28T07:16:06.000Z</time><ele>961.8</ele></trkpt><trkpt lat="45.966327" lon="10.2865"><time>2025-04-28T07:16:07.000Z</time><ele>962</ele></trkpt><trkpt lat="45.966321" lon="10.286498"><time>2025-04-28T07:16:08.000Z</time><ele>962</ele></trkpt><trkpt lat="45.966316" lon="10.286495"><time>2025-04-28T07:16:09.000Z</time><ele>962.2</ele></trkpt><trkpt lat="45.966309" lon="10.286498"><time>2025-04-28T07:16:10.000Z</time><ele>962.4</ele></trkpt><trkpt lat="45.966307" lon="10.286498"><time>2025-04-28T07:16:11.000Z</time><ele>962.4</ele></trkpt><trkpt lat="45.96628" lon="10.286491"><time>2025-04-28T07:16:12.000Z</time><ele>962.6</ele></trkpt><trkpt lat="45.966268" lon="10.286475"><time>2025-04-28T07:16:13.000Z</time><ele>962.6</ele></trkpt><trkpt lat="45.966262" lon="10.286463"><time>2025-04-28T07:16:14.000Z</time><ele>963</ele></trkpt><trkpt lat="45.966247" lon="10.286451"><time>2025-04-28T07:16:15.000Z</time><ele>963.2</ele></trkpt><trkpt lat="45.966248" lon="10.286455"><time>2025-04-28T07:16:16.000Z</time><ele>963.4</ele></trkpt><trkpt lat="45.966259" lon="10.286462"><time>2025-04-28T07:16:17.000Z</time><ele>963.4</ele></trkpt><trkpt lat="45.966273" lon="10.286467"><time>2025-04-28T07:16:18.000Z</time><ele>963.6</ele></trkpt><trkpt lat="45.966274" lon="10.286465"><time>2025-04-28T07:16:19.000Z</time><ele>963.8</ele></trkpt><trkpt lat="45.966272" lon="10.286462"><time>2025-04-28T07:16:20.000Z</time><ele>964</ele></trkpt><trkpt lat="45.966269" lon="10.286459"><time>2025-04-28T07:16:21.000Z</time><ele>964</ele></trkpt><trkpt lat="45.966266" lon="10.286453"><time>2025-04-28T07:16:22.000Z</time><ele>964.4</ele></trkpt><trkpt lat="45.96626" lon="10.286451"><time>2025-04-28T07:16:23.000Z</time><ele>964.8</ele></trkpt><trkpt lat="45.966254" lon="10.286448"><time>2025-04-28T07:16:24.000Z</time><ele>964.8</ele></trkpt><trkpt lat="45.966248" lon="10.286446"><time>2025-04-28T07:16:25.000Z</time><ele>965</ele></trkpt><trkpt lat="45.966241" lon="10.286441"><time>2025-04-28T07:16:26.000Z</time><ele>965.2</ele></trkpt><trkpt lat="45.966212" lon="10.286447"><time>2025-04-28T07:16:27.000Z</time><ele>965.2</ele></trkpt><trkpt lat="45.966206" lon="10.286451"><time>2025-04-28T07:16:28.000Z</time><ele>965.2</ele></trkpt><trkpt lat="45.966204" lon="10.286452"><time>2025-04-28T07:16:29.000Z</time><ele>965.4</ele></trkpt><trkpt lat="45.966214" lon="10.286454"><time>2025-04-28T07:16:30.000Z</time><ele>965.8</ele></trkpt><trkpt lat="45.966212" lon="10.286452"><time>2025-04-28T07:16:31.000Z</time><ele>966</ele></trkpt><trkpt lat="45.966215" lon="10.286448"><time>2025-04-28T07:16:32.000Z</time><ele>966</ele></trkpt><trkpt lat="45.966219" lon="10.286442"><time>2025-04-28T07:16:33.000Z</time><ele>966.2</ele></trkpt><trkpt lat="45.966225" lon="10.286428"><time>2025-04-28T07:16:34.000Z</time><ele>966.4</ele></trkpt><trkpt lat="45.966232" lon="10.286408"><time>2025-04-28T07:16:35.000Z</time><ele>966.6</ele></trkpt><trkpt lat="45.96624" lon="10.286396"><time>2025-04-28T07:16:36.000Z</time><ele>966.8</ele></trkpt><trkpt lat="45.966239" lon="10.286385"><time>2025-04-28T07:16:37.000Z</time><ele>967</ele></trkpt><trkpt lat="45.966254" lon="10.286383"><time>2025-04-28T07:16:38.000Z</time><ele>967.2</ele></trkpt><trkpt lat="45.966261" lon="10.286382"><time>2025-04-28T07:16:39.000Z</time><ele>967.4</ele></trkpt><trkpt lat="45.966259" lon="10.286382"><time>2025-04-28T07:16:40.000Z</time><ele>967.4</ele></trkpt><trkpt lat="45.966266" lon="10.286375"><time>2025-04-28T07:16:41.000Z</time><ele>967.6</ele></trkpt><trkpt lat="45.966278" lon="10.286365"><time>2025-04-28T07:16:42.000Z</time><ele>967.6</ele></trkpt><trkpt lat="45.966296" lon="10.286365"><time>2025-04-28T07:16:43.000Z</time><ele>967.8</ele></trkpt><trkpt lat="45.966295" lon="10.286364"><time>2025-04-28T07:16:44.000Z</time><ele>967.8</ele></trkpt><trkpt lat="45.966305" lon="10.286399"><time>2025-04-28T07:16:45.000Z</time><ele>967.8</ele></trkpt><trkpt lat="45.966308" lon="10.286412"><time>2025-04-28T07:16:46.000Z</time><ele>968</ele></trkpt><trkpt lat="45.966311" lon="10.286409"><time>2025-04-28T07:16:47.000Z</time><ele>968.2</ele></trkpt><trkpt lat="45.966329" lon="10.286395"><time>2025-04-28T07:16:48.000Z</time><ele>968.4</ele></trkpt><trkpt lat="45.966326" lon="10.28639"><time>2025-04-28T07:16:49.000Z</time><ele>968.6</ele></trkpt><trkpt lat="45.966325" lon="10.286385"><time>2025-04-28T07:16:50.000Z</time><ele>968.8</ele></trkpt><trkpt lat="45.966326" lon="10.286382"><time>2025-04-28T07:16:51.000Z</time><ele>969</ele></trkpt><trkpt lat="45.96633" lon="10.286379"><time>2025-04-28T07:16:52.000Z</time><ele>969.2</ele></trkpt><trkpt lat="45.966315" lon="10.286364"><time>2025-04-28T07:16:53.000Z</time><ele>969.4</ele></trkpt><trkpt lat="45.966315" lon="10.286344"><time>2025-04-28T07:16:54.000Z</time><ele>969.6</ele></trkpt><trkpt lat="45.966299" lon="10.286323"><time>2025-04-28T07:16:55.000Z</time><ele>969.6</ele></trkpt><trkpt lat="45.966291" lon="10.286318"><time>2025-04-28T07:16:56.000Z</time><ele>969.6</ele></trkpt><trkpt lat="45.966291" lon="10.286304"><time>2025-04-28T07:16:57.000Z</time><ele>969.8</ele></trkpt><trkpt lat="45.966288" lon="10.2863"><time>2025-04-28T07:16:58.000Z</time><ele>969.8</ele></trkpt><trkpt lat="45.966296" lon="10.286294"><time>2025-04-28T07:16:59.000Z</time><ele>970</ele></trkpt><trkpt lat="45.966316" lon="10.286294"><time>2025-04-28T07:17:00.000Z</time><ele>970</ele></trkpt><trkpt lat="45.966338" lon="10.286289"><time>2025-04-28T07:17:01.000Z</time><ele>970.4</ele></trkpt><trkpt lat="45.966348" lon="10.286279"><time>2025-04-28T07:17:02.000Z</time><ele>970.4</ele></trkpt><trkpt lat="45.966354" lon="10.286266"><time>2025-04-28T07:17:03.000Z</time><ele>970.6</ele></trkpt><trkpt lat="45.966354" lon="10.286235"><time>2025-04-28T07:17:04.000Z</time><ele>970.8</ele></trkpt><trkpt lat="45.96634" lon="10.286217"><time>2025-04-28T07:17:05.000Z</time><ele>970.8</ele></trkpt><trkpt lat="45.966323" lon="10.2862"><time>2025-04-28T07:17:06.000Z</time><ele>970.8</ele></trkpt><trkpt lat="45.966326" lon="10.286194"><time>2025-04-28T07:17:07.000Z</time><ele>970.8</ele></trkpt><trkpt lat="45.96632" lon="10.286188"><time>2025-04-28T07:17:08.000Z</time><ele>970.8</ele></trkpt><trkpt lat="45.966337" lon="10.286187"><time>2025-04-28T07:17:09.000Z</time><ele>970.8</ele></trkpt><trkpt lat="45.966334" lon="10.286185"><time>2025-04-28T07:17:10.000Z</time><ele>970.8</ele></trkpt><trkpt lat="45.966332" lon="10.286185"><time>2025-04-28T07:17:11.000Z</time><ele>970.8</ele></trkpt><trkpt lat="45.966342" lon="10.286185"><time>2025-04-28T07:17:12.000Z</time><ele>970.8</ele></trkpt><trkpt lat="45.966354" lon="10.286183"><time>2025-04-28T07:17:13.000Z</time><ele>970.8</ele></trkpt><trkpt lat="45.966366" lon="10.28618"><time>2025-04-28T07:17:14.000Z</time><ele>971</ele></trkpt><trkpt lat="45.966376" lon="10.286176"><time>2025-04-28T07:17:15.000Z</time><ele>971.2</ele></trkpt><trkpt lat="45.966386" lon="10.28617"><time>2025-04-28T07:17:16.000Z</time><ele>971.4</ele></trkpt><trkpt lat="45.96639" lon="10.286163"><time>2025-04-28T07:17:17.000Z</time><ele>971.4</ele></trkpt><trkpt lat="45.966394" lon="10.286154"><time>2025-04-28T07:17:18.000Z</time><ele>971.6</ele></trkpt><trkpt lat="45.966397" lon="10.286147"><time>2025-04-28T07:17:19.000Z</time><ele>971.6</ele></trkpt><trkpt lat="45.9664" lon="10.286146"><time>2025-04-28T07:17:20.000Z</time><ele>971.6</ele></trkpt><trkpt lat="45.966382" lon="10.286135"><time>2025-04-28T07:17:21.000Z</time><ele>971.8</ele></trkpt><trkpt lat="45.966367" lon="10.286124"><time>2025-04-28T07:17:22.000Z</time><ele>972</ele></trkpt><trkpt lat="45.966352" lon="10.286115"><time>2025-04-28T07:17:23.000Z</time><ele>972.2</ele></trkpt><trkpt lat="45.966338" lon="10.286111"><time>2025-04-28T07:17:24.000Z</time><ele>972.6</ele></trkpt><trkpt lat="45.966329" lon="10.286107"><time>2025-04-28T07:17:25.000Z</time><ele>973</ele></trkpt><trkpt lat="45.966322" lon="10.286104"><time>2025-04-28T07:17:26.000Z</time><ele>973.2</ele></trkpt><trkpt lat="45.966317" lon="10.286102"><time>2025-04-28T07:17:27.000Z</time><ele>973.2</ele></trkpt><trkpt lat="45.966314" lon="10.286102"><time>2025-04-28T07:17:28.000Z</time><ele>973.4</ele></trkpt><trkpt lat="45.966312" lon="10.286098"><time>2025-04-28T07:17:29.000Z</time><ele>973.4</ele></trkpt><trkpt lat="45.966323" lon="10.28609"><time>2025-04-28T07:17:30.000Z</time><ele>973.6</ele></trkpt><trkpt lat="45.966332" lon="10.286083"><time>2025-04-28T07:17:31.000Z</time><ele>973.6</ele></trkpt><trkpt lat="45.966336" lon="10.286082"><time>2025-04-28T07:17:32.000Z</time><ele>973.8</ele></trkpt><trkpt lat="45.966337" lon="10.286084"><time>2025-04-28T07:17:33.000Z</time><ele>973.8</ele></trkpt><trkpt lat="45.966332" lon="10.286087"><time>2025-04-28T07:17:34.000Z</time><ele>974</ele></trkpt><trkpt lat="45.966336" lon="10.286092"><time>2025-04-28T07:17:35.000Z</time><ele>974</ele></trkpt><trkpt lat="45.966336" lon="10.286092"><time>2025-04-28T07:17:36.000Z</time><ele>974.2</ele></trkpt><trkpt lat="45.96634" lon="10.286089"><time>2025-04-28T07:17:37.000Z</time><ele>974.2</ele></trkpt><trkpt lat="45.966335" lon="10.286086"><time>2025-04-28T07:17:38.000Z</time><ele>974.6</ele></trkpt><trkpt lat="45.96633" lon="10.286082"><time>2025-04-28T07:17:39.000Z</time><ele>974.8</ele></trkpt><trkpt lat="45.966345" lon="10.286072"><time>2025-04-28T07:17:40.000Z</time><ele>974.8</ele></trkpt><trkpt lat="45.966355" lon="10.286055"><time>2025-04-28T07:17:41.000Z</time><ele>975</ele></trkpt><trkpt lat="45.966347" lon="10.286041"><time>2025-04-28T07:17:42.000Z</time><ele>975.2</ele></trkpt><trkpt lat="45.966327" lon="10.286026"><time>2025-04-28T07:17:43.000Z</time><ele>975.4</ele></trkpt><trkpt lat="45.966325" lon="10.286024"><time>2025-04-28T07:17:44.000Z</time><ele>975.6</ele></trkpt><trkpt lat="45.966332" lon="10.286018"><time>2025-04-28T07:17:45.000Z</time><ele>975.6</ele></trkpt><trkpt lat="45.966328" lon="10.28601"><time>2025-04-28T07:17:46.000Z</time><ele>975.8</ele></trkpt><trkpt lat="45.966328" lon="10.286002"><time>2025-04-28T07:17:47.000Z</time><ele>976</ele></trkpt><trkpt lat="45.96633" lon="10.285994"><time>2025-04-28T07:17:48.000Z</time><ele>976</ele></trkpt><trkpt lat="45.966345" lon="10.28599"><time>2025-04-28T07:17:49.000Z</time><ele>976</ele></trkpt><trkpt lat="45.966352" lon="10.285982"><time>2025-04-28T07:17:50.000Z</time><ele>976.2</ele></trkpt><trkpt lat="45.966342" lon="10.285981"><time>2025-04-28T07:17:51.000Z</time><ele>976.2</ele></trkpt><trkpt lat="45.966334" lon="10.285982"><time>2025-04-28T07:17:52.000Z</time><ele>976.4</ele></trkpt><trkpt lat="45.966323" lon="10.285983"><time>2025-04-28T07:17:53.000Z</time><ele>976.4</ele></trkpt><trkpt lat="45.966316" lon="10.285976"><time>2025-04-28T07:17:54.000Z</time><ele>976.6</ele></trkpt><trkpt lat="45.96631" lon="10.285969"><time>2025-04-28T07:17:55.000Z</time><ele>976.8</ele></trkpt><trkpt lat="45.966306" lon="10.285965"><time>2025-04-28T07:17:56.000Z</time><ele>977.2</ele></trkpt><trkpt lat="45.966315" lon="10.285968"><time>2025-04-28T07:17:57.000Z</time><ele>977.2</ele></trkpt><trkpt lat="45.96631" lon="10.28597"><time>2025-04-28T07:17:58.000Z</time><ele>977.4</ele></trkpt><trkpt lat="45.966309" lon="10.285969"><time>2025-04-28T07:17:59.000Z</time><ele>977.6</ele></trkpt><trkpt lat="45.966306" lon="10.285969"><time>2025-04-28T07:18:00.000Z</time><ele>977.6</ele></trkpt><trkpt lat="45.966318" lon="10.285963"><time>2025-04-28T07:18:01.000Z</time><ele>977.8</ele></trkpt><trkpt lat="45.966326" lon="10.285953"><time>2025-04-28T07:18:02.000Z</time><ele>977.8</ele></trkpt><trkpt lat="45.966332" lon="10.285944"><time>2025-04-28T07:18:03.000Z</time><ele>977.8</ele></trkpt><trkpt lat="45.966343" lon="10.285951"><time>2025-04-28T07:18:04.000Z</time><ele>978</ele></trkpt><trkpt lat="45.966352" lon="10.285958"><time>2025-04-28T07:18:05.000Z</time><ele>978.2</ele></trkpt><trkpt lat="45.966349" lon="10.285959"><time>2025-04-28T07:18:06.000Z</time><ele>978.4</ele></trkpt><trkpt lat="45.966366" lon="10.285952"><time>2025-04-28T07:18:07.000Z</time><ele>978.6</ele></trkpt><trkpt lat="45.966378" lon="10.285948"><time>2025-04-28T07:18:08.000Z</time><ele>978.8</ele></trkpt><trkpt lat="45.966375" lon="10.285937"><time>2025-04-28T07:18:09.000Z</time><ele>978.8</ele></trkpt><trkpt lat="45.966376" lon="10.285928"><time>2025-04-28T07:18:10.000Z</time><ele>979</ele></trkpt><trkpt lat="45.966377" lon="10.28591"><time>2025-04-28T07:18:11.000Z</time><ele>979</ele></trkpt><trkpt lat="45.966367" lon="10.285891"><time>2025-04-28T07:18:12.000Z</time><ele>979.2</ele></trkpt><trkpt lat="45.966363" lon="10.285876"><time>2025-04-28T07:18:13.000Z</time><ele>979.2</ele></trkpt><trkpt lat="45.966363" lon="10.285864"><time>2025-04-28T07:18:14.000Z</time><ele>979.4</ele></trkpt><trkpt lat="45.966357" lon="10.285857"><time>2025-04-28T07:18:15.000Z</time><ele>979.6</ele></trkpt><trkpt lat="45.966354" lon="10.285854"><time>2025-04-28T07:18:16.000Z</time><ele>979.8</ele></trkpt><trkpt lat="45.966357" lon="10.285851"><time>2025-04-28T07:18:17.000Z</time><ele>979.8</ele></trkpt><trkpt lat="45.966353" lon="10.285846"><time>2025-04-28T07:18:18.000Z</time><ele>980</ele></trkpt><trkpt lat="45.966344" lon="10.285842"><time>2025-04-28T07:18:19.000Z</time><ele>980.2</ele></trkpt><trkpt lat="45.966343" lon="10.285841"><time>2025-04-28T07:18:20.000Z</time><ele>980.4</ele></trkpt><trkpt lat="45.966336" lon="10.285843"><time>2025-04-28T07:18:21.000Z</time><ele>980.6</ele></trkpt><trkpt lat="45.966325" lon="10.285833"><time>2025-04-28T07:18:22.000Z</time><ele>980.6</ele></trkpt><trkpt lat="45.96633" lon="10.285824"><time>2025-04-28T07:18:23.000Z</time><ele>980.8</ele></trkpt><trkpt lat="45.966328" lon="10.285817"><time>2025-04-28T07:18:24.000Z</time><ele>981</ele></trkpt><trkpt lat="45.966329" lon="10.285811"><time>2025-04-28T07:18:25.000Z</time><ele>981</ele></trkpt><trkpt lat="45.96633" lon="10.285799"><time>2025-04-28T07:18:26.000Z</time><ele>981</ele></trkpt><trkpt lat="45.966319" lon="10.285782"><time>2025-04-28T07:18:27.000Z</time><ele>981.2</ele></trkpt><trkpt lat="45.966296" lon="10.285762"><time>2025-04-28T07:18:28.000Z</time><ele>981.6</ele></trkpt><trkpt lat="45.966284" lon="10.285743"><time>2025-04-28T07:18:29.000Z</time><ele>981.8</ele></trkpt><trkpt lat="45.966274" lon="10.285735"><time>2025-04-28T07:18:30.000Z</time><ele>982</ele></trkpt><trkpt lat="45.966293" lon="10.285717"><time>2025-04-28T07:18:31.000Z</time><ele>982.2</ele></trkpt><trkpt lat="45.966305" lon="10.285714"><time>2025-04-28T07:18:32.000Z</time><ele>982.4</ele></trkpt><trkpt lat="45.966323" lon="10.285701"><time>2025-04-28T07:18:33.000Z</time><ele>982.4</ele></trkpt><trkpt lat="45.966334" lon="10.285688"><time>2025-04-28T07:18:34.000Z</time><ele>982.6</ele></trkpt><trkpt lat="45.96633" lon="10.28568"><time>2025-04-28T07:18:35.000Z</time><ele>982.8</ele></trkpt><trkpt lat="45.966328" lon="10.285675"><time>2025-04-28T07:18:36.000Z</time><ele>982.8</ele></trkpt><trkpt lat="45.966328" lon="10.285664"><time>2025-04-28T07:18:37.000Z</time><ele>982.8</ele></trkpt><trkpt lat="45.966326" lon="10.285653"><time>2025-04-28T07:18:38.000Z</time><ele>983</ele></trkpt><trkpt lat="45.966325" lon="10.285643"><time>2025-04-28T07:18:39.000Z</time><ele>983.4</ele></trkpt><trkpt lat="45.96633" lon="10.285634"><time>2025-04-28T07:18:40.000Z</time><ele>983.4</ele></trkpt><trkpt lat="45.966331" lon="10.28563"><time>2025-04-28T07:18:41.000Z</time><ele>983.6</ele></trkpt><trkpt lat="45.966334" lon="10.285624"><time>2025-04-28T07:18:42.000Z</time><ele>983.8</ele></trkpt><trkpt lat="45.966338" lon="10.285619"><time>2025-04-28T07:18:43.000Z</time><ele>983.8</ele></trkpt><trkpt lat="45.966339" lon="10.285614"><time>2025-04-28T07:18:44.000Z</time><ele>984</ele></trkpt><trkpt lat="45.966348" lon="10.285613"><time>2025-04-28T07:18:45.000Z</time><ele>984</ele></trkpt><trkpt lat="45.96638" lon="10.285619"><time>2025-04-28T07:18:46.000Z</time><ele>984.2</ele></trkpt><trkpt lat="45.966393" lon="10.28562"><time>2025-04-28T07:18:47.000Z</time><ele>984.4</ele></trkpt><trkpt lat="45.966402" lon="10.285615"><time>2025-04-28T07:18:48.000Z</time><ele>984.6</ele></trkpt><trkpt lat="45.966406" lon="10.285595"><time>2025-04-28T07:18:49.000Z</time><ele>984.8</ele></trkpt><trkpt lat="45.966411" lon="10.285586"><time>2025-04-28T07:18:50.000Z</time><ele>984.8</ele></trkpt><trkpt lat="45.966408" lon="10.28558"><time>2025-04-28T07:18:51.000Z</time><ele>985</ele></trkpt><trkpt lat="45.966406" lon="10.285571"><time>2025-04-28T07:18:52.000Z</time><ele>985</ele></trkpt><trkpt lat="45.966394" lon="10.285563"><time>2025-04-28T07:18:53.000Z</time><ele>985.2</ele></trkpt><trkpt lat="45.96638" lon="10.285563"><time>2025-04-28T07:18:54.000Z</time><ele>985.4</ele></trkpt><trkpt lat="45.966367" lon="10.285557"><time>2025-04-28T07:18:55.000Z</time><ele>985.6</ele></trkpt><trkpt lat="45.966355" lon="10.285553"><time>2025-04-28T07:18:56.000Z</time><ele>985.8</ele></trkpt><trkpt lat="45.96634" lon="10.285568"><time>2025-04-28T07:18:57.000Z</time><ele>986</ele></trkpt><trkpt lat="45.966323" lon="10.285557"><time>2025-04-28T07:18:58.000Z</time><ele>986.2</ele></trkpt><trkpt lat="45.966344" lon="10.285552"><time>2025-04-28T07:18:59.000Z</time><ele>986.4</ele></trkpt><trkpt lat="45.966354" lon="10.285552"><time>2025-04-28T07:19:00.000Z</time><ele>986.6</ele></trkpt><trkpt lat="45.966356" lon="10.285554"><time>2025-04-28T07:19:01.000Z</time><ele>986.8</ele></trkpt><trkpt lat="45.966357" lon="10.285554"><time>2025-04-28T07:19:02.000Z</time><ele>986.8</ele></trkpt><trkpt lat="45.96635" lon="10.285556"><time>2025-04-28T07:19:03.000Z</time><ele>987</ele></trkpt><trkpt lat="45.966342" lon="10.285549"><time>2025-04-28T07:19:04.000Z</time><ele>987</ele></trkpt><trkpt lat="45.966331" lon="10.285542"><time>2025-04-28T07:19:05.000Z</time><ele>987.2</ele></trkpt><trkpt lat="45.96633" lon="10.285536"><time>2025-04-28T07:19:06.000Z</time><ele>987.4</ele></trkpt><trkpt lat="45.966338" lon="10.285535"><time>2025-04-28T07:19:07.000Z</time><ele>987.6</ele></trkpt><trkpt lat="45.966344" lon="10.285533"><time>2025-04-28T07:19:08.000Z</time><ele>987.6</ele></trkpt><trkpt lat="45.966353" lon="10.285532"><time>2025-04-28T07:19:09.000Z</time><ele>987.8</ele></trkpt><trkpt lat="45.966366" lon="10.28553"><time>2025-04-28T07:19:10.000Z</time><ele>987.8</ele></trkpt><trkpt lat="45.966372" lon="10.285522"><time>2025-04-28T07:19:11.000Z</time><ele>988.2</ele></trkpt><trkpt lat="45.966368" lon="10.285515"><time>2025-04-28T07:19:12.000Z</time><ele>988.4</ele></trkpt><trkpt lat="45.966364" lon="10.28551"><time>2025-04-28T07:19:13.000Z</time><ele>988.4</ele></trkpt><trkpt lat="45.966359" lon="10.285503"><time>2025-04-28T07:19:14.000Z</time><ele>988.6</ele></trkpt><trkpt lat="45.966334" lon="10.285489"><time>2025-04-28T07:19:15.000Z</time><ele>989</ele></trkpt><trkpt lat="45.966328" lon="10.285482"><time>2025-04-28T07:19:16.000Z</time><ele>989</ele></trkpt><trkpt lat="45.966339" lon="10.285476"><time>2025-04-28T07:19:17.000Z</time><ele>989.2</ele></trkpt><trkpt lat="45.96634" lon="10.285471"><time>2025-04-28T07:19:18.000Z</time><ele>989.2</ele></trkpt><trkpt lat="45.966341" lon="10.285468"><time>2025-04-28T07:19:19.000Z</time><ele>989.6</ele></trkpt><trkpt lat="45.966353" lon="10.285468"><time>2025-04-28T07:19:20.000Z</time><ele>989.8</ele></trkpt><trkpt lat="45.966351" lon="10.285462"><time>2025-04-28T07:19:21.000Z</time><ele>989.8</ele></trkpt><trkpt lat="45.966351" lon="10.285459"><time>2025-04-28T07:19:22.000Z</time><ele>990</ele></trkpt><trkpt lat="45.966349" lon="10.285449"><time>2025-04-28T07:19:23.000Z</time><ele>990</ele></trkpt><trkpt lat="45.966346" lon="10.28544"><time>2025-04-28T07:19:24.000Z</time><ele>990.2</ele></trkpt><trkpt lat="45.966337" lon="10.285436"><time>2025-04-28T07:19:25.000Z</time><ele>990.4</ele></trkpt><trkpt lat="45.966348" lon="10.285432"><time>2025-04-28T07:19:26.000Z</time><ele>990.4</ele></trkpt><trkpt lat="45.966354" lon="10.285431"><time>2025-04-28T07:19:27.000Z</time><ele>990.6</ele></trkpt><trkpt lat="45.966359" lon="10.285428"><time>2025-04-28T07:19:28.000Z</time><ele>990.8</ele></trkpt><trkpt lat="45.966348" lon="10.285421"><time>2025-04-28T07:19:29.000Z</time><ele>991</ele></trkpt><trkpt lat="45.966347" lon="10.285416"><time>2025-04-28T07:19:30.000Z</time><ele>991.2</ele></trkpt><trkpt lat="45.966344" lon="10.285407"><time>2025-04-28T07:19:31.000Z</time><ele>991.4</ele></trkpt><trkpt lat="45.966326" lon="10.285401"><time>2025-04-28T07:19:32.000Z</time><ele>991.6</ele></trkpt><trkpt lat="45.966319" lon="10.285396"><time>2025-04-28T07:19:33.000Z</time><ele>991.8</ele></trkpt><trkpt lat="45.966288" lon="10.285392"><time>2025-04-28T07:19:34.000Z</time><ele>991.8</ele></trkpt><trkpt lat="45.966276" lon="10.285397"><time>2025-04-28T07:19:35.000Z</time><ele>992</ele></trkpt><trkpt lat="45.966275" lon="10.285391"><time>2025-04-28T07:19:36.000Z</time><ele>992.2</ele></trkpt><trkpt lat="45.966278" lon="10.285382"><time>2025-04-28T07:19:37.000Z</time><ele>992.2</ele></trkpt><trkpt lat="45.966262" lon="10.285368"><time>2025-04-28T07:19:38.000Z</time><ele>992.4</ele></trkpt><trkpt lat="45.966261" lon="10.285358"><time>2025-04-28T07:19:39.000Z</time><ele>992.4</ele></trkpt><trkpt lat="45.966277" lon="10.28535"><time>2025-04-28T07:19:40.000Z</time><ele>992.6</ele></trkpt><trkpt lat="45.966285" lon="10.285347"><time>2025-04-28T07:19:41.000Z</time><ele>992.8</ele></trkpt><trkpt lat="45.966302" lon="10.28534"><time>2025-04-28T07:19:42.000Z</time><ele>993</ele></trkpt><trkpt lat="45.966319" lon="10.285336"><time>2025-04-28T07:19:43.000Z</time><ele>993.2</ele></trkpt><trkpt lat="45.966328" lon="10.285335"><time>2025-04-28T07:19:44.000Z</time><ele>993.2</ele></trkpt><trkpt lat="45.966336" lon="10.285333"><time>2025-04-28T07:19:45.000Z</time><ele>993.4</ele></trkpt><trkpt lat="45.966332" lon="10.285331"><time>2025-04-28T07:19:46.000Z</time><ele>993.4</ele></trkpt><trkpt lat="45.966339" lon="10.285322"><time>2025-04-28T07:19:47.000Z</time><ele>993.6</ele></trkpt><trkpt lat="45.966333" lon="10.28531"><time>2025-04-28T07:19:48.000Z</time><ele>993.8</ele></trkpt><trkpt lat="45.966328" lon="10.285302"><time>2025-04-28T07:19:49.000Z</time><ele>993.8</ele></trkpt><trkpt lat="45.966335" lon="10.285301"><time>2025-04-28T07:19:50.000Z</time><ele>994.2</ele></trkpt><trkpt lat="45.966347" lon="10.285301"><time>2025-04-28T07:19:51.000Z</time><ele>994.4</ele></trkpt><trkpt lat="45.966363" lon="10.285303"><time>2025-04-28T07:19:52.000Z</time><ele>994.6</ele></trkpt><trkpt lat="45.96638" lon="10.285304"><time>2025-04-28T07:19:53.000Z</time><ele>994.8</ele></trkpt><trkpt lat="45.966397" lon="10.285307"><time>2025-04-28T07:19:54.000Z</time><ele>995</ele></trkpt><trkpt lat="45.966414" lon="10.285307"><time>2025-04-28T07:19:55.000Z</time><ele>995.2</ele></trkpt><trkpt lat="45.966428" lon="10.285303"><time>2025-04-28T07:19:56.000Z</time><ele>995.2</ele></trkpt><trkpt lat="45.966447" lon="10.285304"><time>2025-04-28T07:19:57.000Z</time><ele>995.4</ele></trkpt><trkpt lat="45.966435" lon="10.285299"><time>2025-04-28T07:19:58.000Z</time><ele>995.6</ele></trkpt><trkpt lat="45.966408" lon="10.285292"><time>2025-04-28T07:19:59.000Z</time><ele>995.6</ele></trkpt><trkpt lat="45.966408" lon="10.28529"><time>2025-04-28T07:20:00.000Z</time><ele>995.8</ele></trkpt><trkpt lat="45.966421" lon="10.285294"><time>2025-04-28T07:20:01.000Z</time><ele>996</ele></trkpt><trkpt lat="45.96642" lon="10.285293"><time>2025-04-28T07:20:02.000Z</time><ele>996</ele></trkpt><trkpt lat="45.966408" lon="10.285289"><time>2025-04-28T07:20:03.000Z</time><ele>996.4</ele></trkpt><trkpt lat="45.966403" lon="10.285288"><time>2025-04-28T07:20:04.000Z</time><ele>996.8</ele></trkpt><trkpt lat="45.966398" lon="10.285288"><time>2025-04-28T07:20:05.000Z</time><ele>996.8</ele></trkpt><trkpt lat="45.966416" lon="10.285287"><time>2025-04-28T07:20:06.000Z</time><ele>997</ele></trkpt><trkpt lat="45.96642" lon="10.285289"><time>2025-04-28T07:20:07.000Z</time><ele>997.2</ele></trkpt><trkpt lat="45.966418" lon="10.285282"><time>2025-04-28T07:20:08.000Z</time><ele>997.4</ele></trkpt><trkpt lat="45.966407" lon="10.285283"><time>2025-04-28T07:20:09.000Z</time><ele>997.6</ele></trkpt><trkpt lat="45.966403" lon="10.285278"><time>2025-04-28T07:20:10.000Z</time><ele>998</ele></trkpt><trkpt lat="45.966395" lon="10.285268"><time>2025-04-28T07:20:11.000Z</time><ele>998</ele></trkpt><trkpt lat="45.966382" lon="10.285257"><time>2025-04-28T07:20:12.000Z</time><ele>998.2</ele></trkpt><trkpt lat="45.966359" lon="10.285244"><time>2025-04-28T07:20:13.000Z</time><ele>998.4</ele></trkpt><trkpt lat="45.966347" lon="10.28524"><time>2025-04-28T07:20:14.000Z</time><ele>998.6</ele></trkpt><trkpt lat="45.966342" lon="10.285237"><time>2025-04-28T07:20:15.000Z</time><ele>998.6</ele></trkpt><trkpt lat="45.966339" lon="10.285232"><time>2025-04-28T07:20:16.000Z</time><ele>998.8</ele></trkpt><trkpt lat="45.966332" lon="10.285224"><time>2025-04-28T07:20:17.000Z</time><ele>999</ele></trkpt><trkpt lat="45.966318" lon="10.285229"><time>2025-04-28T07:20:18.000Z</time><ele>999.2</ele></trkpt><trkpt lat="45.96631" lon="10.285229"><time>2025-04-28T07:20:19.000Z</time><ele>999.4</ele></trkpt><trkpt lat="45.966312" lon="10.285227"><time>2025-04-28T07:20:20.000Z</time><ele>999.4</ele></trkpt><trkpt lat="45.966323" lon="10.285221"><time>2025-04-28T07:20:21.000Z</time><ele>999.6</ele></trkpt><trkpt lat="45.966333" lon="10.285214"><time>2025-04-28T07:20:22.000Z</time><ele>999.8</ele></trkpt><trkpt lat="45.966344" lon="10.285222"><time>2025-04-28T07:20:23.000Z</time><ele>1000</ele></trkpt><trkpt lat="45.966383" lon="10.285226"><time>2025-04-28T07:20:24.000Z</time><ele>1000</ele></trkpt><trkpt lat="45.966399" lon="10.28522"><time>2025-04-28T07:20:25.000Z</time><ele>1000.2</ele></trkpt><trkpt lat="45.966424" lon="10.285212"><time>2025-04-28T07:20:26.000Z</time><ele>1000.4</ele></trkpt><trkpt lat="45.96644" lon="10.285205"><time>2025-04-28T07:20:27.000Z</time><ele>1000.4</ele></trkpt><trkpt lat="45.966441" lon="10.285198"><time>2025-04-28T07:20:28.000Z</time><ele>1000.6</ele></trkpt><trkpt lat="45.966421" lon="10.285192"><time>2025-04-28T07:20:29.000Z</time><ele>1000.8</ele></trkpt><trkpt lat="45.966412" lon="10.285185"><time>2025-04-28T07:20:30.000Z</time><ele>1001</ele></trkpt><trkpt lat="45.966391" lon="10.285177"><time>2025-04-28T07:20:31.000Z</time><ele>1001.2</ele></trkpt><trkpt lat="45.966384" lon="10.285167"><time>2025-04-28T07:20:32.000Z</time><ele>1001.4</ele></trkpt><trkpt lat="45.966372" lon="10.285155"><time>2025-04-28T07:20:33.000Z</time><ele>1001.4</ele></trkpt><trkpt lat="45.966364" lon="10.285145"><time>2025-04-28T07:20:34.000Z</time><ele>1001.6</ele></trkpt><trkpt lat="45.966376" lon="10.28514"><time>2025-04-28T07:20:35.000Z</time><ele>1001.6</ele></trkpt><trkpt lat="45.966386" lon="10.285136"><time>2025-04-28T07:20:36.000Z</time><ele>1001.6</ele></trkpt><trkpt lat="45.966386" lon="10.285132"><time>2025-04-28T07:20:37.000Z</time><ele>1001.8</ele></trkpt><trkpt lat="45.966383" lon="10.285128"><time>2025-04-28T07:20:38.000Z</time><ele>1001.8</ele></trkpt><trkpt lat="45.966385" lon="10.285115"><time>2025-04-28T07:20:39.000Z</time><ele>1002</ele></trkpt><trkpt lat="45.966382" lon="10.285106"><time>2025-04-28T07:20:40.000Z</time><ele>1002.4</ele></trkpt><trkpt lat="45.96638" lon="10.285102"><time>2025-04-28T07:20:41.000Z</time><ele>1002.6</ele></trkpt><trkpt lat="45.966374" lon="10.285099"><time>2025-04-28T07:20:42.000Z</time><ele>1002.8</ele></trkpt><trkpt lat="45.966375" lon="10.285095"><time>2025-04-28T07:20:43.000Z</time><ele>1002.8</ele></trkpt><trkpt lat="45.966394" lon="10.285094"><time>2025-04-28T07:20:44.000Z</time><ele>1003</ele></trkpt><trkpt lat="45.966414" lon="10.285093"><time>2025-04-28T07:20:45.000Z</time><ele>1003.2</ele></trkpt><trkpt lat="45.966426" lon="10.285095"><time>2025-04-28T07:20:46.000Z</time><ele>1003.2</ele></trkpt><trkpt lat="45.966429" lon="10.285096"><time>2025-04-28T07:20:47.000Z</time><ele>1003.4</ele></trkpt><trkpt lat="45.966427" lon="10.285097"><time>2025-04-28T07:20:48.000Z</time><ele>1003.4</ele></trkpt><trkpt lat="45.966439" lon="10.285097"><time>2025-04-28T07:20:49.000Z</time><ele>1003.6</ele></trkpt><trkpt lat="45.966442" lon="10.285088"><time>2025-04-28T07:20:50.000Z</time><ele>1003.8</ele></trkpt><trkpt lat="45.966432" lon="10.285069"><time>2025-04-28T07:20:51.000Z</time><ele>1004</ele></trkpt><trkpt lat="45.966416" lon="10.285052"><time>2025-04-28T07:20:52.000Z</time><ele>1004.2</ele></trkpt><trkpt lat="45.966405" lon="10.28505"><time>2025-04-28T07:20:53.000Z</time><ele>1004.2</ele></trkpt><trkpt lat="45.966394" lon="10.28505"><time>2025-04-28T07:20:54.000Z</time><ele>1004.6</ele></trkpt><trkpt lat="45.966374" lon="10.28504"><time>2025-04-28T07:20:55.000Z</time><ele>1004.8</ele></trkpt><trkpt lat="45.966371" lon="10.285038"><time>2025-04-28T07:20:56.000Z</time><ele>1005</ele></trkpt><trkpt lat="45.966364" lon="10.285033"><time>2025-04-28T07:20:57.000Z</time><ele>1005.2</ele></trkpt><trkpt lat="45.966361" lon="10.28503"><time>2025-04-28T07:20:58.000Z</time><ele>1005.2</ele></trkpt><trkpt lat="45.966361" lon="10.285028"><time>2025-04-28T07:20:59.000Z</time><ele>1005.4</ele></trkpt><trkpt lat="45.966361" lon="10.285019"><time>2025-04-28T07:21:00.000Z</time><ele>1005.4</ele></trkpt><trkpt lat="45.96636" lon="10.285007"><time>2025-04-28T07:21:01.000Z</time><ele>1005.8</ele></trkpt><trkpt lat="45.966365" lon="10.285001"><time>2025-04-28T07:21:02.000Z</time><ele>1006</ele></trkpt><trkpt lat="45.966367" lon="10.284996"><time>2025-04-28T07:21:03.000Z</time><ele>1006.2</ele></trkpt><trkpt lat="45.96636" lon="10.284987"><time>2025-04-28T07:21:04.000Z</time><ele>1006.2</ele></trkpt><trkpt lat="45.966357" lon="10.284982"><time>2025-04-28T07:21:05.000Z</time><ele>1006.4</ele></trkpt><trkpt lat="45.966351" lon="10.284973"><time>2025-04-28T07:21:06.000Z</time><ele>1006.6</ele></trkpt><trkpt lat="45.966351" lon="10.28497"><time>2025-04-28T07:21:07.000Z</time><ele>1006.8</ele></trkpt><trkpt lat="45.966343" lon="10.284963"><time>2025-04-28T07:21:08.000Z</time><ele>1006.8</ele></trkpt><trkpt lat="45.966333" lon="10.284958"><time>2025-04-28T07:21:09.000Z</time><ele>1007</ele></trkpt><trkpt lat="45.966319" lon="10.284953"><time>2025-04-28T07:21:10.000Z</time><ele>1007.2</ele></trkpt><trkpt lat="45.966321" lon="10.284944"><time>2025-04-28T07:21:11.000Z</time><ele>1007.4</ele></trkpt><trkpt lat="45.966321" lon="10.284928"><time>2025-04-28T07:21:12.000Z</time><ele>1007.6</ele></trkpt><trkpt lat="45.966313" lon="10.284915"><time>2025-04-28T07:21:13.000Z</time><ele>1007.6</ele></trkpt><trkpt lat="45.966312" lon="10.284909"><time>2025-04-28T07:21:14.000Z</time><ele>1007.8</ele></trkpt><trkpt lat="45.966316" lon="10.2849"><time>2025-04-28T07:21:15.000Z</time><ele>1007.8</ele></trkpt><trkpt lat="45.966312" lon="10.284885"><time>2025-04-28T07:21:16.000Z</time><ele>1008.2</ele></trkpt><trkpt lat="45.966296" lon="10.284868"><time>2025-04-28T07:21:17.000Z</time><ele>1008.4</ele></trkpt><trkpt lat="45.966277" lon="10.284852"><time>2025-04-28T07:21:18.000Z</time><ele>1008.6</ele></trkpt><trkpt lat="45.966259" lon="10.284845"><time>2025-04-28T07:21:19.000Z</time><ele>1008.6</ele></trkpt><trkpt lat="45.966254" lon="10.284843"><time>2025-04-28T07:21:20.000Z</time><ele>1008.6</ele></trkpt><trkpt lat="45.966249" lon="10.284838"><time>2025-04-28T07:21:21.000Z</time><ele>1008.6</ele></trkpt><trkpt lat="45.966246" lon="10.284835"><time>2025-04-28T07:21:22.000Z</time><ele>1008.8</ele></trkpt><trkpt lat="45.966245" lon="10.284833"><time>2025-04-28T07:21:23.000Z</time><ele>1009</ele></trkpt><trkpt lat="45.966244" lon="10.284836"><time>2025-04-28T07:21:24.000Z</time><ele>1009.2</ele></trkpt><trkpt lat="45.966233" lon="10.284832"><time>2025-04-28T07:21:25.000Z</time><ele>1009.4</ele></trkpt><trkpt lat="45.966227" lon="10.284828"><time>2025-04-28T07:21:26.000Z</time><ele>1009.6</ele></trkpt><trkpt lat="45.966232" lon="10.284817"><time>2025-04-28T07:21:27.000Z</time><ele>1009.6</ele></trkpt><trkpt lat="45.966234" lon="10.284816"><time>2025-04-28T07:21:28.000Z</time><ele>1009.8</ele></trkpt><trkpt lat="45.966222" lon="10.284804"><time>2025-04-28T07:21:29.000Z</time><ele>1009.8</ele></trkpt><trkpt lat="45.966214" lon="10.284795"><time>2025-04-28T07:21:30.000Z</time><ele>1010</ele></trkpt><trkpt lat="45.9662" lon="10.284792"><time>2025-04-28T07:21:31.000Z</time><ele>1010.2</ele></trkpt><trkpt lat="45.96619" lon="10.284798"><time>2025-04-28T07:21:32.000Z</time><ele>1010.4</ele></trkpt><trkpt lat="45.966183" lon="10.284798"><time>2025-04-28T07:21:33.000Z</time><ele>1010.6</ele></trkpt><trkpt lat="45.966181" lon="10.284793"><time>2025-04-28T07:21:34.000Z</time><ele>1010.8</ele></trkpt><trkpt lat="45.966182" lon="10.284775"><time>2025-04-28T07:21:35.000Z</time><ele>1010.8</ele></trkpt><trkpt lat="45.966176" lon="10.284771"><time>2025-04-28T07:21:36.000Z</time><ele>1011</ele></trkpt><trkpt lat="45.966183" lon="10.284753"><time>2025-04-28T07:21:37.000Z</time><ele>1011.2</ele></trkpt><trkpt lat="45.96618" lon="10.284739"><time>2025-04-28T07:21:38.000Z</time><ele>1011.2</ele></trkpt><trkpt lat="45.966173" lon="10.284734"><time>2025-04-28T07:21:39.000Z</time><ele>1011.2</ele></trkpt><trkpt lat="45.96617" lon="10.28473"><time>2025-04-28T07:21:40.000Z</time><ele>1011.4</ele></trkpt><trkpt lat="45.966177" lon="10.284725"><time>2025-04-28T07:21:41.000Z</time><ele>1011.6</ele></trkpt><trkpt lat="45.966169" lon="10.284718"><time>2025-04-28T07:21:42.000Z</time><ele>1011.6</ele></trkpt><trkpt lat="45.966153" lon="10.284712"><time>2025-04-28T07:21:43.000Z</time><ele>1011.8</ele></trkpt><trkpt lat="45.966138" lon="10.284707"><time>2025-04-28T07:21:44.000Z</time><ele>1012</ele></trkpt><trkpt lat="45.966135" lon="10.284705"><time>2025-04-28T07:21:45.000Z</time><ele>1012.2</ele></trkpt><trkpt lat="45.966149" lon="10.284706"><time>2025-04-28T07:21:46.000Z</time><ele>1012.4</ele></trkpt><trkpt lat="45.966151" lon="10.284706"><time>2025-04-28T07:21:47.000Z</time><ele>1012.6</ele></trkpt><trkpt lat="45.966168" lon="10.284702"><time>2025-04-28T07:21:48.000Z</time><ele>1012.8</ele></trkpt><trkpt lat="45.966173" lon="10.284706"><time>2025-04-28T07:21:49.000Z</time><ele>1012.8</ele></trkpt><trkpt lat="45.966166" lon="10.284707"><time>2025-04-28T07:21:50.000Z</time><ele>1013</ele></trkpt><trkpt lat="45.966166" lon="10.284701"><time>2025-04-28T07:21:51.000Z</time><ele>1013</ele></trkpt><trkpt lat="45.966164" lon="10.284699"><time>2025-04-28T07:21:52.000Z</time><ele>1013.2</ele></trkpt><trkpt lat="45.966167" lon="10.284701"><time>2025-04-28T07:21:53.000Z</time><ele>1013.4</ele></trkpt><trkpt lat="45.966159" lon="10.2847"><time>2025-04-28T07:21:54.000Z</time><ele>1013.4</ele></trkpt><trkpt lat="45.966156" lon="10.284704"><time>2025-04-28T07:21:55.000Z</time><ele>1013.4</ele></trkpt><trkpt lat="45.966147" lon="10.2847"><time>2025-04-28T07:21:56.000Z</time><ele>1013.4</ele></trkpt><trkpt lat="45.966144" lon="10.284702"><time>2025-04-28T07:21:57.000Z</time><ele>1013.4</ele></trkpt><trkpt lat="45.966157" lon="10.2847"><time>2025-04-28T07:21:58.000Z</time><ele>1013.4</ele></trkpt><trkpt lat="45.966166" lon="10.284698"><time>2025-04-28T07:21:59.000Z</time><ele>1013.6</ele></trkpt><trkpt lat="45.966175" lon="10.284699"><time>2025-04-28T07:22:00.000Z</time><ele>1013.6</ele></trkpt><trkpt lat="45.966176" lon="10.284697"><time>2025-04-28T07:22:01.000Z</time><ele>1013.6</ele></trkpt><trkpt lat="45.966169" lon="10.284697"><time>2025-04-28T07:22:02.000Z</time><ele>1013.6</ele></trkpt><trkpt lat="45.966138" lon="10.28469"><time>2025-04-28T07:22:03.000Z</time><ele>1013.8</ele></trkpt><trkpt lat="45.966137" lon="10.284689"><time>2025-04-28T07:22:04.000Z</time><ele>1014</ele></trkpt><trkpt lat="45.966116" lon="10.284683"><time>2025-04-28T07:22:05.000Z</time><ele>1014.2</ele></trkpt><trkpt lat="45.966113" lon="10.284678"><time>2025-04-28T07:22:06.000Z</time><ele>1014.4</ele></trkpt><trkpt lat="45.966114" lon="10.284672"><time>2025-04-28T07:22:07.000Z</time><ele>1014.4</ele></trkpt><trkpt lat="45.966111" lon="10.284667"><time>2025-04-28T07:22:08.000Z</time><ele>1014.8</ele></trkpt><trkpt lat="45.966118" lon="10.284664"><time>2025-04-28T07:22:09.000Z</time><ele>1015</ele></trkpt><trkpt lat="45.966129" lon="10.284662"><time>2025-04-28T07:22:10.000Z</time><ele>1015.4</ele></trkpt><trkpt lat="45.966122" lon="10.284655"><time>2025-04-28T07:22:11.000Z</time><ele>1015.6</ele></trkpt><trkpt lat="45.966123" lon="10.284647"><time>2025-04-28T07:22:12.000Z</time><ele>1015.8</ele></trkpt><trkpt lat="45.966117" lon="10.284635"><time>2025-04-28T07:22:13.000Z</time><ele>1016.2</ele></trkpt><trkpt lat="45.966113" lon="10.284625"><time>2025-04-28T07:22:14.000Z</time><ele>1016.2</ele></trkpt><trkpt lat="45.966113" lon="10.28462"><time>2025-04-28T07:22:15.000Z</time><ele>1016.4</ele></trkpt><trkpt lat="45.966116" lon="10.284616"><time>2025-04-28T07:22:16.000Z</time><ele>1016.6</ele></trkpt><trkpt lat="45.966121" lon="10.284612"><time>2025-04-28T07:22:17.000Z</time><ele>1016.6</ele></trkpt><trkpt lat="45.966121" lon="10.284607"><time>2025-04-28T07:22:18.000Z</time><ele>1016.8</ele></trkpt><trkpt lat="45.966124" lon="10.284602"><time>2025-04-28T07:22:19.000Z</time><ele>1017</ele></trkpt><trkpt lat="45.96613" lon="10.284593"><time>2025-04-28T07:22:20.000Z</time><ele>1017</ele></trkpt><trkpt lat="45.966134" lon="10.284579"><time>2025-04-28T07:22:21.000Z</time><ele>1017</ele></trkpt><trkpt lat="45.96614" lon="10.284565"><time>2025-04-28T07:22:22.000Z</time><ele>1017.2</ele></trkpt><trkpt lat="45.966147" lon="10.28455"><time>2025-04-28T07:22:23.000Z</time><ele>1017.2</ele></trkpt><trkpt lat="45.966145" lon="10.284542"><time>2025-04-28T07:22:24.000Z</time><ele>1017.6</ele></trkpt><trkpt lat="45.966168" lon="10.284531"><time>2025-04-28T07:22:25.000Z</time><ele>1017.8</ele></trkpt><trkpt lat="45.966168" lon="10.284528"><time>2025-04-28T07:22:26.000Z</time><ele>1018</ele></trkpt><trkpt lat="45.966174" lon="10.284508"><time>2025-04-28T07:22:27.000Z</time><ele>1018.2</ele></trkpt><trkpt lat="45.966195" lon="10.28451"><time>2025-04-28T07:22:28.000Z</time><ele>1018.4</ele></trkpt><trkpt lat="45.966222" lon="10.284514"><time>2025-04-28T07:22:29.000Z</time><ele>1018.4</ele></trkpt><trkpt lat="45.966228" lon="10.284509"><time>2025-04-28T07:22:30.000Z</time><ele>1018.4</ele></trkpt><trkpt lat="45.966233" lon="10.284501"><time>2025-04-28T07:22:31.000Z</time><ele>1018.6</ele></trkpt><trkpt lat="45.966238" lon="10.284494"><time>2025-04-28T07:22:32.000Z</time><ele>1018.6</ele></trkpt><trkpt lat="45.966237" lon="10.284487"><time>2025-04-28T07:22:33.000Z</time><ele>1018.8</ele></trkpt><trkpt lat="45.966234" lon="10.284483"><time>2025-04-28T07:22:34.000Z</time><ele>1019</ele></trkpt><trkpt lat="45.966232" lon="10.284478"><time>2025-04-28T07:22:35.000Z</time><ele>1019</ele></trkpt><trkpt lat="45.966235" lon="10.284471"><time>2025-04-28T07:22:36.000Z</time><ele>1019.2</ele></trkpt><trkpt lat="45.966235" lon="10.284466"><time>2025-04-28T07:22:37.000Z</time><ele>1019.2</ele></trkpt><trkpt lat="45.966236" lon="10.284461"><time>2025-04-28T07:22:38.000Z</time><ele>1019.4</ele></trkpt><trkpt lat="45.966234" lon="10.28445"><time>2025-04-28T07:22:39.000Z</time><ele>1019.8</ele></trkpt><trkpt lat="45.966235" lon="10.284445"><time>2025-04-28T07:22:40.000Z</time><ele>1020</ele></trkpt><trkpt lat="45.966236" lon="10.284442"><time>2025-04-28T07:22:41.000Z</time><ele>1020.2</ele></trkpt><trkpt lat="45.966236" lon="10.284438"><time>2025-04-28T07:22:42.000Z</time><ele>1020.4</ele></trkpt><trkpt lat="45.966236" lon="10.284434"><time>2025-04-28T07:22:43.000Z</time><ele>1020.4</ele></trkpt><trkpt lat="45.966238" lon="10.284422"><time>2025-04-28T07:22:44.000Z</time><ele>1020.6</ele></trkpt><trkpt lat="45.966249" lon="10.284416"><time>2025-04-28T07:22:45.000Z</time><ele>1020.6</ele></trkpt><trkpt lat="45.96626" lon="10.284409"><time>2025-04-28T07:22:46.000Z</time><ele>1020.8</ele></trkpt><trkpt lat="45.966261" lon="10.284407"><time>2025-04-28T07:22:47.000Z</time><ele>1020.8</ele></trkpt><trkpt lat="45.96626" lon="10.284406"><time>2025-04-28T07:22:48.000Z</time><ele>1021</ele></trkpt><trkpt lat="45.966261" lon="10.284403"><time>2025-04-28T07:22:49.000Z</time><ele>1021.2</ele></trkpt><trkpt lat="45.966264" lon="10.284405"><time>2025-04-28T07:22:50.000Z</time><ele>1021.2</ele></trkpt><trkpt lat="45.966265" lon="10.284405"><time>2025-04-28T07:22:51.000Z</time><ele>1021.2</ele></trkpt><trkpt lat="45.966265" lon="10.284405"><time>2025-04-28T07:22:52.000Z</time><ele>1021.4</ele></trkpt><trkpt lat="45.966264" lon="10.284404"><time>2025-04-28T07:22:53.000Z</time><ele>1021.2</ele></trkpt><trkpt lat="45.966264" lon="10.284403"><time>2025-04-28T07:22:54.000Z</time><ele>1021.4</ele></trkpt><trkpt lat="45.966259" lon="10.284399"><time>2025-04-28T07:22:55.000Z</time><ele>1021.4</ele></trkpt><trkpt lat="45.966259" lon="10.284395"><time>2025-04-28T07:22:56.000Z</time><ele>1021.4</ele></trkpt><trkpt lat="45.966274" lon="10.284395"><time>2025-04-28T07:22:57.000Z</time><ele>1021.4</ele></trkpt><trkpt lat="45.966279" lon="10.284395"><time>2025-04-28T07:22:58.000Z</time><ele>1021.6</ele></trkpt><trkpt lat="45.96628" lon="10.284396"><time>2025-04-28T07:22:59.000Z</time><ele>1021.6</ele></trkpt><trkpt lat="45.966292" lon="10.284399"><time>2025-04-28T07:23:00.000Z</time><ele>1021.8</ele></trkpt><trkpt lat="45.966311" lon="10.284407"><time>2025-04-28T07:23:01.000Z</time><ele>1021.8</ele></trkpt><trkpt lat="45.966326" lon="10.284412"><time>2025-04-28T07:23:02.000Z</time><ele>1022</ele></trkpt><trkpt lat="45.966329" lon="10.284409"><time>2025-04-28T07:23:03.000Z</time><ele>1022.2</ele></trkpt><trkpt lat="45.966333" lon="10.284408"><time>2025-04-28T07:23:04.000Z</time><ele>1022.4</ele></trkpt><trkpt lat="45.966336" lon="10.284408"><time>2025-04-28T07:23:05.000Z</time><ele>1022.4</ele></trkpt><trkpt lat="45.966343" lon="10.28441"><time>2025-04-28T07:23:06.000Z</time><ele>1022.4</ele></trkpt><trkpt lat="45.966346" lon="10.284409"><time>2025-04-28T07:23:07.000Z</time><ele>1022.6</ele></trkpt><trkpt lat="45.966347" lon="10.284405"><time>2025-04-28T07:23:08.000Z</time><ele>1022.8</ele></trkpt><trkpt lat="45.966354" lon="10.284401"><time>2025-04-28T07:23:09.000Z</time><ele>1022.8</ele></trkpt><trkpt lat="45.966353" lon="10.284397"><time>2025-04-28T07:23:10.000Z</time><ele>1022.8</ele></trkpt><trkpt lat="45.96635" lon="10.284395"><time>2025-04-28T07:23:11.000Z</time><ele>1023</ele></trkpt><trkpt lat="45.966346" lon="10.284395"><time>2025-04-28T07:23:12.000Z</time><ele>1023.2</ele></trkpt><trkpt lat="45.966343" lon="10.284393"><time>2025-04-28T07:23:13.000Z</time><ele>1023.4</ele></trkpt><trkpt lat="45.966341" lon="10.284391"><time>2025-04-28T07:23:14.000Z</time><ele>1023.6</ele></trkpt><trkpt lat="45.96635" lon="10.284395"><time>2025-04-28T07:23:15.000Z</time><ele>1023.8</ele></trkpt><trkpt lat="45.966361" lon="10.284403"><time>2025-04-28T07:23:16.000Z</time><ele>1024</ele></trkpt><trkpt lat="45.966374" lon="10.284411"><time>2025-04-28T07:23:17.000Z</time><ele>1024.2</ele></trkpt><trkpt lat="45.966383" lon="10.284411"><time>2025-04-28T07:23:18.000Z</time><ele>1024.2</ele></trkpt><trkpt lat="45.966401" lon="10.284414"><time>2025-04-28T07:23:19.000Z</time><ele>1024.6</ele></trkpt><trkpt lat="45.966405" lon="10.284414"><time>2025-04-28T07:23:20.000Z</time><ele>1024.8</ele></trkpt><trkpt lat="45.966401" lon="10.284411"><time>2025-04-28T07:23:21.000Z</time><ele>1025</ele></trkpt><trkpt lat="45.966398" lon="10.28441"><time>2025-04-28T07:23:22.000Z</time><ele>1025</ele></trkpt><trkpt lat="45.966396" lon="10.284412"><time>2025-04-28T07:23:23.000Z</time><ele>1025.2</ele></trkpt><trkpt lat="45.9664" lon="10.284411"><time>2025-04-28T07:23:24.000Z</time><ele>1025.2</ele></trkpt><trkpt lat="45.966388" lon="10.284402"><time>2025-04-28T07:23:25.000Z</time><ele>1025.6</ele></trkpt><trkpt lat="45.966385" lon="10.284398"><time>2025-04-28T07:23:26.000Z</time><ele>1025.8</ele></trkpt><trkpt lat="45.966381" lon="10.284403"><time>2025-04-28T07:23:27.000Z</time><ele>1026</ele></trkpt><trkpt lat="45.966384" lon="10.284402"><time>2025-04-28T07:23:28.000Z</time><ele>1026.4</ele></trkpt><trkpt lat="45.966403" lon="10.284411"><time>2025-04-28T07:23:29.000Z</time><ele>1026.4</ele></trkpt><trkpt lat="45.966424" lon="10.284426"><time>2025-04-28T07:23:30.000Z</time><ele>1026.6</ele></trkpt><trkpt lat="45.966446" lon="10.284416"><time>2025-04-28T07:23:31.000Z</time><ele>1026.6</ele></trkpt><trkpt lat="45.966472" lon="10.284412"><time>2025-04-28T07:23:32.000Z</time><ele>1027</ele></trkpt><trkpt lat="45.966475" lon="10.284412"><time>2025-04-28T07:23:33.000Z</time><ele>1027.2</ele></trkpt><trkpt lat="45.966482" lon="10.284412"><time>2025-04-28T07:23:34.000Z</time><ele>1027.4</ele></trkpt><trkpt lat="45.966481" lon="10.284414"><time>2025-04-28T07:23:35.000Z</time><ele>1027.6</ele></trkpt><trkpt lat="45.966479" lon="10.284416"><time>2025-04-28T07:23:36.000Z</time><ele>1028</ele></trkpt><trkpt lat="45.966475" lon="10.284421"><time>2025-04-28T07:23:37.000Z</time><ele>1028.2</ele></trkpt><trkpt lat="45.966479" lon="10.284426"><time>2025-04-28T07:23:38.000Z</time><ele>1028.4</ele></trkpt><trkpt lat="45.966479" lon="10.284432"><time>2025-04-28T07:23:39.000Z</time><ele>1028.4</ele></trkpt><trkpt lat="45.966469" lon="10.284432"><time>2025-04-28T07:23:40.000Z</time><ele>1028.6</ele></trkpt><trkpt lat="45.966472" lon="10.28443"><time>2025-04-28T07:23:41.000Z</time><ele>1028.8</ele></trkpt><trkpt lat="45.966472" lon="10.284429"><time>2025-04-28T07:23:42.000Z</time><ele>1029.2</ele></trkpt><trkpt lat="45.966474" lon="10.284427"><time>2025-04-28T07:23:43.000Z</time><ele>1029.2</ele></trkpt><trkpt lat="45.966476" lon="10.284425"><time>2025-04-28T07:23:44.000Z</time><ele>1029.4</ele></trkpt><trkpt lat="45.966469" lon="10.284417"><time>2025-04-28T07:23:45.000Z</time><ele>1029.4</ele></trkpt><trkpt lat="45.966463" lon="10.284403"><time>2025-04-28T07:23:46.000Z</time><ele>1029.4</ele></trkpt><trkpt lat="45.966465" lon="10.284399"><time>2025-04-28T07:23:47.000Z</time><ele>1029.6</ele></trkpt><trkpt lat="45.966468" lon="10.284397"><time>2025-04-28T07:23:48.000Z</time><ele>1029.8</ele></trkpt><trkpt lat="45.96647" lon="10.284394"><time>2025-04-28T07:23:49.000Z</time><ele>1030</ele></trkpt><trkpt lat="45.966472" lon="10.28439"><time>2025-04-28T07:23:50.000Z</time><ele>1030.2</ele></trkpt><trkpt lat="45.966471" lon="10.284388"><time>2025-04-28T07:23:51.000Z</time><ele>1030.4</ele></trkpt><trkpt lat="45.966474" lon="10.284404"><time>2025-04-28T07:23:52.000Z</time><ele>1030.4</ele></trkpt><trkpt lat="45.966478" lon="10.28441"><time>2025-04-28T07:23:53.000Z</time><ele>1030.4</ele></trkpt><trkpt lat="45.966474" lon="10.284401"><time>2025-04-28T07:23:54.000Z</time><ele>1030.4</ele></trkpt><trkpt lat="45.966489" lon="10.284396"><time>2025-04-28T07:23:55.000Z</time><ele>1030.6</ele></trkpt><trkpt lat="45.96648" lon="10.28439"><time>2025-04-28T07:23:56.000Z</time><ele>1030.8</ele></trkpt><trkpt lat="45.966469" lon="10.284382"><time>2025-04-28T07:23:57.000Z</time><ele>1031</ele></trkpt><trkpt lat="45.966465" lon="10.284377"><time>2025-04-28T07:23:58.000Z</time><ele>1031.2</ele></trkpt><trkpt lat="45.966461" lon="10.284374"><time>2025-04-28T07:23:59.000Z</time><ele>1031.4</ele></trkpt><trkpt lat="45.966446" lon="10.284367"><time>2025-04-28T07:24:00.000Z</time><ele>1031.6</ele></trkpt><trkpt lat="45.966436" lon="10.284359"><time>2025-04-28T07:24:01.000Z</time><ele>1031.6</ele></trkpt><trkpt lat="45.966428" lon="10.284355"><time>2025-04-28T07:24:02.000Z</time><ele>1031.8</ele></trkpt><trkpt lat="45.966423" lon="10.284349"><time>2025-04-28T07:24:03.000Z</time><ele>1032</ele></trkpt><trkpt lat="45.966417" lon="10.284353"><time>2025-04-28T07:24:04.000Z</time><ele>1032.2</ele></trkpt><trkpt lat="45.966413" lon="10.28435"><time>2025-04-28T07:24:05.000Z</time><ele>1032.4</ele></trkpt><trkpt lat="45.966413" lon="10.284346"><time>2025-04-28T07:24:06.000Z</time><ele>1032.6</ele></trkpt><trkpt lat="45.966401" lon="10.284337"><time>2025-04-28T07:24:07.000Z</time><ele>1032.8</ele></trkpt><trkpt lat="45.966392" lon="10.284333"><time>2025-04-28T07:24:08.000Z</time><ele>1032.8</ele></trkpt><trkpt lat="45.966392" lon="10.284333"><time>2025-04-28T07:24:09.000Z</time><ele>1033</ele></trkpt><trkpt lat="45.966408" lon="10.28434"><time>2025-04-28T07:24:10.000Z</time><ele>1033</ele></trkpt><trkpt lat="45.966414" lon="10.284347"><time>2025-04-28T07:24:11.000Z</time><ele>1033.2</ele></trkpt><trkpt lat="45.96642" lon="10.284346"><time>2025-04-28T07:24:12.000Z</time><ele>1033.2</ele></trkpt><trkpt lat="45.966406" lon="10.284341"><time>2025-04-28T07:24:13.000Z</time><ele>1033.2</ele></trkpt><trkpt lat="45.96639" lon="10.284335"><time>2025-04-28T07:24:14.000Z</time><ele>1033.2</ele></trkpt><trkpt lat="45.966386" lon="10.284334"><time>2025-04-28T07:24:15.000Z</time><ele>1033.2</ele></trkpt><trkpt lat="45.966385" lon="10.284327"><time>2025-04-28T07:24:16.000Z</time><ele>1033.2</ele></trkpt><trkpt lat="45.966386" lon="10.284326"><time>2025-04-28T07:24:17.000Z</time><ele>1033.2</ele></trkpt><trkpt lat="45.96639" lon="10.284326"><time>2025-04-28T07:24:18.000Z</time><ele>1033.2</ele></trkpt><trkpt lat="45.966392" lon="10.284325"><time>2025-04-28T07:24:19.000Z</time><ele>1033.2</ele></trkpt><trkpt lat="45.966391" lon="10.284323"><time>2025-04-28T07:24:20.000Z</time><ele>1033.2</ele></trkpt><trkpt lat="45.966398" lon="10.284323"><time>2025-04-28T07:24:21.000Z</time><ele>1033.4</ele></trkpt><trkpt lat="45.966409" lon="10.284325"><time>2025-04-28T07:24:22.000Z</time><ele>1033.4</ele></trkpt><trkpt lat="45.966412" lon="10.284323"><time>2025-04-28T07:24:23.000Z</time><ele>1033.6</ele></trkpt><trkpt lat="45.966415" lon="10.284316"><time>2025-04-28T07:24:24.000Z</time><ele>1033.6</ele></trkpt><trkpt lat="45.96642" lon="10.284307"><time>2025-04-28T07:24:25.000Z</time><ele>1033.4</ele></trkpt><trkpt lat="45.966413" lon="10.284297"><time>2025-04-28T07:24:26.000Z</time><ele>1033.6</ele></trkpt><trkpt lat="45.966416" lon="10.284293"><time>2025-04-28T07:24:27.000Z</time><ele>1033.6</ele></trkpt><trkpt lat="45.966442" lon="10.284284"><time>2025-04-28T07:24:28.000Z</time><ele>1033.4</ele></trkpt><trkpt lat="45.966459" lon="10.284278"><time>2025-04-28T07:24:29.000Z</time><ele>1033.4</ele></trkpt><trkpt lat="45.966469" lon="10.284275"><time>2025-04-28T07:24:30.000Z</time><ele>1033.4</ele></trkpt><trkpt lat="45.966476" lon="10.284269"><time>2025-04-28T07:24:31.000Z</time><ele>1033.4</ele></trkpt><trkpt lat="45.966472" lon="10.284268"><time>2025-04-28T07:24:32.000Z</time><ele>1033.4</ele></trkpt><trkpt lat="45.966466" lon="10.284263"><time>2025-04-28T07:24:33.000Z</time><ele>1033.6</ele></trkpt><trkpt lat="45.966453" lon="10.284252"><time>2025-04-28T07:24:34.000Z</time><ele>1033.6</ele></trkpt><trkpt lat="45.966446" lon="10.284242"><time>2025-04-28T07:24:35.000Z</time><ele>1033.6</ele></trkpt><trkpt lat="45.966446" lon="10.284234"><time>2025-04-28T07:24:36.000Z</time><ele>1033.8</ele></trkpt><trkpt lat="45.966446" lon="10.284228"><time>2025-04-28T07:24:37.000Z</time><ele>1034.2</ele></trkpt><trkpt lat="45.966451" lon="10.284231"><time>2025-04-28T07:24:38.000Z</time><ele>1034.2</ele></trkpt><trkpt lat="45.966452" lon="10.284229"><time>2025-04-28T07:24:39.000Z</time><ele>1034.4</ele></trkpt><trkpt lat="45.96646" lon="10.284225"><time>2025-04-28T07:24:40.000Z</time><ele>1034.4</ele></trkpt><trkpt lat="45.96647" lon="10.284218"><time>2025-04-28T07:24:41.000Z</time><ele>1034.6</ele></trkpt><trkpt lat="45.966482" lon="10.284209"><time>2025-04-28T07:24:42.000Z</time><ele>1034.6</ele></trkpt><trkpt lat="45.966476" lon="10.284202"><time>2025-04-28T07:24:43.000Z</time><ele>1035</ele></trkpt><trkpt lat="45.966477" lon="10.284203"><time>2025-04-28T07:24:44.000Z</time><ele>1035</ele></trkpt><trkpt lat="45.966474" lon="10.284197"><time>2025-04-28T07:24:45.000Z</time><ele>1035.2</ele></trkpt><trkpt lat="45.966469" lon="10.284188"><time>2025-04-28T07:24:46.000Z</time><ele>1035.4</ele></trkpt><trkpt lat="45.966455" lon="10.284174"><time>2025-04-28T07:24:47.000Z</time><ele>1035.6</ele></trkpt><trkpt lat="45.96645" lon="10.284171"><time>2025-04-28T07:24:48.000Z</time><ele>1035.8</ele></trkpt><trkpt lat="45.966458" lon="10.284167"><time>2025-04-28T07:24:49.000Z</time><ele>1035.8</ele></trkpt><trkpt lat="45.966466" lon="10.284162"><time>2025-04-28T07:24:50.000Z</time><ele>1036</ele></trkpt><trkpt lat="45.96646" lon="10.284155"><time>2025-04-28T07:24:51.000Z</time><ele>1036.2</ele></trkpt><trkpt lat="45.966456" lon="10.284147"><time>2025-04-28T07:24:52.000Z</time><ele>1036.4</ele></trkpt><trkpt lat="45.966449" lon="10.284143"><time>2025-04-28T07:24:53.000Z</time><ele>1036.4</ele></trkpt><trkpt lat="45.96645" lon="10.284136"><time>2025-04-28T07:24:54.000Z</time><ele>1036.6</ele></trkpt><trkpt lat="45.966446" lon="10.284128"><time>2025-04-28T07:24:55.000Z</time><ele>1037</ele></trkpt><trkpt lat="45.966443" lon="10.284121"><time>2025-04-28T07:24:56.000Z</time><ele>1037</ele></trkpt><trkpt lat="45.966426" lon="10.28411"><time>2025-04-28T07:24:57.000Z</time><ele>1037.2</ele></trkpt><trkpt lat="45.966421" lon="10.2841"><time>2025-04-28T07:24:58.000Z</time><ele>1037.4</ele></trkpt><trkpt lat="45.96642" lon="10.284099"><time>2025-04-28T07:24:59.000Z</time><ele>1037.4</ele></trkpt><trkpt lat="45.966421" lon="10.284094"><time>2025-04-28T07:25:00.000Z</time><ele>1037.6</ele></trkpt><trkpt lat="45.966418" lon="10.284086"><time>2025-04-28T07:25:01.000Z</time><ele>1037.8</ele></trkpt><trkpt lat="45.966419" lon="10.284079"><time>2025-04-28T07:25:02.000Z</time><ele>1037.8</ele></trkpt><trkpt lat="45.966422" lon="10.28408"><time>2025-04-28T07:25:03.000Z</time><ele>1038</ele></trkpt><trkpt lat="45.966416" lon="10.284071"><time>2025-04-28T07:25:04.000Z</time><ele>1038.2</ele></trkpt><trkpt lat="45.966413" lon="10.284059"><time>2025-04-28T07:25:05.000Z</time><ele>1038.2</ele></trkpt><trkpt lat="45.96641" lon="10.284053"><time>2025-04-28T07:25:06.000Z</time><ele>1038.4</ele></trkpt><trkpt lat="45.966409" lon="10.284043"><time>2025-04-28T07:25:07.000Z</time><ele>1038.4</ele></trkpt><trkpt lat="45.966417" lon="10.284038"><time>2025-04-28T07:25:08.000Z</time><ele>1038.4</ele></trkpt><trkpt lat="45.966427" lon="10.284025"><time>2025-04-28T07:25:09.000Z</time><ele>1038.6</ele></trkpt><trkpt lat="45.966432" lon="10.284014"><time>2025-04-28T07:25:10.000Z</time><ele>1038.8</ele></trkpt><trkpt lat="45.96644" lon="10.284006"><time>2025-04-28T07:25:11.000Z</time><ele>1038.8</ele></trkpt><trkpt lat="45.966457" lon="10.283995"><time>2025-04-28T07:25:12.000Z</time><ele>1039</ele></trkpt><trkpt lat="45.966453" lon="10.283982"><time>2025-04-28T07:25:13.000Z</time><ele>1039.2</ele></trkpt><trkpt lat="45.966448" lon="10.283967"><time>2025-04-28T07:25:14.000Z</time><ele>1039.4</ele></trkpt><trkpt lat="45.966443" lon="10.283957"><time>2025-04-28T07:25:15.000Z</time><ele>1039.6</ele></trkpt><trkpt lat="45.966445" lon="10.283953"><time>2025-04-28T07:25:16.000Z</time><ele>1039.6</ele></trkpt><trkpt lat="45.966446" lon="10.283942"><time>2025-04-28T07:25:17.000Z</time><ele>1039.6</ele></trkpt><trkpt lat="45.966436" lon="10.283933"><time>2025-04-28T07:25:18.000Z</time><ele>1039.6</ele></trkpt><trkpt lat="45.966427" lon="10.283928"><time>2025-04-28T07:25:19.000Z</time><ele>1039.6</ele></trkpt><trkpt lat="45.966421" lon="10.283921"><time>2025-04-28T07:25:20.000Z</time><ele>1039.8</ele></trkpt><trkpt lat="45.96642" lon="10.283915"><time>2025-04-28T07:25:21.000Z</time><ele>1040</ele></trkpt><trkpt lat="45.966431" lon="10.283907"><time>2025-04-28T07:25:22.000Z</time><ele>1040.2</ele></trkpt><trkpt lat="45.966434" lon="10.283901"><time>2025-04-28T07:25:23.000Z</time><ele>1040.6</ele></trkpt><trkpt lat="45.966437" lon="10.283904"><time>2025-04-28T07:25:24.000Z</time><ele>1040.8</ele></trkpt><trkpt lat="45.966439" lon="10.283904"><time>2025-04-28T07:25:25.000Z</time><ele>1041</ele></trkpt><trkpt lat="45.966438" lon="10.283897"><time>2025-04-28T07:25:26.000Z</time><ele>1041</ele></trkpt><trkpt lat="45.96644" lon="10.283896"><time>2025-04-28T07:25:27.000Z</time><ele>1041</ele></trkpt><trkpt lat="45.966444" lon="10.283887"><time>2025-04-28T07:25:28.000Z</time><ele>1041</ele></trkpt><trkpt lat="45.966449" lon="10.283879"><time>2025-04-28T07:25:29.000Z</time><ele>1041</ele></trkpt><trkpt lat="45.966443" lon="10.283871"><time>2025-04-28T07:25:30.000Z</time><ele>1041</ele></trkpt><trkpt lat="45.966428" lon="10.283858"><time>2025-04-28T07:25:31.000Z</time><ele>1041</ele></trkpt><trkpt lat="45.966429" lon="10.283848"><time>2025-04-28T07:25:32.000Z</time><ele>1041</ele></trkpt><trkpt lat="45.966439" lon="10.283843"><time>2025-04-28T07:25:33.000Z</time><ele>1041</ele></trkpt><trkpt lat="45.966448" lon="10.283837"><time>2025-04-28T07:25:34.000Z</time><ele>1041.2</ele></trkpt><trkpt lat="45.966452" lon="10.283829"><time>2025-04-28T07:25:35.000Z</time><ele>1041.2</ele></trkpt><trkpt lat="45.966459" lon="10.283821"><time>2025-04-28T07:25:36.000Z</time><ele>1041.4</ele></trkpt><trkpt lat="45.966453" lon="10.283809"><time>2025-04-28T07:25:37.000Z</time><ele>1041.4</ele></trkpt><trkpt lat="45.966443" lon="10.283798"><time>2025-04-28T07:25:38.000Z</time><ele>1041.6</ele></trkpt><trkpt lat="45.966445" lon="10.283789"><time>2025-04-28T07:25:39.000Z</time><ele>1041.8</ele></trkpt><trkpt lat="45.966452" lon="10.28378"><time>2025-04-28T07:25:40.000Z</time><ele>1042</ele></trkpt><trkpt lat="45.966465" lon="10.283772"><time>2025-04-28T07:25:41.000Z</time><ele>1042</ele></trkpt><trkpt lat="45.966475" lon="10.283762"><time>2025-04-28T07:25:42.000Z</time><ele>1042.2</ele></trkpt><trkpt lat="45.966486" lon="10.283754"><time>2025-04-28T07:25:43.000Z</time><ele>1042.4</ele></trkpt><trkpt lat="45.96649" lon="10.283746"><time>2025-04-28T07:25:44.000Z</time><ele>1042.6</ele></trkpt><trkpt lat="45.966495" lon="10.283738"><time>2025-04-28T07:25:45.000Z</time><ele>1042.6</ele></trkpt><trkpt lat="45.966497" lon="10.283727"><time>2025-04-28T07:25:46.000Z</time><ele>1043</ele></trkpt><trkpt lat="45.966498" lon="10.283717"><time>2025-04-28T07:25:47.000Z</time><ele>1043.2</ele></trkpt><trkpt lat="45.966498" lon="10.283707"><time>2025-04-28T07:25:48.000Z</time><ele>1043.4</ele></trkpt><trkpt lat="45.966501" lon="10.283698"><time>2025-04-28T07:25:49.000Z</time><ele>1043.6</ele></trkpt><trkpt lat="45.966503" lon="10.283688"><time>2025-04-28T07:25:50.000Z</time><ele>1043.6</ele></trkpt><trkpt lat="45.966503" lon="10.283678"><time>2025-04-28T07:25:51.000Z</time><ele>1043.8</ele></trkpt><trkpt lat="45.966501" lon="10.283668"><time>2025-04-28T07:25:52.000Z</time><ele>1044</ele></trkpt><trkpt lat="45.966496" lon="10.283656"><time>2025-04-28T07:25:53.000Z</time><ele>1044</ele></trkpt><trkpt lat="45.966498" lon="10.283646"><time>2025-04-28T07:25:54.000Z</time><ele>1044</ele></trkpt><trkpt lat="45.9665" lon="10.283641"><time>2025-04-28T07:25:55.000Z</time><ele>1044.2</ele></trkpt><trkpt lat="45.966501" lon="10.28363"><time>2025-04-28T07:25:56.000Z</time><ele>1044.4</ele></trkpt><trkpt lat="45.966506" lon="10.283624"><time>2025-04-28T07:25:57.000Z</time><ele>1044.6</ele></trkpt><trkpt lat="45.966512" lon="10.283616"><time>2025-04-28T07:25:58.000Z</time><ele>1044.8</ele></trkpt><trkpt lat="45.966508" lon="10.28361"><time>2025-04-28T07:25:59.000Z</time><ele>1045</ele></trkpt><trkpt lat="45.966501" lon="10.283598"><time>2025-04-28T07:26:00.000Z</time><ele>1045.2</ele></trkpt><trkpt lat="45.966495" lon="10.283591"><time>2025-04-28T07:26:01.000Z</time><ele>1045.4</ele></trkpt><trkpt lat="45.966492" lon="10.283581"><time>2025-04-28T07:26:02.000Z</time><ele>1045.6</ele></trkpt><trkpt lat="45.966482" lon="10.283569"><time>2025-04-28T07:26:03.000Z</time><ele>1045.8</ele></trkpt><trkpt lat="45.966486" lon="10.283557"><time>2025-04-28T07:26:04.000Z</time><ele>1046</ele></trkpt><trkpt lat="45.966492" lon="10.28355"><time>2025-04-28T07:26:05.000Z</time><ele>1046</ele></trkpt><trkpt lat="45.966506" lon="10.283549"><time>2025-04-28T07:26:06.000Z</time><ele>1046.2</ele></trkpt><trkpt lat="45.966513" lon="10.283545"><time>2025-04-28T07:26:07.000Z</time><ele>1046.4</ele></trkpt><trkpt lat="45.966515" lon="10.28354"><time>2025-04-28T07:26:08.000Z</time><ele>1046.6</ele></trkpt><trkpt lat="45.966512" lon="10.283527"><time>2025-04-28T07:26:09.000Z</time><ele>1046.8</ele></trkpt><trkpt lat="45.966512" lon="10.283521"><time>2025-04-28T07:26:10.000Z</time><ele>1047</ele></trkpt><trkpt lat="45.966506" lon="10.283522"><time>2025-04-28T07:26:11.000Z</time><ele>1047.4</ele></trkpt><trkpt lat="45.966491" lon="10.283515"><time>2025-04-28T07:26:12.000Z</time><ele>1047.6</ele></trkpt><trkpt lat="45.966485" lon="10.283513"><time>2025-04-28T07:26:13.000Z</time><ele>1047.8</ele></trkpt><trkpt lat="45.966482" lon="10.283511"><time>2025-04-28T07:26:14.000Z</time><ele>1048</ele></trkpt><trkpt lat="45.966485" lon="10.283515"><time>2025-04-28T07:26:15.000Z</time><ele>1048.2</ele></trkpt><trkpt lat="45.966484" lon="10.283514"><time>2025-04-28T07:26:16.000Z</time><ele>1048.4</ele></trkpt><trkpt lat="45.966477" lon="10.28351"><time>2025-04-28T07:26:17.000Z</time><ele>1048.4</ele></trkpt><trkpt lat="45.966475" lon="10.283511"><time>2025-04-28T07:26:18.000Z</time><ele>1048.4</ele></trkpt><trkpt lat="45.966485" lon="10.283511"><time>2025-04-28T07:26:19.000Z</time><ele>1048.4</ele></trkpt><trkpt lat="45.966499" lon="10.283506"><time>2025-04-28T07:26:20.000Z</time><ele>1048.4</ele></trkpt><trkpt lat="45.966499" lon="10.283496"><time>2025-04-28T07:26:21.000Z</time><ele>1048.4</ele></trkpt><trkpt lat="45.966499" lon="10.283492"><time>2025-04-28T07:26:22.000Z</time><ele>1048.4</ele></trkpt><trkpt lat="45.966495" lon="10.283484"><time>2025-04-28T07:26:23.000Z</time><ele>1048.2</ele></trkpt><trkpt lat="45.966497" lon="10.283477"><time>2025-04-28T07:26:24.000Z</time><ele>1048.2</ele></trkpt><trkpt lat="45.966496" lon="10.283468"><time>2025-04-28T07:26:25.000Z</time><ele>1048.2</ele></trkpt><trkpt lat="45.96649" lon="10.283459"><time>2025-04-28T07:26:26.000Z</time><ele>1048.2</ele></trkpt><trkpt lat="45.966486" lon="10.283451"><time>2025-04-28T07:26:27.000Z</time><ele>1048.4</ele></trkpt><trkpt lat="45.966485" lon="10.283441"><time>2025-04-28T07:26:28.000Z</time><ele>1048.6</ele></trkpt><trkpt lat="45.966489" lon="10.283429"><time>2025-04-28T07:26:29.000Z</time><ele>1048.6</ele></trkpt><trkpt lat="45.966487" lon="10.28342"><time>2025-04-28T07:26:30.000Z</time><ele>1048.8</ele></trkpt><trkpt lat="45.966474" lon="10.283407"><time>2025-04-28T07:26:31.000Z</time><ele>1048.8</ele></trkpt><trkpt lat="45.966457" lon="10.283398"><time>2025-04-28T07:26:32.000Z</time><ele>1049</ele></trkpt><trkpt lat="45.966448" lon="10.283388"><time>2025-04-28T07:26:33.000Z</time><ele>1049.2</ele></trkpt><trkpt lat="45.966443" lon="10.283377"><time>2025-04-28T07:26:34.000Z</time><ele>1049.4</ele></trkpt><trkpt lat="45.966431" lon="10.283358"><time>2025-04-28T07:26:35.000Z</time><ele>1049.4</ele></trkpt><trkpt lat="45.966425" lon="10.283349"><time>2025-04-28T07:26:36.000Z</time><ele>1049.6</ele></trkpt><trkpt lat="45.966419" lon="10.283339"><time>2025-04-28T07:26:37.000Z</time><ele>1049.8</ele></trkpt><trkpt lat="45.966407" lon="10.283329"><time>2025-04-28T07:26:38.000Z</time><ele>1050</ele></trkpt><trkpt lat="45.966403" lon="10.283319"><time>2025-04-28T07:26:39.000Z</time><ele>1050</ele></trkpt><trkpt lat="45.966417" lon="10.283315"><time>2025-04-28T07:26:40.000Z</time><ele>1050.2</ele></trkpt><trkpt lat="45.96642" lon="10.283303"><time>2025-04-28T07:26:41.000Z</time><ele>1050.2</ele></trkpt><trkpt lat="45.966422" lon="10.283294"><time>2025-04-28T07:26:42.000Z</time><ele>1050.4</ele></trkpt><trkpt lat="45.966425" lon="10.28329"><time>2025-04-28T07:26:43.000Z</time><ele>1050.6</ele></trkpt><trkpt lat="45.966427" lon="10.283282"><time>2025-04-28T07:26:44.000Z</time><ele>1050.8</ele></trkpt><trkpt lat="45.96642" lon="10.283272"><time>2025-04-28T07:26:45.000Z</time><ele>1050.8</ele></trkpt><trkpt lat="45.966418" lon="10.283266"><time>2025-04-28T07:26:46.000Z</time><ele>1051.2</ele></trkpt><trkpt lat="45.966414" lon="10.283257"><time>2025-04-28T07:26:47.000Z</time><ele>1051.2</ele></trkpt><trkpt lat="45.966406" lon="10.283241"><time>2025-04-28T07:26:48.000Z</time><ele>1051.4</ele></trkpt><trkpt lat="45.966402" lon="10.283233"><time>2025-04-28T07:26:49.000Z</time><ele>1051.6</ele></trkpt><trkpt lat="45.966405" lon="10.283221"><time>2025-04-28T07:26:50.000Z</time><ele>1051.8</ele></trkpt><trkpt lat="45.966413" lon="10.283212"><time>2025-04-28T07:26:51.000Z</time><ele>1051.8</ele></trkpt><trkpt lat="45.966429" lon="10.283212"><time>2025-04-28T07:26:52.000Z</time><ele>1052.2</ele></trkpt><trkpt lat="45.966427" lon="10.283197"><time>2025-04-28T07:26:53.000Z</time><ele>1052.4</ele></trkpt><trkpt lat="45.966424" lon="10.283185"><time>2025-04-28T07:26:54.000Z</time><ele>1052.4</ele></trkpt><trkpt lat="45.966426" lon="10.283175"><time>2025-04-28T07:26:55.000Z</time><ele>1052.6</ele></trkpt><trkpt lat="45.966422" lon="10.283163"><time>2025-04-28T07:26:56.000Z</time><ele>1052.6</ele></trkpt><trkpt lat="45.966421" lon="10.283153"><time>2025-04-28T07:26:57.000Z</time><ele>1052.8</ele></trkpt><trkpt lat="45.966421" lon="10.283143"><time>2025-04-28T07:26:58.000Z</time><ele>1053</ele></trkpt><trkpt lat="45.966423" lon="10.283133"><time>2025-04-28T07:26:59.000Z</time><ele>1053</ele></trkpt><trkpt lat="45.966424" lon="10.283124"><time>2025-04-28T07:27:00.000Z</time><ele>1053.2</ele></trkpt><trkpt lat="45.966421" lon="10.283113"><time>2025-04-28T07:27:01.000Z</time><ele>1053.4</ele></trkpt><trkpt lat="45.966419" lon="10.283099"><time>2025-04-28T07:27:02.000Z</time><ele>1053.4</ele></trkpt><trkpt lat="45.966421" lon="10.283088"><time>2025-04-28T07:27:03.000Z</time><ele>1053.6</ele></trkpt><trkpt lat="45.966421" lon="10.283079"><time>2025-04-28T07:27:04.000Z</time><ele>1053.8</ele></trkpt><trkpt lat="45.966421" lon="10.283067"><time>2025-04-28T07:27:05.000Z</time><ele>1054</ele></trkpt><trkpt lat="45.966423" lon="10.283052"><time>2025-04-28T07:27:06.000Z</time><ele>1054</ele></trkpt><trkpt lat="45.966427" lon="10.283044"><time>2025-04-28T07:27:07.000Z</time><ele>1054.2</ele></trkpt><trkpt lat="45.966435" lon="10.283039"><time>2025-04-28T07:27:08.000Z</time><ele>1054.4</ele></trkpt><trkpt lat="45.96644" lon="10.283035"><time>2025-04-28T07:27:09.000Z</time><ele>1054.4</ele></trkpt><trkpt lat="45.966438" lon="10.28303"><time>2025-04-28T07:27:10.000Z</time><ele>1054.6</ele></trkpt><trkpt lat="45.966447" lon="10.283019"><time>2025-04-28T07:27:11.000Z</time><ele>1054.6</ele></trkpt><trkpt lat="45.966458" lon="10.283007"><time>2025-04-28T07:27:12.000Z</time><ele>1054.8</ele></trkpt><trkpt lat="45.966463" lon="10.282997"><time>2025-04-28T07:27:13.000Z</time><ele>1054.8</ele></trkpt><trkpt lat="45.966484" lon="10.28299"><time>2025-04-28T07:27:14.000Z</time><ele>1055</ele></trkpt><trkpt lat="45.966496" lon="10.28298"><time>2025-04-28T07:27:15.000Z</time><ele>1055</ele></trkpt><trkpt lat="45.966519" lon="10.282974"><time>2025-04-28T07:27:16.000Z</time><ele>1055.2</ele></trkpt><trkpt lat="45.966544" lon="10.282968"><time>2025-04-28T07:27:17.000Z</time><ele>1055.2</ele></trkpt><trkpt lat="45.966549" lon="10.282949"><time>2025-04-28T07:27:18.000Z</time><ele>1055.4</ele></trkpt><trkpt lat="45.966551" lon="10.282936"><time>2025-04-28T07:27:19.000Z</time><ele>1055.6</ele></trkpt><trkpt lat="45.966538" lon="10.282915"><time>2025-04-28T07:27:20.000Z</time><ele>1055.6</ele></trkpt><trkpt lat="45.966543" lon="10.282902"><time>2025-04-28T07:27:21.000Z</time><ele>1055.6</ele></trkpt><trkpt lat="45.966554" lon="10.282892"><time>2025-04-28T07:27:22.000Z</time><ele>1055.8</ele></trkpt><trkpt lat="45.966574" lon="10.282885"><time>2025-04-28T07:27:23.000Z</time><ele>1055.8</ele></trkpt><trkpt lat="45.966567" lon="10.282869"><time>2025-04-28T07:27:24.000Z</time><ele>1056</ele></trkpt><trkpt lat="45.966561" lon="10.282853"><time>2025-04-28T07:27:25.000Z</time><ele>1056</ele></trkpt><trkpt lat="45.966561" lon="10.282847"><time>2025-04-28T07:27:26.000Z</time><ele>1056.2</ele></trkpt><trkpt lat="45.966561" lon="10.282841"><time>2025-04-28T07:27:27.000Z</time><ele>1056.2</ele></trkpt><trkpt lat="45.966559" lon="10.282835"><time>2025-04-28T07:27:28.000Z</time><ele>1056.2</ele></trkpt><trkpt lat="45.966563" lon="10.282825"><time>2025-04-28T07:27:29.000Z</time><ele>1056.4</ele></trkpt><trkpt lat="45.96656" lon="10.282814"><time>2025-04-28T07:27:30.000Z</time><ele>1056.4</ele></trkpt><trkpt lat="45.966551" lon="10.282803"><time>2025-04-28T07:27:31.000Z</time><ele>1056.8</ele></trkpt><trkpt lat="45.966538" lon="10.282791"><time>2025-04-28T07:27:32.000Z</time><ele>1057</ele></trkpt><trkpt lat="45.966529" lon="10.282782"><time>2025-04-28T07:27:33.000Z</time><ele>1057</ele></trkpt><trkpt lat="45.966538" lon="10.282777"><time>2025-04-28T07:27:34.000Z</time><ele>1057.2</ele></trkpt><trkpt lat="45.966538" lon="10.282765"><time>2025-04-28T07:27:35.000Z</time><ele>1057.4</ele></trkpt><trkpt lat="45.966533" lon="10.282746"><time>2025-04-28T07:27:36.000Z</time><ele>1057.4</ele></trkpt><trkpt lat="45.966539" lon="10.282733"><time>2025-04-28T07:27:37.000Z</time><ele>1057.6</ele></trkpt><trkpt lat="45.966543" lon="10.282724"><time>2025-04-28T07:27:38.000Z</time><ele>1057.8</ele></trkpt><trkpt lat="45.966541" lon="10.28272"><time>2025-04-28T07:27:39.000Z</time><ele>1057.8</ele></trkpt><trkpt lat="45.966541" lon="10.282718"><time>2025-04-28T07:27:40.000Z</time><ele>1058</ele></trkpt><trkpt lat="45.966543" lon="10.282715"><time>2025-04-28T07:27:41.000Z</time><ele>1058</ele></trkpt><trkpt lat="45.966542" lon="10.282707"><time>2025-04-28T07:27:42.000Z</time><ele>1058.2</ele></trkpt><trkpt lat="45.966546" lon="10.2827"><time>2025-04-28T07:27:43.000Z</time><ele>1058.2</ele></trkpt><trkpt lat="45.966545" lon="10.282691"><time>2025-04-28T07:27:44.000Z</time><ele>1058.4</ele></trkpt><trkpt lat="45.966546" lon="10.282681"><time>2025-04-28T07:27:45.000Z</time><ele>1058.4</ele></trkpt><trkpt lat="45.96655" lon="10.282672"><time>2025-04-28T07:27:46.000Z</time><ele>1058.4</ele></trkpt><trkpt lat="45.966558" lon="10.282667"><time>2025-04-28T07:27:47.000Z</time><ele>1058.6</ele></trkpt><trkpt lat="45.966562" lon="10.282659"><time>2025-04-28T07:27:48.000Z</time><ele>1058.6</ele></trkpt><trkpt lat="45.966566" lon="10.282652"><time>2025-04-28T07:27:49.000Z</time><ele>1058.6</ele></trkpt><trkpt lat="45.966569" lon="10.282643"><time>2025-04-28T07:27:50.000Z</time><ele>1058.6</ele></trkpt><trkpt lat="45.96657" lon="10.282637"><time>2025-04-28T07:27:51.000Z</time><ele>1058.6</ele></trkpt><trkpt lat="45.96657" lon="10.282628"><time>2025-04-28T07:27:52.000Z</time><ele>1058.8</ele></trkpt><trkpt lat="45.966576" lon="10.282623"><time>2025-04-28T07:27:53.000Z</time><ele>1059</ele></trkpt><trkpt lat="45.966582" lon="10.282624"><time>2025-04-28T07:27:54.000Z</time><ele>1059</ele></trkpt><trkpt lat="45.966584" lon="10.282622"><time>2025-04-28T07:27:55.000Z</time><ele>1059</ele></trkpt><trkpt lat="45.966592" lon="10.282627"><time>2025-04-28T07:27:56.000Z</time><ele>1059.2</ele></trkpt><trkpt lat="45.966596" lon="10.282627"><time>2025-04-28T07:27:57.000Z</time><ele>1059.2</ele></trkpt><trkpt lat="45.9666" lon="10.282624"><time>2025-04-28T07:27:58.000Z</time><ele>1059.2</ele></trkpt><trkpt lat="45.96661" lon="10.282618"><time>2025-04-28T07:27:59.000Z</time><ele>1059.2</ele></trkpt><trkpt lat="45.966613" lon="10.28261"><time>2025-04-28T07:28:00.000Z</time><ele>1059.4</ele></trkpt><trkpt lat="45.966613" lon="10.282597"><time>2025-04-28T07:28:01.000Z</time><ele>1059.4</ele></trkpt><trkpt lat="45.966618" lon="10.282591"><time>2025-04-28T07:28:02.000Z</time><ele>1059.6</ele></trkpt><trkpt lat="45.966615" lon="10.282577"><time>2025-04-28T07:28:03.000Z</time><ele>1059.6</ele></trkpt><trkpt lat="45.966616" lon="10.28257"><time>2025-04-28T07:28:04.000Z</time><ele>1059.6</ele></trkpt><trkpt lat="45.966615" lon="10.282574"><time>2025-04-28T07:28:05.000Z</time><ele>1059.6</ele></trkpt><trkpt lat="45.966607" lon="10.282571"><time>2025-04-28T07:28:06.000Z</time><ele>1059.8</ele></trkpt><trkpt lat="45.966592" lon="10.282566"><time>2025-04-28T07:28:07.000Z</time><ele>1060</ele></trkpt><trkpt lat="45.966583" lon="10.28256"><time>2025-04-28T07:28:08.000Z</time><ele>1060</ele></trkpt><trkpt lat="45.966582" lon="10.282558"><time>2025-04-28T07:28:09.000Z</time><ele>1060</ele></trkpt><trkpt lat="45.966578" lon="10.282556"><time>2025-04-28T07:28:10.000Z</time><ele>1060.2</ele></trkpt><trkpt lat="45.966579" lon="10.282556"><time>2025-04-28T07:28:11.000Z</time><ele>1060.2</ele></trkpt><trkpt lat="45.966582" lon="10.282557"><time>2025-04-28T07:28:12.000Z</time><ele>1060.4</ele></trkpt><trkpt lat="45.966584" lon="10.282556"><time>2025-04-28T07:28:13.000Z</time><ele>1060.4</ele></trkpt><trkpt lat="45.966585" lon="10.282555"><time>2025-04-28T07:28:14.000Z</time><ele>1060.4</ele></trkpt><trkpt lat="45.966584" lon="10.282554"><time>2025-04-28T07:28:15.000Z</time><ele>1060.4</ele></trkpt><trkpt lat="45.966584" lon="10.282554"><time>2025-04-28T07:28:16.000Z</time><ele>1060.4</ele></trkpt><trkpt lat="45.966584" lon="10.282554"><time>2025-04-28T07:28:17.000Z</time><ele>1060.4</ele></trkpt><trkpt lat="45.966584" lon="10.282554"><time>2025-04-28T07:28:18.000Z</time><ele>1060.4</ele></trkpt><trkpt lat="45.966584" lon="10.282554"><time>2025-04-28T07:28:19.000Z</time><ele>1060.6</ele></trkpt><trkpt lat="45.966584" lon="10.282554"><time>2025-04-28T07:28:20.000Z</time><ele>1060.6</ele></trkpt><trkpt lat="45.966584" lon="10.282554"><time>2025-04-28T07:28:21.000Z</time><ele>1060.6</ele></trkpt><trkpt lat="45.966584" lon="10.282554"><time>2025-04-28T07:28:22.000Z</time><ele>1060.6</ele></trkpt><trkpt lat="45.966584" lon="10.282554"><time>2025-04-28T07:28:23.000Z</time><ele>1060.6</ele></trkpt><trkpt lat="45.966584" lon="10.282554"><time>2025-04-28T07:28:24.000Z</time><ele>1060.6</ele></trkpt><trkpt lat="45.966584" lon="10.282554"><time>2025-04-28T07:28:25.000Z</time><ele>1060.6</ele></trkpt><trkpt lat="45.966584" lon="10.282554"><time>2025-04-28T07:28:26.000Z</time><ele>1060.4</ele></trkpt><trkpt lat="45.966584" lon="10.282554"><time>2025-04-28T07:28:27.000Z</time><ele>1060.4</ele></trkpt><trkpt lat="45.966584" lon="10.282554"><time>2025-04-28T07:28:28.000Z</time><ele>1060.4</ele></trkpt><trkpt lat="45.966584" lon="10.282554"><time>2025-04-28T07:28:29.000Z</time><ele>1060.4</ele></trkpt><trkpt lat="45.966585" lon="10.282554"><time>2025-04-28T07:28:30.000Z</time><ele>1060.4</ele></trkpt><trkpt lat="45.966591" lon="10.282554"><time>2025-04-28T07:28:31.000Z</time><ele>1060.6</ele></trkpt><trkpt lat="45.966595" lon="10.282554"><time>2025-04-28T07:28:32.000Z</time><ele>1060.6</ele></trkpt><trkpt lat="45.966598" lon="10.282554"><time>2025-04-28T07:28:33.000Z</time><ele>1060.6</ele></trkpt><trkpt lat="45.966601" lon="10.282554"><time>2025-04-28T07:28:34.000Z</time><ele>1060.6</ele></trkpt><trkpt lat="45.966602" lon="10.282554"><time>2025-04-28T07:28:35.000Z</time><ele>1060.6</ele></trkpt><trkpt lat="45.966603" lon="10.282554"><time>2025-04-28T07:28:36.000Z</time><ele>1060.6</ele></trkpt><trkpt lat="45.966603" lon="10.282554"><time>2025-04-28T07:28:37.000Z</time><ele>1060.4</ele></trkpt><trkpt lat="45.966604" lon="10.282553"><time>2025-04-28T07:28:38.000Z</time><ele>1060.4</ele></trkpt><trkpt lat="45.966604" lon="10.282552"><time>2025-04-28T07:28:39.000Z</time><ele>1060.2</ele></trkpt><trkpt lat="45.966604" lon="10.282552"><time>2025-04-28T07:28:40.000Z</time><ele>1060.2</ele></trkpt><trkpt lat="45.966604" lon="10.282551"><time>2025-04-28T07:28:41.000Z</time><ele>1060.2</ele></trkpt><trkpt lat="45.966605" lon="10.282551"><time>2025-04-28T07:28:42.000Z</time><ele>1060.2</ele></trkpt><trkpt lat="45.966605" lon="10.282549"><time>2025-04-28T07:28:43.000Z</time><ele>1060.2</ele></trkpt><trkpt lat="45.966605" lon="10.282549"><time>2025-04-28T07:28:44.000Z</time><ele>1060.2</ele></trkpt><trkpt lat="45.966604" lon="10.282547"><time>2025-04-28T07:28:45.000Z</time><ele>1060.2</ele></trkpt><trkpt lat="45.966597" lon="10.282545"><time>2025-04-28T07:28:46.000Z</time><ele>1060.2</ele></trkpt><trkpt lat="45.96659" lon="10.282546"><time>2025-04-28T07:28:47.000Z</time><ele>1060.2</ele></trkpt><trkpt lat="45.966586" lon="10.282543"><time>2025-04-28T07:28:48.000Z</time><ele>1060.2</ele></trkpt><trkpt lat="45.966582" lon="10.282536"><time>2025-04-28T07:28:49.000Z</time><ele>1060.2</ele></trkpt><trkpt lat="45.966581" lon="10.282533"><time>2025-04-28T07:28:50.000Z</time><ele>1060.2</ele></trkpt><trkpt lat="45.96658" lon="10.282527"><time>2025-04-28T07:28:51.000Z</time><ele>1060.2</ele></trkpt><trkpt lat="45.966578" lon="10.282521"><time>2025-04-28T07:28:52.000Z</time><ele>1060.2</ele></trkpt><trkpt lat="45.966575" lon="10.282504"><time>2025-04-28T07:28:53.000Z</time><ele>1060.2</ele></trkpt><trkpt lat="45.966571" lon="10.282493"><time>2025-04-28T07:28:54.000Z</time><ele>1060.2</ele></trkpt><trkpt lat="45.966565" lon="10.282483"><time>2025-04-28T07:28:55.000Z</time><ele>1060.2</ele></trkpt><trkpt lat="45.966564" lon="10.282482"><time>2025-04-28T07:28:56.000Z</time><ele>1060.2</ele></trkpt><trkpt lat="45.966563" lon="10.282482"><time>2025-04-28T07:28:57.000Z</time><ele>1060.2</ele></trkpt><trkpt lat="45.966562" lon="10.282483"><time>2025-04-28T07:28:58.000Z</time><ele>1060.2</ele></trkpt><trkpt lat="45.966564" lon="10.282484"><time>2025-04-28T07:28:59.000Z</time><ele>1060.2</ele></trkpt><trkpt lat="45.966566" lon="10.282484"><time>2025-04-28T07:29:00.000Z</time><ele>1060.2</ele></trkpt><trkpt lat="45.966569" lon="10.28248"><time>2025-04-28T07:29:01.000Z</time><ele>1060.4</ele></trkpt><trkpt lat="45.96658" lon="10.282489"><time>2025-04-28T07:29:02.000Z</time><ele>1060.4</ele></trkpt><trkpt lat="45.966571" lon="10.282487"><time>2025-04-28T07:29:03.000Z</time><ele>1060.4</ele></trkpt><trkpt lat="45.96657" lon="10.282486"><time>2025-04-28T07:29:04.000Z</time><ele>1060.2</ele></trkpt><trkpt lat="45.966567" lon="10.282488"><time>2025-04-28T07:29:05.000Z</time><ele>1060.2</ele></trkpt><trkpt lat="45.96656" lon="10.282484"><time>2025-04-28T07:29:06.000Z</time><ele>1060.2</ele></trkpt><trkpt lat="45.966559" lon="10.282481"><time>2025-04-28T07:29:07.000Z</time><ele>1060.2</ele></trkpt><trkpt lat="45.966569" lon="10.282488"><time>2025-04-28T07:29:08.000Z</time><ele>1060.2</ele></trkpt><trkpt lat="45.966569" lon="10.282488"><time>2025-04-28T07:29:09.000Z</time><ele>1060.2</ele></trkpt><trkpt lat="45.966569" lon="10.28249"><time>2025-04-28T07:29:10.000Z</time><ele>1060.2</ele></trkpt><trkpt lat="45.966584" lon="10.2825"><time>2025-04-28T07:29:11.000Z</time><ele>1060.2</ele></trkpt><trkpt lat="45.966591" lon="10.282505"><time>2025-04-28T07:29:12.000Z</time><ele>1060</ele></trkpt><trkpt lat="45.966601" lon="10.28251"><time>2025-04-28T07:29:13.000Z</time><ele>1060</ele></trkpt><trkpt lat="45.966611" lon="10.282521"><time>2025-04-28T07:29:14.000Z</time><ele>1060</ele></trkpt><trkpt lat="45.966621" lon="10.282529"><time>2025-04-28T07:29:15.000Z</time><ele>1060</ele></trkpt><trkpt lat="45.966625" lon="10.282532"><time>2025-04-28T07:29:16.000Z</time><ele>1060</ele></trkpt><trkpt lat="45.966624" lon="10.282531"><time>2025-04-28T07:29:17.000Z</time><ele>1060</ele></trkpt><trkpt lat="45.966628" lon="10.282526"><time>2025-04-28T07:29:18.000Z</time><ele>1060</ele></trkpt><trkpt lat="45.966627" lon="10.282517"><time>2025-04-28T07:29:19.000Z</time><ele>1060</ele></trkpt><trkpt lat="45.966616" lon="10.282502"><time>2025-04-28T07:29:20.000Z</time><ele>1060</ele></trkpt><trkpt lat="45.966611" lon="10.282496"><time>2025-04-28T07:29:21.000Z</time><ele>1060</ele></trkpt><trkpt lat="45.96661" lon="10.282502"><time>2025-04-28T07:29:22.000Z</time><ele>1060</ele></trkpt><trkpt lat="45.966603" lon="10.2825"><time>2025-04-28T07:29:23.000Z</time><ele>1060</ele></trkpt><trkpt lat="45.966593" lon="10.282499"><time>2025-04-28T07:29:24.000Z</time><ele>1060</ele></trkpt><trkpt lat="45.966582" lon="10.282494"><time>2025-04-28T07:29:25.000Z</time><ele>1060</ele></trkpt><trkpt lat="45.966572" lon="10.282489"><time>2025-04-28T07:29:26.000Z</time><ele>1060</ele></trkpt><trkpt lat="45.966566" lon="10.282482"><time>2025-04-28T07:29:27.000Z</time><ele>1060</ele></trkpt><trkpt lat="45.966572" lon="10.28248"><time>2025-04-28T07:29:28.000Z</time><ele>1060</ele></trkpt><trkpt lat="45.966583" lon="10.282477"><time>2025-04-28T07:29:29.000Z</time><ele>1060</ele></trkpt><trkpt lat="45.966599" lon="10.282476"><time>2025-04-28T07:29:30.000Z</time><ele>1060</ele></trkpt><trkpt lat="45.966616" lon="10.282476"><time>2025-04-28T07:29:31.000Z</time><ele>1060</ele></trkpt><trkpt lat="45.966628" lon="10.282474"><time>2025-04-28T07:29:32.000Z</time><ele>1060</ele></trkpt><trkpt lat="45.966636" lon="10.282467"><time>2025-04-28T07:29:33.000Z</time><ele>1060</ele></trkpt><trkpt lat="45.966639" lon="10.28246"><time>2025-04-28T07:29:34.000Z</time><ele>1060</ele></trkpt><trkpt lat="45.966639" lon="10.282452"><time>2025-04-28T07:29:35.000Z</time><ele>1060</ele></trkpt><trkpt lat="45.966641" lon="10.282445"><time>2025-04-28T07:29:36.000Z</time><ele>1060</ele></trkpt><trkpt lat="45.966639" lon="10.282438"><time>2025-04-28T07:29:37.000Z</time><ele>1060</ele></trkpt><trkpt lat="45.966638" lon="10.282428"><time>2025-04-28T07:29:38.000Z</time><ele>1060</ele></trkpt><trkpt lat="45.966632" lon="10.282422"><time>2025-04-28T07:29:39.000Z</time><ele>1060</ele></trkpt><trkpt lat="45.966622" lon="10.282419"><time>2025-04-28T07:29:40.000Z</time><ele>1060</ele></trkpt><trkpt lat="45.966616" lon="10.282419"><time>2025-04-28T07:29:41.000Z</time><ele>1060</ele></trkpt><trkpt lat="45.966606" lon="10.282415"><time>2025-04-28T07:29:42.000Z</time><ele>1060</ele></trkpt><trkpt lat="45.966597" lon="10.282414"><time>2025-04-28T07:29:43.000Z</time><ele>1060</ele></trkpt><trkpt lat="45.966602" lon="10.282416"><time>2025-04-28T07:29:44.000Z</time><ele>1060</ele></trkpt><trkpt lat="45.966595" lon="10.282412"><time>2025-04-28T07:29:45.000Z</time><ele>1060</ele></trkpt><trkpt lat="45.966592" lon="10.282415"><time>2025-04-28T07:29:46.000Z</time><ele>1060</ele></trkpt><trkpt lat="45.966618" lon="10.282426"><time>2025-04-28T07:29:47.000Z</time><ele>1060</ele></trkpt><trkpt lat="45.966658" lon="10.28244"><time>2025-04-28T07:29:48.000Z</time><ele>1060</ele></trkpt><trkpt lat="45.966666" lon="10.282444"><time>2025-04-28T07:29:49.000Z</time><ele>1060</ele></trkpt><trkpt lat="45.966669" lon="10.282447"><time>2025-04-28T07:29:50.000Z</time><ele>1060</ele></trkpt><trkpt lat="45.966669" lon="10.282448"><time>2025-04-28T07:29:51.000Z</time><ele>1060</ele></trkpt><trkpt lat="45.966669" lon="10.282448"><time>2025-04-28T07:29:52.000Z</time><ele>1060</ele></trkpt><trkpt lat="45.966669" lon="10.282448"><time>2025-04-28T07:29:53.000Z</time><ele>1060</ele></trkpt><trkpt lat="45.966669" lon="10.282448"><time>2025-04-28T07:29:54.000Z</time><ele>1060</ele></trkpt><trkpt lat="45.966669" lon="10.282448"><time>2025-04-28T07:29:55.000Z</time><ele>1060</ele></trkpt><trkpt lat="45.966672" lon="10.28245"><time>2025-04-28T07:29:56.000Z</time><ele>1060</ele></trkpt><trkpt lat="45.966683" lon="10.282453"><time>2025-04-28T07:29:57.000Z</time><ele>1060</ele></trkpt><trkpt lat="45.966688" lon="10.282453"><time>2025-04-28T07:29:58.000Z</time><ele>1060</ele></trkpt><trkpt lat="45.96669" lon="10.282454"><time>2025-04-28T07:29:59.000Z</time><ele>1060</ele></trkpt><trkpt lat="45.966695" lon="10.282454"><time>2025-04-28T07:30:00.000Z</time><ele>1060</ele></trkpt><trkpt lat="45.96669" lon="10.282453"><time>2025-04-28T07:30:01.000Z</time><ele>1060</ele></trkpt><trkpt lat="45.966688" lon="10.282455"><time>2025-04-28T07:30:02.000Z</time><ele>1060</ele></trkpt><trkpt lat="45.966689" lon="10.282455"><time>2025-04-28T07:30:03.000Z</time><ele>1060</ele></trkpt><trkpt lat="45.96667" lon="10.282459"><time>2025-04-28T07:30:04.000Z</time><ele>1060</ele></trkpt><trkpt lat="45.966656" lon="10.282463"><time>2025-04-28T07:30:05.000Z</time><ele>1060</ele></trkpt><trkpt lat="45.966646" lon="10.282465"><time>2025-04-28T07:30:06.000Z</time><ele>1060</ele></trkpt><trkpt lat="45.966642" lon="10.282464"><time>2025-04-28T07:30:07.000Z</time><ele>1060</ele></trkpt><trkpt lat="45.966637" lon="10.282463"><time>2025-04-28T07:30:08.000Z</time><ele>1060</ele></trkpt><trkpt lat="45.966634" lon="10.282465"><time>2025-04-28T07:30:09.000Z</time><ele>1060</ele></trkpt><trkpt lat="45.966638" lon="10.282471"><time>2025-04-28T07:30:10.000Z</time><ele>1060</ele></trkpt><trkpt lat="45.966641" lon="10.282472"><time>2025-04-28T07:30:11.000Z</time><ele>1060</ele></trkpt><trkpt lat="45.966651" lon="10.282477"><time>2025-04-28T07:30:12.000Z</time><ele>1060</ele></trkpt><trkpt lat="45.966655" lon="10.282481"><time>2025-04-28T07:30:13.000Z</time><ele>1060</ele></trkpt><trkpt lat="45.966653" lon="10.282481"><time>2025-04-28T07:30:14.000Z</time><ele>1060</ele></trkpt><trkpt lat="45.966657" lon="10.282478"><time>2025-04-28T07:30:15.000Z</time><ele>1060</ele></trkpt><trkpt lat="45.966681" lon="10.282485"><time>2025-04-28T07:30:16.000Z</time><ele>1060</ele></trkpt><trkpt lat="45.966713" lon="10.282496"><time>2025-04-28T07:30:17.000Z</time><ele>1060</ele></trkpt><trkpt lat="45.96674" lon="10.282507"><time>2025-04-28T07:30:18.000Z</time><ele>1060</ele></trkpt><trkpt lat="45.966761" lon="10.282504"><time>2025-04-28T07:30:19.000Z</time><ele>1060</ele></trkpt><trkpt lat="45.966779" lon="10.282501"><time>2025-04-28T07:30:20.000Z</time><ele>1060</ele></trkpt><trkpt lat="45.966799" lon="10.282499"><time>2025-04-28T07:30:21.000Z</time><ele>1060</ele></trkpt><trkpt lat="45.96682" lon="10.282491"><time>2025-04-28T07:30:22.000Z</time><ele>1060</ele></trkpt><trkpt lat="45.96684" lon="10.282487"><time>2025-04-28T07:30:23.000Z</time><ele>1058.8</ele></trkpt><trkpt lat="45.966851" lon="10.282477"><time>2025-04-28T07:30:24.000Z</time><ele>1058</ele></trkpt><trkpt lat="45.966859" lon="10.282463"><time>2025-04-28T07:30:25.000Z</time><ele>1057.6</ele></trkpt><trkpt lat="45.966869" lon="10.282457"><time>2025-04-28T07:30:26.000Z</time><ele>1057.4</ele></trkpt><trkpt lat="45.966874" lon="10.282449"><time>2025-04-28T07:30:27.000Z</time><ele>1057.2</ele></trkpt><trkpt lat="45.966879" lon="10.282435"><time>2025-04-28T07:30:28.000Z</time><ele>1057.2</ele></trkpt><trkpt lat="45.966885" lon="10.282429"><time>2025-04-28T07:30:29.000Z</time><ele>1057</ele></trkpt><trkpt lat="45.966888" lon="10.282423"><time>2025-04-28T07:30:30.000Z</time><ele>1056.8</ele></trkpt><trkpt lat="45.966896" lon="10.282413"><time>2025-04-28T07:30:31.000Z</time><ele>1056.8</ele></trkpt><trkpt lat="45.966906" lon="10.282408"><time>2025-04-28T07:30:32.000Z</time><ele>1056.6</ele></trkpt><trkpt lat="45.966917" lon="10.282408"><time>2025-04-28T07:30:33.000Z</time><ele>1056.6</ele></trkpt><trkpt lat="45.966929" lon="10.282398"><time>2025-04-28T07:30:34.000Z</time><ele>1056.4</ele></trkpt><trkpt lat="45.96694" lon="10.282385"><time>2025-04-28T07:30:35.000Z</time><ele>1056.4</ele></trkpt><trkpt lat="45.966941" lon="10.282364"><time>2025-04-28T07:30:36.000Z</time><ele>1056.4</ele></trkpt><trkpt lat="45.966987" lon="10.28236"><time>2025-04-28T07:30:37.000Z</time><ele>1056.4</ele></trkpt><trkpt lat="45.967014" lon="10.28236"><time>2025-04-28T07:30:38.000Z</time><ele>1056.4</ele></trkpt><trkpt lat="45.967047" lon="10.282352"><time>2025-04-28T07:30:39.000Z</time><ele>1056.4</ele></trkpt><trkpt lat="45.967066" lon="10.28233"><time>2025-04-28T07:30:40.000Z</time><ele>1056.4</ele></trkpt><trkpt lat="45.967078" lon="10.282308"><time>2025-04-28T07:30:41.000Z</time><ele>1056.2</ele></trkpt><trkpt lat="45.967099" lon="10.282289"><time>2025-04-28T07:30:42.000Z</time><ele>1056.2</ele></trkpt><trkpt lat="45.967109" lon="10.282273"><time>2025-04-28T07:30:43.000Z</time><ele>1056.2</ele></trkpt><trkpt lat="45.967109" lon="10.28226"><time>2025-04-28T07:30:44.000Z</time><ele>1056.2</ele></trkpt><trkpt lat="45.967109" lon="10.282246"><time>2025-04-28T07:30:45.000Z</time><ele>1056</ele></trkpt><trkpt lat="45.967113" lon="10.282235"><time>2025-04-28T07:30:46.000Z</time><ele>1056</ele></trkpt><trkpt lat="45.967114" lon="10.282227"><time>2025-04-28T07:30:47.000Z</time><ele>1055.8</ele></trkpt><trkpt lat="45.967119" lon="10.282219"><time>2025-04-28T07:30:48.000Z</time><ele>1055.8</ele></trkpt><trkpt lat="45.967131" lon="10.282211"><time>2025-04-28T07:30:49.000Z</time><ele>1055.8</ele></trkpt><trkpt lat="45.967131" lon="10.282194"><time>2025-04-28T07:30:50.000Z</time><ele>1055.6</ele></trkpt><trkpt lat="45.967141" lon="10.282187"><time>2025-04-28T07:30:51.000Z</time><ele>1055.6</ele></trkpt><trkpt lat="45.967151" lon="10.28218"><time>2025-04-28T07:30:52.000Z</time><ele>1055.4</ele></trkpt><trkpt lat="45.967161" lon="10.282177"><time>2025-04-28T07:30:53.000Z</time><ele>1055.2</ele></trkpt><trkpt lat="45.967181" lon="10.282183"><time>2025-04-28T07:30:54.000Z</time><ele>1055</ele></trkpt><trkpt lat="45.967206" lon="10.282175"><time>2025-04-28T07:30:55.000Z</time><ele>1054.8</ele></trkpt><trkpt lat="45.967219" lon="10.282163"><time>2025-04-28T07:30:56.000Z</time><ele>1054.8</ele></trkpt><trkpt lat="45.967227" lon="10.282147"><time>2025-04-28T07:30:57.000Z</time><ele>1054.8</ele></trkpt><trkpt lat="45.967229" lon="10.282126"><time>2025-04-28T07:30:58.000Z</time><ele>1054.6</ele></trkpt><trkpt lat="45.967235" lon="10.282114"><time>2025-04-28T07:30:59.000Z</time><ele>1054.6</ele></trkpt><trkpt lat="45.967235" lon="10.282098"><time>2025-04-28T07:31:00.000Z</time><ele>1054.6</ele></trkpt><trkpt lat="45.967237" lon="10.282083"><time>2025-04-28T07:31:01.000Z</time><ele>1054.6</ele></trkpt><trkpt lat="45.967269" lon="10.282082"><time>2025-04-28T07:31:02.000Z</time><ele>1054.4</ele></trkpt><trkpt lat="45.967286" lon="10.282088"><time>2025-04-28T07:31:03.000Z</time><ele>1054.6</ele></trkpt><trkpt lat="45.967293" lon="10.282095"><time>2025-04-28T07:31:04.000Z</time><ele>1054.6</ele></trkpt><trkpt lat="45.967296" lon="10.282099"><time>2025-04-28T07:31:05.000Z</time><ele>1054.6</ele></trkpt><trkpt lat="45.967304" lon="10.282106"><time>2025-04-28T07:31:06.000Z</time><ele>1054.6</ele></trkpt><trkpt lat="45.967309" lon="10.282111"><time>2025-04-28T07:31:07.000Z</time><ele>1054.6</ele></trkpt><trkpt lat="45.967303" lon="10.282107"><time>2025-04-28T07:31:08.000Z</time><ele>1054.6</ele></trkpt><trkpt lat="45.967304" lon="10.28211"><time>2025-04-28T07:31:09.000Z</time><ele>1054.4</ele></trkpt><trkpt lat="45.967302" lon="10.282111"><time>2025-04-28T07:31:10.000Z</time><ele>1054.4</ele></trkpt><trkpt lat="45.967299" lon="10.282112"><time>2025-04-28T07:31:11.000Z</time><ele>1054.4</ele></trkpt><trkpt lat="45.967297" lon="10.282112"><time>2025-04-28T07:31:12.000Z</time><ele>1054.4</ele></trkpt><trkpt lat="45.967296" lon="10.28211"><time>2025-04-28T07:31:13.000Z</time><ele>1054.6</ele></trkpt><trkpt lat="45.967295" lon="10.28211"><time>2025-04-28T07:31:14.000Z</time><ele>1054.6</ele></trkpt><trkpt lat="45.967285" lon="10.282106"><time>2025-04-28T07:31:15.000Z</time><ele>1054.6</ele></trkpt><trkpt lat="45.967276" lon="10.282102"><time>2025-04-28T07:31:16.000Z</time><ele>1054.6</ele></trkpt><trkpt lat="45.967273" lon="10.282101"><time>2025-04-28T07:31:17.000Z</time><ele>1054.6</ele></trkpt><trkpt lat="45.967273" lon="10.282099"><time>2025-04-28T07:31:18.000Z</time><ele>1054.4</ele></trkpt><trkpt lat="45.967281" lon="10.282098"><time>2025-04-28T07:31:19.000Z</time><ele>1054.4</ele></trkpt><trkpt lat="45.967282" lon="10.282099"><time>2025-04-28T07:31:20.000Z</time><ele>1054.4</ele></trkpt><trkpt lat="45.967282" lon="10.282099"><time>2025-04-28T07:31:21.000Z</time><ele>1054.4</ele></trkpt><trkpt lat="45.967282" lon="10.282099"><time>2025-04-28T07:31:22.000Z</time><ele>1054.4</ele></trkpt><trkpt lat="45.967282" lon="10.282099"><time>2025-04-28T07:31:23.000Z</time><ele>1054.6</ele></trkpt><trkpt lat="45.967282" lon="10.282099"><time>2025-04-28T07:31:24.000Z</time><ele>1054.6</ele></trkpt><trkpt lat="45.967282" lon="10.282099"><time>2025-04-28T07:31:25.000Z</time><ele>1054.6</ele></trkpt><trkpt lat="45.967282" lon="10.282099"><time>2025-04-28T07:31:26.000Z</time><ele>1054.6</ele></trkpt><trkpt lat="45.967282" lon="10.282099"><time>2025-04-28T07:31:27.000Z</time><ele>1054.6</ele></trkpt><trkpt lat="45.967282" lon="10.282099"><time>2025-04-28T07:31:28.000Z</time><ele>1054.6</ele></trkpt><trkpt lat="45.967277" lon="10.282096"><time>2025-04-28T07:31:29.000Z</time><ele>1054.8</ele></trkpt><trkpt lat="45.967269" lon="10.282092"><time>2025-04-28T07:31:30.000Z</time><ele>1054.8</ele></trkpt><trkpt lat="45.967264" lon="10.282086"><time>2025-04-28T07:31:31.000Z</time><ele>1054.8</ele></trkpt><trkpt lat="45.967254" lon="10.282076"><time>2025-04-28T07:31:32.000Z</time><ele>1054.8</ele></trkpt><trkpt lat="45.967252" lon="10.282062"><time>2025-04-28T07:31:33.000Z</time><ele>1054.8</ele></trkpt><trkpt lat="45.96726" lon="10.28207"><time>2025-04-28T07:31:34.000Z</time><ele>1054.8</ele></trkpt><trkpt lat="45.967267" lon="10.282076"><time>2025-04-28T07:31:35.000Z</time><ele>1054.8</ele></trkpt><trkpt lat="45.967274" lon="10.282068"><time>2025-04-28T07:31:36.000Z</time><ele>1054.8</ele></trkpt><trkpt lat="45.967278" lon="10.282061"><time>2025-04-28T07:31:37.000Z</time><ele>1055</ele></trkpt><trkpt lat="45.967281" lon="10.28205"><time>2025-04-28T07:31:38.000Z</time><ele>1055</ele></trkpt><trkpt lat="45.967289" lon="10.282042"><time>2025-04-28T07:31:39.000Z</time><ele>1055</ele></trkpt><trkpt lat="45.967292" lon="10.282035"><time>2025-04-28T07:31:40.000Z</time><ele>1055</ele></trkpt><trkpt lat="45.967294" lon="10.282023"><time>2025-04-28T07:31:41.000Z</time><ele>1055.2</ele></trkpt><trkpt lat="45.967299" lon="10.282018"><time>2025-04-28T07:31:42.000Z</time><ele>1055.2</ele></trkpt><trkpt lat="45.967295" lon="10.282011"><time>2025-04-28T07:31:43.000Z</time><ele>1055.2</ele></trkpt><trkpt lat="45.967301" lon="10.282009"><time>2025-04-28T07:31:44.000Z</time><ele>1055.6</ele></trkpt><trkpt lat="45.967304" lon="10.282005"><time>2025-04-28T07:31:45.000Z</time><ele>1055.6</ele></trkpt><trkpt lat="45.967304" lon="10.282006"><time>2025-04-28T07:31:46.000Z</time><ele>1055.8</ele></trkpt><trkpt lat="45.967299" lon="10.282009"><time>2025-04-28T07:31:47.000Z</time><ele>1056</ele></trkpt><trkpt lat="45.967271" lon="10.282009"><time>2025-04-28T07:31:48.000Z</time><ele>1056.2</ele></trkpt><trkpt lat="45.967252" lon="10.282004"><time>2025-04-28T07:31:49.000Z</time><ele>1056.4</ele></trkpt><trkpt lat="45.967259" lon="10.282006"><time>2025-04-28T07:31:50.000Z</time><ele>1056.6</ele></trkpt><trkpt lat="45.967281" lon="10.28201"><time>2025-04-28T07:31:51.000Z</time><ele>1056.8</ele></trkpt><trkpt lat="45.96729" lon="10.282007"><time>2025-04-28T07:31:52.000Z</time><ele>1057</ele></trkpt><trkpt lat="45.967294" lon="10.28201"><time>2025-04-28T07:31:53.000Z</time><ele>1057.2</ele></trkpt><trkpt lat="45.967286" lon="10.282002"><time>2025-04-28T07:31:54.000Z</time><ele>1057.4</ele></trkpt><trkpt lat="45.967271" lon="10.282001"><time>2025-04-28T07:31:55.000Z</time><ele>1057.6</ele></trkpt><trkpt lat="45.967265" lon="10.281996"><time>2025-04-28T07:31:56.000Z</time><ele>1057.8</ele></trkpt><trkpt lat="45.967255" lon="10.281986"><time>2025-04-28T07:31:57.000Z</time><ele>1058</ele></trkpt><trkpt lat="45.967256" lon="10.281979"><time>2025-04-28T07:31:58.000Z</time><ele>1058.2</ele></trkpt><trkpt lat="45.967256" lon="10.281979"><time>2025-04-28T07:31:59.000Z</time><ele>1058.4</ele></trkpt><trkpt lat="45.967256" lon="10.281979"><time>2025-04-28T07:32:00.000Z</time><ele>1058.4</ele></trkpt><trkpt lat="45.967256" lon="10.281979"><time>2025-04-28T07:32:01.000Z</time><ele>1058.6</ele></trkpt><trkpt lat="45.967255" lon="10.281978"><time>2025-04-28T07:32:02.000Z</time><ele>1058.8</ele></trkpt><trkpt lat="45.967251" lon="10.281969"><time>2025-04-28T07:32:03.000Z</time><ele>1059</ele></trkpt><trkpt lat="45.967244" lon="10.281965"><time>2025-04-28T07:32:04.000Z</time><ele>1059.4</ele></trkpt><trkpt lat="45.967244" lon="10.28196"><time>2025-04-28T07:32:05.000Z</time><ele>1059.6</ele></trkpt><trkpt lat="45.96724" lon="10.28196"><time>2025-04-28T07:32:06.000Z</time><ele>1059.8</ele></trkpt><trkpt lat="45.967231" lon="10.281958"><time>2025-04-28T07:32:07.000Z</time><ele>1060</ele></trkpt><trkpt lat="45.967237" lon="10.281957"><time>2025-04-28T07:32:08.000Z</time><ele>1060</ele></trkpt><trkpt lat="45.967238" lon="10.281956"><time>2025-04-28T07:32:09.000Z</time><ele>1060.2</ele></trkpt><trkpt lat="45.967242" lon="10.281953"><time>2025-04-28T07:32:10.000Z</time><ele>1060.4</ele></trkpt><trkpt lat="45.967254" lon="10.281951"><time>2025-04-28T07:32:11.000Z</time><ele>1060.6</ele></trkpt><trkpt lat="45.967271" lon="10.281956"><time>2025-04-28T07:32:12.000Z</time><ele>1060.8</ele></trkpt><trkpt lat="45.967274" lon="10.281957"><time>2025-04-28T07:32:13.000Z</time><ele>1061.2</ele></trkpt><trkpt lat="45.967275" lon="10.281953"><time>2025-04-28T07:32:14.000Z</time><ele>1061.4</ele></trkpt><trkpt lat="45.967291" lon="10.281961"><time>2025-04-28T07:32:15.000Z</time><ele>1061.4</ele></trkpt><trkpt lat="45.967309" lon="10.28196"><time>2025-04-28T07:32:16.000Z</time><ele>1061.6</ele></trkpt><trkpt lat="45.967309" lon="10.281958"><time>2025-04-28T07:32:17.000Z</time><ele>1062</ele></trkpt><trkpt lat="45.96731" lon="10.281955"><time>2025-04-28T07:32:18.000Z</time><ele>1062.2</ele></trkpt><trkpt lat="45.967312" lon="10.281954"><time>2025-04-28T07:32:19.000Z</time><ele>1062.2</ele></trkpt><trkpt lat="45.967313" lon="10.281957"><time>2025-04-28T07:32:20.000Z</time><ele>1062.6</ele></trkpt><trkpt lat="45.967317" lon="10.281951"><time>2025-04-28T07:32:21.000Z</time><ele>1062.8</ele></trkpt><trkpt lat="45.967327" lon="10.281945"><time>2025-04-28T07:32:22.000Z</time><ele>1063</ele></trkpt><trkpt lat="45.967336" lon="10.281947"><time>2025-04-28T07:32:23.000Z</time><ele>1063.2</ele></trkpt><trkpt lat="45.967339" lon="10.281948"><time>2025-04-28T07:32:24.000Z</time><ele>1063.4</ele></trkpt><trkpt lat="45.967345" lon="10.281945"><time>2025-04-28T07:32:25.000Z</time><ele>1063.4</ele></trkpt><trkpt lat="45.967348" lon="10.281948"><time>2025-04-28T07:32:26.000Z</time><ele>1063.4</ele></trkpt><trkpt lat="45.967349" lon="10.281951"><time>2025-04-28T07:32:27.000Z</time><ele>1063.6</ele></trkpt><trkpt lat="45.967359" lon="10.281948"><time>2025-04-28T07:32:28.000Z</time><ele>1063.8</ele></trkpt><trkpt lat="45.967361" lon="10.281948"><time>2025-04-28T07:32:29.000Z</time><ele>1064.2</ele></trkpt><trkpt lat="45.96736" lon="10.281947"><time>2025-04-28T07:32:30.000Z</time><ele>1064.2</ele></trkpt><trkpt lat="45.967372" lon="10.281939"><time>2025-04-28T07:32:31.000Z</time><ele>1064.4</ele></trkpt><trkpt lat="45.967389" lon="10.281941"><time>2025-04-28T07:32:32.000Z</time><ele>1064.4</ele></trkpt><trkpt lat="45.967403" lon="10.281938"><time>2025-04-28T07:32:33.000Z</time><ele>1064.6</ele></trkpt><trkpt lat="45.967409" lon="10.281941"><time>2025-04-28T07:32:34.000Z</time><ele>1064.6</ele></trkpt><trkpt lat="45.967419" lon="10.281943"><time>2025-04-28T07:32:35.000Z</time><ele>1064.6</ele></trkpt><trkpt lat="45.967431" lon="10.281946"><time>2025-04-28T07:32:36.000Z</time><ele>1064.6</ele></trkpt><trkpt lat="45.967445" lon="10.281953"><time>2025-04-28T07:32:37.000Z</time><ele>1064.6</ele></trkpt><trkpt lat="45.967448" lon="10.281958"><time>2025-04-28T07:32:38.000Z</time><ele>1065</ele></trkpt><trkpt lat="45.967451" lon="10.281959"><time>2025-04-28T07:32:39.000Z</time><ele>1065</ele></trkpt><trkpt lat="45.96745" lon="10.281957"><time>2025-04-28T07:32:40.000Z</time><ele>1065.2</ele></trkpt><trkpt lat="45.967456" lon="10.281957"><time>2025-04-28T07:32:41.000Z</time><ele>1065.2</ele></trkpt><trkpt lat="45.96747" lon="10.281966"><time>2025-04-28T07:32:42.000Z</time><ele>1065.4</ele></trkpt><trkpt lat="45.967475" lon="10.281973"><time>2025-04-28T07:32:43.000Z</time><ele>1065.4</ele></trkpt><trkpt lat="45.967475" lon="10.281972"><time>2025-04-28T07:32:44.000Z</time><ele>1065.6</ele></trkpt><trkpt lat="45.967487" lon="10.281984"><time>2025-04-28T07:32:45.000Z</time><ele>1065.8</ele></trkpt><trkpt lat="45.967506" lon="10.282002"><time>2025-04-28T07:32:46.000Z</time><ele>1065.8</ele></trkpt><trkpt lat="45.967522" lon="10.282014"><time>2025-04-28T07:32:47.000Z</time><ele>1066</ele></trkpt><trkpt lat="45.967532" lon="10.282028"><time>2025-04-28T07:32:48.000Z</time><ele>1066</ele></trkpt><trkpt lat="45.967534" lon="10.282029"><time>2025-04-28T07:32:49.000Z</time><ele>1066</ele></trkpt><trkpt lat="45.967538" lon="10.282029"><time>2025-04-28T07:32:50.000Z</time><ele>1066.2</ele></trkpt><trkpt lat="45.967543" lon="10.282044"><time>2025-04-28T07:32:51.000Z</time><ele>1066.4</ele></trkpt><trkpt lat="45.967543" lon="10.282047"><time>2025-04-28T07:32:52.000Z</time><ele>1066.6</ele></trkpt><trkpt lat="45.967543" lon="10.282044"><time>2025-04-28T07:32:53.000Z</time><ele>1066.8</ele></trkpt><trkpt lat="45.967543" lon="10.282044"><time>2025-04-28T07:32:54.000Z</time><ele>1066.8</ele></trkpt><trkpt lat="45.967546" lon="10.282051"><time>2025-04-28T07:32:55.000Z</time><ele>1067</ele></trkpt><trkpt lat="45.967555" lon="10.282058"><time>2025-04-28T07:32:56.000Z</time><ele>1067</ele></trkpt><trkpt lat="45.967557" lon="10.282062"><time>2025-04-28T07:32:57.000Z</time><ele>1067.2</ele></trkpt><trkpt lat="45.967574" lon="10.282072"><time>2025-04-28T07:32:58.000Z</time><ele>1067.4</ele></trkpt><trkpt lat="45.967578" lon="10.282085"><time>2025-04-28T07:32:59.000Z</time><ele>1067.6</ele></trkpt><trkpt lat="45.96758" lon="10.282089"><time>2025-04-28T07:33:00.000Z</time><ele>1067.8</ele></trkpt><trkpt lat="45.967574" lon="10.282093"><time>2025-04-28T07:33:01.000Z</time><ele>1068</ele></trkpt><trkpt lat="45.967577" lon="10.282111"><time>2025-04-28T07:33:02.000Z</time><ele>1068.2</ele></trkpt><trkpt lat="45.967598" lon="10.28214"><time>2025-04-28T07:33:03.000Z</time><ele>1068.4</ele></trkpt><trkpt lat="45.967601" lon="10.282144"><time>2025-04-28T07:33:04.000Z</time><ele>1068.6</ele></trkpt><trkpt lat="45.967606" lon="10.282145"><time>2025-04-28T07:33:05.000Z</time><ele>1068.8</ele></trkpt><trkpt lat="45.967609" lon="10.282151"><time>2025-04-28T07:33:06.000Z</time><ele>1069</ele></trkpt><trkpt lat="45.967614" lon="10.282151"><time>2025-04-28T07:33:07.000Z</time><ele>1069</ele></trkpt><trkpt lat="45.967614" lon="10.28215"><time>2025-04-28T07:33:08.000Z</time><ele>1069.4</ele></trkpt><trkpt lat="45.967613" lon="10.28215"><time>2025-04-28T07:33:09.000Z</time><ele>1069.6</ele></trkpt><trkpt lat="45.96761" lon="10.28216"><time>2025-04-28T07:33:10.000Z</time><ele>1069.8</ele></trkpt><trkpt lat="45.967614" lon="10.282177"><time>2025-04-28T07:33:11.000Z</time><ele>1069.8</ele></trkpt><trkpt lat="45.967616" lon="10.282198"><time>2025-04-28T07:33:12.000Z</time><ele>1070</ele></trkpt><trkpt lat="45.967623" lon="10.282209"><time>2025-04-28T07:33:13.000Z</time><ele>1070.2</ele></trkpt><trkpt lat="45.967629" lon="10.282221"><time>2025-04-28T07:33:14.000Z</time><ele>1070.4</ele></trkpt><trkpt lat="45.967629" lon="10.282225"><time>2025-04-28T07:33:15.000Z</time><ele>1070.6</ele></trkpt><trkpt lat="45.96763" lon="10.282232"><time>2025-04-28T07:33:16.000Z</time><ele>1070.6</ele></trkpt><trkpt lat="45.967634" lon="10.282245"><time>2025-04-28T07:33:17.000Z</time><ele>1070.8</ele></trkpt><trkpt lat="45.96764" lon="10.282258"><time>2025-04-28T07:33:18.000Z</time><ele>1071</ele></trkpt><trkpt lat="45.967649" lon="10.282265"><time>2025-04-28T07:33:19.000Z</time><ele>1071</ele></trkpt><trkpt lat="45.967656" lon="10.282263"><time>2025-04-28T07:33:20.000Z</time><ele>1071.2</ele></trkpt><trkpt lat="45.967673" lon="10.282261"><time>2025-04-28T07:33:21.000Z</time><ele>1071.2</ele></trkpt><trkpt lat="45.9677" lon="10.282261"><time>2025-04-28T07:33:22.000Z</time><ele>1071.6</ele></trkpt><trkpt lat="45.967718" lon="10.282263"><time>2025-04-28T07:33:23.000Z</time><ele>1071.6</ele></trkpt><trkpt lat="45.96773" lon="10.282266"><time>2025-04-28T07:33:24.000Z</time><ele>1071.8</ele></trkpt><trkpt lat="45.967743" lon="10.282276"><time>2025-04-28T07:33:25.000Z</time><ele>1072</ele></trkpt><trkpt lat="45.967763" lon="10.282277"><time>2025-04-28T07:33:26.000Z</time><ele>1072.2</ele></trkpt><trkpt lat="45.967767" lon="10.282271"><time>2025-04-28T07:33:27.000Z</time><ele>1072.4</ele></trkpt><trkpt lat="45.96777" lon="10.282276"><time>2025-04-28T07:33:28.000Z</time><ele>1072.6</ele></trkpt><trkpt lat="45.967772" lon="10.282289"><time>2025-04-28T07:33:29.000Z</time><ele>1072.6</ele></trkpt><trkpt lat="45.967771" lon="10.282292"><time>2025-04-28T07:33:30.000Z</time><ele>1072.8</ele></trkpt><trkpt lat="45.96777" lon="10.282295"><time>2025-04-28T07:33:31.000Z</time><ele>1072.8</ele></trkpt><trkpt lat="45.967769" lon="10.282294"><time>2025-04-28T07:33:32.000Z</time><ele>1072.8</ele></trkpt><trkpt lat="45.967772" lon="10.282292"><time>2025-04-28T07:33:33.000Z</time><ele>1073.2</ele></trkpt><trkpt lat="45.967774" lon="10.282295"><time>2025-04-28T07:33:34.000Z</time><ele>1073.4</ele></trkpt><trkpt lat="45.967776" lon="10.282299"><time>2025-04-28T07:33:35.000Z</time><ele>1073.4</ele></trkpt><trkpt lat="45.967779" lon="10.282303"><time>2025-04-28T07:33:36.000Z</time><ele>1073.6</ele></trkpt><trkpt lat="45.967792" lon="10.282311"><time>2025-04-28T07:33:37.000Z</time><ele>1073.8</ele></trkpt><trkpt lat="45.967804" lon="10.282316"><time>2025-04-28T07:33:38.000Z</time><ele>1074</ele></trkpt><trkpt lat="45.967817" lon="10.282321"><time>2025-04-28T07:33:39.000Z</time><ele>1074</ele></trkpt><trkpt lat="45.967837" lon="10.28232"><time>2025-04-28T07:33:40.000Z</time><ele>1074</ele></trkpt><trkpt lat="45.967853" lon="10.282316"><time>2025-04-28T07:33:41.000Z</time><ele>1074.2</ele></trkpt><trkpt lat="45.96786" lon="10.282317"><time>2025-04-28T07:33:42.000Z</time><ele>1074.2</ele></trkpt><trkpt lat="45.967861" lon="10.282316"><time>2025-04-28T07:33:43.000Z</time><ele>1074.4</ele></trkpt><trkpt lat="45.967851" lon="10.282309"><time>2025-04-28T07:33:44.000Z</time><ele>1074.6</ele></trkpt><trkpt lat="45.967846" lon="10.282302"><time>2025-04-28T07:33:45.000Z</time><ele>1074.8</ele></trkpt><trkpt lat="45.967849" lon="10.282297"><time>2025-04-28T07:33:46.000Z</time><ele>1075</ele></trkpt><trkpt lat="45.967847" lon="10.282295"><time>2025-04-28T07:33:47.000Z</time><ele>1075.2</ele></trkpt><trkpt lat="45.967849" lon="10.282297"><time>2025-04-28T07:33:48.000Z</time><ele>1075.2</ele></trkpt><trkpt lat="45.967857" lon="10.282301"><time>2025-04-28T07:33:49.000Z</time><ele>1075.4</ele></trkpt><trkpt lat="45.96786" lon="10.282304"><time>2025-04-28T07:33:50.000Z</time><ele>1075.6</ele></trkpt><trkpt lat="45.967867" lon="10.282313"><time>2025-04-28T07:33:51.000Z</time><ele>1075.8</ele></trkpt><trkpt lat="45.967861" lon="10.282312"><time>2025-04-28T07:33:52.000Z</time><ele>1075.8</ele></trkpt><trkpt lat="45.967844" lon="10.282296"><time>2025-04-28T07:33:53.000Z</time><ele>1076</ele></trkpt><trkpt lat="45.967826" lon="10.282295"><time>2025-04-28T07:33:54.000Z</time><ele>1076.2</ele></trkpt><trkpt lat="45.967805" lon="10.282305"><time>2025-04-28T07:33:55.000Z</time><ele>1076.4</ele></trkpt><trkpt lat="45.967797" lon="10.282308"><time>2025-04-28T07:33:56.000Z</time><ele>1076.4</ele></trkpt><trkpt lat="45.967813" lon="10.282321"><time>2025-04-28T07:33:57.000Z</time><ele>1076.8</ele></trkpt><trkpt lat="45.967838" lon="10.282322"><time>2025-04-28T07:33:58.000Z</time><ele>1077</ele></trkpt><trkpt lat="45.967837" lon="10.282325"><time>2025-04-28T07:33:59.000Z</time><ele>1077.2</ele></trkpt><trkpt lat="45.967835" lon="10.282326"><time>2025-04-28T07:34:00.000Z</time><ele>1077.4</ele></trkpt><trkpt lat="45.967844" lon="10.282329"><time>2025-04-28T07:34:01.000Z</time><ele>1077.4</ele></trkpt><trkpt lat="45.967855" lon="10.282336"><time>2025-04-28T07:34:02.000Z</time><ele>1077.6</ele></trkpt><trkpt lat="45.967858" lon="10.282342"><time>2025-04-28T07:34:03.000Z</time><ele>1077.6</ele></trkpt><trkpt lat="45.967865" lon="10.282343"><time>2025-04-28T07:34:04.000Z</time><ele>1077.8</ele></trkpt><trkpt lat="45.967867" lon="10.282345"><time>2025-04-28T07:34:05.000Z</time><ele>1078</ele></trkpt><trkpt lat="45.967885" lon="10.282359"><time>2025-04-28T07:34:06.000Z</time><ele>1078.2</ele></trkpt><trkpt lat="45.967891" lon="10.282361"><time>2025-04-28T07:34:07.000Z</time><ele>1078.4</ele></trkpt><trkpt lat="45.967893" lon="10.282365"><time>2025-04-28T07:34:08.000Z</time><ele>1078.4</ele></trkpt><trkpt lat="45.967897" lon="10.282368"><time>2025-04-28T07:34:09.000Z</time><ele>1078.6</ele></trkpt><trkpt lat="45.967905" lon="10.282375"><time>2025-04-28T07:34:10.000Z</time><ele>1078.8</ele></trkpt><trkpt lat="45.967906" lon="10.282379"><time>2025-04-28T07:34:11.000Z</time><ele>1078.8</ele></trkpt><trkpt lat="45.967904" lon="10.282378"><time>2025-04-28T07:34:12.000Z</time><ele>1079</ele></trkpt><trkpt lat="45.967906" lon="10.28237"><time>2025-04-28T07:34:13.000Z</time><ele>1079.2</ele></trkpt><trkpt lat="45.967905" lon="10.282368"><time>2025-04-28T07:34:14.000Z</time><ele>1079.4</ele></trkpt><trkpt lat="45.967911" lon="10.282372"><time>2025-04-28T07:34:15.000Z</time><ele>1079.6</ele></trkpt><trkpt lat="45.967913" lon="10.282374"><time>2025-04-28T07:34:16.000Z</time><ele>1079.6</ele></trkpt><trkpt lat="45.967905" lon="10.282379"><time>2025-04-28T07:34:17.000Z</time><ele>1079.8</ele></trkpt><trkpt lat="45.967902" lon="10.28238"><time>2025-04-28T07:34:18.000Z</time><ele>1080</ele></trkpt><trkpt lat="45.967895" lon="10.282371"><time>2025-04-28T07:34:19.000Z</time><ele>1080.2</ele></trkpt><trkpt lat="45.967908" lon="10.282371"><time>2025-04-28T07:34:20.000Z</time><ele>1080.4</ele></trkpt><trkpt lat="45.96792" lon="10.282382"><time>2025-04-28T07:34:21.000Z</time><ele>1080.6</ele></trkpt><trkpt lat="45.967923" lon="10.282377"><time>2025-04-28T07:34:22.000Z</time><ele>1080.6</ele></trkpt><trkpt lat="45.967925" lon="10.282378"><time>2025-04-28T07:34:23.000Z</time><ele>1080.6</ele></trkpt><trkpt lat="45.967927" lon="10.282381"><time>2025-04-28T07:34:24.000Z</time><ele>1080.8</ele></trkpt><trkpt lat="45.967946" lon="10.282386"><time>2025-04-28T07:34:25.000Z</time><ele>1081</ele></trkpt><trkpt lat="45.967949" lon="10.282384"><time>2025-04-28T07:34:26.000Z</time><ele>1081</ele></trkpt><trkpt lat="45.967965" lon="10.282386"><time>2025-04-28T07:34:27.000Z</time><ele>1081.2</ele></trkpt><trkpt lat="45.967981" lon="10.28239"><time>2025-04-28T07:34:28.000Z</time><ele>1081.4</ele></trkpt><trkpt lat="45.967995" lon="10.282393"><time>2025-04-28T07:34:29.000Z</time><ele>1081.6</ele></trkpt><trkpt lat="45.967995" lon="10.282392"><time>2025-04-28T07:34:30.000Z</time><ele>1081.8</ele></trkpt><trkpt lat="45.967993" lon="10.282385"><time>2025-04-28T07:34:31.000Z</time><ele>1082</ele></trkpt><trkpt lat="45.967994" lon="10.282384"><time>2025-04-28T07:34:32.000Z</time><ele>1082</ele></trkpt><trkpt lat="45.968005" lon="10.282388"><time>2025-04-28T07:34:33.000Z</time><ele>1082</ele></trkpt><trkpt lat="45.968005" lon="10.282393"><time>2025-04-28T07:34:34.000Z</time><ele>1082.2</ele></trkpt><trkpt lat="45.968007" lon="10.282394"><time>2025-04-28T07:34:35.000Z</time><ele>1082.4</ele></trkpt><trkpt lat="45.968006" lon="10.282393"><time>2025-04-28T07:34:36.000Z</time><ele>1082.8</ele></trkpt><trkpt lat="45.968016" lon="10.282399"><time>2025-04-28T07:34:37.000Z</time><ele>1083</ele></trkpt><trkpt lat="45.968027" lon="10.282405"><time>2025-04-28T07:34:38.000Z</time><ele>1083</ele></trkpt><trkpt lat="45.96803" lon="10.28241"><time>2025-04-28T07:34:39.000Z</time><ele>1083.2</ele></trkpt><trkpt lat="45.968051" lon="10.282425"><time>2025-04-28T07:34:40.000Z</time><ele>1083.4</ele></trkpt><trkpt lat="45.968053" lon="10.28243"><time>2025-04-28T07:34:41.000Z</time><ele>1083.4</ele></trkpt><trkpt lat="45.968054" lon="10.282433"><time>2025-04-28T07:34:42.000Z</time><ele>1083.4</ele></trkpt><trkpt lat="45.968058" lon="10.282436"><time>2025-04-28T07:34:43.000Z</time><ele>1083.6</ele></trkpt><trkpt lat="45.968059" lon="10.282431"><time>2025-04-28T07:34:44.000Z</time><ele>1083.8</ele></trkpt><trkpt lat="45.968063" lon="10.282439"><time>2025-04-28T07:34:45.000Z</time><ele>1083.8</ele></trkpt><trkpt lat="45.968083" lon="10.282445"><time>2025-04-28T07:34:46.000Z</time><ele>1084</ele></trkpt><trkpt lat="45.968091" lon="10.282462"><time>2025-04-28T07:34:47.000Z</time><ele>1084.2</ele></trkpt><trkpt lat="45.968116" lon="10.282477"><time>2025-04-28T07:34:48.000Z</time><ele>1084.4</ele></trkpt><trkpt lat="45.968115" lon="10.282479"><time>2025-04-28T07:34:49.000Z</time><ele>1084.4</ele></trkpt><trkpt lat="45.968116" lon="10.282498"><time>2025-04-28T07:34:50.000Z</time><ele>1084.6</ele></trkpt><trkpt lat="45.968132" lon="10.282519"><time>2025-04-28T07:34:51.000Z</time><ele>1084.6</ele></trkpt><trkpt lat="45.968136" lon="10.282537"><time>2025-04-28T07:34:52.000Z</time><ele>1084.6</ele></trkpt><trkpt lat="45.968138" lon="10.282552"><time>2025-04-28T07:34:53.000Z</time><ele>1084.8</ele></trkpt><trkpt lat="45.968149" lon="10.282561"><time>2025-04-28T07:34:54.000Z</time><ele>1085</ele></trkpt><trkpt lat="45.968147" lon="10.282562"><time>2025-04-28T07:34:55.000Z</time><ele>1085</ele></trkpt><trkpt lat="45.968162" lon="10.28257"><time>2025-04-28T07:34:56.000Z</time><ele>1085.2</ele></trkpt><trkpt lat="45.968161" lon="10.282572"><time>2025-04-28T07:34:57.000Z</time><ele>1085.2</ele></trkpt><trkpt lat="45.968162" lon="10.282576"><time>2025-04-28T07:34:58.000Z</time><ele>1085.4</ele></trkpt><trkpt lat="45.968186" lon="10.282595"><time>2025-04-28T07:34:59.000Z</time><ele>1085.4</ele></trkpt><trkpt lat="45.968217" lon="10.28261"><time>2025-04-28T07:35:00.000Z</time><ele>1085.8</ele></trkpt><trkpt lat="45.968238" lon="10.28262"><time>2025-04-28T07:35:01.000Z</time><ele>1086</ele></trkpt><trkpt lat="45.968238" lon="10.282629"><time>2025-04-28T07:35:02.000Z</time><ele>1086.2</ele></trkpt><trkpt lat="45.968238" lon="10.282629"><time>2025-04-28T07:35:03.000Z</time><ele>1086.4</ele></trkpt><trkpt lat="45.968246" lon="10.28264"><time>2025-04-28T07:35:04.000Z</time><ele>1086.4</ele></trkpt><trkpt lat="45.968254" lon="10.282648"><time>2025-04-28T07:35:05.000Z</time><ele>1086.6</ele></trkpt><trkpt lat="45.968262" lon="10.282653"><time>2025-04-28T07:35:06.000Z</time><ele>1086.6</ele></trkpt><trkpt lat="45.968263" lon="10.282655"><time>2025-04-28T07:35:07.000Z</time><ele>1086.6</ele></trkpt><trkpt lat="45.968265" lon="10.282655"><time>2025-04-28T07:35:08.000Z</time><ele>1086.8</ele></trkpt><trkpt lat="45.968257" lon="10.282661"><time>2025-04-28T07:35:09.000Z</time><ele>1087</ele></trkpt><trkpt lat="45.968255" lon="10.282663"><time>2025-04-28T07:35:10.000Z</time><ele>1087</ele></trkpt><trkpt lat="45.968252" lon="10.282668"><time>2025-04-28T07:35:11.000Z</time><ele>1087.2</ele></trkpt><trkpt lat="45.968266" lon="10.282662"><time>2025-04-28T07:35:12.000Z</time><ele>1087.2</ele></trkpt><trkpt lat="45.968293" lon="10.282672"><time>2025-04-28T07:35:13.000Z</time><ele>1087.4</ele></trkpt><trkpt lat="45.968294" lon="10.282674"><time>2025-04-28T07:35:14.000Z</time><ele>1087.6</ele></trkpt><trkpt lat="45.968315" lon="10.282678"><time>2025-04-28T07:35:15.000Z</time><ele>1087.6</ele></trkpt><trkpt lat="45.968353" lon="10.282695"><time>2025-04-28T07:35:16.000Z</time><ele>1087.8</ele></trkpt><trkpt lat="45.968358" lon="10.282704"><time>2025-04-28T07:35:17.000Z</time><ele>1087.8</ele></trkpt><trkpt lat="45.968371" lon="10.282719"><time>2025-04-28T07:35:18.000Z</time><ele>1088</ele></trkpt><trkpt lat="45.968388" lon="10.282729"><time>2025-04-28T07:35:19.000Z</time><ele>1088.2</ele></trkpt><trkpt lat="45.968401" lon="10.282736"><time>2025-04-28T07:35:20.000Z</time><ele>1088.4</ele></trkpt><trkpt lat="45.968419" lon="10.282743"><time>2025-04-28T07:35:21.000Z</time><ele>1088.4</ele></trkpt><trkpt lat="45.968435" lon="10.282744"><time>2025-04-28T07:35:22.000Z</time><ele>1088.6</ele></trkpt><trkpt lat="45.968437" lon="10.282752"><time>2025-04-28T07:35:23.000Z</time><ele>1088.6</ele></trkpt><trkpt lat="45.968441" lon="10.282764"><time>2025-04-28T07:35:24.000Z</time><ele>1088.8</ele></trkpt><trkpt lat="45.968452" lon="10.28278"><time>2025-04-28T07:35:25.000Z</time><ele>1088.8</ele></trkpt><trkpt lat="45.968469" lon="10.282797"><time>2025-04-28T07:35:26.000Z</time><ele>1088.8</ele></trkpt><trkpt lat="45.968479" lon="10.28281"><time>2025-04-28T07:35:27.000Z</time><ele>1089</ele></trkpt><trkpt lat="45.968491" lon="10.282826"><time>2025-04-28T07:35:28.000Z</time><ele>1089</ele></trkpt><trkpt lat="45.968494" lon="10.28284"><time>2025-04-28T07:35:29.000Z</time><ele>1089.2</ele></trkpt><trkpt lat="45.968486" lon="10.282838"><time>2025-04-28T07:35:30.000Z</time><ele>1089.2</ele></trkpt><trkpt lat="45.968503" lon="10.282839"><time>2025-04-28T07:35:31.000Z</time><ele>1089.4</ele></trkpt><trkpt lat="45.96852" lon="10.282833"><time>2025-04-28T07:35:32.000Z</time><ele>1089.4</ele></trkpt><trkpt lat="45.968537" lon="10.282827"><time>2025-04-28T07:35:33.000Z</time><ele>1089.6</ele></trkpt><trkpt lat="45.968562" lon="10.282831"><time>2025-04-28T07:35:34.000Z</time><ele>1089.8</ele></trkpt><trkpt lat="45.968572" lon="10.282831"><time>2025-04-28T07:35:35.000Z</time><ele>1090</ele></trkpt><trkpt lat="45.968564" lon="10.282825"><time>2025-04-28T07:35:36.000Z</time><ele>1090</ele></trkpt><trkpt lat="45.968561" lon="10.282819"><time>2025-04-28T07:35:37.000Z</time><ele>1090.2</ele></trkpt><trkpt lat="45.968575" lon="10.282832"><time>2025-04-28T07:35:38.000Z</time><ele>1090.2</ele></trkpt><trkpt lat="45.968576" lon="10.282837"><time>2025-04-28T07:35:39.000Z</time><ele>1090.4</ele></trkpt><trkpt lat="45.968587" lon="10.282846"><time>2025-04-28T07:35:40.000Z</time><ele>1090.4</ele></trkpt><trkpt lat="45.968602" lon="10.282857"><time>2025-04-28T07:35:41.000Z</time><ele>1090.6</ele></trkpt><trkpt lat="45.968603" lon="10.282863"><time>2025-04-28T07:35:42.000Z</time><ele>1090.6</ele></trkpt><trkpt lat="45.968606" lon="10.282863"><time>2025-04-28T07:35:43.000Z</time><ele>1090.8</ele></trkpt><trkpt lat="45.968618" lon="10.282865"><time>2025-04-28T07:35:44.000Z</time><ele>1091</ele></trkpt><trkpt lat="45.968624" lon="10.282867"><time>2025-04-28T07:35:45.000Z</time><ele>1091.2</ele></trkpt><trkpt lat="45.968638" lon="10.282863"><time>2025-04-28T07:35:46.000Z</time><ele>1091.2</ele></trkpt><trkpt lat="45.968641" lon="10.282861"><time>2025-04-28T07:35:47.000Z</time><ele>1091.4</ele></trkpt><trkpt lat="45.968656" lon="10.282868"><time>2025-04-28T07:35:48.000Z</time><ele>1091.6</ele></trkpt><trkpt lat="45.968666" lon="10.282868"><time>2025-04-28T07:35:49.000Z</time><ele>1091.8</ele></trkpt><trkpt lat="45.968678" lon="10.282874"><time>2025-04-28T07:35:50.000Z</time><ele>1091.8</ele></trkpt><trkpt lat="45.968675" lon="10.282876"><time>2025-04-28T07:35:51.000Z</time><ele>1091.8</ele></trkpt><trkpt lat="45.968674" lon="10.282873"><time>2025-04-28T07:35:52.000Z</time><ele>1092</ele></trkpt><trkpt lat="45.968672" lon="10.282873"><time>2025-04-28T07:35:53.000Z</time><ele>1092</ele></trkpt><trkpt lat="45.968667" lon="10.282869"><time>2025-04-28T07:35:54.000Z</time><ele>1092.4</ele></trkpt><trkpt lat="45.968665" lon="10.28287"><time>2025-04-28T07:35:55.000Z</time><ele>1092.6</ele></trkpt><trkpt lat="45.968676" lon="10.28287"><time>2025-04-28T07:35:56.000Z</time><ele>1092.8</ele></trkpt><trkpt lat="45.968678" lon="10.282865"><time>2025-04-28T07:35:57.000Z</time><ele>1093</ele></trkpt><trkpt lat="45.968653" lon="10.282868"><time>2025-04-28T07:35:58.000Z</time><ele>1093</ele></trkpt><trkpt lat="45.968658" lon="10.282883"><time>2025-04-28T07:35:59.000Z</time><ele>1093.2</ele></trkpt><trkpt lat="45.968658" lon="10.282888"><time>2025-04-28T07:36:00.000Z</time><ele>1093.4</ele></trkpt><trkpt lat="45.968661" lon="10.282888"><time>2025-04-28T07:36:01.000Z</time><ele>1093.4</ele></trkpt><trkpt lat="45.968674" lon="10.282888"><time>2025-04-28T07:36:02.000Z</time><ele>1093.6</ele></trkpt><trkpt lat="45.968688" lon="10.282891"><time>2025-04-28T07:36:03.000Z</time><ele>1093.8</ele></trkpt><trkpt lat="45.968693" lon="10.282892"><time>2025-04-28T07:36:04.000Z</time><ele>1094</ele></trkpt><trkpt lat="45.968702" lon="10.282896"><time>2025-04-28T07:36:05.000Z</time><ele>1094</ele></trkpt><trkpt lat="45.968722" lon="10.282901"><time>2025-04-28T07:36:06.000Z</time><ele>1094.2</ele></trkpt><trkpt lat="45.968725" lon="10.2829"><time>2025-04-28T07:36:07.000Z</time><ele>1094.4</ele></trkpt><trkpt lat="45.968724" lon="10.282899"><time>2025-04-28T07:36:08.000Z</time><ele>1094.6</ele></trkpt><trkpt lat="45.968729" lon="10.282896"><time>2025-04-28T07:36:09.000Z</time><ele>1094.8</ele></trkpt><trkpt lat="45.968723" lon="10.282892"><time>2025-04-28T07:36:10.000Z</time><ele>1095</ele></trkpt><trkpt lat="45.968722" lon="10.282892"><time>2025-04-28T07:36:11.000Z</time><ele>1095</ele></trkpt><trkpt lat="45.968714" lon="10.282884"><time>2025-04-28T07:36:12.000Z</time><ele>1095.2</ele></trkpt><trkpt lat="45.96871" lon="10.282879"><time>2025-04-28T07:36:13.000Z</time><ele>1095.4</ele></trkpt><trkpt lat="45.968691" lon="10.282887"><time>2025-04-28T07:36:14.000Z</time><ele>1095.8</ele></trkpt><trkpt lat="45.968699" lon="10.282893"><time>2025-04-28T07:36:15.000Z</time><ele>1095.8</ele></trkpt><trkpt lat="45.968701" lon="10.282894"><time>2025-04-28T07:36:16.000Z</time><ele>1096</ele></trkpt><trkpt lat="45.968699" lon="10.282895"><time>2025-04-28T07:36:17.000Z</time><ele>1096</ele></trkpt><trkpt lat="45.9687" lon="10.282898"><time>2025-04-28T07:36:18.000Z</time><ele>1096.2</ele></trkpt><trkpt lat="45.968696" lon="10.282896"><time>2025-04-28T07:36:19.000Z</time><ele>1096.2</ele></trkpt><trkpt lat="45.96869" lon="10.282891"><time>2025-04-28T07:36:20.000Z</time><ele>1096.4</ele></trkpt><trkpt lat="45.968699" lon="10.282882"><time>2025-04-28T07:36:21.000Z</time><ele>1096.4</ele></trkpt><trkpt lat="45.968707" lon="10.282875"><time>2025-04-28T07:36:22.000Z</time><ele>1096.6</ele></trkpt><trkpt lat="45.968729" lon="10.282877"><time>2025-04-28T07:36:23.000Z</time><ele>1096.8</ele></trkpt><trkpt lat="45.968738" lon="10.282873"><time>2025-04-28T07:36:24.000Z</time><ele>1096.8</ele></trkpt><trkpt lat="45.96874" lon="10.282877"><time>2025-04-28T07:36:25.000Z</time><ele>1097</ele></trkpt><trkpt lat="45.968732" lon="10.282875"><time>2025-04-28T07:36:26.000Z</time><ele>1097.2</ele></trkpt><trkpt lat="45.968729" lon="10.282885"><time>2025-04-28T07:36:27.000Z</time><ele>1097.4</ele></trkpt><trkpt lat="45.968716" lon="10.282886"><time>2025-04-28T07:36:28.000Z</time><ele>1097.6</ele></trkpt><trkpt lat="45.968722" lon="10.282896"><time>2025-04-28T07:36:29.000Z</time><ele>1097.8</ele></trkpt><trkpt lat="45.968737" lon="10.282905"><time>2025-04-28T07:36:30.000Z</time><ele>1098</ele></trkpt><trkpt lat="45.968741" lon="10.282908"><time>2025-04-28T07:36:31.000Z</time><ele>1098.2</ele></trkpt><trkpt lat="45.968759" lon="10.282908"><time>2025-04-28T07:36:32.000Z</time><ele>1098.4</ele></trkpt><trkpt lat="45.968762" lon="10.282908"><time>2025-04-28T07:36:33.000Z</time><ele>1098.6</ele></trkpt><trkpt lat="45.968774" lon="10.282912"><time>2025-04-28T07:36:34.000Z</time><ele>1098.8</ele></trkpt><trkpt lat="45.968777" lon="10.282914"><time>2025-04-28T07:36:35.000Z</time><ele>1099</ele></trkpt><trkpt lat="45.968774" lon="10.282914"><time>2025-04-28T07:36:36.000Z</time><ele>1099.2</ele></trkpt><trkpt lat="45.968783" lon="10.282914"><time>2025-04-28T07:36:37.000Z</time><ele>1099.4</ele></trkpt><trkpt lat="45.968794" lon="10.28291"><time>2025-04-28T07:36:38.000Z</time><ele>1099.4</ele></trkpt><trkpt lat="45.968804" lon="10.282909"><time>2025-04-28T07:36:39.000Z</time><ele>1099.6</ele></trkpt><trkpt lat="45.968809" lon="10.282915"><time>2025-04-28T07:36:40.000Z</time><ele>1099.8</ele></trkpt><trkpt lat="45.968799" lon="10.282913"><time>2025-04-28T07:36:41.000Z</time><ele>1099.8</ele></trkpt><trkpt lat="45.968796" lon="10.282913"><time>2025-04-28T07:36:42.000Z</time><ele>1100</ele></trkpt><trkpt lat="45.968794" lon="10.282913"><time>2025-04-28T07:36:43.000Z</time><ele>1100</ele></trkpt><trkpt lat="45.96879" lon="10.282913"><time>2025-04-28T07:36:44.000Z</time><ele>1100</ele></trkpt><trkpt lat="45.968782" lon="10.282906"><time>2025-04-28T07:36:45.000Z</time><ele>1100</ele></trkpt><trkpt lat="45.968781" lon="10.282906"><time>2025-04-28T07:36:46.000Z</time><ele>1100</ele></trkpt><trkpt lat="45.968778" lon="10.282897"><time>2025-04-28T07:36:47.000Z</time><ele>1100</ele></trkpt><trkpt lat="45.968785" lon="10.282885"><time>2025-04-28T07:36:48.000Z</time><ele>1100</ele></trkpt><trkpt lat="45.968795" lon="10.28288"><time>2025-04-28T07:36:49.000Z</time><ele>1100</ele></trkpt><trkpt lat="45.968803" lon="10.282881"><time>2025-04-28T07:36:50.000Z</time><ele>1100</ele></trkpt><trkpt lat="45.968804" lon="10.282881"><time>2025-04-28T07:36:51.000Z</time><ele>1100</ele></trkpt><trkpt lat="45.968811" lon="10.282877"><time>2025-04-28T07:36:52.000Z</time><ele>1100</ele></trkpt><trkpt lat="45.968807" lon="10.282873"><time>2025-04-28T07:36:53.000Z</time><ele>1100.2</ele></trkpt><trkpt lat="45.968804" lon="10.282869"><time>2025-04-28T07:36:54.000Z</time><ele>1100.2</ele></trkpt><trkpt lat="45.968802" lon="10.282866"><time>2025-04-28T07:36:55.000Z</time><ele>1100.4</ele></trkpt><trkpt lat="45.968801" lon="10.282869"><time>2025-04-28T07:36:56.000Z</time><ele>1100.6</ele></trkpt><trkpt lat="45.968811" lon="10.282872"><time>2025-04-28T07:36:57.000Z</time><ele>1100.8</ele></trkpt><trkpt lat="45.968818" lon="10.282879"><time>2025-04-28T07:36:58.000Z</time><ele>1101</ele></trkpt><trkpt lat="45.968831" lon="10.282887"><time>2025-04-28T07:36:59.000Z</time><ele>1101.2</ele></trkpt><trkpt lat="45.968833" lon="10.282886"><time>2025-04-28T07:37:00.000Z</time><ele>1101.4</ele></trkpt><trkpt lat="45.968852" lon="10.28289"><time>2025-04-28T07:37:01.000Z</time><ele>1101.4</ele></trkpt><trkpt lat="45.968879" lon="10.282897"><time>2025-04-28T07:37:02.000Z</time><ele>1101.6</ele></trkpt><trkpt lat="45.968884" lon="10.282899"><time>2025-04-28T07:37:03.000Z</time><ele>1101.8</ele></trkpt><trkpt lat="45.968884" lon="10.2829"><time>2025-04-28T07:37:04.000Z</time><ele>1102</ele></trkpt><trkpt lat="45.968899" lon="10.282906"><time>2025-04-28T07:37:05.000Z</time><ele>1102</ele></trkpt><trkpt lat="45.968901" lon="10.282907"><time>2025-04-28T07:37:06.000Z</time><ele>1102.2</ele></trkpt><trkpt lat="45.968917" lon="10.282913"><time>2025-04-28T07:37:07.000Z</time><ele>1102.4</ele></trkpt><trkpt lat="45.968933" lon="10.282924"><time>2025-04-28T07:37:08.000Z</time><ele>1102.6</ele></trkpt><trkpt lat="45.96896" lon="10.282941"><time>2025-04-28T07:37:09.000Z</time><ele>1102.8</ele></trkpt><trkpt lat="45.968983" lon="10.28295"><time>2025-04-28T07:37:10.000Z</time><ele>1102.8</ele></trkpt><trkpt lat="45.96899" lon="10.282947"><time>2025-04-28T07:37:11.000Z</time><ele>1103</ele></trkpt><trkpt lat="45.968994" lon="10.282946"><time>2025-04-28T07:37:12.000Z</time><ele>1103.2</ele></trkpt><trkpt lat="45.968997" lon="10.28295"><time>2025-04-28T07:37:13.000Z</time><ele>1103.4</ele></trkpt><trkpt lat="45.969006" lon="10.282954"><time>2025-04-28T07:37:14.000Z</time><ele>1103.6</ele></trkpt><trkpt lat="45.96901" lon="10.282954"><time>2025-04-28T07:37:15.000Z</time><ele>1103.8</ele></trkpt><trkpt lat="45.969012" lon="10.282956"><time>2025-04-28T07:37:16.000Z</time><ele>1104</ele></trkpt><trkpt lat="45.969014" lon="10.282959"><time>2025-04-28T07:37:17.000Z</time><ele>1104</ele></trkpt><trkpt lat="45.969031" lon="10.282965"><time>2025-04-28T07:37:18.000Z</time><ele>1104.2</ele></trkpt><trkpt lat="45.969039" lon="10.282973"><time>2025-04-28T07:37:19.000Z</time><ele>1104.2</ele></trkpt><trkpt lat="45.969054" lon="10.282987"><time>2025-04-28T07:37:20.000Z</time><ele>1104.6</ele></trkpt><trkpt lat="45.969071" lon="10.283002"><time>2025-04-28T07:37:21.000Z</time><ele>1104.8</ele></trkpt><trkpt lat="45.969081" lon="10.283005"><time>2025-04-28T07:37:22.000Z</time><ele>1105</ele></trkpt><trkpt lat="45.969095" lon="10.283008"><time>2025-04-28T07:37:23.000Z</time><ele>1105.2</ele></trkpt><trkpt lat="45.969112" lon="10.283015"><time>2025-04-28T07:37:24.000Z</time><ele>1105.4</ele></trkpt><trkpt lat="45.969108" lon="10.28302"><time>2025-04-28T07:37:25.000Z</time><ele>1105.4</ele></trkpt><trkpt lat="45.969105" lon="10.283026"><time>2025-04-28T07:37:26.000Z</time><ele>1105.6</ele></trkpt><trkpt lat="45.969114" lon="10.283035"><time>2025-04-28T07:37:27.000Z</time><ele>1105.8</ele></trkpt><trkpt lat="45.969134" lon="10.283055"><time>2025-04-28T07:37:28.000Z</time><ele>1106</ele></trkpt><trkpt lat="45.969154" lon="10.283081"><time>2025-04-28T07:37:29.000Z</time><ele>1106</ele></trkpt><trkpt lat="45.969169" lon="10.283093"><time>2025-04-28T07:37:30.000Z</time><ele>1106.2</ele></trkpt><trkpt lat="45.969187" lon="10.283107"><time>2025-04-28T07:37:31.000Z</time><ele>1106.2</ele></trkpt><trkpt lat="45.969207" lon="10.283128"><time>2025-04-28T07:37:32.000Z</time><ele>1106.4</ele></trkpt><trkpt lat="45.969207" lon="10.283141"><time>2025-04-28T07:37:33.000Z</time><ele>1106.6</ele></trkpt><trkpt lat="45.969205" lon="10.283142"><time>2025-04-28T07:37:34.000Z</time><ele>1106.8</ele></trkpt><trkpt lat="45.969216" lon="10.283187"><time>2025-04-28T07:37:35.000Z</time><ele>1107</ele></trkpt><trkpt lat="45.969199" lon="10.28322"><time>2025-04-28T07:37:36.000Z</time><ele>1107</ele></trkpt><trkpt lat="45.969184" lon="10.283223"><time>2025-04-28T07:37:37.000Z</time><ele>1107.4</ele></trkpt><trkpt lat="45.969184" lon="10.283225"><time>2025-04-28T07:37:38.000Z</time><ele>1107.6</ele></trkpt><trkpt lat="45.969186" lon="10.283224"><time>2025-04-28T07:37:39.000Z</time><ele>1107.6</ele></trkpt><trkpt lat="45.969184" lon="10.283224"><time>2025-04-28T07:37:40.000Z</time><ele>1107.8</ele></trkpt><trkpt lat="45.969185" lon="10.283239"><time>2025-04-28T07:37:41.000Z</time><ele>1107.8</ele></trkpt><trkpt lat="45.96918" lon="10.283236"><time>2025-04-28T07:37:42.000Z</time><ele>1107.8</ele></trkpt><trkpt lat="45.969188" lon="10.283248"><time>2025-04-28T07:37:43.000Z</time><ele>1107.8</ele></trkpt><trkpt lat="45.969189" lon="10.28325"><time>2025-04-28T07:37:44.000Z</time><ele>1107.8</ele></trkpt><trkpt lat="45.969188" lon="10.283252"><time>2025-04-28T07:37:45.000Z</time><ele>1108</ele></trkpt><trkpt lat="45.969174" lon="10.283256"><time>2025-04-28T07:37:46.000Z</time><ele>1108</ele></trkpt><trkpt lat="45.969181" lon="10.283263"><time>2025-04-28T07:37:47.000Z</time><ele>1108</ele></trkpt><trkpt lat="45.969178" lon="10.283262"><time>2025-04-28T07:37:48.000Z</time><ele>1108.2</ele></trkpt><trkpt lat="45.969174" lon="10.283256"><time>2025-04-28T07:37:49.000Z</time><ele>1108.4</ele></trkpt><trkpt lat="45.969175" lon="10.283249"><time>2025-04-28T07:37:50.000Z</time><ele>1108.6</ele></trkpt><trkpt lat="45.969183" lon="10.283242"><time>2025-04-28T07:37:51.000Z</time><ele>1108.6</ele></trkpt><trkpt lat="45.969189" lon="10.283235"><time>2025-04-28T07:37:52.000Z</time><ele>1108.8</ele></trkpt><trkpt lat="45.969197" lon="10.283229"><time>2025-04-28T07:37:53.000Z</time><ele>1108.8</ele></trkpt><trkpt lat="45.969191" lon="10.283223"><time>2025-04-28T07:37:54.000Z</time><ele>1109</ele></trkpt><trkpt lat="45.969183" lon="10.283219"><time>2025-04-28T07:37:55.000Z</time><ele>1109.2</ele></trkpt><trkpt lat="45.969173" lon="10.283215"><time>2025-04-28T07:37:56.000Z</time><ele>1109.4</ele></trkpt><trkpt lat="45.969178" lon="10.283209"><time>2025-04-28T07:37:57.000Z</time><ele>1109.4</ele></trkpt><trkpt lat="45.96917" lon="10.283197"><time>2025-04-28T07:37:58.000Z</time><ele>1109.6</ele></trkpt><trkpt lat="45.969178" lon="10.283193"><time>2025-04-28T07:37:59.000Z</time><ele>1109.8</ele></trkpt><trkpt lat="45.969178" lon="10.283192"><time>2025-04-28T07:38:00.000Z</time><ele>1110</ele></trkpt><trkpt lat="45.969179" lon="10.283195"><time>2025-04-28T07:38:01.000Z</time><ele>1110.2</ele></trkpt><trkpt lat="45.969175" lon="10.283195"><time>2025-04-28T07:38:02.000Z</time><ele>1110.4</ele></trkpt><trkpt lat="45.96918" lon="10.283202"><time>2025-04-28T07:38:03.000Z</time><ele>1110.6</ele></trkpt><trkpt lat="45.969198" lon="10.28321"><time>2025-04-28T07:38:04.000Z</time><ele>1110.8</ele></trkpt><trkpt lat="45.969211" lon="10.28321"><time>2025-04-28T07:38:05.000Z</time><ele>1111</ele></trkpt><trkpt lat="45.969208" lon="10.28321"><time>2025-04-28T07:38:06.000Z</time><ele>1111.2</ele></trkpt><trkpt lat="45.969232" lon="10.283201"><time>2025-04-28T07:38:07.000Z</time><ele>1111.4</ele></trkpt><trkpt lat="45.969252" lon="10.283191"><time>2025-04-28T07:38:08.000Z</time><ele>1111.6</ele></trkpt><trkpt lat="45.969256" lon="10.283191"><time>2025-04-28T07:38:09.000Z</time><ele>1112</ele></trkpt><trkpt lat="45.969255" lon="10.28319"><time>2025-04-28T07:38:10.000Z</time><ele>1112.2</ele></trkpt><trkpt lat="45.969255" lon="10.28319"><time>2025-04-28T07:38:11.000Z</time><ele>1112.4</ele></trkpt><trkpt lat="45.969255" lon="10.28319"><time>2025-04-28T07:38:12.000Z</time><ele>1112.4</ele></trkpt><trkpt lat="45.969255" lon="10.28319"><time>2025-04-28T07:38:13.000Z</time><ele>1112.6</ele></trkpt><trkpt lat="45.969257" lon="10.28319"><time>2025-04-28T07:38:14.000Z</time><ele>1112.6</ele></trkpt><trkpt lat="45.969271" lon="10.283195"><time>2025-04-28T07:38:15.000Z</time><ele>1112.8</ele></trkpt><trkpt lat="45.969278" lon="10.283194"><time>2025-04-28T07:38:16.000Z</time><ele>1112.8</ele></trkpt><trkpt lat="45.969277" lon="10.283192"><time>2025-04-28T07:38:17.000Z</time><ele>1113</ele></trkpt><trkpt lat="45.969279" lon="10.283193"><time>2025-04-28T07:38:18.000Z</time><ele>1113.2</ele></trkpt><trkpt lat="45.969279" lon="10.2832"><time>2025-04-28T07:38:19.000Z</time><ele>1113.4</ele></trkpt><trkpt lat="45.96928" lon="10.28321"><time>2025-04-28T07:38:20.000Z</time><ele>1113.6</ele></trkpt><trkpt lat="45.969285" lon="10.283215"><time>2025-04-28T07:38:21.000Z</time><ele>1114</ele></trkpt><trkpt lat="45.969273" lon="10.283215"><time>2025-04-28T07:38:22.000Z</time><ele>1114.2</ele></trkpt><trkpt lat="45.969275" lon="10.283219"><time>2025-04-28T07:38:23.000Z</time><ele>1114.2</ele></trkpt><trkpt lat="45.969256" lon="10.283224"><time>2025-04-28T07:38:24.000Z</time><ele>1114.4</ele></trkpt><trkpt lat="45.969241" lon="10.283219"><time>2025-04-28T07:38:25.000Z</time><ele>1114.4</ele></trkpt><trkpt lat="45.96923" lon="10.283216"><time>2025-04-28T07:38:26.000Z</time><ele>1114.6</ele></trkpt><trkpt lat="45.969226" lon="10.283212"><time>2025-04-28T07:38:27.000Z</time><ele>1114.8</ele></trkpt><trkpt lat="45.96922" lon="10.283203"><time>2025-04-28T07:38:28.000Z</time><ele>1114.8</ele></trkpt><trkpt lat="45.969208" lon="10.283187"><time>2025-04-28T07:38:29.000Z</time><ele>1115.2</ele></trkpt><trkpt lat="45.969218" lon="10.283185"><time>2025-04-28T07:38:30.000Z</time><ele>1115.2</ele></trkpt><trkpt lat="45.969213" lon="10.283187"><time>2025-04-28T07:38:31.000Z</time><ele>1115.6</ele></trkpt><trkpt lat="45.96921" lon="10.283188"><time>2025-04-28T07:38:32.000Z</time><ele>1115.6</ele></trkpt><trkpt lat="45.969231" lon="10.283195"><time>2025-04-28T07:38:33.000Z</time><ele>1115.8</ele></trkpt><trkpt lat="45.96925" lon="10.283199"><time>2025-04-28T07:38:34.000Z</time><ele>1116</ele></trkpt><trkpt lat="45.969254" lon="10.283197"><time>2025-04-28T07:38:35.000Z</time><ele>1116</ele></trkpt><trkpt lat="45.969261" lon="10.283194"><time>2025-04-28T07:38:36.000Z</time><ele>1116.2</ele></trkpt><trkpt lat="45.96926" lon="10.28319"><time>2025-04-28T07:38:37.000Z</time><ele>1116.4</ele></trkpt><trkpt lat="45.96926" lon="10.283185"><time>2025-04-28T07:38:38.000Z</time><ele>1116.6</ele></trkpt><trkpt lat="45.969261" lon="10.283181"><time>2025-04-28T07:38:39.000Z</time><ele>1116.8</ele></trkpt><trkpt lat="45.969271" lon="10.283181"><time>2025-04-28T07:38:40.000Z</time><ele>1116.8</ele></trkpt><trkpt lat="45.969279" lon="10.283177"><time>2025-04-28T07:38:41.000Z</time><ele>1117</ele></trkpt><trkpt lat="45.969285" lon="10.283173"><time>2025-04-28T07:38:42.000Z</time><ele>1117</ele></trkpt><trkpt lat="45.969296" lon="10.283168"><time>2025-04-28T07:38:43.000Z</time><ele>1117.2</ele></trkpt><trkpt lat="45.969316" lon="10.283168"><time>2025-04-28T07:38:44.000Z</time><ele>1117.2</ele></trkpt><trkpt lat="45.969333" lon="10.283164"><time>2025-04-28T07:38:45.000Z</time><ele>1117.2</ele></trkpt><trkpt lat="45.969349" lon="10.283158"><time>2025-04-28T07:38:46.000Z</time><ele>1117.2</ele></trkpt><trkpt lat="45.969362" lon="10.283152"><time>2025-04-28T07:38:47.000Z</time><ele>1117.2</ele></trkpt><trkpt lat="45.969378" lon="10.283148"><time>2025-04-28T07:38:48.000Z</time><ele>1117.4</ele></trkpt><trkpt lat="45.969399" lon="10.283145"><time>2025-04-28T07:38:49.000Z</time><ele>1117.4</ele></trkpt><trkpt lat="45.969417" lon="10.283137"><time>2025-04-28T07:38:50.000Z</time><ele>1117.4</ele></trkpt><trkpt lat="45.969442" lon="10.283128"><time>2025-04-28T07:38:51.000Z</time><ele>1117.4</ele></trkpt><trkpt lat="45.969464" lon="10.283116"><time>2025-04-28T07:38:52.000Z</time><ele>1117.4</ele></trkpt><trkpt lat="45.969486" lon="10.283104"><time>2025-04-28T07:38:53.000Z</time><ele>1117.4</ele></trkpt><trkpt lat="45.969502" lon="10.283094"><time>2025-04-28T07:38:54.000Z</time><ele>1117.4</ele></trkpt><trkpt lat="45.969514" lon="10.283092"><time>2025-04-28T07:38:55.000Z</time><ele>1117.4</ele></trkpt><trkpt lat="45.969527" lon="10.283084"><time>2025-04-28T07:38:56.000Z</time><ele>1117.4</ele></trkpt><trkpt lat="45.969545" lon="10.283079"><time>2025-04-28T07:38:57.000Z</time><ele>1117.4</ele></trkpt><trkpt lat="45.969544" lon="10.283073"><time>2025-04-28T07:38:58.000Z</time><ele>1117.6</ele></trkpt><trkpt lat="45.969544" lon="10.28307"><time>2025-04-28T07:38:59.000Z</time><ele>1117.8</ele></trkpt><trkpt lat="45.969545" lon="10.283065"><time>2025-04-28T07:39:00.000Z</time><ele>1117.8</ele></trkpt><trkpt lat="45.96954" lon="10.283055"><time>2025-04-28T07:39:01.000Z</time><ele>1118</ele></trkpt><trkpt lat="45.969535" lon="10.283045"><time>2025-04-28T07:39:02.000Z</time><ele>1118</ele></trkpt><trkpt lat="45.969536" lon="10.283041"><time>2025-04-28T07:39:03.000Z</time><ele>1118.2</ele></trkpt><trkpt lat="45.969535" lon="10.283039"><time>2025-04-28T07:39:04.000Z</time><ele>1118.2</ele></trkpt><trkpt lat="45.969536" lon="10.283036"><time>2025-04-28T07:39:05.000Z</time><ele>1118.2</ele></trkpt><trkpt lat="45.96955" lon="10.28304"><time>2025-04-28T07:39:06.000Z</time><ele>1118.2</ele></trkpt><trkpt lat="45.969552" lon="10.28304"><time>2025-04-28T07:39:07.000Z</time><ele>1118.2</ele></trkpt><trkpt lat="45.969547" lon="10.283042"><time>2025-04-28T07:39:08.000Z</time><ele>1118.2</ele></trkpt><trkpt lat="45.969545" lon="10.283042"><time>2025-04-28T07:39:09.000Z</time><ele>1118</ele></trkpt><trkpt lat="45.969535" lon="10.283038"><time>2025-04-28T07:39:10.000Z</time><ele>1118</ele></trkpt><trkpt lat="45.969545" lon="10.283041"><time>2025-04-28T07:39:11.000Z</time><ele>1118</ele></trkpt><trkpt lat="45.969543" lon="10.28304"><time>2025-04-28T07:39:12.000Z</time><ele>1118</ele></trkpt><trkpt lat="45.969541" lon="10.283038"><time>2025-04-28T07:39:13.000Z</time><ele>1118</ele></trkpt><trkpt lat="45.969566" lon="10.28304"><time>2025-04-28T07:39:14.000Z</time><ele>1118</ele></trkpt><trkpt lat="45.969568" lon="10.283033"><time>2025-04-28T07:39:15.000Z</time><ele>1118</ele></trkpt><trkpt lat="45.96956" lon="10.283028"><time>2025-04-28T07:39:16.000Z</time><ele>1118</ele></trkpt><trkpt lat="45.969557" lon="10.283029"><time>2025-04-28T07:39:17.000Z</time><ele>1118</ele></trkpt><trkpt lat="45.969562" lon="10.283031"><time>2025-04-28T07:39:18.000Z</time><ele>1118</ele></trkpt><trkpt lat="45.969559" lon="10.28303"><time>2025-04-28T07:39:19.000Z</time><ele>1118</ele></trkpt><trkpt lat="45.969553" lon="10.283029"><time>2025-04-28T07:39:20.000Z</time><ele>1118</ele></trkpt><trkpt lat="45.969551" lon="10.283028"><time>2025-04-28T07:39:21.000Z</time><ele>1118</ele></trkpt><trkpt lat="45.969548" lon="10.283026"><time>2025-04-28T07:39:22.000Z</time><ele>1117.8</ele></trkpt><trkpt lat="45.969549" lon="10.283022"><time>2025-04-28T07:39:23.000Z</time><ele>1117.8</ele></trkpt><trkpt lat="45.969545" lon="10.283019"><time>2025-04-28T07:39:24.000Z</time><ele>1117.8</ele></trkpt><trkpt lat="45.969543" lon="10.283017"><time>2025-04-28T07:39:25.000Z</time><ele>1117.8</ele></trkpt><trkpt lat="45.969544" lon="10.283017"><time>2025-04-28T07:39:26.000Z</time><ele>1117.8</ele></trkpt><trkpt lat="45.969543" lon="10.283015"><time>2025-04-28T07:39:27.000Z</time><ele>1117.8</ele></trkpt><trkpt lat="45.969543" lon="10.283015"><time>2025-04-28T07:39:28.000Z</time><ele>1117.8</ele></trkpt><trkpt lat="45.969543" lon="10.283015"><time>2025-04-28T07:39:29.000Z</time><ele>1117.8</ele></trkpt><trkpt lat="45.969543" lon="10.283015"><time>2025-04-28T07:39:30.000Z</time><ele>1117.8</ele></trkpt><trkpt lat="45.969543" lon="10.283015"><time>2025-04-28T07:39:31.000Z</time><ele>1117.6</ele></trkpt><trkpt lat="45.969543" lon="10.283015"><time>2025-04-28T07:39:32.000Z</time><ele>1117.6</ele></trkpt><trkpt lat="45.969543" lon="10.283015"><time>2025-04-28T07:39:33.000Z</time><ele>1117.6</ele></trkpt><trkpt lat="45.969543" lon="10.283015"><time>2025-04-28T07:39:34.000Z</time><ele>1117.6</ele></trkpt><trkpt lat="45.969543" lon="10.283015"><time>2025-04-28T07:39:35.000Z</time><ele>1117.6</ele></trkpt><trkpt lat="45.969543" lon="10.283015"><time>2025-04-28T07:39:36.000Z</time><ele>1117.6</ele></trkpt><trkpt lat="45.969543" lon="10.283015"><time>2025-04-28T07:39:37.000Z</time><ele>1117.6</ele></trkpt><trkpt lat="45.969554" lon="10.283015"><time>2025-04-28T07:39:38.000Z</time><ele>1117.8</ele></trkpt><trkpt lat="45.969572" lon="10.283014"><time>2025-04-28T07:39:39.000Z</time><ele>1117.8</ele></trkpt><trkpt lat="45.969593" lon="10.283012"><time>2025-04-28T07:39:40.000Z</time><ele>1118</ele></trkpt><trkpt lat="45.969608" lon="10.28301"><time>2025-04-28T07:39:41.000Z</time><ele>1118</ele></trkpt><trkpt lat="45.969622" lon="10.283005"><time>2025-04-28T07:39:42.000Z</time><ele>1118</ele></trkpt><trkpt lat="45.969634" lon="10.282997"><time>2025-04-28T07:39:43.000Z</time><ele>1118</ele></trkpt><trkpt lat="45.969646" lon="10.282991"><time>2025-04-28T07:39:44.000Z</time><ele>1118</ele></trkpt><trkpt lat="45.969647" lon="10.282978"><time>2025-04-28T07:39:45.000Z</time><ele>1118</ele></trkpt><trkpt lat="45.969643" lon="10.282961"><time>2025-04-28T07:39:46.000Z</time><ele>1118</ele></trkpt><trkpt lat="45.969651" lon="10.282952"><time>2025-04-28T07:39:47.000Z</time><ele>1118</ele></trkpt><trkpt lat="45.969643" lon="10.282941"><time>2025-04-28T07:39:48.000Z</time><ele>1118</ele></trkpt><trkpt lat="45.96964" lon="10.282932"><time>2025-04-28T07:39:49.000Z</time><ele>1118</ele></trkpt><trkpt lat="45.969639" lon="10.282923"><time>2025-04-28T07:39:50.000Z</time><ele>1117.8</ele></trkpt><trkpt lat="45.969649" lon="10.282919"><time>2025-04-28T07:39:51.000Z</time><ele>1117.6</ele></trkpt><trkpt lat="45.969676" lon="10.282921"><time>2025-04-28T07:39:52.000Z</time><ele>1117.6</ele></trkpt><trkpt lat="45.969702" lon="10.282921"><time>2025-04-28T07:39:53.000Z</time><ele>1117.4</ele></trkpt><trkpt lat="45.969724" lon="10.282919"><time>2025-04-28T07:39:54.000Z</time><ele>1117.2</ele></trkpt><trkpt lat="45.969736" lon="10.282899"><time>2025-04-28T07:39:55.000Z</time><ele>1117</ele></trkpt><trkpt lat="45.969749" lon="10.282887"><time>2025-04-28T07:39:56.000Z</time><ele>1117</ele></trkpt><trkpt lat="45.96976" lon="10.282872"><time>2025-04-28T07:39:57.000Z</time><ele>1116.8</ele></trkpt><trkpt lat="45.969768" lon="10.282863"><time>2025-04-28T07:39:58.000Z</time><ele>1116.8</ele></trkpt><trkpt lat="45.969783" lon="10.28286"><time>2025-04-28T07:39:59.000Z</time><ele>1116.8</ele></trkpt><trkpt lat="45.9698" lon="10.282848"><time>2025-04-28T07:40:00.000Z</time><ele>1116.8</ele></trkpt><trkpt lat="45.96981" lon="10.282833"><time>2025-04-28T07:40:01.000Z</time><ele>1116.6</ele></trkpt><trkpt lat="45.969816" lon="10.282816"><time>2025-04-28T07:40:02.000Z</time><ele>1116.6</ele></trkpt><trkpt lat="45.96983" lon="10.282802"><time>2025-04-28T07:40:03.000Z</time><ele>1116.6</ele></trkpt><trkpt lat="45.969846" lon="10.282792"><time>2025-04-28T07:40:04.000Z</time><ele>1116.6</ele></trkpt><trkpt lat="45.969853" lon="10.28277"><time>2025-04-28T07:40:05.000Z</time><ele>1116.6</ele></trkpt><trkpt lat="45.969858" lon="10.282748"><time>2025-04-28T07:40:06.000Z</time><ele>1116.4</ele></trkpt><trkpt lat="45.969867" lon="10.282729"><time>2025-04-28T07:40:07.000Z</time><ele>1116.6</ele></trkpt><trkpt lat="45.96988" lon="10.282716"><time>2025-04-28T07:40:08.000Z</time><ele>1116.6</ele></trkpt><trkpt lat="45.969898" lon="10.282708"><time>2025-04-28T07:40:09.000Z</time><ele>1116.6</ele></trkpt><trkpt lat="45.969918" lon="10.282696"><time>2025-04-28T07:40:10.000Z</time><ele>1116.6</ele></trkpt><trkpt lat="45.969929" lon="10.282682"><time>2025-04-28T07:40:11.000Z</time><ele>1116.6</ele></trkpt><trkpt lat="45.969941" lon="10.282668"><time>2025-04-28T07:40:12.000Z</time><ele>1116.6</ele></trkpt><trkpt lat="45.969957" lon="10.282657"><time>2025-04-28T07:40:13.000Z</time><ele>1116.6</ele></trkpt><trkpt lat="45.969965" lon="10.28264"><time>2025-04-28T07:40:14.000Z</time><ele>1116.6</ele></trkpt><trkpt lat="45.96997" lon="10.282624"><time>2025-04-28T07:40:15.000Z</time><ele>1116.6</ele></trkpt><trkpt lat="45.969991" lon="10.282605"><time>2025-04-28T07:40:16.000Z</time><ele>1116.6</ele></trkpt><trkpt lat="45.970012" lon="10.282579"><time>2025-04-28T07:40:17.000Z</time><ele>1116.6</ele></trkpt><trkpt lat="45.970031" lon="10.282558"><time>2025-04-28T07:40:18.000Z</time><ele>1116.4</ele></trkpt><trkpt lat="45.970052" lon="10.282542"><time>2025-04-28T07:40:19.000Z</time><ele>1116.4</ele></trkpt><trkpt lat="45.970069" lon="10.282523"><time>2025-04-28T07:40:20.000Z</time><ele>1116.4</ele></trkpt><trkpt lat="45.970067" lon="10.282502"><time>2025-04-28T07:40:21.000Z</time><ele>1116.4</ele></trkpt><trkpt lat="45.970072" lon="10.282498"><time>2025-04-28T07:40:22.000Z</time><ele>1116.4</ele></trkpt><trkpt lat="45.970087" lon="10.282512"><time>2025-04-28T07:40:23.000Z</time><ele>1116.4</ele></trkpt><trkpt lat="45.9701" lon="10.282524"><time>2025-04-28T07:40:24.000Z</time><ele>1116.4</ele></trkpt><trkpt lat="45.9701" lon="10.282528"><time>2025-04-28T07:40:25.000Z</time><ele>1116.4</ele></trkpt><trkpt lat="45.970107" lon="10.282531"><time>2025-04-28T07:40:26.000Z</time><ele>1116.4</ele></trkpt><trkpt lat="45.970109" lon="10.282527"><time>2025-04-28T07:40:27.000Z</time><ele>1116.2</ele></trkpt><trkpt lat="45.97011" lon="10.282523"><time>2025-04-28T07:40:28.000Z</time><ele>1116.2</ele></trkpt><trkpt lat="45.970109" lon="10.28251"><time>2025-04-28T07:40:29.000Z</time><ele>1116.2</ele></trkpt><trkpt lat="45.970113" lon="10.282498"><time>2025-04-28T07:40:30.000Z</time><ele>1116.2</ele></trkpt><trkpt lat="45.970111" lon="10.282487"><time>2025-04-28T07:40:31.000Z</time><ele>1116.2</ele></trkpt><trkpt lat="45.970121" lon="10.282481"><time>2025-04-28T07:40:32.000Z</time><ele>1116.2</ele></trkpt><trkpt lat="45.970136" lon="10.282481"><time>2025-04-28T07:40:33.000Z</time><ele>1116.2</ele></trkpt><trkpt lat="45.970149" lon="10.282475"><time>2025-04-28T07:40:34.000Z</time><ele>1116.2</ele></trkpt><trkpt lat="45.97016" lon="10.282464"><time>2025-04-28T07:40:35.000Z</time><ele>1116.2</ele></trkpt><trkpt lat="45.970172" lon="10.282454"><time>2025-04-28T07:40:36.000Z</time><ele>1116.2</ele></trkpt><trkpt lat="45.970185" lon="10.28245"><time>2025-04-28T07:40:37.000Z</time><ele>1116</ele></trkpt><trkpt lat="45.970191" lon="10.282442"><time>2025-04-28T07:40:38.000Z</time><ele>1116</ele></trkpt><trkpt lat="45.970197" lon="10.282435"><time>2025-04-28T07:40:39.000Z</time><ele>1116</ele></trkpt><trkpt lat="45.970209" lon="10.28244"><time>2025-04-28T07:40:40.000Z</time><ele>1116</ele></trkpt><trkpt lat="45.97022" lon="10.282444"><time>2025-04-28T07:40:41.000Z</time><ele>1116</ele></trkpt><trkpt lat="45.970223" lon="10.282445"><time>2025-04-28T07:40:42.000Z</time><ele>1116</ele></trkpt><trkpt lat="45.970231" lon="10.282433"><time>2025-04-28T07:40:43.000Z</time><ele>1115.8</ele></trkpt><trkpt lat="45.970234" lon="10.282417"><time>2025-04-28T07:40:44.000Z</time><ele>1115.8</ele></trkpt><trkpt lat="45.970246" lon="10.282395"><time>2025-04-28T07:40:45.000Z</time><ele>1115.6</ele></trkpt><trkpt lat="45.970249" lon="10.282374"><time>2025-04-28T07:40:46.000Z</time><ele>1115.8</ele></trkpt><trkpt lat="45.97025" lon="10.282351"><time>2025-04-28T07:40:47.000Z</time><ele>1115.8</ele></trkpt><trkpt lat="45.970252" lon="10.282324"><time>2025-04-28T07:40:48.000Z</time><ele>1115.8</ele></trkpt><trkpt lat="45.970254" lon="10.282304"><time>2025-04-28T07:40:49.000Z</time><ele>1115.8</ele></trkpt><trkpt lat="45.970262" lon="10.28229"><time>2025-04-28T07:40:50.000Z</time><ele>1115.8</ele></trkpt><trkpt lat="45.970277" lon="10.282282"><time>2025-04-28T07:40:51.000Z</time><ele>1115.8</ele></trkpt><trkpt lat="45.970282" lon="10.282267"><time>2025-04-28T07:40:52.000Z</time><ele>1116</ele></trkpt><trkpt lat="45.970297" lon="10.282258"><time>2025-04-28T07:40:53.000Z</time><ele>1116</ele></trkpt><trkpt lat="45.970313" lon="10.282251"><time>2025-04-28T07:40:54.000Z</time><ele>1116</ele></trkpt><trkpt lat="45.970325" lon="10.282243"><time>2025-04-28T07:40:55.000Z</time><ele>1116</ele></trkpt><trkpt lat="45.970338" lon="10.282237"><time>2025-04-28T07:40:56.000Z</time><ele>1116</ele></trkpt><trkpt lat="45.970349" lon="10.282228"><time>2025-04-28T07:40:57.000Z</time><ele>1116</ele></trkpt><trkpt lat="45.97036" lon="10.282223"><time>2025-04-28T07:40:58.000Z</time><ele>1116</ele></trkpt><trkpt lat="45.970372" lon="10.282219"><time>2025-04-28T07:40:59.000Z</time><ele>1116</ele></trkpt><trkpt lat="45.970377" lon="10.282206"><time>2025-04-28T07:41:00.000Z</time><ele>1116</ele></trkpt><trkpt lat="45.970382" lon="10.282186"><time>2025-04-28T07:41:01.000Z</time><ele>1116</ele></trkpt><trkpt lat="45.970393" lon="10.282172"><time>2025-04-28T07:41:02.000Z</time><ele>1116.2</ele></trkpt><trkpt lat="45.970405" lon="10.282159"><time>2025-04-28T07:41:03.000Z</time><ele>1116.2</ele></trkpt><trkpt lat="45.970417" lon="10.282146"><time>2025-04-28T07:41:04.000Z</time><ele>1116.2</ele></trkpt><trkpt lat="45.970425" lon="10.282133"><time>2025-04-28T07:41:05.000Z</time><ele>1116.4</ele></trkpt><trkpt lat="45.970435" lon="10.282114"><time>2025-04-28T07:41:06.000Z</time><ele>1116.4</ele></trkpt><trkpt lat="45.970444" lon="10.282091"><time>2025-04-28T07:41:07.000Z</time><ele>1116.6</ele></trkpt><trkpt lat="45.970446" lon="10.282068"><time>2025-04-28T07:41:08.000Z</time><ele>1116.6</ele></trkpt><trkpt lat="45.970448" lon="10.28205"><time>2025-04-28T07:41:09.000Z</time><ele>1116.6</ele></trkpt><trkpt lat="45.97045" lon="10.282037"><time>2025-04-28T07:41:10.000Z</time><ele>1116.8</ele></trkpt><trkpt lat="45.970449" lon="10.282016"><time>2025-04-28T07:41:11.000Z</time><ele>1116.8</ele></trkpt><trkpt lat="45.970462" lon="10.282014"><time>2025-04-28T07:41:12.000Z</time><ele>1116.8</ele></trkpt><trkpt lat="45.970476" lon="10.282009"><time>2025-04-28T07:41:13.000Z</time><ele>1116.8</ele></trkpt><trkpt lat="45.970483" lon="10.282002"><time>2025-04-28T07:41:14.000Z</time><ele>1116.8</ele></trkpt><trkpt lat="45.970489" lon="10.281984"><time>2025-04-28T07:41:15.000Z</time><ele>1116.8</ele></trkpt><trkpt lat="45.970492" lon="10.281955"><time>2025-04-28T07:41:16.000Z</time><ele>1116.8</ele></trkpt><trkpt lat="45.970487" lon="10.281932"><time>2025-04-28T07:41:17.000Z</time><ele>1117</ele></trkpt><trkpt lat="45.970483" lon="10.28191"><time>2025-04-28T07:41:18.000Z</time><ele>1117</ele></trkpt><trkpt lat="45.97048" lon="10.281892"><time>2025-04-28T07:41:19.000Z</time><ele>1117</ele></trkpt><trkpt lat="45.970473" lon="10.281872"><time>2025-04-28T07:41:20.000Z</time><ele>1117.2</ele></trkpt><trkpt lat="45.970474" lon="10.281852"><time>2025-04-28T07:41:21.000Z</time><ele>1117.2</ele></trkpt><trkpt lat="45.970474" lon="10.281832"><time>2025-04-28T07:41:22.000Z</time><ele>1117.4</ele></trkpt><trkpt lat="45.970471" lon="10.281809"><time>2025-04-28T07:41:23.000Z</time><ele>1117.4</ele></trkpt><trkpt lat="45.970484" lon="10.281797"><time>2025-04-28T07:41:24.000Z</time><ele>1117.6</ele></trkpt><trkpt lat="45.97049" lon="10.281788"><time>2025-04-28T07:41:25.000Z</time><ele>1117.6</ele></trkpt><trkpt lat="45.970496" lon="10.281775"><time>2025-04-28T07:41:26.000Z</time><ele>1117.6</ele></trkpt><trkpt lat="45.970498" lon="10.281763"><time>2025-04-28T07:41:27.000Z</time><ele>1117.8</ele></trkpt><trkpt lat="45.970506" lon="10.281757"><time>2025-04-28T07:41:28.000Z</time><ele>1118</ele></trkpt><trkpt lat="45.97051" lon="10.281743"><time>2025-04-28T07:41:29.000Z</time><ele>1118.2</ele></trkpt><trkpt lat="45.97052" lon="10.281731"><time>2025-04-28T07:41:30.000Z</time><ele>1118.4</ele></trkpt><trkpt lat="45.970524" lon="10.281713"><time>2025-04-28T07:41:31.000Z</time><ele>1118.4</ele></trkpt><trkpt lat="45.970532" lon="10.2817"><time>2025-04-28T07:41:32.000Z</time><ele>1118.6</ele></trkpt><trkpt lat="45.970538" lon="10.28168"><time>2025-04-28T07:41:33.000Z</time><ele>1118.6</ele></trkpt><trkpt lat="45.970538" lon="10.281662"><time>2025-04-28T07:41:34.000Z</time><ele>1119</ele></trkpt><trkpt lat="45.970541" lon="10.281646"><time>2025-04-28T07:41:35.000Z</time><ele>1119.2</ele></trkpt><trkpt lat="45.97056" lon="10.281635"><time>2025-04-28T07:41:36.000Z</time><ele>1119.2</ele></trkpt><trkpt lat="45.970576" lon="10.281623"><time>2025-04-28T07:41:37.000Z</time><ele>1119.4</ele></trkpt><trkpt lat="45.970582" lon="10.281607"><time>2025-04-28T07:41:38.000Z</time><ele>1119.4</ele></trkpt><trkpt lat="45.970594" lon="10.281602"><time>2025-04-28T07:41:39.000Z</time><ele>1119.4</ele></trkpt><trkpt lat="45.970607" lon="10.281594"><time>2025-04-28T07:41:40.000Z</time><ele>1119.4</ele></trkpt><trkpt lat="45.970617" lon="10.281584"><time>2025-04-28T07:41:41.000Z</time><ele>1119.2</ele></trkpt><trkpt lat="45.970622" lon="10.281573"><time>2025-04-28T07:41:42.000Z</time><ele>1119.2</ele></trkpt><trkpt lat="45.970633" lon="10.281568"><time>2025-04-28T07:41:43.000Z</time><ele>1119</ele></trkpt><trkpt lat="45.970645" lon="10.281563"><time>2025-04-28T07:41:44.000Z</time><ele>1118.8</ele></trkpt><trkpt lat="45.970641" lon="10.281547"><time>2025-04-28T07:41:45.000Z</time><ele>1118.8</ele></trkpt><trkpt lat="45.970641" lon="10.281529"><time>2025-04-28T07:41:46.000Z</time><ele>1118.8</ele></trkpt><trkpt lat="45.970647" lon="10.281512"><time>2025-04-28T07:41:47.000Z</time><ele>1118.6</ele></trkpt><trkpt lat="45.970657" lon="10.281496"><time>2025-04-28T07:41:48.000Z</time><ele>1118.4</ele></trkpt><trkpt lat="45.970657" lon="10.281489"><time>2025-04-28T07:41:49.000Z</time><ele>1118.4</ele></trkpt><trkpt lat="45.970664" lon="10.281476"><time>2025-04-28T07:41:50.000Z</time><ele>1118.4</ele></trkpt><trkpt lat="45.970665" lon="10.28147"><time>2025-04-28T07:41:51.000Z</time><ele>1118.4</ele></trkpt><trkpt lat="45.970665" lon="10.281468"><time>2025-04-28T07:41:52.000Z</time><ele>1118.4</ele></trkpt><trkpt lat="45.970678" lon="10.281461"><time>2025-04-28T07:41:53.000Z</time><ele>1118.4</ele></trkpt><trkpt lat="45.970691" lon="10.281444"><time>2025-04-28T07:41:54.000Z</time><ele>1118.4</ele></trkpt><trkpt lat="45.970702" lon="10.281428"><time>2025-04-28T07:41:55.000Z</time><ele>1118.4</ele></trkpt><trkpt lat="45.970704" lon="10.281415"><time>2025-04-28T07:41:56.000Z</time><ele>1118.4</ele></trkpt><trkpt lat="45.9707" lon="10.281397"><time>2025-04-28T07:41:57.000Z</time><ele>1118.6</ele></trkpt><trkpt lat="45.970697" lon="10.281378"><time>2025-04-28T07:41:58.000Z</time><ele>1118.6</ele></trkpt><trkpt lat="45.970696" lon="10.281367"><time>2025-04-28T07:41:59.000Z</time><ele>1118.6</ele></trkpt><trkpt lat="45.970707" lon="10.281365"><time>2025-04-28T07:42:00.000Z</time><ele>1118.4</ele></trkpt><trkpt lat="45.970717" lon="10.281359"><time>2025-04-28T07:42:01.000Z</time><ele>1118.4</ele></trkpt><trkpt lat="45.970739" lon="10.281353"><time>2025-04-28T07:42:02.000Z</time><ele>1118.4</ele></trkpt><trkpt lat="45.970765" lon="10.281344"><time>2025-04-28T07:42:03.000Z</time><ele>1118.2</ele></trkpt><trkpt lat="45.970782" lon="10.281343"><time>2025-04-28T07:42:04.000Z</time><ele>1118</ele></trkpt><trkpt lat="45.97079" lon="10.281336"><time>2025-04-28T07:42:05.000Z</time><ele>1117.8</ele></trkpt><trkpt lat="45.970797" lon="10.281332"><time>2025-04-28T07:42:06.000Z</time><ele>1117.8</ele></trkpt><trkpt lat="45.970806" lon="10.281323"><time>2025-04-28T07:42:07.000Z</time><ele>1117.8</ele></trkpt><trkpt lat="45.970809" lon="10.281311"><time>2025-04-28T07:42:08.000Z</time><ele>1117.8</ele></trkpt><trkpt lat="45.970826" lon="10.281305"><time>2025-04-28T07:42:09.000Z</time><ele>1117.6</ele></trkpt><trkpt lat="45.970844" lon="10.281298"><time>2025-04-28T07:42:10.000Z</time><ele>1117.4</ele></trkpt><trkpt lat="45.970853" lon="10.281291"><time>2025-04-28T07:42:11.000Z</time><ele>1117.4</ele></trkpt><trkpt lat="45.970866" lon="10.281286"><time>2025-04-28T07:42:12.000Z</time><ele>1117.2</ele></trkpt><trkpt lat="45.970875" lon="10.281268"><time>2025-04-28T07:42:13.000Z</time><ele>1117.2</ele></trkpt><trkpt lat="45.970887" lon="10.28125"><time>2025-04-28T07:42:14.000Z</time><ele>1117</ele></trkpt><trkpt lat="45.970895" lon="10.281232"><time>2025-04-28T07:42:15.000Z</time><ele>1117</ele></trkpt><trkpt lat="45.970907" lon="10.281218"><time>2025-04-28T07:42:16.000Z</time><ele>1117</ele></trkpt><trkpt lat="45.970918" lon="10.2812"><time>2025-04-28T07:42:17.000Z</time><ele>1117</ele></trkpt><trkpt lat="45.97094" lon="10.281198"><time>2025-04-28T07:42:18.000Z</time><ele>1117.2</ele></trkpt><trkpt lat="45.970958" lon="10.281188"><time>2025-04-28T07:42:19.000Z</time><ele>1117.2</ele></trkpt><trkpt lat="45.970968" lon="10.281173"><time>2025-04-28T07:42:20.000Z</time><ele>1117.2</ele></trkpt><trkpt lat="45.970965" lon="10.281154"><time>2025-04-28T07:42:21.000Z</time><ele>1117.2</ele></trkpt><trkpt lat="45.970967" lon="10.281123"><time>2025-04-28T07:42:22.000Z</time><ele>1117.2</ele></trkpt><trkpt lat="45.97097" lon="10.281116"><time>2025-04-28T07:42:23.000Z</time><ele>1117.2</ele></trkpt><trkpt lat="45.970974" lon="10.281106"><time>2025-04-28T07:42:24.000Z</time><ele>1117.2</ele></trkpt><trkpt lat="45.970982" lon="10.281099"><time>2025-04-28T07:42:25.000Z</time><ele>1117.2</ele></trkpt><trkpt lat="45.970993" lon="10.281091"><time>2025-04-28T07:42:26.000Z</time><ele>1117.2</ele></trkpt><trkpt lat="45.970998" lon="10.281081"><time>2025-04-28T07:42:27.000Z</time><ele>1117.2</ele></trkpt><trkpt lat="45.970999" lon="10.281063"><time>2025-04-28T07:42:28.000Z</time><ele>1117.2</ele></trkpt><trkpt lat="45.971004" lon="10.28105"><time>2025-04-28T07:42:29.000Z</time><ele>1117.4</ele></trkpt><trkpt lat="45.971026" lon="10.281046"><time>2025-04-28T07:42:30.000Z</time><ele>1117.4</ele></trkpt><trkpt lat="45.971038" lon="10.281042"><time>2025-04-28T07:42:31.000Z</time><ele>1117.6</ele></trkpt><trkpt lat="45.971057" lon="10.281031"><time>2025-04-28T07:42:32.000Z</time><ele>1117.6</ele></trkpt><trkpt lat="45.971058" lon="10.281015"><time>2025-04-28T07:42:33.000Z</time><ele>1117.6</ele></trkpt><trkpt lat="45.971059" lon="10.281011"><time>2025-04-28T07:42:34.000Z</time><ele>1117.8</ele></trkpt><trkpt lat="45.971053" lon="10.281008"><time>2025-04-28T07:42:35.000Z</time><ele>1118.2</ele></trkpt><trkpt lat="45.971048" lon="10.281001"><time>2025-04-28T07:42:36.000Z</time><ele>1118.4</ele></trkpt><trkpt lat="45.971053" lon="10.280994"><time>2025-04-28T07:42:37.000Z</time><ele>1118.4</ele></trkpt><trkpt lat="45.971058" lon="10.280988"><time>2025-04-28T07:42:38.000Z</time><ele>1118.4</ele></trkpt><trkpt lat="45.971052" lon="10.280982"><time>2025-04-28T07:42:39.000Z</time><ele>1118.6</ele></trkpt><trkpt lat="45.971054" lon="10.280969"><time>2025-04-28T07:42:40.000Z</time><ele>1118.6</ele></trkpt><trkpt lat="45.971066" lon="10.280958"><time>2025-04-28T07:42:41.000Z</time><ele>1118.6</ele></trkpt><trkpt lat="45.971079" lon="10.280951"><time>2025-04-28T07:42:42.000Z</time><ele>1118.8</ele></trkpt><trkpt lat="45.971091" lon="10.280941"><time>2025-04-28T07:42:43.000Z</time><ele>1119</ele></trkpt><trkpt lat="45.971091" lon="10.280934"><time>2025-04-28T07:42:44.000Z</time><ele>1119.2</ele></trkpt><trkpt lat="45.971091" lon="10.280923"><time>2025-04-28T07:42:45.000Z</time><ele>1119.4</ele></trkpt><trkpt lat="45.971102" lon="10.280919"><time>2025-04-28T07:42:46.000Z</time><ele>1119.4</ele></trkpt><trkpt lat="45.971111" lon="10.280909"><time>2025-04-28T07:42:47.000Z</time><ele>1119.6</ele></trkpt><trkpt lat="45.971121" lon="10.280897"><time>2025-04-28T07:42:48.000Z</time><ele>1119.8</ele></trkpt><trkpt lat="45.971124" lon="10.280886"><time>2025-04-28T07:42:49.000Z</time><ele>1120</ele></trkpt><trkpt lat="45.971127" lon="10.280876"><time>2025-04-28T07:42:50.000Z</time><ele>1120</ele></trkpt><trkpt lat="45.971127" lon="10.280862"><time>2025-04-28T07:42:51.000Z</time><ele>1120.2</ele></trkpt><trkpt lat="45.971133" lon="10.280844"><time>2025-04-28T07:42:52.000Z</time><ele>1120.2</ele></trkpt><trkpt lat="45.971127" lon="10.280825"><time>2025-04-28T07:42:53.000Z</time><ele>1120.2</ele></trkpt><trkpt lat="45.971117" lon="10.280811"><time>2025-04-28T07:42:54.000Z</time><ele>1120.2</ele></trkpt><trkpt lat="45.971101" lon="10.280797"><time>2025-04-28T07:42:55.000Z</time><ele>1120.4</ele></trkpt><trkpt lat="45.971082" lon="10.280783"><time>2025-04-28T07:42:56.000Z</time><ele>1120.4</ele></trkpt><trkpt lat="45.971075" lon="10.280776"><time>2025-04-28T07:42:57.000Z</time><ele>1120.4</ele></trkpt><trkpt lat="45.97108" lon="10.280769"><time>2025-04-28T07:42:58.000Z</time><ele>1120.6</ele></trkpt><trkpt lat="45.971087" lon="10.28076"><time>2025-04-28T07:42:59.000Z</time><ele>1120.8</ele></trkpt><trkpt lat="45.971085" lon="10.280748"><time>2025-04-28T07:43:00.000Z</time><ele>1120.8</ele></trkpt><trkpt lat="45.971085" lon="10.28074"><time>2025-04-28T07:43:01.000Z</time><ele>1121</ele></trkpt><trkpt lat="45.971083" lon="10.280723"><time>2025-04-28T07:43:02.000Z</time><ele>1121</ele></trkpt><trkpt lat="45.971081" lon="10.280703"><time>2025-04-28T07:43:03.000Z</time><ele>1121.2</ele></trkpt><trkpt lat="45.971081" lon="10.280689"><time>2025-04-28T07:43:04.000Z</time><ele>1121.4</ele></trkpt><trkpt lat="45.971068" lon="10.280682"><time>2025-04-28T07:43:05.000Z</time><ele>1121.4</ele></trkpt><trkpt lat="45.971069" lon="10.280669"><time>2025-04-28T07:43:06.000Z</time><ele>1121.4</ele></trkpt><trkpt lat="45.971066" lon="10.280659"><time>2025-04-28T07:43:07.000Z</time><ele>1121.6</ele></trkpt><trkpt lat="45.971066" lon="10.280651"><time>2025-04-28T07:43:08.000Z</time><ele>1121.6</ele></trkpt><trkpt lat="45.971079" lon="10.280641"><time>2025-04-28T07:43:09.000Z</time><ele>1121.8</ele></trkpt><trkpt lat="45.971096" lon="10.280633"><time>2025-04-28T07:43:10.000Z</time><ele>1121.8</ele></trkpt><trkpt lat="45.971109" lon="10.280623"><time>2025-04-28T07:43:11.000Z</time><ele>1122</ele></trkpt><trkpt lat="45.97112" lon="10.28061"><time>2025-04-28T07:43:12.000Z</time><ele>1122.2</ele></trkpt><trkpt lat="45.971129" lon="10.280605"><time>2025-04-28T07:43:13.000Z</time><ele>1122.2</ele></trkpt><trkpt lat="45.971133" lon="10.280606"><time>2025-04-28T07:43:14.000Z</time><ele>1122.4</ele></trkpt><trkpt lat="45.971141" lon="10.2806"><time>2025-04-28T07:43:15.000Z</time><ele>1122.6</ele></trkpt><trkpt lat="45.971151" lon="10.280584"><time>2025-04-28T07:43:16.000Z</time><ele>1122.8</ele></trkpt><trkpt lat="45.971172" lon="10.280574"><time>2025-04-28T07:43:17.000Z</time><ele>1123</ele></trkpt><trkpt lat="45.971192" lon="10.280566"><time>2025-04-28T07:43:18.000Z</time><ele>1123</ele></trkpt><trkpt lat="45.971208" lon="10.280562"><time>2025-04-28T07:43:19.000Z</time><ele>1123.2</ele></trkpt><trkpt lat="45.971221" lon="10.280553"><time>2025-04-28T07:43:20.000Z</time><ele>1123.2</ele></trkpt><trkpt lat="45.971235" lon="10.280548"><time>2025-04-28T07:43:21.000Z</time><ele>1123.2</ele></trkpt><trkpt lat="45.971242" lon="10.280532"><time>2025-04-28T07:43:22.000Z</time><ele>1123.2</ele></trkpt><trkpt lat="45.971238" lon="10.28051"><time>2025-04-28T07:43:23.000Z</time><ele>1123.2</ele></trkpt><trkpt lat="45.971245" lon="10.280509"><time>2025-04-28T07:43:24.000Z</time><ele>1123.2</ele></trkpt><trkpt lat="45.971248" lon="10.280504"><time>2025-04-28T07:43:25.000Z</time><ele>1123.2</ele></trkpt><trkpt lat="45.971251" lon="10.280504"><time>2025-04-28T07:43:26.000Z</time><ele>1123</ele></trkpt><trkpt lat="45.971257" lon="10.280505"><time>2025-04-28T07:43:27.000Z</time><ele>1123</ele></trkpt><trkpt lat="45.971258" lon="10.280507"><time>2025-04-28T07:43:28.000Z</time><ele>1123</ele></trkpt><trkpt lat="45.971258" lon="10.280494"><time>2025-04-28T07:43:29.000Z</time><ele>1123</ele></trkpt><trkpt lat="45.971253" lon="10.280486"><time>2025-04-28T07:43:30.000Z</time><ele>1123</ele></trkpt><trkpt lat="45.971253" lon="10.280479"><time>2025-04-28T07:43:31.000Z</time><ele>1123</ele></trkpt><trkpt lat="45.971257" lon="10.280471"><time>2025-04-28T07:43:32.000Z</time><ele>1123.2</ele></trkpt><trkpt lat="45.971254" lon="10.280456"><time>2025-04-28T07:43:33.000Z</time><ele>1123.2</ele></trkpt><trkpt lat="45.971259" lon="10.280441"><time>2025-04-28T07:43:34.000Z</time><ele>1123</ele></trkpt><trkpt lat="45.971249" lon="10.280423"><time>2025-04-28T07:43:35.000Z</time><ele>1123</ele></trkpt><trkpt lat="45.97124" lon="10.280403"><time>2025-04-28T07:43:36.000Z</time><ele>1123</ele></trkpt><trkpt lat="45.971232" lon="10.280383"><time>2025-04-28T07:43:37.000Z</time><ele>1123</ele></trkpt><trkpt lat="45.971235" lon="10.280366"><time>2025-04-28T07:43:38.000Z</time><ele>1122.8</ele></trkpt><trkpt lat="45.971257" lon="10.280356"><time>2025-04-28T07:43:39.000Z</time><ele>1122.6</ele></trkpt><trkpt lat="45.971273" lon="10.280342"><time>2025-04-28T07:43:40.000Z</time><ele>1122.4</ele></trkpt><trkpt lat="45.971286" lon="10.280322"><time>2025-04-28T07:43:41.000Z</time><ele>1122.2</ele></trkpt><trkpt lat="45.971288" lon="10.280303"><time>2025-04-28T07:43:42.000Z</time><ele>1121.8</ele></trkpt><trkpt lat="45.971292" lon="10.280289"><time>2025-04-28T07:43:43.000Z</time><ele>1121.6</ele></trkpt><trkpt lat="45.9713" lon="10.280273"><time>2025-04-28T07:43:44.000Z</time><ele>1121.2</ele></trkpt><trkpt lat="45.971297" lon="10.280263"><time>2025-04-28T07:43:45.000Z</time><ele>1120.8</ele></trkpt><trkpt lat="45.9713" lon="10.280249"><time>2025-04-28T07:43:46.000Z</time><ele>1120.6</ele></trkpt><trkpt lat="45.97131" lon="10.280241"><time>2025-04-28T07:43:47.000Z</time><ele>1120.4</ele></trkpt><trkpt lat="45.97132" lon="10.280227"><time>2025-04-28T07:43:48.000Z</time><ele>1120.2</ele></trkpt><trkpt lat="45.971323" lon="10.280209"><time>2025-04-28T07:43:49.000Z</time><ele>1120</ele></trkpt><trkpt lat="45.971323" lon="10.280188"><time>2025-04-28T07:43:50.000Z</time><ele>1119.8</ele></trkpt><trkpt lat="45.971321" lon="10.280156"><time>2025-04-28T07:43:51.000Z</time><ele>1119.4</ele></trkpt><trkpt lat="45.971329" lon="10.28014"><time>2025-04-28T07:43:52.000Z</time><ele>1119.2</ele></trkpt><trkpt lat="45.971347" lon="10.280133"><time>2025-04-28T07:43:53.000Z</time><ele>1119</ele></trkpt><trkpt lat="45.971358" lon="10.280121"><time>2025-04-28T07:43:54.000Z</time><ele>1118.8</ele></trkpt><trkpt lat="45.971362" lon="10.280103"><time>2025-04-28T07:43:55.000Z</time><ele>1118.4</ele></trkpt><trkpt lat="45.971363" lon="10.280085"><time>2025-04-28T07:43:56.000Z</time><ele>1118.2</ele></trkpt><trkpt lat="45.97136" lon="10.280071"><time>2025-04-28T07:43:57.000Z</time><ele>1118</ele></trkpt><trkpt lat="45.971364" lon="10.280065"><time>2025-04-28T07:43:58.000Z</time><ele>1117.8</ele></trkpt><trkpt lat="45.971375" lon="10.280055"><time>2025-04-28T07:43:59.000Z</time><ele>1117.8</ele></trkpt><trkpt lat="45.971366" lon="10.280035"><time>2025-04-28T07:44:00.000Z</time><ele>1117.6</ele></trkpt><trkpt lat="45.971359" lon="10.280017"><time>2025-04-28T07:44:01.000Z</time><ele>1117.4</ele></trkpt><trkpt lat="45.971362" lon="10.28"><time>2025-04-28T07:44:02.000Z</time><ele>1117.2</ele></trkpt><trkpt lat="45.97137" lon="10.279987"><time>2025-04-28T07:44:03.000Z</time><ele>1117.2</ele></trkpt><trkpt lat="45.971369" lon="10.279975"><time>2025-04-28T07:44:04.000Z</time><ele>1117</ele></trkpt><trkpt lat="45.971375" lon="10.279968"><time>2025-04-28T07:44:05.000Z</time><ele>1117</ele></trkpt><trkpt lat="45.971379" lon="10.279959"><time>2025-04-28T07:44:06.000Z</time><ele>1116.8</ele></trkpt><trkpt lat="45.9714" lon="10.279959"><time>2025-04-28T07:44:07.000Z</time><ele>1116.6</ele></trkpt><trkpt lat="45.971441" lon="10.279973"><time>2025-04-28T07:44:08.000Z</time><ele>1116.4</ele></trkpt><trkpt lat="45.971459" lon="10.279976"><time>2025-04-28T07:44:09.000Z</time><ele>1116.2</ele></trkpt><trkpt lat="45.971473" lon="10.279969"><time>2025-04-28T07:44:10.000Z</time><ele>1115.8</ele></trkpt><trkpt lat="45.971476" lon="10.279959"><time>2025-04-28T07:44:11.000Z</time><ele>1115.6</ele></trkpt><trkpt lat="45.971471" lon="10.27995"><time>2025-04-28T07:44:12.000Z</time><ele>1115.6</ele></trkpt><trkpt lat="45.971481" lon="10.279949"><time>2025-04-28T07:44:13.000Z</time><ele>1115.4</ele></trkpt><trkpt lat="45.971492" lon="10.279946"><time>2025-04-28T07:44:14.000Z</time><ele>1115.2</ele></trkpt><trkpt lat="45.971503" lon="10.279943"><time>2025-04-28T07:44:15.000Z</time><ele>1115.2</ele></trkpt><trkpt lat="45.971514" lon="10.279936"><time>2025-04-28T07:44:16.000Z</time><ele>1115</ele></trkpt><trkpt lat="45.971525" lon="10.279927"><time>2025-04-28T07:44:17.000Z</time><ele>1115</ele></trkpt><trkpt lat="45.97154" lon="10.279922"><time>2025-04-28T07:44:18.000Z</time><ele>1114.8</ele></trkpt><trkpt lat="45.971544" lon="10.279927"><time>2025-04-28T07:44:19.000Z</time><ele>1114.8</ele></trkpt><trkpt lat="45.971541" lon="10.27991"><time>2025-04-28T07:44:20.000Z</time><ele>1114.8</ele></trkpt><trkpt lat="45.971545" lon="10.279935"><time>2025-04-28T07:44:21.000Z</time><ele>1114.8</ele></trkpt><trkpt lat="45.971548" lon="10.279946"><time>2025-04-28T07:44:22.000Z</time><ele>1114.8</ele></trkpt><trkpt lat="45.971543" lon="10.279949"><time>2025-04-28T07:44:23.000Z</time><ele>1114.8</ele></trkpt><trkpt lat="45.971541" lon="10.279955"><time>2025-04-28T07:44:24.000Z</time><ele>1114.8</ele></trkpt><trkpt lat="45.971534" lon="10.279949"><time>2025-04-28T07:44:25.000Z</time><ele>1114.8</ele></trkpt><trkpt lat="45.971521" lon="10.279927"><time>2025-04-28T07:44:26.000Z</time><ele>1114.8</ele></trkpt><trkpt lat="45.971509" lon="10.2799"><time>2025-04-28T07:44:27.000Z</time><ele>1114.8</ele></trkpt><trkpt lat="45.971497" lon="10.279875"><time>2025-04-28T07:44:28.000Z</time><ele>1114.8</ele></trkpt><trkpt lat="45.971488" lon="10.279857"><time>2025-04-28T07:44:29.000Z</time><ele>1114.8</ele></trkpt><trkpt lat="45.971493" lon="10.279853"><time>2025-04-28T07:44:30.000Z</time><ele>1114.8</ele></trkpt><trkpt lat="45.971491" lon="10.279845"><time>2025-04-28T07:44:31.000Z</time><ele>1114.8</ele></trkpt><trkpt lat="45.971494" lon="10.279841"><time>2025-04-28T07:44:32.000Z</time><ele>1114.8</ele></trkpt><trkpt lat="45.971499" lon="10.279847"><time>2025-04-28T07:44:33.000Z</time><ele>1114.8</ele></trkpt><trkpt lat="45.971507" lon="10.27986"><time>2025-04-28T07:44:34.000Z</time><ele>1114.8</ele></trkpt><trkpt lat="45.971516" lon="10.279873"><time>2025-04-28T07:44:35.000Z</time><ele>1114.8</ele></trkpt><trkpt lat="45.971514" lon="10.279876"><time>2025-04-28T07:44:36.000Z</time><ele>1114.6</ele></trkpt><trkpt lat="45.971512" lon="10.279876"><time>2025-04-28T07:44:37.000Z</time><ele>1114.6</ele></trkpt><trkpt lat="45.971517" lon="10.279873"><time>2025-04-28T07:44:38.000Z</time><ele>1114.6</ele></trkpt><trkpt lat="45.971521" lon="10.279868"><time>2025-04-28T07:44:39.000Z</time><ele>1114.6</ele></trkpt><trkpt lat="45.971529" lon="10.279858"><time>2025-04-28T07:44:40.000Z</time><ele>1114.6</ele></trkpt><trkpt lat="45.971539" lon="10.279856"><time>2025-04-28T07:44:41.000Z</time><ele>1114.4</ele></trkpt><trkpt lat="45.971544" lon="10.279858"><time>2025-04-28T07:44:42.000Z</time><ele>1114.2</ele></trkpt><trkpt lat="45.971544" lon="10.27986"><time>2025-04-28T07:44:43.000Z</time><ele>1114.2</ele></trkpt><trkpt lat="45.971559" lon="10.279862"><time>2025-04-28T07:44:44.000Z</time><ele>1113.8</ele></trkpt><trkpt lat="45.971574" lon="10.279868"><time>2025-04-28T07:44:45.000Z</time><ele>1113.6</ele></trkpt><trkpt lat="45.971601" lon="10.279868"><time>2025-04-28T07:44:46.000Z</time><ele>1113.4</ele></trkpt><trkpt lat="45.971608" lon="10.279856"><time>2025-04-28T07:44:47.000Z</time><ele>1113.2</ele></trkpt><trkpt lat="45.971598" lon="10.27984"><time>2025-04-28T07:44:48.000Z</time><ele>1113</ele></trkpt><trkpt lat="45.971577" lon="10.279811"><time>2025-04-28T07:44:49.000Z</time><ele>1112.8</ele></trkpt><trkpt lat="45.971591" lon="10.2798"><time>2025-04-28T07:44:50.000Z</time><ele>1112.6</ele></trkpt><trkpt lat="45.971618" lon="10.279805"><time>2025-04-28T07:44:51.000Z</time><ele>1112.4</ele></trkpt><trkpt lat="45.971665" lon="10.27982"><time>2025-04-28T07:44:52.000Z</time><ele>1112</ele></trkpt><trkpt lat="45.97171" lon="10.279822"><time>2025-04-28T07:44:53.000Z</time><ele>1111.8</ele></trkpt><trkpt lat="45.971733" lon="10.279823"><time>2025-04-28T07:44:54.000Z</time><ele>1111.6</ele></trkpt><trkpt lat="45.97175" lon="10.279825"><time>2025-04-28T07:44:55.000Z</time><ele>1111.2</ele></trkpt><trkpt lat="45.971761" lon="10.279833"><time>2025-04-28T07:44:56.000Z</time><ele>1111</ele></trkpt><trkpt lat="45.97178" lon="10.279841"><time>2025-04-28T07:44:57.000Z</time><ele>1111</ele></trkpt><trkpt lat="45.971801" lon="10.27985"><time>2025-04-28T07:44:58.000Z</time><ele>1110.8</ele></trkpt><trkpt lat="45.971818" lon="10.279848"><time>2025-04-28T07:44:59.000Z</time><ele>1110.8</ele></trkpt><trkpt lat="45.971838" lon="10.279846"><time>2025-04-28T07:45:00.000Z</time><ele>1110.8</ele></trkpt><trkpt lat="45.971841" lon="10.279832"><time>2025-04-28T07:45:01.000Z</time><ele>1110.6</ele></trkpt><trkpt lat="45.971843" lon="10.279821"><time>2025-04-28T07:45:02.000Z</time><ele>1110.6</ele></trkpt><trkpt lat="45.971839" lon="10.279805"><time>2025-04-28T07:45:03.000Z</time><ele>1110.6</ele></trkpt><trkpt lat="45.971847" lon="10.279785"><time>2025-04-28T07:45:04.000Z</time><ele>1110.4</ele></trkpt><trkpt lat="45.971865" lon="10.279775"><time>2025-04-28T07:45:05.000Z</time><ele>1110.4</ele></trkpt><trkpt lat="45.971885" lon="10.279769"><time>2025-04-28T07:45:06.000Z</time><ele>1110.4</ele></trkpt><trkpt lat="45.971898" lon="10.279765"><time>2025-04-28T07:45:07.000Z</time><ele>1110.4</ele></trkpt><trkpt lat="45.97191" lon="10.279758"><time>2025-04-28T07:45:08.000Z</time><ele>1110.4</ele></trkpt><trkpt lat="45.971926" lon="10.279753"><time>2025-04-28T07:45:09.000Z</time><ele>1110.4</ele></trkpt><trkpt lat="45.971943" lon="10.279745"><time>2025-04-28T07:45:10.000Z</time><ele>1110.4</ele></trkpt><trkpt lat="45.971949" lon="10.279729"><time>2025-04-28T07:45:11.000Z</time><ele>1110.4</ele></trkpt><trkpt lat="45.971954" lon="10.279712"><time>2025-04-28T07:45:12.000Z</time><ele>1110.4</ele></trkpt><trkpt lat="45.971962" lon="10.279698"><time>2025-04-28T07:45:13.000Z</time><ele>1110.4</ele></trkpt><trkpt lat="45.971967" lon="10.279687"><time>2025-04-28T07:45:14.000Z</time><ele>1110.4</ele></trkpt><trkpt lat="45.971971" lon="10.279671"><time>2025-04-28T07:45:15.000Z</time><ele>1110.4</ele></trkpt><trkpt lat="45.971982" lon="10.279658"><time>2025-04-28T07:45:16.000Z</time><ele>1110.2</ele></trkpt><trkpt lat="45.971995" lon="10.279643"><time>2025-04-28T07:45:17.000Z</time><ele>1110.2</ele></trkpt><trkpt lat="45.97201" lon="10.279636"><time>2025-04-28T07:45:18.000Z</time><ele>1110.2</ele></trkpt><trkpt lat="45.972023" lon="10.279625"><time>2025-04-28T07:45:19.000Z</time><ele>1110.2</ele></trkpt><trkpt lat="45.972031" lon="10.279607"><time>2025-04-28T07:45:20.000Z</time><ele>1110</ele></trkpt><trkpt lat="45.972047" lon="10.279587"><time>2025-04-28T07:45:21.000Z</time><ele>1109.8</ele></trkpt><trkpt lat="45.972073" lon="10.279575"><time>2025-04-28T07:45:22.000Z</time><ele>1109.8</ele></trkpt><trkpt lat="45.972084" lon="10.279563"><time>2025-04-28T07:45:23.000Z</time><ele>1109.6</ele></trkpt><trkpt lat="45.972108" lon="10.279555"><time>2025-04-28T07:45:24.000Z</time><ele>1109.6</ele></trkpt><trkpt lat="45.972113" lon="10.279538"><time>2025-04-28T07:45:25.000Z</time><ele>1109.4</ele></trkpt><trkpt lat="45.972118" lon="10.279518"><time>2025-04-28T07:45:26.000Z</time><ele>1109.4</ele></trkpt><trkpt lat="45.972125" lon="10.279499"><time>2025-04-28T07:45:27.000Z</time><ele>1109.2</ele></trkpt><trkpt lat="45.972147" lon="10.279474"><time>2025-04-28T07:45:28.000Z</time><ele>1109.2</ele></trkpt><trkpt lat="45.972164" lon="10.279457"><time>2025-04-28T07:45:29.000Z</time><ele>1108.8</ele></trkpt><trkpt lat="45.972178" lon="10.279443"><time>2025-04-28T07:45:30.000Z</time><ele>1108.6</ele></trkpt><trkpt lat="45.972197" lon="10.279433"><time>2025-04-28T07:45:31.000Z</time><ele>1108.6</ele></trkpt><trkpt lat="45.972208" lon="10.279419"><time>2025-04-28T07:45:32.000Z</time><ele>1108.4</ele></trkpt><trkpt lat="45.972226" lon="10.279405"><time>2025-04-28T07:45:33.000Z</time><ele>1108.2</ele></trkpt><trkpt lat="45.972233" lon="10.279393"><time>2025-04-28T07:45:34.000Z</time><ele>1108.2</ele></trkpt><trkpt lat="45.972227" lon="10.279373"><time>2025-04-28T07:45:35.000Z</time><ele>1108</ele></trkpt><trkpt lat="45.972225" lon="10.279357"><time>2025-04-28T07:45:36.000Z</time><ele>1108</ele></trkpt><trkpt lat="45.972217" lon="10.279355"><time>2025-04-28T07:45:37.000Z</time><ele>1108</ele></trkpt><trkpt lat="45.972225" lon="10.279348"><time>2025-04-28T07:45:38.000Z</time><ele>1108</ele></trkpt><trkpt lat="45.972235" lon="10.279338"><time>2025-04-28T07:45:39.000Z</time><ele>1108</ele></trkpt><trkpt lat="45.972258" lon="10.27933"><time>2025-04-28T07:45:40.000Z</time><ele>1108</ele></trkpt><trkpt lat="45.972279" lon="10.279318"><time>2025-04-28T07:45:41.000Z</time><ele>1108</ele></trkpt><trkpt lat="45.972289" lon="10.279305"><time>2025-04-28T07:45:42.000Z</time><ele>1108</ele></trkpt><trkpt lat="45.972297" lon="10.279298"><time>2025-04-28T07:45:43.000Z</time><ele>1108</ele></trkpt><trkpt lat="45.972308" lon="10.279295"><time>2025-04-28T07:45:44.000Z</time><ele>1108</ele></trkpt><trkpt lat="45.972316" lon="10.279294"><time>2025-04-28T07:45:45.000Z</time><ele>1108</ele></trkpt><trkpt lat="45.972328" lon="10.279291"><time>2025-04-28T07:45:46.000Z</time><ele>1108.2</ele></trkpt><trkpt lat="45.972347" lon="10.279288"><time>2025-04-28T07:45:47.000Z</time><ele>1108.2</ele></trkpt><trkpt lat="45.972364" lon="10.279278"><time>2025-04-28T07:45:48.000Z</time><ele>1108.4</ele></trkpt><trkpt lat="45.972373" lon="10.279266"><time>2025-04-28T07:45:49.000Z</time><ele>1108.4</ele></trkpt><trkpt lat="45.972383" lon="10.279259"><time>2025-04-28T07:45:50.000Z</time><ele>1108.4</ele></trkpt><trkpt lat="45.972399" lon="10.279249"><time>2025-04-28T07:45:51.000Z</time><ele>1108.6</ele></trkpt><trkpt lat="45.972418" lon="10.279241"><time>2025-04-28T07:45:52.000Z</time><ele>1108.6</ele></trkpt><trkpt lat="45.972436" lon="10.279233"><time>2025-04-28T07:45:53.000Z</time><ele>1108.6</ele></trkpt><trkpt lat="45.97245" lon="10.279226"><time>2025-04-28T07:45:54.000Z</time><ele>1108.8</ele></trkpt><trkpt lat="45.972462" lon="10.27922"><time>2025-04-28T07:45:55.000Z</time><ele>1108.8</ele></trkpt><trkpt lat="45.972466" lon="10.279211"><time>2025-04-28T07:45:56.000Z</time><ele>1108.8</ele></trkpt><trkpt lat="45.972472" lon="10.279202"><time>2025-04-28T07:45:57.000Z</time><ele>1109</ele></trkpt><trkpt lat="45.972471" lon="10.279195"><time>2025-04-28T07:45:58.000Z</time><ele>1109.2</ele></trkpt><trkpt lat="45.972478" lon="10.279179"><time>2025-04-28T07:45:59.000Z</time><ele>1109.2</ele></trkpt><trkpt lat="45.972482" lon="10.279162"><time>2025-04-28T07:46:00.000Z</time><ele>1109.4</ele></trkpt><trkpt lat="45.972501" lon="10.27916"><time>2025-04-28T07:46:01.000Z</time><ele>1109.4</ele></trkpt><trkpt lat="45.972513" lon="10.279153"><time>2025-04-28T07:46:02.000Z</time><ele>1109.4</ele></trkpt><trkpt lat="45.972526" lon="10.279139"><time>2025-04-28T07:46:03.000Z</time><ele>1109.6</ele></trkpt><trkpt lat="45.972531" lon="10.279121"><time>2025-04-28T07:46:04.000Z</time><ele>1109.6</ele></trkpt><trkpt lat="45.972523" lon="10.279101"><time>2025-04-28T07:46:05.000Z</time><ele>1109.6</ele></trkpt><trkpt lat="45.972525" lon="10.279081"><time>2025-04-28T07:46:06.000Z</time><ele>1109.8</ele></trkpt><trkpt lat="45.972527" lon="10.279062"><time>2025-04-28T07:46:07.000Z</time><ele>1109.8</ele></trkpt><trkpt lat="45.972525" lon="10.279043"><time>2025-04-28T07:46:08.000Z</time><ele>1109.8</ele></trkpt><trkpt lat="45.972523" lon="10.279033"><time>2025-04-28T07:46:09.000Z</time><ele>1109.8</ele></trkpt><trkpt lat="45.972527" lon="10.279019"><time>2025-04-28T07:46:10.000Z</time><ele>1109.6</ele></trkpt><trkpt lat="45.972531" lon="10.279006"><time>2025-04-28T07:46:11.000Z</time><ele>1109.6</ele></trkpt><trkpt lat="45.972531" lon="10.279001"><time>2025-04-28T07:46:12.000Z</time><ele>1109.6</ele></trkpt><trkpt lat="45.972525" lon="10.278983"><time>2025-04-28T07:46:13.000Z</time><ele>1109.6</ele></trkpt><trkpt lat="45.972519" lon="10.278965"><time>2025-04-28T07:46:14.000Z</time><ele>1109.6</ele></trkpt><trkpt lat="45.972517" lon="10.278948"><time>2025-04-28T07:46:15.000Z</time><ele>1109.6</ele></trkpt><trkpt lat="45.972517" lon="10.278945"><time>2025-04-28T07:46:16.000Z</time><ele>1109.6</ele></trkpt><trkpt lat="45.972517" lon="10.278931"><time>2025-04-28T07:46:17.000Z</time><ele>1109.8</ele></trkpt><trkpt lat="45.972511" lon="10.278916"><time>2025-04-28T07:46:18.000Z</time><ele>1109.8</ele></trkpt><trkpt lat="45.972503" lon="10.278897"><time>2025-04-28T07:46:19.000Z</time><ele>1109.8</ele></trkpt><trkpt lat="45.972502" lon="10.278885"><time>2025-04-28T07:46:20.000Z</time><ele>1109.8</ele></trkpt><trkpt lat="45.9725" lon="10.278874"><time>2025-04-28T07:46:21.000Z</time><ele>1109.8</ele></trkpt><trkpt lat="45.972511" lon="10.278861"><time>2025-04-28T07:46:22.000Z</time><ele>1110</ele></trkpt><trkpt lat="45.972518" lon="10.278853"><time>2025-04-28T07:46:23.000Z</time><ele>1110</ele></trkpt><trkpt lat="45.972525" lon="10.278847"><time>2025-04-28T07:46:24.000Z</time><ele>1110</ele></trkpt><trkpt lat="45.972534" lon="10.278833"><time>2025-04-28T07:46:25.000Z</time><ele>1110</ele></trkpt><trkpt lat="45.972543" lon="10.278817"><time>2025-04-28T07:46:26.000Z</time><ele>1110</ele></trkpt><trkpt lat="45.972543" lon="10.278797"><time>2025-04-28T07:46:27.000Z</time><ele>1110.2</ele></trkpt><trkpt lat="45.972543" lon="10.278779"><time>2025-04-28T07:46:28.000Z</time><ele>1110.2</ele></trkpt><trkpt lat="45.97254" lon="10.278757"><time>2025-04-28T07:46:29.000Z</time><ele>1110.2</ele></trkpt><trkpt lat="45.972536" lon="10.278742"><time>2025-04-28T07:46:30.000Z</time><ele>1110.4</ele></trkpt><trkpt lat="45.972543" lon="10.278727"><time>2025-04-28T07:46:31.000Z</time><ele>1110.6</ele></trkpt><trkpt lat="45.972537" lon="10.278705"><time>2025-04-28T07:46:32.000Z</time><ele>1110.6</ele></trkpt><trkpt lat="45.972524" lon="10.278679"><time>2025-04-28T07:46:33.000Z</time><ele>1110.6</ele></trkpt><trkpt lat="45.972512" lon="10.278662"><time>2025-04-28T07:46:34.000Z</time><ele>1110.8</ele></trkpt><trkpt lat="45.972524" lon="10.278639"><time>2025-04-28T07:46:35.000Z</time><ele>1111</ele></trkpt><trkpt lat="45.972527" lon="10.27862"><time>2025-04-28T07:46:36.000Z</time><ele>1111</ele></trkpt><trkpt lat="45.97254" lon="10.27861"><time>2025-04-28T07:46:37.000Z</time><ele>1111.2</ele></trkpt><trkpt lat="45.972551" lon="10.2786"><time>2025-04-28T07:46:38.000Z</time><ele>1111.2</ele></trkpt><trkpt lat="45.972563" lon="10.278582"><time>2025-04-28T07:46:39.000Z</time><ele>1111.4</ele></trkpt><trkpt lat="45.972565" lon="10.278567"><time>2025-04-28T07:46:40.000Z</time><ele>1111.4</ele></trkpt><trkpt lat="45.972566" lon="10.278549"><time>2025-04-28T07:46:41.000Z</time><ele>1111.6</ele></trkpt><trkpt lat="45.972574" lon="10.278537"><time>2025-04-28T07:46:42.000Z</time><ele>1111.6</ele></trkpt><trkpt lat="45.972577" lon="10.278525"><time>2025-04-28T07:46:43.000Z</time><ele>1111.6</ele></trkpt><trkpt lat="45.972582" lon="10.278514"><time>2025-04-28T07:46:44.000Z</time><ele>1111.8</ele></trkpt><trkpt lat="45.972591" lon="10.278503"><time>2025-04-28T07:46:45.000Z</time><ele>1112</ele></trkpt><trkpt lat="45.97259" lon="10.278487"><time>2025-04-28T07:46:46.000Z</time><ele>1112.4</ele></trkpt><trkpt lat="45.9726" lon="10.278476"><time>2025-04-28T07:46:47.000Z</time><ele>1112.6</ele></trkpt><trkpt lat="45.972604" lon="10.278464"><time>2025-04-28T07:46:48.000Z</time><ele>1112.8</ele></trkpt><trkpt lat="45.972602" lon="10.278443"><time>2025-04-28T07:46:49.000Z</time><ele>1113</ele></trkpt><trkpt lat="45.972609" lon="10.278423"><time>2025-04-28T07:46:50.000Z</time><ele>1113</ele></trkpt><trkpt lat="45.972624" lon="10.278414"><time>2025-04-28T07:46:51.000Z</time><ele>1113.2</ele></trkpt><trkpt lat="45.972626" lon="10.278404"><time>2025-04-28T07:46:52.000Z</time><ele>1113.2</ele></trkpt><trkpt lat="45.97263" lon="10.278397"><time>2025-04-28T07:46:53.000Z</time><ele>1113.6</ele></trkpt><trkpt lat="45.972626" lon="10.27839"><time>2025-04-28T07:46:54.000Z</time><ele>1113.8</ele></trkpt><trkpt lat="45.972619" lon="10.278371"><time>2025-04-28T07:46:55.000Z</time><ele>1114</ele></trkpt><trkpt lat="45.972616" lon="10.278363"><time>2025-04-28T07:46:56.000Z</time><ele>1114.4</ele></trkpt><trkpt lat="45.972633" lon="10.278355"><time>2025-04-28T07:46:57.000Z</time><ele>1114.6</ele></trkpt><trkpt lat="45.972641" lon="10.278345"><time>2025-04-28T07:46:58.000Z</time><ele>1114.8</ele></trkpt><trkpt lat="45.972655" lon="10.278341"><time>2025-04-28T07:46:59.000Z</time><ele>1114.8</ele></trkpt><trkpt lat="45.972655" lon="10.278335"><time>2025-04-28T07:47:00.000Z</time><ele>1115</ele></trkpt><trkpt lat="45.972651" lon="10.278325"><time>2025-04-28T07:47:01.000Z</time><ele>1115</ele></trkpt><trkpt lat="45.972648" lon="10.278314"><time>2025-04-28T07:47:02.000Z</time><ele>1115</ele></trkpt><trkpt lat="45.972639" lon="10.278307"><time>2025-04-28T07:47:03.000Z</time><ele>1115</ele></trkpt><trkpt lat="45.972639" lon="10.278295"><time>2025-04-28T07:47:04.000Z</time><ele>1115.2</ele></trkpt><trkpt lat="45.972638" lon="10.278283"><time>2025-04-28T07:47:05.000Z</time><ele>1115.2</ele></trkpt><trkpt lat="45.972634" lon="10.278268"><time>2025-04-28T07:47:06.000Z</time><ele>1115.4</ele></trkpt><trkpt lat="45.972614" lon="10.278251"><time>2025-04-28T07:47:07.000Z</time><ele>1115.6</ele></trkpt><trkpt lat="45.972607" lon="10.278236"><time>2025-04-28T07:47:08.000Z</time><ele>1115.6</ele></trkpt><trkpt lat="45.972606" lon="10.278221"><time>2025-04-28T07:47:09.000Z</time><ele>1115.8</ele></trkpt><trkpt lat="45.972592" lon="10.278213"><time>2025-04-28T07:47:10.000Z</time><ele>1116</ele></trkpt><trkpt lat="45.972586" lon="10.2782"><time>2025-04-28T07:47:11.000Z</time><ele>1116.2</ele></trkpt><trkpt lat="45.972573" lon="10.278184"><time>2025-04-28T07:47:12.000Z</time><ele>1116.2</ele></trkpt><trkpt lat="45.972575" lon="10.278168"><time>2025-04-28T07:47:13.000Z</time><ele>1116.6</ele></trkpt><trkpt lat="45.972585" lon="10.278159"><time>2025-04-28T07:47:14.000Z</time><ele>1116.8</ele></trkpt><trkpt lat="45.972592" lon="10.278153"><time>2025-04-28T07:47:15.000Z</time><ele>1117.2</ele></trkpt><trkpt lat="45.972592" lon="10.278144"><time>2025-04-28T07:47:16.000Z</time><ele>1117.4</ele></trkpt><trkpt lat="45.972593" lon="10.278133"><time>2025-04-28T07:47:17.000Z</time><ele>1117.6</ele></trkpt><trkpt lat="45.972592" lon="10.278122"><time>2025-04-28T07:47:18.000Z</time><ele>1117.8</ele></trkpt><trkpt lat="45.972573" lon="10.278108"><time>2025-04-28T07:47:19.000Z</time><ele>1117.8</ele></trkpt><trkpt lat="45.972573" lon="10.278091"><time>2025-04-28T07:47:20.000Z</time><ele>1118.2</ele></trkpt><trkpt lat="45.972587" lon="10.278101"><time>2025-04-28T07:47:21.000Z</time><ele>1118.4</ele></trkpt><trkpt lat="45.972588" lon="10.278097"><time>2025-04-28T07:47:22.000Z</time><ele>1118.6</ele></trkpt><trkpt lat="45.972589" lon="10.278093"><time>2025-04-28T07:47:23.000Z</time><ele>1118.8</ele></trkpt><trkpt lat="45.972606" lon="10.278084"><time>2025-04-28T07:47:24.000Z</time><ele>1119.2</ele></trkpt><trkpt lat="45.972621" lon="10.278076"><time>2025-04-28T07:47:25.000Z</time><ele>1119.4</ele></trkpt><trkpt lat="45.972637" lon="10.278069"><time>2025-04-28T07:47:26.000Z</time><ele>1119.4</ele></trkpt><trkpt lat="45.972644" lon="10.27806"><time>2025-04-28T07:47:27.000Z</time><ele>1119.6</ele></trkpt><trkpt lat="45.972643" lon="10.278049"><time>2025-04-28T07:47:28.000Z</time><ele>1119.8</ele></trkpt><trkpt lat="45.972634" lon="10.278038"><time>2025-04-28T07:47:29.000Z</time><ele>1120.2</ele></trkpt><trkpt lat="45.972636" lon="10.27804"><time>2025-04-28T07:47:30.000Z</time><ele>1120.2</ele></trkpt><trkpt lat="45.97264" lon="10.278041"><time>2025-04-28T07:47:31.000Z</time><ele>1120.4</ele></trkpt><trkpt lat="45.972644" lon="10.278031"><time>2025-04-28T07:47:32.000Z</time><ele>1120.6</ele></trkpt><trkpt lat="45.972647" lon="10.278017"><time>2025-04-28T07:47:33.000Z</time><ele>1120.6</ele></trkpt><trkpt lat="45.972653" lon="10.277998"><time>2025-04-28T07:47:34.000Z</time><ele>1120.6</ele></trkpt><trkpt lat="45.972666" lon="10.277973"><time>2025-04-28T07:47:35.000Z</time><ele>1120.6</ele></trkpt><trkpt lat="45.972683" lon="10.27795"><time>2025-04-28T07:47:36.000Z</time><ele>1120.6</ele></trkpt><trkpt lat="45.97269" lon="10.277932"><time>2025-04-28T07:47:37.000Z</time><ele>1120.8</ele></trkpt><trkpt lat="45.972693" lon="10.277921"><time>2025-04-28T07:47:38.000Z</time><ele>1120.8</ele></trkpt><trkpt lat="45.972698" lon="10.277908"><time>2025-04-28T07:47:39.000Z</time><ele>1121</ele></trkpt><trkpt lat="45.972709" lon="10.277895"><time>2025-04-28T07:47:40.000Z</time><ele>1121</ele></trkpt><trkpt lat="45.97271" lon="10.27789"><time>2025-04-28T07:47:41.000Z</time><ele>1121</ele></trkpt><trkpt lat="45.972713" lon="10.277884"><time>2025-04-28T07:47:42.000Z</time><ele>1121</ele></trkpt><trkpt lat="45.972715" lon="10.277879"><time>2025-04-28T07:47:43.000Z</time><ele>1121</ele></trkpt><trkpt lat="45.97272" lon="10.277866"><time>2025-04-28T07:47:44.000Z</time><ele>1121</ele></trkpt><trkpt lat="45.972724" lon="10.277862"><time>2025-04-28T07:47:45.000Z</time><ele>1121</ele></trkpt><trkpt lat="45.972719" lon="10.277853"><time>2025-04-28T07:47:46.000Z</time><ele>1121.2</ele></trkpt><trkpt lat="45.972718" lon="10.277843"><time>2025-04-28T07:47:47.000Z</time><ele>1121.2</ele></trkpt><trkpt lat="45.972719" lon="10.277837"><time>2025-04-28T07:47:48.000Z</time><ele>1121.4</ele></trkpt><trkpt lat="45.972716" lon="10.277836"><time>2025-04-28T07:47:49.000Z</time><ele>1121.6</ele></trkpt><trkpt lat="45.972715" lon="10.277833"><time>2025-04-28T07:47:50.000Z</time><ele>1121.6</ele></trkpt><trkpt lat="45.97272" lon="10.277828"><time>2025-04-28T07:47:51.000Z</time><ele>1121.6</ele></trkpt><trkpt lat="45.972721" lon="10.277827"><time>2025-04-28T07:47:52.000Z</time><ele>1121.8</ele></trkpt><trkpt lat="45.972723" lon="10.277825"><time>2025-04-28T07:47:53.000Z</time><ele>1121.8</ele></trkpt><trkpt lat="45.972725" lon="10.277823"><time>2025-04-28T07:47:54.000Z</time><ele>1121.8</ele></trkpt><trkpt lat="45.972728" lon="10.277815"><time>2025-04-28T07:47:56.000Z</time><ele>1121.8</ele></trkpt><trkpt lat="45.972715" lon="10.277802"><time>2025-04-28T07:47:57.000Z</time><ele>1121.4</ele></trkpt><trkpt lat="45.972714" lon="10.2778"><time>2025-04-28T07:47:58.000Z</time><ele>1121.4</ele></trkpt><trkpt lat="45.972713" lon="10.277799"><time>2025-04-28T07:47:59.000Z</time><ele>1121.4</ele></trkpt><trkpt lat="45.97272" lon="10.277802"><time>2025-04-28T07:48:00.000Z</time><ele>1121.4</ele></trkpt><trkpt lat="45.97272" lon="10.277802"><time>2025-04-28T07:48:01.000Z</time><ele>1121.4</ele></trkpt><trkpt lat="45.972718" lon="10.277799"><time>2025-04-28T07:48:02.000Z</time><ele>1121.4</ele></trkpt><trkpt lat="45.972718" lon="10.277798"><time>2025-04-28T07:48:03.000Z</time><ele>1121.4</ele></trkpt><trkpt lat="45.972719" lon="10.277797"><time>2025-04-28T07:48:04.000Z</time><ele>1121.4</ele></trkpt><trkpt lat="45.972717" lon="10.277795"><time>2025-04-28T07:48:05.000Z</time><ele>1121.4</ele></trkpt><trkpt lat="45.972714" lon="10.277784"><time>2025-04-28T07:48:06.000Z</time><ele>1121.4</ele></trkpt><trkpt lat="45.972711" lon="10.277778"><time>2025-04-28T07:48:07.000Z</time><ele>1121.4</ele></trkpt><trkpt lat="45.972735" lon="10.27779"><time>2025-04-28T07:48:08.000Z</time><ele>1121.4</ele></trkpt><trkpt lat="45.972738" lon="10.277788"><time>2025-04-28T07:48:09.000Z</time><ele>1121.4</ele></trkpt><trkpt lat="45.97275" lon="10.277787"><time>2025-04-28T07:48:10.000Z</time><ele>1121.4</ele></trkpt><trkpt lat="45.97275" lon="10.277786"><time>2025-04-28T07:48:11.000Z</time><ele>1121.4</ele></trkpt><trkpt lat="45.972751" lon="10.277773"><time>2025-04-28T07:48:12.000Z</time><ele>1121.4</ele></trkpt><trkpt lat="45.972745" lon="10.277757"><time>2025-04-28T07:48:13.000Z</time><ele>1121.4</ele></trkpt><trkpt lat="45.972736" lon="10.277736"><time>2025-04-28T07:48:14.000Z</time><ele>1121.4</ele></trkpt><trkpt lat="45.972729" lon="10.277725"><time>2025-04-28T07:48:15.000Z</time><ele>1121.4</ele></trkpt><trkpt lat="45.972726" lon="10.277722"><time>2025-04-28T07:48:16.000Z</time><ele>1121.4</ele></trkpt><trkpt lat="45.972716" lon="10.277712"><time>2025-04-28T07:48:17.000Z</time><ele>1121.4</ele></trkpt><trkpt lat="45.972709" lon="10.277705"><time>2025-04-28T07:48:18.000Z</time><ele>1121.4</ele></trkpt><trkpt lat="45.972686" lon="10.277691"><time>2025-04-28T07:48:19.000Z</time><ele>1121.4</ele></trkpt><trkpt lat="45.972681" lon="10.277682"><time>2025-04-28T07:48:20.000Z</time><ele>1121.4</ele></trkpt><trkpt lat="45.972693" lon="10.277677"><time>2025-04-28T07:48:21.000Z</time><ele>1121.4</ele></trkpt><trkpt lat="45.9727" lon="10.277674"><time>2025-04-28T07:48:22.000Z</time><ele>1121.4</ele></trkpt><trkpt lat="45.972701" lon="10.27767"><time>2025-04-28T07:48:23.000Z</time><ele>1121.4</ele></trkpt><trkpt lat="45.972705" lon="10.277664"><time>2025-04-28T07:48:24.000Z</time><ele>1121.4</ele></trkpt><trkpt lat="45.972719" lon="10.277657"><time>2025-04-28T07:48:25.000Z</time><ele>1121.4</ele></trkpt><trkpt lat="45.972734" lon="10.277648"><time>2025-04-28T07:48:26.000Z</time><ele>1121.4</ele></trkpt><trkpt lat="45.972742" lon="10.277642"><time>2025-04-28T07:48:27.000Z</time><ele>1121.4</ele></trkpt><trkpt lat="45.972748" lon="10.277639"><time>2025-04-28T07:48:28.000Z</time><ele>1121.4</ele></trkpt><trkpt lat="45.972745" lon="10.277626"><time>2025-04-28T07:48:29.000Z</time><ele>1121.4</ele></trkpt><trkpt lat="45.972741" lon="10.277618"><time>2025-04-28T07:48:30.000Z</time><ele>1121.4</ele></trkpt><trkpt lat="45.972742" lon="10.277614"><time>2025-04-28T07:48:31.000Z</time><ele>1121.4</ele></trkpt><trkpt lat="45.972743" lon="10.277612"><time>2025-04-28T07:48:32.000Z</time><ele>1121.4</ele></trkpt><trkpt lat="45.972745" lon="10.277611"><time>2025-04-28T07:48:33.000Z</time><ele>1121.4</ele></trkpt><trkpt lat="45.972751" lon="10.277606"><time>2025-04-28T07:48:34.000Z</time><ele>1121.4</ele></trkpt><trkpt lat="45.972768" lon="10.277602"><time>2025-04-28T07:48:35.000Z</time><ele>1121.4</ele></trkpt><trkpt lat="45.972768" lon="10.277598"><time>2025-04-28T07:48:36.000Z</time><ele>1121.4</ele></trkpt><trkpt lat="45.972769" lon="10.277593"><time>2025-04-28T07:48:37.000Z</time><ele>1121.4</ele></trkpt><trkpt lat="45.972771" lon="10.277594"><time>2025-04-28T07:48:38.000Z</time><ele>1121.4</ele></trkpt><trkpt lat="45.972772" lon="10.277591"><time>2025-04-28T07:48:39.000Z</time><ele>1123.6</ele></trkpt><trkpt lat="45.972787" lon="10.277587"><time>2025-04-28T07:48:40.000Z</time><ele>1124.8</ele></trkpt><trkpt lat="45.972796" lon="10.277582"><time>2025-04-28T07:48:41.000Z</time><ele>1125.6</ele></trkpt><trkpt lat="45.972797" lon="10.277579"><time>2025-04-28T07:48:42.000Z</time><ele>1126</ele></trkpt><trkpt lat="45.972811" lon="10.27758"><time>2025-04-28T07:48:43.000Z</time><ele>1126.4</ele></trkpt><trkpt lat="45.972826" lon="10.277577"><time>2025-04-28T07:48:44.000Z</time><ele>1126.6</ele></trkpt><trkpt lat="45.972817" lon="10.277571"><time>2025-04-28T07:48:45.000Z</time><ele>1126.8</ele></trkpt><trkpt lat="45.972804" lon="10.277556"><time>2025-04-28T07:48:46.000Z</time><ele>1127</ele></trkpt><trkpt lat="45.972794" lon="10.277543"><time>2025-04-28T07:48:47.000Z</time><ele>1127.2</ele></trkpt><trkpt lat="45.972784" lon="10.27753"><time>2025-04-28T07:48:48.000Z</time><ele>1127.4</ele></trkpt><trkpt lat="45.972778" lon="10.277523"><time>2025-04-28T07:48:49.000Z</time><ele>1127.6</ele></trkpt><trkpt lat="45.972769" lon="10.277511"><time>2025-04-28T07:48:50.000Z</time><ele>1127.8</ele></trkpt><trkpt lat="45.972769" lon="10.277502"><time>2025-04-28T07:48:51.000Z</time><ele>1128</ele></trkpt><trkpt lat="45.972774" lon="10.277492"><time>2025-04-28T07:48:52.000Z</time><ele>1128.2</ele></trkpt><trkpt lat="45.972777" lon="10.277479"><time>2025-04-28T07:48:53.000Z</time><ele>1128.4</ele></trkpt><trkpt lat="45.972784" lon="10.277469"><time>2025-04-28T07:48:54.000Z</time><ele>1128.6</ele></trkpt><trkpt lat="45.972798" lon="10.277463"><time>2025-04-28T07:48:55.000Z</time><ele>1128.8</ele></trkpt><trkpt lat="45.972802" lon="10.277463"><time>2025-04-28T07:48:56.000Z</time><ele>1128.8</ele></trkpt><trkpt lat="45.972827" lon="10.277474"><time>2025-04-28T07:48:57.000Z</time><ele>1129</ele></trkpt><trkpt lat="45.972847" lon="10.277479"><time>2025-04-28T07:48:58.000Z</time><ele>1129.2</ele></trkpt><trkpt lat="45.972855" lon="10.277479"><time>2025-04-28T07:48:59.000Z</time><ele>1129.2</ele></trkpt><trkpt lat="45.972864" lon="10.277467"><time>2025-04-28T07:49:00.000Z</time><ele>1129.6</ele></trkpt><trkpt lat="45.972876" lon="10.277464"><time>2025-04-28T07:49:01.000Z</time><ele>1129.6</ele></trkpt><trkpt lat="45.972875" lon="10.277463"><time>2025-04-28T07:49:02.000Z</time><ele>1129.8</ele></trkpt><trkpt lat="45.972875" lon="10.27746"><time>2025-04-28T07:49:03.000Z</time><ele>1130</ele></trkpt><trkpt lat="45.972872" lon="10.27746"><time>2025-04-28T07:49:04.000Z</time><ele>1130.2</ele></trkpt><trkpt lat="45.972876" lon="10.277456"><time>2025-04-28T07:49:05.000Z</time><ele>1130.4</ele></trkpt><trkpt lat="45.972874" lon="10.277453"><time>2025-04-28T07:49:06.000Z</time><ele>1130.6</ele></trkpt><trkpt lat="45.972876" lon="10.277451"><time>2025-04-28T07:49:07.000Z</time><ele>1131</ele></trkpt><trkpt lat="45.972877" lon="10.277451"><time>2025-04-28T07:49:08.000Z</time><ele>1131.2</ele></trkpt><trkpt lat="45.972896" lon="10.277449"><time>2025-04-28T07:49:09.000Z</time><ele>1131.4</ele></trkpt><trkpt lat="45.972912" lon="10.277458"><time>2025-04-28T07:49:10.000Z</time><ele>1131.4</ele></trkpt><trkpt lat="45.972906" lon="10.277451"><time>2025-04-28T07:49:11.000Z</time><ele>1131.6</ele></trkpt><trkpt lat="45.972906" lon="10.277441"><time>2025-04-28T07:49:12.000Z</time><ele>1131.8</ele></trkpt><trkpt lat="45.972897" lon="10.277433"><time>2025-04-28T07:49:13.000Z</time><ele>1132</ele></trkpt><trkpt lat="45.972895" lon="10.277434"><time>2025-04-28T07:49:14.000Z</time><ele>1132</ele></trkpt><trkpt lat="45.972894" lon="10.277433"><time>2025-04-28T07:49:15.000Z</time><ele>1132.2</ele></trkpt><trkpt lat="45.972905" lon="10.277434"><time>2025-04-28T07:49:16.000Z</time><ele>1132.2</ele></trkpt><trkpt lat="45.972926" lon="10.277437"><time>2025-04-28T07:49:17.000Z</time><ele>1132.6</ele></trkpt><trkpt lat="45.972946" lon="10.277439"><time>2025-04-28T07:49:18.000Z</time><ele>1132.8</ele></trkpt><trkpt lat="45.972945" lon="10.277437"><time>2025-04-28T07:49:19.000Z</time><ele>1132.8</ele></trkpt><trkpt lat="45.972956" lon="10.277438"><time>2025-04-28T07:49:20.000Z</time><ele>1133</ele></trkpt><trkpt lat="45.972966" lon="10.277437"><time>2025-04-28T07:49:21.000Z</time><ele>1133.2</ele></trkpt><trkpt lat="45.972969" lon="10.277436"><time>2025-04-28T07:49:22.000Z</time><ele>1133.4</ele></trkpt><trkpt lat="45.972965" lon="10.27743"><time>2025-04-28T07:49:23.000Z</time><ele>1133.6</ele></trkpt><trkpt lat="45.972957" lon="10.277419"><time>2025-04-28T07:49:24.000Z</time><ele>1133.8</ele></trkpt><trkpt lat="45.972935" lon="10.277396"><time>2025-04-28T07:49:25.000Z</time><ele>1133.8</ele></trkpt><trkpt lat="45.97293" lon="10.277379"><time>2025-04-28T07:49:26.000Z</time><ele>1134</ele></trkpt><trkpt lat="45.972926" lon="10.277362"><time>2025-04-28T07:49:27.000Z</time><ele>1134</ele></trkpt><trkpt lat="45.97292" lon="10.277354"><time>2025-04-28T07:49:28.000Z</time><ele>1134.2</ele></trkpt><trkpt lat="45.972921" lon="10.27735"><time>2025-04-28T07:49:29.000Z</time><ele>1134.4</ele></trkpt><trkpt lat="45.972947" lon="10.277345"><time>2025-04-28T07:49:30.000Z</time><ele>1134.4</ele></trkpt><trkpt lat="45.97296" lon="10.277339"><time>2025-04-28T07:49:31.000Z</time><ele>1134.6</ele></trkpt><trkpt lat="45.972975" lon="10.277337"><time>2025-04-28T07:49:32.000Z</time><ele>1134.6</ele></trkpt><trkpt lat="45.973011" lon="10.277331"><time>2025-04-28T07:49:33.000Z</time><ele>1134.8</ele></trkpt><trkpt lat="45.973052" lon="10.277319"><time>2025-04-28T07:49:34.000Z</time><ele>1134.8</ele></trkpt><trkpt lat="45.973076" lon="10.277308"><time>2025-04-28T07:49:35.000Z</time><ele>1135</ele></trkpt><trkpt lat="45.973081" lon="10.2773"><time>2025-04-28T07:49:36.000Z</time><ele>1135.2</ele></trkpt><trkpt lat="45.973105" lon="10.277307"><time>2025-04-28T07:49:37.000Z</time><ele>1135.2</ele></trkpt><trkpt lat="45.973138" lon="10.277321"><time>2025-04-28T07:49:38.000Z</time><ele>1135.2</ele></trkpt><trkpt lat="45.97316" lon="10.277333"><time>2025-04-28T07:49:39.000Z</time><ele>1135.4</ele></trkpt><trkpt lat="45.97317" lon="10.277332"><time>2025-04-28T07:49:40.000Z</time><ele>1135.4</ele></trkpt><trkpt lat="45.973179" lon="10.27733"><time>2025-04-28T07:49:41.000Z</time><ele>1135.6</ele></trkpt><trkpt lat="45.973185" lon="10.277324"><time>2025-04-28T07:49:42.000Z</time><ele>1135.6</ele></trkpt><trkpt lat="45.973194" lon="10.277321"><time>2025-04-28T07:49:43.000Z</time><ele>1135.8</ele></trkpt><trkpt lat="45.973208" lon="10.277325"><time>2025-04-28T07:49:44.000Z</time><ele>1136</ele></trkpt><trkpt lat="45.973215" lon="10.277319"><time>2025-04-28T07:49:45.000Z</time><ele>1136</ele></trkpt><trkpt lat="45.973191" lon="10.277307"><time>2025-04-28T07:49:46.000Z</time><ele>1136</ele></trkpt><trkpt lat="45.973184" lon="10.277301"><time>2025-04-28T07:49:47.000Z</time><ele>1136</ele></trkpt><trkpt lat="45.973172" lon="10.277284"><time>2025-04-28T07:49:48.000Z</time><ele>1136.2</ele></trkpt><trkpt lat="45.97315" lon="10.277258"><time>2025-04-28T07:49:49.000Z</time><ele>1136.2</ele></trkpt><trkpt lat="45.973129" lon="10.277231"><time>2025-04-28T07:49:50.000Z</time><ele>1136.4</ele></trkpt><trkpt lat="45.973117" lon="10.2772"><time>2025-04-28T07:49:51.000Z</time><ele>1136.4</ele></trkpt><trkpt lat="45.973145" lon="10.277188"><time>2025-04-28T07:49:52.000Z</time><ele>1136.6</ele></trkpt><trkpt lat="45.973187" lon="10.277188"><time>2025-04-28T07:49:53.000Z</time><ele>1136.6</ele></trkpt><trkpt lat="45.973208" lon="10.277177"><time>2025-04-28T07:49:54.000Z</time><ele>1136.8</ele></trkpt><trkpt lat="45.973244" lon="10.277176"><time>2025-04-28T07:49:55.000Z</time><ele>1137</ele></trkpt><trkpt lat="45.973258" lon="10.277182"><time>2025-04-28T07:49:56.000Z</time><ele>1137</ele></trkpt><trkpt lat="45.973271" lon="10.277181"><time>2025-04-28T07:49:57.000Z</time><ele>1137.2</ele></trkpt><trkpt lat="45.973273" lon="10.277175"><time>2025-04-28T07:49:58.000Z</time><ele>1137.2</ele></trkpt><trkpt lat="45.973276" lon="10.277167"><time>2025-04-28T07:49:59.000Z</time><ele>1137.4</ele></trkpt><trkpt lat="45.973282" lon="10.277162"><time>2025-04-28T07:50:00.000Z</time><ele>1137.4</ele></trkpt><trkpt lat="45.973288" lon="10.277153"><time>2025-04-28T07:50:01.000Z</time><ele>1137.6</ele></trkpt><trkpt lat="45.973297" lon="10.27714"><time>2025-04-28T07:50:02.000Z</time><ele>1137.8</ele></trkpt><trkpt lat="45.973303" lon="10.277125"><time>2025-04-28T07:50:03.000Z</time><ele>1137.8</ele></trkpt><trkpt lat="45.973314" lon="10.27711"><time>2025-04-28T07:50:04.000Z</time><ele>1138</ele></trkpt><trkpt lat="45.973319" lon="10.277105"><time>2025-04-28T07:50:05.000Z</time><ele>1138.2</ele></trkpt><trkpt lat="45.973323" lon="10.277101"><time>2025-04-28T07:50:06.000Z</time><ele>1138.4</ele></trkpt><trkpt lat="45.973326" lon="10.277096"><time>2025-04-28T07:50:07.000Z</time><ele>1138.4</ele></trkpt><trkpt lat="45.973329" lon="10.277078"><time>2025-04-28T07:50:08.000Z</time><ele>1138.4</ele></trkpt><trkpt lat="45.973324" lon="10.277065"><time>2025-04-28T07:50:09.000Z</time><ele>1138.6</ele></trkpt><trkpt lat="45.97332" lon="10.277053"><time>2025-04-28T07:50:10.000Z</time><ele>1138.6</ele></trkpt><trkpt lat="45.973329" lon="10.277045"><time>2025-04-28T07:50:11.000Z</time><ele>1138.6</ele></trkpt><trkpt lat="45.97334" lon="10.277037"><time>2025-04-28T07:50:12.000Z</time><ele>1138.8</ele></trkpt><trkpt lat="45.97335" lon="10.277035"><time>2025-04-28T07:50:13.000Z</time><ele>1139</ele></trkpt><trkpt lat="45.973363" lon="10.277033"><time>2025-04-28T07:50:14.000Z</time><ele>1139.2</ele></trkpt><trkpt lat="45.973391" lon="10.277038"><time>2025-04-28T07:50:15.000Z</time><ele>1139.4</ele></trkpt><trkpt lat="45.973425" lon="10.277045"><time>2025-04-28T07:50:16.000Z</time><ele>1139.6</ele></trkpt><trkpt lat="45.973445" lon="10.277045"><time>2025-04-28T07:50:17.000Z</time><ele>1139.8</ele></trkpt><trkpt lat="45.973453" lon="10.277034"><time>2025-04-28T07:50:18.000Z</time><ele>1139.8</ele></trkpt><trkpt lat="45.973458" lon="10.277029"><time>2025-04-28T07:50:19.000Z</time><ele>1140</ele></trkpt><trkpt lat="45.97347" lon="10.277019"><time>2025-04-28T07:50:20.000Z</time><ele>1140</ele></trkpt><trkpt lat="45.973478" lon="10.277011"><time>2025-04-28T07:50:21.000Z</time><ele>1140</ele></trkpt><trkpt lat="45.973486" lon="10.277002"><time>2025-04-28T07:50:22.000Z</time><ele>1140.2</ele></trkpt><trkpt lat="45.973486" lon="10.276996"><time>2025-04-28T07:50:23.000Z</time><ele>1140.2</ele></trkpt><trkpt lat="45.973485" lon="10.276988"><time>2025-04-28T07:50:24.000Z</time><ele>1140.4</ele></trkpt><trkpt lat="45.973491" lon="10.276978"><time>2025-04-28T07:50:25.000Z</time><ele>1140.6</ele></trkpt><trkpt lat="45.973502" lon="10.276977"><time>2025-04-28T07:50:26.000Z</time><ele>1140.6</ele></trkpt><trkpt lat="45.973506" lon="10.276975"><time>2025-04-28T07:50:27.000Z</time><ele>1140.8</ele></trkpt><trkpt lat="45.973513" lon="10.276971"><time>2025-04-28T07:50:28.000Z</time><ele>1141</ele></trkpt><trkpt lat="45.973522" lon="10.276968"><time>2025-04-28T07:50:29.000Z</time><ele>1141</ele></trkpt><trkpt lat="45.973524" lon="10.27697"><time>2025-04-28T07:50:30.000Z</time><ele>1141.2</ele></trkpt><trkpt lat="45.973537" lon="10.276971"><time>2025-04-28T07:50:31.000Z</time><ele>1141.4</ele></trkpt><trkpt lat="45.973544" lon="10.276963"><time>2025-04-28T07:50:32.000Z</time><ele>1141.4</ele></trkpt><trkpt lat="45.973558" lon="10.276953"><time>2025-04-28T07:50:33.000Z</time><ele>1141.6</ele></trkpt><trkpt lat="45.973561" lon="10.276952"><time>2025-04-28T07:50:34.000Z</time><ele>1142</ele></trkpt><trkpt lat="45.973576" lon="10.276949"><time>2025-04-28T07:50:35.000Z</time><ele>1142.2</ele></trkpt><trkpt lat="45.973601" lon="10.276943"><time>2025-04-28T07:50:36.000Z</time><ele>1142.2</ele></trkpt><trkpt lat="45.973616" lon="10.276937"><time>2025-04-28T07:50:37.000Z</time><ele>1142.4</ele></trkpt><trkpt lat="45.973617" lon="10.276933"><time>2025-04-28T07:50:38.000Z</time><ele>1142.8</ele></trkpt><trkpt lat="45.973624" lon="10.276935"><time>2025-04-28T07:50:39.000Z</time><ele>1143</ele></trkpt><trkpt lat="45.973628" lon="10.276947"><time>2025-04-28T07:50:40.000Z</time><ele>1143.2</ele></trkpt><trkpt lat="45.973636" lon="10.27695"><time>2025-04-28T07:50:41.000Z</time><ele>1143.4</ele></trkpt><trkpt lat="45.97365" lon="10.276947"><time>2025-04-28T07:50:42.000Z</time><ele>1143.4</ele></trkpt><trkpt lat="45.973661" lon="10.276947"><time>2025-04-28T07:50:43.000Z</time><ele>1143.6</ele></trkpt><trkpt lat="45.973664" lon="10.276935"><time>2025-04-28T07:50:44.000Z</time><ele>1144</ele></trkpt><trkpt lat="45.973702" lon="10.276935"><time>2025-04-28T07:50:45.000Z</time><ele>1144.2</ele></trkpt><trkpt lat="45.973719" lon="10.276929"><time>2025-04-28T07:50:46.000Z</time><ele>1144.4</ele></trkpt><trkpt lat="45.973732" lon="10.276929"><time>2025-04-28T07:50:47.000Z</time><ele>1144.6</ele></trkpt><trkpt lat="45.973731" lon="10.276925"><time>2025-04-28T07:50:48.000Z</time><ele>1144.8</ele></trkpt><trkpt lat="45.973731" lon="10.276924"><time>2025-04-28T07:50:49.000Z</time><ele>1144.8</ele></trkpt><trkpt lat="45.973734" lon="10.276929"><time>2025-04-28T07:50:50.000Z</time><ele>1145</ele></trkpt><trkpt lat="45.973732" lon="10.276921"><time>2025-04-28T07:50:51.000Z</time><ele>1145</ele></trkpt><trkpt lat="45.973733" lon="10.276916"><time>2025-04-28T07:50:52.000Z</time><ele>1145.2</ele></trkpt><trkpt lat="45.973724" lon="10.276906"><time>2025-04-28T07:50:53.000Z</time><ele>1145.4</ele></trkpt><trkpt lat="45.973722" lon="10.276902"><time>2025-04-28T07:50:54.000Z</time><ele>1145.6</ele></trkpt><trkpt lat="45.973727" lon="10.276893"><time>2025-04-28T07:50:55.000Z</time><ele>1145.8</ele></trkpt><trkpt lat="45.973723" lon="10.27689"><time>2025-04-28T07:50:56.000Z</time><ele>1146</ele></trkpt><trkpt lat="45.97373" lon="10.276888"><time>2025-04-28T07:50:57.000Z</time><ele>1146</ele></trkpt><trkpt lat="45.973737" lon="10.276879"><time>2025-04-28T07:50:58.000Z</time><ele>1146.2</ele></trkpt><trkpt lat="45.97374" lon="10.276875"><time>2025-04-28T07:50:59.000Z</time><ele>1146.4</ele></trkpt><trkpt lat="45.973742" lon="10.276864"><time>2025-04-28T07:51:00.000Z</time><ele>1146.6</ele></trkpt><trkpt lat="45.973745" lon="10.276856"><time>2025-04-28T07:51:01.000Z</time><ele>1146.8</ele></trkpt><trkpt lat="45.973738" lon="10.276837"><time>2025-04-28T07:51:02.000Z</time><ele>1147</ele></trkpt><trkpt lat="45.973726" lon="10.276821"><time>2025-04-28T07:51:03.000Z</time><ele>1147.2</ele></trkpt><trkpt lat="45.973724" lon="10.276814"><time>2025-04-28T07:51:04.000Z</time><ele>1147.2</ele></trkpt><trkpt lat="45.973718" lon="10.276806"><time>2025-04-28T07:51:05.000Z</time><ele>1147.4</ele></trkpt><trkpt lat="45.973709" lon="10.276807"><time>2025-04-28T07:51:06.000Z</time><ele>1147.6</ele></trkpt><trkpt lat="45.973703" lon="10.276805"><time>2025-04-28T07:51:07.000Z</time><ele>1147.6</ele></trkpt><trkpt lat="45.973705" lon="10.2768"><time>2025-04-28T07:51:08.000Z</time><ele>1147.8</ele></trkpt><trkpt lat="45.973704" lon="10.276799"><time>2025-04-28T07:51:09.000Z</time><ele>1148</ele></trkpt><trkpt lat="45.97371" lon="10.276804"><time>2025-04-28T07:51:10.000Z</time><ele>1148.2</ele></trkpt><trkpt lat="45.973709" lon="10.276803"><time>2025-04-28T07:51:11.000Z</time><ele>1148.4</ele></trkpt><trkpt lat="45.973708" lon="10.276799"><time>2025-04-28T07:51:12.000Z</time><ele>1148.6</ele></trkpt><trkpt lat="45.973706" lon="10.276795"><time>2025-04-28T07:51:13.000Z</time><ele>1148.6</ele></trkpt><trkpt lat="45.973703" lon="10.276789"><time>2025-04-28T07:51:14.000Z</time><ele>1148.8</ele></trkpt><trkpt lat="45.973695" lon="10.276786"><time>2025-04-28T07:51:15.000Z</time><ele>1149</ele></trkpt><trkpt lat="45.973685" lon="10.276778"><time>2025-04-28T07:51:16.000Z</time><ele>1149.4</ele></trkpt><trkpt lat="45.973684" lon="10.276776"><time>2025-04-28T07:51:17.000Z</time><ele>1149.6</ele></trkpt><trkpt lat="45.973703" lon="10.276772"><time>2025-04-28T07:51:18.000Z</time><ele>1149.8</ele></trkpt><trkpt lat="45.973717" lon="10.27676"><time>2025-04-28T07:51:19.000Z</time><ele>1150</ele></trkpt><trkpt lat="45.973731" lon="10.276756"><time>2025-04-28T07:51:20.000Z</time><ele>1150</ele></trkpt><trkpt lat="45.97374" lon="10.276752"><time>2025-04-28T07:51:21.000Z</time><ele>1150.2</ele></trkpt><trkpt lat="45.973737" lon="10.27675"><time>2025-04-28T07:51:22.000Z</time><ele>1150.2</ele></trkpt><trkpt lat="45.973739" lon="10.276747"><time>2025-04-28T07:51:23.000Z</time><ele>1150.4</ele></trkpt><trkpt lat="45.973741" lon="10.276745"><time>2025-04-28T07:51:24.000Z</time><ele>1150.4</ele></trkpt><trkpt lat="45.97375" lon="10.276734"><time>2025-04-28T07:51:25.000Z</time><ele>1150.6</ele></trkpt><trkpt lat="45.973761" lon="10.276731"><time>2025-04-28T07:51:26.000Z</time><ele>1151</ele></trkpt><trkpt lat="45.973765" lon="10.276729"><time>2025-04-28T07:51:27.000Z</time><ele>1151.2</ele></trkpt><trkpt lat="45.973776" lon="10.276719"><time>2025-04-28T07:51:28.000Z</time><ele>1151.4</ele></trkpt><trkpt lat="45.973778" lon="10.276703"><time>2025-04-28T07:51:29.000Z</time><ele>1151.6</ele></trkpt><trkpt lat="45.973784" lon="10.276693"><time>2025-04-28T07:51:30.000Z</time><ele>1151.8</ele></trkpt><trkpt lat="45.973785" lon="10.276683"><time>2025-04-28T07:51:31.000Z</time><ele>1151.8</ele></trkpt><trkpt lat="45.973788" lon="10.276674"><time>2025-04-28T07:51:32.000Z</time><ele>1152</ele></trkpt><trkpt lat="45.973794" lon="10.276664"><time>2025-04-28T07:51:33.000Z</time><ele>1152.2</ele></trkpt><trkpt lat="45.973796" lon="10.276658"><time>2025-04-28T07:51:34.000Z</time><ele>1152.2</ele></trkpt><trkpt lat="45.97379" lon="10.276652"><time>2025-04-28T07:51:35.000Z</time><ele>1152.4</ele></trkpt><trkpt lat="45.973801" lon="10.27665"><time>2025-04-28T07:51:36.000Z</time><ele>1152.6</ele></trkpt><trkpt lat="45.973812" lon="10.276643"><time>2025-04-28T07:51:37.000Z</time><ele>1152.8</ele></trkpt><trkpt lat="45.973806" lon="10.276632"><time>2025-04-28T07:51:38.000Z</time><ele>1152.8</ele></trkpt><trkpt lat="45.973775" lon="10.276627"><time>2025-04-28T07:51:39.000Z</time><ele>1153.2</ele></trkpt><trkpt lat="45.973785" lon="10.276623"><time>2025-04-28T07:51:40.000Z</time><ele>1153.2</ele></trkpt><trkpt lat="45.973794" lon="10.276611"><time>2025-04-28T07:51:41.000Z</time><ele>1153.4</ele></trkpt><trkpt lat="45.973798" lon="10.276597"><time>2025-04-28T07:51:42.000Z</time><ele>1153.6</ele></trkpt><trkpt lat="45.973793" lon="10.276576"><time>2025-04-28T07:51:43.000Z</time><ele>1153.8</ele></trkpt><trkpt lat="45.973794" lon="10.27657"><time>2025-04-28T07:51:44.000Z</time><ele>1154</ele></trkpt><trkpt lat="45.973793" lon="10.276567"><time>2025-04-28T07:51:45.000Z</time><ele>1154.2</ele></trkpt><trkpt lat="45.973792" lon="10.276549"><time>2025-04-28T07:51:46.000Z</time><ele>1154.2</ele></trkpt><trkpt lat="45.973789" lon="10.276539"><time>2025-04-28T07:51:47.000Z</time><ele>1154.4</ele></trkpt><trkpt lat="45.973787" lon="10.276533"><time>2025-04-28T07:51:48.000Z</time><ele>1154.6</ele></trkpt><trkpt lat="45.973791" lon="10.276527"><time>2025-04-28T07:51:49.000Z</time><ele>1154.8</ele></trkpt><trkpt lat="45.973788" lon="10.276528"><time>2025-04-28T07:51:50.000Z</time><ele>1155</ele></trkpt><trkpt lat="45.973811" lon="10.276522"><time>2025-04-28T07:51:51.000Z</time><ele>1155.2</ele></trkpt><trkpt lat="45.973828" lon="10.276513"><time>2025-04-28T07:51:52.000Z</time><ele>1155.2</ele></trkpt><trkpt lat="45.973851" lon="10.276502"><time>2025-04-28T07:51:53.000Z</time><ele>1155.4</ele></trkpt><trkpt lat="45.973876" lon="10.276495"><time>2025-04-28T07:51:54.000Z</time><ele>1155.6</ele></trkpt><trkpt lat="45.973878" lon="10.276494"><time>2025-04-28T07:51:55.000Z</time><ele>1155.6</ele></trkpt><trkpt lat="45.973893" lon="10.276493"><time>2025-04-28T07:51:56.000Z</time><ele>1155.8</ele></trkpt><trkpt lat="45.973894" lon="10.276496"><time>2025-04-28T07:51:57.000Z</time><ele>1155.8</ele></trkpt><trkpt lat="45.973903" lon="10.276499"><time>2025-04-28T07:51:58.000Z</time><ele>1156</ele></trkpt><trkpt lat="45.973885" lon="10.276492"><time>2025-04-28T07:51:59.000Z</time><ele>1156.2</ele></trkpt><trkpt lat="45.973883" lon="10.276487"><time>2025-04-28T07:52:00.000Z</time><ele>1156.4</ele></trkpt><trkpt lat="45.973879" lon="10.276476"><time>2025-04-28T07:52:01.000Z</time><ele>1156.4</ele></trkpt><trkpt lat="45.973885" lon="10.276468"><time>2025-04-28T07:52:02.000Z</time><ele>1156.6</ele></trkpt><trkpt lat="45.97388" lon="10.276459"><time>2025-04-28T07:52:03.000Z</time><ele>1156.8</ele></trkpt><trkpt lat="45.97388" lon="10.276455"><time>2025-04-28T07:52:04.000Z</time><ele>1157</ele></trkpt><trkpt lat="45.973872" lon="10.276441"><time>2025-04-28T07:52:05.000Z</time><ele>1157</ele></trkpt><trkpt lat="45.97387" lon="10.276431"><time>2025-04-28T07:52:06.000Z</time><ele>1157.2</ele></trkpt><trkpt lat="45.973871" lon="10.276423"><time>2025-04-28T07:52:07.000Z</time><ele>1157.2</ele></trkpt><trkpt lat="45.973886" lon="10.276413"><time>2025-04-28T07:52:08.000Z</time><ele>1157.4</ele></trkpt><trkpt lat="45.973888" lon="10.276393"><time>2025-04-28T07:52:09.000Z</time><ele>1157.4</ele></trkpt><trkpt lat="45.973897" lon="10.276382"><time>2025-04-28T07:52:10.000Z</time><ele>1157.6</ele></trkpt><trkpt lat="45.973902" lon="10.276372"><time>2025-04-28T07:52:11.000Z</time><ele>1157.8</ele></trkpt><trkpt lat="45.973912" lon="10.276364"><time>2025-04-28T07:52:12.000Z</time><ele>1158</ele></trkpt><trkpt lat="45.973895" lon="10.276355"><time>2025-04-28T07:52:13.000Z</time><ele>1158.2</ele></trkpt><trkpt lat="45.973896" lon="10.276345"><time>2025-04-28T07:52:14.000Z</time><ele>1158.4</ele></trkpt><trkpt lat="45.973896" lon="10.276336"><time>2025-04-28T07:52:15.000Z</time><ele>1158.6</ele></trkpt><trkpt lat="45.973907" lon="10.27633"><time>2025-04-28T07:52:16.000Z</time><ele>1158.8</ele></trkpt><trkpt lat="45.973919" lon="10.276316"><time>2025-04-28T07:52:17.000Z</time><ele>1159</ele></trkpt><trkpt lat="45.97394" lon="10.27631"><time>2025-04-28T07:52:18.000Z</time><ele>1159.2</ele></trkpt><trkpt lat="45.973947" lon="10.276308"><time>2025-04-28T07:52:19.000Z</time><ele>1159.2</ele></trkpt><trkpt lat="45.973961" lon="10.276302"><time>2025-04-28T07:52:20.000Z</time><ele>1159.4</ele></trkpt><trkpt lat="45.973965" lon="10.276297"><time>2025-04-28T07:52:21.000Z</time><ele>1159.6</ele></trkpt><trkpt lat="45.973951" lon="10.276288"><time>2025-04-28T07:52:22.000Z</time><ele>1159.8</ele></trkpt><trkpt lat="45.973938" lon="10.276273"><time>2025-04-28T07:52:23.000Z</time><ele>1160</ele></trkpt><trkpt lat="45.973916" lon="10.276256"><time>2025-04-28T07:52:24.000Z</time><ele>1160</ele></trkpt><trkpt lat="45.97391" lon="10.276255"><time>2025-04-28T07:52:25.000Z</time><ele>1160.2</ele></trkpt><trkpt lat="45.973911" lon="10.276247"><time>2025-04-28T07:52:26.000Z</time><ele>1160.4</ele></trkpt><trkpt lat="45.973925" lon="10.276242"><time>2025-04-28T07:52:27.000Z</time><ele>1160.4</ele></trkpt><trkpt lat="45.97392" lon="10.276234"><time>2025-04-28T07:52:28.000Z</time><ele>1160.6</ele></trkpt><trkpt lat="45.973907" lon="10.276218"><time>2025-04-28T07:52:29.000Z</time><ele>1160.8</ele></trkpt><trkpt lat="45.973893" lon="10.276208"><time>2025-04-28T07:52:30.000Z</time><ele>1160.8</ele></trkpt><trkpt lat="45.973885" lon="10.276195"><time>2025-04-28T07:52:31.000Z</time><ele>1161</ele></trkpt><trkpt lat="45.973875" lon="10.27618"><time>2025-04-28T07:52:32.000Z</time><ele>1161</ele></trkpt><trkpt lat="45.973871" lon="10.276163"><time>2025-04-28T07:52:33.000Z</time><ele>1161.2</ele></trkpt><trkpt lat="45.973876" lon="10.276148"><time>2025-04-28T07:52:34.000Z</time><ele>1161.4</ele></trkpt><trkpt lat="45.973879" lon="10.276137"><time>2025-04-28T07:52:35.000Z</time><ele>1161.4</ele></trkpt><trkpt lat="45.973882" lon="10.276126"><time>2025-04-28T07:52:36.000Z</time><ele>1161.8</ele></trkpt><trkpt lat="45.973883" lon="10.276115"><time>2025-04-28T07:52:37.000Z</time><ele>1161.8</ele></trkpt><trkpt lat="45.973891" lon="10.276103"><time>2025-04-28T07:52:38.000Z</time><ele>1162</ele></trkpt><trkpt lat="45.973891" lon="10.27609"><time>2025-04-28T07:52:39.000Z</time><ele>1162</ele></trkpt><trkpt lat="45.973884" lon="10.276073"><time>2025-04-28T07:52:40.000Z</time><ele>1162.2</ele></trkpt><trkpt lat="45.973879" lon="10.276058"><time>2025-04-28T07:52:41.000Z</time><ele>1162.2</ele></trkpt><trkpt lat="45.973878" lon="10.276043"><time>2025-04-28T07:52:42.000Z</time><ele>1162.4</ele></trkpt><trkpt lat="45.973883" lon="10.276031"><time>2025-04-28T07:52:43.000Z</time><ele>1162.6</ele></trkpt><trkpt lat="45.973883" lon="10.276017"><time>2025-04-28T07:52:44.000Z</time><ele>1162.6</ele></trkpt><trkpt lat="45.973887" lon="10.276013"><time>2025-04-28T07:52:45.000Z</time><ele>1162.8</ele></trkpt><trkpt lat="45.973887" lon="10.276004"><time>2025-04-28T07:52:46.000Z</time><ele>1162.8</ele></trkpt><trkpt lat="45.973888" lon="10.275993"><time>2025-04-28T07:52:47.000Z</time><ele>1163</ele></trkpt><trkpt lat="45.973893" lon="10.275986"><time>2025-04-28T07:52:48.000Z</time><ele>1163</ele></trkpt><trkpt lat="45.973901" lon="10.27598"><time>2025-04-28T07:52:49.000Z</time><ele>1163.2</ele></trkpt><trkpt lat="45.973907" lon="10.275975"><time>2025-04-28T07:52:50.000Z</time><ele>1163.4</ele></trkpt><trkpt lat="45.973919" lon="10.275968"><time>2025-04-28T07:52:51.000Z</time><ele>1163.6</ele></trkpt><trkpt lat="45.973927" lon="10.275959"><time>2025-04-28T07:52:52.000Z</time><ele>1163.6</ele></trkpt><trkpt lat="45.973933" lon="10.275949"><time>2025-04-28T07:52:53.000Z</time><ele>1163.8</ele></trkpt><trkpt lat="45.973949" lon="10.275946"><time>2025-04-28T07:52:54.000Z</time><ele>1163.8</ele></trkpt><trkpt lat="45.973961" lon="10.275939"><time>2025-04-28T07:52:55.000Z</time><ele>1164</ele></trkpt><trkpt lat="45.973969" lon="10.275932"><time>2025-04-28T07:52:56.000Z</time><ele>1164.2</ele></trkpt><trkpt lat="45.973979" lon="10.275931"><time>2025-04-28T07:52:57.000Z</time><ele>1164.4</ele></trkpt><trkpt lat="45.973988" lon="10.275924"><time>2025-04-28T07:52:58.000Z</time><ele>1164.6</ele></trkpt><trkpt lat="45.973998" lon="10.275915"><time>2025-04-28T07:52:59.000Z</time><ele>1164.8</ele></trkpt><trkpt lat="45.974007" lon="10.275904"><time>2025-04-28T07:53:00.000Z</time><ele>1165</ele></trkpt><trkpt lat="45.974017" lon="10.275895"><time>2025-04-28T07:53:01.000Z</time><ele>1165.2</ele></trkpt><trkpt lat="45.974028" lon="10.275886"><time>2025-04-28T07:53:02.000Z</time><ele>1165.4</ele></trkpt><trkpt lat="45.974035" lon="10.275871"><time>2025-04-28T07:53:03.000Z</time><ele>1165.6</ele></trkpt><trkpt lat="45.974033" lon="10.275867"><time>2025-04-28T07:53:04.000Z</time><ele>1166</ele></trkpt><trkpt lat="45.97404" lon="10.275858"><time>2025-04-28T07:53:05.000Z</time><ele>1166.2</ele></trkpt><trkpt lat="45.974054" lon="10.275846"><time>2025-04-28T07:53:06.000Z</time><ele>1166.4</ele></trkpt><trkpt lat="45.974063" lon="10.275834"><time>2025-04-28T07:53:07.000Z</time><ele>1166.6</ele></trkpt><trkpt lat="45.974081" lon="10.275827"><time>2025-04-28T07:53:08.000Z</time><ele>1166.8</ele></trkpt><trkpt lat="45.974081" lon="10.275825"><time>2025-04-28T07:53:09.000Z</time><ele>1166.8</ele></trkpt><trkpt lat="45.974085" lon="10.275815"><time>2025-04-28T07:53:10.000Z</time><ele>1166.8</ele></trkpt><trkpt lat="45.974093" lon="10.275809"><time>2025-04-28T07:53:11.000Z</time><ele>1167</ele></trkpt><trkpt lat="45.974126" lon="10.275809"><time>2025-04-28T07:53:12.000Z</time><ele>1167</ele></trkpt><trkpt lat="45.974146" lon="10.275802"><time>2025-04-28T07:53:13.000Z</time><ele>1167.4</ele></trkpt><trkpt lat="45.974159" lon="10.2758"><time>2025-04-28T07:53:14.000Z</time><ele>1167.6</ele></trkpt><trkpt lat="45.974182" lon="10.275812"><time>2025-04-28T07:53:15.000Z</time><ele>1167.8</ele></trkpt><trkpt lat="45.974192" lon="10.275819"><time>2025-04-28T07:53:16.000Z</time><ele>1168</ele></trkpt><trkpt lat="45.974199" lon="10.275821"><time>2025-04-28T07:53:17.000Z</time><ele>1168</ele></trkpt><trkpt lat="45.974201" lon="10.27582"><time>2025-04-28T07:53:18.000Z</time><ele>1168.2</ele></trkpt><trkpt lat="45.974196" lon="10.275815"><time>2025-04-28T07:53:19.000Z</time><ele>1168.4</ele></trkpt><trkpt lat="45.974192" lon="10.275805"><time>2025-04-28T07:53:20.000Z</time><ele>1168.6</ele></trkpt><trkpt lat="45.974166" lon="10.275784"><time>2025-04-28T07:53:21.000Z</time><ele>1168.6</ele></trkpt><trkpt lat="45.974148" lon="10.275769"><time>2025-04-28T07:53:22.000Z</time><ele>1168.8</ele></trkpt><trkpt lat="45.974149" lon="10.275765"><time>2025-04-28T07:53:23.000Z</time><ele>1169</ele></trkpt><trkpt lat="45.974166" lon="10.275763"><time>2025-04-28T07:53:24.000Z</time><ele>1169.2</ele></trkpt><trkpt lat="45.974174" lon="10.275753"><time>2025-04-28T07:53:25.000Z</time><ele>1169.2</ele></trkpt><trkpt lat="45.974187" lon="10.27574"><time>2025-04-28T07:53:26.000Z</time><ele>1169.4</ele></trkpt><trkpt lat="45.974182" lon="10.275724"><time>2025-04-28T07:53:27.000Z</time><ele>1169.6</ele></trkpt><trkpt lat="45.974178" lon="10.275715"><time>2025-04-28T07:53:28.000Z</time><ele>1169.6</ele></trkpt><trkpt lat="45.974171" lon="10.275704"><time>2025-04-28T07:53:29.000Z</time><ele>1169.8</ele></trkpt><trkpt lat="45.974171" lon="10.275691"><time>2025-04-28T07:53:30.000Z</time><ele>1170</ele></trkpt><trkpt lat="45.97417" lon="10.275679"><time>2025-04-28T07:53:31.000Z</time><ele>1170</ele></trkpt><trkpt lat="45.974161" lon="10.275664"><time>2025-04-28T07:53:32.000Z</time><ele>1170.2</ele></trkpt><trkpt lat="45.974191" lon="10.275656"><time>2025-04-28T07:53:33.000Z</time><ele>1170.4</ele></trkpt><trkpt lat="45.974208" lon="10.275649"><time>2025-04-28T07:53:34.000Z</time><ele>1170.6</ele></trkpt><trkpt lat="45.974222" lon="10.275639"><time>2025-04-28T07:53:35.000Z</time><ele>1170.6</ele></trkpt><trkpt lat="45.974226" lon="10.275632"><time>2025-04-28T07:53:36.000Z</time><ele>1170.8</ele></trkpt><trkpt lat="45.974241" lon="10.275634"><time>2025-04-28T07:53:37.000Z</time><ele>1170.8</ele></trkpt><trkpt lat="45.974254" lon="10.275636"><time>2025-04-28T07:53:38.000Z</time><ele>1171.2</ele></trkpt><trkpt lat="45.974267" lon="10.275641"><time>2025-04-28T07:53:39.000Z</time><ele>1171.2</ele></trkpt><trkpt lat="45.97427" lon="10.275641"><time>2025-04-28T07:53:40.000Z</time><ele>1171.2</ele></trkpt><trkpt lat="45.974287" lon="10.275646"><time>2025-04-28T07:53:41.000Z</time><ele>1171.4</ele></trkpt><trkpt lat="45.974294" lon="10.275648"><time>2025-04-28T07:53:42.000Z</time><ele>1171.4</ele></trkpt><trkpt lat="45.974289" lon="10.275653"><time>2025-04-28T07:53:43.000Z</time><ele>1171.6</ele></trkpt><trkpt lat="45.974305" lon="10.275657"><time>2025-04-28T07:53:44.000Z</time><ele>1171.8</ele></trkpt><trkpt lat="45.974321" lon="10.275657"><time>2025-04-28T07:53:45.000Z</time><ele>1171.8</ele></trkpt><trkpt lat="45.974327" lon="10.275652"><time>2025-04-28T07:53:46.000Z</time><ele>1172</ele></trkpt><trkpt lat="45.974339" lon="10.275656"><time>2025-04-28T07:53:47.000Z</time><ele>1172</ele></trkpt><trkpt lat="45.974353" lon="10.275667"><time>2025-04-28T07:53:48.000Z</time><ele>1172.2</ele></trkpt><trkpt lat="45.974359" lon="10.275675"><time>2025-04-28T07:53:49.000Z</time><ele>1172.2</ele></trkpt><trkpt lat="45.974361" lon="10.275679"><time>2025-04-28T07:53:50.000Z</time><ele>1172.2</ele></trkpt><trkpt lat="45.974331" lon="10.275676"><time>2025-04-28T07:53:51.000Z</time><ele>1172.4</ele></trkpt><trkpt lat="45.974324" lon="10.275677"><time>2025-04-28T07:53:52.000Z</time><ele>1172.6</ele></trkpt><trkpt lat="45.974308" lon="10.275675"><time>2025-04-28T07:53:53.000Z</time><ele>1172.6</ele></trkpt><trkpt lat="45.974301" lon="10.275674"><time>2025-04-28T07:53:54.000Z</time><ele>1172.8</ele></trkpt><trkpt lat="45.974287" lon="10.275665"><time>2025-04-28T07:53:55.000Z</time><ele>1173</ele></trkpt><trkpt lat="45.974277" lon="10.275662"><time>2025-04-28T07:53:56.000Z</time><ele>1173.2</ele></trkpt><trkpt lat="45.974293" lon="10.275672"><time>2025-04-28T07:53:57.000Z</time><ele>1173.6</ele></trkpt><trkpt lat="45.974324" lon="10.275681"><time>2025-04-28T07:53:58.000Z</time><ele>1173.6</ele></trkpt><trkpt lat="45.974334" lon="10.275686"><time>2025-04-28T07:53:59.000Z</time><ele>1173.8</ele></trkpt><trkpt lat="45.974329" lon="10.275683"><time>2025-04-28T07:54:00.000Z</time><ele>1174</ele></trkpt><trkpt lat="45.974339" lon="10.275686"><time>2025-04-28T07:54:01.000Z</time><ele>1174.2</ele></trkpt><trkpt lat="45.974331" lon="10.275688"><time>2025-04-28T07:54:02.000Z</time><ele>1174.2</ele></trkpt><trkpt lat="45.974326" lon="10.27569"><time>2025-04-28T07:54:03.000Z</time><ele>1174.4</ele></trkpt><trkpt lat="45.974319" lon="10.275688"><time>2025-04-28T07:54:04.000Z</time><ele>1174.4</ele></trkpt><trkpt lat="45.974317" lon="10.275687"><time>2025-04-28T07:54:05.000Z</time><ele>1174.6</ele></trkpt><trkpt lat="45.974321" lon="10.275686"><time>2025-04-28T07:54:06.000Z</time><ele>1174.6</ele></trkpt><trkpt lat="45.974336" lon="10.275694"><time>2025-04-28T07:54:07.000Z</time><ele>1175</ele></trkpt><trkpt lat="45.974352" lon="10.275701"><time>2025-04-28T07:54:08.000Z</time><ele>1175.2</ele></trkpt><trkpt lat="45.974366" lon="10.275706"><time>2025-04-28T07:54:09.000Z</time><ele>1175.2</ele></trkpt><trkpt lat="45.974366" lon="10.275706"><time>2025-04-28T07:54:10.000Z</time><ele>1175.4</ele></trkpt><trkpt lat="45.974367" lon="10.275706"><time>2025-04-28T07:54:11.000Z</time><ele>1175.6</ele></trkpt><trkpt lat="45.974367" lon="10.275709"><time>2025-04-28T07:54:12.000Z</time><ele>1175.6</ele></trkpt><trkpt lat="45.974363" lon="10.275711"><time>2025-04-28T07:54:13.000Z</time><ele>1175.6</ele></trkpt><trkpt lat="45.974361" lon="10.275712"><time>2025-04-28T07:54:14.000Z</time><ele>1175.8</ele></trkpt><trkpt lat="45.974366" lon="10.27572"><time>2025-04-28T07:54:15.000Z</time><ele>1176</ele></trkpt><trkpt lat="45.974372" lon="10.275733"><time>2025-04-28T07:54:16.000Z</time><ele>1176</ele></trkpt><trkpt lat="45.974384" lon="10.275742"><time>2025-04-28T07:54:17.000Z</time><ele>1176.2</ele></trkpt><trkpt lat="45.974398" lon="10.275748"><time>2025-04-28T07:54:18.000Z</time><ele>1176.4</ele></trkpt><trkpt lat="45.974388" lon="10.275746"><time>2025-04-28T07:54:19.000Z</time><ele>1176.6</ele></trkpt><trkpt lat="45.974392" lon="10.275745"><time>2025-04-28T07:54:20.000Z</time><ele>1176.8</ele></trkpt><trkpt lat="45.974399" lon="10.275739"><time>2025-04-28T07:54:21.000Z</time><ele>1177</ele></trkpt><trkpt lat="45.974396" lon="10.275733"><time>2025-04-28T07:54:22.000Z</time><ele>1177</ele></trkpt><trkpt lat="45.974392" lon="10.275727"><time>2025-04-28T07:54:23.000Z</time><ele>1177.2</ele></trkpt><trkpt lat="45.974387" lon="10.275722"><time>2025-04-28T07:54:24.000Z</time><ele>1177.4</ele></trkpt><trkpt lat="45.974393" lon="10.275721"><time>2025-04-28T07:54:25.000Z</time><ele>1177.6</ele></trkpt><trkpt lat="45.974395" lon="10.275715"><time>2025-04-28T07:54:26.000Z</time><ele>1177.6</ele></trkpt><trkpt lat="45.974392" lon="10.275711"><time>2025-04-28T07:54:27.000Z</time><ele>1177.8</ele></trkpt><trkpt lat="45.974389" lon="10.275708"><time>2025-04-28T07:54:28.000Z</time><ele>1177.8</ele></trkpt><trkpt lat="45.974402" lon="10.275711"><time>2025-04-28T07:54:29.000Z</time><ele>1178</ele></trkpt><trkpt lat="45.974401" lon="10.275711"><time>2025-04-28T07:54:30.000Z</time><ele>1178</ele></trkpt><trkpt lat="45.974422" lon="10.275707"><time>2025-04-28T07:54:31.000Z</time><ele>1178.2</ele></trkpt><trkpt lat="45.974427" lon="10.275703"><time>2025-04-28T07:54:32.000Z</time><ele>1178.4</ele></trkpt><trkpt lat="45.974437" lon="10.275702"><time>2025-04-28T07:54:33.000Z</time><ele>1178.6</ele></trkpt><trkpt lat="45.974452" lon="10.275702"><time>2025-04-28T07:54:34.000Z</time><ele>1178.8</ele></trkpt><trkpt lat="45.97447" lon="10.275702"><time>2025-04-28T07:54:35.000Z</time><ele>1179.2</ele></trkpt><trkpt lat="45.974476" lon="10.275704"><time>2025-04-28T07:54:36.000Z</time><ele>1179.2</ele></trkpt><trkpt lat="45.974478" lon="10.275701"><time>2025-04-28T07:54:37.000Z</time><ele>1179.4</ele></trkpt><trkpt lat="45.974492" lon="10.275704"><time>2025-04-28T07:54:38.000Z</time><ele>1179.6</ele></trkpt><trkpt lat="45.974494" lon="10.275702"><time>2025-04-28T07:54:39.000Z</time><ele>1179.8</ele></trkpt><trkpt lat="45.974496" lon="10.275701"><time>2025-04-28T07:54:40.000Z</time><ele>1180</ele></trkpt><trkpt lat="45.974503" lon="10.2757"><time>2025-04-28T07:54:41.000Z</time><ele>1180</ele></trkpt><trkpt lat="45.974519" lon="10.275705"><time>2025-04-28T07:54:42.000Z</time><ele>1180.2</ele></trkpt><trkpt lat="45.97454" lon="10.275713"><time>2025-04-28T07:54:43.000Z</time><ele>1180.4</ele></trkpt><trkpt lat="45.974551" lon="10.275715"><time>2025-04-28T07:54:44.000Z</time><ele>1180.4</ele></trkpt><trkpt lat="45.974563" lon="10.275712"><time>2025-04-28T07:54:45.000Z</time><ele>1180.6</ele></trkpt><trkpt lat="45.974513" lon="10.275732"><time>2025-04-28T07:54:46.000Z</time><ele>1180.8</ele></trkpt><trkpt lat="45.974507" lon="10.275738"><time>2025-04-28T07:54:47.000Z</time><ele>1181</ele></trkpt><trkpt lat="45.974505" lon="10.275743"><time>2025-04-28T07:54:48.000Z</time><ele>1181</ele></trkpt><trkpt lat="45.974498" lon="10.275742"><time>2025-04-28T07:54:49.000Z</time><ele>1181.4</ele></trkpt><trkpt lat="45.974497" lon="10.275737"><time>2025-04-28T07:54:50.000Z</time><ele>1181.4</ele></trkpt><trkpt lat="45.974507" lon="10.275736"><time>2025-04-28T07:54:51.000Z</time><ele>1181.6</ele></trkpt><trkpt lat="45.974505" lon="10.275744"><time>2025-04-28T07:54:52.000Z</time><ele>1182</ele></trkpt><trkpt lat="45.974516" lon="10.275754"><time>2025-04-28T07:54:53.000Z</time><ele>1182.2</ele></trkpt><trkpt lat="45.974516" lon="10.275757"><time>2025-04-28T07:54:54.000Z</time><ele>1182.4</ele></trkpt><trkpt lat="45.974526" lon="10.275764"><time>2025-04-28T07:54:55.000Z</time><ele>1182.6</ele></trkpt><trkpt lat="45.974541" lon="10.275772"><time>2025-04-28T07:54:56.000Z</time><ele>1183</ele></trkpt><trkpt lat="45.97456" lon="10.27578"><time>2025-04-28T07:54:57.000Z</time><ele>1183.2</ele></trkpt><trkpt lat="45.974578" lon="10.275788"><time>2025-04-28T07:54:58.000Z</time><ele>1183.2</ele></trkpt><trkpt lat="45.974593" lon="10.275795"><time>2025-04-28T07:54:59.000Z</time><ele>1183.4</ele></trkpt><trkpt lat="45.97461" lon="10.275802"><time>2025-04-28T07:55:00.000Z</time><ele>1183.6</ele></trkpt><trkpt lat="45.974624" lon="10.275809"><time>2025-04-28T07:55:01.000Z</time><ele>1183.8</ele></trkpt><trkpt lat="45.974636" lon="10.275812"><time>2025-04-28T07:55:02.000Z</time><ele>1183.8</ele></trkpt><trkpt lat="45.974646" lon="10.275817"><time>2025-04-28T07:55:03.000Z</time><ele>1184</ele></trkpt><trkpt lat="45.974651" lon="10.275817"><time>2025-04-28T07:55:04.000Z</time><ele>1184.2</ele></trkpt><trkpt lat="45.974661" lon="10.275823"><time>2025-04-28T07:55:05.000Z</time><ele>1184.4</ele></trkpt><trkpt lat="45.974668" lon="10.275831"><time>2025-04-28T07:55:06.000Z</time><ele>1184.8</ele></trkpt><trkpt lat="45.974666" lon="10.275836"><time>2025-04-28T07:55:07.000Z</time><ele>1184.8</ele></trkpt><trkpt lat="45.974665" lon="10.275834"><time>2025-04-28T07:55:08.000Z</time><ele>1185</ele></trkpt><trkpt lat="45.974662" lon="10.275833"><time>2025-04-28T07:55:09.000Z</time><ele>1185</ele></trkpt><trkpt lat="45.974672" lon="10.275839"><time>2025-04-28T07:55:10.000Z</time><ele>1185.2</ele></trkpt><trkpt lat="45.974671" lon="10.275842"><time>2025-04-28T07:55:11.000Z</time><ele>1185.2</ele></trkpt><trkpt lat="45.974669" lon="10.275843"><time>2025-04-28T07:55:12.000Z</time><ele>1185.4</ele></trkpt><trkpt lat="45.974684" lon="10.275845"><time>2025-04-28T07:55:13.000Z</time><ele>1185.6</ele></trkpt><trkpt lat="45.974697" lon="10.275854"><time>2025-04-28T07:55:14.000Z</time><ele>1185.8</ele></trkpt><trkpt lat="45.974706" lon="10.275856"><time>2025-04-28T07:55:15.000Z</time><ele>1186</ele></trkpt><trkpt lat="45.97471" lon="10.275863"><time>2025-04-28T07:55:16.000Z</time><ele>1186.2</ele></trkpt><trkpt lat="45.974711" lon="10.27586"><time>2025-04-28T07:55:17.000Z</time><ele>1186.6</ele></trkpt><trkpt lat="45.974713" lon="10.275861"><time>2025-04-28T07:55:18.000Z</time><ele>1186.6</ele></trkpt><trkpt lat="45.974716" lon="10.275862"><time>2025-04-28T07:55:19.000Z</time><ele>1186.8</ele></trkpt><trkpt lat="45.974719" lon="10.275858"><time>2025-04-28T07:55:20.000Z</time><ele>1187</ele></trkpt><trkpt lat="45.974727" lon="10.275865"><time>2025-04-28T07:55:21.000Z</time><ele>1187</ele></trkpt><trkpt lat="45.974729" lon="10.275866"><time>2025-04-28T07:55:22.000Z</time><ele>1187.2</ele></trkpt><trkpt lat="45.97474" lon="10.275872"><time>2025-04-28T07:55:23.000Z</time><ele>1187.4</ele></trkpt><trkpt lat="45.974749" lon="10.275878"><time>2025-04-28T07:55:24.000Z</time><ele>1187.6</ele></trkpt><trkpt lat="45.974762" lon="10.275884"><time>2025-04-28T07:55:25.000Z</time><ele>1187.8</ele></trkpt><trkpt lat="45.97477" lon="10.275883"><time>2025-04-28T07:55:26.000Z</time><ele>1187.8</ele></trkpt><trkpt lat="45.974781" lon="10.275881"><time>2025-04-28T07:55:27.000Z</time><ele>1188</ele></trkpt><trkpt lat="45.974792" lon="10.275889"><time>2025-04-28T07:55:28.000Z</time><ele>1188.2</ele></trkpt><trkpt lat="45.974801" lon="10.275894"><time>2025-04-28T07:55:29.000Z</time><ele>1188.4</ele></trkpt><trkpt lat="45.974809" lon="10.275898"><time>2025-04-28T07:55:30.000Z</time><ele>1188.8</ele></trkpt><trkpt lat="45.974809" lon="10.275899"><time>2025-04-28T07:55:31.000Z</time><ele>1188.8</ele></trkpt><trkpt lat="45.974814" lon="10.275899"><time>2025-04-28T07:55:32.000Z</time><ele>1189.2</ele></trkpt><trkpt lat="45.974821" lon="10.275902"><time>2025-04-28T07:55:33.000Z</time><ele>1189.2</ele></trkpt><trkpt lat="45.974822" lon="10.275904"><time>2025-04-28T07:55:34.000Z</time><ele>1189.4</ele></trkpt><trkpt lat="45.974831" lon="10.275906"><time>2025-04-28T07:55:35.000Z</time><ele>1189.4</ele></trkpt><trkpt lat="45.974834" lon="10.275913"><time>2025-04-28T07:55:36.000Z</time><ele>1189.6</ele></trkpt><trkpt lat="45.974835" lon="10.27592"><time>2025-04-28T07:55:37.000Z</time><ele>1189.8</ele></trkpt><trkpt lat="45.974843" lon="10.275924"><time>2025-04-28T07:55:38.000Z</time><ele>1189.8</ele></trkpt><trkpt lat="45.974854" lon="10.275932"><time>2025-04-28T07:55:39.000Z</time><ele>1190</ele></trkpt><trkpt lat="45.974857" lon="10.275939"><time>2025-04-28T07:55:40.000Z</time><ele>1190</ele></trkpt><trkpt lat="45.974859" lon="10.275947"><time>2025-04-28T07:55:41.000Z</time><ele>1190.2</ele></trkpt><trkpt lat="45.974871" lon="10.275954"><time>2025-04-28T07:55:42.000Z</time><ele>1190.4</ele></trkpt><trkpt lat="45.974887" lon="10.275963"><time>2025-04-28T07:55:43.000Z</time><ele>1190.6</ele></trkpt><trkpt lat="45.974889" lon="10.275971"><time>2025-04-28T07:55:44.000Z</time><ele>1190.6</ele></trkpt><trkpt lat="45.974887" lon="10.275977"><time>2025-04-28T07:55:45.000Z</time><ele>1190.8</ele></trkpt><trkpt lat="45.974882" lon="10.275988"><time>2025-04-28T07:55:46.000Z</time><ele>1191</ele></trkpt><trkpt lat="45.974885" lon="10.276003"><time>2025-04-28T07:55:47.000Z</time><ele>1191.2</ele></trkpt><trkpt lat="45.974885" lon="10.276022"><time>2025-04-28T07:55:48.000Z</time><ele>1191.4</ele></trkpt><trkpt lat="45.974892" lon="10.276022"><time>2025-04-28T07:55:49.000Z</time><ele>1191.6</ele></trkpt><trkpt lat="45.974891" lon="10.276022"><time>2025-04-28T07:55:50.000Z</time><ele>1191.6</ele></trkpt><trkpt lat="45.974895" lon="10.276029"><time>2025-04-28T07:55:51.000Z</time><ele>1191.6</ele></trkpt><trkpt lat="45.974892" lon="10.276036"><time>2025-04-28T07:55:52.000Z</time><ele>1191.8</ele></trkpt><trkpt lat="45.97489" lon="10.276041"><time>2025-04-28T07:55:53.000Z</time><ele>1192</ele></trkpt><trkpt lat="45.97489" lon="10.276045"><time>2025-04-28T07:55:54.000Z</time><ele>1192.4</ele></trkpt><trkpt lat="45.974893" lon="10.276047"><time>2025-04-28T07:55:55.000Z</time><ele>1192.6</ele></trkpt><trkpt lat="45.9749" lon="10.276057"><time>2025-04-28T07:55:56.000Z</time><ele>1192.8</ele></trkpt><trkpt lat="45.974904" lon="10.276064"><time>2025-04-28T07:55:57.000Z</time><ele>1192.8</ele></trkpt><trkpt lat="45.974907" lon="10.276069"><time>2025-04-28T07:55:58.000Z</time><ele>1193</ele></trkpt><trkpt lat="45.974913" lon="10.27608"><time>2025-04-28T07:55:59.000Z</time><ele>1193</ele></trkpt><trkpt lat="45.974911" lon="10.276083"><time>2025-04-28T07:56:00.000Z</time><ele>1193</ele></trkpt><trkpt lat="45.974909" lon="10.276083"><time>2025-04-28T07:56:01.000Z</time><ele>1193.2</ele></trkpt><trkpt lat="45.974925" lon="10.276085"><time>2025-04-28T07:56:02.000Z</time><ele>1193.2</ele></trkpt><trkpt lat="45.974923" lon="10.276082"><time>2025-04-28T07:56:03.000Z</time><ele>1193.4</ele></trkpt><trkpt lat="45.974924" lon="10.276071"><time>2025-04-28T07:56:04.000Z</time><ele>1193.4</ele></trkpt><trkpt lat="45.97494" lon="10.276066"><time>2025-04-28T07:56:05.000Z</time><ele>1193.6</ele></trkpt><trkpt lat="45.974952" lon="10.276064"><time>2025-04-28T07:56:06.000Z</time><ele>1193.8</ele></trkpt><trkpt lat="45.974964" lon="10.276056"><time>2025-04-28T07:56:07.000Z</time><ele>1193.8</ele></trkpt><trkpt lat="45.974973" lon="10.276053"><time>2025-04-28T07:56:08.000Z</time><ele>1194</ele></trkpt><trkpt lat="45.974979" lon="10.276056"><time>2025-04-28T07:56:09.000Z</time><ele>1194.2</ele></trkpt><trkpt lat="45.974976" lon="10.276057"><time>2025-04-28T07:56:10.000Z</time><ele>1194.4</ele></trkpt><trkpt lat="45.974952" lon="10.276047"><time>2025-04-28T07:56:11.000Z</time><ele>1194.6</ele></trkpt><trkpt lat="45.974958" lon="10.276035"><time>2025-04-28T07:56:12.000Z</time><ele>1195</ele></trkpt><trkpt lat="45.974979" lon="10.276033"><time>2025-04-28T07:56:13.000Z</time><ele>1195</ele></trkpt><trkpt lat="45.975005" lon="10.276038"><time>2025-04-28T07:56:14.000Z</time><ele>1195.2</ele></trkpt><trkpt lat="45.975017" lon="10.276043"><time>2025-04-28T07:56:15.000Z</time><ele>1195.2</ele></trkpt><trkpt lat="45.975013" lon="10.276044"><time>2025-04-28T07:56:16.000Z</time><ele>1195.4</ele></trkpt><trkpt lat="45.975012" lon="10.276056"><time>2025-04-28T07:56:17.000Z</time><ele>1195.4</ele></trkpt><trkpt lat="45.975003" lon="10.276066"><time>2025-04-28T07:56:18.000Z</time><ele>1195.6</ele></trkpt><trkpt lat="45.975006" lon="10.276069"><time>2025-04-28T07:56:19.000Z</time><ele>1196</ele></trkpt><trkpt lat="45.975007" lon="10.27607"><time>2025-04-28T07:56:20.000Z</time><ele>1196.2</ele></trkpt><trkpt lat="45.975008" lon="10.276072"><time>2025-04-28T07:56:21.000Z</time><ele>1196.2</ele></trkpt><trkpt lat="45.97501" lon="10.276077"><time>2025-04-28T07:56:22.000Z</time><ele>1196.4</ele></trkpt><trkpt lat="45.975015" lon="10.27608"><time>2025-04-28T07:56:23.000Z</time><ele>1196.4</ele></trkpt><trkpt lat="45.975017" lon="10.276084"><time>2025-04-28T07:56:24.000Z</time><ele>1196.6</ele></trkpt><trkpt lat="45.975017" lon="10.276089"><time>2025-04-28T07:56:25.000Z</time><ele>1196.6</ele></trkpt><trkpt lat="45.975013" lon="10.276093"><time>2025-04-28T07:56:26.000Z</time><ele>1196.6</ele></trkpt><trkpt lat="45.975013" lon="10.276093"><time>2025-04-28T07:56:27.000Z</time><ele>1196.8</ele></trkpt><trkpt lat="45.974999" lon="10.276091"><time>2025-04-28T07:56:28.000Z</time><ele>1197</ele></trkpt><trkpt lat="45.974992" lon="10.276092"><time>2025-04-28T07:56:29.000Z</time><ele>1197.2</ele></trkpt><trkpt lat="45.974989" lon="10.276093"><time>2025-04-28T07:56:30.000Z</time><ele>1197.6</ele></trkpt><trkpt lat="45.97499" lon="10.276089"><time>2025-04-28T07:56:31.000Z</time><ele>1197.8</ele></trkpt><trkpt lat="45.974996" lon="10.27609"><time>2025-04-28T07:56:32.000Z</time><ele>1197.8</ele></trkpt><trkpt lat="45.975006" lon="10.276096"><time>2025-04-28T07:56:33.000Z</time><ele>1198</ele></trkpt><trkpt lat="45.975015" lon="10.276105"><time>2025-04-28T07:56:34.000Z</time><ele>1198.2</ele></trkpt><trkpt lat="45.975014" lon="10.276109"><time>2025-04-28T07:56:35.000Z</time><ele>1198.4</ele></trkpt><trkpt lat="45.975013" lon="10.276107"><time>2025-04-28T07:56:36.000Z</time><ele>1198.4</ele></trkpt><trkpt lat="45.975021" lon="10.27611"><time>2025-04-28T07:56:37.000Z</time><ele>1198.6</ele></trkpt><trkpt lat="45.97502" lon="10.276113"><time>2025-04-28T07:56:38.000Z</time><ele>1198.6</ele></trkpt><trkpt lat="45.975017" lon="10.276113"><time>2025-04-28T07:56:39.000Z</time><ele>1198.6</ele></trkpt><trkpt lat="45.975008" lon="10.276111"><time>2025-04-28T07:56:40.000Z</time><ele>1198.6</ele></trkpt><trkpt lat="45.975004" lon="10.276112"><time>2025-04-28T07:56:41.000Z</time><ele>1198.8</ele></trkpt><trkpt lat="45.975001" lon="10.276112"><time>2025-04-28T07:56:42.000Z</time><ele>1198.8</ele></trkpt><trkpt lat="45.974994" lon="10.276114"><time>2025-04-28T07:56:43.000Z</time><ele>1198.8</ele></trkpt><trkpt lat="45.974991" lon="10.276121"><time>2025-04-28T07:56:44.000Z</time><ele>1198.8</ele></trkpt><trkpt lat="45.974989" lon="10.276129"><time>2025-04-28T07:56:45.000Z</time><ele>1198.8</ele></trkpt><trkpt lat="45.974988" lon="10.276137"><time>2025-04-28T07:56:46.000Z</time><ele>1198.8</ele></trkpt><trkpt lat="45.974986" lon="10.276138"><time>2025-04-28T07:56:47.000Z</time><ele>1198.6</ele></trkpt><trkpt lat="45.974984" lon="10.276141"><time>2025-04-28T07:56:48.000Z</time><ele>1198.6</ele></trkpt><trkpt lat="45.97497" lon="10.276143"><time>2025-04-28T07:56:49.000Z</time><ele>1198.6</ele></trkpt><trkpt lat="45.974972" lon="10.276147"><time>2025-04-28T07:56:50.000Z</time><ele>1198.6</ele></trkpt><trkpt lat="45.974973" lon="10.276149"><time>2025-04-28T07:56:51.000Z</time><ele>1198.6</ele></trkpt><trkpt lat="45.974977" lon="10.276149"><time>2025-04-28T07:56:52.000Z</time><ele>1198.6</ele></trkpt><trkpt lat="45.974988" lon="10.276148"><time>2025-04-28T07:56:53.000Z</time><ele>1198.6</ele></trkpt><trkpt lat="45.974996" lon="10.276147"><time>2025-04-28T07:56:54.000Z</time><ele>1198.6</ele></trkpt><trkpt lat="45.974996" lon="10.276149"><time>2025-04-28T07:56:55.000Z</time><ele>1198.8</ele></trkpt><trkpt lat="45.974996" lon="10.27615"><time>2025-04-28T07:56:56.000Z</time><ele>1198.8</ele></trkpt><trkpt lat="45.975003" lon="10.276151"><time>2025-04-28T07:56:57.000Z</time><ele>1199</ele></trkpt><trkpt lat="45.975004" lon="10.276145"><time>2025-04-28T07:56:58.000Z</time><ele>1199</ele></trkpt><trkpt lat="45.97501" lon="10.27615"><time>2025-04-28T07:56:59.000Z</time><ele>1199</ele></trkpt><trkpt lat="45.975015" lon="10.276155"><time>2025-04-28T07:57:00.000Z</time><ele>1199.2</ele></trkpt><trkpt lat="45.975011" lon="10.276155"><time>2025-04-28T07:57:01.000Z</time><ele>1199.2</ele></trkpt><trkpt lat="45.975017" lon="10.27616"><time>2025-04-28T07:57:02.000Z</time><ele>1199.6</ele></trkpt><trkpt lat="45.975029" lon="10.276165"><time>2025-04-28T07:57:03.000Z</time><ele>1199.6</ele></trkpt><trkpt lat="45.975041" lon="10.276169"><time>2025-04-28T07:57:04.000Z</time><ele>1199.8</ele></trkpt><trkpt lat="45.975043" lon="10.27617"><time>2025-04-28T07:57:05.000Z</time><ele>1200</ele></trkpt><trkpt lat="45.975041" lon="10.276172"><time>2025-04-28T07:57:06.000Z</time><ele>1200.2</ele></trkpt><trkpt lat="45.975043" lon="10.276179"><time>2025-04-28T07:57:07.000Z</time><ele>1200.2</ele></trkpt><trkpt lat="45.975044" lon="10.276184"><time>2025-04-28T07:57:08.000Z</time><ele>1200.6</ele></trkpt><trkpt lat="45.975048" lon="10.276192"><time>2025-04-28T07:57:09.000Z</time><ele>1200.8</ele></trkpt><trkpt lat="45.975051" lon="10.276195"><time>2025-04-28T07:57:10.000Z</time><ele>1201</ele></trkpt><trkpt lat="45.975054" lon="10.276206"><time>2025-04-28T07:57:11.000Z</time><ele>1201</ele></trkpt><trkpt lat="45.975056" lon="10.276213"><time>2025-04-28T07:57:12.000Z</time><ele>1201.2</ele></trkpt><trkpt lat="45.975058" lon="10.276222"><time>2025-04-28T07:57:13.000Z</time><ele>1201.6</ele></trkpt><trkpt lat="45.975057" lon="10.276227"><time>2025-04-28T07:57:14.000Z</time><ele>1201.6</ele></trkpt><trkpt lat="45.975065" lon="10.27623"><time>2025-04-28T07:57:15.000Z</time><ele>1202</ele></trkpt><trkpt lat="45.975068" lon="10.276235"><time>2025-04-28T07:57:16.000Z</time><ele>1202.2</ele></trkpt><trkpt lat="45.975071" lon="10.27624"><time>2025-04-28T07:57:17.000Z</time><ele>1202.2</ele></trkpt><trkpt lat="45.975074" lon="10.276246"><time>2025-04-28T07:57:18.000Z</time><ele>1202.4</ele></trkpt><trkpt lat="45.975078" lon="10.276252"><time>2025-04-28T07:57:19.000Z</time><ele>1202.4</ele></trkpt><trkpt lat="45.975079" lon="10.276261"><time>2025-04-28T07:57:20.000Z</time><ele>1202.4</ele></trkpt><trkpt lat="45.97509" lon="10.276255"><time>2025-04-28T07:57:21.000Z</time><ele>1202.6</ele></trkpt><trkpt lat="45.975103" lon="10.276252"><time>2025-04-28T07:57:22.000Z</time><ele>1202.8</ele></trkpt><trkpt lat="45.975102" lon="10.276256"><time>2025-04-28T07:57:23.000Z</time><ele>1203</ele></trkpt><trkpt lat="45.975101" lon="10.276258"><time>2025-04-28T07:57:24.000Z</time><ele>1203.2</ele></trkpt><trkpt lat="45.975101" lon="10.276259"><time>2025-04-28T07:57:25.000Z</time><ele>1203.2</ele></trkpt><trkpt lat="45.975097" lon="10.276264"><time>2025-04-28T07:57:26.000Z</time><ele>1203.2</ele></trkpt><trkpt lat="45.975092" lon="10.276266"><time>2025-04-28T07:57:27.000Z</time><ele>1203.4</ele></trkpt><trkpt lat="45.975061" lon="10.276282"><time>2025-04-28T07:57:28.000Z</time><ele>1203.4</ele></trkpt><trkpt lat="45.97505" lon="10.276294"><time>2025-04-28T07:57:29.000Z</time><ele>1203.4</ele></trkpt><trkpt lat="45.975066" lon="10.27631"><time>2025-04-28T07:57:30.000Z</time><ele>1203.4</ele></trkpt><trkpt lat="45.975073" lon="10.276307"><time>2025-04-28T07:57:31.000Z</time><ele>1203.4</ele></trkpt><trkpt lat="45.975081" lon="10.276304"><time>2025-04-28T07:57:32.000Z</time><ele>1203.4</ele></trkpt><trkpt lat="45.975084" lon="10.276305"><time>2025-04-28T07:57:33.000Z</time><ele>1203.6</ele></trkpt><trkpt lat="45.97508" lon="10.276305"><time>2025-04-28T07:57:34.000Z</time><ele>1203.6</ele></trkpt><trkpt lat="45.975095" lon="10.276304"><time>2025-04-28T07:57:35.000Z</time><ele>1203.8</ele></trkpt><trkpt lat="45.975106" lon="10.276303"><time>2025-04-28T07:57:36.000Z</time><ele>1203.8</ele></trkpt><trkpt lat="45.975105" lon="10.276297"><time>2025-04-28T07:57:37.000Z</time><ele>1204</ele></trkpt><trkpt lat="45.975114" lon="10.276293"><time>2025-04-28T07:57:38.000Z</time><ele>1204</ele></trkpt><trkpt lat="45.975111" lon="10.276302"><time>2025-04-28T07:57:39.000Z</time><ele>1204</ele></trkpt><trkpt lat="45.975114" lon="10.27631"><time>2025-04-28T07:57:40.000Z</time><ele>1204.2</ele></trkpt><trkpt lat="45.975117" lon="10.276316"><time>2025-04-28T07:57:41.000Z</time><ele>1204.4</ele></trkpt><trkpt lat="45.97512" lon="10.276321"><time>2025-04-28T07:57:42.000Z</time><ele>1204.4</ele></trkpt><trkpt lat="45.975121" lon="10.276326"><time>2025-04-28T07:57:43.000Z</time><ele>1204.6</ele></trkpt><trkpt lat="45.975122" lon="10.276343"><time>2025-04-28T07:57:44.000Z</time><ele>1204.8</ele></trkpt><trkpt lat="45.975127" lon="10.276353"><time>2025-04-28T07:57:45.000Z</time><ele>1205</ele></trkpt><trkpt lat="45.97513" lon="10.276364"><time>2025-04-28T07:57:46.000Z</time><ele>1205</ele></trkpt><trkpt lat="45.975132" lon="10.276367"><time>2025-04-28T07:57:47.000Z</time><ele>1205.2</ele></trkpt><trkpt lat="45.975132" lon="10.276372"><time>2025-04-28T07:57:48.000Z</time><ele>1205.2</ele></trkpt><trkpt lat="45.97513" lon="10.276376"><time>2025-04-28T07:57:49.000Z</time><ele>1205.4</ele></trkpt><trkpt lat="45.975127" lon="10.276368"><time>2025-04-28T07:57:50.000Z</time><ele>1205.4</ele></trkpt><trkpt lat="45.975127" lon="10.276365"><time>2025-04-28T07:57:51.000Z</time><ele>1205.6</ele></trkpt><trkpt lat="45.975129" lon="10.276364"><time>2025-04-28T07:57:52.000Z</time><ele>1205.8</ele></trkpt><trkpt lat="45.975129" lon="10.276369"><time>2025-04-28T07:57:53.000Z</time><ele>1206</ele></trkpt><trkpt lat="45.97513" lon="10.276371"><time>2025-04-28T07:57:54.000Z</time><ele>1206</ele></trkpt><trkpt lat="45.975136" lon="10.276382"><time>2025-04-28T07:57:55.000Z</time><ele>1206.2</ele></trkpt><trkpt lat="45.975134" lon="10.276387"><time>2025-04-28T07:57:56.000Z</time><ele>1206.4</ele></trkpt><trkpt lat="45.975135" lon="10.276395"><time>2025-04-28T07:57:57.000Z</time><ele>1206.6</ele></trkpt><trkpt lat="45.97514" lon="10.276404"><time>2025-04-28T07:57:58.000Z</time><ele>1206.6</ele></trkpt><trkpt lat="45.975145" lon="10.276415"><time>2025-04-28T07:57:59.000Z</time><ele>1206.8</ele></trkpt><trkpt lat="45.975146" lon="10.276425"><time>2025-04-28T07:58:00.000Z</time><ele>1207</ele></trkpt><trkpt lat="45.975146" lon="10.276437"><time>2025-04-28T07:58:01.000Z</time><ele>1207.2</ele></trkpt><trkpt lat="45.975144" lon="10.276453"><time>2025-04-28T07:58:02.000Z</time><ele>1207.2</ele></trkpt><trkpt lat="45.975144" lon="10.276468"><time>2025-04-28T07:58:03.000Z</time><ele>1207.4</ele></trkpt><trkpt lat="45.975139" lon="10.27647"><time>2025-04-28T07:58:04.000Z</time><ele>1207.4</ele></trkpt><trkpt lat="45.975135" lon="10.276467"><time>2025-04-28T07:58:05.000Z</time><ele>1207.6</ele></trkpt><trkpt lat="45.975133" lon="10.27647"><time>2025-04-28T07:58:06.000Z</time><ele>1207.8</ele></trkpt><trkpt lat="45.975132" lon="10.276472"><time>2025-04-28T07:58:07.000Z</time><ele>1208.2</ele></trkpt><trkpt lat="45.975132" lon="10.276476"><time>2025-04-28T07:58:08.000Z</time><ele>1208.4</ele></trkpt><trkpt lat="45.975138" lon="10.276483"><time>2025-04-28T07:58:09.000Z</time><ele>1208.6</ele></trkpt><trkpt lat="45.975163" lon="10.276479"><time>2025-04-28T07:58:10.000Z</time><ele>1208.6</ele></trkpt><trkpt lat="45.975161" lon="10.276489"><time>2025-04-28T07:58:11.000Z</time><ele>1208.8</ele></trkpt><trkpt lat="45.975157" lon="10.276496"><time>2025-04-28T07:58:12.000Z</time><ele>1208.8</ele></trkpt><trkpt lat="45.975154" lon="10.276493"><time>2025-04-28T07:58:13.000Z</time><ele>1209</ele></trkpt><trkpt lat="45.975157" lon="10.276497"><time>2025-04-28T07:58:14.000Z</time><ele>1209</ele></trkpt><trkpt lat="45.975158" lon="10.276501"><time>2025-04-28T07:58:15.000Z</time><ele>1209.2</ele></trkpt><trkpt lat="45.975161" lon="10.276503"><time>2025-04-28T07:58:16.000Z</time><ele>1209.4</ele></trkpt><trkpt lat="45.975164" lon="10.276502"><time>2025-04-28T07:58:17.000Z</time><ele>1209.6</ele></trkpt><trkpt lat="45.975173" lon="10.276504"><time>2025-04-28T07:58:18.000Z</time><ele>1209.8</ele></trkpt><trkpt lat="45.975176" lon="10.276504"><time>2025-04-28T07:58:19.000Z</time><ele>1210.2</ele></trkpt><trkpt lat="45.975187" lon="10.276508"><time>2025-04-28T07:58:20.000Z</time><ele>1210.4</ele></trkpt><trkpt lat="45.975191" lon="10.276509"><time>2025-04-28T07:58:21.000Z</time><ele>1210.8</ele></trkpt><trkpt lat="45.975204" lon="10.276515"><time>2025-04-28T07:58:22.000Z</time><ele>1211</ele></trkpt><trkpt lat="45.975213" lon="10.276521"><time>2025-04-28T07:58:23.000Z</time><ele>1211</ele></trkpt><trkpt lat="45.975223" lon="10.276529"><time>2025-04-28T07:58:24.000Z</time><ele>1211.2</ele></trkpt><trkpt lat="45.975225" lon="10.276528"><time>2025-04-28T07:58:25.000Z</time><ele>1211.2</ele></trkpt><trkpt lat="45.975225" lon="10.27653"><time>2025-04-28T07:58:26.000Z</time><ele>1211.4</ele></trkpt><trkpt lat="45.975227" lon="10.276537"><time>2025-04-28T07:58:27.000Z</time><ele>1211.6</ele></trkpt><trkpt lat="45.975234" lon="10.276545"><time>2025-04-28T07:58:28.000Z</time><ele>1211.8</ele></trkpt><trkpt lat="45.975243" lon="10.276549"><time>2025-04-28T07:58:29.000Z</time><ele>1212.2</ele></trkpt><trkpt lat="45.975247" lon="10.276557"><time>2025-04-28T07:58:30.000Z</time><ele>1212.2</ele></trkpt><trkpt lat="45.975249" lon="10.27656"><time>2025-04-28T07:58:31.000Z</time><ele>1212.4</ele></trkpt><trkpt lat="45.975253" lon="10.276561"><time>2025-04-28T07:58:32.000Z</time><ele>1212.6</ele></trkpt><trkpt lat="45.975251" lon="10.276562"><time>2025-04-28T07:58:33.000Z</time><ele>1212.8</ele></trkpt><trkpt lat="45.975246" lon="10.276565"><time>2025-04-28T07:58:34.000Z</time><ele>1212.8</ele></trkpt><trkpt lat="45.975243" lon="10.276567"><time>2025-04-28T07:58:35.000Z</time><ele>1212.8</ele></trkpt><trkpt lat="45.975241" lon="10.276573"><time>2025-04-28T07:58:36.000Z</time><ele>1212.8</ele></trkpt><trkpt lat="45.975241" lon="10.276581"><time>2025-04-28T07:58:37.000Z</time><ele>1213</ele></trkpt><trkpt lat="45.975234" lon="10.276587"><time>2025-04-28T07:58:38.000Z</time><ele>1213</ele></trkpt><trkpt lat="45.975225" lon="10.276589"><time>2025-04-28T07:58:39.000Z</time><ele>1213.2</ele></trkpt><trkpt lat="45.975218" lon="10.276603"><time>2025-04-28T07:58:40.000Z</time><ele>1213.4</ele></trkpt><trkpt lat="45.975212" lon="10.27661"><time>2025-04-28T07:58:41.000Z</time><ele>1213.6</ele></trkpt><trkpt lat="45.975209" lon="10.276619"><time>2025-04-28T07:58:42.000Z</time><ele>1213.6</ele></trkpt><trkpt lat="45.975207" lon="10.276623"><time>2025-04-28T07:58:43.000Z</time><ele>1214</ele></trkpt><trkpt lat="45.975202" lon="10.276626"><time>2025-04-28T07:58:44.000Z</time><ele>1214.2</ele></trkpt><trkpt lat="45.975199" lon="10.276632"><time>2025-04-28T07:58:45.000Z</time><ele>1214.4</ele></trkpt><trkpt lat="45.975202" lon="10.276638"><time>2025-04-28T07:58:46.000Z</time><ele>1214.4</ele></trkpt><trkpt lat="45.975207" lon="10.276651"><time>2025-04-28T07:58:47.000Z</time><ele>1214.4</ele></trkpt><trkpt lat="45.975205" lon="10.276657"><time>2025-04-28T07:58:48.000Z</time><ele>1214.6</ele></trkpt><trkpt lat="45.975203" lon="10.27666"><time>2025-04-28T07:58:49.000Z</time><ele>1214.8</ele></trkpt><trkpt lat="45.975203" lon="10.276661"><time>2025-04-28T07:58:50.000Z</time><ele>1214.8</ele></trkpt><trkpt lat="45.975198" lon="10.276671"><time>2025-04-28T07:58:51.000Z</time><ele>1215</ele></trkpt><trkpt lat="45.975192" lon="10.276678"><time>2025-04-28T07:58:52.000Z</time><ele>1215.4</ele></trkpt><trkpt lat="45.975187" lon="10.276682"><time>2025-04-28T07:58:53.000Z</time><ele>1215.6</ele></trkpt><trkpt lat="45.975197" lon="10.276694"><time>2025-04-28T07:58:54.000Z</time><ele>1215.8</ele></trkpt><trkpt lat="45.975199" lon="10.276695"><time>2025-04-28T07:58:55.000Z</time><ele>1216</ele></trkpt><trkpt lat="45.975201" lon="10.276697"><time>2025-04-28T07:58:56.000Z</time><ele>1216.2</ele></trkpt><trkpt lat="45.975212" lon="10.276702"><time>2025-04-28T07:58:57.000Z</time><ele>1216.2</ele></trkpt><trkpt lat="45.975215" lon="10.276699"><time>2025-04-28T07:58:58.000Z</time><ele>1216.4</ele></trkpt><trkpt lat="45.975217" lon="10.276717"><time>2025-04-28T07:58:59.000Z</time><ele>1216.4</ele></trkpt><trkpt lat="45.975217" lon="10.276716"><time>2025-04-28T07:59:00.000Z</time><ele>1216.6</ele></trkpt><trkpt lat="45.975227" lon="10.276724"><time>2025-04-28T07:59:01.000Z</time><ele>1216.8</ele></trkpt><trkpt lat="45.975233" lon="10.276731"><time>2025-04-28T07:59:02.000Z</time><ele>1216.8</ele></trkpt><trkpt lat="45.975236" lon="10.276739"><time>2025-04-28T07:59:03.000Z</time><ele>1217</ele></trkpt><trkpt lat="45.97524" lon="10.276737"><time>2025-04-28T07:59:04.000Z</time><ele>1217.2</ele></trkpt><trkpt lat="45.975243" lon="10.276733"><time>2025-04-28T07:59:05.000Z</time><ele>1217.2</ele></trkpt><trkpt lat="45.975245" lon="10.276731"><time>2025-04-28T07:59:06.000Z</time><ele>1217.4</ele></trkpt><trkpt lat="45.975251" lon="10.276729"><time>2025-04-28T07:59:07.000Z</time><ele>1217.6</ele></trkpt><trkpt lat="45.975257" lon="10.27673"><time>2025-04-28T07:59:08.000Z</time><ele>1217.8</ele></trkpt><trkpt lat="45.975258" lon="10.27673"><time>2025-04-28T07:59:09.000Z</time><ele>1218</ele></trkpt><trkpt lat="45.975263" lon="10.276729"><time>2025-04-28T07:59:10.000Z</time><ele>1218.2</ele></trkpt><trkpt lat="45.975263" lon="10.276732"><time>2025-04-28T07:59:11.000Z</time><ele>1218.2</ele></trkpt><trkpt lat="45.97526" lon="10.276729"><time>2025-04-28T07:59:12.000Z</time><ele>1218.4</ele></trkpt><trkpt lat="45.975262" lon="10.276726"><time>2025-04-28T07:59:13.000Z</time><ele>1218.4</ele></trkpt><trkpt lat="45.975269" lon="10.276722"><time>2025-04-28T07:59:14.000Z</time><ele>1218.6</ele></trkpt><trkpt lat="45.975276" lon="10.276721"><time>2025-04-28T07:59:15.000Z</time><ele>1218.8</ele></trkpt><trkpt lat="45.975286" lon="10.276714"><time>2025-04-28T07:59:16.000Z</time><ele>1219.2</ele></trkpt><trkpt lat="45.975297" lon="10.276709"><time>2025-04-28T07:59:17.000Z</time><ele>1219.4</ele></trkpt><trkpt lat="45.975301" lon="10.276712"><time>2025-04-28T07:59:18.000Z</time><ele>1219.6</ele></trkpt><trkpt lat="45.975311" lon="10.276714"><time>2025-04-28T07:59:19.000Z</time><ele>1219.8</ele></trkpt><trkpt lat="45.975314" lon="10.276712"><time>2025-04-28T07:59:20.000Z</time><ele>1219.8</ele></trkpt><trkpt lat="45.97532" lon="10.276701"><time>2025-04-28T07:59:21.000Z</time><ele>1219.8</ele></trkpt><trkpt lat="45.975321" lon="10.276695"><time>2025-04-28T07:59:22.000Z</time><ele>1220</ele></trkpt><trkpt lat="45.975322" lon="10.276693"><time>2025-04-28T07:59:23.000Z</time><ele>1220.4</ele></trkpt><trkpt lat="45.975325" lon="10.276695"><time>2025-04-28T07:59:24.000Z</time><ele>1220.6</ele></trkpt><trkpt lat="45.97533" lon="10.276702"><time>2025-04-28T07:59:25.000Z</time><ele>1220.8</ele></trkpt><trkpt lat="45.975329" lon="10.276704"><time>2025-04-28T07:59:26.000Z</time><ele>1221</ele></trkpt><trkpt lat="45.97533" lon="10.276707"><time>2025-04-28T07:59:27.000Z</time><ele>1221.2</ele></trkpt><trkpt lat="45.975325" lon="10.276709"><time>2025-04-28T07:59:28.000Z</time><ele>1221.4</ele></trkpt><trkpt lat="45.975325" lon="10.276711"><time>2025-04-28T07:59:29.000Z</time><ele>1221.4</ele></trkpt><trkpt lat="45.975328" lon="10.276712"><time>2025-04-28T07:59:30.000Z</time><ele>1221.6</ele></trkpt><trkpt lat="45.975344" lon="10.276703"><time>2025-04-28T07:59:31.000Z</time><ele>1221.6</ele></trkpt><trkpt lat="45.975355" lon="10.276712"><time>2025-04-28T07:59:32.000Z</time><ele>1221.8</ele></trkpt><trkpt lat="45.975356" lon="10.276719"><time>2025-04-28T07:59:33.000Z</time><ele>1222</ele></trkpt><trkpt lat="45.975363" lon="10.276712"><time>2025-04-28T07:59:34.000Z</time><ele>1222.2</ele></trkpt><trkpt lat="45.975373" lon="10.276705"><time>2025-04-28T07:59:35.000Z</time><ele>1222.2</ele></trkpt><trkpt lat="45.975383" lon="10.276699"><time>2025-04-28T07:59:36.000Z</time><ele>1222.4</ele></trkpt><trkpt lat="45.975399" lon="10.276695"><time>2025-04-28T07:59:37.000Z</time><ele>1222.6</ele></trkpt><trkpt lat="45.975407" lon="10.276689"><time>2025-04-28T07:59:38.000Z</time><ele>1222.8</ele></trkpt><trkpt lat="45.975426" lon="10.276683"><time>2025-04-28T07:59:39.000Z</time><ele>1222.8</ele></trkpt><trkpt lat="45.975434" lon="10.276675"><time>2025-04-28T07:59:40.000Z</time><ele>1223</ele></trkpt><trkpt lat="45.975448" lon="10.276661"><time>2025-04-28T07:59:41.000Z</time><ele>1223</ele></trkpt><trkpt lat="45.975467" lon="10.27666"><time>2025-04-28T07:59:42.000Z</time><ele>1223.2</ele></trkpt><trkpt lat="45.975474" lon="10.276658"><time>2025-04-28T07:59:43.000Z</time><ele>1223.4</ele></trkpt><trkpt lat="45.975479" lon="10.276653"><time>2025-04-28T07:59:44.000Z</time><ele>1223.6</ele></trkpt><trkpt lat="45.97548" lon="10.276649"><time>2025-04-28T07:59:45.000Z</time><ele>1223.8</ele></trkpt><trkpt lat="45.97548" lon="10.276651"><time>2025-04-28T07:59:46.000Z</time><ele>1224</ele></trkpt><trkpt lat="45.975479" lon="10.276658"><time>2025-04-28T07:59:47.000Z</time><ele>1224</ele></trkpt><trkpt lat="45.975487" lon="10.276662"><time>2025-04-28T07:59:48.000Z</time><ele>1224.2</ele></trkpt><trkpt lat="45.975492" lon="10.276664"><time>2025-04-28T07:59:49.000Z</time><ele>1224.4</ele></trkpt><trkpt lat="45.975487" lon="10.27667"><time>2025-04-28T07:59:50.000Z</time><ele>1224.6</ele></trkpt><trkpt lat="45.975479" lon="10.276681"><time>2025-04-28T07:59:51.000Z</time><ele>1224.6</ele></trkpt><trkpt lat="45.975476" lon="10.276687"><time>2025-04-28T07:59:52.000Z</time><ele>1224.6</ele></trkpt><trkpt lat="45.975477" lon="10.276692"><time>2025-04-28T07:59:53.000Z</time><ele>1224.8</ele></trkpt><trkpt lat="45.975472" lon="10.276701"><time>2025-04-28T07:59:54.000Z</time><ele>1225</ele></trkpt><trkpt lat="45.975449" lon="10.276734"><time>2025-04-28T07:59:55.000Z</time><ele>1225</ele></trkpt><trkpt lat="45.97545" lon="10.27675"><time>2025-04-28T07:59:56.000Z</time><ele>1225.2</ele></trkpt><trkpt lat="45.975451" lon="10.276746"><time>2025-04-28T07:59:57.000Z</time><ele>1225.4</ele></trkpt><trkpt lat="45.975453" lon="10.27674"><time>2025-04-28T07:59:58.000Z</time><ele>1225.4</ele></trkpt><trkpt lat="45.975447" lon="10.276736"><time>2025-04-28T07:59:59.000Z</time><ele>1225.4</ele></trkpt><trkpt lat="45.975445" lon="10.276741"><time>2025-04-28T08:00:00.000Z</time><ele>1225.6</ele></trkpt><trkpt lat="45.97545" lon="10.276746"><time>2025-04-28T08:00:01.000Z</time><ele>1225.6</ele></trkpt><trkpt lat="45.975452" lon="10.276753"><time>2025-04-28T08:00:02.000Z</time><ele>1225.8</ele></trkpt><trkpt lat="45.975452" lon="10.276756"><time>2025-04-28T08:00:03.000Z</time><ele>1225.8</ele></trkpt><trkpt lat="45.975461" lon="10.276758"><time>2025-04-28T08:00:04.000Z</time><ele>1226</ele></trkpt><trkpt lat="45.975462" lon="10.276759"><time>2025-04-28T08:00:05.000Z</time><ele>1226.2</ele></trkpt><trkpt lat="45.975468" lon="10.276768"><time>2025-04-28T08:00:06.000Z</time><ele>1226.4</ele></trkpt><trkpt lat="45.975479" lon="10.276781"><time>2025-04-28T08:00:07.000Z</time><ele>1226.4</ele></trkpt><trkpt lat="45.975478" lon="10.276785"><time>2025-04-28T08:00:08.000Z</time><ele>1226.6</ele></trkpt><trkpt lat="45.975479" lon="10.276786"><time>2025-04-28T08:00:09.000Z</time><ele>1226.6</ele></trkpt><trkpt lat="45.975483" lon="10.276791"><time>2025-04-28T08:00:10.000Z</time><ele>1226.6</ele></trkpt><trkpt lat="45.975488" lon="10.276797"><time>2025-04-28T08:00:11.000Z</time><ele>1226.6</ele></trkpt><trkpt lat="45.975491" lon="10.276808"><time>2025-04-28T08:00:12.000Z</time><ele>1226.8</ele></trkpt><trkpt lat="45.975492" lon="10.276821"><time>2025-04-28T08:00:13.000Z</time><ele>1226.8</ele></trkpt><trkpt lat="45.975498" lon="10.276841"><time>2025-04-28T08:00:14.000Z</time><ele>1227</ele></trkpt><trkpt lat="45.975505" lon="10.276859"><time>2025-04-28T08:00:15.000Z</time><ele>1227</ele></trkpt><trkpt lat="45.975508" lon="10.276875"><time>2025-04-28T08:00:16.000Z</time><ele>1227</ele></trkpt><trkpt lat="45.975506" lon="10.276882"><time>2025-04-28T08:00:17.000Z</time><ele>1227</ele></trkpt><trkpt lat="45.975502" lon="10.276886"><time>2025-04-28T08:00:18.000Z</time><ele>1227.2</ele></trkpt><trkpt lat="45.975502" lon="10.276888"><time>2025-04-28T08:00:19.000Z</time><ele>1227.4</ele></trkpt><trkpt lat="45.975515" lon="10.276893"><time>2025-04-28T08:00:20.000Z</time><ele>1227.4</ele></trkpt><trkpt lat="45.975524" lon="10.276899"><time>2025-04-28T08:00:21.000Z</time><ele>1227.4</ele></trkpt><trkpt lat="45.975528" lon="10.276907"><time>2025-04-28T08:00:22.000Z</time><ele>1227.4</ele></trkpt><trkpt lat="45.975527" lon="10.276907"><time>2025-04-28T08:00:23.000Z</time><ele>1227.6</ele></trkpt><trkpt lat="45.975525" lon="10.27691"><time>2025-04-28T08:00:24.000Z</time><ele>1227.6</ele></trkpt><trkpt lat="45.975531" lon="10.27692"><time>2025-04-28T08:00:25.000Z</time><ele>1227.6</ele></trkpt><trkpt lat="45.975529" lon="10.276927"><time>2025-04-28T08:00:26.000Z</time><ele>1227.6</ele></trkpt><trkpt lat="45.975522" lon="10.276932"><time>2025-04-28T08:00:27.000Z</time><ele>1227.6</ele></trkpt><trkpt lat="45.975514" lon="10.276934"><time>2025-04-28T08:00:28.000Z</time><ele>1227.6</ele></trkpt><trkpt lat="45.975508" lon="10.276931"><time>2025-04-28T08:00:29.000Z</time><ele>1227.6</ele></trkpt><trkpt lat="45.975504" lon="10.276933"><time>2025-04-28T08:00:30.000Z</time><ele>1227.6</ele></trkpt><trkpt lat="45.97548" lon="10.276924"><time>2025-04-28T08:00:31.000Z</time><ele>1227.6</ele></trkpt><trkpt lat="45.975439" lon="10.27692"><time>2025-04-28T08:00:32.000Z</time><ele>1227.6</ele></trkpt><trkpt lat="45.975414" lon="10.276909"><time>2025-04-28T08:00:33.000Z</time><ele>1227.6</ele></trkpt><trkpt lat="45.975378" lon="10.276899"><time>2025-04-28T08:00:34.000Z</time><ele>1227.6</ele></trkpt><trkpt lat="45.975355" lon="10.276882"><time>2025-04-28T08:00:35.000Z</time><ele>1227.6</ele></trkpt><trkpt lat="45.97535" lon="10.276881"><time>2025-04-28T08:00:36.000Z</time><ele>1227.6</ele></trkpt><trkpt lat="45.97535" lon="10.276885"><time>2025-04-28T08:00:37.000Z</time><ele>1227.4</ele></trkpt><trkpt lat="45.975348" lon="10.276889"><time>2025-04-28T08:00:38.000Z</time><ele>1227.2</ele></trkpt><trkpt lat="45.975345" lon="10.276891"><time>2025-04-28T08:00:39.000Z</time><ele>1227.2</ele></trkpt><trkpt lat="45.975356" lon="10.276905"><time>2025-04-28T08:00:40.000Z</time><ele>1227.2</ele></trkpt><trkpt lat="45.97536" lon="10.27691"><time>2025-04-28T08:00:41.000Z</time><ele>1227.2</ele></trkpt><trkpt lat="45.975367" lon="10.276916"><time>2025-04-28T08:00:42.000Z</time><ele>1227.2</ele></trkpt><trkpt lat="45.975367" lon="10.276921"><time>2025-04-28T08:00:43.000Z</time><ele>1227.4</ele></trkpt><trkpt lat="45.975363" lon="10.276922"><time>2025-04-28T08:00:44.000Z</time><ele>1227.4</ele></trkpt><trkpt lat="45.975362" lon="10.276922"><time>2025-04-28T08:00:45.000Z</time><ele>1227.4</ele></trkpt><trkpt lat="45.975358" lon="10.276926"><time>2025-04-28T08:00:46.000Z</time><ele>1227.4</ele></trkpt><trkpt lat="45.975358" lon="10.276929"><time>2025-04-28T08:00:47.000Z</time><ele>1227.6</ele></trkpt><trkpt lat="45.97536" lon="10.276934"><time>2025-04-28T08:00:48.000Z</time><ele>1227.6</ele></trkpt><trkpt lat="45.975346" lon="10.276946"><time>2025-04-28T08:00:49.000Z</time><ele>1227.6</ele></trkpt><trkpt lat="45.975334" lon="10.276958"><time>2025-04-28T08:00:50.000Z</time><ele>1227.8</ele></trkpt><trkpt lat="45.975324" lon="10.276971"><time>2025-04-28T08:00:51.000Z</time><ele>1228</ele></trkpt><trkpt lat="45.975321" lon="10.276981"><time>2025-04-28T08:00:52.000Z</time><ele>1228</ele></trkpt><trkpt lat="45.975319" lon="10.276989"><time>2025-04-28T08:00:53.000Z</time><ele>1228.2</ele></trkpt><trkpt lat="45.975323" lon="10.276999"><time>2025-04-28T08:00:54.000Z</time><ele>1228.6</ele></trkpt><trkpt lat="45.975326" lon="10.277006"><time>2025-04-28T08:00:55.000Z</time><ele>1229</ele></trkpt><trkpt lat="45.975321" lon="10.277014"><time>2025-04-28T08:00:56.000Z</time><ele>1229.2</ele></trkpt><trkpt lat="45.975318" lon="10.277018"><time>2025-04-28T08:00:57.000Z</time><ele>1229.4</ele></trkpt><trkpt lat="45.97532" lon="10.277031"><time>2025-04-28T08:00:58.000Z</time><ele>1229.8</ele></trkpt><trkpt lat="45.975326" lon="10.277043"><time>2025-04-28T08:00:59.000Z</time><ele>1229.8</ele></trkpt><trkpt lat="45.975317" lon="10.277048"><time>2025-04-28T08:01:00.000Z</time><ele>1230</ele></trkpt><trkpt lat="45.975312" lon="10.277052"><time>2025-04-28T08:01:01.000Z</time><ele>1230</ele></trkpt><trkpt lat="45.975306" lon="10.277054"><time>2025-04-28T08:01:02.000Z</time><ele>1230.2</ele></trkpt><trkpt lat="45.975309" lon="10.277062"><time>2025-04-28T08:01:03.000Z</time><ele>1230.4</ele></trkpt><trkpt lat="45.975314" lon="10.277074"><time>2025-04-28T08:01:04.000Z</time><ele>1230.4</ele></trkpt><trkpt lat="45.975315" lon="10.277077"><time>2025-04-28T08:01:05.000Z</time><ele>1230.6</ele></trkpt><trkpt lat="45.975312" lon="10.277075"><time>2025-04-28T08:01:06.000Z</time><ele>1230.8</ele></trkpt><trkpt lat="45.975312" lon="10.277074"><time>2025-04-28T08:01:07.000Z</time><ele>1230.8</ele></trkpt><trkpt lat="45.975312" lon="10.277073"><time>2025-04-28T08:01:08.000Z</time><ele>1231</ele></trkpt><trkpt lat="45.975318" lon="10.277079"><time>2025-04-28T08:01:09.000Z</time><ele>1231</ele></trkpt><trkpt lat="45.975338" lon="10.277094"><time>2025-04-28T08:01:10.000Z</time><ele>1231</ele></trkpt><trkpt lat="45.975393" lon="10.277124"><time>2025-04-28T08:01:11.000Z</time><ele>1231.2</ele></trkpt><trkpt lat="45.975425" lon="10.277146"><time>2025-04-28T08:01:12.000Z</time><ele>1231.2</ele></trkpt><trkpt lat="45.975443" lon="10.277157"><time>2025-04-28T08:01:13.000Z</time><ele>1231.2</ele></trkpt><trkpt lat="45.975461" lon="10.277168"><time>2025-04-28T08:01:14.000Z</time><ele>1231.4</ele></trkpt><trkpt lat="45.975469" lon="10.27718"><time>2025-04-28T08:01:15.000Z</time><ele>1231.6</ele></trkpt><trkpt lat="45.975468" lon="10.277184"><time>2025-04-28T08:01:16.000Z</time><ele>1231.8</ele></trkpt><trkpt lat="45.975462" lon="10.277182"><time>2025-04-28T08:01:17.000Z</time><ele>1232</ele></trkpt><trkpt lat="45.975461" lon="10.277183"><time>2025-04-28T08:01:18.000Z</time><ele>1232.2</ele></trkpt><trkpt lat="45.975463" lon="10.277186"><time>2025-04-28T08:01:19.000Z</time><ele>1232.2</ele></trkpt><trkpt lat="45.975467" lon="10.277189"><time>2025-04-28T08:01:20.000Z</time><ele>1232.4</ele></trkpt><trkpt lat="45.975471" lon="10.27719"><time>2025-04-28T08:01:21.000Z</time><ele>1232.6</ele></trkpt><trkpt lat="45.975469" lon="10.277195"><time>2025-04-28T08:01:22.000Z</time><ele>1232.8</ele></trkpt><trkpt lat="45.975469" lon="10.277198"><time>2025-04-28T08:01:23.000Z</time><ele>1232.8</ele></trkpt><trkpt lat="45.975468" lon="10.277214"><time>2025-04-28T08:01:24.000Z</time><ele>1233</ele></trkpt><trkpt lat="45.97547" lon="10.27723"><time>2025-04-28T08:01:25.000Z</time><ele>1233.2</ele></trkpt><trkpt lat="45.975475" lon="10.27725"><time>2025-04-28T08:01:26.000Z</time><ele>1233.4</ele></trkpt><trkpt lat="45.97548" lon="10.277267"><time>2025-04-28T08:01:27.000Z</time><ele>1233.6</ele></trkpt><trkpt lat="45.975472" lon="10.277269"><time>2025-04-28T08:01:28.000Z</time><ele>1233.6</ele></trkpt><trkpt lat="45.975458" lon="10.277265"><time>2025-04-28T08:01:29.000Z</time><ele>1233.8</ele></trkpt><trkpt lat="45.975454" lon="10.277268"><time>2025-04-28T08:01:30.000Z</time><ele>1234</ele></trkpt><trkpt lat="45.975451" lon="10.27727"><time>2025-04-28T08:01:31.000Z</time><ele>1234.2</ele></trkpt><trkpt lat="45.975443" lon="10.277281"><time>2025-04-28T08:01:32.000Z</time><ele>1234.2</ele></trkpt><trkpt lat="45.975441" lon="10.277284"><time>2025-04-28T08:01:33.000Z</time><ele>1234.4</ele></trkpt><trkpt lat="45.975435" lon="10.277295"><time>2025-04-28T08:01:34.000Z</time><ele>1234.6</ele></trkpt><trkpt lat="45.97542" lon="10.277297"><time>2025-04-28T08:01:35.000Z</time><ele>1234.8</ele></trkpt><trkpt lat="45.975412" lon="10.277302"><time>2025-04-28T08:01:36.000Z</time><ele>1235</ele></trkpt><trkpt lat="45.975411" lon="10.2773"><time>2025-04-28T08:01:37.000Z</time><ele>1235.2</ele></trkpt><trkpt lat="45.975411" lon="10.277303"><time>2025-04-28T08:01:38.000Z</time><ele>1235.4</ele></trkpt><trkpt lat="45.975406" lon="10.277309"><time>2025-04-28T08:01:39.000Z</time><ele>1235.4</ele></trkpt><trkpt lat="45.975404" lon="10.277319"><time>2025-04-28T08:01:40.000Z</time><ele>1235.4</ele></trkpt><trkpt lat="45.975401" lon="10.277326"><time>2025-04-28T08:01:41.000Z</time><ele>1235.6</ele></trkpt><trkpt lat="45.975395" lon="10.277335"><time>2025-04-28T08:01:42.000Z</time><ele>1235.8</ele></trkpt><trkpt lat="45.975392" lon="10.277339"><time>2025-04-28T08:01:43.000Z</time><ele>1236</ele></trkpt><trkpt lat="45.975391" lon="10.277345"><time>2025-04-28T08:01:44.000Z</time><ele>1236.2</ele></trkpt><trkpt lat="45.975384" lon="10.27734"><time>2025-04-28T08:01:45.000Z</time><ele>1236.4</ele></trkpt><trkpt lat="45.975384" lon="10.277334"><time>2025-04-28T08:01:46.000Z</time><ele>1236.6</ele></trkpt><trkpt lat="45.975385" lon="10.277342"><time>2025-04-28T08:01:47.000Z</time><ele>1236.6</ele></trkpt><trkpt lat="45.975387" lon="10.277346"><time>2025-04-28T08:01:48.000Z</time><ele>1236.8</ele></trkpt><trkpt lat="45.975383" lon="10.277353"><time>2025-04-28T08:01:49.000Z</time><ele>1236.8</ele></trkpt><trkpt lat="45.975373" lon="10.277361"><time>2025-04-28T08:01:50.000Z</time><ele>1236.8</ele></trkpt><trkpt lat="45.97537" lon="10.277362"><time>2025-04-28T08:01:51.000Z</time><ele>1237</ele></trkpt><trkpt lat="45.975366" lon="10.277368"><time>2025-04-28T08:01:52.000Z</time><ele>1237</ele></trkpt><trkpt lat="45.975353" lon="10.277359"><time>2025-04-28T08:01:53.000Z</time><ele>1237</ele></trkpt><trkpt lat="45.975349" lon="10.277362"><time>2025-04-28T08:01:54.000Z</time><ele>1237.2</ele></trkpt><trkpt lat="45.975347" lon="10.277358"><time>2025-04-28T08:01:55.000Z</time><ele>1237.2</ele></trkpt><trkpt lat="45.975342" lon="10.277361"><time>2025-04-28T08:01:56.000Z</time><ele>1237.4</ele></trkpt><trkpt lat="45.975338" lon="10.277363"><time>2025-04-28T08:01:57.000Z</time><ele>1237.6</ele></trkpt><trkpt lat="45.975344" lon="10.277373"><time>2025-04-28T08:01:58.000Z</time><ele>1237.8</ele></trkpt><trkpt lat="45.975347" lon="10.27738"><time>2025-04-28T08:01:59.000Z</time><ele>1237.8</ele></trkpt><trkpt lat="45.975346" lon="10.277379"><time>2025-04-28T08:02:00.000Z</time><ele>1237.8</ele></trkpt><trkpt lat="45.975339" lon="10.277385"><time>2025-04-28T08:02:01.000Z</time><ele>1237.8</ele></trkpt><trkpt lat="45.975336" lon="10.277389"><time>2025-04-28T08:02:02.000Z</time><ele>1237.8</ele></trkpt><trkpt lat="45.97533" lon="10.277395"><time>2025-04-28T08:02:03.000Z</time><ele>1237.8</ele></trkpt><trkpt lat="45.975327" lon="10.277389"><time>2025-04-28T08:02:04.000Z</time><ele>1237.8</ele></trkpt><trkpt lat="45.975312" lon="10.277383"><time>2025-04-28T08:02:05.000Z</time><ele>1237.8</ele></trkpt><trkpt lat="45.975304" lon="10.277388"><time>2025-04-28T08:02:06.000Z</time><ele>1237.8</ele></trkpt><trkpt lat="45.97531" lon="10.277406"><time>2025-04-28T08:02:07.000Z</time><ele>1237.8</ele></trkpt><trkpt lat="45.975316" lon="10.277417"><time>2025-04-28T08:02:08.000Z</time><ele>1238</ele></trkpt><trkpt lat="45.975321" lon="10.277423"><time>2025-04-28T08:02:09.000Z</time><ele>1238</ele></trkpt><trkpt lat="45.975324" lon="10.277425"><time>2025-04-28T08:02:10.000Z</time><ele>1238</ele></trkpt><trkpt lat="45.975329" lon="10.277425"><time>2025-04-28T08:02:11.000Z</time><ele>1238</ele></trkpt><trkpt lat="45.975328" lon="10.277427"><time>2025-04-28T08:02:12.000Z</time><ele>1238</ele></trkpt><trkpt lat="45.975317" lon="10.277433"><time>2025-04-28T08:02:13.000Z</time><ele>1238</ele></trkpt><trkpt lat="45.975307" lon="10.27743"><time>2025-04-28T08:02:14.000Z</time><ele>1238.2</ele></trkpt><trkpt lat="45.975294" lon="10.277423"><time>2025-04-28T08:02:15.000Z</time><ele>1238.4</ele></trkpt><trkpt lat="45.975285" lon="10.277416"><time>2025-04-28T08:02:16.000Z</time><ele>1238.6</ele></trkpt><trkpt lat="45.975276" lon="10.277408"><time>2025-04-28T08:02:17.000Z</time><ele>1238.8</ele></trkpt><trkpt lat="45.975273" lon="10.277404"><time>2025-04-28T08:02:18.000Z</time><ele>1238.8</ele></trkpt><trkpt lat="45.975271" lon="10.2774"><time>2025-04-28T08:02:19.000Z</time><ele>1238.8</ele></trkpt><trkpt lat="45.975262" lon="10.277392"><time>2025-04-28T08:02:20.000Z</time><ele>1239</ele></trkpt><trkpt lat="45.975252" lon="10.277387"><time>2025-04-28T08:02:21.000Z</time><ele>1239</ele></trkpt><trkpt lat="45.975246" lon="10.277385"><time>2025-04-28T08:02:22.000Z</time><ele>1239.2</ele></trkpt><trkpt lat="45.975232" lon="10.277386"><time>2025-04-28T08:02:23.000Z</time><ele>1239.4</ele></trkpt><trkpt lat="45.975227" lon="10.277386"><time>2025-04-28T08:02:24.000Z</time><ele>1239.6</ele></trkpt><trkpt lat="45.975228" lon="10.277395"><time>2025-04-28T08:02:25.000Z</time><ele>1239.6</ele></trkpt><trkpt lat="45.97522" lon="10.277402"><time>2025-04-28T08:02:26.000Z</time><ele>1239.8</ele></trkpt><trkpt lat="45.975218" lon="10.277407"><time>2025-04-28T08:02:27.000Z</time><ele>1239.8</ele></trkpt><trkpt lat="45.975216" lon="10.277402"><time>2025-04-28T08:02:28.000Z</time><ele>1240</ele></trkpt><trkpt lat="45.975203" lon="10.277407"><time>2025-04-28T08:02:29.000Z</time><ele>1240</ele></trkpt><trkpt lat="45.975199" lon="10.277409"><time>2025-04-28T08:02:30.000Z</time><ele>1240.2</ele></trkpt><trkpt lat="45.975187" lon="10.277402"><time>2025-04-28T08:02:31.000Z</time><ele>1240.4</ele></trkpt><trkpt lat="45.97518" lon="10.277399"><time>2025-04-28T08:02:32.000Z</time><ele>1240.4</ele></trkpt><trkpt lat="45.975177" lon="10.277399"><time>2025-04-28T08:02:33.000Z</time><ele>1240.6</ele></trkpt><trkpt lat="45.975172" lon="10.277403"><time>2025-04-28T08:02:34.000Z</time><ele>1240.8</ele></trkpt><trkpt lat="45.975169" lon="10.277405"><time>2025-04-28T08:02:35.000Z</time><ele>1241</ele></trkpt><trkpt lat="45.975163" lon="10.277404"><time>2025-04-28T08:02:36.000Z</time><ele>1241.2</ele></trkpt><trkpt lat="45.975155" lon="10.277399"><time>2025-04-28T08:02:37.000Z</time><ele>1241.2</ele></trkpt><trkpt lat="45.975143" lon="10.277396"><time>2025-04-28T08:02:38.000Z</time><ele>1241.4</ele></trkpt><trkpt lat="45.975128" lon="10.277389"><time>2025-04-28T08:02:39.000Z</time><ele>1241.6</ele></trkpt><trkpt lat="45.975126" lon="10.277384"><time>2025-04-28T08:02:40.000Z</time><ele>1241.6</ele></trkpt><trkpt lat="45.975108" lon="10.277377"><time>2025-04-28T08:02:41.000Z</time><ele>1241.8</ele></trkpt><trkpt lat="45.975093" lon="10.277369"><time>2025-04-28T08:02:42.000Z</time><ele>1242</ele></trkpt><trkpt lat="45.975079" lon="10.277368"><time>2025-04-28T08:02:43.000Z</time><ele>1242.2</ele></trkpt><trkpt lat="45.975067" lon="10.277375"><time>2025-04-28T08:02:44.000Z</time><ele>1242.4</ele></trkpt><trkpt lat="45.975061" lon="10.277383"><time>2025-04-28T08:02:45.000Z</time><ele>1242.4</ele></trkpt><trkpt lat="45.975047" lon="10.277385"><time>2025-04-28T08:02:46.000Z</time><ele>1242.6</ele></trkpt><trkpt lat="45.975028" lon="10.277385"><time>2025-04-28T08:02:47.000Z</time><ele>1242.8</ele></trkpt><trkpt lat="45.975018" lon="10.277385"><time>2025-04-28T08:02:48.000Z</time><ele>1242.8</ele></trkpt><trkpt lat="45.975007" lon="10.277388"><time>2025-04-28T08:02:49.000Z</time><ele>1243</ele></trkpt><trkpt lat="45.974998" lon="10.277392"><time>2025-04-28T08:02:50.000Z</time><ele>1243.4</ele></trkpt><trkpt lat="45.975001" lon="10.277404"><time>2025-04-28T08:02:51.000Z</time><ele>1243.6</ele></trkpt><trkpt lat="45.975008" lon="10.277421"><time>2025-04-28T08:02:52.000Z</time><ele>1243.6</ele></trkpt><trkpt lat="45.975009" lon="10.277439"><time>2025-04-28T08:02:53.000Z</time><ele>1244</ele></trkpt><trkpt lat="45.975014" lon="10.277452"><time>2025-04-28T08:02:54.000Z</time><ele>1244.2</ele></trkpt><trkpt lat="45.975014" lon="10.277463"><time>2025-04-28T08:02:55.000Z</time><ele>1244.2</ele></trkpt><trkpt lat="45.975016" lon="10.277467"><time>2025-04-28T08:02:56.000Z</time><ele>1244.4</ele></trkpt><trkpt lat="45.975018" lon="10.277473"><time>2025-04-28T08:02:57.000Z</time><ele>1244.6</ele></trkpt><trkpt lat="45.975019" lon="10.277476"><time>2025-04-28T08:02:58.000Z</time><ele>1244.8</ele></trkpt><trkpt lat="45.97502" lon="10.277474"><time>2025-04-28T08:02:59.000Z</time><ele>1245</ele></trkpt><trkpt lat="45.975025" lon="10.27747"><time>2025-04-28T08:03:00.000Z</time><ele>1245.2</ele></trkpt><trkpt lat="45.975031" lon="10.277468"><time>2025-04-28T08:03:01.000Z</time><ele>1245.4</ele></trkpt><trkpt lat="45.975034" lon="10.277473"><time>2025-04-28T08:03:02.000Z</time><ele>1245.6</ele></trkpt><trkpt lat="45.975035" lon="10.27748"><time>2025-04-28T08:03:03.000Z</time><ele>1245.8</ele></trkpt><trkpt lat="45.975038" lon="10.277482"><time>2025-04-28T08:03:04.000Z</time><ele>1246</ele></trkpt><trkpt lat="45.975035" lon="10.277491"><time>2025-04-28T08:03:05.000Z</time><ele>1246.2</ele></trkpt><trkpt lat="45.975028" lon="10.277498"><time>2025-04-28T08:03:06.000Z</time><ele>1246.4</ele></trkpt><trkpt lat="45.975026" lon="10.277506"><time>2025-04-28T08:03:07.000Z</time><ele>1246.4</ele></trkpt><trkpt lat="45.975027" lon="10.277516"><time>2025-04-28T08:03:08.000Z</time><ele>1246.6</ele></trkpt><trkpt lat="45.975028" lon="10.277522"><time>2025-04-28T08:03:09.000Z</time><ele>1246.8</ele></trkpt><trkpt lat="45.97502" lon="10.277535"><time>2025-04-28T08:03:10.000Z</time><ele>1247</ele></trkpt><trkpt lat="45.975018" lon="10.277538"><time>2025-04-28T08:03:11.000Z</time><ele>1247.2</ele></trkpt><trkpt lat="45.975015" lon="10.27754"><time>2025-04-28T08:03:12.000Z</time><ele>1247.4</ele></trkpt><trkpt lat="45.975013" lon="10.277543"><time>2025-04-28T08:03:13.000Z</time><ele>1247.4</ele></trkpt><trkpt lat="45.975012" lon="10.277556"><time>2025-04-28T08:03:14.000Z</time><ele>1247.6</ele></trkpt><trkpt lat="45.975015" lon="10.277569"><time>2025-04-28T08:03:15.000Z</time><ele>1247.8</ele></trkpt><trkpt lat="45.975002" lon="10.27758"><time>2025-04-28T08:03:16.000Z</time><ele>1247.8</ele></trkpt><trkpt lat="45.974982" lon="10.277581"><time>2025-04-28T08:03:17.000Z</time><ele>1248</ele></trkpt><trkpt lat="45.974969" lon="10.277586"><time>2025-04-28T08:03:18.000Z</time><ele>1248.2</ele></trkpt><trkpt lat="45.974956" lon="10.277596"><time>2025-04-28T08:03:19.000Z</time><ele>1248.4</ele></trkpt><trkpt lat="45.974957" lon="10.277602"><time>2025-04-28T08:03:20.000Z</time><ele>1248.4</ele></trkpt><trkpt lat="45.974961" lon="10.277612"><time>2025-04-28T08:03:21.000Z</time><ele>1248.6</ele></trkpt><trkpt lat="45.97497" lon="10.277624"><time>2025-04-28T08:03:22.000Z</time><ele>1248.6</ele></trkpt><trkpt lat="45.974984" lon="10.277636"><time>2025-04-28T08:03:23.000Z</time><ele>1248.8</ele></trkpt><trkpt lat="45.974996" lon="10.277647"><time>2025-04-28T08:03:24.000Z</time><ele>1248.8</ele></trkpt><trkpt lat="45.975006" lon="10.277657"><time>2025-04-28T08:03:25.000Z</time><ele>1249</ele></trkpt><trkpt lat="45.975011" lon="10.277668"><time>2025-04-28T08:03:26.000Z</time><ele>1249</ele></trkpt><trkpt lat="45.97501" lon="10.277683"><time>2025-04-28T08:03:27.000Z</time><ele>1249.2</ele></trkpt><trkpt lat="45.975009" lon="10.277695"><time>2025-04-28T08:03:28.000Z</time><ele>1249.2</ele></trkpt><trkpt lat="45.975011" lon="10.277707"><time>2025-04-28T08:03:29.000Z</time><ele>1249.2</ele></trkpt><trkpt lat="45.975017" lon="10.277712"><time>2025-04-28T08:03:30.000Z</time><ele>1249.4</ele></trkpt><trkpt lat="45.975029" lon="10.277722"><time>2025-04-28T08:03:31.000Z</time><ele>1249.4</ele></trkpt><trkpt lat="45.975038" lon="10.277731"><time>2025-04-28T08:03:32.000Z</time><ele>1249.6</ele></trkpt><trkpt lat="45.975048" lon="10.277747"><time>2025-04-28T08:03:33.000Z</time><ele>1249.6</ele></trkpt><trkpt lat="45.975049" lon="10.277757"><time>2025-04-28T08:03:34.000Z</time><ele>1249.6</ele></trkpt><trkpt lat="45.975051" lon="10.277775"><time>2025-04-28T08:03:35.000Z</time><ele>1249.8</ele></trkpt><trkpt lat="45.975044" lon="10.277804"><time>2025-04-28T08:03:36.000Z</time><ele>1249.8</ele></trkpt><trkpt lat="45.975041" lon="10.277829"><time>2025-04-28T08:03:37.000Z</time><ele>1250</ele></trkpt><trkpt lat="45.975039" lon="10.277848"><time>2025-04-28T08:03:38.000Z</time><ele>1250</ele></trkpt><trkpt lat="45.975035" lon="10.277868"><time>2025-04-28T08:03:39.000Z</time><ele>1250.2</ele></trkpt><trkpt lat="45.975033" lon="10.277885"><time>2025-04-28T08:03:40.000Z</time><ele>1250.2</ele></trkpt><trkpt lat="45.975032" lon="10.2779"><time>2025-04-28T08:03:41.000Z</time><ele>1250.2</ele></trkpt><trkpt lat="45.97502" lon="10.277915"><time>2025-04-28T08:03:42.000Z</time><ele>1250.4</ele></trkpt><trkpt lat="45.974994" lon="10.277925"><time>2025-04-28T08:03:43.000Z</time><ele>1250.4</ele></trkpt><trkpt lat="45.974998" lon="10.277929"><time>2025-04-28T08:03:44.000Z</time><ele>1250.6</ele></trkpt><trkpt lat="45.975002" lon="10.277943"><time>2025-04-28T08:03:45.000Z</time><ele>1250.6</ele></trkpt><trkpt lat="45.975006" lon="10.277954"><time>2025-04-28T08:03:46.000Z</time><ele>1250.8</ele></trkpt><trkpt lat="45.975006" lon="10.277962"><time>2025-04-28T08:03:47.000Z</time><ele>1250.8</ele></trkpt><trkpt lat="45.975006" lon="10.277965"><time>2025-04-28T08:03:48.000Z</time><ele>1250.8</ele></trkpt><trkpt lat="45.975005" lon="10.277969"><time>2025-04-28T08:03:49.000Z</time><ele>1251</ele></trkpt><trkpt lat="45.975006" lon="10.27797"><time>2025-04-28T08:03:50.000Z</time><ele>1251</ele></trkpt><trkpt lat="45.975003" lon="10.277972"><time>2025-04-28T08:03:51.000Z</time><ele>1251</ele></trkpt><trkpt lat="45.975009" lon="10.277982"><time>2025-04-28T08:03:52.000Z</time><ele>1251</ele></trkpt><trkpt lat="45.975008" lon="10.277982"><time>2025-04-28T08:03:53.000Z</time><ele>1251</ele></trkpt><trkpt lat="45.975007" lon="10.277981"><time>2025-04-28T08:03:54.000Z</time><ele>1251</ele></trkpt><trkpt lat="45.975001" lon="10.277975"><time>2025-04-28T08:03:55.000Z</time><ele>1251.2</ele></trkpt><trkpt lat="45.974997" lon="10.277978"><time>2025-04-28T08:03:56.000Z</time><ele>1251.4</ele></trkpt><trkpt lat="45.974996" lon="10.277982"><time>2025-04-28T08:03:57.000Z</time><ele>1251.4</ele></trkpt><trkpt lat="45.974991" lon="10.277995"><time>2025-04-28T08:03:58.000Z</time><ele>1251.6</ele></trkpt><trkpt lat="45.974983" lon="10.278009"><time>2025-04-28T08:03:59.000Z</time><ele>1251.6</ele></trkpt><trkpt lat="45.97499" lon="10.278028"><time>2025-04-28T08:04:00.000Z</time><ele>1251.8</ele></trkpt><trkpt lat="45.974998" lon="10.278037"><time>2025-04-28T08:04:01.000Z</time><ele>1251.8</ele></trkpt><trkpt lat="45.975" lon="10.278049"><time>2025-04-28T08:04:02.000Z</time><ele>1252</ele></trkpt><trkpt lat="45.975011" lon="10.278058"><time>2025-04-28T08:04:03.000Z</time><ele>1252.2</ele></trkpt><trkpt lat="45.975014" lon="10.278058"><time>2025-04-28T08:04:04.000Z</time><ele>1252.2</ele></trkpt><trkpt lat="45.975016" lon="10.278054"><time>2025-04-28T08:04:05.000Z</time><ele>1252.2</ele></trkpt><trkpt lat="45.975021" lon="10.278055"><time>2025-04-28T08:04:06.000Z</time><ele>1252.2</ele></trkpt><trkpt lat="45.975025" lon="10.278067"><time>2025-04-28T08:04:07.000Z</time><ele>1252.6</ele></trkpt><trkpt lat="45.975027" lon="10.278081"><time>2025-04-28T08:04:08.000Z</time><ele>1252.8</ele></trkpt><trkpt lat="45.97503" lon="10.278094"><time>2025-04-28T08:04:09.000Z</time><ele>1252.8</ele></trkpt><trkpt lat="45.975035" lon="10.278102"><time>2025-04-28T08:04:10.000Z</time><ele>1253</ele></trkpt><trkpt lat="45.975041" lon="10.278118"><time>2025-04-28T08:04:11.000Z</time><ele>1253</ele></trkpt><trkpt lat="45.975047" lon="10.27815"><time>2025-04-28T08:04:12.000Z</time><ele>1253.2</ele></trkpt><trkpt lat="45.97504" lon="10.278178"><time>2025-04-28T08:04:13.000Z</time><ele>1253.2</ele></trkpt><trkpt lat="45.975031" lon="10.278208"><time>2025-04-28T08:04:14.000Z</time><ele>1253.4</ele></trkpt><trkpt lat="45.975034" lon="10.27824"><time>2025-04-28T08:04:15.000Z</time><ele>1253.4</ele></trkpt><trkpt lat="45.975035" lon="10.278267"><time>2025-04-28T08:04:16.000Z</time><ele>1253.4</ele></trkpt><trkpt lat="45.975039" lon="10.278287"><time>2025-04-28T08:04:17.000Z</time><ele>1253.4</ele></trkpt><trkpt lat="45.975044" lon="10.278307"><time>2025-04-28T08:04:18.000Z</time><ele>1253.4</ele></trkpt><trkpt lat="45.975044" lon="10.278321"><time>2025-04-28T08:04:19.000Z</time><ele>1253.4</ele></trkpt><trkpt lat="45.975048" lon="10.278331"><time>2025-04-28T08:04:20.000Z</time><ele>1253.4</ele></trkpt><trkpt lat="45.975052" lon="10.278349"><time>2025-04-28T08:04:21.000Z</time><ele>1253.4</ele></trkpt><trkpt lat="45.975056" lon="10.278366"><time>2025-04-28T08:04:22.000Z</time><ele>1253.4</ele></trkpt><trkpt lat="45.975063" lon="10.278383"><time>2025-04-28T08:04:23.000Z</time><ele>1253.6</ele></trkpt><trkpt lat="45.975073" lon="10.2784"><time>2025-04-28T08:04:24.000Z</time><ele>1253.6</ele></trkpt><trkpt lat="45.975079" lon="10.278414"><time>2025-04-28T08:04:25.000Z</time><ele>1253.8</ele></trkpt><trkpt lat="45.975086" lon="10.278433"><time>2025-04-28T08:04:26.000Z</time><ele>1253.8</ele></trkpt><trkpt lat="45.975082" lon="10.278447"><time>2025-04-28T08:04:27.000Z</time><ele>1253.8</ele></trkpt><trkpt lat="45.975081" lon="10.278461"><time>2025-04-28T08:04:28.000Z</time><ele>1253.8</ele></trkpt><trkpt lat="45.975084" lon="10.278479"><time>2025-04-28T08:04:29.000Z</time><ele>1253.8</ele></trkpt><trkpt lat="45.975091" lon="10.278499"><time>2025-04-28T08:04:30.000Z</time><ele>1254</ele></trkpt><trkpt lat="45.975093" lon="10.27852"><time>2025-04-28T08:04:31.000Z</time><ele>1254</ele></trkpt><trkpt lat="45.975101" lon="10.278544"><time>2025-04-28T08:04:32.000Z</time><ele>1254</ele></trkpt><trkpt lat="45.975109" lon="10.278548"><time>2025-04-28T08:04:33.000Z</time><ele>1254.2</ele></trkpt><trkpt lat="45.975105" lon="10.278565"><time>2025-04-28T08:04:34.000Z</time><ele>1254.2</ele></trkpt><trkpt lat="45.975097" lon="10.278583"><time>2025-04-28T08:04:35.000Z</time><ele>1254.4</ele></trkpt><trkpt lat="45.975083" lon="10.278613"><time>2025-04-28T08:04:36.000Z</time><ele>1254.6</ele></trkpt><trkpt lat="45.97507" lon="10.278644"><time>2025-04-28T08:04:37.000Z</time><ele>1254.6</ele></trkpt><trkpt lat="45.975069" lon="10.278663"><time>2025-04-28T08:04:38.000Z</time><ele>1254.8</ele></trkpt><trkpt lat="45.975074" lon="10.278668"><time>2025-04-28T08:04:39.000Z</time><ele>1255</ele></trkpt><trkpt lat="45.975074" lon="10.278678"><time>2025-04-28T08:04:40.000Z</time><ele>1255.2</ele></trkpt><trkpt lat="45.975076" lon="10.278684"><time>2025-04-28T08:04:41.000Z</time><ele>1255.2</ele></trkpt><trkpt lat="45.975085" lon="10.278686"><time>2025-04-28T08:04:42.000Z</time><ele>1255.4</ele></trkpt><trkpt lat="45.975092" lon="10.278687"><time>2025-04-28T08:04:43.000Z</time><ele>1255.6</ele></trkpt><trkpt lat="45.975094" lon="10.278685"><time>2025-04-28T08:04:44.000Z</time><ele>1255.6</ele></trkpt><trkpt lat="45.975073" lon="10.278679"><time>2025-04-28T08:04:45.000Z</time><ele>1255.8</ele></trkpt><trkpt lat="45.975066" lon="10.278682"><time>2025-04-28T08:04:46.000Z</time><ele>1256</ele></trkpt><trkpt lat="45.975057" lon="10.278689"><time>2025-04-28T08:04:47.000Z</time><ele>1256.2</ele></trkpt><trkpt lat="45.97506" lon="10.278699"><time>2025-04-28T08:04:48.000Z</time><ele>1256.4</ele></trkpt><trkpt lat="45.975085" lon="10.278707"><time>2025-04-28T08:04:49.000Z</time><ele>1256.6</ele></trkpt><trkpt lat="45.975102" lon="10.278719"><time>2025-04-28T08:04:50.000Z</time><ele>1256.8</ele></trkpt><trkpt lat="45.975114" lon="10.278731"><time>2025-04-28T08:04:51.000Z</time><ele>1257</ele></trkpt><trkpt lat="45.975117" lon="10.27874"><time>2025-04-28T08:04:52.000Z</time><ele>1257.2</ele></trkpt><trkpt lat="45.975121" lon="10.278741"><time>2025-04-28T08:04:53.000Z</time><ele>1257.4</ele></trkpt><trkpt lat="45.97513" lon="10.278742"><time>2025-04-28T08:04:54.000Z</time><ele>1257.4</ele></trkpt><trkpt lat="45.975143" lon="10.27875"><time>2025-04-28T08:04:55.000Z</time><ele>1257.6</ele></trkpt><trkpt lat="45.97515" lon="10.278749"><time>2025-04-28T08:04:56.000Z</time><ele>1257.8</ele></trkpt><trkpt lat="45.975157" lon="10.278752"><time>2025-04-28T08:04:57.000Z</time><ele>1258</ele></trkpt><trkpt lat="45.975169" lon="10.278757"><time>2025-04-28T08:04:58.000Z</time><ele>1258</ele></trkpt><trkpt lat="45.975172" lon="10.278753"><time>2025-04-28T08:04:59.000Z</time><ele>1258.2</ele></trkpt><trkpt lat="45.975165" lon="10.278747"><time>2025-04-28T08:05:00.000Z</time><ele>1258.2</ele></trkpt><trkpt lat="45.975128" lon="10.278738"><time>2025-04-28T08:05:01.000Z</time><ele>1258.4</ele></trkpt><trkpt lat="45.97511" lon="10.278733"><time>2025-04-28T08:05:02.000Z</time><ele>1258.4</ele></trkpt><trkpt lat="45.975112" lon="10.278733"><time>2025-04-28T08:05:03.000Z</time><ele>1258.4</ele></trkpt><trkpt lat="45.975112" lon="10.278734"><time>2025-04-28T08:05:04.000Z</time><ele>1258.6</ele></trkpt><trkpt lat="45.975114" lon="10.278742"><time>2025-04-28T08:05:05.000Z</time><ele>1258.6</ele></trkpt><trkpt lat="45.975102" lon="10.278745"><time>2025-04-28T08:05:06.000Z</time><ele>1258.6</ele></trkpt><trkpt lat="45.975096" lon="10.278747"><time>2025-04-28T08:05:07.000Z</time><ele>1258.8</ele></trkpt><trkpt lat="45.975093" lon="10.278748"><time>2025-04-28T08:05:08.000Z</time><ele>1258.8</ele></trkpt><trkpt lat="45.975099" lon="10.27875"><time>2025-04-28T08:05:09.000Z</time><ele>1259</ele></trkpt><trkpt lat="45.975114" lon="10.27875"><time>2025-04-28T08:05:10.000Z</time><ele>1259</ele></trkpt><trkpt lat="45.975123" lon="10.27876"><time>2025-04-28T08:05:11.000Z</time><ele>1259.2</ele></trkpt><trkpt lat="45.975123" lon="10.27877"><time>2025-04-28T08:05:12.000Z</time><ele>1259.2</ele></trkpt><trkpt lat="45.975122" lon="10.278785"><time>2025-04-28T08:05:13.000Z</time><ele>1259.4</ele></trkpt><trkpt lat="45.975123" lon="10.278791"><time>2025-04-28T08:05:14.000Z</time><ele>1259.2</ele></trkpt><trkpt lat="45.975125" lon="10.278799"><time>2025-04-28T08:05:15.000Z</time><ele>1259.4</ele></trkpt><trkpt lat="45.975126" lon="10.278802"><time>2025-04-28T08:05:16.000Z</time><ele>1259.4</ele></trkpt><trkpt lat="45.975124" lon="10.278816"><time>2025-04-28T08:05:17.000Z</time><ele>1259.4</ele></trkpt><trkpt lat="45.975121" lon="10.278828"><time>2025-04-28T08:05:18.000Z</time><ele>1259.6</ele></trkpt><trkpt lat="45.975113" lon="10.278839"><time>2025-04-28T08:05:19.000Z</time><ele>1259.4</ele></trkpt><trkpt lat="45.975108" lon="10.278845"><time>2025-04-28T08:05:20.000Z</time><ele>1259.4</ele></trkpt><trkpt lat="45.97511" lon="10.278855"><time>2025-04-28T08:05:21.000Z</time><ele>1259.4</ele></trkpt><trkpt lat="45.975106" lon="10.27886"><time>2025-04-28T08:05:22.000Z</time><ele>1259.4</ele></trkpt><trkpt lat="45.975103" lon="10.278865"><time>2025-04-28T08:05:23.000Z</time><ele>1259.4</ele></trkpt><trkpt lat="45.975109" lon="10.278881"><time>2025-04-28T08:05:24.000Z</time><ele>1259.2</ele></trkpt><trkpt lat="45.975107" lon="10.278895"><time>2025-04-28T08:05:25.000Z</time><ele>1259.2</ele></trkpt><trkpt lat="45.975103" lon="10.278904"><time>2025-04-28T08:05:26.000Z</time><ele>1259</ele></trkpt><trkpt lat="45.975108" lon="10.278919"><time>2025-04-28T08:05:27.000Z</time><ele>1258.8</ele></trkpt><trkpt lat="45.975121" lon="10.278936"><time>2025-04-28T08:05:28.000Z</time><ele>1258.6</ele></trkpt><trkpt lat="45.975131" lon="10.278948"><time>2025-04-28T08:05:29.000Z</time><ele>1258.6</ele></trkpt><trkpt lat="45.975137" lon="10.27896"><time>2025-04-28T08:05:30.000Z</time><ele>1258.6</ele></trkpt><trkpt lat="45.975137" lon="10.278973"><time>2025-04-28T08:05:31.000Z</time><ele>1258.4</ele></trkpt><trkpt lat="45.975139" lon="10.278988"><time>2025-04-28T08:05:32.000Z</time><ele>1258.4</ele></trkpt><trkpt lat="45.975148" lon="10.279008"><time>2025-04-28T08:05:33.000Z</time><ele>1258.2</ele></trkpt><trkpt lat="45.975166" lon="10.279037"><time>2025-04-28T08:05:34.000Z</time><ele>1258.2</ele></trkpt><trkpt lat="45.975182" lon="10.27907"><time>2025-04-28T08:05:35.000Z</time><ele>1258</ele></trkpt><trkpt lat="45.975178" lon="10.279093"><time>2025-04-28T08:05:36.000Z</time><ele>1258</ele></trkpt><trkpt lat="45.975177" lon="10.279127"><time>2025-04-28T08:05:37.000Z</time><ele>1258</ele></trkpt><trkpt lat="45.97518" lon="10.279156"><time>2025-04-28T08:05:38.000Z</time><ele>1258</ele></trkpt><trkpt lat="45.975181" lon="10.279177"><time>2025-04-28T08:05:39.000Z</time><ele>1258</ele></trkpt><trkpt lat="45.975178" lon="10.279195"><time>2025-04-28T08:05:40.000Z</time><ele>1257.8</ele></trkpt><trkpt lat="45.975172" lon="10.279208"><time>2025-04-28T08:05:41.000Z</time><ele>1257.8</ele></trkpt><trkpt lat="45.975173" lon="10.279229"><time>2025-04-28T08:05:42.000Z</time><ele>1257.8</ele></trkpt><trkpt lat="45.975174" lon="10.279259"><time>2025-04-28T08:05:43.000Z</time><ele>1257.8</ele></trkpt><trkpt lat="45.975169" lon="10.279283"><time>2025-04-28T08:05:44.000Z</time><ele>1257.8</ele></trkpt><trkpt lat="45.975171" lon="10.279301"><time>2025-04-28T08:05:45.000Z</time><ele>1257.8</ele></trkpt><trkpt lat="45.975186" lon="10.27932"><time>2025-04-28T08:05:46.000Z</time><ele>1258</ele></trkpt><trkpt lat="45.975191" lon="10.279341"><time>2025-04-28T08:05:47.000Z</time><ele>1258</ele></trkpt><trkpt lat="45.975196" lon="10.279364"><time>2025-04-28T08:05:48.000Z</time><ele>1258.2</ele></trkpt><trkpt lat="45.975194" lon="10.279389"><time>2025-04-28T08:05:49.000Z</time><ele>1258</ele></trkpt><trkpt lat="45.975194" lon="10.279421"><time>2025-04-28T08:05:50.000Z</time><ele>1258</ele></trkpt><trkpt lat="45.975201" lon="10.27946"><time>2025-04-28T08:05:51.000Z</time><ele>1258</ele></trkpt><trkpt lat="45.975208" lon="10.2795"><time>2025-04-28T08:05:52.000Z</time><ele>1258</ele></trkpt><trkpt lat="45.975216" lon="10.279531"><time>2025-04-28T08:05:53.000Z</time><ele>1258</ele></trkpt><trkpt lat="45.975226" lon="10.279554"><time>2025-04-28T08:05:54.000Z</time><ele>1258</ele></trkpt><trkpt lat="45.975233" lon="10.279579"><time>2025-04-28T08:05:55.000Z</time><ele>1258</ele></trkpt><trkpt lat="45.97524" lon="10.279608"><time>2025-04-28T08:05:56.000Z</time><ele>1258.2</ele></trkpt><trkpt lat="45.97525" lon="10.279631"><time>2025-04-28T08:05:57.000Z</time><ele>1258.2</ele></trkpt><trkpt lat="45.975254" lon="10.279653"><time>2025-04-28T08:05:58.000Z</time><ele>1258</ele></trkpt><trkpt lat="45.975263" lon="10.279678"><time>2025-04-28T08:05:59.000Z</time><ele>1258</ele></trkpt><trkpt lat="45.975274" lon="10.279698"><time>2025-04-28T08:06:00.000Z</time><ele>1257.8</ele></trkpt><trkpt lat="45.975295" lon="10.279713"><time>2025-04-28T08:06:01.000Z</time><ele>1257.8</ele></trkpt><trkpt lat="45.975314" lon="10.279724"><time>2025-04-28T08:06:02.000Z</time><ele>1257.6</ele></trkpt><trkpt lat="45.975332" lon="10.279731"><time>2025-04-28T08:06:03.000Z</time><ele>1257.6</ele></trkpt><trkpt lat="45.975341" lon="10.279737"><time>2025-04-28T08:06:04.000Z</time><ele>1257.6</ele></trkpt><trkpt lat="45.97534" lon="10.279746"><time>2025-04-28T08:06:05.000Z</time><ele>1257.6</ele></trkpt><trkpt lat="45.97534" lon="10.279753"><time>2025-04-28T08:06:06.000Z</time><ele>1257.6</ele></trkpt><trkpt lat="45.97534" lon="10.279759"><time>2025-04-28T08:06:07.000Z</time><ele>1257.6</ele></trkpt><trkpt lat="45.975345" lon="10.279778"><time>2025-04-28T08:06:08.000Z</time><ele>1257.6</ele></trkpt><trkpt lat="45.975355" lon="10.279804"><time>2025-04-28T08:06:09.000Z</time><ele>1257.6</ele></trkpt><trkpt lat="45.975359" lon="10.279836"><time>2025-04-28T08:06:10.000Z</time><ele>1257.6</ele></trkpt><trkpt lat="45.97536" lon="10.279855"><time>2025-04-28T08:06:11.000Z</time><ele>1257.6</ele></trkpt><trkpt lat="45.975374" lon="10.279877"><time>2025-04-28T08:06:12.000Z</time><ele>1257.4</ele></trkpt><trkpt lat="45.975398" lon="10.279907"><time>2025-04-28T08:06:13.000Z</time><ele>1257.2</ele></trkpt><trkpt lat="45.97541" lon="10.279926"><time>2025-04-28T08:06:14.000Z</time><ele>1257.2</ele></trkpt><trkpt lat="45.975415" lon="10.27993"><time>2025-04-28T08:06:15.000Z</time><ele>1257.2</ele></trkpt><trkpt lat="45.975427" lon="10.279945"><time>2025-04-28T08:06:16.000Z</time><ele>1257.2</ele></trkpt><trkpt lat="45.975423" lon="10.279965"><time>2025-04-28T08:06:17.000Z</time><ele>1257</ele></trkpt><trkpt lat="45.975408" lon="10.279988"><time>2025-04-28T08:06:18.000Z</time><ele>1257</ele></trkpt><trkpt lat="45.975398" lon="10.280005"><time>2025-04-28T08:06:19.000Z</time><ele>1257</ele></trkpt><trkpt lat="45.975393" lon="10.280019"><time>2025-04-28T08:06:20.000Z</time><ele>1257</ele></trkpt><trkpt lat="45.975385" lon="10.280027"><time>2025-04-28T08:06:21.000Z</time><ele>1257</ele></trkpt><trkpt lat="45.975378" lon="10.280043"><time>2025-04-28T08:06:22.000Z</time><ele>1257</ele></trkpt><trkpt lat="45.975384" lon="10.280054"><time>2025-04-28T08:06:23.000Z</time><ele>1257</ele></trkpt><trkpt lat="45.975397" lon="10.280069"><time>2025-04-28T08:06:24.000Z</time><ele>1257</ele></trkpt><trkpt lat="45.975407" lon="10.280088"><time>2025-04-28T08:06:25.000Z</time><ele>1257</ele></trkpt><trkpt lat="45.975409" lon="10.280108"><time>2025-04-28T08:06:26.000Z</time><ele>1257</ele></trkpt><trkpt lat="45.975415" lon="10.280131"><time>2025-04-28T08:06:27.000Z</time><ele>1257</ele></trkpt><trkpt lat="45.975411" lon="10.280145"><time>2025-04-28T08:06:28.000Z</time><ele>1257</ele></trkpt><trkpt lat="45.975408" lon="10.280163"><time>2025-04-28T08:06:29.000Z</time><ele>1257</ele></trkpt><trkpt lat="45.975403" lon="10.280182"><time>2025-04-28T08:06:30.000Z</time><ele>1257</ele></trkpt><trkpt lat="45.975407" lon="10.280202"><time>2025-04-28T08:06:31.000Z</time><ele>1257</ele></trkpt><trkpt lat="45.975409" lon="10.280208"><time>2025-04-28T08:06:32.000Z</time><ele>1257</ele></trkpt><trkpt lat="45.975404" lon="10.280215"><time>2025-04-28T08:06:33.000Z</time><ele>1257.2</ele></trkpt><trkpt lat="45.975397" lon="10.280227"><time>2025-04-28T08:06:34.000Z</time><ele>1257.2</ele></trkpt><trkpt lat="45.975393" lon="10.280229"><time>2025-04-28T08:06:35.000Z</time><ele>1257.4</ele></trkpt><trkpt lat="45.975395" lon="10.280239"><time>2025-04-28T08:06:36.000Z</time><ele>1257.4</ele></trkpt><trkpt lat="45.975399" lon="10.280248"><time>2025-04-28T08:06:37.000Z</time><ele>1257.6</ele></trkpt><trkpt lat="45.975414" lon="10.280255"><time>2025-04-28T08:06:38.000Z</time><ele>1257.6</ele></trkpt><trkpt lat="45.975432" lon="10.28026"><time>2025-04-28T08:06:39.000Z</time><ele>1257.6</ele></trkpt><trkpt lat="45.975459" lon="10.280276"><time>2025-04-28T08:06:40.000Z</time><ele>1257.8</ele></trkpt><trkpt lat="45.975478" lon="10.280288"><time>2025-04-28T08:06:41.000Z</time><ele>1257.8</ele></trkpt><trkpt lat="45.97551" lon="10.280312"><time>2025-04-28T08:06:42.000Z</time><ele>1257.8</ele></trkpt><trkpt lat="45.975527" lon="10.280322"><time>2025-04-28T08:06:43.000Z</time><ele>1257.8</ele></trkpt><trkpt lat="45.975523" lon="10.280331"><time>2025-04-28T08:06:44.000Z</time><ele>1257.8</ele></trkpt><trkpt lat="45.975516" lon="10.280339"><time>2025-04-28T08:06:45.000Z</time><ele>1257.8</ele></trkpt><trkpt lat="45.975504" lon="10.280352"><time>2025-04-28T08:06:46.000Z</time><ele>1258</ele></trkpt><trkpt lat="45.975489" lon="10.280359"><time>2025-04-28T08:06:47.000Z</time><ele>1258</ele></trkpt><trkpt lat="45.97547" lon="10.280368"><time>2025-04-28T08:06:48.000Z</time><ele>1258.2</ele></trkpt><trkpt lat="45.975458" lon="10.280376"><time>2025-04-28T08:06:49.000Z</time><ele>1258.2</ele></trkpt><trkpt lat="45.975447" lon="10.28039"><time>2025-04-28T08:06:50.000Z</time><ele>1258.2</ele></trkpt><trkpt lat="45.975435" lon="10.280404"><time>2025-04-28T08:06:51.000Z</time><ele>1258.2</ele></trkpt><trkpt lat="45.975425" lon="10.280415"><time>2025-04-28T08:06:52.000Z</time><ele>1258.2</ele></trkpt><trkpt lat="45.975412" lon="10.280424"><time>2025-04-28T08:06:53.000Z</time><ele>1258.4</ele></trkpt><trkpt lat="45.975399" lon="10.280433"><time>2025-04-28T08:06:54.000Z</time><ele>1258.4</ele></trkpt><trkpt lat="45.975398" lon="10.280445"><time>2025-04-28T08:06:55.000Z</time><ele>1258.4</ele></trkpt><trkpt lat="45.975391" lon="10.280453"><time>2025-04-28T08:06:56.000Z</time><ele>1258.4</ele></trkpt><trkpt lat="45.97539" lon="10.28047"><time>2025-04-28T08:06:57.000Z</time><ele>1258.6</ele></trkpt><trkpt lat="45.975396" lon="10.280502"><time>2025-04-28T08:06:58.000Z</time><ele>1258.6</ele></trkpt><trkpt lat="45.975404" lon="10.280527"><time>2025-04-28T08:06:59.000Z</time><ele>1258.6</ele></trkpt><trkpt lat="45.975411" lon="10.280552"><time>2025-04-28T08:07:00.000Z</time><ele>1258.6</ele></trkpt><trkpt lat="45.975409" lon="10.280573"><time>2025-04-28T08:07:01.000Z</time><ele>1258.4</ele></trkpt><trkpt lat="45.975395" lon="10.280587"><time>2025-04-28T08:07:02.000Z</time><ele>1258.4</ele></trkpt><trkpt lat="45.975381" lon="10.280599"><time>2025-04-28T08:07:03.000Z</time><ele>1258.2</ele></trkpt><trkpt lat="45.975376" lon="10.280611"><time>2025-04-28T08:07:04.000Z</time><ele>1258</ele></trkpt><trkpt lat="45.975374" lon="10.28062"><time>2025-04-28T08:07:05.000Z</time><ele>1257.8</ele></trkpt><trkpt lat="45.975372" lon="10.280626"><time>2025-04-28T08:07:06.000Z</time><ele>1257.8</ele></trkpt><trkpt lat="45.975376" lon="10.280631"><time>2025-04-28T08:07:07.000Z</time><ele>1257.6</ele></trkpt><trkpt lat="45.975371" lon="10.280641"><time>2025-04-28T08:07:08.000Z</time><ele>1257.4</ele></trkpt><trkpt lat="45.97537" lon="10.280654"><time>2025-04-28T08:07:09.000Z</time><ele>1257.2</ele></trkpt><trkpt lat="45.975359" lon="10.280667"><time>2025-04-28T08:07:10.000Z</time><ele>1257.2</ele></trkpt><trkpt lat="45.975358" lon="10.280692"><time>2025-04-28T08:07:11.000Z</time><ele>1257</ele></trkpt><trkpt lat="45.975369" lon="10.280722"><time>2025-04-28T08:07:12.000Z</time><ele>1257</ele></trkpt><trkpt lat="45.975359" lon="10.280746"><time>2025-04-28T08:07:13.000Z</time><ele>1257</ele></trkpt><trkpt lat="45.97536" lon="10.280754"><time>2025-04-28T08:07:14.000Z</time><ele>1257</ele></trkpt><trkpt lat="45.975356" lon="10.280776"><time>2025-04-28T08:07:15.000Z</time><ele>1257</ele></trkpt><trkpt lat="45.975347" lon="10.28081"><time>2025-04-28T08:07:16.000Z</time><ele>1257</ele></trkpt><trkpt lat="45.975336" lon="10.280847"><time>2025-04-28T08:07:17.000Z</time><ele>1257</ele></trkpt><trkpt lat="45.975325" lon="10.280895"><time>2025-04-28T08:07:18.000Z</time><ele>1257</ele></trkpt><trkpt lat="45.975318" lon="10.280916"><time>2025-04-28T08:07:19.000Z</time><ele>1257</ele></trkpt><trkpt lat="45.975318" lon="10.280933"><time>2025-04-28T08:07:20.000Z</time><ele>1257</ele></trkpt><trkpt lat="45.975316" lon="10.280949"><time>2025-04-28T08:07:21.000Z</time><ele>1257</ele></trkpt><trkpt lat="45.975306" lon="10.280961"><time>2025-04-28T08:07:22.000Z</time><ele>1257</ele></trkpt><trkpt lat="45.975279" lon="10.28097"><time>2025-04-28T08:07:23.000Z</time><ele>1257</ele></trkpt><trkpt lat="45.975255" lon="10.280977"><time>2025-04-28T08:07:24.000Z</time><ele>1257</ele></trkpt><trkpt lat="45.975247" lon="10.280992"><time>2025-04-28T08:07:25.000Z</time><ele>1257</ele></trkpt><trkpt lat="45.975212" lon="10.280978"><time>2025-04-28T08:07:26.000Z</time><ele>1257</ele></trkpt><trkpt lat="45.975202" lon="10.280977"><time>2025-04-28T08:07:27.000Z</time><ele>1257</ele></trkpt><trkpt lat="45.975202" lon="10.280994"><time>2025-04-28T08:07:28.000Z</time><ele>1257.2</ele></trkpt><trkpt lat="45.975204" lon="10.280999"><time>2025-04-28T08:07:29.000Z</time><ele>1257.4</ele></trkpt><trkpt lat="45.975206" lon="10.281002"><time>2025-04-28T08:07:30.000Z</time><ele>1257.4</ele></trkpt><trkpt lat="45.975208" lon="10.281"><time>2025-04-28T08:07:31.000Z</time><ele>1257.4</ele></trkpt><trkpt lat="45.975207" lon="10.281005"><time>2025-04-28T08:07:32.000Z</time><ele>1257.6</ele></trkpt><trkpt lat="45.975203" lon="10.281008"><time>2025-04-28T08:07:33.000Z</time><ele>1257.8</ele></trkpt><trkpt lat="45.975197" lon="10.281007"><time>2025-04-28T08:07:34.000Z</time><ele>1257.8</ele></trkpt><trkpt lat="45.975192" lon="10.281005"><time>2025-04-28T08:07:35.000Z</time><ele>1257.8</ele></trkpt><trkpt lat="45.975195" lon="10.281005"><time>2025-04-28T08:07:36.000Z</time><ele>1258</ele></trkpt><trkpt lat="45.975193" lon="10.281003"><time>2025-04-28T08:07:37.000Z</time><ele>1258</ele></trkpt><trkpt lat="45.975204" lon="10.28101"><time>2025-04-28T08:07:38.000Z</time><ele>1258</ele></trkpt><trkpt lat="45.975206" lon="10.281014"><time>2025-04-28T08:07:39.000Z</time><ele>1258</ele></trkpt><trkpt lat="45.975209" lon="10.281022"><time>2025-04-28T08:07:40.000Z</time><ele>1258</ele></trkpt><trkpt lat="45.975215" lon="10.281029"><time>2025-04-28T08:07:41.000Z</time><ele>1257.8</ele></trkpt><trkpt lat="45.975213" lon="10.28103"><time>2025-04-28T08:07:42.000Z</time><ele>1257.8</ele></trkpt><trkpt lat="45.975208" lon="10.281031"><time>2025-04-28T08:07:43.000Z</time><ele>1257.8</ele></trkpt><trkpt lat="45.975201" lon="10.281031"><time>2025-04-28T08:07:44.000Z</time><ele>1258</ele></trkpt><trkpt lat="45.975199" lon="10.28103"><time>2025-04-28T08:07:45.000Z</time><ele>1258</ele></trkpt><trkpt lat="45.975199" lon="10.28103"><time>2025-04-28T08:07:46.000Z</time><ele>1258</ele></trkpt><trkpt lat="45.975199" lon="10.28103"><time>2025-04-28T08:07:47.000Z</time><ele>1258.2</ele></trkpt><trkpt lat="45.975199" lon="10.28103"><time>2025-04-28T08:07:48.000Z</time><ele>1258.4</ele></trkpt><trkpt lat="45.975199" lon="10.28103"><time>2025-04-28T08:07:49.000Z</time><ele>1258.8</ele></trkpt><trkpt lat="45.975196" lon="10.281028"><time>2025-04-28T08:07:50.000Z</time><ele>1259</ele></trkpt><trkpt lat="45.975186" lon="10.28102"><time>2025-04-28T08:07:51.000Z</time><ele>1259</ele></trkpt><trkpt lat="45.975172" lon="10.281014"><time>2025-04-28T08:07:52.000Z</time><ele>1259.2</ele></trkpt><trkpt lat="45.975158" lon="10.281008"><time>2025-04-28T08:07:53.000Z</time><ele>1259.2</ele></trkpt><trkpt lat="45.975146" lon="10.281002"><time>2025-04-28T08:07:54.000Z</time><ele>1259.4</ele></trkpt><trkpt lat="45.975136" lon="10.280994"><time>2025-04-28T08:07:55.000Z</time><ele>1259.4</ele></trkpt><trkpt lat="45.975124" lon="10.280985"><time>2025-04-28T08:07:56.000Z</time><ele>1259.8</ele></trkpt><trkpt lat="45.97512" lon="10.280976"><time>2025-04-28T08:07:57.000Z</time><ele>1260</ele></trkpt><trkpt lat="45.975122" lon="10.280968"><time>2025-04-28T08:07:58.000Z</time><ele>1260</ele></trkpt><trkpt lat="45.975119" lon="10.280958"><time>2025-04-28T08:07:59.000Z</time><ele>1260.2</ele></trkpt><trkpt lat="45.975116" lon="10.280951"><time>2025-04-28T08:08:00.000Z</time><ele>1260.6</ele></trkpt><trkpt lat="45.97511" lon="10.280945"><time>2025-04-28T08:08:01.000Z</time><ele>1260.8</ele></trkpt><trkpt lat="45.975101" lon="10.280945"><time>2025-04-28T08:08:02.000Z</time><ele>1261</ele></trkpt><trkpt lat="45.9751" lon="10.28094"><time>2025-04-28T08:08:03.000Z</time><ele>1261.2</ele></trkpt><trkpt lat="45.975091" lon="10.280937"><time>2025-04-28T08:08:04.000Z</time><ele>1261.4</ele></trkpt><trkpt lat="45.97508" lon="10.280937"><time>2025-04-28T08:08:05.000Z</time><ele>1261.4</ele></trkpt><trkpt lat="45.975076" lon="10.280932"><time>2025-04-28T08:08:06.000Z</time><ele>1261.6</ele></trkpt><trkpt lat="45.975072" lon="10.280929"><time>2025-04-28T08:08:07.000Z</time><ele>1261.8</ele></trkpt><trkpt lat="45.975067" lon="10.280929"><time>2025-04-28T08:08:08.000Z</time><ele>1262</ele></trkpt><trkpt lat="45.975056" lon="10.280922"><time>2025-04-28T08:08:09.000Z</time><ele>1262</ele></trkpt><trkpt lat="45.975036" lon="10.280908"><time>2025-04-28T08:08:10.000Z</time><ele>1262.2</ele></trkpt><trkpt lat="45.975019" lon="10.280888"><time>2025-04-28T08:08:11.000Z</time><ele>1262.4</ele></trkpt><trkpt lat="45.975006" lon="10.280876"><time>2025-04-28T08:08:12.000Z</time><ele>1262.6</ele></trkpt><trkpt lat="45.975002" lon="10.280866"><time>2025-04-28T08:08:13.000Z</time><ele>1262.6</ele></trkpt><trkpt lat="45.97501" lon="10.280858"><time>2025-04-28T08:08:14.000Z</time><ele>1262.8</ele></trkpt><trkpt lat="45.975021" lon="10.280858"><time>2025-04-28T08:08:15.000Z</time><ele>1263</ele></trkpt><trkpt lat="45.97502" lon="10.280851"><time>2025-04-28T08:08:16.000Z</time><ele>1263.2</ele></trkpt><trkpt lat="45.975019" lon="10.280844"><time>2025-04-28T08:08:17.000Z</time><ele>1263.4</ele></trkpt><trkpt lat="45.975024" lon="10.280835"><time>2025-04-28T08:08:18.000Z</time><ele>1263.6</ele></trkpt><trkpt lat="45.975028" lon="10.280821"><time>2025-04-28T08:08:19.000Z</time><ele>1263.8</ele></trkpt><trkpt lat="45.975028" lon="10.280812"><time>2025-04-28T08:08:20.000Z</time><ele>1264</ele></trkpt><trkpt lat="45.975034" lon="10.280802"><time>2025-04-28T08:08:21.000Z</time><ele>1264.2</ele></trkpt><trkpt lat="45.975041" lon="10.280793"><time>2025-04-28T08:08:22.000Z</time><ele>1264.2</ele></trkpt><trkpt lat="45.975043" lon="10.280787"><time>2025-04-28T08:08:23.000Z</time><ele>1264.4</ele></trkpt><trkpt lat="45.975043" lon="10.280786"><time>2025-04-28T08:08:24.000Z</time><ele>1264.4</ele></trkpt><trkpt lat="45.975038" lon="10.280788"><time>2025-04-28T08:08:25.000Z</time><ele>1264.6</ele></trkpt><trkpt lat="45.975031" lon="10.280795"><time>2025-04-28T08:08:26.000Z</time><ele>1264.8</ele></trkpt><trkpt lat="45.975032" lon="10.280794"><time>2025-04-28T08:08:27.000Z</time><ele>1264.8</ele></trkpt><trkpt lat="45.975034" lon="10.280791"><time>2025-04-28T08:08:28.000Z</time><ele>1265.2</ele></trkpt><trkpt lat="45.97503" lon="10.28079"><time>2025-04-28T08:08:29.000Z</time><ele>1265.4</ele></trkpt><trkpt lat="45.975027" lon="10.280788"><time>2025-04-28T08:08:30.000Z</time><ele>1265.6</ele></trkpt><trkpt lat="45.975023" lon="10.280782"><time>2025-04-28T08:08:31.000Z</time><ele>1265.6</ele></trkpt><trkpt lat="45.97502" lon="10.280767"><time>2025-04-28T08:08:32.000Z</time><ele>1265.8</ele></trkpt><trkpt lat="45.975014" lon="10.280761"><time>2025-04-28T08:08:33.000Z</time><ele>1266</ele></trkpt><trkpt lat="45.975015" lon="10.280743"><time>2025-04-28T08:08:34.000Z</time><ele>1266</ele></trkpt><trkpt lat="45.975016" lon="10.280722"><time>2025-04-28T08:08:35.000Z</time><ele>1266.4</ele></trkpt><trkpt lat="45.975009" lon="10.280709"><time>2025-04-28T08:08:36.000Z</time><ele>1266.6</ele></trkpt><trkpt lat="45.975004" lon="10.280701"><time>2025-04-28T08:08:37.000Z</time><ele>1266.6</ele></trkpt><trkpt lat="45.974998" lon="10.2807"><time>2025-04-28T08:08:38.000Z</time><ele>1267</ele></trkpt><trkpt lat="45.974994" lon="10.2807"><time>2025-04-28T08:08:39.000Z</time><ele>1267.2</ele></trkpt><trkpt lat="45.974992" lon="10.280695"><time>2025-04-28T08:08:40.000Z</time><ele>1267.2</ele></trkpt><trkpt lat="45.974985" lon="10.28069"><time>2025-04-28T08:08:41.000Z</time><ele>1267.4</ele></trkpt><trkpt lat="45.974968" lon="10.280692"><time>2025-04-28T08:08:42.000Z</time><ele>1267.4</ele></trkpt><trkpt lat="45.974961" lon="10.28069"><time>2025-04-28T08:08:43.000Z</time><ele>1267.6</ele></trkpt><trkpt lat="45.974952" lon="10.280686"><time>2025-04-28T08:08:44.000Z</time><ele>1267.8</ele></trkpt><trkpt lat="45.974949" lon="10.280685"><time>2025-04-28T08:08:45.000Z</time><ele>1268</ele></trkpt><trkpt lat="45.974948" lon="10.280686"><time>2025-04-28T08:08:46.000Z</time><ele>1268.2</ele></trkpt><trkpt lat="45.974945" lon="10.280685"><time>2025-04-28T08:08:47.000Z</time><ele>1268.4</ele></trkpt><trkpt lat="45.974974" lon="10.280669"><time>2025-04-28T08:08:48.000Z</time><ele>1268.6</ele></trkpt><trkpt lat="45.97498" lon="10.280661"><time>2025-04-28T08:08:49.000Z</time><ele>1268.8</ele></trkpt><trkpt lat="45.974983" lon="10.280654"><time>2025-04-28T08:08:50.000Z</time><ele>1268.8</ele></trkpt><trkpt lat="45.974991" lon="10.280648"><time>2025-04-28T08:08:51.000Z</time><ele>1269</ele></trkpt><trkpt lat="45.975005" lon="10.280643"><time>2025-04-28T08:08:52.000Z</time><ele>1269.2</ele></trkpt><trkpt lat="45.975006" lon="10.28064"><time>2025-04-28T08:08:53.000Z</time><ele>1269.2</ele></trkpt><trkpt lat="45.97501" lon="10.280635"><time>2025-04-28T08:08:54.000Z</time><ele>1269.4</ele></trkpt><trkpt lat="45.975009" lon="10.280629"><time>2025-04-28T08:08:55.000Z</time><ele>1269.6</ele></trkpt><trkpt lat="45.975007" lon="10.280622"><time>2025-04-28T08:08:56.000Z</time><ele>1269.8</ele></trkpt><trkpt lat="45.974999" lon="10.280618"><time>2025-04-28T08:08:57.000Z</time><ele>1270</ele></trkpt><trkpt lat="45.974995" lon="10.280606"><time>2025-04-28T08:08:58.000Z</time><ele>1270.2</ele></trkpt><trkpt lat="45.974996" lon="10.2806"><time>2025-04-28T08:08:59.000Z</time><ele>1270.4</ele></trkpt><trkpt lat="45.974994" lon="10.280598"><time>2025-04-28T08:09:00.000Z</time><ele>1270.6</ele></trkpt><trkpt lat="45.974993" lon="10.280594"><time>2025-04-28T08:09:01.000Z</time><ele>1270.8</ele></trkpt><trkpt lat="45.974993" lon="10.280589"><time>2025-04-28T08:09:02.000Z</time><ele>1271</ele></trkpt><trkpt lat="45.974987" lon="10.280583"><time>2025-04-28T08:09:03.000Z</time><ele>1271.2</ele></trkpt><trkpt lat="45.974981" lon="10.280577"><time>2025-04-28T08:09:04.000Z</time><ele>1271.4</ele></trkpt><trkpt lat="45.974983" lon="10.280575"><time>2025-04-28T08:09:05.000Z</time><ele>1271.8</ele></trkpt><trkpt lat="45.974985" lon="10.280572"><time>2025-04-28T08:09:06.000Z</time><ele>1271.8</ele></trkpt><trkpt lat="45.974983" lon="10.280567"><time>2025-04-28T08:09:07.000Z</time><ele>1272</ele></trkpt><trkpt lat="45.974979" lon="10.28056"><time>2025-04-28T08:09:08.000Z</time><ele>1272.2</ele></trkpt><trkpt lat="45.97497" lon="10.280559"><time>2025-04-28T08:09:09.000Z</time><ele>1272.2</ele></trkpt><trkpt lat="45.974961" lon="10.28055"><time>2025-04-28T08:09:10.000Z</time><ele>1272.2</ele></trkpt><trkpt lat="45.974954" lon="10.280541"><time>2025-04-28T08:09:11.000Z</time><ele>1272.4</ele></trkpt><trkpt lat="45.974949" lon="10.280539"><time>2025-04-28T08:09:12.000Z</time><ele>1272.6</ele></trkpt><trkpt lat="45.974939" lon="10.280537"><time>2025-04-28T08:09:13.000Z</time><ele>1272.8</ele></trkpt><trkpt lat="45.974934" lon="10.280528"><time>2025-04-28T08:09:14.000Z</time><ele>1273</ele></trkpt><trkpt lat="45.974933" lon="10.280517"><time>2025-04-28T08:09:15.000Z</time><ele>1273.2</ele></trkpt><trkpt lat="45.974926" lon="10.280514"><time>2025-04-28T08:09:16.000Z</time><ele>1273.2</ele></trkpt><trkpt lat="45.974919" lon="10.280511"><time>2025-04-28T08:09:17.000Z</time><ele>1273.4</ele></trkpt><trkpt lat="45.974915" lon="10.28051"><time>2025-04-28T08:09:18.000Z</time><ele>1273.4</ele></trkpt><trkpt lat="45.974919" lon="10.280508"><time>2025-04-28T08:09:19.000Z</time><ele>1273.6</ele></trkpt><trkpt lat="45.974926" lon="10.280505"><time>2025-04-28T08:09:20.000Z</time><ele>1274</ele></trkpt><trkpt lat="45.974928" lon="10.280502"><time>2025-04-28T08:09:21.000Z</time><ele>1274.2</ele></trkpt><trkpt lat="45.974927" lon="10.2805"><time>2025-04-28T08:09:22.000Z</time><ele>1274.4</ele></trkpt><trkpt lat="45.974921" lon="10.280493"><time>2025-04-28T08:09:23.000Z</time><ele>1274.6</ele></trkpt><trkpt lat="45.974914" lon="10.280489"><time>2025-04-28T08:09:24.000Z</time><ele>1274.8</ele></trkpt><trkpt lat="45.974906" lon="10.280479"><time>2025-04-28T08:09:25.000Z</time><ele>1275.2</ele></trkpt><trkpt lat="45.974893" lon="10.280457"><time>2025-04-28T08:09:26.000Z</time><ele>1275.2</ele></trkpt><trkpt lat="45.974876" lon="10.280443"><time>2025-04-28T08:09:27.000Z</time><ele>1275.4</ele></trkpt><trkpt lat="45.974857" lon="10.280438"><time>2025-04-28T08:09:28.000Z</time><ele>1275.6</ele></trkpt><trkpt lat="45.974825" lon="10.280431"><time>2025-04-28T08:09:29.000Z</time><ele>1275.8</ele></trkpt><trkpt lat="45.974818" lon="10.280429"><time>2025-04-28T08:09:30.000Z</time><ele>1275.8</ele></trkpt><trkpt lat="45.974805" lon="10.280438"><time>2025-04-28T08:09:31.000Z</time><ele>1276</ele></trkpt><trkpt lat="45.974795" lon="10.28044"><time>2025-04-28T08:09:32.000Z</time><ele>1276.2</ele></trkpt><trkpt lat="45.974788" lon="10.28044"><time>2025-04-28T08:09:33.000Z</time><ele>1276.2</ele></trkpt><trkpt lat="45.97479" lon="10.280435"><time>2025-04-28T08:09:34.000Z</time><ele>1276.4</ele></trkpt><trkpt lat="45.974802" lon="10.280428"><time>2025-04-28T08:09:35.000Z</time><ele>1276.6</ele></trkpt><trkpt lat="45.974814" lon="10.280421"><time>2025-04-28T08:09:36.000Z</time><ele>1276.8</ele></trkpt><trkpt lat="45.974828" lon="10.280416"><time>2025-04-28T08:09:37.000Z</time><ele>1277</ele></trkpt><trkpt lat="45.974834" lon="10.280401"><time>2025-04-28T08:09:38.000Z</time><ele>1277</ele></trkpt><trkpt lat="45.974833" lon="10.280397"><time>2025-04-28T08:09:39.000Z</time><ele>1277.2</ele></trkpt><trkpt lat="45.974834" lon="10.280391"><time>2025-04-28T08:09:40.000Z</time><ele>1277.4</ele></trkpt><trkpt lat="45.974814" lon="10.28037"><time>2025-04-28T08:09:41.000Z</time><ele>1277.4</ele></trkpt><trkpt lat="45.974812" lon="10.280361"><time>2025-04-28T08:09:42.000Z</time><ele>1277.6</ele></trkpt><trkpt lat="45.974808" lon="10.280355"><time>2025-04-28T08:09:43.000Z</time><ele>1277.8</ele></trkpt><trkpt lat="45.97478" lon="10.280352"><time>2025-04-28T08:09:44.000Z</time><ele>1278</ele></trkpt><trkpt lat="45.974768" lon="10.280347"><time>2025-04-28T08:09:45.000Z</time><ele>1278.2</ele></trkpt><trkpt lat="45.974757" lon="10.28034"><time>2025-04-28T08:09:46.000Z</time><ele>1278.4</ele></trkpt><trkpt lat="45.974754" lon="10.280335"><time>2025-04-28T08:09:47.000Z</time><ele>1278.4</ele></trkpt><trkpt lat="45.974746" lon="10.280334"><time>2025-04-28T08:09:48.000Z</time><ele>1278.6</ele></trkpt><trkpt lat="45.974736" lon="10.280331"><time>2025-04-28T08:09:49.000Z</time><ele>1278.6</ele></trkpt><trkpt lat="45.974727" lon="10.28033"><time>2025-04-28T08:09:50.000Z</time><ele>1278.8</ele></trkpt><trkpt lat="45.974725" lon="10.280324"><time>2025-04-28T08:09:51.000Z</time><ele>1278.8</ele></trkpt><trkpt lat="45.974728" lon="10.28032"><time>2025-04-28T08:09:52.000Z</time><ele>1279</ele></trkpt><trkpt lat="45.974726" lon="10.280316"><time>2025-04-28T08:09:53.000Z</time><ele>1279</ele></trkpt><trkpt lat="45.974718" lon="10.280309"><time>2025-04-28T08:09:54.000Z</time><ele>1279.2</ele></trkpt><trkpt lat="45.974706" lon="10.280299"><time>2025-04-28T08:09:55.000Z</time><ele>1279.4</ele></trkpt><trkpt lat="45.974697" lon="10.280295"><time>2025-04-28T08:09:56.000Z</time><ele>1279.4</ele></trkpt><trkpt lat="45.974709" lon="10.280296"><time>2025-04-28T08:09:57.000Z</time><ele>1279.6</ele></trkpt><trkpt lat="45.974705" lon="10.280289"><time>2025-04-28T08:09:58.000Z</time><ele>1279.8</ele></trkpt><trkpt lat="45.974702" lon="10.280288"><time>2025-04-28T08:09:59.000Z</time><ele>1279.8</ele></trkpt><trkpt lat="45.974688" lon="10.280289"><time>2025-04-28T08:10:00.000Z</time><ele>1280</ele></trkpt><trkpt lat="45.974682" lon="10.280283"><time>2025-04-28T08:10:01.000Z</time><ele>1280.4</ele></trkpt><trkpt lat="45.974675" lon="10.280276"><time>2025-04-28T08:10:02.000Z</time><ele>1280.6</ele></trkpt><trkpt lat="45.974669" lon="10.280276"><time>2025-04-28T08:10:03.000Z</time><ele>1280.8</ele></trkpt><trkpt lat="45.97466" lon="10.280264"><time>2025-04-28T08:10:04.000Z</time><ele>1281</ele></trkpt><trkpt lat="45.974652" lon="10.28026"><time>2025-04-28T08:10:05.000Z</time><ele>1281.2</ele></trkpt><trkpt lat="45.974649" lon="10.280257"><time>2025-04-28T08:10:06.000Z</time><ele>1281.2</ele></trkpt><trkpt lat="45.974646" lon="10.280254"><time>2025-04-28T08:10:07.000Z</time><ele>1281.4</ele></trkpt><trkpt lat="45.97464" lon="10.280251"><time>2025-04-28T08:10:08.000Z</time><ele>1281.6</ele></trkpt><trkpt lat="45.974633" lon="10.280247"><time>2025-04-28T08:10:09.000Z</time><ele>1281.6</ele></trkpt><trkpt lat="45.974626" lon="10.280242"><time>2025-04-28T08:10:10.000Z</time><ele>1281.6</ele></trkpt><trkpt lat="45.974618" lon="10.28024"><time>2025-04-28T08:10:11.000Z</time><ele>1281.8</ele></trkpt><trkpt lat="45.974611" lon="10.280239"><time>2025-04-28T08:10:12.000Z</time><ele>1282</ele></trkpt><trkpt lat="45.974601" lon="10.280235"><time>2025-04-28T08:10:13.000Z</time><ele>1282</ele></trkpt><trkpt lat="45.974596" lon="10.280236"><time>2025-04-28T08:10:14.000Z</time><ele>1282.2</ele></trkpt><trkpt lat="45.974586" lon="10.28023"><time>2025-04-28T08:10:15.000Z</time><ele>1282.2</ele></trkpt><trkpt lat="45.974576" lon="10.28023"><time>2025-04-28T08:10:16.000Z</time><ele>1282.2</ele></trkpt><trkpt lat="45.974563" lon="10.280228"><time>2025-04-28T08:10:17.000Z</time><ele>1282.4</ele></trkpt><trkpt lat="45.974555" lon="10.28023"><time>2025-04-28T08:10:18.000Z</time><ele>1282.4</ele></trkpt><trkpt lat="45.974555" lon="10.280226"><time>2025-04-28T08:10:19.000Z</time><ele>1282.4</ele></trkpt><trkpt lat="45.974555" lon="10.280222"><time>2025-04-28T08:10:20.000Z</time><ele>1282.6</ele></trkpt><trkpt lat="45.974558" lon="10.28021"><time>2025-04-28T08:10:21.000Z</time><ele>1282.8</ele></trkpt><trkpt lat="45.974558" lon="10.280209"><time>2025-04-28T08:10:22.000Z</time><ele>1283</ele></trkpt><trkpt lat="45.97455" lon="10.280205"><time>2025-04-28T08:10:23.000Z</time><ele>1283</ele></trkpt><trkpt lat="45.974545" lon="10.280203"><time>2025-04-28T08:10:24.000Z</time><ele>1283.2</ele></trkpt><trkpt lat="45.974536" lon="10.280206"><time>2025-04-28T08:10:25.000Z</time><ele>1283.4</ele></trkpt><trkpt lat="45.974522" lon="10.280211"><time>2025-04-28T08:10:26.000Z</time><ele>1283.8</ele></trkpt><trkpt lat="45.974512" lon="10.280223"><time>2025-04-28T08:10:27.000Z</time><ele>1284</ele></trkpt><trkpt lat="45.974499" lon="10.280231"><time>2025-04-28T08:10:28.000Z</time><ele>1284.2</ele></trkpt><trkpt lat="45.97449" lon="10.28024"><time>2025-04-28T08:10:29.000Z</time><ele>1284.4</ele></trkpt><trkpt lat="45.974484" lon="10.280251"><time>2025-04-28T08:10:30.000Z</time><ele>1284.4</ele></trkpt><trkpt lat="45.974478" lon="10.280266"><time>2025-04-28T08:10:31.000Z</time><ele>1284.6</ele></trkpt><trkpt lat="45.974475" lon="10.280282"><time>2025-04-28T08:10:32.000Z</time><ele>1284.6</ele></trkpt><trkpt lat="45.97447" lon="10.280293"><time>2025-04-28T08:10:33.000Z</time><ele>1284.8</ele></trkpt><trkpt lat="45.974468" lon="10.280302"><time>2025-04-28T08:10:34.000Z</time><ele>1284.8</ele></trkpt><trkpt lat="45.974463" lon="10.280313"><time>2025-04-28T08:10:35.000Z</time><ele>1285</ele></trkpt><trkpt lat="45.974465" lon="10.280328"><time>2025-04-28T08:10:36.000Z</time><ele>1285.2</ele></trkpt><trkpt lat="45.97447" lon="10.280343"><time>2025-04-28T08:10:37.000Z</time><ele>1285.4</ele></trkpt><trkpt lat="45.974469" lon="10.280359"><time>2025-04-28T08:10:38.000Z</time><ele>1285.4</ele></trkpt><trkpt lat="45.97447" lon="10.280369"><time>2025-04-28T08:10:39.000Z</time><ele>1285.6</ele></trkpt><trkpt lat="45.974468" lon="10.280377"><time>2025-04-28T08:10:40.000Z</time><ele>1285.6</ele></trkpt><trkpt lat="45.97447" lon="10.280396"><time>2025-04-28T08:10:41.000Z</time><ele>1285.8</ele></trkpt><trkpt lat="45.974466" lon="10.280412"><time>2025-04-28T08:10:42.000Z</time><ele>1285.8</ele></trkpt><trkpt lat="45.974461" lon="10.280427"><time>2025-04-28T08:10:43.000Z</time><ele>1285.8</ele></trkpt><trkpt lat="45.974456" lon="10.280449"><time>2025-04-28T08:10:44.000Z</time><ele>1286</ele></trkpt><trkpt lat="45.974453" lon="10.280467"><time>2025-04-28T08:10:45.000Z</time><ele>1286.2</ele></trkpt><trkpt lat="45.974453" lon="10.28048"><time>2025-04-28T08:10:46.000Z</time><ele>1286.2</ele></trkpt><trkpt lat="45.97445" lon="10.280486"><time>2025-04-28T08:10:47.000Z</time><ele>1286.4</ele></trkpt><trkpt lat="45.974444" lon="10.280496"><time>2025-04-28T08:10:48.000Z</time><ele>1286.6</ele></trkpt><trkpt lat="45.974445" lon="10.280507"><time>2025-04-28T08:10:49.000Z</time><ele>1286.6</ele></trkpt><trkpt lat="45.974444" lon="10.28051"><time>2025-04-28T08:10:50.000Z</time><ele>1286.8</ele></trkpt><trkpt lat="45.974442" lon="10.280517"><time>2025-04-28T08:10:51.000Z</time><ele>1287</ele></trkpt><trkpt lat="45.974447" lon="10.280525"><time>2025-04-28T08:10:52.000Z</time><ele>1287</ele></trkpt><trkpt lat="45.974449" lon="10.280534"><time>2025-04-28T08:10:53.000Z</time><ele>1287.2</ele></trkpt><trkpt lat="45.974456" lon="10.280546"><time>2025-04-28T08:10:54.000Z</time><ele>1287.4</ele></trkpt><trkpt lat="45.974473" lon="10.280557"><time>2025-04-28T08:10:55.000Z</time><ele>1287.6</ele></trkpt><trkpt lat="45.974477" lon="10.280564"><time>2025-04-28T08:10:56.000Z</time><ele>1287.8</ele></trkpt><trkpt lat="45.974476" lon="10.280577"><time>2025-04-28T08:10:57.000Z</time><ele>1287.8</ele></trkpt><trkpt lat="45.974472" lon="10.280583"><time>2025-04-28T08:10:58.000Z</time><ele>1288</ele></trkpt><trkpt lat="45.97447" lon="10.280586"><time>2025-04-28T08:10:59.000Z</time><ele>1288.2</ele></trkpt><trkpt lat="45.974464" lon="10.280591"><time>2025-04-28T08:11:00.000Z</time><ele>1288.4</ele></trkpt><trkpt lat="45.974464" lon="10.280597"><time>2025-04-28T08:11:01.000Z</time><ele>1288.6</ele></trkpt><trkpt lat="45.974465" lon="10.280605"><time>2025-04-28T08:11:02.000Z</time><ele>1288.8</ele></trkpt><trkpt lat="45.974466" lon="10.280612"><time>2025-04-28T08:11:03.000Z</time><ele>1288.8</ele></trkpt><trkpt lat="45.974471" lon="10.280621"><time>2025-04-28T08:11:04.000Z</time><ele>1289.2</ele></trkpt><trkpt lat="45.974472" lon="10.280628"><time>2025-04-28T08:11:05.000Z</time><ele>1289.2</ele></trkpt><trkpt lat="45.974474" lon="10.280632"><time>2025-04-28T08:11:06.000Z</time><ele>1289.2</ele></trkpt><trkpt lat="45.974474" lon="10.280638"><time>2025-04-28T08:11:07.000Z</time><ele>1289.6</ele></trkpt><trkpt lat="45.974477" lon="10.280646"><time>2025-04-28T08:11:08.000Z</time><ele>1289.8</ele></trkpt><trkpt lat="45.974485" lon="10.280658"><time>2025-04-28T08:11:09.000Z</time><ele>1290</ele></trkpt><trkpt lat="45.974486" lon="10.280663"><time>2025-04-28T08:11:10.000Z</time><ele>1290.2</ele></trkpt><trkpt lat="45.974488" lon="10.280668"><time>2025-04-28T08:11:11.000Z</time><ele>1290.2</ele></trkpt><trkpt lat="45.974489" lon="10.280669"><time>2025-04-28T08:11:12.000Z</time><ele>1290.4</ele></trkpt><trkpt lat="45.974495" lon="10.280679"><time>2025-04-28T08:11:13.000Z</time><ele>1290.6</ele></trkpt><trkpt lat="45.974499" lon="10.280688"><time>2025-04-28T08:11:14.000Z</time><ele>1290.8</ele></trkpt><trkpt lat="45.974503" lon="10.280697"><time>2025-04-28T08:11:15.000Z</time><ele>1291</ele></trkpt><trkpt lat="45.974507" lon="10.280703"><time>2025-04-28T08:11:16.000Z</time><ele>1291.2</ele></trkpt><trkpt lat="45.974504" lon="10.28071"><time>2025-04-28T08:11:17.000Z</time><ele>1291.2</ele></trkpt><trkpt lat="45.974507" lon="10.280717"><time>2025-04-28T08:11:18.000Z</time><ele>1291.2</ele></trkpt><trkpt lat="45.974505" lon="10.28073"><time>2025-04-28T08:11:19.000Z</time><ele>1291.2</ele></trkpt><trkpt lat="45.974502" lon="10.280744"><time>2025-04-28T08:11:20.000Z</time><ele>1291.4</ele></trkpt><trkpt lat="45.9745" lon="10.280755"><time>2025-04-28T08:11:21.000Z</time><ele>1291.6</ele></trkpt><trkpt lat="45.974497" lon="10.280768"><time>2025-04-28T08:11:22.000Z</time><ele>1291.8</ele></trkpt><trkpt lat="45.974496" lon="10.280775"><time>2025-04-28T08:11:23.000Z</time><ele>1291.8</ele></trkpt><trkpt lat="45.974494" lon="10.280786"><time>2025-04-28T08:11:24.000Z</time><ele>1292</ele></trkpt><trkpt lat="45.97449" lon="10.280799"><time>2025-04-28T08:11:25.000Z</time><ele>1292</ele></trkpt><trkpt lat="45.97449" lon="10.280804"><time>2025-04-28T08:11:26.000Z</time><ele>1292.2</ele></trkpt><trkpt lat="45.97449" lon="10.28081"><time>2025-04-28T08:11:27.000Z</time><ele>1292.4</ele></trkpt><trkpt lat="45.97449" lon="10.280822"><time>2025-04-28T08:11:28.000Z</time><ele>1292.6</ele></trkpt><trkpt lat="45.974492" lon="10.280832"><time>2025-04-28T08:11:29.000Z</time><ele>1292.8</ele></trkpt><trkpt lat="45.974492" lon="10.280843"><time>2025-04-28T08:11:30.000Z</time><ele>1292.8</ele></trkpt><trkpt lat="45.974489" lon="10.280854"><time>2025-04-28T08:11:31.000Z</time><ele>1293.2</ele></trkpt><trkpt lat="45.974483" lon="10.28087"><time>2025-04-28T08:11:32.000Z</time><ele>1293.4</ele></trkpt><trkpt lat="45.974485" lon="10.280881"><time>2025-04-28T08:11:33.000Z</time><ele>1293.4</ele></trkpt><trkpt lat="45.974481" lon="10.280889"><time>2025-04-28T08:11:34.000Z</time><ele>1293.4</ele></trkpt><trkpt lat="45.97448" lon="10.280903"><time>2025-04-28T08:11:35.000Z</time><ele>1293.4</ele></trkpt><trkpt lat="45.974478" lon="10.280911"><time>2025-04-28T08:11:36.000Z</time><ele>1293.6</ele></trkpt><trkpt lat="45.974477" lon="10.280926"><time>2025-04-28T08:11:37.000Z</time><ele>1293.6</ele></trkpt><trkpt lat="45.974477" lon="10.280942"><time>2025-04-28T08:11:38.000Z</time><ele>1293.6</ele></trkpt><trkpt lat="45.974479" lon="10.280959"><time>2025-04-28T08:11:39.000Z</time><ele>1293.6</ele></trkpt><trkpt lat="45.974479" lon="10.280974"><time>2025-04-28T08:11:40.000Z</time><ele>1293.8</ele></trkpt><trkpt lat="45.974478" lon="10.280983"><time>2025-04-28T08:11:41.000Z</time><ele>1294</ele></trkpt><trkpt lat="45.974473" lon="10.280993"><time>2025-04-28T08:11:42.000Z</time><ele>1294.2</ele></trkpt><trkpt lat="45.974467" lon="10.281002"><time>2025-04-28T08:11:43.000Z</time><ele>1294.4</ele></trkpt><trkpt lat="45.974464" lon="10.281013"><time>2025-04-28T08:11:44.000Z</time><ele>1294.6</ele></trkpt><trkpt lat="45.974466" lon="10.281027"><time>2025-04-28T08:11:45.000Z</time><ele>1294.6</ele></trkpt><trkpt lat="45.974463" lon="10.281037"><time>2025-04-28T08:11:46.000Z</time><ele>1295</ele></trkpt><trkpt lat="45.974461" lon="10.281046"><time>2025-04-28T08:11:47.000Z</time><ele>1295.2</ele></trkpt><trkpt lat="45.974456" lon="10.281056"><time>2025-04-28T08:11:48.000Z</time><ele>1295.2</ele></trkpt><trkpt lat="45.974453" lon="10.281063"><time>2025-04-28T08:11:49.000Z</time><ele>1295.4</ele></trkpt><trkpt lat="45.97445" lon="10.281075"><time>2025-04-28T08:11:50.000Z</time><ele>1295.6</ele></trkpt><trkpt lat="45.974449" lon="10.281088"><time>2025-04-28T08:11:51.000Z</time><ele>1295.6</ele></trkpt><trkpt lat="45.974449" lon="10.281095"><time>2025-04-28T08:11:52.000Z</time><ele>1295.8</ele></trkpt><trkpt lat="45.974448" lon="10.281107"><time>2025-04-28T08:11:53.000Z</time><ele>1296</ele></trkpt><trkpt lat="45.974444" lon="10.281119"><time>2025-04-28T08:11:54.000Z</time><ele>1296.2</ele></trkpt><trkpt lat="45.974437" lon="10.281136"><time>2025-04-28T08:11:55.000Z</time><ele>1296.2</ele></trkpt><trkpt lat="45.974435" lon="10.281152"><time>2025-04-28T08:11:56.000Z</time><ele>1296.4</ele></trkpt><trkpt lat="45.974435" lon="10.281161"><time>2025-04-28T08:11:57.000Z</time><ele>1296.6</ele></trkpt><trkpt lat="45.974436" lon="10.281166"><time>2025-04-28T08:11:58.000Z</time><ele>1296.8</ele></trkpt><trkpt lat="45.974441" lon="10.281177"><time>2025-04-28T08:11:59.000Z</time><ele>1297</ele></trkpt><trkpt lat="45.974442" lon="10.281187"><time>2025-04-28T08:12:00.000Z</time><ele>1297</ele></trkpt><trkpt lat="45.97444" lon="10.281198"><time>2025-04-28T08:12:01.000Z</time><ele>1297.2</ele></trkpt><trkpt lat="45.974441" lon="10.281211"><time>2025-04-28T08:12:02.000Z</time><ele>1297.2</ele></trkpt><trkpt lat="45.974446" lon="10.281225"><time>2025-04-28T08:12:03.000Z</time><ele>1297.4</ele></trkpt><trkpt lat="45.974435" lon="10.28124"><time>2025-04-28T08:12:04.000Z</time><ele>1297.6</ele></trkpt><trkpt lat="45.974432" lon="10.281254"><time>2025-04-28T08:12:05.000Z</time><ele>1297.8</ele></trkpt><trkpt lat="45.974437" lon="10.281269"><time>2025-04-28T08:12:06.000Z</time><ele>1298</ele></trkpt><trkpt lat="45.97444" lon="10.281274"><time>2025-04-28T08:12:07.000Z</time><ele>1298.2</ele></trkpt><trkpt lat="45.974438" lon="10.28128"><time>2025-04-28T08:12:08.000Z</time><ele>1298.4</ele></trkpt><trkpt lat="45.97444" lon="10.281283"><time>2025-04-28T08:12:09.000Z</time><ele>1298.4</ele></trkpt><trkpt lat="45.97444" lon="10.281285"><time>2025-04-28T08:12:10.000Z</time><ele>1298.6</ele></trkpt><trkpt lat="45.974441" lon="10.281287"><time>2025-04-28T08:12:11.000Z</time><ele>1298.8</ele></trkpt><trkpt lat="45.974432" lon="10.281297"><time>2025-04-28T08:12:12.000Z</time><ele>1298.8</ele></trkpt><trkpt lat="45.974432" lon="10.281309"><time>2025-04-28T08:12:13.000Z</time><ele>1298.8</ele></trkpt><trkpt lat="45.974431" lon="10.281324"><time>2025-04-28T08:12:14.000Z</time><ele>1299</ele></trkpt><trkpt lat="45.974429" lon="10.281341"><time>2025-04-28T08:12:15.000Z</time><ele>1299</ele></trkpt><trkpt lat="45.974422" lon="10.281356"><time>2025-04-28T08:12:16.000Z</time><ele>1299.2</ele></trkpt><trkpt lat="45.974419" lon="10.28137"><time>2025-04-28T08:12:17.000Z</time><ele>1299.4</ele></trkpt><trkpt lat="45.974423" lon="10.281398"><time>2025-04-28T08:12:18.000Z</time><ele>1299.6</ele></trkpt><trkpt lat="45.974422" lon="10.281426"><time>2025-04-28T08:12:19.000Z</time><ele>1299.8</ele></trkpt><trkpt lat="45.974416" lon="10.281453"><time>2025-04-28T08:12:20.000Z</time><ele>1299.8</ele></trkpt><trkpt lat="45.974418" lon="10.28147"><time>2025-04-28T08:12:21.000Z</time><ele>1300</ele></trkpt><trkpt lat="45.974418" lon="10.281482"><time>2025-04-28T08:12:22.000Z</time><ele>1300</ele></trkpt><trkpt lat="45.974421" lon="10.281493"><time>2025-04-28T08:12:23.000Z</time><ele>1300</ele></trkpt><trkpt lat="45.974413" lon="10.281504"><time>2025-04-28T08:12:24.000Z</time><ele>1300.2</ele></trkpt><trkpt lat="45.9744" lon="10.281508"><time>2025-04-28T08:12:25.000Z</time><ele>1300.2</ele></trkpt><trkpt lat="45.97439" lon="10.281511"><time>2025-04-28T08:12:26.000Z</time><ele>1300.4</ele></trkpt><trkpt lat="45.974382" lon="10.281514"><time>2025-04-28T08:12:27.000Z</time><ele>1300.6</ele></trkpt><trkpt lat="45.97438" lon="10.281521"><time>2025-04-28T08:12:28.000Z</time><ele>1300.8</ele></trkpt><trkpt lat="45.974376" lon="10.281532"><time>2025-04-28T08:12:29.000Z</time><ele>1300.8</ele></trkpt><trkpt lat="45.974376" lon="10.281545"><time>2025-04-28T08:12:30.000Z</time><ele>1301</ele></trkpt><trkpt lat="45.974375" lon="10.281566"><time>2025-04-28T08:12:31.000Z</time><ele>1301</ele></trkpt><trkpt lat="45.97438" lon="10.281586"><time>2025-04-28T08:12:32.000Z</time><ele>1301.2</ele></trkpt><trkpt lat="45.97438" lon="10.281604"><time>2025-04-28T08:12:33.000Z</time><ele>1301.2</ele></trkpt><trkpt lat="45.974377" lon="10.281618"><time>2025-04-28T08:12:34.000Z</time><ele>1301.4</ele></trkpt><trkpt lat="45.974371" lon="10.281626"><time>2025-04-28T08:12:35.000Z</time><ele>1301.6</ele></trkpt><trkpt lat="45.974367" lon="10.281636"><time>2025-04-28T08:12:36.000Z</time><ele>1301.8</ele></trkpt><trkpt lat="45.974363" lon="10.281647"><time>2025-04-28T08:12:37.000Z</time><ele>1302</ele></trkpt><trkpt lat="45.974363" lon="10.281664"><time>2025-04-28T08:12:38.000Z</time><ele>1302.2</ele></trkpt><trkpt lat="45.974366" lon="10.28168"><time>2025-04-28T08:12:39.000Z</time><ele>1302.4</ele></trkpt><trkpt lat="45.974365" lon="10.281693"><time>2025-04-28T08:12:40.000Z</time><ele>1302.6</ele></trkpt><trkpt lat="45.974359" lon="10.281703"><time>2025-04-28T08:12:41.000Z</time><ele>1302.8</ele></trkpt><trkpt lat="45.974359" lon="10.281712"><time>2025-04-28T08:12:42.000Z</time><ele>1303</ele></trkpt><trkpt lat="45.974359" lon="10.281726"><time>2025-04-28T08:12:43.000Z</time><ele>1303</ele></trkpt><trkpt lat="45.974359" lon="10.281743"><time>2025-04-28T08:12:44.000Z</time><ele>1303.4</ele></trkpt><trkpt lat="45.974357" lon="10.281764"><time>2025-04-28T08:12:45.000Z</time><ele>1303.6</ele></trkpt><trkpt lat="45.974351" lon="10.281768"><time>2025-04-28T08:12:46.000Z</time><ele>1303.6</ele></trkpt><trkpt lat="45.974347" lon="10.281776"><time>2025-04-28T08:12:47.000Z</time><ele>1303.6</ele></trkpt><trkpt lat="45.974346" lon="10.281788"><time>2025-04-28T08:12:48.000Z</time><ele>1303.8</ele></trkpt><trkpt lat="45.974345" lon="10.281796"><time>2025-04-28T08:12:49.000Z</time><ele>1303.8</ele></trkpt><trkpt lat="45.974345" lon="10.281813"><time>2025-04-28T08:12:50.000Z</time><ele>1303.8</ele></trkpt><trkpt lat="45.974344" lon="10.281822"><time>2025-04-28T08:12:51.000Z</time><ele>1304</ele></trkpt><trkpt lat="45.974338" lon="10.281829"><time>2025-04-28T08:12:52.000Z</time><ele>1304</ele></trkpt><trkpt lat="45.974324" lon="10.281845"><time>2025-04-28T08:12:53.000Z</time><ele>1304.2</ele></trkpt><trkpt lat="45.974319" lon="10.28185"><time>2025-04-28T08:12:54.000Z</time><ele>1304.4</ele></trkpt><trkpt lat="45.974315" lon="10.281857"><time>2025-04-28T08:12:55.000Z</time><ele>1304.4</ele></trkpt><trkpt lat="45.974311" lon="10.281865"><time>2025-04-28T08:12:56.000Z</time><ele>1304.8</ele></trkpt><trkpt lat="45.974311" lon="10.281874"><time>2025-04-28T08:12:57.000Z</time><ele>1305</ele></trkpt><trkpt lat="45.974312" lon="10.281883"><time>2025-04-28T08:12:58.000Z</time><ele>1305.2</ele></trkpt><trkpt lat="45.974318" lon="10.281895"><time>2025-04-28T08:12:59.000Z</time><ele>1305.4</ele></trkpt><trkpt lat="45.974319" lon="10.281905"><time>2025-04-28T08:13:00.000Z</time><ele>1305.6</ele></trkpt><trkpt lat="45.974318" lon="10.281911"><time>2025-04-28T08:13:01.000Z</time><ele>1305.8</ele></trkpt><trkpt lat="45.9743" lon="10.281918"><time>2025-04-28T08:13:02.000Z</time><ele>1306.2</ele></trkpt><trkpt lat="45.974295" lon="10.281927"><time>2025-04-28T08:13:03.000Z</time><ele>1306.4</ele></trkpt><trkpt lat="45.974293" lon="10.281937"><time>2025-04-28T08:13:04.000Z</time><ele>1306.6</ele></trkpt><trkpt lat="45.974292" lon="10.281943"><time>2025-04-28T08:13:05.000Z</time><ele>1306.8</ele></trkpt><trkpt lat="45.97429" lon="10.281949"><time>2025-04-28T08:13:06.000Z</time><ele>1307</ele></trkpt><trkpt lat="45.974292" lon="10.281954"><time>2025-04-28T08:13:07.000Z</time><ele>1307</ele></trkpt><trkpt lat="45.974298" lon="10.281966"><time>2025-04-28T08:13:08.000Z</time><ele>1307.2</ele></trkpt><trkpt lat="45.974292" lon="10.281979"><time>2025-04-28T08:13:09.000Z</time><ele>1307.4</ele></trkpt><trkpt lat="45.974288" lon="10.281983"><time>2025-04-28T08:13:10.000Z</time><ele>1307.6</ele></trkpt><trkpt lat="45.974286" lon="10.281992"><time>2025-04-28T08:13:11.000Z</time><ele>1307.8</ele></trkpt><trkpt lat="45.974279" lon="10.282"><time>2025-04-28T08:13:12.000Z</time><ele>1308</ele></trkpt><trkpt lat="45.97427" lon="10.282006"><time>2025-04-28T08:13:13.000Z</time><ele>1308.4</ele></trkpt><trkpt lat="45.974265" lon="10.282008"><time>2025-04-28T08:13:14.000Z</time><ele>1308.4</ele></trkpt><trkpt lat="45.974268" lon="10.282028"><time>2025-04-28T08:13:15.000Z</time><ele>1308.6</ele></trkpt><trkpt lat="45.974262" lon="10.282042"><time>2025-04-28T08:13:16.000Z</time><ele>1308.8</ele></trkpt><trkpt lat="45.974257" lon="10.282048"><time>2025-04-28T08:13:17.000Z</time><ele>1309</ele></trkpt><trkpt lat="45.974248" lon="10.282058"><time>2025-04-28T08:13:18.000Z</time><ele>1309</ele></trkpt><trkpt lat="45.974248" lon="10.282071"><time>2025-04-28T08:13:19.000Z</time><ele>1309.2</ele></trkpt><trkpt lat="45.974246" lon="10.282073"><time>2025-04-28T08:13:20.000Z</time><ele>1309.2</ele></trkpt><trkpt lat="45.974256" lon="10.282088"><time>2025-04-28T08:13:21.000Z</time><ele>1309.4</ele></trkpt><trkpt lat="45.974268" lon="10.282103"><time>2025-04-28T08:13:22.000Z</time><ele>1309.4</ele></trkpt><trkpt lat="45.974275" lon="10.282111"><time>2025-04-28T08:13:23.000Z</time><ele>1309.6</ele></trkpt><trkpt lat="45.974278" lon="10.282114"><time>2025-04-28T08:13:24.000Z</time><ele>1309.6</ele></trkpt><trkpt lat="45.974279" lon="10.282115"><time>2025-04-28T08:13:25.000Z</time><ele>1309.6</ele></trkpt><trkpt lat="45.974281" lon="10.282116"><time>2025-04-28T08:13:26.000Z</time><ele>1309.6</ele></trkpt><trkpt lat="45.974281" lon="10.282117"><time>2025-04-28T08:13:27.000Z</time><ele>1309.6</ele></trkpt><trkpt lat="45.974284" lon="10.282124"><time>2025-04-28T08:13:28.000Z</time><ele>1309.6</ele></trkpt><trkpt lat="45.974288" lon="10.282131"><time>2025-04-28T08:13:29.000Z</time><ele>1309.4</ele></trkpt><trkpt lat="45.974292" lon="10.282132"><time>2025-04-28T08:13:30.000Z</time><ele>1309.4</ele></trkpt><trkpt lat="45.974294" lon="10.282129"><time>2025-04-28T08:13:31.000Z</time><ele>1309.4</ele></trkpt><trkpt lat="45.97429" lon="10.282123"><time>2025-04-28T08:13:32.000Z</time><ele>1309.4</ele></trkpt><trkpt lat="45.97429" lon="10.282113"><time>2025-04-28T08:13:33.000Z</time><ele>1309.4</ele></trkpt><trkpt lat="45.974295" lon="10.282106"><time>2025-04-28T08:13:34.000Z</time><ele>1309.4</ele></trkpt><trkpt lat="45.974298" lon="10.282101"><time>2025-04-28T08:13:35.000Z</time><ele>1309.4</ele></trkpt><trkpt lat="45.974295" lon="10.282093"><time>2025-04-28T08:13:36.000Z</time><ele>1309.2</ele></trkpt><trkpt lat="45.974285" lon="10.282084"><time>2025-04-28T08:13:37.000Z</time><ele>1309.2</ele></trkpt><trkpt lat="45.974281" lon="10.28208"><time>2025-04-28T08:13:38.000Z</time><ele>1309</ele></trkpt><trkpt lat="45.974278" lon="10.282076"><time>2025-04-28T08:13:39.000Z</time><ele>1309</ele></trkpt><trkpt lat="45.974285" lon="10.282083"><time>2025-04-28T08:13:40.000Z</time><ele>1308.8</ele></trkpt><trkpt lat="45.974286" lon="10.282088"><time>2025-04-28T08:13:41.000Z</time><ele>1308.8</ele></trkpt><trkpt lat="45.974288" lon="10.282091"><time>2025-04-28T08:13:42.000Z</time><ele>1308.8</ele></trkpt><trkpt lat="45.974286" lon="10.282104"><time>2025-04-28T08:13:43.000Z</time><ele>1308.8</ele></trkpt><trkpt lat="45.974288" lon="10.282121"><time>2025-04-28T08:13:44.000Z</time><ele>1308.8</ele></trkpt><trkpt lat="45.974295" lon="10.282137"><time>2025-04-28T08:13:45.000Z</time><ele>1308.8</ele></trkpt><trkpt lat="45.974293" lon="10.282149"><time>2025-04-28T08:13:46.000Z</time><ele>1308.8</ele></trkpt><trkpt lat="45.97429" lon="10.28216"><time>2025-04-28T08:13:47.000Z</time><ele>1309</ele></trkpt><trkpt lat="45.97429" lon="10.282172"><time>2025-04-28T08:13:48.000Z</time><ele>1309</ele></trkpt><trkpt lat="45.974296" lon="10.282189"><time>2025-04-28T08:13:49.000Z</time><ele>1309.2</ele></trkpt><trkpt lat="45.974302" lon="10.2822"><time>2025-04-28T08:13:50.000Z</time><ele>1309.2</ele></trkpt><trkpt lat="45.974307" lon="10.282217"><time>2025-04-28T08:13:51.000Z</time><ele>1309.2</ele></trkpt><trkpt lat="45.974308" lon="10.282231"><time>2025-04-28T08:13:52.000Z</time><ele>1309.2</ele></trkpt><trkpt lat="45.97431" lon="10.282247"><time>2025-04-28T08:13:53.000Z</time><ele>1309.2</ele></trkpt><trkpt lat="45.974311" lon="10.282265"><time>2025-04-28T08:13:54.000Z</time><ele>1309.2</ele></trkpt><trkpt lat="45.974314" lon="10.282277"><time>2025-04-28T08:13:55.000Z</time><ele>1309.2</ele></trkpt><trkpt lat="45.974315" lon="10.282289"><time>2025-04-28T08:13:56.000Z</time><ele>1309.2</ele></trkpt><trkpt lat="45.974314" lon="10.282298"><time>2025-04-28T08:13:57.000Z</time><ele>1309.4</ele></trkpt><trkpt lat="45.974319" lon="10.282315"><time>2025-04-28T08:13:58.000Z</time><ele>1309.6</ele></trkpt><trkpt lat="45.974329" lon="10.282332"><time>2025-04-28T08:13:59.000Z</time><ele>1309.8</ele></trkpt><trkpt lat="45.974335" lon="10.28235"><time>2025-04-28T08:14:00.000Z</time><ele>1310</ele></trkpt><trkpt lat="45.974342" lon="10.282364"><time>2025-04-28T08:14:01.000Z</time><ele>1310.4</ele></trkpt><trkpt lat="45.974342" lon="10.28238"><time>2025-04-28T08:14:02.000Z</time><ele>1310.6</ele></trkpt><trkpt lat="45.974343" lon="10.282392"><time>2025-04-28T08:14:03.000Z</time><ele>1310.6</ele></trkpt><trkpt lat="45.974348" lon="10.282404"><time>2025-04-28T08:14:04.000Z</time><ele>1310.8</ele></trkpt><trkpt lat="45.974348" lon="10.282411"><time>2025-04-28T08:14:05.000Z</time><ele>1310.8</ele></trkpt><trkpt lat="45.974349" lon="10.282419"><time>2025-04-28T08:14:06.000Z</time><ele>1311</ele></trkpt><trkpt lat="45.974352" lon="10.282434"><time>2025-04-28T08:14:07.000Z</time><ele>1311</ele></trkpt><trkpt lat="45.974353" lon="10.282454"><time>2025-04-28T08:14:08.000Z</time><ele>1311.2</ele></trkpt><trkpt lat="45.974359" lon="10.282471"><time>2025-04-28T08:14:09.000Z</time><ele>1311.2</ele></trkpt><trkpt lat="45.974364" lon="10.282487"><time>2025-04-28T08:14:10.000Z</time><ele>1311.2</ele></trkpt><trkpt lat="45.974373" lon="10.282501"><time>2025-04-28T08:14:11.000Z</time><ele>1311.4</ele></trkpt><trkpt lat="45.974377" lon="10.282501"><time>2025-04-28T08:14:12.000Z</time><ele>1311.4</ele></trkpt><trkpt lat="45.974382" lon="10.282507"><time>2025-04-28T08:14:13.000Z</time><ele>1311.4</ele></trkpt><trkpt lat="45.974384" lon="10.282509"><time>2025-04-28T08:14:14.000Z</time><ele>1311.6</ele></trkpt><trkpt lat="45.974392" lon="10.282509"><time>2025-04-28T08:14:15.000Z</time><ele>1311.6</ele></trkpt><trkpt lat="45.974393" lon="10.282512"><time>2025-04-28T08:14:16.000Z</time><ele>1311.8</ele></trkpt><trkpt lat="45.974388" lon="10.282518"><time>2025-04-28T08:14:17.000Z</time><ele>1312</ele></trkpt><trkpt lat="45.97439" lon="10.282531"><time>2025-04-28T08:14:18.000Z</time><ele>1312.2</ele></trkpt><trkpt lat="45.974391" lon="10.282539"><time>2025-04-28T08:14:19.000Z</time><ele>1312.4</ele></trkpt><trkpt lat="45.974394" lon="10.28255"><time>2025-04-28T08:14:20.000Z</time><ele>1312.4</ele></trkpt><trkpt lat="45.974398" lon="10.282568"><time>2025-04-28T08:14:21.000Z</time><ele>1312.4</ele></trkpt><trkpt lat="45.974401" lon="10.282581"><time>2025-04-28T08:14:22.000Z</time><ele>1312.6</ele></trkpt><trkpt lat="45.974411" lon="10.282596"><time>2025-04-28T08:14:23.000Z</time><ele>1312.6</ele></trkpt><trkpt lat="45.974421" lon="10.282611"><time>2025-04-28T08:14:24.000Z</time><ele>1312.6</ele></trkpt><trkpt lat="45.974429" lon="10.282627"><time>2025-04-28T08:14:25.000Z</time><ele>1312.6</ele></trkpt><trkpt lat="45.974429" lon="10.282635"><time>2025-04-28T08:14:26.000Z</time><ele>1312.6</ele></trkpt><trkpt lat="45.97443" lon="10.282633"><time>2025-04-28T08:14:27.000Z</time><ele>1312.6</ele></trkpt><trkpt lat="45.974438" lon="10.282641"><time>2025-04-28T08:14:28.000Z</time><ele>1312.6</ele></trkpt><trkpt lat="45.974444" lon="10.282656"><time>2025-04-28T08:14:29.000Z</time><ele>1312.6</ele></trkpt><trkpt lat="45.974459" lon="10.282664"><time>2025-04-28T08:14:30.000Z</time><ele>1312.6</ele></trkpt><trkpt lat="45.974478" lon="10.282681"><time>2025-04-28T08:14:31.000Z</time><ele>1312.6</ele></trkpt><trkpt lat="45.974479" lon="10.282687"><time>2025-04-28T08:14:32.000Z</time><ele>1312.6</ele></trkpt><trkpt lat="45.974473" lon="10.282693"><time>2025-04-28T08:14:33.000Z</time><ele>1312.8</ele></trkpt><trkpt lat="45.97447" lon="10.282694"><time>2025-04-28T08:14:34.000Z</time><ele>1312.8</ele></trkpt><trkpt lat="45.974483" lon="10.282711"><time>2025-04-28T08:14:35.000Z</time><ele>1313</ele></trkpt><trkpt lat="45.974491" lon="10.282726"><time>2025-04-28T08:14:36.000Z</time><ele>1313</ele></trkpt><trkpt lat="45.974496" lon="10.28274"><time>2025-04-28T08:14:37.000Z</time><ele>1313</ele></trkpt><trkpt lat="45.974501" lon="10.282744"><time>2025-04-28T08:14:38.000Z</time><ele>1312.8</ele></trkpt><trkpt lat="45.97451" lon="10.282753"><time>2025-04-28T08:14:39.000Z</time><ele>1312.8</ele></trkpt><trkpt lat="45.974516" lon="10.282765"><time>2025-04-28T08:14:40.000Z</time><ele>1313</ele></trkpt><trkpt lat="45.974524" lon="10.282781"><time>2025-04-28T08:14:41.000Z</time><ele>1313</ele></trkpt><trkpt lat="45.974537" lon="10.282795"><time>2025-04-28T08:14:42.000Z</time><ele>1313.2</ele></trkpt><trkpt lat="45.974545" lon="10.282802"><time>2025-04-28T08:14:43.000Z</time><ele>1313.2</ele></trkpt><trkpt lat="45.974553" lon="10.282805"><time>2025-04-28T08:14:44.000Z</time><ele>1313.6</ele></trkpt><trkpt lat="45.974557" lon="10.282806"><time>2025-04-28T08:14:45.000Z</time><ele>1313.8</ele></trkpt><trkpt lat="45.974564" lon="10.282815"><time>2025-04-28T08:14:46.000Z</time><ele>1314</ele></trkpt><trkpt lat="45.974566" lon="10.282824"><time>2025-04-28T08:14:47.000Z</time><ele>1314.2</ele></trkpt><trkpt lat="45.974567" lon="10.282825"><time>2025-04-28T08:14:48.000Z</time><ele>1314.4</ele></trkpt><trkpt lat="45.974569" lon="10.282832"><time>2025-04-28T08:14:49.000Z</time><ele>1314.8</ele></trkpt><trkpt lat="45.974571" lon="10.282839"><time>2025-04-28T08:14:50.000Z</time><ele>1315</ele></trkpt><trkpt lat="45.974573" lon="10.282845"><time>2025-04-28T08:14:51.000Z</time><ele>1315.2</ele></trkpt><trkpt lat="45.974576" lon="10.282857"><time>2025-04-28T08:14:52.000Z</time><ele>1315.4</ele></trkpt><trkpt lat="45.974574" lon="10.28287"><time>2025-04-28T08:14:53.000Z</time><ele>1315.6</ele></trkpt><trkpt lat="45.974579" lon="10.282884"><time>2025-04-28T08:14:54.000Z</time><ele>1315.8</ele></trkpt><trkpt lat="45.974582" lon="10.282892"><time>2025-04-28T08:14:55.000Z</time><ele>1316</ele></trkpt><trkpt lat="45.974582" lon="10.282894"><time>2025-04-28T08:14:56.000Z</time><ele>1316.2</ele></trkpt><trkpt lat="45.97458" lon="10.282905"><time>2025-04-28T08:14:57.000Z</time><ele>1316.2</ele></trkpt><trkpt lat="45.974581" lon="10.28291"><time>2025-04-28T08:14:58.000Z</time><ele>1316.4</ele></trkpt><trkpt lat="45.974579" lon="10.282911"><time>2025-04-28T08:14:59.000Z</time><ele>1316.8</ele></trkpt><trkpt lat="45.974575" lon="10.282918"><time>2025-04-28T08:15:00.000Z</time><ele>1317</ele></trkpt><trkpt lat="45.974582" lon="10.282926"><time>2025-04-28T08:15:01.000Z</time><ele>1317.2</ele></trkpt><trkpt lat="45.97458" lon="10.282936"><time>2025-04-28T08:15:02.000Z</time><ele>1317.4</ele></trkpt><trkpt lat="45.974574" lon="10.282949"><time>2025-04-28T08:15:03.000Z</time><ele>1317.6</ele></trkpt><trkpt lat="45.974569" lon="10.282961"><time>2025-04-28T08:15:04.000Z</time><ele>1318</ele></trkpt><trkpt lat="45.974562" lon="10.282973"><time>2025-04-28T08:15:05.000Z</time><ele>1318.2</ele></trkpt><trkpt lat="45.974559" lon="10.282985"><time>2025-04-28T08:15:06.000Z</time><ele>1318.2</ele></trkpt><trkpt lat="45.974561" lon="10.282996"><time>2025-04-28T08:15:07.000Z</time><ele>1318.6</ele></trkpt><trkpt lat="45.974561" lon="10.282999"><time>2025-04-28T08:15:08.000Z</time><ele>1318.8</ele></trkpt><trkpt lat="45.97456" lon="10.283003"><time>2025-04-28T08:15:09.000Z</time><ele>1318.8</ele></trkpt><trkpt lat="45.974557" lon="10.283014"><time>2025-04-28T08:15:10.000Z</time><ele>1319</ele></trkpt><trkpt lat="45.974548" lon="10.283027"><time>2025-04-28T08:15:11.000Z</time><ele>1319.2</ele></trkpt><trkpt lat="45.97454" lon="10.283044"><time>2025-04-28T08:15:12.000Z</time><ele>1319.2</ele></trkpt><trkpt lat="45.974541" lon="10.28306"><time>2025-04-28T08:15:13.000Z</time><ele>1319.4</ele></trkpt><trkpt lat="45.974541" lon="10.283066"><time>2025-04-28T08:15:14.000Z</time><ele>1319.4</ele></trkpt><trkpt lat="45.974537" lon="10.283079"><time>2025-04-28T08:15:15.000Z</time><ele>1319.8</ele></trkpt><trkpt lat="45.974538" lon="10.283083"><time>2025-04-28T08:15:16.000Z</time><ele>1320</ele></trkpt><trkpt lat="45.974532" lon="10.283096"><time>2025-04-28T08:15:17.000Z</time><ele>1320.2</ele></trkpt><trkpt lat="45.974531" lon="10.283097"><time>2025-04-28T08:15:18.000Z</time><ele>1320.4</ele></trkpt><trkpt lat="45.974527" lon="10.283106"><time>2025-04-28T08:15:19.000Z</time><ele>1320.6</ele></trkpt><trkpt lat="45.974524" lon="10.283115"><time>2025-04-28T08:15:20.000Z</time><ele>1320.8</ele></trkpt><trkpt lat="45.974521" lon="10.283127"><time>2025-04-28T08:15:21.000Z</time><ele>1320.8</ele></trkpt><trkpt lat="45.974519" lon="10.283142"><time>2025-04-28T08:15:22.000Z</time><ele>1321</ele></trkpt><trkpt lat="45.974517" lon="10.283154"><time>2025-04-28T08:15:23.000Z</time><ele>1321.2</ele></trkpt><trkpt lat="45.974512" lon="10.283168"><time>2025-04-28T08:15:24.000Z</time><ele>1321.2</ele></trkpt><trkpt lat="45.974512" lon="10.283184"><time>2025-04-28T08:15:25.000Z</time><ele>1321.4</ele></trkpt><trkpt lat="45.97451" lon="10.28319"><time>2025-04-28T08:15:26.000Z</time><ele>1321.6</ele></trkpt><trkpt lat="45.974506" lon="10.283205"><time>2025-04-28T08:15:27.000Z</time><ele>1321.8</ele></trkpt><trkpt lat="45.974506" lon="10.28321"><time>2025-04-28T08:15:28.000Z</time><ele>1322.2</ele></trkpt><trkpt lat="45.974507" lon="10.283215"><time>2025-04-28T08:15:29.000Z</time><ele>1322.4</ele></trkpt><trkpt lat="45.974504" lon="10.283226"><time>2025-04-28T08:15:30.000Z</time><ele>1322.4</ele></trkpt><trkpt lat="45.974499" lon="10.283237"><time>2025-04-28T08:15:31.000Z</time><ele>1322.6</ele></trkpt><trkpt lat="45.97449" lon="10.28325"><time>2025-04-28T08:15:32.000Z</time><ele>1322.8</ele></trkpt><trkpt lat="45.974486" lon="10.283261"><time>2025-04-28T08:15:33.000Z</time><ele>1323</ele></trkpt><trkpt lat="45.974485" lon="10.283278"><time>2025-04-28T08:15:34.000Z</time><ele>1323.2</ele></trkpt><trkpt lat="45.974486" lon="10.283295"><time>2025-04-28T08:15:35.000Z</time><ele>1323.2</ele></trkpt><trkpt lat="45.974488" lon="10.283314"><time>2025-04-28T08:15:36.000Z</time><ele>1323.4</ele></trkpt><trkpt lat="45.97449" lon="10.283335"><time>2025-04-28T08:15:37.000Z</time><ele>1323.6</ele></trkpt><trkpt lat="45.974491" lon="10.283339"><time>2025-04-28T08:15:38.000Z</time><ele>1323.8</ele></trkpt><trkpt lat="45.974493" lon="10.283342"><time>2025-04-28T08:15:39.000Z</time><ele>1324</ele></trkpt><trkpt lat="45.974491" lon="10.283352"><time>2025-04-28T08:15:40.000Z</time><ele>1324.2</ele></trkpt><trkpt lat="45.974492" lon="10.283363"><time>2025-04-28T08:15:41.000Z</time><ele>1324.4</ele></trkpt><trkpt lat="45.97449" lon="10.283377"><time>2025-04-28T08:15:42.000Z</time><ele>1324.4</ele></trkpt><trkpt lat="45.974504" lon="10.283396"><time>2025-04-28T08:15:43.000Z</time><ele>1324.6</ele></trkpt><trkpt lat="45.974508" lon="10.283402"><time>2025-04-28T08:15:44.000Z</time><ele>1324.6</ele></trkpt><trkpt lat="45.974508" lon="10.283402"><time>2025-04-28T08:15:45.000Z</time><ele>1324.6</ele></trkpt><trkpt lat="45.974502" lon="10.28341"><time>2025-04-28T08:15:46.000Z</time><ele>1324.8</ele></trkpt><trkpt lat="45.974496" lon="10.283419"><time>2025-04-28T08:15:47.000Z</time><ele>1325</ele></trkpt><trkpt lat="45.974487" lon="10.283422"><time>2025-04-28T08:15:48.000Z</time><ele>1325.2</ele></trkpt><trkpt lat="45.974478" lon="10.283419"><time>2025-04-28T08:15:49.000Z</time><ele>1325.2</ele></trkpt><trkpt lat="45.974469" lon="10.283413"><time>2025-04-28T08:15:50.000Z</time><ele>1325.4</ele></trkpt><trkpt lat="45.97447" lon="10.283408"><time>2025-04-28T08:15:51.000Z</time><ele>1325.4</ele></trkpt><trkpt lat="45.974464" lon="10.283406"><time>2025-04-28T08:15:52.000Z</time><ele>1325.6</ele></trkpt><trkpt lat="45.974453" lon="10.283407"><time>2025-04-28T08:15:53.000Z</time><ele>1325.6</ele></trkpt><trkpt lat="45.974437" lon="10.283409"><time>2025-04-28T08:15:54.000Z</time><ele>1325.6</ele></trkpt><trkpt lat="45.974429" lon="10.283409"><time>2025-04-28T08:15:55.000Z</time><ele>1325.4</ele></trkpt><trkpt lat="45.974419" lon="10.283408"><time>2025-04-28T08:15:56.000Z</time><ele>1325.4</ele></trkpt><trkpt lat="45.974414" lon="10.283407"><time>2025-04-28T08:15:57.000Z</time><ele>1325.4</ele></trkpt><trkpt lat="45.9744" lon="10.283395"><time>2025-04-28T08:15:58.000Z</time><ele>1325.2</ele></trkpt><trkpt lat="45.974396" lon="10.283386"><time>2025-04-28T08:15:59.000Z</time><ele>1325.2</ele></trkpt><trkpt lat="45.974393" lon="10.283381"><time>2025-04-28T08:16:00.000Z</time><ele>1325.2</ele></trkpt><trkpt lat="45.974389" lon="10.28338"><time>2025-04-28T08:16:01.000Z</time><ele>1325.4</ele></trkpt><trkpt lat="45.974385" lon="10.283381"><time>2025-04-28T08:16:02.000Z</time><ele>1325.8</ele></trkpt><trkpt lat="45.974384" lon="10.283386"><time>2025-04-28T08:16:03.000Z</time><ele>1326</ele></trkpt><trkpt lat="45.97438" lon="10.283387"><time>2025-04-28T08:16:04.000Z</time><ele>1326.2</ele></trkpt><trkpt lat="45.974377" lon="10.283381"><time>2025-04-28T08:16:05.000Z</time><ele>1326.2</ele></trkpt><trkpt lat="45.974375" lon="10.283377"><time>2025-04-28T08:16:06.000Z</time><ele>1326</ele></trkpt><trkpt lat="45.974377" lon="10.283375"><time>2025-04-28T08:16:07.000Z</time><ele>1326</ele></trkpt><trkpt lat="45.974379" lon="10.28337"><time>2025-04-28T08:16:08.000Z</time><ele>1326</ele></trkpt><trkpt lat="45.974381" lon="10.283369"><time>2025-04-28T08:16:09.000Z</time><ele>1326</ele></trkpt><trkpt lat="45.974385" lon="10.283371"><time>2025-04-28T08:16:10.000Z</time><ele>1325.8</ele></trkpt><trkpt lat="45.97439" lon="10.283367"><time>2025-04-28T08:16:11.000Z</time><ele>1325.8</ele></trkpt><trkpt lat="45.974391" lon="10.283365"><time>2025-04-28T08:16:12.000Z</time><ele>1325.6</ele></trkpt><trkpt lat="45.974394" lon="10.283354"><time>2025-04-28T08:16:13.000Z</time><ele>1325.2</ele></trkpt><trkpt lat="45.974396" lon="10.283345"><time>2025-04-28T08:16:14.000Z</time><ele>1325</ele></trkpt><trkpt lat="45.974387" lon="10.283332"><time>2025-04-28T08:16:15.000Z</time><ele>1324.6</ele></trkpt><trkpt lat="45.974376" lon="10.28332"><time>2025-04-28T08:16:16.000Z</time><ele>1324.4</ele></trkpt><trkpt lat="45.974366" lon="10.283312"><time>2025-04-28T08:16:17.000Z</time><ele>1324.2</ele></trkpt><trkpt lat="45.974352" lon="10.283303"><time>2025-04-28T08:16:18.000Z</time><ele>1324.2</ele></trkpt><trkpt lat="45.974345" lon="10.283293"><time>2025-04-28T08:16:19.000Z</time><ele>1324.2</ele></trkpt><trkpt lat="45.974344" lon="10.283286"><time>2025-04-28T08:16:20.000Z</time><ele>1324.2</ele></trkpt><trkpt lat="45.974336" lon="10.283281"><time>2025-04-28T08:16:21.000Z</time><ele>1324.2</ele></trkpt><trkpt lat="45.974327" lon="10.283276"><time>2025-04-28T08:16:22.000Z</time><ele>1324.2</ele></trkpt><trkpt lat="45.974315" lon="10.283269"><time>2025-04-28T08:16:23.000Z</time><ele>1324.4</ele></trkpt><trkpt lat="45.974304" lon="10.283263"><time>2025-04-28T08:16:24.000Z</time><ele>1324.6</ele></trkpt><trkpt lat="45.974296" lon="10.283253"><time>2025-04-28T08:16:25.000Z</time><ele>1324.8</ele></trkpt><trkpt lat="45.974289" lon="10.283252"><time>2025-04-28T08:16:26.000Z</time><ele>1325.2</ele></trkpt><trkpt lat="45.974283" lon="10.283246"><time>2025-04-28T08:16:27.000Z</time><ele>1325.4</ele></trkpt><trkpt lat="45.974276" lon="10.283239"><time>2025-04-28T08:16:28.000Z</time><ele>1325.6</ele></trkpt><trkpt lat="45.974266" lon="10.283231"><time>2025-04-28T08:16:29.000Z</time><ele>1325.6</ele></trkpt><trkpt lat="45.974256" lon="10.283223"><time>2025-04-28T08:16:30.000Z</time><ele>1325.8</ele></trkpt><trkpt lat="45.974246" lon="10.283229"><time>2025-04-28T08:16:31.000Z</time><ele>1326.2</ele></trkpt><trkpt lat="45.974241" lon="10.283229"><time>2025-04-28T08:16:32.000Z</time><ele>1326.4</ele></trkpt><trkpt lat="45.974235" lon="10.283227"><time>2025-04-28T08:16:33.000Z</time><ele>1326.4</ele></trkpt><trkpt lat="45.97423" lon="10.283221"><time>2025-04-28T08:16:34.000Z</time><ele>1326.8</ele></trkpt><trkpt lat="45.974229" lon="10.28322"><time>2025-04-28T08:16:35.000Z</time><ele>1326.8</ele></trkpt><trkpt lat="45.974223" lon="10.283218"><time>2025-04-28T08:16:36.000Z</time><ele>1327.2</ele></trkpt><trkpt lat="45.974213" lon="10.283218"><time>2025-04-28T08:16:37.000Z</time><ele>1327.4</ele></trkpt><trkpt lat="45.974208" lon="10.283217"><time>2025-04-28T08:16:38.000Z</time><ele>1327.6</ele></trkpt><trkpt lat="45.9742" lon="10.28321"><time>2025-04-28T08:16:39.000Z</time><ele>1327.8</ele></trkpt><trkpt lat="45.974197" lon="10.283211"><time>2025-04-28T08:16:40.000Z</time><ele>1328</ele></trkpt><trkpt lat="45.974181" lon="10.283201"><time>2025-04-28T08:16:41.000Z</time><ele>1328.2</ele></trkpt><trkpt lat="45.974174" lon="10.283199"><time>2025-04-28T08:16:42.000Z</time><ele>1328.2</ele></trkpt><trkpt lat="45.974173" lon="10.283202"><time>2025-04-28T08:16:43.000Z</time><ele>1328.2</ele></trkpt><trkpt lat="45.974168" lon="10.283197"><time>2025-04-28T08:16:44.000Z</time><ele>1328.4</ele></trkpt><trkpt lat="45.974162" lon="10.283192"><time>2025-04-28T08:16:45.000Z</time><ele>1328.4</ele></trkpt><trkpt lat="45.974155" lon="10.283187"><time>2025-04-28T08:16:46.000Z</time><ele>1328.6</ele></trkpt><trkpt lat="45.974151" lon="10.28318"><time>2025-04-28T08:16:47.000Z</time><ele>1328.8</ele></trkpt><trkpt lat="45.974145" lon="10.283174"><time>2025-04-28T08:16:48.000Z</time><ele>1329</ele></trkpt><trkpt lat="45.97414" lon="10.283172"><time>2025-04-28T08:16:49.000Z</time><ele>1329.2</ele></trkpt><trkpt lat="45.974136" lon="10.28317"><time>2025-04-28T08:16:50.000Z</time><ele>1329.4</ele></trkpt><trkpt lat="45.974135" lon="10.283166"><time>2025-04-28T08:16:51.000Z</time><ele>1329.4</ele></trkpt><trkpt lat="45.974123" lon="10.283166"><time>2025-04-28T08:16:52.000Z</time><ele>1329.6</ele></trkpt><trkpt lat="45.974119" lon="10.283165"><time>2025-04-28T08:16:53.000Z</time><ele>1330</ele></trkpt><trkpt lat="45.974114" lon="10.283169"><time>2025-04-28T08:16:54.000Z</time><ele>1330.4</ele></trkpt><trkpt lat="45.974113" lon="10.283171"><time>2025-04-28T08:16:55.000Z</time><ele>1330.6</ele></trkpt><trkpt lat="45.974107" lon="10.283177"><time>2025-04-28T08:16:56.000Z</time><ele>1330.8</ele></trkpt><trkpt lat="45.974107" lon="10.283181"><time>2025-04-28T08:16:57.000Z</time><ele>1330.8</ele></trkpt><trkpt lat="45.974103" lon="10.28318"><time>2025-04-28T08:16:58.000Z</time><ele>1331</ele></trkpt><trkpt lat="45.9741" lon="10.283181"><time>2025-04-28T08:16:59.000Z</time><ele>1331.2</ele></trkpt><trkpt lat="45.974097" lon="10.283189"><time>2025-04-28T08:17:00.000Z</time><ele>1331.2</ele></trkpt><trkpt lat="45.974093" lon="10.283195"><time>2025-04-28T08:17:01.000Z</time><ele>1331.2</ele></trkpt><trkpt lat="45.974094" lon="10.2832"><time>2025-04-28T08:17:02.000Z</time><ele>1331.4</ele></trkpt><trkpt lat="45.974093" lon="10.283208"><time>2025-04-28T08:17:03.000Z</time><ele>1331.4</ele></trkpt><trkpt lat="45.974091" lon="10.283212"><time>2025-04-28T08:17:04.000Z</time><ele>1331.4</ele></trkpt><trkpt lat="45.974092" lon="10.283215"><time>2025-04-28T08:17:05.000Z</time><ele>1331.6</ele></trkpt><trkpt lat="45.974091" lon="10.283217"><time>2025-04-28T08:17:06.000Z</time><ele>1331.8</ele></trkpt><trkpt lat="45.974089" lon="10.283214"><time>2025-04-28T08:17:07.000Z</time><ele>1332</ele></trkpt><trkpt lat="45.974087" lon="10.283214"><time>2025-04-28T08:17:08.000Z</time><ele>1332.2</ele></trkpt><trkpt lat="45.974085" lon="10.283214"><time>2025-04-28T08:17:09.000Z</time><ele>1332.2</ele></trkpt><trkpt lat="45.974084" lon="10.283215"><time>2025-04-28T08:17:10.000Z</time><ele>1332.4</ele></trkpt><trkpt lat="45.974082" lon="10.283216"><time>2025-04-28T08:17:11.000Z</time><ele>1332.4</ele></trkpt><trkpt lat="45.974082" lon="10.283217"><time>2025-04-28T08:17:12.000Z</time><ele>1332.4</ele></trkpt><trkpt lat="45.974082" lon="10.283218"><time>2025-04-28T08:17:13.000Z</time><ele>1332.4</ele></trkpt><trkpt lat="45.974082" lon="10.283218"><time>2025-04-28T08:17:14.000Z</time><ele>1332.4</ele></trkpt><trkpt lat="45.974082" lon="10.283218"><time>2025-04-28T08:17:15.000Z</time><ele>1332.4</ele></trkpt><trkpt lat="45.974082" lon="10.283218"><time>2025-04-28T08:17:16.000Z</time><ele>1332.4</ele></trkpt><trkpt lat="45.974082" lon="10.283218"><time>2025-04-28T08:17:17.000Z</time><ele>1332.4</ele></trkpt><trkpt lat="45.974082" lon="10.283218"><time>2025-04-28T08:17:18.000Z</time><ele>1332.4</ele></trkpt><trkpt lat="45.974082" lon="10.283218"><time>2025-04-28T08:17:19.000Z</time><ele>1332.6</ele></trkpt><trkpt lat="45.974082" lon="10.283218"><time>2025-04-28T08:17:20.000Z</time><ele>1332.6</ele></trkpt><trkpt lat="45.974082" lon="10.283218"><time>2025-04-28T08:17:21.000Z</time><ele>1332.6</ele></trkpt><trkpt lat="45.974082" lon="10.283218"><time>2025-04-28T08:17:22.000Z</time><ele>1332.6</ele></trkpt><trkpt lat="45.974082" lon="10.283217"><time>2025-04-28T08:17:23.000Z</time><ele>1332.6</ele></trkpt><trkpt lat="45.974082" lon="10.283216"><time>2025-04-28T08:17:24.000Z</time><ele>1332.8</ele></trkpt><trkpt lat="45.974082" lon="10.283216"><time>2025-04-28T08:17:25.000Z</time><ele>1333</ele></trkpt><trkpt lat="45.974082" lon="10.283216"><time>2025-04-28T08:17:26.000Z</time><ele>1333</ele></trkpt><trkpt lat="45.974082" lon="10.283215"><time>2025-04-28T08:17:27.000Z</time><ele>1333</ele></trkpt><trkpt lat="45.974082" lon="10.283215"><time>2025-04-28T08:17:28.000Z</time><ele>1333</ele></trkpt><trkpt lat="45.974082" lon="10.283214"><time>2025-04-28T08:17:29.000Z</time><ele>1333</ele></trkpt><trkpt lat="45.974082" lon="10.283214"><time>2025-04-28T08:17:30.000Z</time><ele>1332.8</ele></trkpt><trkpt lat="45.974082" lon="10.283214"><time>2025-04-28T08:17:31.000Z</time><ele>1332.6</ele></trkpt><trkpt lat="45.974081" lon="10.283213"><time>2025-04-28T08:17:32.000Z</time><ele>1332.6</ele></trkpt><trkpt lat="45.974076" lon="10.283213"><time>2025-04-28T08:17:33.000Z</time><ele>1332.6</ele></trkpt><trkpt lat="45.974076" lon="10.283212"><time>2025-04-28T08:17:34.000Z</time><ele>1332.4</ele></trkpt><trkpt lat="45.974075" lon="10.283211"><time>2025-04-28T08:17:35.000Z</time><ele>1332.4</ele></trkpt><trkpt lat="45.974075" lon="10.28321"><time>2025-04-28T08:17:36.000Z</time><ele>1332.4</ele></trkpt><trkpt lat="45.974075" lon="10.28321"><time>2025-04-28T08:17:37.000Z</time><ele>1332.4</ele></trkpt><trkpt lat="45.974074" lon="10.28321"><time>2025-04-28T08:17:38.000Z</time><ele>1332.2</ele></trkpt><trkpt lat="45.974074" lon="10.28321"><time>2025-04-28T08:17:39.000Z</time><ele>1332.2</ele></trkpt><trkpt lat="45.974074" lon="10.28321"><time>2025-04-28T08:17:40.000Z</time><ele>1332.2</ele></trkpt><trkpt lat="45.974074" lon="10.28321"><time>2025-04-28T08:17:41.000Z</time><ele>1332.2</ele></trkpt><trkpt lat="45.974074" lon="10.28321"><time>2025-04-28T08:17:42.000Z</time><ele>1332.2</ele></trkpt><trkpt lat="45.974074" lon="10.28321"><time>2025-04-28T08:17:43.000Z</time><ele>1332.2</ele></trkpt><trkpt lat="45.974074" lon="10.28321"><time>2025-04-28T08:17:44.000Z</time><ele>1332.2</ele></trkpt><trkpt lat="45.974074" lon="10.28321"><time>2025-04-28T08:17:45.000Z</time><ele>1332.2</ele></trkpt><trkpt lat="45.974074" lon="10.28321"><time>2025-04-28T08:17:46.000Z</time><ele>1332.2</ele></trkpt><trkpt lat="45.974074" lon="10.28321"><time>2025-04-28T08:17:47.000Z</time><ele>1332.2</ele></trkpt><trkpt lat="45.974074" lon="10.28321"><time>2025-04-28T08:17:48.000Z</time><ele>1332.2</ele></trkpt><trkpt lat="45.974074" lon="10.283211"><time>2025-04-28T08:17:49.000Z</time><ele>1332.2</ele></trkpt><trkpt lat="45.974074" lon="10.283212"><time>2025-04-28T08:17:50.000Z</time><ele>1332.2</ele></trkpt><trkpt lat="45.974074" lon="10.283212"><time>2025-04-28T08:17:51.000Z</time><ele>1332.2</ele></trkpt><trkpt lat="45.974074" lon="10.283212"><time>2025-04-28T08:17:52.000Z</time><ele>1332.2</ele></trkpt><trkpt lat="45.974074" lon="10.283213"><time>2025-04-28T08:17:53.000Z</time><ele>1332.2</ele></trkpt><trkpt lat="45.974076" lon="10.283213"><time>2025-04-28T08:17:54.000Z</time><ele>1332.2</ele></trkpt><trkpt lat="45.974077" lon="10.283214"><time>2025-04-28T08:17:55.000Z</time><ele>1332.2</ele></trkpt><trkpt lat="45.974078" lon="10.283217"><time>2025-04-28T08:17:56.000Z</time><ele>1332.2</ele></trkpt><trkpt lat="45.974086" lon="10.283218"><time>2025-04-28T08:17:57.000Z</time><ele>1332.2</ele></trkpt><trkpt lat="45.97409" lon="10.283218"><time>2025-04-28T08:17:58.000Z</time><ele>1332.2</ele></trkpt><trkpt lat="45.974091" lon="10.283219"><time>2025-04-28T08:17:59.000Z</time><ele>1332.2</ele></trkpt><trkpt lat="45.974093" lon="10.283219"><time>2025-04-28T08:18:00.000Z</time><ele>1332.2</ele></trkpt><trkpt lat="45.974093" lon="10.283219"><time>2025-04-28T08:18:01.000Z</time><ele>1332.2</ele></trkpt><trkpt lat="45.974094" lon="10.283219"><time>2025-04-28T08:18:02.000Z</time><ele>1332.2</ele></trkpt><trkpt lat="45.974094" lon="10.283219"><time>2025-04-28T08:18:03.000Z</time><ele>1332.2</ele></trkpt><trkpt lat="45.974094" lon="10.283219"><time>2025-04-28T08:18:04.000Z</time><ele>1332.2</ele></trkpt><trkpt lat="45.974094" lon="10.283219"><time>2025-04-28T08:18:05.000Z</time><ele>1332.2</ele></trkpt><trkpt lat="45.974094" lon="10.283219"><time>2025-04-28T08:18:06.000Z</time><ele>1332.2</ele></trkpt><trkpt lat="45.974094" lon="10.283219"><time>2025-04-28T08:18:07.000Z</time><ele>1332.2</ele></trkpt><trkpt lat="45.974094" lon="10.283219"><time>2025-04-28T08:18:08.000Z</time><ele>1332.2</ele></trkpt><trkpt lat="45.974094" lon="10.283219"><time>2025-04-28T08:18:09.000Z</time><ele>1332.2</ele></trkpt><trkpt lat="45.97409" lon="10.283218"><time>2025-04-28T08:18:10.000Z</time><ele>1332.2</ele></trkpt><trkpt lat="45.974081" lon="10.283216"><time>2025-04-28T08:18:11.000Z</time><ele>1332.2</ele></trkpt><trkpt lat="45.974076" lon="10.283216"><time>2025-04-28T08:18:12.000Z</time><ele>1332.2</ele></trkpt><trkpt lat="45.974064" lon="10.283211"><time>2025-04-28T08:18:13.000Z</time><ele>1332.2</ele></trkpt><trkpt lat="45.974049" lon="10.283207"><time>2025-04-28T08:18:14.000Z</time><ele>1332.2</ele></trkpt><trkpt lat="45.974031" lon="10.283202"><time>2025-04-28T08:18:15.000Z</time><ele>1332.2</ele></trkpt><trkpt lat="45.974017" lon="10.283195"><time>2025-04-28T08:18:16.000Z</time><ele>1332.2</ele></trkpt><trkpt lat="45.974014" lon="10.283194"><time>2025-04-28T08:18:17.000Z</time><ele>1332.2</ele></trkpt><trkpt lat="45.97401" lon="10.283193"><time>2025-04-28T08:18:18.000Z</time><ele>1332.2</ele></trkpt><trkpt lat="45.974006" lon="10.283192"><time>2025-04-28T08:18:19.000Z</time><ele>1332.2</ele></trkpt><trkpt lat="45.974003" lon="10.283194"><time>2025-04-28T08:18:20.000Z</time><ele>1332.2</ele></trkpt><trkpt lat="45.974002" lon="10.283192"><time>2025-04-28T08:18:21.000Z</time><ele>1332.2</ele></trkpt><trkpt lat="45.973997" lon="10.283191"><time>2025-04-28T08:18:22.000Z</time><ele>1332.2</ele></trkpt><trkpt lat="45.973994" lon="10.283188"><time>2025-04-28T08:18:23.000Z</time><ele>1332.2</ele></trkpt><trkpt lat="45.974007" lon="10.283197"><time>2025-04-28T08:18:24.000Z</time><ele>1332.2</ele></trkpt><trkpt lat="45.97402" lon="10.283205"><time>2025-04-28T08:18:25.000Z</time><ele>1332.2</ele></trkpt><trkpt lat="45.97402" lon="10.283205"><time>2025-04-28T08:18:26.000Z</time><ele>1332.2</ele></trkpt><trkpt lat="45.97402" lon="10.283207"><time>2025-04-28T08:18:27.000Z</time><ele>1332.2</ele></trkpt><trkpt lat="45.97402" lon="10.283209"><time>2025-04-28T08:18:28.000Z</time><ele>1332.2</ele></trkpt><trkpt lat="45.97402" lon="10.28321"><time>2025-04-28T08:18:29.000Z</time><ele>1332.2</ele></trkpt><trkpt lat="45.97402" lon="10.28321"><time>2025-04-28T08:18:30.000Z</time><ele>1332.2</ele></trkpt><trkpt lat="45.97402" lon="10.28321"><time>2025-04-28T08:18:31.000Z</time><ele>1332</ele></trkpt><trkpt lat="45.97402" lon="10.28321"><time>2025-04-28T08:18:32.000Z</time><ele>1332</ele></trkpt><trkpt lat="45.97402" lon="10.28321"><time>2025-04-28T08:18:33.000Z</time><ele>1332</ele></trkpt><trkpt lat="45.97402" lon="10.28321"><time>2025-04-28T08:18:34.000Z</time><ele>1332</ele></trkpt><trkpt lat="45.97402" lon="10.28321"><time>2025-04-28T08:18:35.000Z</time><ele>1332</ele></trkpt><trkpt lat="45.974019" lon="10.28321"><time>2025-04-28T08:18:36.000Z</time><ele>1332</ele></trkpt><trkpt lat="45.974026" lon="10.283212"><time>2025-04-28T08:18:37.000Z</time><ele>1332</ele></trkpt><trkpt lat="45.974026" lon="10.283211"><time>2025-04-28T08:18:38.000Z</time><ele>1332.2</ele></trkpt><trkpt lat="45.974026" lon="10.283209"><time>2025-04-28T08:18:39.000Z</time><ele>1332.4</ele></trkpt><trkpt lat="45.974026" lon="10.283209"><time>2025-04-28T08:18:40.000Z</time><ele>1332.4</ele></trkpt><trkpt lat="45.974026" lon="10.283209"><time>2025-04-28T08:18:41.000Z</time><ele>1332.6</ele></trkpt><trkpt lat="45.974026" lon="10.283209"><time>2025-04-28T08:18:42.000Z</time><ele>1332.6</ele></trkpt><trkpt lat="45.974026" lon="10.283209"><time>2025-04-28T08:18:43.000Z</time><ele>1332.6</ele></trkpt><trkpt lat="45.974026" lon="10.283209"><time>2025-04-28T08:18:44.000Z</time><ele>1332.6</ele></trkpt><trkpt lat="45.974026" lon="10.283209"><time>2025-04-28T08:18:45.000Z</time><ele>1332.6</ele></trkpt><trkpt lat="45.97402" lon="10.283209"><time>2025-04-28T08:18:46.000Z</time><ele>1332.6</ele></trkpt><trkpt lat="45.974018" lon="10.283209"><time>2025-04-28T08:18:47.000Z</time><ele>1332.6</ele></trkpt><trkpt lat="45.974018" lon="10.283209"><time>2025-04-28T08:18:48.000Z</time><ele>1332.8</ele></trkpt><trkpt lat="45.974017" lon="10.283209"><time>2025-04-28T08:18:49.000Z</time><ele>1332.8</ele></trkpt><trkpt lat="45.974017" lon="10.283209"><time>2025-04-28T08:18:50.000Z</time><ele>1332.8</ele></trkpt><trkpt lat="45.974017" lon="10.283209"><time>2025-04-28T08:18:51.000Z</time><ele>1332.6</ele></trkpt><trkpt lat="45.974017" lon="10.283209"><time>2025-04-28T08:18:52.000Z</time><ele>1332.6</ele></trkpt><trkpt lat="45.974017" lon="10.283209"><time>2025-04-28T08:18:53.000Z</time><ele>1332.4</ele></trkpt><trkpt lat="45.974017" lon="10.283209"><time>2025-04-28T08:18:54.000Z</time><ele>1332.4</ele></trkpt><trkpt lat="45.974016" lon="10.283209"><time>2025-04-28T08:18:55.000Z</time><ele>1332.2</ele></trkpt><trkpt lat="45.974016" lon="10.283209"><time>2025-04-28T08:18:56.000Z</time><ele>1332.2</ele></trkpt><trkpt lat="45.974016" lon="10.283209"><time>2025-04-28T08:18:57.000Z</time><ele>1332.2</ele></trkpt><trkpt lat="45.974016" lon="10.283209"><time>2025-04-28T08:18:58.000Z</time><ele>1332.2</ele></trkpt><trkpt lat="45.974016" lon="10.28321"><time>2025-04-28T08:18:59.000Z</time><ele>1332.2</ele></trkpt><trkpt lat="45.974016" lon="10.283211"><time>2025-04-28T08:19:00.000Z</time><ele>1332.2</ele></trkpt><trkpt lat="45.974016" lon="10.283211"><time>2025-04-28T08:19:01.000Z</time><ele>1332.2</ele></trkpt><trkpt lat="45.974016" lon="10.283211"><time>2025-04-28T08:19:02.000Z</time><ele>1332.2</ele></trkpt><trkpt lat="45.974016" lon="10.283214"><time>2025-04-28T08:19:03.000Z</time><ele>1332.2</ele></trkpt><trkpt lat="45.974016" lon="10.283222"><time>2025-04-28T08:19:04.000Z</time><ele>1332.2</ele></trkpt><trkpt lat="45.974017" lon="10.283224"><time>2025-04-28T08:19:05.000Z</time><ele>1332</ele></trkpt><trkpt lat="45.974017" lon="10.283225"><time>2025-04-28T08:19:06.000Z</time><ele>1332</ele></trkpt><trkpt lat="45.974017" lon="10.283225"><time>2025-04-28T08:19:07.000Z</time><ele>1332</ele></trkpt><trkpt lat="45.974018" lon="10.283225"><time>2025-04-28T08:19:08.000Z</time><ele>1332</ele></trkpt><trkpt lat="45.974018" lon="10.283226"><time>2025-04-28T08:19:09.000Z</time><ele>1332</ele></trkpt><trkpt lat="45.974018" lon="10.283226"><time>2025-04-28T08:19:10.000Z</time><ele>1332</ele></trkpt><trkpt lat="45.974018" lon="10.283227"><time>2025-04-28T08:19:11.000Z</time><ele>1332.4</ele></trkpt><trkpt lat="45.974019" lon="10.283227"><time>2025-04-28T08:19:12.000Z</time><ele>1332.6</ele></trkpt><trkpt lat="45.974019" lon="10.283227"><time>2025-04-28T08:19:13.000Z</time><ele>1332.6</ele></trkpt><trkpt lat="45.974021" lon="10.283228"><time>2025-04-28T08:19:14.000Z</time><ele>1332.8</ele></trkpt><trkpt lat="45.974022" lon="10.283229"><time>2025-04-28T08:19:15.000Z</time><ele>1332.8</ele></trkpt><trkpt lat="45.974022" lon="10.283231"><time>2025-04-28T08:19:16.000Z</time><ele>1332.8</ele></trkpt><trkpt lat="45.974024" lon="10.283231"><time>2025-04-28T08:19:17.000Z</time><ele>1333</ele></trkpt><trkpt lat="45.974025" lon="10.283232"><time>2025-04-28T08:19:18.000Z</time><ele>1332.8</ele></trkpt><trkpt lat="45.974025" lon="10.283232"><time>2025-04-28T08:19:19.000Z</time><ele>1332.8</ele></trkpt><trkpt lat="45.974026" lon="10.283232"><time>2025-04-28T08:19:20.000Z</time><ele>1332.8</ele></trkpt><trkpt lat="45.974026" lon="10.283231"><time>2025-04-28T08:19:21.000Z</time><ele>1332.6</ele></trkpt><trkpt lat="45.974026" lon="10.283231"><time>2025-04-28T08:19:22.000Z</time><ele>1332.6</ele></trkpt><trkpt lat="45.974026" lon="10.283231"><time>2025-04-28T08:19:23.000Z</time><ele>1332.6</ele></trkpt><trkpt lat="45.974029" lon="10.283232"><time>2025-04-28T08:19:24.000Z</time><ele>1332.6</ele></trkpt><trkpt lat="45.974029" lon="10.283232"><time>2025-04-28T08:19:25.000Z</time><ele>1332.6</ele></trkpt><trkpt lat="45.974029" lon="10.283232"><time>2025-04-28T08:19:26.000Z</time><ele>1332.6</ele></trkpt><trkpt lat="45.974029" lon="10.283232"><time>2025-04-28T08:19:27.000Z</time><ele>1332.6</ele></trkpt><trkpt lat="45.974029" lon="10.283232"><time>2025-04-28T08:19:28.000Z</time><ele>1332.6</ele></trkpt><trkpt lat="45.974029" lon="10.283232"><time>2025-04-28T08:19:29.000Z</time><ele>1332.6</ele></trkpt><trkpt lat="45.974029" lon="10.283232"><time>2025-04-28T08:19:30.000Z</time><ele>1332.6</ele></trkpt><trkpt lat="45.974029" lon="10.283232"><time>2025-04-28T08:19:31.000Z</time><ele>1332.6</ele></trkpt><trkpt lat="45.974029" lon="10.283232"><time>2025-04-28T08:19:32.000Z</time><ele>1332.6</ele></trkpt><trkpt lat="45.974029" lon="10.283232"><time>2025-04-28T08:19:33.000Z</time><ele>1332.6</ele></trkpt><trkpt lat="45.97403" lon="10.283232"><time>2025-04-28T08:19:34.000Z</time><ele>1332.6</ele></trkpt><trkpt lat="45.97403" lon="10.283232"><time>2025-04-28T08:19:35.000Z</time><ele>1332.6</ele></trkpt><trkpt lat="45.97403" lon="10.283232"><time>2025-04-28T08:19:36.000Z</time><ele>1332.6</ele></trkpt><trkpt lat="45.97403" lon="10.283232"><time>2025-04-28T08:19:37.000Z</time><ele>1332.6</ele></trkpt><trkpt lat="45.97403" lon="10.283232"><time>2025-04-28T08:19:38.000Z</time><ele>1332.6</ele></trkpt><trkpt lat="45.974031" lon="10.283232"><time>2025-04-28T08:19:39.000Z</time><ele>1332.6</ele></trkpt><trkpt lat="45.974031" lon="10.283232"><time>2025-04-28T08:19:40.000Z</time><ele>1332.6</ele></trkpt><trkpt lat="45.974031" lon="10.283232"><time>2025-04-28T08:19:41.000Z</time><ele>1332.6</ele></trkpt><trkpt lat="45.974031" lon="10.283232"><time>2025-04-28T08:19:42.000Z</time><ele>1332.6</ele></trkpt><trkpt lat="45.974031" lon="10.283232"><time>2025-04-28T08:19:43.000Z</time><ele>1332.6</ele></trkpt><trkpt lat="45.974031" lon="10.283232"><time>2025-04-28T08:19:44.000Z</time><ele>1332.8</ele></trkpt><trkpt lat="45.974032" lon="10.283232"><time>2025-04-28T08:19:45.000Z</time><ele>1332.8</ele></trkpt><trkpt lat="45.974032" lon="10.283232"><time>2025-04-28T08:19:46.000Z</time><ele>1332.8</ele></trkpt><trkpt lat="45.974032" lon="10.283232"><time>2025-04-28T08:19:47.000Z</time><ele>1332.6</ele></trkpt><trkpt lat="45.974032" lon="10.283232"><time>2025-04-28T08:19:48.000Z</time><ele>1332.6</ele></trkpt><trkpt lat="45.974032" lon="10.283232"><time>2025-04-28T08:19:49.000Z</time><ele>1332.6</ele></trkpt><trkpt lat="45.974034" lon="10.283232"><time>2025-04-28T08:19:50.000Z</time><ele>1332.6</ele></trkpt><trkpt lat="45.974034" lon="10.283232"><time>2025-04-28T08:19:51.000Z</time><ele>1332.6</ele></trkpt><trkpt lat="45.974035" lon="10.283232"><time>2025-04-28T08:19:52.000Z</time><ele>1332.6</ele></trkpt><trkpt lat="45.974035" lon="10.283232"><time>2025-04-28T08:19:53.000Z</time><ele>1332.6</ele></trkpt><trkpt lat="45.974036" lon="10.283232"><time>2025-04-28T08:19:54.000Z</time><ele>1332.6</ele></trkpt><trkpt lat="45.974036" lon="10.283232"><time>2025-04-28T08:19:55.000Z</time><ele>1332.6</ele></trkpt><trkpt lat="45.974036" lon="10.283232"><time>2025-04-28T08:19:56.000Z</time><ele>1332.6</ele></trkpt><trkpt lat="45.974036" lon="10.283232"><time>2025-04-28T08:19:57.000Z</time><ele>1332.6</ele></trkpt><trkpt lat="45.974036" lon="10.283231"><time>2025-04-28T08:19:58.000Z</time><ele>1332.6</ele></trkpt><trkpt lat="45.974038" lon="10.283231"><time>2025-04-28T08:19:59.000Z</time><ele>1332.6</ele></trkpt><trkpt lat="45.974038" lon="10.283231"><time>2025-04-28T08:20:00.000Z</time><ele>1332.6</ele></trkpt><trkpt lat="45.974039" lon="10.28323"><time>2025-04-28T08:20:01.000Z</time><ele>1332.6</ele></trkpt><trkpt lat="45.974039" lon="10.283229"><time>2025-04-28T08:20:02.000Z</time><ele>1332.6</ele></trkpt><trkpt lat="45.97404" lon="10.283229"><time>2025-04-28T08:20:03.000Z</time><ele>1332.6</ele></trkpt><trkpt lat="45.97404" lon="10.283229"><time>2025-04-28T08:20:04.000Z</time><ele>1332.6</ele></trkpt><trkpt lat="45.97404" lon="10.283229"><time>2025-04-28T08:20:05.000Z</time><ele>1332.6</ele></trkpt><trkpt lat="45.97404" lon="10.283227"><time>2025-04-28T08:20:06.000Z</time><ele>1332.8</ele></trkpt><trkpt lat="45.974041" lon="10.283226"><time>2025-04-28T08:20:07.000Z</time><ele>1332.8</ele></trkpt><trkpt lat="45.974041" lon="10.283224"><time>2025-04-28T08:20:08.000Z</time><ele>1332.8</ele></trkpt><trkpt lat="45.974041" lon="10.283222"><time>2025-04-28T08:20:09.000Z</time><ele>1332.8</ele></trkpt><trkpt lat="45.974041" lon="10.283221"><time>2025-04-28T08:20:10.000Z</time><ele>1332.8</ele></trkpt><trkpt lat="45.974041" lon="10.283221"><time>2025-04-28T08:20:11.000Z</time><ele>1332.8</ele></trkpt><trkpt lat="45.974041" lon="10.283219"><time>2025-04-28T08:20:12.000Z</time><ele>1332.8</ele></trkpt><trkpt lat="45.974041" lon="10.283218"><time>2025-04-28T08:20:13.000Z</time><ele>1332.8</ele></trkpt><trkpt lat="45.974041" lon="10.283217"><time>2025-04-28T08:20:14.000Z</time><ele>1332.8</ele></trkpt><trkpt lat="45.974041" lon="10.283216"><time>2025-04-28T08:20:15.000Z</time><ele>1332.6</ele></trkpt><trkpt lat="45.974041" lon="10.283215"><time>2025-04-28T08:20:16.000Z</time><ele>1332.8</ele></trkpt><trkpt lat="45.974041" lon="10.283214"><time>2025-04-28T08:20:17.000Z</time><ele>1332.6</ele></trkpt><trkpt lat="45.974041" lon="10.283214"><time>2025-04-28T08:20:18.000Z</time><ele>1332.6</ele></trkpt><trkpt lat="45.974041" lon="10.283214"><time>2025-04-28T08:20:19.000Z</time><ele>1332.6</ele></trkpt><trkpt lat="45.974041" lon="10.283214"><time>2025-04-28T08:20:20.000Z</time><ele>1332.6</ele></trkpt><trkpt lat="45.974041" lon="10.283213"><time>2025-04-28T08:20:21.000Z</time><ele>1332.6</ele></trkpt><trkpt lat="45.97404" lon="10.283213"><time>2025-04-28T08:20:22.000Z</time><ele>1332.6</ele></trkpt><trkpt lat="45.97404" lon="10.283213"><time>2025-04-28T08:20:23.000Z</time><ele>1332.4</ele></trkpt><trkpt lat="45.97404" lon="10.283213"><time>2025-04-28T08:20:24.000Z</time><ele>1332.4</ele></trkpt><trkpt lat="45.974039" lon="10.283213"><time>2025-04-28T08:20:25.000Z</time><ele>1332.4</ele></trkpt><trkpt lat="45.974037" lon="10.283213"><time>2025-04-28T08:20:26.000Z</time><ele>1332.2</ele></trkpt><trkpt lat="45.974035" lon="10.283213"><time>2025-04-28T08:20:27.000Z</time><ele>1332.2</ele></trkpt><trkpt lat="45.974032" lon="10.283213"><time>2025-04-28T08:20:28.000Z</time><ele>1332.2</ele></trkpt><trkpt lat="45.97403" lon="10.283213"><time>2025-04-28T08:20:29.000Z</time><ele>1332.4</ele></trkpt><trkpt lat="45.974029" lon="10.283213"><time>2025-04-28T08:20:30.000Z</time><ele>1332.4</ele></trkpt><trkpt lat="45.974028" lon="10.283213"><time>2025-04-28T08:20:31.000Z</time><ele>1332.4</ele></trkpt><trkpt lat="45.974027" lon="10.283214"><time>2025-04-28T08:20:32.000Z</time><ele>1332.4</ele></trkpt><trkpt lat="45.974027" lon="10.283214"><time>2025-04-28T08:20:33.000Z</time><ele>1332.6</ele></trkpt><trkpt lat="45.974026" lon="10.283215"><time>2025-04-28T08:20:34.000Z</time><ele>1332.4</ele></trkpt><trkpt lat="45.974026" lon="10.283215"><time>2025-04-28T08:20:35.000Z</time><ele>1332.4</ele></trkpt><trkpt lat="45.974026" lon="10.283216"><time>2025-04-28T08:20:36.000Z</time><ele>1332.4</ele></trkpt><trkpt lat="45.974025" lon="10.283216"><time>2025-04-28T08:20:37.000Z</time><ele>1332.4</ele></trkpt><trkpt lat="45.974025" lon="10.283217"><time>2025-04-28T08:20:38.000Z</time><ele>1332.4</ele></trkpt><trkpt lat="45.974025" lon="10.283217"><time>2025-04-28T08:20:39.000Z</time><ele>1332.4</ele></trkpt><trkpt lat="45.974024" lon="10.283218"><time>2025-04-28T08:20:40.000Z</time><ele>1332.4</ele></trkpt><trkpt lat="45.974024" lon="10.283219"><time>2025-04-28T08:20:41.000Z</time><ele>1332.4</ele></trkpt><trkpt lat="45.974024" lon="10.283222"><time>2025-04-28T08:20:42.000Z</time><ele>1332.4</ele></trkpt><trkpt lat="45.974024" lon="10.283225"><time>2025-04-28T08:20:43.000Z</time><ele>1332.4</ele></trkpt><trkpt lat="45.974023" lon="10.283227"><time>2025-04-28T08:20:44.000Z</time><ele>1332.4</ele></trkpt><trkpt lat="45.974023" lon="10.283229"><time>2025-04-28T08:20:45.000Z</time><ele>1332.4</ele></trkpt><trkpt lat="45.974023" lon="10.28323"><time>2025-04-28T08:20:46.000Z</time><ele>1332.4</ele></trkpt><trkpt lat="45.974023" lon="10.283231"><time>2025-04-28T08:20:47.000Z</time><ele>1332.4</ele></trkpt><trkpt lat="45.974023" lon="10.283232"><time>2025-04-28T08:20:48.000Z</time><ele>1332.4</ele></trkpt><trkpt lat="45.974023" lon="10.283232"><time>2025-04-28T08:20:49.000Z</time><ele>1332.2</ele></trkpt><trkpt lat="45.974023" lon="10.283233"><time>2025-04-28T08:20:50.000Z</time><ele>1332.2</ele></trkpt><trkpt lat="45.974023" lon="10.283233"><time>2025-04-28T08:20:51.000Z</time><ele>1332.2</ele></trkpt><trkpt lat="45.974022" lon="10.283233"><time>2025-04-28T08:20:52.000Z</time><ele>1332.2</ele></trkpt><trkpt lat="45.974022" lon="10.283234"><time>2025-04-28T08:20:53.000Z</time><ele>1332.2</ele></trkpt><trkpt lat="45.974022" lon="10.283234"><time>2025-04-28T08:20:54.000Z</time><ele>1332.2</ele></trkpt><trkpt lat="45.974022" lon="10.283234"><time>2025-04-28T08:20:55.000Z</time><ele>1332.2</ele></trkpt><trkpt lat="45.974022" lon="10.283234"><time>2025-04-28T08:20:56.000Z</time><ele>1332.2</ele></trkpt><trkpt lat="45.974022" lon="10.283234"><time>2025-04-28T08:20:57.000Z</time><ele>1332.2</ele></trkpt><trkpt lat="45.974022" lon="10.283234"><time>2025-04-28T08:20:58.000Z</time><ele>1332.2</ele></trkpt><trkpt lat="45.974021" lon="10.283235"><time>2025-04-28T08:20:59.000Z</time><ele>1332.4</ele></trkpt><trkpt lat="45.974021" lon="10.283235"><time>2025-04-28T08:21:00.000Z</time><ele>1332.4</ele></trkpt><trkpt lat="45.974021" lon="10.283235"><time>2025-04-28T08:21:01.000Z</time><ele>1332.4</ele></trkpt><trkpt lat="45.974021" lon="10.283235"><time>2025-04-28T08:21:02.000Z</time><ele>1332.4</ele></trkpt><trkpt lat="45.974021" lon="10.283235"><time>2025-04-28T08:21:03.000Z</time><ele>1332.4</ele></trkpt><trkpt lat="45.974021" lon="10.283235"><time>2025-04-28T08:21:04.000Z</time><ele>1332.4</ele></trkpt><trkpt lat="45.97402" lon="10.283235"><time>2025-04-28T08:21:05.000Z</time><ele>1332.4</ele></trkpt><trkpt lat="45.97402" lon="10.283235"><time>2025-04-28T08:21:06.000Z</time><ele>1332.4</ele></trkpt><trkpt lat="45.97402" lon="10.283235"><time>2025-04-28T08:21:07.000Z</time><ele>1332.4</ele></trkpt><trkpt lat="45.97402" lon="10.283235"><time>2025-04-28T08:21:08.000Z</time><ele>1332.4</ele></trkpt><trkpt lat="45.97402" lon="10.283235"><time>2025-04-28T08:21:09.000Z</time><ele>1332.4</ele></trkpt><trkpt lat="45.97402" lon="10.283235"><time>2025-04-28T08:21:10.000Z</time><ele>1332.4</ele></trkpt><trkpt lat="45.97402" lon="10.283235"><time>2025-04-28T08:21:11.000Z</time><ele>1332.4</ele></trkpt><trkpt lat="45.974019" lon="10.283235"><time>2025-04-28T08:21:12.000Z</time><ele>1332.4</ele></trkpt><trkpt lat="45.974019" lon="10.283235"><time>2025-04-28T08:21:13.000Z</time><ele>1332.4</ele></trkpt><trkpt lat="45.974019" lon="10.283235"><time>2025-04-28T08:21:14.000Z</time><ele>1332.4</ele></trkpt><trkpt lat="45.974019" lon="10.283235"><time>2025-04-28T08:21:15.000Z</time><ele>1332.4</ele></trkpt><trkpt lat="45.974019" lon="10.283235"><time>2025-04-28T08:21:16.000Z</time><ele>1332.4</ele></trkpt><trkpt lat="45.974018" lon="10.283235"><time>2025-04-28T08:21:17.000Z</time><ele>1332.4</ele></trkpt><trkpt lat="45.974018" lon="10.283235"><time>2025-04-28T08:21:18.000Z</time><ele>1332.4</ele></trkpt><trkpt lat="45.974018" lon="10.283235"><time>2025-04-28T08:21:19.000Z</time><ele>1332.4</ele></trkpt><trkpt lat="45.974018" lon="10.283236"><time>2025-04-28T08:21:20.000Z</time><ele>1332.4</ele></trkpt><trkpt lat="45.974018" lon="10.283236"><time>2025-04-28T08:21:21.000Z</time><ele>1332.4</ele></trkpt><trkpt lat="45.974018" lon="10.283236"><time>2025-04-28T08:21:22.000Z</time><ele>1332.4</ele></trkpt><trkpt lat="45.974018" lon="10.283236"><time>2025-04-28T08:21:23.000Z</time><ele>1332.4</ele></trkpt><trkpt lat="45.974018" lon="10.283236"><time>2025-04-28T08:21:24.000Z</time><ele>1332.4</ele></trkpt><trkpt lat="45.974019" lon="10.283236"><time>2025-04-28T08:21:25.000Z</time><ele>1332.4</ele></trkpt><trkpt lat="45.974019" lon="10.283236"><time>2025-04-28T08:21:26.000Z</time><ele>1332.4</ele></trkpt><trkpt lat="45.974019" lon="10.283236"><time>2025-04-28T08:21:27.000Z</time><ele>1332.4</ele></trkpt><trkpt lat="45.974019" lon="10.283236"><time>2025-04-28T08:21:28.000Z</time><ele>1332.4</ele></trkpt><trkpt lat="45.974019" lon="10.283236"><time>2025-04-28T08:21:29.000Z</time><ele>1332.4</ele></trkpt><trkpt lat="45.974019" lon="10.283236"><time>2025-04-28T08:21:30.000Z</time><ele>1332.4</ele></trkpt><trkpt lat="45.974019" lon="10.283236"><time>2025-04-28T08:21:31.000Z</time><ele>1332.4</ele></trkpt><trkpt lat="45.974019" lon="10.283236"><time>2025-04-28T08:21:32.000Z</time><ele>1332.4</ele></trkpt><trkpt lat="45.97402" lon="10.283236"><time>2025-04-28T08:21:33.000Z</time><ele>1332.4</ele></trkpt><trkpt lat="45.97402" lon="10.283236"><time>2025-04-28T08:21:34.000Z</time><ele>1332.4</ele></trkpt><trkpt lat="45.97402" lon="10.283236"><time>2025-04-28T08:21:35.000Z</time><ele>1332.4</ele></trkpt><trkpt lat="45.97402" lon="10.283236"><time>2025-04-28T08:21:36.000Z</time><ele>1332.4</ele></trkpt><trkpt lat="45.974021" lon="10.283236"><time>2025-04-28T08:21:37.000Z</time><ele>1332.4</ele></trkpt><trkpt lat="45.974021" lon="10.283236"><time>2025-04-28T08:21:38.000Z</time><ele>1332.4</ele></trkpt><trkpt lat="45.974021" lon="10.283236"><time>2025-04-28T08:21:39.000Z</time><ele>1332.4</ele></trkpt><trkpt lat="45.974022" lon="10.283236"><time>2025-04-28T08:21:40.000Z</time><ele>1332.4</ele></trkpt><trkpt lat="45.974022" lon="10.283236"><time>2025-04-28T08:21:41.000Z</time><ele>1332.4</ele></trkpt><trkpt lat="45.974022" lon="10.283236"><time>2025-04-28T08:21:42.000Z</time><ele>1332.4</ele></trkpt><trkpt lat="45.974022" lon="10.283236"><time>2025-04-28T08:21:43.000Z</time><ele>1332.4</ele></trkpt><trkpt lat="45.974023" lon="10.283236"><time>2025-04-28T08:21:44.000Z</time><ele>1332.4</ele></trkpt><trkpt lat="45.974023" lon="10.283236"><time>2025-04-28T08:21:45.000Z</time><ele>1332.4</ele></trkpt><trkpt lat="45.974023" lon="10.283236"><time>2025-04-28T08:21:46.000Z</time><ele>1332.4</ele></trkpt><trkpt lat="45.974024" lon="10.283236"><time>2025-04-28T08:21:47.000Z</time><ele>1332.4</ele></trkpt><trkpt lat="45.974024" lon="10.283236"><time>2025-04-28T08:21:48.000Z</time><ele>1332.4</ele></trkpt><trkpt lat="45.974024" lon="10.283236"><time>2025-04-28T08:21:49.000Z</time><ele>1332.4</ele></trkpt><trkpt lat="45.974024" lon="10.283236"><time>2025-04-28T08:21:50.000Z</time><ele>1332.4</ele></trkpt><trkpt lat="45.974025" lon="10.283236"><time>2025-04-28T08:21:51.000Z</time><ele>1332.4</ele></trkpt><trkpt lat="45.974025" lon="10.283236"><time>2025-04-28T08:21:52.000Z</time><ele>1332.4</ele></trkpt><trkpt lat="45.974025" lon="10.283236"><time>2025-04-28T08:21:53.000Z</time><ele>1332.4</ele></trkpt><trkpt lat="45.974025" lon="10.283236"><time>2025-04-28T08:21:54.000Z</time><ele>1332.4</ele></trkpt><trkpt lat="45.974025" lon="10.283236"><time>2025-04-28T08:21:55.000Z</time><ele>1332.4</ele></trkpt><trkpt lat="45.974025" lon="10.283235"><time>2025-04-28T08:21:56.000Z</time><ele>1332.4</ele></trkpt><trkpt lat="45.974025" lon="10.283235"><time>2025-04-28T08:21:57.000Z</time><ele>1332.4</ele></trkpt><trkpt lat="45.974026" lon="10.283235"><time>2025-04-28T08:21:58.000Z</time><ele>1332.4</ele></trkpt><trkpt lat="45.974026" lon="10.283235"><time>2025-04-28T08:21:59.000Z</time><ele>1332.4</ele></trkpt><trkpt lat="45.974026" lon="10.283235"><time>2025-04-28T08:22:00.000Z</time><ele>1332.4</ele></trkpt><trkpt lat="45.974026" lon="10.283235"><time>2025-04-28T08:22:01.000Z</time><ele>1332.4</ele></trkpt><trkpt lat="45.974026" lon="10.283235"><time>2025-04-28T08:22:02.000Z</time><ele>1332.4</ele></trkpt><trkpt lat="45.974026" lon="10.283235"><time>2025-04-28T08:22:03.000Z</time><ele>1332.4</ele></trkpt><trkpt lat="45.974026" lon="10.283235"><time>2025-04-28T08:22:04.000Z</time><ele>1332.4</ele></trkpt><trkpt lat="45.974026" lon="10.283235"><time>2025-04-28T08:22:05.000Z</time><ele>1332.4</ele></trkpt><trkpt lat="45.974026" lon="10.283235"><time>2025-04-28T08:22:06.000Z</time><ele>1332.4</ele></trkpt><trkpt lat="45.974026" lon="10.283235"><time>2025-04-28T08:22:07.000Z</time><ele>1332.4</ele></trkpt><trkpt lat="45.974026" lon="10.283235"><time>2025-04-28T08:22:08.000Z</time><ele>1332.4</ele></trkpt><trkpt lat="45.974026" lon="10.283235"><time>2025-04-28T08:22:09.000Z</time><ele>1332.4</ele></trkpt><trkpt lat="45.974026" lon="10.283235"><time>2025-04-28T08:22:10.000Z</time><ele>1332.4</ele></trkpt><trkpt lat="45.974026" lon="10.283235"><time>2025-04-28T08:22:11.000Z</time><ele>1332.4</ele></trkpt><trkpt lat="45.974026" lon="10.283235"><time>2025-04-28T08:22:12.000Z</time><ele>1332.4</ele></trkpt><trkpt lat="45.974029" lon="10.283229"><time>2025-04-28T08:22:13.000Z</time><ele>1332.4</ele></trkpt><trkpt lat="45.974042" lon="10.283228"><time>2025-04-28T08:22:14.000Z</time><ele>1332.4</ele></trkpt><trkpt lat="45.974052" lon="10.283224"><time>2025-04-28T08:22:15.000Z</time><ele>1332.4</ele></trkpt><trkpt lat="45.974061" lon="10.283219"><time>2025-04-28T08:22:16.000Z</time><ele>1332.4</ele></trkpt><trkpt lat="45.974063" lon="10.283208"><time>2025-04-28T08:22:17.000Z</time><ele>1332.4</ele></trkpt><trkpt lat="45.974068" lon="10.283199"><time>2025-04-28T08:22:18.000Z</time><ele>1332.4</ele></trkpt><trkpt lat="45.974075" lon="10.283198"><time>2025-04-28T08:22:19.000Z</time><ele>1329</ele></trkpt><trkpt lat="45.974087" lon="10.283195"><time>2025-04-28T08:22:20.000Z</time><ele>1329</ele></trkpt><trkpt lat="45.974097" lon="10.283198"><time>2025-04-28T08:22:21.000Z</time><ele>1329</ele></trkpt><trkpt lat="45.974107" lon="10.283197"><time>2025-04-28T08:22:22.000Z</time><ele>1329</ele></trkpt><trkpt lat="45.974111" lon="10.283201"><time>2025-04-28T08:22:23.000Z</time><ele>1328.8</ele></trkpt><trkpt lat="45.974117" lon="10.283213"><time>2025-04-28T08:22:24.000Z</time><ele>1328.8</ele></trkpt><trkpt lat="45.97412" lon="10.283217"><time>2025-04-28T08:22:25.000Z</time><ele>1328.6</ele></trkpt><trkpt lat="45.974122" lon="10.283226"><time>2025-04-28T08:22:26.000Z</time><ele>1328.6</ele></trkpt><trkpt lat="45.974132" lon="10.283234"><time>2025-04-28T08:22:27.000Z</time><ele>1328.4</ele></trkpt><trkpt lat="45.974137" lon="10.283245"><time>2025-04-28T08:22:28.000Z</time><ele>1328</ele></trkpt><trkpt lat="45.974143" lon="10.283253"><time>2025-04-28T08:22:29.000Z</time><ele>1327.8</ele></trkpt><trkpt lat="45.974147" lon="10.28326"><time>2025-04-28T08:22:30.000Z</time><ele>1327.6</ele></trkpt><trkpt lat="45.974155" lon="10.283266"><time>2025-04-28T08:22:31.000Z</time><ele>1327.4</ele></trkpt><trkpt lat="45.974158" lon="10.283269"><time>2025-04-28T08:22:32.000Z</time><ele>1327</ele></trkpt><trkpt lat="45.974164" lon="10.283271"><time>2025-04-28T08:22:33.000Z</time><ele>1326.8</ele></trkpt><trkpt lat="45.974171" lon="10.283279"><time>2025-04-28T08:22:34.000Z</time><ele>1326.4</ele></trkpt><trkpt lat="45.974179" lon="10.28329"><time>2025-04-28T08:22:35.000Z</time><ele>1326.2</ele></trkpt><trkpt lat="45.974192" lon="10.283301"><time>2025-04-28T08:22:36.000Z</time><ele>1326</ele></trkpt><trkpt lat="45.974206" lon="10.283307"><time>2025-04-28T08:22:37.000Z</time><ele>1325.6</ele></trkpt><trkpt lat="45.974218" lon="10.283306"><time>2025-04-28T08:22:38.000Z</time><ele>1325.4</ele></trkpt><trkpt lat="45.974228" lon="10.283307"><time>2025-04-28T08:22:39.000Z</time><ele>1325.4</ele></trkpt><trkpt lat="45.974234" lon="10.283306"><time>2025-04-28T08:22:40.000Z</time><ele>1325.2</ele></trkpt><trkpt lat="45.974241" lon="10.283309"><time>2025-04-28T08:22:41.000Z</time><ele>1325</ele></trkpt><trkpt lat="45.974252" lon="10.283314"><time>2025-04-28T08:22:42.000Z</time><ele>1324.8</ele></trkpt><trkpt lat="45.974258" lon="10.283321"><time>2025-04-28T08:22:43.000Z</time><ele>1324.6</ele></trkpt><trkpt lat="45.974267" lon="10.283327"><time>2025-04-28T08:22:44.000Z</time><ele>1324.6</ele></trkpt><trkpt lat="45.974271" lon="10.283332"><time>2025-04-28T08:22:45.000Z</time><ele>1324.4</ele></trkpt><trkpt lat="45.974281" lon="10.283341"><time>2025-04-28T08:22:46.000Z</time><ele>1324.4</ele></trkpt><trkpt lat="45.974294" lon="10.283346"><time>2025-04-28T08:22:47.000Z</time><ele>1324.4</ele></trkpt><trkpt lat="45.974303" lon="10.283351"><time>2025-04-28T08:22:48.000Z</time><ele>1324.4</ele></trkpt><trkpt lat="45.974312" lon="10.283363"><time>2025-04-28T08:22:49.000Z</time><ele>1324.4</ele></trkpt><trkpt lat="45.974321" lon="10.283368"><time>2025-04-28T08:22:50.000Z</time><ele>1324.4</ele></trkpt><trkpt lat="45.974332" lon="10.283376"><time>2025-04-28T08:22:51.000Z</time><ele>1324.4</ele></trkpt><trkpt lat="45.974345" lon="10.283387"><time>2025-04-28T08:22:52.000Z</time><ele>1324.6</ele></trkpt><trkpt lat="45.974353" lon="10.2834"><time>2025-04-28T08:22:53.000Z</time><ele>1324.6</ele></trkpt><trkpt lat="45.974359" lon="10.283414"><time>2025-04-28T08:22:54.000Z</time><ele>1324.6</ele></trkpt><trkpt lat="45.974367" lon="10.283429"><time>2025-04-28T08:22:55.000Z</time><ele>1324.8</ele></trkpt><trkpt lat="45.974375" lon="10.283439"><time>2025-04-28T08:22:56.000Z</time><ele>1324.8</ele></trkpt><trkpt lat="45.97438" lon="10.283446"><time>2025-04-28T08:22:57.000Z</time><ele>1325</ele></trkpt><trkpt lat="45.974383" lon="10.283455"><time>2025-04-28T08:22:58.000Z</time><ele>1325</ele></trkpt><trkpt lat="45.974381" lon="10.283469"><time>2025-04-28T08:22:59.000Z</time><ele>1325</ele></trkpt><trkpt lat="45.974384" lon="10.283474"><time>2025-04-28T08:23:00.000Z</time><ele>1325.2</ele></trkpt><trkpt lat="45.974404" lon="10.283487"><time>2025-04-28T08:23:01.000Z</time><ele>1325.4</ele></trkpt><trkpt lat="45.974421" lon="10.283503"><time>2025-04-28T08:23:02.000Z</time><ele>1325.6</ele></trkpt><trkpt lat="45.974416" lon="10.283503"><time>2025-04-28T08:23:03.000Z</time><ele>1325.8</ele></trkpt><trkpt lat="45.97442" lon="10.283511"><time>2025-04-28T08:23:04.000Z</time><ele>1326</ele></trkpt><trkpt lat="45.97443" lon="10.283523"><time>2025-04-28T08:23:05.000Z</time><ele>1326</ele></trkpt><trkpt lat="45.974435" lon="10.283536"><time>2025-04-28T08:23:06.000Z</time><ele>1326</ele></trkpt><trkpt lat="45.974439" lon="10.28354"><time>2025-04-28T08:23:07.000Z</time><ele>1326.2</ele></trkpt><trkpt lat="45.974441" lon="10.283536"><time>2025-04-28T08:23:08.000Z</time><ele>1326.2</ele></trkpt><trkpt lat="45.974447" lon="10.28354"><time>2025-04-28T08:23:09.000Z</time><ele>1326.2</ele></trkpt><trkpt lat="45.974451" lon="10.283546"><time>2025-04-28T08:23:10.000Z</time><ele>1326.4</ele></trkpt><trkpt lat="45.974454" lon="10.283547"><time>2025-04-28T08:23:11.000Z</time><ele>1326.4</ele></trkpt><trkpt lat="45.974455" lon="10.283547"><time>2025-04-28T08:23:12.000Z</time><ele>1326.4</ele></trkpt><trkpt lat="45.974455" lon="10.283546"><time>2025-04-28T08:23:13.000Z</time><ele>1326.4</ele></trkpt><trkpt lat="45.974454" lon="10.283543"><time>2025-04-28T08:23:14.000Z</time><ele>1326.6</ele></trkpt><trkpt lat="45.974455" lon="10.283543"><time>2025-04-28T08:23:15.000Z</time><ele>1326.6</ele></trkpt><trkpt lat="45.974457" lon="10.283543"><time>2025-04-28T08:23:16.000Z</time><ele>1326.6</ele></trkpt><trkpt lat="45.974459" lon="10.283543"><time>2025-04-28T08:23:17.000Z</time><ele>1326.6</ele></trkpt><trkpt lat="45.974461" lon="10.283542"><time>2025-04-28T08:23:18.000Z</time><ele>1326.6</ele></trkpt><trkpt lat="45.974464" lon="10.283543"><time>2025-04-28T08:23:19.000Z</time><ele>1326.6</ele></trkpt><trkpt lat="45.974466" lon="10.283545"><time>2025-04-28T08:23:20.000Z</time><ele>1326.6</ele></trkpt><trkpt lat="45.974474" lon="10.283548"><time>2025-04-28T08:23:21.000Z</time><ele>1326.6</ele></trkpt><trkpt lat="45.97448" lon="10.283548"><time>2025-04-28T08:23:22.000Z</time><ele>1326.6</ele></trkpt><trkpt lat="45.974494" lon="10.283556"><time>2025-04-28T08:23:23.000Z</time><ele>1326.6</ele></trkpt><trkpt lat="45.974508" lon="10.283565"><time>2025-04-28T08:23:24.000Z</time><ele>1326.6</ele></trkpt><trkpt lat="45.974511" lon="10.28357"><time>2025-04-28T08:23:25.000Z</time><ele>1326.6</ele></trkpt><trkpt lat="45.974506" lon="10.283576"><time>2025-04-28T08:23:26.000Z</time><ele>1326.6</ele></trkpt><trkpt lat="45.974506" lon="10.283577"><time>2025-04-28T08:23:27.000Z</time><ele>1326.6</ele></trkpt><trkpt lat="45.974505" lon="10.283577"><time>2025-04-28T08:23:28.000Z</time><ele>1326.6</ele></trkpt><trkpt lat="45.974511" lon="10.283583"><time>2025-04-28T08:23:29.000Z</time><ele>1326.6</ele></trkpt><trkpt lat="45.974511" lon="10.283591"><time>2025-04-28T08:23:30.000Z</time><ele>1326.6</ele></trkpt><trkpt lat="45.974509" lon="10.283592"><time>2025-04-28T08:23:31.000Z</time><ele>1326.6</ele></trkpt><trkpt lat="45.974513" lon="10.283594"><time>2025-04-28T08:23:32.000Z</time><ele>1326.6</ele></trkpt><trkpt lat="45.974517" lon="10.283594"><time>2025-04-28T08:23:33.000Z</time><ele>1326.8</ele></trkpt><trkpt lat="45.97453" lon="10.283592"><time>2025-04-28T08:23:34.000Z</time><ele>1326.6</ele></trkpt><trkpt lat="45.97454" lon="10.283589"><time>2025-04-28T08:23:35.000Z</time><ele>1326.6</ele></trkpt><trkpt lat="45.974549" lon="10.283587"><time>2025-04-28T08:23:36.000Z</time><ele>1326.4</ele></trkpt><trkpt lat="45.974556" lon="10.283582"><time>2025-04-28T08:23:37.000Z</time><ele>1326.4</ele></trkpt><trkpt lat="45.974563" lon="10.283582"><time>2025-04-28T08:23:38.000Z</time><ele>1326.2</ele></trkpt><trkpt lat="45.974573" lon="10.283585"><time>2025-04-28T08:23:39.000Z</time><ele>1326.2</ele></trkpt><trkpt lat="45.974583" lon="10.283579"><time>2025-04-28T08:23:40.000Z</time><ele>1326</ele></trkpt><trkpt lat="45.974587" lon="10.283575"><time>2025-04-28T08:23:41.000Z</time><ele>1325.6</ele></trkpt><trkpt lat="45.97459" lon="10.283573"><time>2025-04-28T08:23:42.000Z</time><ele>1325.6</ele></trkpt><trkpt lat="45.97461" lon="10.283585"><time>2025-04-28T08:23:43.000Z</time><ele>1325.4</ele></trkpt><trkpt lat="45.974607" lon="10.283581"><time>2025-04-28T08:23:44.000Z</time><ele>1325.2</ele></trkpt><trkpt lat="45.974608" lon="10.283579"><time>2025-04-28T08:23:45.000Z</time><ele>1325.2</ele></trkpt><trkpt lat="45.974608" lon="10.283579"><time>2025-04-28T08:23:46.000Z</time><ele>1325.2</ele></trkpt><trkpt lat="45.974607" lon="10.283577"><time>2025-04-28T08:23:47.000Z</time><ele>1325</ele></trkpt><trkpt lat="45.974606" lon="10.283577"><time>2025-04-28T08:23:48.000Z</time><ele>1325</ele></trkpt><trkpt lat="45.974606" lon="10.283576"><time>2025-04-28T08:23:49.000Z</time><ele>1325</ele></trkpt><trkpt lat="45.974599" lon="10.283576"><time>2025-04-28T08:23:50.000Z</time><ele>1325</ele></trkpt><trkpt lat="45.974595" lon="10.283573"><time>2025-04-28T08:23:51.000Z</time><ele>1325</ele></trkpt><trkpt lat="45.974595" lon="10.283568"><time>2025-04-28T08:23:52.000Z</time><ele>1324.8</ele></trkpt><trkpt lat="45.974599" lon="10.283564"><time>2025-04-28T08:23:53.000Z</time><ele>1324.8</ele></trkpt><trkpt lat="45.974603" lon="10.28356"><time>2025-04-28T08:23:54.000Z</time><ele>1324.6</ele></trkpt><trkpt lat="45.974605" lon="10.283556"><time>2025-04-28T08:23:55.000Z</time><ele>1324.6</ele></trkpt><trkpt lat="45.97461" lon="10.283564"><time>2025-04-28T08:23:56.000Z</time><ele>1324.4</ele></trkpt><trkpt lat="45.974613" lon="10.28357"><time>2025-04-28T08:23:57.000Z</time><ele>1324.2</ele></trkpt><trkpt lat="45.974614" lon="10.283568"><time>2025-04-28T08:23:58.000Z</time><ele>1324</ele></trkpt><trkpt lat="45.974617" lon="10.283568"><time>2025-04-28T08:23:59.000Z</time><ele>1323.8</ele></trkpt><trkpt lat="45.974625" lon="10.283572"><time>2025-04-28T08:24:00.000Z</time><ele>1323.4</ele></trkpt><trkpt lat="45.974635" lon="10.283572"><time>2025-04-28T08:24:01.000Z</time><ele>1323.2</ele></trkpt><trkpt lat="45.974645" lon="10.283573"><time>2025-04-28T08:24:02.000Z</time><ele>1323</ele></trkpt><trkpt lat="45.974654" lon="10.283582"><time>2025-04-28T08:24:03.000Z</time><ele>1323</ele></trkpt><trkpt lat="45.974662" lon="10.28359"><time>2025-04-28T08:24:04.000Z</time><ele>1322.6</ele></trkpt><trkpt lat="45.974667" lon="10.283595"><time>2025-04-28T08:24:05.000Z</time><ele>1322.2</ele></trkpt><trkpt lat="45.974674" lon="10.283596"><time>2025-04-28T08:24:06.000Z</time><ele>1322</ele></trkpt><trkpt lat="45.974686" lon="10.283597"><time>2025-04-28T08:24:07.000Z</time><ele>1321.8</ele></trkpt><trkpt lat="45.974702" lon="10.283603"><time>2025-04-28T08:24:08.000Z</time><ele>1321.6</ele></trkpt><trkpt lat="45.974714" lon="10.283609"><time>2025-04-28T08:24:09.000Z</time><ele>1321.4</ele></trkpt><trkpt lat="45.97472" lon="10.283616"><time>2025-04-28T08:24:10.000Z</time><ele>1321.2</ele></trkpt><trkpt lat="45.974719" lon="10.283617"><time>2025-04-28T08:24:11.000Z</time><ele>1321</ele></trkpt><trkpt lat="45.974719" lon="10.283617"><time>2025-04-28T08:24:12.000Z</time><ele>1320.8</ele></trkpt><trkpt lat="45.974721" lon="10.28362"><time>2025-04-28T08:24:13.000Z</time><ele>1320.4</ele></trkpt><trkpt lat="45.974721" lon="10.283623"><time>2025-04-28T08:24:14.000Z</time><ele>1320.2</ele></trkpt><trkpt lat="45.974727" lon="10.283631"><time>2025-04-28T08:24:15.000Z</time><ele>1320</ele></trkpt><trkpt lat="45.974731" lon="10.283638"><time>2025-04-28T08:24:16.000Z</time><ele>1319.8</ele></trkpt><trkpt lat="45.974735" lon="10.283638"><time>2025-04-28T08:24:17.000Z</time><ele>1319.4</ele></trkpt><trkpt lat="45.974747" lon="10.283644"><time>2025-04-28T08:24:18.000Z</time><ele>1319.2</ele></trkpt><trkpt lat="45.974752" lon="10.283645"><time>2025-04-28T08:24:19.000Z</time><ele>1319</ele></trkpt><trkpt lat="45.974764" lon="10.283651"><time>2025-04-28T08:24:20.000Z</time><ele>1318.6</ele></trkpt><trkpt lat="45.974776" lon="10.283653"><time>2025-04-28T08:24:21.000Z</time><ele>1318.6</ele></trkpt><trkpt lat="45.974789" lon="10.283665"><time>2025-04-28T08:24:22.000Z</time><ele>1318.2</ele></trkpt><trkpt lat="45.974797" lon="10.28368"><time>2025-04-28T08:24:23.000Z</time><ele>1318</ele></trkpt><trkpt lat="45.9748" lon="10.283684"><time>2025-04-28T08:24:24.000Z</time><ele>1317.8</ele></trkpt><trkpt lat="45.974815" lon="10.283694"><time>2025-04-28T08:24:25.000Z</time><ele>1317.4</ele></trkpt><trkpt lat="45.974834" lon="10.283695"><time>2025-04-28T08:24:26.000Z</time><ele>1317.2</ele></trkpt><trkpt lat="45.974855" lon="10.283686"><time>2025-04-28T08:24:27.000Z</time><ele>1316.8</ele></trkpt><trkpt lat="45.97486" lon="10.283682"><time>2025-04-28T08:24:28.000Z</time><ele>1316.6</ele></trkpt><trkpt lat="45.974871" lon="10.283687"><time>2025-04-28T08:24:29.000Z</time><ele>1316.6</ele></trkpt><trkpt lat="45.974885" lon="10.283692"><time>2025-04-28T08:24:30.000Z</time><ele>1316.2</ele></trkpt><trkpt lat="45.974901" lon="10.283701"><time>2025-04-28T08:24:31.000Z</time><ele>1316</ele></trkpt><trkpt lat="45.974926" lon="10.283718"><time>2025-04-28T08:24:32.000Z</time><ele>1315.8</ele></trkpt><trkpt lat="45.974945" lon="10.283724"><time>2025-04-28T08:24:33.000Z</time><ele>1315.4</ele></trkpt><trkpt lat="45.974962" lon="10.283728"><time>2025-04-28T08:24:34.000Z</time><ele>1315</ele></trkpt><trkpt lat="45.974974" lon="10.283732"><time>2025-04-28T08:24:35.000Z</time><ele>1314.8</ele></trkpt><trkpt lat="45.974986" lon="10.283727"><time>2025-04-28T08:24:36.000Z</time><ele>1314.6</ele></trkpt><trkpt lat="45.974988" lon="10.283715"><time>2025-04-28T08:24:37.000Z</time><ele>1314.4</ele></trkpt><trkpt lat="45.974991" lon="10.283704"><time>2025-04-28T08:24:38.000Z</time><ele>1314.2</ele></trkpt><trkpt lat="45.975001" lon="10.283697"><time>2025-04-28T08:24:39.000Z</time><ele>1313.8</ele></trkpt><trkpt lat="45.975011" lon="10.283697"><time>2025-04-28T08:24:40.000Z</time><ele>1313.4</ele></trkpt><trkpt lat="45.975017" lon="10.283699"><time>2025-04-28T08:24:41.000Z</time><ele>1313.2</ele></trkpt><trkpt lat="45.975022" lon="10.283703"><time>2025-04-28T08:24:42.000Z</time><ele>1312.8</ele></trkpt><trkpt lat="45.975029" lon="10.283704"><time>2025-04-28T08:24:43.000Z</time><ele>1312.6</ele></trkpt><trkpt lat="45.975035" lon="10.283702"><time>2025-04-28T08:24:44.000Z</time><ele>1312.2</ele></trkpt><trkpt lat="45.975044" lon="10.283701"><time>2025-04-28T08:24:45.000Z</time><ele>1311.8</ele></trkpt><trkpt lat="45.975062" lon="10.283708"><time>2025-04-28T08:24:46.000Z</time><ele>1311.6</ele></trkpt><trkpt lat="45.975066" lon="10.283705"><time>2025-04-28T08:24:47.000Z</time><ele>1311.4</ele></trkpt><trkpt lat="45.975072" lon="10.283703"><time>2025-04-28T08:24:48.000Z</time><ele>1311.2</ele></trkpt><trkpt lat="45.975076" lon="10.283703"><time>2025-04-28T08:24:49.000Z</time><ele>1310.8</ele></trkpt><trkpt lat="45.97508" lon="10.283704"><time>2025-04-28T08:24:50.000Z</time><ele>1310.4</ele></trkpt><trkpt lat="45.975087" lon="10.283707"><time>2025-04-28T08:24:51.000Z</time><ele>1310.2</ele></trkpt><trkpt lat="45.975092" lon="10.283711"><time>2025-04-28T08:24:52.000Z</time><ele>1310</ele></trkpt><trkpt lat="45.975099" lon="10.28372"><time>2025-04-28T08:24:53.000Z</time><ele>1309.8</ele></trkpt><trkpt lat="45.9751" lon="10.283726"><time>2025-04-28T08:24:54.000Z</time><ele>1309.4</ele></trkpt><trkpt lat="45.975101" lon="10.28373"><time>2025-04-28T08:24:55.000Z</time><ele>1309.2</ele></trkpt><trkpt lat="45.975112" lon="10.283737"><time>2025-04-28T08:24:56.000Z</time><ele>1309</ele></trkpt><trkpt lat="45.975123" lon="10.283739"><time>2025-04-28T08:24:57.000Z</time><ele>1308.8</ele></trkpt><trkpt lat="45.975136" lon="10.283742"><time>2025-04-28T08:24:58.000Z</time><ele>1308.4</ele></trkpt><trkpt lat="45.975147" lon="10.283743"><time>2025-04-28T08:24:59.000Z</time><ele>1308.2</ele></trkpt><trkpt lat="45.975152" lon="10.283741"><time>2025-04-28T08:25:00.000Z</time><ele>1307.8</ele></trkpt><trkpt lat="45.975153" lon="10.283741"><time>2025-04-28T08:25:01.000Z</time><ele>1307.4</ele></trkpt><trkpt lat="45.975168" lon="10.283742"><time>2025-04-28T08:25:02.000Z</time><ele>1307.2</ele></trkpt><trkpt lat="45.975186" lon="10.28375"><time>2025-04-28T08:25:03.000Z</time><ele>1306.8</ele></trkpt><trkpt lat="45.975199" lon="10.28375"><time>2025-04-28T08:25:04.000Z</time><ele>1306.6</ele></trkpt><trkpt lat="45.975212" lon="10.283747"><time>2025-04-28T08:25:05.000Z</time><ele>1306.4</ele></trkpt><trkpt lat="45.975224" lon="10.283745"><time>2025-04-28T08:25:06.000Z</time><ele>1306.2</ele></trkpt><trkpt lat="45.975233" lon="10.283744"><time>2025-04-28T08:25:07.000Z</time><ele>1306</ele></trkpt><trkpt lat="45.975238" lon="10.28375"><time>2025-04-28T08:25:08.000Z</time><ele>1305.8</ele></trkpt><trkpt lat="45.975248" lon="10.283766"><time>2025-04-28T08:25:09.000Z</time><ele>1305.6</ele></trkpt><trkpt lat="45.975255" lon="10.283775"><time>2025-04-28T08:25:10.000Z</time><ele>1305.6</ele></trkpt><trkpt lat="45.975265" lon="10.283772"><time>2025-04-28T08:25:11.000Z</time><ele>1305.2</ele></trkpt><trkpt lat="45.975268" lon="10.283768"><time>2025-04-28T08:25:12.000Z</time><ele>1305</ele></trkpt><trkpt lat="45.975274" lon="10.283783"><time>2025-04-28T08:25:13.000Z</time><ele>1305</ele></trkpt><trkpt lat="45.975286" lon="10.283781"><time>2025-04-28T08:25:14.000Z</time><ele>1304.8</ele></trkpt><trkpt lat="45.975285" lon="10.283779"><time>2025-04-28T08:25:15.000Z</time><ele>1304.8</ele></trkpt><trkpt lat="45.975292" lon="10.283774"><time>2025-04-28T08:25:16.000Z</time><ele>1304.8</ele></trkpt><trkpt lat="45.975302" lon="10.28377"><time>2025-04-28T08:25:17.000Z</time><ele>1304.6</ele></trkpt><trkpt lat="45.975305" lon="10.283762"><time>2025-04-28T08:25:18.000Z</time><ele>1304.6</ele></trkpt><trkpt lat="45.975309" lon="10.283758"><time>2025-04-28T08:25:19.000Z</time><ele>1304.6</ele></trkpt><trkpt lat="45.97531" lon="10.283753"><time>2025-04-28T08:25:20.000Z</time><ele>1304.6</ele></trkpt><trkpt lat="45.975312" lon="10.283753"><time>2025-04-28T08:25:21.000Z</time><ele>1304.6</ele></trkpt><trkpt lat="45.975313" lon="10.283755"><time>2025-04-28T08:25:22.000Z</time><ele>1304.8</ele></trkpt><trkpt lat="45.975313" lon="10.283753"><time>2025-04-28T08:25:23.000Z</time><ele>1304.8</ele></trkpt><trkpt lat="45.975308" lon="10.283766"><time>2025-04-28T08:25:24.000Z</time><ele>1304.8</ele></trkpt><trkpt lat="45.975315" lon="10.283773"><time>2025-04-28T08:25:25.000Z</time><ele>1304.8</ele></trkpt><trkpt lat="45.975311" lon="10.283777"><time>2025-04-28T08:25:26.000Z</time><ele>1304.8</ele></trkpt><trkpt lat="45.975311" lon="10.283774"><time>2025-04-28T08:25:27.000Z</time><ele>1304.8</ele></trkpt><trkpt lat="45.975309" lon="10.28377"><time>2025-04-28T08:25:28.000Z</time><ele>1304.8</ele></trkpt><trkpt lat="45.97531" lon="10.283776"><time>2025-04-28T08:25:29.000Z</time><ele>1304.6</ele></trkpt><trkpt lat="45.975308" lon="10.283777"><time>2025-04-28T08:25:30.000Z</time><ele>1304.6</ele></trkpt><trkpt lat="45.975306" lon="10.283778"><time>2025-04-28T08:25:31.000Z</time><ele>1304.6</ele></trkpt><trkpt lat="45.975306" lon="10.283777"><time>2025-04-28T08:25:32.000Z</time><ele>1304.6</ele></trkpt><trkpt lat="45.975308" lon="10.283774"><time>2025-04-28T08:25:33.000Z</time><ele>1304.6</ele></trkpt><trkpt lat="45.975309" lon="10.283772"><time>2025-04-28T08:25:34.000Z</time><ele>1304.4</ele></trkpt><trkpt lat="45.97531" lon="10.28377"><time>2025-04-28T08:25:35.000Z</time><ele>1304.4</ele></trkpt><trkpt lat="45.975312" lon="10.283767"><time>2025-04-28T08:25:36.000Z</time><ele>1304.4</ele></trkpt><trkpt lat="45.975312" lon="10.283764"><time>2025-04-28T08:25:37.000Z</time><ele>1304.4</ele></trkpt><trkpt lat="45.97531" lon="10.283763"><time>2025-04-28T08:25:38.000Z</time><ele>1304.4</ele></trkpt><trkpt lat="45.975309" lon="10.283762"><time>2025-04-28T08:25:39.000Z</time><ele>1304.4</ele></trkpt><trkpt lat="45.975308" lon="10.283757"><time>2025-04-28T08:25:40.000Z</time><ele>1304.4</ele></trkpt><trkpt lat="45.975308" lon="10.283757"><time>2025-04-28T08:25:41.000Z</time><ele>1304.4</ele></trkpt><trkpt lat="45.975308" lon="10.283757"><time>2025-04-28T08:25:42.000Z</time><ele>1304.4</ele></trkpt><trkpt lat="45.975308" lon="10.283757"><time>2025-04-28T08:25:43.000Z</time><ele>1304.4</ele></trkpt><trkpt lat="45.975308" lon="10.283757"><time>2025-04-28T08:25:44.000Z</time><ele>1304.4</ele></trkpt><trkpt lat="45.975308" lon="10.283757"><time>2025-04-28T08:25:45.000Z</time><ele>1304.6</ele></trkpt><trkpt lat="45.975308" lon="10.283757"><time>2025-04-28T08:25:46.000Z</time><ele>1304.6</ele></trkpt><trkpt lat="45.975308" lon="10.283757"><time>2025-04-28T08:25:47.000Z</time><ele>1304.6</ele></trkpt><trkpt lat="45.975308" lon="10.283757"><time>2025-04-28T08:25:48.000Z</time><ele>1304.6</ele></trkpt><trkpt lat="45.975308" lon="10.283757"><time>2025-04-28T08:25:49.000Z</time><ele>1304.4</ele></trkpt><trkpt lat="45.975308" lon="10.283757"><time>2025-04-28T08:25:50.000Z</time><ele>1304.4</ele></trkpt><trkpt lat="45.975308" lon="10.283757"><time>2025-04-28T08:25:51.000Z</time><ele>1304.4</ele></trkpt><trkpt lat="45.975308" lon="10.283757"><time>2025-04-28T08:25:52.000Z</time><ele>1304.4</ele></trkpt><trkpt lat="45.975308" lon="10.283757"><time>2025-04-28T08:25:53.000Z</time><ele>1304.4</ele></trkpt><trkpt lat="45.975308" lon="10.283757"><time>2025-04-28T08:25:54.000Z</time><ele>1304.4</ele></trkpt><trkpt lat="45.975308" lon="10.283757"><time>2025-04-28T08:25:55.000Z</time><ele>1304.4</ele></trkpt><trkpt lat="45.975308" lon="10.283757"><time>2025-04-28T08:25:56.000Z</time><ele>1304.4</ele></trkpt><trkpt lat="45.975306" lon="10.283757"><time>2025-04-28T08:25:57.000Z</time><ele>1304.2</ele></trkpt><trkpt lat="45.975305" lon="10.283757"><time>2025-04-28T08:25:58.000Z</time><ele>1304.2</ele></trkpt><trkpt lat="45.975305" lon="10.283757"><time>2025-04-28T08:25:59.000Z</time><ele>1304</ele></trkpt><trkpt lat="45.975305" lon="10.283757"><time>2025-04-28T08:26:00.000Z</time><ele>1304</ele></trkpt><trkpt lat="45.975305" lon="10.283757"><time>2025-04-28T08:26:01.000Z</time><ele>1303.8</ele></trkpt><trkpt lat="45.975305" lon="10.283757"><time>2025-04-28T08:26:02.000Z</time><ele>1303.6</ele></trkpt><trkpt lat="45.975305" lon="10.283757"><time>2025-04-28T08:26:03.000Z</time><ele>1303.6</ele></trkpt><trkpt lat="45.975305" lon="10.283757"><time>2025-04-28T08:26:04.000Z</time><ele>1303.4</ele></trkpt><trkpt lat="45.975307" lon="10.283761"><time>2025-04-28T08:26:05.000Z</time><ele>1303.2</ele></trkpt><trkpt lat="45.975313" lon="10.283768"><time>2025-04-28T08:26:06.000Z</time><ele>1303.2</ele></trkpt><trkpt lat="45.97532" lon="10.283768"><time>2025-04-28T08:26:07.000Z</time><ele>1303</ele></trkpt><trkpt lat="45.97533" lon="10.283772"><time>2025-04-28T08:26:08.000Z</time><ele>1303</ele></trkpt><trkpt lat="45.97534" lon="10.283777"><time>2025-04-28T08:26:09.000Z</time><ele>1302.8</ele></trkpt><trkpt lat="45.975352" lon="10.283782"><time>2025-04-28T08:26:10.000Z</time><ele>1302.8</ele></trkpt><trkpt lat="45.975367" lon="10.283787"><time>2025-04-28T08:26:11.000Z</time><ele>1302.6</ele></trkpt><trkpt lat="45.975384" lon="10.283793"><time>2025-04-28T08:26:12.000Z</time><ele>1302.6</ele></trkpt><trkpt lat="45.9754" lon="10.283802"><time>2025-04-28T08:26:13.000Z</time><ele>1302.4</ele></trkpt><trkpt lat="45.975412" lon="10.283817"><time>2025-04-28T08:26:14.000Z</time><ele>1302.2</ele></trkpt><trkpt lat="45.975426" lon="10.283824"><time>2025-04-28T08:26:15.000Z</time><ele>1302</ele></trkpt><trkpt lat="45.975439" lon="10.283829"><time>2025-04-28T08:26:16.000Z</time><ele>1301.8</ele></trkpt><trkpt lat="45.975452" lon="10.283835"><time>2025-04-28T08:26:17.000Z</time><ele>1301.8</ele></trkpt><trkpt lat="45.97546" lon="10.283844"><time>2025-04-28T08:26:18.000Z</time><ele>1301.6</ele></trkpt><trkpt lat="45.975463" lon="10.283859"><time>2025-04-28T08:26:19.000Z</time><ele>1301.4</ele></trkpt><trkpt lat="45.97547" lon="10.283871"><time>2025-04-28T08:26:20.000Z</time><ele>1301.4</ele></trkpt><trkpt lat="45.975483" lon="10.283867"><time>2025-04-28T08:26:21.000Z</time><ele>1301.4</ele></trkpt><trkpt lat="45.975462" lon="10.28385"><time>2025-04-28T08:26:22.000Z</time><ele>1301.4</ele></trkpt><trkpt lat="45.975462" lon="10.283842"><time>2025-04-28T08:26:23.000Z</time><ele>1301.4</ele></trkpt><trkpt lat="45.975474" lon="10.283834"><time>2025-04-28T08:26:24.000Z</time><ele>1301.6</ele></trkpt><trkpt lat="45.975478" lon="10.283826"><time>2025-04-28T08:26:25.000Z</time><ele>1301.6</ele></trkpt><trkpt lat="45.975476" lon="10.283821"><time>2025-04-28T08:26:26.000Z</time><ele>1301.6</ele></trkpt><trkpt lat="45.97547" lon="10.283817"><time>2025-04-28T08:26:27.000Z</time><ele>1301.6</ele></trkpt><trkpt lat="45.975457" lon="10.283814"><time>2025-04-28T08:26:28.000Z</time><ele>1301.6</ele></trkpt><trkpt lat="45.97545" lon="10.28381"><time>2025-04-28T08:26:29.000Z</time><ele>1301.6</ele></trkpt><trkpt lat="45.975444" lon="10.283808"><time>2025-04-28T08:26:30.000Z</time><ele>1301.6</ele></trkpt><trkpt lat="45.975453" lon="10.283818"><time>2025-04-28T08:26:31.000Z</time><ele>1301.4</ele></trkpt><trkpt lat="45.975458" lon="10.283834"><time>2025-04-28T08:26:32.000Z</time><ele>1301</ele></trkpt><trkpt lat="45.975469" lon="10.283845"><time>2025-04-28T08:26:33.000Z</time><ele>1300.8</ele></trkpt><trkpt lat="45.975483" lon="10.283854"><time>2025-04-28T08:26:34.000Z</time><ele>1300.4</ele></trkpt><trkpt lat="45.975499" lon="10.28386"><time>2025-04-28T08:26:35.000Z</time><ele>1300.2</ele></trkpt><trkpt lat="45.975502" lon="10.283857"><time>2025-04-28T08:26:36.000Z</time><ele>1300.2</ele></trkpt><trkpt lat="45.975516" lon="10.283861"><time>2025-04-28T08:26:37.000Z</time><ele>1300</ele></trkpt><trkpt lat="45.975534" lon="10.283869"><time>2025-04-28T08:26:38.000Z</time><ele>1300</ele></trkpt><trkpt lat="45.975553" lon="10.283876"><time>2025-04-28T08:26:39.000Z</time><ele>1299.8</ele></trkpt><trkpt lat="45.975589" lon="10.283895"><time>2025-04-28T08:26:40.000Z</time><ele>1299.4</ele></trkpt><trkpt lat="45.975589" lon="10.283895"><time>2025-04-28T08:26:41.000Z</time><ele>1299.2</ele></trkpt><trkpt lat="45.975608" lon="10.283908"><time>2025-04-28T08:26:42.000Z</time><ele>1299.2</ele></trkpt><trkpt lat="45.975615" lon="10.283922"><time>2025-04-28T08:26:43.000Z</time><ele>1299</ele></trkpt><trkpt lat="45.975614" lon="10.283926"><time>2025-04-28T08:26:44.000Z</time><ele>1299</ele></trkpt><trkpt lat="45.975614" lon="10.283928"><time>2025-04-28T08:26:45.000Z</time><ele>1298.8</ele></trkpt><trkpt lat="45.975621" lon="10.283934"><time>2025-04-28T08:26:46.000Z</time><ele>1298.6</ele></trkpt><trkpt lat="45.975631" lon="10.283937"><time>2025-04-28T08:26:47.000Z</time><ele>1298.2</ele></trkpt><trkpt lat="45.975645" lon="10.283941"><time>2025-04-28T08:26:48.000Z</time><ele>1298</ele></trkpt><trkpt lat="45.975661" lon="10.283942"><time>2025-04-28T08:26:49.000Z</time><ele>1297.8</ele></trkpt><trkpt lat="45.97568" lon="10.283945"><time>2025-04-28T08:26:50.000Z</time><ele>1297.6</ele></trkpt><trkpt lat="45.975696" lon="10.283947"><time>2025-04-28T08:26:51.000Z</time><ele>1297.4</ele></trkpt><trkpt lat="45.97571" lon="10.283946"><time>2025-04-28T08:26:52.000Z</time><ele>1297.4</ele></trkpt><trkpt lat="45.975723" lon="10.28394"><time>2025-04-28T08:26:53.000Z</time><ele>1297.2</ele></trkpt><trkpt lat="45.975736" lon="10.283932"><time>2025-04-28T08:26:54.000Z</time><ele>1297.2</ele></trkpt><trkpt lat="45.975746" lon="10.283929"><time>2025-04-28T08:26:55.000Z</time><ele>1297.2</ele></trkpt><trkpt lat="45.975753" lon="10.283922"><time>2025-04-28T08:26:56.000Z</time><ele>1297.2</ele></trkpt><trkpt lat="45.975763" lon="10.283914"><time>2025-04-28T08:26:57.000Z</time><ele>1297.2</ele></trkpt><trkpt lat="45.975772" lon="10.283909"><time>2025-04-28T08:26:58.000Z</time><ele>1297.2</ele></trkpt><trkpt lat="45.975778" lon="10.283902"><time>2025-04-28T08:26:59.000Z</time><ele>1297.2</ele></trkpt><trkpt lat="45.975785" lon="10.283895"><time>2025-04-28T08:27:00.000Z</time><ele>1297.2</ele></trkpt><trkpt lat="45.975796" lon="10.28389"><time>2025-04-28T08:27:01.000Z</time><ele>1297.2</ele></trkpt><trkpt lat="45.975807" lon="10.283884"><time>2025-04-28T08:27:02.000Z</time><ele>1297</ele></trkpt><trkpt lat="45.975821" lon="10.283875"><time>2025-04-28T08:27:03.000Z</time><ele>1297</ele></trkpt><trkpt lat="45.975834" lon="10.283869"><time>2025-04-28T08:27:04.000Z</time><ele>1297</ele></trkpt><trkpt lat="45.975842" lon="10.283851"><time>2025-04-28T08:27:05.000Z</time><ele>1297</ele></trkpt><trkpt lat="45.97585" lon="10.283831"><time>2025-04-28T08:27:06.000Z</time><ele>1296.8</ele></trkpt><trkpt lat="45.975858" lon="10.283811"><time>2025-04-28T08:27:07.000Z</time><ele>1296.8</ele></trkpt><trkpt lat="45.975866" lon="10.283791"><time>2025-04-28T08:27:08.000Z</time><ele>1296.6</ele></trkpt><trkpt lat="45.975877" lon="10.283775"><time>2025-04-28T08:27:09.000Z</time><ele>1296.6</ele></trkpt><trkpt lat="45.975888" lon="10.283762"><time>2025-04-28T08:27:10.000Z</time><ele>1296.4</ele></trkpt><trkpt lat="45.975903" lon="10.283754"><time>2025-04-28T08:27:11.000Z</time><ele>1296</ele></trkpt><trkpt lat="45.975915" lon="10.283749"><time>2025-04-28T08:27:12.000Z</time><ele>1296</ele></trkpt><trkpt lat="45.975926" lon="10.283745"><time>2025-04-28T08:27:13.000Z</time><ele>1295.6</ele></trkpt><trkpt lat="45.975936" lon="10.283735"><time>2025-04-28T08:27:14.000Z</time><ele>1295.4</ele></trkpt><trkpt lat="45.975949" lon="10.283723"><time>2025-04-28T08:27:15.000Z</time><ele>1295.2</ele></trkpt><trkpt lat="45.97596" lon="10.283712"><time>2025-04-28T08:27:16.000Z</time><ele>1295</ele></trkpt><trkpt lat="45.975968" lon="10.283705"><time>2025-04-28T08:27:17.000Z</time><ele>1294.6</ele></trkpt><trkpt lat="45.975975" lon="10.283696"><time>2025-04-28T08:27:18.000Z</time><ele>1294.4</ele></trkpt><trkpt lat="45.97598" lon="10.283688"><time>2025-04-28T08:27:19.000Z</time><ele>1294.2</ele></trkpt><trkpt lat="45.975985" lon="10.283688"><time>2025-04-28T08:27:20.000Z</time><ele>1293.8</ele></trkpt><trkpt lat="45.97599" lon="10.283685"><time>2025-04-28T08:27:21.000Z</time><ele>1293.6</ele></trkpt><trkpt lat="45.975997" lon="10.283678"><time>2025-04-28T08:27:22.000Z</time><ele>1293.4</ele></trkpt><trkpt lat="45.976007" lon="10.283673"><time>2025-04-28T08:27:23.000Z</time><ele>1293.2</ele></trkpt><trkpt lat="45.97602" lon="10.283667"><time>2025-04-28T08:27:24.000Z</time><ele>1293</ele></trkpt><trkpt lat="45.976026" lon="10.283668"><time>2025-04-28T08:27:25.000Z</time><ele>1292.8</ele></trkpt><trkpt lat="45.976035" lon="10.283668"><time>2025-04-28T08:27:26.000Z</time><ele>1292.2</ele></trkpt><trkpt lat="45.976043" lon="10.283666"><time>2025-04-28T08:27:27.000Z</time><ele>1292</ele></trkpt><trkpt lat="45.976056" lon="10.283674"><time>2025-04-28T08:27:28.000Z</time><ele>1291.8</ele></trkpt><trkpt lat="45.976063" lon="10.28368"><time>2025-04-28T08:27:29.000Z</time><ele>1291.6</ele></trkpt><trkpt lat="45.976075" lon="10.283676"><time>2025-04-28T08:27:30.000Z</time><ele>1291.4</ele></trkpt><trkpt lat="45.97609" lon="10.283674"><time>2025-04-28T08:27:31.000Z</time><ele>1291.2</ele></trkpt><trkpt lat="45.976099" lon="10.28367"><time>2025-04-28T08:27:32.000Z</time><ele>1290.8</ele></trkpt><trkpt lat="45.976093" lon="10.28367"><time>2025-04-28T08:27:33.000Z</time><ele>1290.6</ele></trkpt><trkpt lat="45.976087" lon="10.283668"><time>2025-04-28T08:27:34.000Z</time><ele>1290.2</ele></trkpt><trkpt lat="45.976081" lon="10.283665"><time>2025-04-28T08:27:35.000Z</time><ele>1289.8</ele></trkpt><trkpt lat="45.976084" lon="10.283663"><time>2025-04-28T08:27:36.000Z</time><ele>1289.6</ele></trkpt><trkpt lat="45.97609" lon="10.283663"><time>2025-04-28T08:27:37.000Z</time><ele>1289.4</ele></trkpt><trkpt lat="45.9761" lon="10.28366"><time>2025-04-28T08:27:38.000Z</time><ele>1289.2</ele></trkpt><trkpt lat="45.976108" lon="10.283657"><time>2025-04-28T08:27:39.000Z</time><ele>1288.8</ele></trkpt><trkpt lat="45.976115" lon="10.283649"><time>2025-04-28T08:27:40.000Z</time><ele>1288.6</ele></trkpt><trkpt lat="45.976117" lon="10.283647"><time>2025-04-28T08:27:41.000Z</time><ele>1288.2</ele></trkpt><trkpt lat="45.976116" lon="10.283646"><time>2025-04-28T08:27:42.000Z</time><ele>1287.8</ele></trkpt><trkpt lat="45.976116" lon="10.283652"><time>2025-04-28T08:27:43.000Z</time><ele>1287.6</ele></trkpt><trkpt lat="45.976123" lon="10.283659"><time>2025-04-28T08:27:44.000Z</time><ele>1287.2</ele></trkpt><trkpt lat="45.976127" lon="10.283663"><time>2025-04-28T08:27:45.000Z</time><ele>1286.8</ele></trkpt><trkpt lat="45.976131" lon="10.283671"><time>2025-04-28T08:27:46.000Z</time><ele>1286.6</ele></trkpt><trkpt lat="45.976141" lon="10.283685"><time>2025-04-28T08:27:47.000Z</time><ele>1286.4</ele></trkpt><trkpt lat="45.976158" lon="10.283698"><time>2025-04-28T08:27:48.000Z</time><ele>1286</ele></trkpt><trkpt lat="45.976165" lon="10.283707"><time>2025-04-28T08:27:49.000Z</time><ele>1285.8</ele></trkpt><trkpt lat="45.976177" lon="10.283711"><time>2025-04-28T08:27:50.000Z</time><ele>1285.4</ele></trkpt><trkpt lat="45.976186" lon="10.283714"><time>2025-04-28T08:27:51.000Z</time><ele>1285.2</ele></trkpt><trkpt lat="45.976189" lon="10.28372"><time>2025-04-28T08:27:52.000Z</time><ele>1285</ele></trkpt><trkpt lat="45.976195" lon="10.283719"><time>2025-04-28T08:27:53.000Z</time><ele>1284.8</ele></trkpt><trkpt lat="45.976204" lon="10.283718"><time>2025-04-28T08:27:54.000Z</time><ele>1284.6</ele></trkpt><trkpt lat="45.976213" lon="10.283722"><time>2025-04-28T08:27:55.000Z</time><ele>1284.2</ele></trkpt><trkpt lat="45.976221" lon="10.283732"><time>2025-04-28T08:27:56.000Z</time><ele>1284</ele></trkpt><trkpt lat="45.976225" lon="10.283736"><time>2025-04-28T08:27:57.000Z</time><ele>1283.8</ele></trkpt><trkpt lat="45.976225" lon="10.283739"><time>2025-04-28T08:27:58.000Z</time><ele>1283.6</ele></trkpt><trkpt lat="45.976226" lon="10.283741"><time>2025-04-28T08:27:59.000Z</time><ele>1283.4</ele></trkpt><trkpt lat="45.976236" lon="10.283749"><time>2025-04-28T08:28:00.000Z</time><ele>1283</ele></trkpt><trkpt lat="45.976247" lon="10.283769"><time>2025-04-28T08:28:01.000Z</time><ele>1282.8</ele></trkpt><trkpt lat="45.976247" lon="10.283773"><time>2025-04-28T08:28:02.000Z</time><ele>1282.4</ele></trkpt><trkpt lat="45.976252" lon="10.283782"><time>2025-04-28T08:28:03.000Z</time><ele>1282</ele></trkpt><trkpt lat="45.976257" lon="10.283791"><time>2025-04-28T08:28:04.000Z</time><ele>1281.8</ele></trkpt><trkpt lat="45.976262" lon="10.283798"><time>2025-04-28T08:28:05.000Z</time><ele>1281.6</ele></trkpt><trkpt lat="45.976269" lon="10.283809"><time>2025-04-28T08:28:06.000Z</time><ele>1281.2</ele></trkpt><trkpt lat="45.976278" lon="10.283825"><time>2025-04-28T08:28:07.000Z</time><ele>1280.8</ele></trkpt><trkpt lat="45.976288" lon="10.283832"><time>2025-04-28T08:28:08.000Z</time><ele>1280.6</ele></trkpt><trkpt lat="45.976298" lon="10.283837"><time>2025-04-28T08:28:09.000Z</time><ele>1280.4</ele></trkpt><trkpt lat="45.976304" lon="10.283847"><time>2025-04-28T08:28:10.000Z</time><ele>1280.4</ele></trkpt><trkpt lat="45.976314" lon="10.283857"><time>2025-04-28T08:28:11.000Z</time><ele>1280</ele></trkpt><trkpt lat="45.976323" lon="10.28387"><time>2025-04-28T08:28:12.000Z</time><ele>1279.8</ele></trkpt><trkpt lat="45.976331" lon="10.283883"><time>2025-04-28T08:28:13.000Z</time><ele>1279.8</ele></trkpt><trkpt lat="45.976335" lon="10.283896"><time>2025-04-28T08:28:14.000Z</time><ele>1279.6</ele></trkpt><trkpt lat="45.976345" lon="10.283903"><time>2025-04-28T08:28:15.000Z</time><ele>1279.4</ele></trkpt><trkpt lat="45.97636" lon="10.283907"><time>2025-04-28T08:28:16.000Z</time><ele>1279.2</ele></trkpt><trkpt lat="45.976372" lon="10.28392"><time>2025-04-28T08:28:17.000Z</time><ele>1279</ele></trkpt><trkpt lat="45.976381" lon="10.28394"><time>2025-04-28T08:28:18.000Z</time><ele>1278.8</ele></trkpt><trkpt lat="45.976389" lon="10.283956"><time>2025-04-28T08:28:19.000Z</time><ele>1278.6</ele></trkpt><trkpt lat="45.976405" lon="10.283966"><time>2025-04-28T08:28:20.000Z</time><ele>1278.6</ele></trkpt><trkpt lat="45.976419" lon="10.283988"><time>2025-04-28T08:28:21.000Z</time><ele>1278.4</ele></trkpt><trkpt lat="45.976427" lon="10.284007"><time>2025-04-28T08:28:22.000Z</time><ele>1278.4</ele></trkpt><trkpt lat="45.976428" lon="10.284029"><time>2025-04-28T08:28:23.000Z</time><ele>1278.2</ele></trkpt><trkpt lat="45.976428" lon="10.284049"><time>2025-04-28T08:28:24.000Z</time><ele>1278.2</ele></trkpt><trkpt lat="45.976432" lon="10.284069"><time>2025-04-28T08:28:25.000Z</time><ele>1278</ele></trkpt><trkpt lat="45.97644" lon="10.284084"><time>2025-04-28T08:28:26.000Z</time><ele>1278</ele></trkpt><trkpt lat="45.976446" lon="10.284098"><time>2025-04-28T08:28:27.000Z</time><ele>1277.8</ele></trkpt><trkpt lat="45.976456" lon="10.284105"><time>2025-04-28T08:28:28.000Z</time><ele>1277.4</ele></trkpt><trkpt lat="45.976465" lon="10.284121"><time>2025-04-28T08:28:29.000Z</time><ele>1277.2</ele></trkpt><trkpt lat="45.976476" lon="10.284139"><time>2025-04-28T08:28:30.000Z</time><ele>1277</ele></trkpt><trkpt lat="45.976479" lon="10.284144"><time>2025-04-28T08:28:31.000Z</time><ele>1276.8</ele></trkpt><trkpt lat="45.976482" lon="10.284157"><time>2025-04-28T08:28:32.000Z</time><ele>1276.6</ele></trkpt><trkpt lat="45.976489" lon="10.284167"><time>2025-04-28T08:28:33.000Z</time><ele>1276.4</ele></trkpt><trkpt lat="45.97649" lon="10.28418"><time>2025-04-28T08:28:34.000Z</time><ele>1276.4</ele></trkpt><trkpt lat="45.976493" lon="10.284182"><time>2025-04-28T08:28:35.000Z</time><ele>1276.2</ele></trkpt><trkpt lat="45.976495" lon="10.284182"><time>2025-04-28T08:28:36.000Z</time><ele>1276.2</ele></trkpt><trkpt lat="45.976495" lon="10.284182"><time>2025-04-28T08:28:37.000Z</time><ele>1276.2</ele></trkpt><trkpt lat="45.976496" lon="10.284183"><time>2025-04-28T08:28:38.000Z</time><ele>1276.2</ele></trkpt><trkpt lat="45.976497" lon="10.284182"><time>2025-04-28T08:28:39.000Z</time><ele>1276.2</ele></trkpt><trkpt lat="45.976496" lon="10.284178"><time>2025-04-28T08:28:40.000Z</time><ele>1276.2</ele></trkpt><trkpt lat="45.976497" lon="10.284178"><time>2025-04-28T08:28:41.000Z</time><ele>1276.2</ele></trkpt><trkpt lat="45.976499" lon="10.284183"><time>2025-04-28T08:28:42.000Z</time><ele>1276</ele></trkpt><trkpt lat="45.97651" lon="10.284188"><time>2025-04-28T08:28:43.000Z</time><ele>1275.8</ele></trkpt><trkpt lat="45.976519" lon="10.284193"><time>2025-04-28T08:28:44.000Z</time><ele>1275.6</ele></trkpt><trkpt lat="45.97653" lon="10.284199"><time>2025-04-28T08:28:45.000Z</time><ele>1275.4</ele></trkpt><trkpt lat="45.976539" lon="10.2842"><time>2025-04-28T08:28:46.000Z</time><ele>1275.2</ele></trkpt><trkpt lat="45.976549" lon="10.284199"><time>2025-04-28T08:28:47.000Z</time><ele>1275</ele></trkpt><trkpt lat="45.976557" lon="10.284203"><time>2025-04-28T08:28:48.000Z</time><ele>1274.8</ele></trkpt><trkpt lat="45.976566" lon="10.284207"><time>2025-04-28T08:28:49.000Z</time><ele>1274.4</ele></trkpt><trkpt lat="45.976574" lon="10.284214"><time>2025-04-28T08:28:50.000Z</time><ele>1274.2</ele></trkpt><trkpt lat="45.976584" lon="10.284219"><time>2025-04-28T08:28:51.000Z</time><ele>1274</ele></trkpt><trkpt lat="45.976591" lon="10.284222"><time>2025-04-28T08:28:52.000Z</time><ele>1273.6</ele></trkpt><trkpt lat="45.976595" lon="10.284226"><time>2025-04-28T08:28:53.000Z</time><ele>1273.4</ele></trkpt><trkpt lat="45.9766" lon="10.284234"><time>2025-04-28T08:28:54.000Z</time><ele>1273.2</ele></trkpt><trkpt lat="45.976607" lon="10.284237"><time>2025-04-28T08:28:55.000Z</time><ele>1273</ele></trkpt><trkpt lat="45.976617" lon="10.284237"><time>2025-04-28T08:28:56.000Z</time><ele>1272.6</ele></trkpt><trkpt lat="45.976633" lon="10.284236"><time>2025-04-28T08:28:57.000Z</time><ele>1272.4</ele></trkpt><trkpt lat="45.976649" lon="10.284234"><time>2025-04-28T08:28:58.000Z</time><ele>1272.2</ele></trkpt><trkpt lat="45.976663" lon="10.284238"><time>2025-04-28T08:28:59.000Z</time><ele>1271.8</ele></trkpt><trkpt lat="45.976675" lon="10.284243"><time>2025-04-28T08:29:00.000Z</time><ele>1271.6</ele></trkpt><trkpt lat="45.976689" lon="10.284251"><time>2025-04-28T08:29:01.000Z</time><ele>1271.2</ele></trkpt><trkpt lat="45.976707" lon="10.284255"><time>2025-04-28T08:29:02.000Z</time><ele>1271.2</ele></trkpt><trkpt lat="45.976721" lon="10.284264"><time>2025-04-28T08:29:03.000Z</time><ele>1270.8</ele></trkpt><trkpt lat="45.976733" lon="10.284277"><time>2025-04-28T08:29:04.000Z</time><ele>1270.4</ele></trkpt><trkpt lat="45.976746" lon="10.284284"><time>2025-04-28T08:29:05.000Z</time><ele>1270</ele></trkpt><trkpt lat="45.976761" lon="10.284281"><time>2025-04-28T08:29:06.000Z</time><ele>1269.8</ele></trkpt><trkpt lat="45.976781" lon="10.284266"><time>2025-04-28T08:29:07.000Z</time><ele>1269.6</ele></trkpt><trkpt lat="45.976795" lon="10.284272"><time>2025-04-28T08:29:08.000Z</time><ele>1269.6</ele></trkpt><trkpt lat="45.97681" lon="10.28428"><time>2025-04-28T08:29:09.000Z</time><ele>1269.4</ele></trkpt><trkpt lat="45.976823" lon="10.28428"><time>2025-04-28T08:29:10.000Z</time><ele>1269.2</ele></trkpt><trkpt lat="45.976828" lon="10.284278"><time>2025-04-28T08:29:11.000Z</time><ele>1269.2</ele></trkpt><trkpt lat="45.976828" lon="10.284277"><time>2025-04-28T08:29:12.000Z</time><ele>1269</ele></trkpt><trkpt lat="45.976836" lon="10.284268"><time>2025-04-28T08:29:13.000Z</time><ele>1268.8</ele></trkpt><trkpt lat="45.976844" lon="10.284264"><time>2025-04-28T08:29:14.000Z</time><ele>1268.8</ele></trkpt><trkpt lat="45.976851" lon="10.284259"><time>2025-04-28T08:29:15.000Z</time><ele>1268.4</ele></trkpt><trkpt lat="45.976857" lon="10.284256"><time>2025-04-28T08:29:16.000Z</time><ele>1268.2</ele></trkpt><trkpt lat="45.976866" lon="10.284255"><time>2025-04-28T08:29:17.000Z</time><ele>1268</ele></trkpt><trkpt lat="45.976874" lon="10.284252"><time>2025-04-28T08:29:18.000Z</time><ele>1267.8</ele></trkpt><trkpt lat="45.976878" lon="10.284246"><time>2025-04-28T08:29:19.000Z</time><ele>1267.6</ele></trkpt><trkpt lat="45.976882" lon="10.284242"><time>2025-04-28T08:29:20.000Z</time><ele>1267.4</ele></trkpt><trkpt lat="45.976894" lon="10.284243"><time>2025-04-28T08:29:21.000Z</time><ele>1267</ele></trkpt><trkpt lat="45.976904" lon="10.284248"><time>2025-04-28T08:29:22.000Z</time><ele>1266.8</ele></trkpt><trkpt lat="45.976905" lon="10.284252"><time>2025-04-28T08:29:23.000Z</time><ele>1266.6</ele></trkpt><trkpt lat="45.976916" lon="10.284263"><time>2025-04-28T08:29:24.000Z</time><ele>1266.4</ele></trkpt><trkpt lat="45.97693" lon="10.284271"><time>2025-04-28T08:29:25.000Z</time><ele>1266.2</ele></trkpt><trkpt lat="45.976945" lon="10.284279"><time>2025-04-28T08:29:26.000Z</time><ele>1265.8</ele></trkpt><trkpt lat="45.976962" lon="10.284289"><time>2025-04-28T08:29:27.000Z</time><ele>1265.6</ele></trkpt><trkpt lat="45.976977" lon="10.284297"><time>2025-04-28T08:29:28.000Z</time><ele>1265.4</ele></trkpt><trkpt lat="45.976978" lon="10.284298"><time>2025-04-28T08:29:29.000Z</time><ele>1265.2</ele></trkpt><trkpt lat="45.976981" lon="10.2843"><time>2025-04-28T08:29:30.000Z</time><ele>1265.2</ele></trkpt><trkpt lat="45.976986" lon="10.284304"><time>2025-04-28T08:29:31.000Z</time><ele>1265</ele></trkpt><trkpt lat="45.97699" lon="10.284314"><time>2025-04-28T08:29:32.000Z</time><ele>1265</ele></trkpt><trkpt lat="45.97699" lon="10.284331"><time>2025-04-28T08:29:33.000Z</time><ele>1265</ele></trkpt><trkpt lat="45.976994" lon="10.284346"><time>2025-04-28T08:29:34.000Z</time><ele>1264.8</ele></trkpt><trkpt lat="45.977002" lon="10.284369"><time>2025-04-28T08:29:35.000Z</time><ele>1264.8</ele></trkpt><trkpt lat="45.977013" lon="10.284386"><time>2025-04-28T08:29:36.000Z</time><ele>1264.8</ele></trkpt><trkpt lat="45.977021" lon="10.284404"><time>2025-04-28T08:29:37.000Z</time><ele>1264.8</ele></trkpt><trkpt lat="45.977025" lon="10.284424"><time>2025-04-28T08:29:38.000Z</time><ele>1264.8</ele></trkpt><trkpt lat="45.977032" lon="10.284445"><time>2025-04-28T08:29:39.000Z</time><ele>1264.8</ele></trkpt><trkpt lat="45.977041" lon="10.284464"><time>2025-04-28T08:29:40.000Z</time><ele>1264.6</ele></trkpt><trkpt lat="45.97705" lon="10.284478"><time>2025-04-28T08:29:41.000Z</time><ele>1264.6</ele></trkpt><trkpt lat="45.977057" lon="10.284491"><time>2025-04-28T08:29:42.000Z</time><ele>1264.6</ele></trkpt><trkpt lat="45.977063" lon="10.2845"><time>2025-04-28T08:29:43.000Z</time><ele>1264.6</ele></trkpt><trkpt lat="45.97707" lon="10.284509"><time>2025-04-28T08:29:44.000Z</time><ele>1264.8</ele></trkpt><trkpt lat="45.977079" lon="10.284518"><time>2025-04-28T08:29:45.000Z</time><ele>1264.8</ele></trkpt><trkpt lat="45.977089" lon="10.284533"><time>2025-04-28T08:29:46.000Z</time><ele>1264.8</ele></trkpt><trkpt lat="45.977098" lon="10.284549"><time>2025-04-28T08:29:47.000Z</time><ele>1264.8</ele></trkpt><trkpt lat="45.977106" lon="10.284567"><time>2025-04-28T08:29:48.000Z</time><ele>1264.8</ele></trkpt><trkpt lat="45.977114" lon="10.284592"><time>2025-04-28T08:29:49.000Z</time><ele>1265</ele></trkpt><trkpt lat="45.977123" lon="10.284615"><time>2025-04-28T08:29:50.000Z</time><ele>1265</ele></trkpt><trkpt lat="45.977135" lon="10.284636"><time>2025-04-28T08:29:51.000Z</time><ele>1264.8</ele></trkpt><trkpt lat="45.977143" lon="10.284655"><time>2025-04-28T08:29:52.000Z</time><ele>1264.6</ele></trkpt><trkpt lat="45.977152" lon="10.284669"><time>2025-04-28T08:29:53.000Z</time><ele>1264.6</ele></trkpt><trkpt lat="45.97716" lon="10.28468"><time>2025-04-28T08:29:54.000Z</time><ele>1264.6</ele></trkpt><trkpt lat="45.977165" lon="10.284692"><time>2025-04-28T08:29:55.000Z</time><ele>1264.6</ele></trkpt><trkpt lat="45.97717" lon="10.284704"><time>2025-04-28T08:29:56.000Z</time><ele>1264.6</ele></trkpt><trkpt lat="45.977175" lon="10.284719"><time>2025-04-28T08:29:57.000Z</time><ele>1264.6</ele></trkpt><trkpt lat="45.97718" lon="10.284737"><time>2025-04-28T08:29:58.000Z</time><ele>1264.6</ele></trkpt><trkpt lat="45.977186" lon="10.28475"><time>2025-04-28T08:29:59.000Z</time><ele>1264.6</ele></trkpt><trkpt lat="45.977195" lon="10.284762"><time>2025-04-28T08:30:00.000Z</time><ele>1264.6</ele></trkpt><trkpt lat="45.977205" lon="10.284778"><time>2025-04-28T08:30:01.000Z</time><ele>1264.6</ele></trkpt><trkpt lat="45.977217" lon="10.284798"><time>2025-04-28T08:30:02.000Z</time><ele>1264.6</ele></trkpt><trkpt lat="45.977229" lon="10.284817"><time>2025-04-28T08:30:03.000Z</time><ele>1264.6</ele></trkpt><trkpt lat="45.977238" lon="10.284837"><time>2025-04-28T08:30:04.000Z</time><ele>1264.6</ele></trkpt><trkpt lat="45.977245" lon="10.284856"><time>2025-04-28T08:30:05.000Z</time><ele>1264.6</ele></trkpt><trkpt lat="45.977255" lon="10.284873"><time>2025-04-28T08:30:06.000Z</time><ele>1264.6</ele></trkpt><trkpt lat="45.977264" lon="10.284888"><time>2025-04-28T08:30:07.000Z</time><ele>1264.6</ele></trkpt><trkpt lat="45.977273" lon="10.284905"><time>2025-04-28T08:30:08.000Z</time><ele>1264.6</ele></trkpt><trkpt lat="45.977283" lon="10.284915"><time>2025-04-28T08:30:09.000Z</time><ele>1264.6</ele></trkpt><trkpt lat="45.977291" lon="10.284931"><time>2025-04-28T08:30:10.000Z</time><ele>1264.6</ele></trkpt><trkpt lat="45.977299" lon="10.284947"><time>2025-04-28T08:30:11.000Z</time><ele>1264.6</ele></trkpt><trkpt lat="45.977308" lon="10.284961"><time>2025-04-28T08:30:12.000Z</time><ele>1264.6</ele></trkpt><trkpt lat="45.977317" lon="10.284975"><time>2025-04-28T08:30:13.000Z</time><ele>1264.6</ele></trkpt><trkpt lat="45.977324" lon="10.284994"><time>2025-04-28T08:30:14.000Z</time><ele>1264.6</ele></trkpt><trkpt lat="45.977332" lon="10.285013"><time>2025-04-28T08:30:15.000Z</time><ele>1264.6</ele></trkpt><trkpt lat="45.977341" lon="10.285031"><time>2025-04-28T08:30:16.000Z</time><ele>1264.6</ele></trkpt><trkpt lat="45.977346" lon="10.285047"><time>2025-04-28T08:30:17.000Z</time><ele>1264.4</ele></trkpt><trkpt lat="45.977351" lon="10.285063"><time>2025-04-28T08:30:18.000Z</time><ele>1264.4</ele></trkpt><trkpt lat="45.977356" lon="10.285074"><time>2025-04-28T08:30:19.000Z</time><ele>1264.4</ele></trkpt><trkpt lat="45.977366" lon="10.285087"><time>2025-04-28T08:30:20.000Z</time><ele>1264.4</ele></trkpt><trkpt lat="45.977374" lon="10.285102"><time>2025-04-28T08:30:21.000Z</time><ele>1264.4</ele></trkpt><trkpt lat="45.97738" lon="10.285115"><time>2025-04-28T08:30:22.000Z</time><ele>1264.4</ele></trkpt><trkpt lat="45.977389" lon="10.285133"><time>2025-04-28T08:30:23.000Z</time><ele>1264.4</ele></trkpt><trkpt lat="45.977397" lon="10.28515"><time>2025-04-28T08:30:24.000Z</time><ele>1264.4</ele></trkpt><trkpt lat="45.977409" lon="10.285164"><time>2025-04-28T08:30:25.000Z</time><ele>1264.4</ele></trkpt><trkpt lat="45.977418" lon="10.285176"><time>2025-04-28T08:30:26.000Z</time><ele>1264.2</ele></trkpt><trkpt lat="45.977424" lon="10.28519"><time>2025-04-28T08:30:27.000Z</time><ele>1264.2</ele></trkpt><trkpt lat="45.977431" lon="10.285203"><time>2025-04-28T08:30:28.000Z</time><ele>1264.2</ele></trkpt><trkpt lat="45.977441" lon="10.285217"><time>2025-04-28T08:30:29.000Z</time><ele>1264.2</ele></trkpt><trkpt lat="45.97745" lon="10.285231"><time>2025-04-28T08:30:30.000Z</time><ele>1264.4</ele></trkpt><trkpt lat="45.977459" lon="10.285244"><time>2025-04-28T08:30:31.000Z</time><ele>1264.4</ele></trkpt><trkpt lat="45.977468" lon="10.285258"><time>2025-04-28T08:30:32.000Z</time><ele>1264.4</ele></trkpt><trkpt lat="45.977478" lon="10.285271"><time>2025-04-28T08:30:33.000Z</time><ele>1264.4</ele></trkpt><trkpt lat="45.977488" lon="10.285284"><time>2025-04-28T08:30:34.000Z</time><ele>1264.6</ele></trkpt><trkpt lat="45.977498" lon="10.285294"><time>2025-04-28T08:30:35.000Z</time><ele>1264.6</ele></trkpt><trkpt lat="45.977509" lon="10.285304"><time>2025-04-28T08:30:36.000Z</time><ele>1264.8</ele></trkpt><trkpt lat="45.977521" lon="10.285311"><time>2025-04-28T08:30:37.000Z</time><ele>1264.8</ele></trkpt><trkpt lat="45.977533" lon="10.285322"><time>2025-04-28T08:30:38.000Z</time><ele>1264.8</ele></trkpt><trkpt lat="45.977543" lon="10.285333"><time>2025-04-28T08:30:39.000Z</time><ele>1265</ele></trkpt><trkpt lat="45.977554" lon="10.285349"><time>2025-04-28T08:30:40.000Z</time><ele>1264.8</ele></trkpt><trkpt lat="45.97756" lon="10.285361"><time>2025-04-28T08:30:41.000Z</time><ele>1264.8</ele></trkpt><trkpt lat="45.97757" lon="10.285372"><time>2025-04-28T08:30:42.000Z</time><ele>1264.8</ele></trkpt><trkpt lat="45.977578" lon="10.285383"><time>2025-04-28T08:30:43.000Z</time><ele>1264.8</ele></trkpt><trkpt lat="45.977589" lon="10.285394"><time>2025-04-28T08:30:44.000Z</time><ele>1264.8</ele></trkpt><trkpt lat="45.9776" lon="10.285409"><time>2025-04-28T08:30:45.000Z</time><ele>1265</ele></trkpt><trkpt lat="45.977608" lon="10.285419"><time>2025-04-28T08:30:46.000Z</time><ele>1265.2</ele></trkpt><trkpt lat="45.977617" lon="10.28543"><time>2025-04-28T08:30:47.000Z</time><ele>1265.2</ele></trkpt><trkpt lat="45.977626" lon="10.28544"><time>2025-04-28T08:30:48.000Z</time><ele>1265.2</ele></trkpt><trkpt lat="45.977637" lon="10.28545"><time>2025-04-28T08:30:49.000Z</time><ele>1265.4</ele></trkpt><trkpt lat="45.977646" lon="10.28546"><time>2025-04-28T08:30:50.000Z</time><ele>1265.4</ele></trkpt><trkpt lat="45.977653" lon="10.285468"><time>2025-04-28T08:30:51.000Z</time><ele>1265.4</ele></trkpt><trkpt lat="45.977665" lon="10.285476"><time>2025-04-28T08:30:52.000Z</time><ele>1265.4</ele></trkpt><trkpt lat="45.977675" lon="10.285488"><time>2025-04-28T08:30:53.000Z</time><ele>1265.4</ele></trkpt><trkpt lat="45.977683" lon="10.285496"><time>2025-04-28T08:30:54.000Z</time><ele>1265.4</ele></trkpt><trkpt lat="45.977692" lon="10.285506"><time>2025-04-28T08:30:55.000Z</time><ele>1265.4</ele></trkpt><trkpt lat="45.977703" lon="10.285518"><time>2025-04-28T08:30:56.000Z</time><ele>1265.4</ele></trkpt><trkpt lat="45.977712" lon="10.285529"><time>2025-04-28T08:30:57.000Z</time><ele>1265.6</ele></trkpt><trkpt lat="45.977722" lon="10.285538"><time>2025-04-28T08:30:58.000Z</time><ele>1265.6</ele></trkpt><trkpt lat="45.977733" lon="10.285549"><time>2025-04-28T08:30:59.000Z</time><ele>1265.6</ele></trkpt><trkpt lat="45.977743" lon="10.285556"><time>2025-04-28T08:31:00.000Z</time><ele>1265.6</ele></trkpt><trkpt lat="45.977755" lon="10.285563"><time>2025-04-28T08:31:01.000Z</time><ele>1265.8</ele></trkpt><trkpt lat="45.977766" lon="10.285572"><time>2025-04-28T08:31:02.000Z</time><ele>1265.8</ele></trkpt><trkpt lat="45.977777" lon="10.285579"><time>2025-04-28T08:31:03.000Z</time><ele>1265.8</ele></trkpt><trkpt lat="45.977789" lon="10.285588"><time>2025-04-28T08:31:04.000Z</time><ele>1265.8</ele></trkpt><trkpt lat="45.9778" lon="10.285593"><time>2025-04-28T08:31:05.000Z</time><ele>1266</ele></trkpt><trkpt lat="45.977809" lon="10.285599"><time>2025-04-28T08:31:06.000Z</time><ele>1266</ele></trkpt><trkpt lat="45.977821" lon="10.285604"><time>2025-04-28T08:31:07.000Z</time><ele>1266.2</ele></trkpt><trkpt lat="45.977831" lon="10.285609"><time>2025-04-28T08:31:08.000Z</time><ele>1266.2</ele></trkpt><trkpt lat="45.977842" lon="10.285614"><time>2025-04-28T08:31:09.000Z</time><ele>1266.2</ele></trkpt><trkpt lat="45.977852" lon="10.285621"><time>2025-04-28T08:31:10.000Z</time><ele>1266.4</ele></trkpt><trkpt lat="45.977863" lon="10.285629"><time>2025-04-28T08:31:11.000Z</time><ele>1266.4</ele></trkpt><trkpt lat="45.977871" lon="10.285634"><time>2025-04-28T08:31:12.000Z</time><ele>1266.4</ele></trkpt><trkpt lat="45.97788" lon="10.285638"><time>2025-04-28T08:31:13.000Z</time><ele>1266.4</ele></trkpt><trkpt lat="45.977893" lon="10.285644"><time>2025-04-28T08:31:14.000Z</time><ele>1266.4</ele></trkpt><trkpt lat="45.977901" lon="10.285646"><time>2025-04-28T08:31:15.000Z</time><ele>1266.4</ele></trkpt><trkpt lat="45.977912" lon="10.285648"><time>2025-04-28T08:31:16.000Z</time><ele>1266.2</ele></trkpt><trkpt lat="45.977927" lon="10.28565"><time>2025-04-28T08:31:17.000Z</time><ele>1266.2</ele></trkpt><trkpt lat="45.977944" lon="10.285653"><time>2025-04-28T08:31:18.000Z</time><ele>1266.2</ele></trkpt><trkpt lat="45.977957" lon="10.28566"><time>2025-04-28T08:31:19.000Z</time><ele>1266.2</ele></trkpt><trkpt lat="45.977964" lon="10.285662"><time>2025-04-28T08:31:20.000Z</time><ele>1266</ele></trkpt><trkpt lat="45.977968" lon="10.285663"><time>2025-04-28T08:31:21.000Z</time><ele>1266</ele></trkpt><trkpt lat="45.97797" lon="10.285666"><time>2025-04-28T08:31:22.000Z</time><ele>1266</ele></trkpt><trkpt lat="45.977971" lon="10.285669"><time>2025-04-28T08:31:23.000Z</time><ele>1266</ele></trkpt><trkpt lat="45.977979" lon="10.285673"><time>2025-04-28T08:31:24.000Z</time><ele>1265.6</ele></trkpt><trkpt lat="45.97799" lon="10.285677"><time>2025-04-28T08:31:25.000Z</time><ele>1265.4</ele></trkpt><trkpt lat="45.978007" lon="10.285681"><time>2025-04-28T08:31:26.000Z</time><ele>1265.2</ele></trkpt><trkpt lat="45.978024" lon="10.285686"><time>2025-04-28T08:31:27.000Z</time><ele>1265.2</ele></trkpt><trkpt lat="45.978041" lon="10.285689"><time>2025-04-28T08:31:28.000Z</time><ele>1265</ele></trkpt><trkpt lat="45.978058" lon="10.28569"><time>2025-04-28T08:31:29.000Z</time><ele>1265</ele></trkpt><trkpt lat="45.97807" lon="10.285695"><time>2025-04-28T08:31:30.000Z</time><ele>1264.8</ele></trkpt><trkpt lat="45.978083" lon="10.2857"><time>2025-04-28T08:31:31.000Z</time><ele>1264.8</ele></trkpt><trkpt lat="45.978097" lon="10.285706"><time>2025-04-28T08:31:32.000Z</time><ele>1264.6</ele></trkpt><trkpt lat="45.978107" lon="10.285712"><time>2025-04-28T08:31:33.000Z</time><ele>1264.6</ele></trkpt><trkpt lat="45.978116" lon="10.285719"><time>2025-04-28T08:31:34.000Z</time><ele>1264.6</ele></trkpt><trkpt lat="45.97813" lon="10.285725"><time>2025-04-28T08:31:35.000Z</time><ele>1264.6</ele></trkpt><trkpt lat="45.978145" lon="10.285728"><time>2025-04-28T08:31:36.000Z</time><ele>1264.6</ele></trkpt><trkpt lat="45.978153" lon="10.285736"><time>2025-04-28T08:31:37.000Z</time><ele>1264.6</ele></trkpt><trkpt lat="45.978161" lon="10.285747"><time>2025-04-28T08:31:38.000Z</time><ele>1264.6</ele></trkpt><trkpt lat="45.978162" lon="10.285766"><time>2025-04-28T08:31:39.000Z</time><ele>1264.6</ele></trkpt><trkpt lat="45.978157" lon="10.285785"><time>2025-04-28T08:31:40.000Z</time><ele>1264.6</ele></trkpt><trkpt lat="45.978166" lon="10.285798"><time>2025-04-28T08:31:41.000Z</time><ele>1264.6</ele></trkpt><trkpt lat="45.978177" lon="10.285809"><time>2025-04-28T08:31:42.000Z</time><ele>1264.6</ele></trkpt><trkpt lat="45.978188" lon="10.28582"><time>2025-04-28T08:31:43.000Z</time><ele>1264.6</ele></trkpt><trkpt lat="45.978199" lon="10.285834"><time>2025-04-28T08:31:44.000Z</time><ele>1264.6</ele></trkpt><trkpt lat="45.978211" lon="10.285851"><time>2025-04-28T08:31:45.000Z</time><ele>1264.6</ele></trkpt><trkpt lat="45.97822" lon="10.285863"><time>2025-04-28T08:31:46.000Z</time><ele>1264.4</ele></trkpt><trkpt lat="45.978226" lon="10.285872"><time>2025-04-28T08:31:47.000Z</time><ele>1264.2</ele></trkpt><trkpt lat="45.978238" lon="10.285883"><time>2025-04-28T08:31:48.000Z</time><ele>1264.2</ele></trkpt><trkpt lat="45.978246" lon="10.285886"><time>2025-04-28T08:31:49.000Z</time><ele>1264</ele></trkpt><trkpt lat="45.978254" lon="10.285892"><time>2025-04-28T08:31:50.000Z</time><ele>1263.8</ele></trkpt><trkpt lat="45.978258" lon="10.285908"><time>2025-04-28T08:31:51.000Z</time><ele>1263.8</ele></trkpt><trkpt lat="45.978268" lon="10.285926"><time>2025-04-28T08:31:52.000Z</time><ele>1263.6</ele></trkpt><trkpt lat="45.978281" lon="10.285944"><time>2025-04-28T08:31:53.000Z</time><ele>1263.6</ele></trkpt><trkpt lat="45.978296" lon="10.285964"><time>2025-04-28T08:31:54.000Z</time><ele>1263.6</ele></trkpt><trkpt lat="45.978309" lon="10.285974"><time>2025-04-28T08:31:55.000Z</time><ele>1263.6</ele></trkpt><trkpt lat="45.97832" lon="10.285976"><time>2025-04-28T08:31:56.000Z</time><ele>1263.6</ele></trkpt><trkpt lat="45.978321" lon="10.28599"><time>2025-04-28T08:31:57.000Z</time><ele>1263.6</ele></trkpt><trkpt lat="45.978325" lon="10.286006"><time>2025-04-28T08:31:58.000Z</time><ele>1263.6</ele></trkpt><trkpt lat="45.978337" lon="10.286013"><time>2025-04-28T08:31:59.000Z</time><ele>1263.6</ele></trkpt><trkpt lat="45.978348" lon="10.286022"><time>2025-04-28T08:32:00.000Z</time><ele>1263.6</ele></trkpt><trkpt lat="45.97836" lon="10.286029"><time>2025-04-28T08:32:01.000Z</time><ele>1263.6</ele></trkpt><trkpt lat="45.978369" lon="10.286039"><time>2025-04-28T08:32:02.000Z</time><ele>1263.4</ele></trkpt><trkpt lat="45.978377" lon="10.286049"><time>2025-04-28T08:32:03.000Z</time><ele>1263.4</ele></trkpt><trkpt lat="45.978393" lon="10.286058"><time>2025-04-28T08:32:04.000Z</time><ele>1263.2</ele></trkpt><trkpt lat="45.978405" lon="10.286059"><time>2025-04-28T08:32:05.000Z</time><ele>1263.2</ele></trkpt><trkpt lat="45.978413" lon="10.286056"><time>2025-04-28T08:32:06.000Z</time><ele>1263</ele></trkpt><trkpt lat="45.978418" lon="10.286061"><time>2025-04-28T08:32:07.000Z</time><ele>1263</ele></trkpt><trkpt lat="45.978417" lon="10.286065"><time>2025-04-28T08:32:08.000Z</time><ele>1262.8</ele></trkpt><trkpt lat="45.978417" lon="10.286068"><time>2025-04-28T08:32:09.000Z</time><ele>1262.8</ele></trkpt><trkpt lat="45.978414" lon="10.286066"><time>2025-04-28T08:32:10.000Z</time><ele>1262.8</ele></trkpt><trkpt lat="45.978412" lon="10.286066"><time>2025-04-28T08:32:11.000Z</time><ele>1262.8</ele></trkpt><trkpt lat="45.97841" lon="10.286067"><time>2025-04-28T08:32:12.000Z</time><ele>1262.8</ele></trkpt><trkpt lat="45.978408" lon="10.286068"><time>2025-04-28T08:32:13.000Z</time><ele>1262.8</ele></trkpt><trkpt lat="45.978407" lon="10.286067"><time>2025-04-28T08:32:14.000Z</time><ele>1262.8</ele></trkpt><trkpt lat="45.978407" lon="10.286065"><time>2025-04-28T08:32:15.000Z</time><ele>1262.8</ele></trkpt><trkpt lat="45.978407" lon="10.286065"><time>2025-04-28T08:32:16.000Z</time><ele>1262.8</ele></trkpt><trkpt lat="45.978402" lon="10.286056"><time>2025-04-28T08:32:17.000Z</time><ele>1262.8</ele></trkpt><trkpt lat="45.978398" lon="10.286054"><time>2025-04-28T08:32:18.000Z</time><ele>1262.8</ele></trkpt><trkpt lat="45.978396" lon="10.286053"><time>2025-04-28T08:32:19.000Z</time><ele>1262.8</ele></trkpt><trkpt lat="45.978395" lon="10.286053"><time>2025-04-28T08:32:20.000Z</time><ele>1262.8</ele></trkpt><trkpt lat="45.978395" lon="10.286053"><time>2025-04-28T08:32:21.000Z</time><ele>1262.8</ele></trkpt><trkpt lat="45.978395" lon="10.286053"><time>2025-04-28T08:32:22.000Z</time><ele>1263</ele></trkpt><trkpt lat="45.978395" lon="10.286053"><time>2025-04-28T08:32:23.000Z</time><ele>1263</ele></trkpt><trkpt lat="45.978395" lon="10.286053"><time>2025-04-28T08:32:24.000Z</time><ele>1263.2</ele></trkpt><trkpt lat="45.978399" lon="10.286052"><time>2025-04-28T08:32:25.000Z</time><ele>1263.2</ele></trkpt><trkpt lat="45.978421" lon="10.286052"><time>2025-04-28T08:32:26.000Z</time><ele>1263.2</ele></trkpt><trkpt lat="45.978438" lon="10.286052"><time>2025-04-28T08:32:27.000Z</time><ele>1263.4</ele></trkpt><trkpt lat="45.978455" lon="10.286046"><time>2025-04-28T08:32:28.000Z</time><ele>1263.4</ele></trkpt><trkpt lat="45.978471" lon="10.286038"><time>2025-04-28T08:32:29.000Z</time><ele>1263.6</ele></trkpt><trkpt lat="45.978487" lon="10.28603"><time>2025-04-28T08:32:30.000Z</time><ele>1263.6</ele></trkpt><trkpt lat="45.9785" lon="10.286022"><time>2025-04-28T08:32:31.000Z</time><ele>1263.8</ele></trkpt><trkpt lat="45.978513" lon="10.286019"><time>2025-04-28T08:32:32.000Z</time><ele>1264</ele></trkpt><trkpt lat="45.978529" lon="10.286005"><time>2025-04-28T08:32:33.000Z</time><ele>1264</ele></trkpt><trkpt lat="45.978538" lon="10.286002"><time>2025-04-28T08:32:34.000Z</time><ele>1264.2</ele></trkpt><trkpt lat="45.978542" lon="10.286"><time>2025-04-28T08:32:35.000Z</time><ele>1264.4</ele></trkpt><trkpt lat="45.978544" lon="10.285999"><time>2025-04-28T08:32:36.000Z</time><ele>1264.4</ele></trkpt><trkpt lat="45.978545" lon="10.285997"><time>2025-04-28T08:32:37.000Z</time><ele>1264.4</ele></trkpt><trkpt lat="45.978546" lon="10.285997"><time>2025-04-28T08:32:38.000Z</time><ele>1264.4</ele></trkpt><trkpt lat="45.978544" lon="10.285998"><time>2025-04-28T08:32:39.000Z</time><ele>1264.4</ele></trkpt><trkpt lat="45.978544" lon="10.285995"><time>2025-04-28T08:32:40.000Z</time><ele>1264.4</ele></trkpt><trkpt lat="45.978539" lon="10.285993"><time>2025-04-28T08:32:41.000Z</time><ele>1264.4</ele></trkpt><trkpt lat="45.978538" lon="10.285991"><time>2025-04-28T08:32:42.000Z</time><ele>1264.2</ele></trkpt><trkpt lat="45.978541" lon="10.285984"><time>2025-04-28T08:32:43.000Z</time><ele>1264.2</ele></trkpt><trkpt lat="45.978542" lon="10.285985"><time>2025-04-28T08:32:44.000Z</time><ele>1264.2</ele></trkpt><trkpt lat="45.978543" lon="10.285985"><time>2025-04-28T08:32:45.000Z</time><ele>1264.2</ele></trkpt><trkpt lat="45.978555" lon="10.285983"><time>2025-04-28T08:32:46.000Z</time><ele>1264</ele></trkpt><trkpt lat="45.97856" lon="10.286005"><time>2025-04-28T08:32:47.000Z</time><ele>1264</ele></trkpt><trkpt lat="45.978563" lon="10.286008"><time>2025-04-28T08:32:48.000Z</time><ele>1264.2</ele></trkpt><trkpt lat="45.978567" lon="10.28602"><time>2025-04-28T08:32:49.000Z</time><ele>1264.2</ele></trkpt><trkpt lat="45.978569" lon="10.286018"><time>2025-04-28T08:32:50.000Z</time><ele>1264.2</ele></trkpt><trkpt lat="45.978574" lon="10.286021"><time>2025-04-28T08:32:51.000Z</time><ele>1264.2</ele></trkpt><trkpt lat="45.978578" lon="10.28602"><time>2025-04-28T08:32:52.000Z</time><ele>1264.2</ele></trkpt><trkpt lat="45.97858" lon="10.286018"><time>2025-04-28T08:32:53.000Z</time><ele>1264.2</ele></trkpt><trkpt lat="45.978583" lon="10.286019"><time>2025-04-28T08:32:54.000Z</time><ele>1264.2</ele></trkpt><trkpt lat="45.978585" lon="10.28602"><time>2025-04-28T08:32:55.000Z</time><ele>1264.2</ele></trkpt><trkpt lat="45.978586" lon="10.286013"><time>2025-04-28T08:32:56.000Z</time><ele>1264.2</ele></trkpt><trkpt lat="45.978588" lon="10.286012"><time>2025-04-28T08:32:57.000Z</time><ele>1264</ele></trkpt><trkpt lat="45.978589" lon="10.286012"><time>2025-04-28T08:32:58.000Z</time><ele>1264</ele></trkpt><trkpt lat="45.978588" lon="10.286012"><time>2025-04-28T08:32:59.000Z</time><ele>1264</ele></trkpt><trkpt lat="45.978588" lon="10.286012"><time>2025-04-28T08:33:00.000Z</time><ele>1264</ele></trkpt><trkpt lat="45.978588" lon="10.286014"><time>2025-04-28T08:33:01.000Z</time><ele>1263.8</ele></trkpt><trkpt lat="45.978588" lon="10.286015"><time>2025-04-28T08:33:02.000Z</time><ele>1263.8</ele></trkpt><trkpt lat="45.978582" lon="10.286017"><time>2025-04-28T08:33:03.000Z</time><ele>1264</ele></trkpt><trkpt lat="45.97858" lon="10.28602"><time>2025-04-28T08:33:04.000Z</time><ele>1264</ele></trkpt><trkpt lat="45.978586" lon="10.28603"><time>2025-04-28T08:33:05.000Z</time><ele>1264</ele></trkpt><trkpt lat="45.978598" lon="10.286038"><time>2025-04-28T08:33:06.000Z</time><ele>1264.2</ele></trkpt><trkpt lat="45.978609" lon="10.286047"><time>2025-04-28T08:33:07.000Z</time><ele>1264.2</ele></trkpt><trkpt lat="45.97862" lon="10.286051"><time>2025-04-28T08:33:08.000Z</time><ele>1264.2</ele></trkpt><trkpt lat="45.978628" lon="10.286054"><time>2025-04-28T08:33:09.000Z</time><ele>1264.2</ele></trkpt><trkpt lat="45.978637" lon="10.286056"><time>2025-04-28T08:33:10.000Z</time><ele>1264.6</ele></trkpt><trkpt lat="45.978644" lon="10.286057"><time>2025-04-28T08:33:11.000Z</time><ele>1264.6</ele></trkpt><trkpt lat="45.978652" lon="10.286056"><time>2025-04-28T08:33:12.000Z</time><ele>1264.8</ele></trkpt><trkpt lat="45.978662" lon="10.286057"><time>2025-04-28T08:33:13.000Z</time><ele>1265</ele></trkpt><trkpt lat="45.978672" lon="10.286064"><time>2025-04-28T08:33:14.000Z</time><ele>1265.2</ele></trkpt><trkpt lat="45.978684" lon="10.28607"><time>2025-04-28T08:33:15.000Z</time><ele>1265.2</ele></trkpt><trkpt lat="45.978692" lon="10.286074"><time>2025-04-28T08:33:16.000Z</time><ele>1265.4</ele></trkpt><trkpt lat="45.978699" lon="10.286077"><time>2025-04-28T08:33:17.000Z</time><ele>1265.6</ele></trkpt><trkpt lat="45.978703" lon="10.286081"><time>2025-04-28T08:33:18.000Z</time><ele>1265.6</ele></trkpt><trkpt lat="45.97871" lon="10.286086"><time>2025-04-28T08:33:19.000Z</time><ele>1265.6</ele></trkpt><trkpt lat="45.978717" lon="10.286095"><time>2025-04-28T08:33:20.000Z</time><ele>1265.8</ele></trkpt><trkpt lat="45.978725" lon="10.286105"><time>2025-04-28T08:33:21.000Z</time><ele>1266</ele></trkpt><trkpt lat="45.978734" lon="10.286114"><time>2025-04-28T08:33:22.000Z</time><ele>1266.2</ele></trkpt><trkpt lat="45.978745" lon="10.286121"><time>2025-04-28T08:33:23.000Z</time><ele>1266.4</ele></trkpt><trkpt lat="45.978753" lon="10.286126"><time>2025-04-28T08:33:24.000Z</time><ele>1266.4</ele></trkpt><trkpt lat="45.978762" lon="10.286133"><time>2025-04-28T08:33:25.000Z</time><ele>1266.6</ele></trkpt><trkpt lat="45.978772" lon="10.286141"><time>2025-04-28T08:33:26.000Z</time><ele>1266.8</ele></trkpt><trkpt lat="45.978781" lon="10.286151"><time>2025-04-28T08:33:27.000Z</time><ele>1267</ele></trkpt><trkpt lat="45.978787" lon="10.28616"><time>2025-04-28T08:33:28.000Z</time><ele>1267.2</ele></trkpt><trkpt lat="45.978794" lon="10.286166"><time>2025-04-28T08:33:29.000Z</time><ele>1267.4</ele></trkpt><trkpt lat="45.978802" lon="10.286174"><time>2025-04-28T08:33:30.000Z</time><ele>1267.4</ele></trkpt><trkpt lat="45.978811" lon="10.286177"><time>2025-04-28T08:33:31.000Z</time><ele>1267.6</ele></trkpt><trkpt lat="45.978823" lon="10.286179"><time>2025-04-28T08:33:32.000Z</time><ele>1267.6</ele></trkpt><trkpt lat="45.978836" lon="10.286188"><time>2025-04-28T08:33:33.000Z</time><ele>1267.8</ele></trkpt><trkpt lat="45.978846" lon="10.286193"><time>2025-04-28T08:33:34.000Z</time><ele>1267.8</ele></trkpt><trkpt lat="45.978856" lon="10.286198"><time>2025-04-28T08:33:35.000Z</time><ele>1268</ele></trkpt><trkpt lat="45.978865" lon="10.2862"><time>2025-04-28T08:33:36.000Z</time><ele>1268.2</ele></trkpt><trkpt lat="45.978877" lon="10.286198"><time>2025-04-28T08:33:37.000Z</time><ele>1268.2</ele></trkpt><trkpt lat="45.978894" lon="10.286201"><time>2025-04-28T08:33:38.000Z</time><ele>1268.4</ele></trkpt><trkpt lat="45.97891" lon="10.286204"><time>2025-04-28T08:33:39.000Z</time><ele>1268.6</ele></trkpt><trkpt lat="45.978927" lon="10.286205"><time>2025-04-28T08:33:40.000Z</time><ele>1268.8</ele></trkpt><trkpt lat="45.978941" lon="10.286202"><time>2025-04-28T08:33:41.000Z</time><ele>1268.8</ele></trkpt><trkpt lat="45.97895" lon="10.286193"><time>2025-04-28T08:33:42.000Z</time><ele>1269</ele></trkpt><trkpt lat="45.978958" lon="10.286189"><time>2025-04-28T08:33:43.000Z</time><ele>1269</ele></trkpt><trkpt lat="45.978971" lon="10.28619"><time>2025-04-28T08:33:44.000Z</time><ele>1269</ele></trkpt><trkpt lat="45.978983" lon="10.286192"><time>2025-04-28T08:33:45.000Z</time><ele>1269.2</ele></trkpt><trkpt lat="45.978997" lon="10.286199"><time>2025-04-28T08:33:46.000Z</time><ele>1269.2</ele></trkpt><trkpt lat="45.979012" lon="10.286211"><time>2025-04-28T08:33:47.000Z</time><ele>1269.2</ele></trkpt><trkpt lat="45.979034" lon="10.286233"><time>2025-04-28T08:33:48.000Z</time><ele>1269.4</ele></trkpt><trkpt lat="45.979046" lon="10.286238"><time>2025-04-28T08:33:49.000Z</time><ele>1269.8</ele></trkpt><trkpt lat="45.979063" lon="10.286239"><time>2025-04-28T08:33:50.000Z</time><ele>1270</ele></trkpt><trkpt lat="45.979073" lon="10.286239"><time>2025-04-28T08:33:51.000Z</time><ele>1270</ele></trkpt><trkpt lat="45.979073" lon="10.286237"><time>2025-04-28T08:33:52.000Z</time><ele>1270.2</ele></trkpt><trkpt lat="45.979079" lon="10.286235"><time>2025-04-28T08:33:53.000Z</time><ele>1270.2</ele></trkpt><trkpt lat="45.979085" lon="10.286236"><time>2025-04-28T08:33:54.000Z</time><ele>1270.4</ele></trkpt><trkpt lat="45.979096" lon="10.286235"><time>2025-04-28T08:33:55.000Z</time><ele>1270.6</ele></trkpt><trkpt lat="45.979108" lon="10.286231"><time>2025-04-28T08:33:56.000Z</time><ele>1270.6</ele></trkpt><trkpt lat="45.979115" lon="10.286232"><time>2025-04-28T08:33:57.000Z</time><ele>1270.6</ele></trkpt><trkpt lat="45.979126" lon="10.286235"><time>2025-04-28T08:33:58.000Z</time><ele>1270.8</ele></trkpt><trkpt lat="45.979139" lon="10.286238"><time>2025-04-28T08:33:59.000Z</time><ele>1271</ele></trkpt><trkpt lat="45.979153" lon="10.286244"><time>2025-04-28T08:34:00.000Z</time><ele>1271</ele></trkpt><trkpt lat="45.979167" lon="10.286248"><time>2025-04-28T08:34:01.000Z</time><ele>1271</ele></trkpt><trkpt lat="45.979179" lon="10.286254"><time>2025-04-28T08:34:02.000Z</time><ele>1271.2</ele></trkpt><trkpt lat="45.97919" lon="10.286258"><time>2025-04-28T08:34:03.000Z</time><ele>1271.2</ele></trkpt><trkpt lat="45.9792" lon="10.286257"><time>2025-04-28T08:34:04.000Z</time><ele>1271.4</ele></trkpt><trkpt lat="45.97921" lon="10.286257"><time>2025-04-28T08:34:05.000Z</time><ele>1271.4</ele></trkpt><trkpt lat="45.979219" lon="10.286255"><time>2025-04-28T08:34:06.000Z</time><ele>1271.4</ele></trkpt><trkpt lat="45.979224" lon="10.286252"><time>2025-04-28T08:34:07.000Z</time><ele>1271.4</ele></trkpt><trkpt lat="45.979234" lon="10.286251"><time>2025-04-28T08:34:08.000Z</time><ele>1271.6</ele></trkpt><trkpt lat="45.979243" lon="10.286249"><time>2025-04-28T08:34:09.000Z</time><ele>1271.6</ele></trkpt><trkpt lat="45.979253" lon="10.286246"><time>2025-04-28T08:34:10.000Z</time><ele>1271.6</ele></trkpt><trkpt lat="45.979265" lon="10.286243"><time>2025-04-28T08:34:11.000Z</time><ele>1271.6</ele></trkpt><trkpt lat="45.979275" lon="10.286235"><time>2025-04-28T08:34:12.000Z</time><ele>1271.8</ele></trkpt><trkpt lat="45.979286" lon="10.286229"><time>2025-04-28T08:34:13.000Z</time><ele>1271.8</ele></trkpt><trkpt lat="45.979298" lon="10.28622"><time>2025-04-28T08:34:14.000Z</time><ele>1272</ele></trkpt><trkpt lat="45.979308" lon="10.286213"><time>2025-04-28T08:34:15.000Z</time><ele>1272</ele></trkpt><trkpt lat="45.979314" lon="10.286211"><time>2025-04-28T08:34:16.000Z</time><ele>1272</ele></trkpt><trkpt lat="45.979317" lon="10.286208"><time>2025-04-28T08:34:17.000Z</time><ele>1272.2</ele></trkpt><trkpt lat="45.979326" lon="10.28621"><time>2025-04-28T08:34:18.000Z</time><ele>1272.2</ele></trkpt><trkpt lat="45.979336" lon="10.286216"><time>2025-04-28T08:34:19.000Z</time><ele>1272.2</ele></trkpt><trkpt lat="45.979341" lon="10.286216"><time>2025-04-28T08:34:20.000Z</time><ele>1272.2</ele></trkpt><trkpt lat="45.979351" lon="10.286217"><time>2025-04-28T08:34:21.000Z</time><ele>1272.2</ele></trkpt><trkpt lat="45.979365" lon="10.286221"><time>2025-04-28T08:34:22.000Z</time><ele>1272.4</ele></trkpt><trkpt lat="45.979382" lon="10.286225"><time>2025-04-28T08:34:23.000Z</time><ele>1272.4</ele></trkpt><trkpt lat="45.979401" lon="10.286227"><time>2025-04-28T08:34:24.000Z</time><ele>1272.6</ele></trkpt><trkpt lat="45.979419" lon="10.286232"><time>2025-04-28T08:34:25.000Z</time><ele>1272.6</ele></trkpt><trkpt lat="45.979429" lon="10.28624"><time>2025-04-28T08:34:26.000Z</time><ele>1272.6</ele></trkpt><trkpt lat="45.97944" lon="10.286244"><time>2025-04-28T08:34:27.000Z</time><ele>1272.8</ele></trkpt><trkpt lat="45.979447" lon="10.286252"><time>2025-04-28T08:34:28.000Z</time><ele>1273</ele></trkpt><trkpt lat="45.979455" lon="10.286262"><time>2025-04-28T08:34:29.000Z</time><ele>1273</ele></trkpt><trkpt lat="45.979465" lon="10.28627"><time>2025-04-28T08:34:30.000Z</time><ele>1273.2</ele></trkpt><trkpt lat="45.979476" lon="10.286273"><time>2025-04-28T08:34:31.000Z</time><ele>1273.2</ele></trkpt><trkpt lat="45.979487" lon="10.286279"><time>2025-04-28T08:34:32.000Z</time><ele>1273.2</ele></trkpt><trkpt lat="45.979493" lon="10.28629"><time>2025-04-28T08:34:33.000Z</time><ele>1273.4</ele></trkpt><trkpt lat="45.979502" lon="10.286303"><time>2025-04-28T08:34:34.000Z</time><ele>1273.6</ele></trkpt><trkpt lat="45.979513" lon="10.286309"><time>2025-04-28T08:34:35.000Z</time><ele>1273.8</ele></trkpt><trkpt lat="45.979531" lon="10.286321"><time>2025-04-28T08:34:36.000Z</time><ele>1273.8</ele></trkpt><trkpt lat="45.979544" lon="10.286332"><time>2025-04-28T08:34:37.000Z</time><ele>1274</ele></trkpt><trkpt lat="45.979551" lon="10.28634"><time>2025-04-28T08:34:38.000Z</time><ele>1274.2</ele></trkpt><trkpt lat="45.979554" lon="10.286341"><time>2025-04-28T08:34:39.000Z</time><ele>1274.2</ele></trkpt><trkpt lat="45.979567" lon="10.286348"><time>2025-04-28T08:34:40.000Z</time><ele>1274.4</ele></trkpt><trkpt lat="45.979581" lon="10.286349"><time>2025-04-28T08:34:41.000Z</time><ele>1274.6</ele></trkpt><trkpt lat="45.979605" lon="10.286352"><time>2025-04-28T08:34:42.000Z</time><ele>1274.6</ele></trkpt><trkpt lat="45.979617" lon="10.28635"><time>2025-04-28T08:34:43.000Z</time><ele>1274.6</ele></trkpt><trkpt lat="45.97963" lon="10.286348"><time>2025-04-28T08:34:44.000Z</time><ele>1274.8</ele></trkpt><trkpt lat="45.979661" lon="10.286363"><time>2025-04-28T08:34:45.000Z</time><ele>1274.8</ele></trkpt><trkpt lat="45.979663" lon="10.286363"><time>2025-04-28T08:34:46.000Z</time><ele>1275</ele></trkpt><trkpt lat="45.979666" lon="10.286365"><time>2025-04-28T08:34:47.000Z</time><ele>1275</ele></trkpt><trkpt lat="45.979681" lon="10.286354"><time>2025-04-28T08:34:48.000Z</time><ele>1275</ele></trkpt><trkpt lat="45.979694" lon="10.286349"><time>2025-04-28T08:34:49.000Z</time><ele>1275</ele></trkpt><trkpt lat="45.979696" lon="10.286348"><time>2025-04-28T08:34:50.000Z</time><ele>1275.2</ele></trkpt><trkpt lat="45.979698" lon="10.286346"><time>2025-04-28T08:34:51.000Z</time><ele>1275.2</ele></trkpt><trkpt lat="45.979703" lon="10.286345"><time>2025-04-28T08:34:52.000Z</time><ele>1275.2</ele></trkpt><trkpt lat="45.979715" lon="10.286348"><time>2025-04-28T08:34:53.000Z</time><ele>1275.2</ele></trkpt><trkpt lat="45.979727" lon="10.286351"><time>2025-04-28T08:34:54.000Z</time><ele>1275.2</ele></trkpt><trkpt lat="45.979738" lon="10.286341"><time>2025-04-28T08:34:55.000Z</time><ele>1275.2</ele></trkpt><trkpt lat="45.979745" lon="10.286333"><time>2025-04-28T08:34:56.000Z</time><ele>1275.4</ele></trkpt><trkpt lat="45.979753" lon="10.286329"><time>2025-04-28T08:34:57.000Z</time><ele>1275.4</ele></trkpt><trkpt lat="45.979757" lon="10.286323"><time>2025-04-28T08:34:58.000Z</time><ele>1275.6</ele></trkpt><trkpt lat="45.979763" lon="10.286312"><time>2025-04-28T08:34:59.000Z</time><ele>1275.8</ele></trkpt><trkpt lat="45.979765" lon="10.286296"><time>2025-04-28T08:35:00.000Z</time><ele>1275.8</ele></trkpt><trkpt lat="45.979771" lon="10.286292"><time>2025-04-28T08:35:01.000Z</time><ele>1276</ele></trkpt><trkpt lat="45.979771" lon="10.286289"><time>2025-04-28T08:35:02.000Z</time><ele>1276.2</ele></trkpt><trkpt lat="45.979773" lon="10.286285"><time>2025-04-28T08:35:03.000Z</time><ele>1276.2</ele></trkpt><trkpt lat="45.979788" lon="10.286279"><time>2025-04-28T08:35:04.000Z</time><ele>1276.4</ele></trkpt><trkpt lat="45.979807" lon="10.286278"><time>2025-04-28T08:35:05.000Z</time><ele>1276.4</ele></trkpt><trkpt lat="45.979822" lon="10.286278"><time>2025-04-28T08:35:06.000Z</time><ele>1276.4</ele></trkpt><trkpt lat="45.97983" lon="10.286273"><time>2025-04-28T08:35:07.000Z</time><ele>1276.4</ele></trkpt><trkpt lat="45.979838" lon="10.286269"><time>2025-04-28T08:35:08.000Z</time><ele>1276.4</ele></trkpt><trkpt lat="45.97984" lon="10.286264"><time>2025-04-28T08:35:09.000Z</time><ele>1276.4</ele></trkpt><trkpt lat="45.979844" lon="10.286262"><time>2025-04-28T08:35:10.000Z</time><ele>1276.6</ele></trkpt><trkpt lat="45.97985" lon="10.286257"><time>2025-04-28T08:35:11.000Z</time><ele>1276.8</ele></trkpt><trkpt lat="45.979858" lon="10.286258"><time>2025-04-28T08:35:12.000Z</time><ele>1276.8</ele></trkpt><trkpt lat="45.979861" lon="10.286254"><time>2025-04-28T08:35:13.000Z</time><ele>1276.8</ele></trkpt><trkpt lat="45.979863" lon="10.28625"><time>2025-04-28T08:35:14.000Z</time><ele>1276.8</ele></trkpt><trkpt lat="45.979873" lon="10.28625"><time>2025-04-28T08:35:15.000Z</time><ele>1276.8</ele></trkpt><trkpt lat="45.979878" lon="10.28625"><time>2025-04-28T08:35:16.000Z</time><ele>1277</ele></trkpt><trkpt lat="45.979887" lon="10.286254"><time>2025-04-28T08:35:17.000Z</time><ele>1277</ele></trkpt><trkpt lat="45.979889" lon="10.286255"><time>2025-04-28T08:35:18.000Z</time><ele>1277</ele></trkpt><trkpt lat="45.979897" lon="10.286257"><time>2025-04-28T08:35:19.000Z</time><ele>1277</ele></trkpt><trkpt lat="45.979906" lon="10.286262"><time>2025-04-28T08:35:20.000Z</time><ele>1277</ele></trkpt><trkpt lat="45.979908" lon="10.286264"><time>2025-04-28T08:35:21.000Z</time><ele>1277</ele></trkpt><trkpt lat="45.97992" lon="10.286273"><time>2025-04-28T08:35:22.000Z</time><ele>1277.2</ele></trkpt><trkpt lat="45.979934" lon="10.286279"><time>2025-04-28T08:35:23.000Z</time><ele>1277.2</ele></trkpt><trkpt lat="45.979951" lon="10.286279"><time>2025-04-28T08:35:24.000Z</time><ele>1277.4</ele></trkpt><trkpt lat="45.979968" lon="10.286279"><time>2025-04-28T08:35:25.000Z</time><ele>1277.4</ele></trkpt><trkpt lat="45.979981" lon="10.28628"><time>2025-04-28T08:35:26.000Z</time><ele>1277.4</ele></trkpt><trkpt lat="45.979995" lon="10.286286"><time>2025-04-28T08:35:27.000Z</time><ele>1277.6</ele></trkpt><trkpt lat="45.980008" lon="10.286296"><time>2025-04-28T08:35:28.000Z</time><ele>1277.6</ele></trkpt><trkpt lat="45.980025" lon="10.286309"><time>2025-04-28T08:35:29.000Z</time><ele>1277.6</ele></trkpt><trkpt lat="45.980043" lon="10.286316"><time>2025-04-28T08:35:30.000Z</time><ele>1277.6</ele></trkpt><trkpt lat="45.980058" lon="10.286315"><time>2025-04-28T08:35:31.000Z</time><ele>1277.6</ele></trkpt><trkpt lat="45.980073" lon="10.286316"><time>2025-04-28T08:35:32.000Z</time><ele>1277.6</ele></trkpt><trkpt lat="45.980087" lon="10.286324"><time>2025-04-28T08:35:33.000Z</time><ele>1277.6</ele></trkpt><trkpt lat="45.980102" lon="10.286335"><time>2025-04-28T08:35:34.000Z</time><ele>1277.8</ele></trkpt><trkpt lat="45.980119" lon="10.28635"><time>2025-04-28T08:35:35.000Z</time><ele>1278</ele></trkpt><trkpt lat="45.980134" lon="10.286361"><time>2025-04-28T08:35:36.000Z</time><ele>1278</ele></trkpt><trkpt lat="45.980146" lon="10.286377"><time>2025-04-28T08:35:37.000Z</time><ele>1278</ele></trkpt><trkpt lat="45.980163" lon="10.286388"><time>2025-04-28T08:35:38.000Z</time><ele>1278.2</ele></trkpt><trkpt lat="45.980182" lon="10.286393"><time>2025-04-28T08:35:39.000Z</time><ele>1278.2</ele></trkpt><trkpt lat="45.980201" lon="10.286401"><time>2025-04-28T08:35:40.000Z</time><ele>1278.2</ele></trkpt><trkpt lat="45.980226" lon="10.286413"><time>2025-04-28T08:35:41.000Z</time><ele>1278.2</ele></trkpt><trkpt lat="45.980253" lon="10.286424"><time>2025-04-28T08:35:42.000Z</time><ele>1278.2</ele></trkpt><trkpt lat="45.980276" lon="10.286437"><time>2025-04-28T08:35:43.000Z</time><ele>1278.2</ele></trkpt><trkpt lat="45.980294" lon="10.28644"><time>2025-04-28T08:35:44.000Z</time><ele>1278.4</ele></trkpt><trkpt lat="45.980299" lon="10.286441"><time>2025-04-28T08:35:45.000Z</time><ele>1278.4</ele></trkpt><trkpt lat="45.980302" lon="10.286442"><time>2025-04-28T08:35:46.000Z</time><ele>1278.4</ele></trkpt><trkpt lat="45.980302" lon="10.286446"><time>2025-04-28T08:35:47.000Z</time><ele>1278.6</ele></trkpt><trkpt lat="45.980309" lon="10.286454"><time>2025-04-28T08:35:48.000Z</time><ele>1278.6</ele></trkpt><trkpt lat="45.98031" lon="10.286458"><time>2025-04-28T08:35:49.000Z</time><ele>1278.6</ele></trkpt><trkpt lat="45.980312" lon="10.286462"><time>2025-04-28T08:35:50.000Z</time><ele>1278.6</ele></trkpt><trkpt lat="45.980319" lon="10.286471"><time>2025-04-28T08:35:51.000Z</time><ele>1278.6</ele></trkpt><trkpt lat="45.980329" lon="10.286481"><time>2025-04-28T08:35:52.000Z</time><ele>1278.4</ele></trkpt><trkpt lat="45.980338" lon="10.286492"><time>2025-04-28T08:35:53.000Z</time><ele>1278.6</ele></trkpt><trkpt lat="45.980348" lon="10.286501"><time>2025-04-28T08:35:54.000Z</time><ele>1278.6</ele></trkpt><trkpt lat="45.980362" lon="10.286508"><time>2025-04-28T08:35:55.000Z</time><ele>1278.6</ele></trkpt><trkpt lat="45.980376" lon="10.286513"><time>2025-04-28T08:35:56.000Z</time><ele>1278.8</ele></trkpt><trkpt lat="45.98039" lon="10.286514"><time>2025-04-28T08:35:57.000Z</time><ele>1278.8</ele></trkpt><trkpt lat="45.980402" lon="10.286519"><time>2025-04-28T08:35:58.000Z</time><ele>1278.8</ele></trkpt><trkpt lat="45.980413" lon="10.286528"><time>2025-04-28T08:35:59.000Z</time><ele>1279</ele></trkpt><trkpt lat="45.980422" lon="10.286539"><time>2025-04-28T08:36:00.000Z</time><ele>1279</ele></trkpt><trkpt lat="45.980432" lon="10.286551"><time>2025-04-28T08:36:01.000Z</time><ele>1279</ele></trkpt><trkpt lat="45.980443" lon="10.286562"><time>2025-04-28T08:36:02.000Z</time><ele>1279.2</ele></trkpt><trkpt lat="45.980453" lon="10.286572"><time>2025-04-28T08:36:03.000Z</time><ele>1279.2</ele></trkpt><trkpt lat="45.980463" lon="10.286585"><time>2025-04-28T08:36:04.000Z</time><ele>1279.2</ele></trkpt><trkpt lat="45.980475" lon="10.286597"><time>2025-04-28T08:36:05.000Z</time><ele>1279.4</ele></trkpt><trkpt lat="45.980488" lon="10.28661"><time>2025-04-28T08:36:06.000Z</time><ele>1279.4</ele></trkpt><trkpt lat="45.980501" lon="10.286627"><time>2025-04-28T08:36:07.000Z</time><ele>1279.6</ele></trkpt><trkpt lat="45.980507" lon="10.286646"><time>2025-04-28T08:36:08.000Z</time><ele>1279.8</ele></trkpt><trkpt lat="45.980514" lon="10.286661"><time>2025-04-28T08:36:09.000Z</time><ele>1279.8</ele></trkpt><trkpt lat="45.980521" lon="10.286677"><time>2025-04-28T08:36:10.000Z</time><ele>1280</ele></trkpt><trkpt lat="45.980528" lon="10.286694"><time>2025-04-28T08:36:11.000Z</time><ele>1280</ele></trkpt><trkpt lat="45.980535" lon="10.286705"><time>2025-04-28T08:36:12.000Z</time><ele>1280.2</ele></trkpt><trkpt lat="45.980542" lon="10.28672"><time>2025-04-28T08:36:13.000Z</time><ele>1280.4</ele></trkpt><trkpt lat="45.980546" lon="10.286737"><time>2025-04-28T08:36:14.000Z</time><ele>1280.4</ele></trkpt><trkpt lat="45.980557" lon="10.286746"><time>2025-04-28T08:36:15.000Z</time><ele>1280.4</ele></trkpt><trkpt lat="45.980567" lon="10.286757"><time>2025-04-28T08:36:16.000Z</time><ele>1280.8</ele></trkpt><trkpt lat="45.980574" lon="10.286766"><time>2025-04-28T08:36:17.000Z</time><ele>1281</ele></trkpt><trkpt lat="45.980581" lon="10.286774"><time>2025-04-28T08:36:18.000Z</time><ele>1281.2</ele></trkpt><trkpt lat="45.980589" lon="10.286781"><time>2025-04-28T08:36:19.000Z</time><ele>1281.2</ele></trkpt><trkpt lat="45.980601" lon="10.286789"><time>2025-04-28T08:36:20.000Z</time><ele>1281.4</ele></trkpt><trkpt lat="45.980613" lon="10.286787"><time>2025-04-28T08:36:21.000Z</time><ele>1281.6</ele></trkpt><trkpt lat="45.980623" lon="10.28679"><time>2025-04-28T08:36:22.000Z</time><ele>1281.8</ele></trkpt><trkpt lat="45.980633" lon="10.286791"><time>2025-04-28T08:36:23.000Z</time><ele>1282</ele></trkpt><trkpt lat="45.980646" lon="10.286793"><time>2025-04-28T08:36:24.000Z</time><ele>1282</ele></trkpt><trkpt lat="45.980657" lon="10.286798"><time>2025-04-28T08:36:25.000Z</time><ele>1282.2</ele></trkpt><trkpt lat="45.980666" lon="10.286812"><time>2025-04-28T08:36:26.000Z</time><ele>1282.4</ele></trkpt><trkpt lat="45.980677" lon="10.286816"><time>2025-04-28T08:36:27.000Z</time><ele>1282.4</ele></trkpt><trkpt lat="45.98069" lon="10.286821"><time>2025-04-28T08:36:28.000Z</time><ele>1282.8</ele></trkpt><trkpt lat="45.9807" lon="10.286824"><time>2025-04-28T08:36:29.000Z</time><ele>1283</ele></trkpt><trkpt lat="45.980711" lon="10.286826"><time>2025-04-28T08:36:30.000Z</time><ele>1283</ele></trkpt><trkpt lat="45.980725" lon="10.286827"><time>2025-04-28T08:36:31.000Z</time><ele>1283</ele></trkpt><trkpt lat="45.980736" lon="10.286831"><time>2025-04-28T08:36:32.000Z</time><ele>1283.2</ele></trkpt><trkpt lat="45.980743" lon="10.286835"><time>2025-04-28T08:36:33.000Z</time><ele>1283.4</ele></trkpt><trkpt lat="45.980752" lon="10.286844"><time>2025-04-28T08:36:34.000Z</time><ele>1283.6</ele></trkpt><trkpt lat="45.980761" lon="10.286855"><time>2025-04-28T08:36:35.000Z</time><ele>1283.8</ele></trkpt><trkpt lat="45.980771" lon="10.286862"><time>2025-04-28T08:36:36.000Z</time><ele>1284</ele></trkpt><trkpt lat="45.980782" lon="10.286869"><time>2025-04-28T08:36:37.000Z</time><ele>1284.2</ele></trkpt><trkpt lat="45.980793" lon="10.286873"><time>2025-04-28T08:36:38.000Z</time><ele>1284.4</ele></trkpt><trkpt lat="45.9808" lon="10.286875"><time>2025-04-28T08:36:39.000Z</time><ele>1284.6</ele></trkpt><trkpt lat="45.980805" lon="10.286875"><time>2025-04-28T08:36:40.000Z</time><ele>1284.6</ele></trkpt><trkpt lat="45.980811" lon="10.286876"><time>2025-04-28T08:36:41.000Z</time><ele>1284.8</ele></trkpt><trkpt lat="45.980824" lon="10.286873"><time>2025-04-28T08:36:42.000Z</time><ele>1285</ele></trkpt><trkpt lat="45.980834" lon="10.286869"><time>2025-04-28T08:36:43.000Z</time><ele>1285</ele></trkpt><trkpt lat="45.980839" lon="10.286865"><time>2025-04-28T08:36:44.000Z</time><ele>1285.2</ele></trkpt><trkpt lat="45.980844" lon="10.286863"><time>2025-04-28T08:36:45.000Z</time><ele>1285.6</ele></trkpt><trkpt lat="45.980848" lon="10.286866"><time>2025-04-28T08:36:46.000Z</time><ele>1285.6</ele></trkpt><trkpt lat="45.980854" lon="10.286872"><time>2025-04-28T08:36:47.000Z</time><ele>1285.8</ele></trkpt><trkpt lat="45.980859" lon="10.286874"><time>2025-04-28T08:36:48.000Z</time><ele>1286</ele></trkpt><trkpt lat="45.980865" lon="10.28688"><time>2025-04-28T08:36:49.000Z</time><ele>1286</ele></trkpt><trkpt lat="45.980868" lon="10.286882"><time>2025-04-28T08:36:50.000Z</time><ele>1286.2</ele></trkpt><trkpt lat="45.980871" lon="10.286883"><time>2025-04-28T08:36:51.000Z</time><ele>1286.4</ele></trkpt><trkpt lat="45.980871" lon="10.286883"><time>2025-04-28T08:36:52.000Z</time><ele>1286.6</ele></trkpt><trkpt lat="45.980872" lon="10.286883"><time>2025-04-28T08:36:53.000Z</time><ele>1286.8</ele></trkpt><trkpt lat="45.980873" lon="10.286884"><time>2025-04-28T08:36:54.000Z</time><ele>1286.8</ele></trkpt><trkpt lat="45.980872" lon="10.286884"><time>2025-04-28T08:36:55.000Z</time><ele>1286.8</ele></trkpt><trkpt lat="45.980868" lon="10.286883"><time>2025-04-28T08:36:56.000Z</time><ele>1286.8</ele></trkpt><trkpt lat="45.980859" lon="10.286879"><time>2025-04-28T08:36:57.000Z</time><ele>1286.8</ele></trkpt><trkpt lat="45.98085" lon="10.28688"><time>2025-04-28T08:36:58.000Z</time><ele>1286.8</ele></trkpt><trkpt lat="45.980842" lon="10.286888"><time>2025-04-28T08:36:59.000Z</time><ele>1286.8</ele></trkpt><trkpt lat="45.980834" lon="10.286891"><time>2025-04-28T08:37:00.000Z</time><ele>1286.6</ele></trkpt><trkpt lat="45.980831" lon="10.286892"><time>2025-04-28T08:37:01.000Z</time><ele>1286.6</ele></trkpt><trkpt lat="45.980828" lon="10.286893"><time>2025-04-28T08:37:02.000Z</time><ele>1286.6</ele></trkpt><trkpt lat="45.980824" lon="10.286893"><time>2025-04-28T08:37:03.000Z</time><ele>1286.6</ele></trkpt><trkpt lat="45.980818" lon="10.286896"><time>2025-04-28T08:37:04.000Z</time><ele>1286.6</ele></trkpt><trkpt lat="45.980815" lon="10.286904"><time>2025-04-28T08:37:05.000Z</time><ele>1286.6</ele></trkpt><trkpt lat="45.980814" lon="10.286914"><time>2025-04-28T08:37:06.000Z</time><ele>1286.6</ele></trkpt><trkpt lat="45.980812" lon="10.286927"><time>2025-04-28T08:37:07.000Z</time><ele>1286.4</ele></trkpt><trkpt lat="45.980807" lon="10.286936"><time>2025-04-28T08:37:08.000Z</time><ele>1286.4</ele></trkpt><trkpt lat="45.980803" lon="10.286947"><time>2025-04-28T08:37:09.000Z</time><ele>1286</ele></trkpt><trkpt lat="45.980799" lon="10.286957"><time>2025-04-28T08:37:10.000Z</time><ele>1286</ele></trkpt><trkpt lat="45.980797" lon="10.286967"><time>2025-04-28T08:37:11.000Z</time><ele>1285.8</ele></trkpt><trkpt lat="45.980796" lon="10.286982"><time>2025-04-28T08:37:12.000Z</time><ele>1285.8</ele></trkpt><trkpt lat="45.980796" lon="10.286997"><time>2025-04-28T08:37:13.000Z</time><ele>1285.6</ele></trkpt><trkpt lat="45.980795" lon="10.287012"><time>2025-04-28T08:37:14.000Z</time><ele>1285.6</ele></trkpt><trkpt lat="45.980791" lon="10.287023"><time>2025-04-28T08:37:15.000Z</time><ele>1285.4</ele></trkpt><trkpt lat="45.980789" lon="10.287031"><time>2025-04-28T08:37:16.000Z</time><ele>1285.4</ele></trkpt><trkpt lat="45.980791" lon="10.28704"><time>2025-04-28T08:37:17.000Z</time><ele>1285.4</ele></trkpt><trkpt lat="45.980793" lon="10.287056"><time>2025-04-28T08:37:18.000Z</time><ele>1285.2</ele></trkpt><trkpt lat="45.980793" lon="10.28707"><time>2025-04-28T08:37:19.000Z</time><ele>1285.2</ele></trkpt><trkpt lat="45.980792" lon="10.287088"><time>2025-04-28T08:37:20.000Z</time><ele>1285</ele></trkpt><trkpt lat="45.980793" lon="10.287104"><time>2025-04-28T08:37:21.000Z</time><ele>1285</ele></trkpt><trkpt lat="45.980799" lon="10.287119"><time>2025-04-28T08:37:22.000Z</time><ele>1285.2</ele></trkpt><trkpt lat="45.980803" lon="10.287134"><time>2025-04-28T08:37:23.000Z</time><ele>1285.2</ele></trkpt><trkpt lat="45.98081" lon="10.287148"><time>2025-04-28T08:37:24.000Z</time><ele>1285.2</ele></trkpt><trkpt lat="45.980822" lon="10.287158"><time>2025-04-28T08:37:25.000Z</time><ele>1285.2</ele></trkpt><trkpt lat="45.980831" lon="10.287163"><time>2025-04-28T08:37:26.000Z</time><ele>1285.2</ele></trkpt><trkpt lat="45.980842" lon="10.287171"><time>2025-04-28T08:37:27.000Z</time><ele>1285.4</ele></trkpt><trkpt lat="45.980853" lon="10.287186"><time>2025-04-28T08:37:28.000Z</time><ele>1285.4</ele></trkpt><trkpt lat="45.980861" lon="10.287203"><time>2025-04-28T08:37:29.000Z</time><ele>1285.4</ele></trkpt><trkpt lat="45.980872" lon="10.28722"><time>2025-04-28T08:37:30.000Z</time><ele>1285.4</ele></trkpt><trkpt lat="45.980879" lon="10.287244"><time>2025-04-28T08:37:31.000Z</time><ele>1285.4</ele></trkpt><trkpt lat="45.98088" lon="10.287268"><time>2025-04-28T08:37:32.000Z</time><ele>1285.4</ele></trkpt><trkpt lat="45.980875" lon="10.287289"><time>2025-04-28T08:37:33.000Z</time><ele>1285.2</ele></trkpt><trkpt lat="45.980869" lon="10.28731"><time>2025-04-28T08:37:34.000Z</time><ele>1285</ele></trkpt><trkpt lat="45.980866" lon="10.287321"><time>2025-04-28T08:37:35.000Z</time><ele>1285</ele></trkpt><trkpt lat="45.980869" lon="10.287323"><time>2025-04-28T08:37:36.000Z</time><ele>1284.8</ele></trkpt><trkpt lat="45.980872" lon="10.287332"><time>2025-04-28T08:37:37.000Z</time><ele>1284.8</ele></trkpt><trkpt lat="45.980883" lon="10.287348"><time>2025-04-28T08:37:38.000Z</time><ele>1284.6</ele></trkpt><trkpt lat="45.980891" lon="10.287364"><time>2025-04-28T08:37:39.000Z</time><ele>1284.6</ele></trkpt><trkpt lat="45.980897" lon="10.287379"><time>2025-04-28T08:37:40.000Z</time><ele>1284.4</ele></trkpt><trkpt lat="45.9809" lon="10.287391"><time>2025-04-28T08:37:41.000Z</time><ele>1284.2</ele></trkpt><trkpt lat="45.980905" lon="10.287404"><time>2025-04-28T08:37:42.000Z</time><ele>1284</ele></trkpt><trkpt lat="45.980911" lon="10.287414"><time>2025-04-28T08:37:43.000Z</time><ele>1284</ele></trkpt><trkpt lat="45.980917" lon="10.287425"><time>2025-04-28T08:37:44.000Z</time><ele>1284</ele></trkpt><trkpt lat="45.980927" lon="10.287436"><time>2025-04-28T08:37:45.000Z</time><ele>1284</ele></trkpt><trkpt lat="45.980937" lon="10.287447"><time>2025-04-28T08:37:46.000Z</time><ele>1284</ele></trkpt><trkpt lat="45.980947" lon="10.287463"><time>2025-04-28T08:37:47.000Z</time><ele>1284</ele></trkpt><trkpt lat="45.980953" lon="10.28748"><time>2025-04-28T08:37:48.000Z</time><ele>1284</ele></trkpt><trkpt lat="45.980956" lon="10.287495"><time>2025-04-28T08:37:49.000Z</time><ele>1284</ele></trkpt><trkpt lat="45.980956" lon="10.287511"><time>2025-04-28T08:37:50.000Z</time><ele>1284</ele></trkpt><trkpt lat="45.980957" lon="10.287528"><time>2025-04-28T08:37:51.000Z</time><ele>1284.2</ele></trkpt><trkpt lat="45.980962" lon="10.287534"><time>2025-04-28T08:37:52.000Z</time><ele>1284.4</ele></trkpt><trkpt lat="45.980964" lon="10.28754"><time>2025-04-28T08:37:53.000Z</time><ele>1284.6</ele></trkpt><trkpt lat="45.980967" lon="10.287543"><time>2025-04-28T08:37:54.000Z</time><ele>1284.6</ele></trkpt><trkpt lat="45.980968" lon="10.287544"><time>2025-04-28T08:37:55.000Z</time><ele>1284.8</ele></trkpt><trkpt lat="45.980962" lon="10.287545"><time>2025-04-28T08:37:56.000Z</time><ele>1284.8</ele></trkpt><trkpt lat="45.980954" lon="10.287537"><time>2025-04-28T08:37:57.000Z</time><ele>1284.8</ele></trkpt><trkpt lat="45.980952" lon="10.287528"><time>2025-04-28T08:37:58.000Z</time><ele>1284.8</ele></trkpt><trkpt lat="45.980949" lon="10.287518"><time>2025-04-28T08:37:59.000Z</time><ele>1284.6</ele></trkpt><trkpt lat="45.980941" lon="10.287505"><time>2025-04-28T08:38:00.000Z</time><ele>1284.6</ele></trkpt><trkpt lat="45.980931" lon="10.287483"><time>2025-04-28T08:38:01.000Z</time><ele>1284.4</ele></trkpt><trkpt lat="45.980922" lon="10.287465"><time>2025-04-28T08:38:02.000Z</time><ele>1284.2</ele></trkpt><trkpt lat="45.980914" lon="10.287464"><time>2025-04-28T08:38:03.000Z</time><ele>1284.2</ele></trkpt><trkpt lat="45.98091" lon="10.287464"><time>2025-04-28T08:38:04.000Z</time><ele>1284</ele></trkpt><trkpt lat="45.980912" lon="10.287474"><time>2025-04-28T08:38:05.000Z</time><ele>1284</ele></trkpt><trkpt lat="45.980911" lon="10.287475"><time>2025-04-28T08:38:06.000Z</time><ele>1283.8</ele></trkpt><trkpt lat="45.980911" lon="10.287475"><time>2025-04-28T08:38:07.000Z</time><ele>1283.8</ele></trkpt><trkpt lat="45.980911" lon="10.287474"><time>2025-04-28T08:38:08.000Z</time><ele>1283.8</ele></trkpt><trkpt lat="45.980911" lon="10.287474"><time>2025-04-28T08:38:09.000Z</time><ele>1283.8</ele></trkpt><trkpt lat="45.980911" lon="10.287474"><time>2025-04-28T08:38:10.000Z</time><ele>1283.8</ele></trkpt><trkpt lat="45.980911" lon="10.287474"><time>2025-04-28T08:38:11.000Z</time><ele>1283.8</ele></trkpt><trkpt lat="45.980911" lon="10.287474"><time>2025-04-28T08:38:12.000Z</time><ele>1283.8</ele></trkpt><trkpt lat="45.980911" lon="10.287474"><time>2025-04-28T08:38:13.000Z</time><ele>1283.8</ele></trkpt><trkpt lat="45.980911" lon="10.287474"><time>2025-04-28T08:38:14.000Z</time><ele>1283.8</ele></trkpt><trkpt lat="45.980911" lon="10.287474"><time>2025-04-28T08:38:15.000Z</time><ele>1283.8</ele></trkpt><trkpt lat="45.980911" lon="10.287474"><time>2025-04-28T08:38:16.000Z</time><ele>1283.8</ele></trkpt><trkpt lat="45.980911" lon="10.287474"><time>2025-04-28T08:38:17.000Z</time><ele>1284</ele></trkpt><trkpt lat="45.980911" lon="10.287474"><time>2025-04-28T08:38:18.000Z</time><ele>1284</ele></trkpt><trkpt lat="45.980911" lon="10.287474"><time>2025-04-28T08:38:19.000Z</time><ele>1284</ele></trkpt><trkpt lat="45.980911" lon="10.287474"><time>2025-04-28T08:38:20.000Z</time><ele>1284</ele></trkpt><trkpt lat="45.980911" lon="10.287473"><time>2025-04-28T08:38:21.000Z</time><ele>1284</ele></trkpt><trkpt lat="45.980911" lon="10.287472"><time>2025-04-28T08:38:22.000Z</time><ele>1284</ele></trkpt><trkpt lat="45.98091" lon="10.287469"><time>2025-04-28T08:38:23.000Z</time><ele>1284</ele></trkpt><trkpt lat="45.980904" lon="10.287469"><time>2025-04-28T08:38:24.000Z</time><ele>1284</ele></trkpt><trkpt lat="45.980898" lon="10.287469"><time>2025-04-28T08:38:25.000Z</time><ele>1283.8</ele></trkpt><trkpt lat="45.980894" lon="10.287468"><time>2025-04-28T08:38:26.000Z</time><ele>1283.8</ele></trkpt><trkpt lat="45.980889" lon="10.287468"><time>2025-04-28T08:38:27.000Z</time><ele>1283.8</ele></trkpt><trkpt lat="45.980888" lon="10.287468"><time>2025-04-28T08:38:28.000Z</time><ele>1283.8</ele></trkpt><trkpt lat="45.980887" lon="10.287467"><time>2025-04-28T08:38:29.000Z</time><ele>1284</ele></trkpt><trkpt lat="45.980887" lon="10.287467"><time>2025-04-28T08:38:30.000Z</time><ele>1284</ele></trkpt><trkpt lat="45.980887" lon="10.287467"><time>2025-04-28T08:38:31.000Z</time><ele>1284</ele></trkpt><trkpt lat="45.980887" lon="10.287467"><time>2025-04-28T08:38:32.000Z</time><ele>1284</ele></trkpt><trkpt lat="45.980887" lon="10.287467"><time>2025-04-28T08:38:33.000Z</time><ele>1284</ele></trkpt><trkpt lat="45.980887" lon="10.287467"><time>2025-04-28T08:38:34.000Z</time><ele>1284</ele></trkpt><trkpt lat="45.980887" lon="10.287467"><time>2025-04-28T08:38:35.000Z</time><ele>1284</ele></trkpt><trkpt lat="45.980887" lon="10.287466"><time>2025-04-28T08:38:36.000Z</time><ele>1284</ele></trkpt><trkpt lat="45.980887" lon="10.287465"><time>2025-04-28T08:38:37.000Z</time><ele>1284</ele></trkpt><trkpt lat="45.980887" lon="10.287465"><time>2025-04-28T08:38:38.000Z</time><ele>1284</ele></trkpt><trkpt lat="45.980887" lon="10.287464"><time>2025-04-28T08:38:39.000Z</time><ele>1284</ele></trkpt><trkpt lat="45.980887" lon="10.287464"><time>2025-04-28T08:38:40.000Z</time><ele>1284</ele></trkpt><trkpt lat="45.980887" lon="10.287464"><time>2025-04-28T08:38:41.000Z</time><ele>1284</ele></trkpt><trkpt lat="45.980887" lon="10.287464"><time>2025-04-28T08:38:42.000Z</time><ele>1284</ele></trkpt><trkpt lat="45.980887" lon="10.287463"><time>2025-04-28T08:38:43.000Z</time><ele>1284</ele></trkpt><trkpt lat="45.980887" lon="10.287462"><time>2025-04-28T08:38:44.000Z</time><ele>1284</ele></trkpt><trkpt lat="45.980887" lon="10.287462"><time>2025-04-28T08:38:45.000Z</time><ele>1284</ele></trkpt><trkpt lat="45.980887" lon="10.287462"><time>2025-04-28T08:38:46.000Z</time><ele>1284</ele></trkpt><trkpt lat="45.980887" lon="10.287462"><time>2025-04-28T08:38:47.000Z</time><ele>1284</ele></trkpt><trkpt lat="45.980887" lon="10.287462"><time>2025-04-28T08:38:48.000Z</time><ele>1284</ele></trkpt><trkpt lat="45.980887" lon="10.287462"><time>2025-04-28T08:38:49.000Z</time><ele>1284</ele></trkpt><trkpt lat="45.980887" lon="10.287462"><time>2025-04-28T08:38:50.000Z</time><ele>1284</ele></trkpt><trkpt lat="45.980886" lon="10.287462"><time>2025-04-28T08:38:51.000Z</time><ele>1284</ele></trkpt><trkpt lat="45.980886" lon="10.287462"><time>2025-04-28T08:38:52.000Z</time><ele>1284</ele></trkpt><trkpt lat="45.980886" lon="10.287462"><time>2025-04-28T08:38:53.000Z</time><ele>1284</ele></trkpt><trkpt lat="45.980885" lon="10.287462"><time>2025-04-28T08:38:54.000Z</time><ele>1284</ele></trkpt><trkpt lat="45.980885" lon="10.287462"><time>2025-04-28T08:38:55.000Z</time><ele>1284</ele></trkpt><trkpt lat="45.980885" lon="10.287463"><time>2025-04-28T08:38:56.000Z</time><ele>1284</ele></trkpt><trkpt lat="45.980885" lon="10.287463"><time>2025-04-28T08:38:57.000Z</time><ele>1284</ele></trkpt><trkpt lat="45.980885" lon="10.287464"><time>2025-04-28T08:38:58.000Z</time><ele>1284</ele></trkpt><trkpt lat="45.980882" lon="10.287464"><time>2025-04-28T08:38:59.000Z</time><ele>1284</ele></trkpt><trkpt lat="45.98088" lon="10.287464"><time>2025-04-28T08:39:00.000Z</time><ele>1284</ele></trkpt><trkpt lat="45.980875" lon="10.287466"><time>2025-04-28T08:39:01.000Z</time><ele>1284</ele></trkpt><trkpt lat="45.980873" lon="10.287466"><time>2025-04-28T08:39:02.000Z</time><ele>1284</ele></trkpt><trkpt lat="45.980872" lon="10.287467"><time>2025-04-28T08:39:03.000Z</time><ele>1284</ele></trkpt><trkpt lat="45.980871" lon="10.287467"><time>2025-04-28T08:39:04.000Z</time><ele>1284</ele></trkpt><trkpt lat="45.98087" lon="10.287468"><time>2025-04-28T08:39:05.000Z</time><ele>1284</ele></trkpt><trkpt lat="45.980869" lon="10.287469"><time>2025-04-28T08:39:06.000Z</time><ele>1284</ele></trkpt><trkpt lat="45.980869" lon="10.287469"><time>2025-04-28T08:39:07.000Z</time><ele>1284</ele></trkpt><trkpt lat="45.980869" lon="10.287469"><time>2025-04-28T08:39:08.000Z</time><ele>1284</ele></trkpt><trkpt lat="45.980869" lon="10.287469"><time>2025-04-28T08:39:09.000Z</time><ele>1284</ele></trkpt><trkpt lat="45.980868" lon="10.287469"><time>2025-04-28T08:39:10.000Z</time><ele>1284</ele></trkpt><trkpt lat="45.980868" lon="10.287469"><time>2025-04-28T08:39:11.000Z</time><ele>1284</ele></trkpt><trkpt lat="45.980866" lon="10.287469"><time>2025-04-28T08:39:12.000Z</time><ele>1284</ele></trkpt><trkpt lat="45.980865" lon="10.287469"><time>2025-04-28T08:39:13.000Z</time><ele>1284</ele></trkpt><trkpt lat="45.980864" lon="10.287469"><time>2025-04-28T08:39:14.000Z</time><ele>1284</ele></trkpt><trkpt lat="45.980863" lon="10.287469"><time>2025-04-28T08:39:15.000Z</time><ele>1284</ele></trkpt><trkpt lat="45.980863" lon="10.287469"><time>2025-04-28T08:39:16.000Z</time><ele>1284</ele></trkpt><trkpt lat="45.980863" lon="10.287469"><time>2025-04-28T08:39:17.000Z</time><ele>1284</ele></trkpt><trkpt lat="45.980862" lon="10.287468"><time>2025-04-28T08:39:18.000Z</time><ele>1284</ele></trkpt><trkpt lat="45.980862" lon="10.287467"><time>2025-04-28T08:39:19.000Z</time><ele>1284</ele></trkpt><trkpt lat="45.98086" lon="10.287467"><time>2025-04-28T08:39:20.000Z</time><ele>1284</ele></trkpt><trkpt lat="45.980859" lon="10.287467"><time>2025-04-28T08:39:21.000Z</time><ele>1284</ele></trkpt><trkpt lat="45.980858" lon="10.287465"><time>2025-04-28T08:39:22.000Z</time><ele>1284</ele></trkpt><trkpt lat="45.980857" lon="10.287464"><time>2025-04-28T08:39:23.000Z</time><ele>1284</ele></trkpt><trkpt lat="45.980857" lon="10.287464"><time>2025-04-28T08:39:24.000Z</time><ele>1284</ele></trkpt><trkpt lat="45.980856" lon="10.287464"><time>2025-04-28T08:39:25.000Z</time><ele>1284</ele></trkpt><trkpt lat="45.980855" lon="10.287464"><time>2025-04-28T08:39:26.000Z</time><ele>1284</ele></trkpt><trkpt lat="45.980855" lon="10.287464"><time>2025-04-28T08:39:27.000Z</time><ele>1284</ele></trkpt><trkpt lat="45.980854" lon="10.287464"><time>2025-04-28T08:39:28.000Z</time><ele>1284</ele></trkpt><trkpt lat="45.980854" lon="10.287464"><time>2025-04-28T08:39:29.000Z</time><ele>1284</ele></trkpt><trkpt lat="45.980854" lon="10.287464"><time>2025-04-28T08:39:30.000Z</time><ele>1284</ele></trkpt><trkpt lat="45.980854" lon="10.287464"><time>2025-04-28T08:39:31.000Z</time><ele>1284</ele></trkpt><trkpt lat="45.980854" lon="10.287464"><time>2025-04-28T08:39:32.000Z</time><ele>1284</ele></trkpt><trkpt lat="45.980854" lon="10.287464"><time>2025-04-28T08:39:33.000Z</time><ele>1284</ele></trkpt><trkpt lat="45.980854" lon="10.287464"><time>2025-04-28T08:39:34.000Z</time><ele>1284</ele></trkpt><trkpt lat="45.980854" lon="10.287464"><time>2025-04-28T08:39:35.000Z</time><ele>1284</ele></trkpt><trkpt lat="45.980854" lon="10.287463"><time>2025-04-28T08:39:36.000Z</time><ele>1284</ele></trkpt><trkpt lat="45.980854" lon="10.287463"><time>2025-04-28T08:39:37.000Z</time><ele>1284</ele></trkpt><trkpt lat="45.980854" lon="10.287463"><time>2025-04-28T08:39:38.000Z</time><ele>1284</ele></trkpt><trkpt lat="45.980854" lon="10.287463"><time>2025-04-28T08:39:39.000Z</time><ele>1284</ele></trkpt><trkpt lat="45.980854" lon="10.287463"><time>2025-04-28T08:39:40.000Z</time><ele>1284</ele></trkpt><trkpt lat="45.980854" lon="10.287463"><time>2025-04-28T08:39:41.000Z</time><ele>1284</ele></trkpt><trkpt lat="45.980854" lon="10.287463"><time>2025-04-28T08:39:42.000Z</time><ele>1284</ele></trkpt><trkpt lat="45.980854" lon="10.287463"><time>2025-04-28T08:39:43.000Z</time><ele>1284</ele></trkpt><trkpt lat="45.980854" lon="10.287463"><time>2025-04-28T08:39:44.000Z</time><ele>1284</ele></trkpt><trkpt lat="45.980854" lon="10.287463"><time>2025-04-28T08:39:45.000Z</time><ele>1284</ele></trkpt><trkpt lat="45.980854" lon="10.287463"><time>2025-04-28T08:39:46.000Z</time><ele>1284</ele></trkpt><trkpt lat="45.980854" lon="10.287463"><time>2025-04-28T08:39:47.000Z</time><ele>1284</ele></trkpt><trkpt lat="45.980854" lon="10.287463"><time>2025-04-28T08:39:48.000Z</time><ele>1284</ele></trkpt><trkpt lat="45.980854" lon="10.287463"><time>2025-04-28T08:39:49.000Z</time><ele>1284</ele></trkpt><trkpt lat="45.980854" lon="10.287463"><time>2025-04-28T08:39:50.000Z</time><ele>1284</ele></trkpt><trkpt lat="45.980854" lon="10.287464"><time>2025-04-28T08:39:51.000Z</time><ele>1284</ele></trkpt><trkpt lat="45.980854" lon="10.287464"><time>2025-04-28T08:39:52.000Z</time><ele>1284</ele></trkpt><trkpt lat="45.980853" lon="10.287464"><time>2025-04-28T08:39:53.000Z</time><ele>1284</ele></trkpt><trkpt lat="45.980853" lon="10.287464"><time>2025-04-28T08:39:54.000Z</time><ele>1284</ele></trkpt><trkpt lat="45.980852" lon="10.287464"><time>2025-04-28T08:39:55.000Z</time><ele>1284</ele></trkpt><trkpt lat="45.980852" lon="10.287464"><time>2025-04-28T08:39:56.000Z</time><ele>1284</ele></trkpt><trkpt lat="45.980852" lon="10.287464"><time>2025-04-28T08:39:57.000Z</time><ele>1284</ele></trkpt><trkpt lat="45.980851" lon="10.287464"><time>2025-04-28T08:39:58.000Z</time><ele>1284</ele></trkpt><trkpt lat="45.980848" lon="10.287465"><time>2025-04-28T08:39:59.000Z</time><ele>1284</ele></trkpt><trkpt lat="45.980846" lon="10.287465"><time>2025-04-28T08:40:00.000Z</time><ele>1284</ele></trkpt><trkpt lat="45.980845" lon="10.287465"><time>2025-04-28T08:40:01.000Z</time><ele>1284</ele></trkpt><trkpt lat="45.980844" lon="10.287463"><time>2025-04-28T08:40:02.000Z</time><ele>1284</ele></trkpt><trkpt lat="45.980843" lon="10.287462"><time>2025-04-28T08:40:03.000Z</time><ele>1284</ele></trkpt><trkpt lat="45.980845" lon="10.287455"><time>2025-04-28T08:40:04.000Z</time><ele>1284</ele></trkpt><trkpt lat="45.980851" lon="10.287434"><time>2025-04-28T08:40:05.000Z</time><ele>1284</ele></trkpt><trkpt lat="45.980849" lon="10.287416"><time>2025-04-28T08:40:06.000Z</time><ele>1284</ele></trkpt><trkpt lat="45.980841" lon="10.287396"><time>2025-04-28T08:40:07.000Z</time><ele>1284</ele></trkpt><trkpt lat="45.980835" lon="10.287378"><time>2025-04-28T08:40:08.000Z</time><ele>1284</ele></trkpt><trkpt lat="45.98083" lon="10.287357"><time>2025-04-28T08:40:09.000Z</time><ele>1284</ele></trkpt><trkpt lat="45.980825" lon="10.28734"><time>2025-04-28T08:40:10.000Z</time><ele>1284</ele></trkpt><trkpt lat="45.980824" lon="10.28732"><time>2025-04-28T08:40:11.000Z</time><ele>1284</ele></trkpt><trkpt lat="45.980821" lon="10.287302"><time>2025-04-28T08:40:12.000Z</time><ele>1284</ele></trkpt><trkpt lat="45.980822" lon="10.287283"><time>2025-04-28T08:40:13.000Z</time><ele>1284</ele></trkpt><trkpt lat="45.980822" lon="10.287268"><time>2025-04-28T08:40:14.000Z</time><ele>1284.6</ele></trkpt><trkpt lat="45.980825" lon="10.287255"><time>2025-04-28T08:40:15.000Z</time><ele>1285</ele></trkpt><trkpt lat="45.980826" lon="10.287246"><time>2025-04-28T08:40:16.000Z</time><ele>1285.2</ele></trkpt><trkpt lat="45.980826" lon="10.287232"><time>2025-04-28T08:40:17.000Z</time><ele>1285.4</ele></trkpt><trkpt lat="45.980828" lon="10.287216"><time>2025-04-28T08:40:18.000Z</time><ele>1285.6</ele></trkpt><trkpt lat="45.980828" lon="10.287205"><time>2025-04-28T08:40:19.000Z</time><ele>1285.6</ele></trkpt><trkpt lat="45.980827" lon="10.287192"><time>2025-04-28T08:40:20.000Z</time><ele>1285.8</ele></trkpt><trkpt lat="45.980828" lon="10.287184"><time>2025-04-28T08:40:21.000Z</time><ele>1286</ele></trkpt><trkpt lat="45.980823" lon="10.287173"><time>2025-04-28T08:40:22.000Z</time><ele>1286.2</ele></trkpt><trkpt lat="45.980818" lon="10.28716"><time>2025-04-28T08:40:23.000Z</time><ele>1286.2</ele></trkpt><trkpt lat="45.980822" lon="10.287143"><time>2025-04-28T08:40:24.000Z</time><ele>1286.2</ele></trkpt><trkpt lat="45.980819" lon="10.287131"><time>2025-04-28T08:40:25.000Z</time><ele>1286.2</ele></trkpt><trkpt lat="45.980819" lon="10.28712"><time>2025-04-28T08:40:26.000Z</time><ele>1286.2</ele></trkpt><trkpt lat="45.980809" lon="10.287111"><time>2025-04-28T08:40:27.000Z</time><ele>1286.2</ele></trkpt><trkpt lat="45.980801" lon="10.287106"><time>2025-04-28T08:40:28.000Z</time><ele>1286.2</ele></trkpt><trkpt lat="45.980797" lon="10.287097"><time>2025-04-28T08:40:29.000Z</time><ele>1286.2</ele></trkpt><trkpt lat="45.980796" lon="10.287093"><time>2025-04-28T08:40:30.000Z</time><ele>1286.2</ele></trkpt><trkpt lat="45.980791" lon="10.287072"><time>2025-04-28T08:40:31.000Z</time><ele>1286.2</ele></trkpt><trkpt lat="45.980798" lon="10.287089"><time>2025-04-28T08:40:32.000Z</time><ele>1286.2</ele></trkpt><trkpt lat="45.980809" lon="10.287089"><time>2025-04-28T08:40:33.000Z</time><ele>1286.2</ele></trkpt><trkpt lat="45.980807" lon="10.287086"><time>2025-04-28T08:40:34.000Z</time><ele>1286.2</ele></trkpt><trkpt lat="45.980809" lon="10.287074"><time>2025-04-28T08:40:35.000Z</time><ele>1286.2</ele></trkpt><trkpt lat="45.980808" lon="10.287066"><time>2025-04-28T08:40:36.000Z</time><ele>1286.2</ele></trkpt><trkpt lat="45.98081" lon="10.287057"><time>2025-04-28T08:40:37.000Z</time><ele>1286.2</ele></trkpt><trkpt lat="45.980809" lon="10.287056"><time>2025-04-28T08:40:38.000Z</time><ele>1286.2</ele></trkpt><trkpt lat="45.980807" lon="10.287058"><time>2025-04-28T08:40:39.000Z</time><ele>1286.2</ele></trkpt><trkpt lat="45.980806" lon="10.287057"><time>2025-04-28T08:40:40.000Z</time><ele>1286.2</ele></trkpt><trkpt lat="45.980804" lon="10.287055"><time>2025-04-28T08:40:41.000Z</time><ele>1286.2</ele></trkpt><trkpt lat="45.980804" lon="10.287055"><time>2025-04-28T08:40:42.000Z</time><ele>1286.2</ele></trkpt><trkpt lat="45.980805" lon="10.287056"><time>2025-04-28T08:40:43.000Z</time><ele>1286.2</ele></trkpt><trkpt lat="45.980812" lon="10.287059"><time>2025-04-28T08:40:44.000Z</time><ele>1286.2</ele></trkpt><trkpt lat="45.980815" lon="10.287061"><time>2025-04-28T08:40:45.000Z</time><ele>1286.2</ele></trkpt><trkpt lat="45.980815" lon="10.287059"><time>2025-04-28T08:40:46.000Z</time><ele>1286.2</ele></trkpt><trkpt lat="45.980814" lon="10.287057"><time>2025-04-28T08:40:47.000Z</time><ele>1286.2</ele></trkpt><trkpt lat="45.980814" lon="10.287057"><time>2025-04-28T08:40:48.000Z</time><ele>1286</ele></trkpt><trkpt lat="45.980814" lon="10.287056"><time>2025-04-28T08:40:49.000Z</time><ele>1286.2</ele></trkpt><trkpt lat="45.980813" lon="10.287048"><time>2025-04-28T08:40:50.000Z</time><ele>1286.2</ele></trkpt><trkpt lat="45.980809" lon="10.287038"><time>2025-04-28T08:40:51.000Z</time><ele>1286.2</ele></trkpt><trkpt lat="45.980805" lon="10.287021"><time>2025-04-28T08:40:52.000Z</time><ele>1286</ele></trkpt><trkpt lat="45.980798" lon="10.287006"><time>2025-04-28T08:40:53.000Z</time><ele>1286</ele></trkpt><trkpt lat="45.980789" lon="10.28699"><time>2025-04-28T08:40:54.000Z</time><ele>1286</ele></trkpt><trkpt lat="45.980784" lon="10.286977"><time>2025-04-28T08:40:55.000Z</time><ele>1285.8</ele></trkpt><trkpt lat="45.980778" lon="10.28696"><time>2025-04-28T08:40:56.000Z</time><ele>1285.8</ele></trkpt><trkpt lat="45.98077" lon="10.286941"><time>2025-04-28T08:40:57.000Z</time><ele>1285.6</ele></trkpt><trkpt lat="45.980762" lon="10.286923"><time>2025-04-28T08:40:58.000Z</time><ele>1285.6</ele></trkpt><trkpt lat="45.980756" lon="10.286917"><time>2025-04-28T08:40:59.000Z</time><ele>1285.4</ele></trkpt><trkpt lat="45.980748" lon="10.286915"><time>2025-04-28T08:41:00.000Z</time><ele>1285.4</ele></trkpt><trkpt lat="45.980742" lon="10.286909"><time>2025-04-28T08:41:01.000Z</time><ele>1285.2</ele></trkpt><trkpt lat="45.980738" lon="10.286897"><time>2025-04-28T08:41:02.000Z</time><ele>1285</ele></trkpt><trkpt lat="45.98073" lon="10.286886"><time>2025-04-28T08:41:03.000Z</time><ele>1284.8</ele></trkpt><trkpt lat="45.980721" lon="10.286873"><time>2025-04-28T08:41:04.000Z</time><ele>1284.6</ele></trkpt><trkpt lat="45.980709" lon="10.286862"><time>2025-04-28T08:41:05.000Z</time><ele>1284.6</ele></trkpt><trkpt lat="45.980698" lon="10.286856"><time>2025-04-28T08:41:06.000Z</time><ele>1284.6</ele></trkpt><trkpt lat="45.980688" lon="10.286854"><time>2025-04-28T08:41:07.000Z</time><ele>1284.4</ele></trkpt><trkpt lat="45.980677" lon="10.286848"><time>2025-04-28T08:41:08.000Z</time><ele>1284.2</ele></trkpt><trkpt lat="45.980666" lon="10.286842"><time>2025-04-28T08:41:09.000Z</time><ele>1284</ele></trkpt><trkpt lat="45.980658" lon="10.286842"><time>2025-04-28T08:41:10.000Z</time><ele>1283.8</ele></trkpt><trkpt lat="45.980651" lon="10.286837"><time>2025-04-28T08:41:11.000Z</time><ele>1283.4</ele></trkpt><trkpt lat="45.980641" lon="10.286839"><time>2025-04-28T08:41:12.000Z</time><ele>1283.2</ele></trkpt><trkpt lat="45.980629" lon="10.286838"><time>2025-04-28T08:41:13.000Z</time><ele>1283.2</ele></trkpt><trkpt lat="45.980615" lon="10.286837"><time>2025-04-28T08:41:14.000Z</time><ele>1283</ele></trkpt><trkpt lat="45.980606" lon="10.286838"><time>2025-04-28T08:41:15.000Z</time><ele>1282.8</ele></trkpt><trkpt lat="45.980594" lon="10.286845"><time>2025-04-28T08:41:16.000Z</time><ele>1282.6</ele></trkpt><trkpt lat="45.980586" lon="10.286847"><time>2025-04-28T08:41:17.000Z</time><ele>1282.2</ele></trkpt><trkpt lat="45.980576" lon="10.286849"><time>2025-04-28T08:41:18.000Z</time><ele>1282</ele></trkpt><trkpt lat="45.980565" lon="10.286844"><time>2025-04-28T08:41:19.000Z</time><ele>1281.8</ele></trkpt><trkpt lat="45.980548" lon="10.286837"><time>2025-04-28T08:41:20.000Z</time><ele>1281.8</ele></trkpt><trkpt lat="45.980541" lon="10.286837"><time>2025-04-28T08:41:21.000Z</time><ele>1281.6</ele></trkpt><trkpt lat="45.980535" lon="10.286838"><time>2025-04-28T08:41:22.000Z</time><ele>1281.4</ele></trkpt><trkpt lat="45.980532" lon="10.286837"><time>2025-04-28T08:41:23.000Z</time><ele>1281.2</ele></trkpt><trkpt lat="45.980531" lon="10.286834"><time>2025-04-28T08:41:24.000Z</time><ele>1281.2</ele></trkpt><trkpt lat="45.980531" lon="10.286832"><time>2025-04-28T08:41:25.000Z</time><ele>1281.2</ele></trkpt><trkpt lat="45.98053" lon="10.28683"><time>2025-04-28T08:41:26.000Z</time><ele>1281.2</ele></trkpt><trkpt lat="45.980524" lon="10.286834"><time>2025-04-28T08:41:27.000Z</time><ele>1281.4</ele></trkpt><trkpt lat="45.980522" lon="10.286835"><time>2025-04-28T08:41:28.000Z</time><ele>1281.4</ele></trkpt><trkpt lat="45.980521" lon="10.286837"><time>2025-04-28T08:41:29.000Z</time><ele>1281.4</ele></trkpt><trkpt lat="45.980522" lon="10.286838"><time>2025-04-28T08:41:30.000Z</time><ele>1281.4</ele></trkpt><trkpt lat="45.980519" lon="10.286837"><time>2025-04-28T08:41:31.000Z</time><ele>1281.2</ele></trkpt><trkpt lat="45.980519" lon="10.286836"><time>2025-04-28T08:41:32.000Z</time><ele>1281.2</ele></trkpt><trkpt lat="45.980519" lon="10.286833"><time>2025-04-28T08:41:33.000Z</time><ele>1281.2</ele></trkpt><trkpt lat="45.980522" lon="10.286828"><time>2025-04-28T08:41:34.000Z</time><ele>1281.2</ele></trkpt><trkpt lat="45.980519" lon="10.286819"><time>2025-04-28T08:41:35.000Z</time><ele>1281.2</ele></trkpt><trkpt lat="45.980518" lon="10.286808"><time>2025-04-28T08:41:36.000Z</time><ele>1281.2</ele></trkpt><trkpt lat="45.980513" lon="10.286798"><time>2025-04-28T08:41:37.000Z</time><ele>1281.2</ele></trkpt><trkpt lat="45.980505" lon="10.286787"><time>2025-04-28T08:41:38.000Z</time><ele>1281.2</ele></trkpt><trkpt lat="45.980501" lon="10.286772"><time>2025-04-28T08:41:39.000Z</time><ele>1281</ele></trkpt><trkpt lat="45.9805" lon="10.286758"><time>2025-04-28T08:41:40.000Z</time><ele>1281</ele></trkpt><trkpt lat="45.980494" lon="10.286743"><time>2025-04-28T08:41:41.000Z</time><ele>1281</ele></trkpt><trkpt lat="45.98049" lon="10.286724"><time>2025-04-28T08:41:42.000Z</time><ele>1281</ele></trkpt><trkpt lat="45.980487" lon="10.286703"><time>2025-04-28T08:41:43.000Z</time><ele>1280.8</ele></trkpt><trkpt lat="45.980484" lon="10.286684"><time>2025-04-28T08:41:44.000Z</time><ele>1280.6</ele></trkpt><trkpt lat="45.980481" lon="10.286668"><time>2025-04-28T08:41:45.000Z</time><ele>1280.4</ele></trkpt><trkpt lat="45.980477" lon="10.286652"><time>2025-04-28T08:41:46.000Z</time><ele>1280.4</ele></trkpt><trkpt lat="45.980472" lon="10.286635"><time>2025-04-28T08:41:47.000Z</time><ele>1280.2</ele></trkpt><trkpt lat="45.980465" lon="10.286619"><time>2025-04-28T08:41:48.000Z</time><ele>1280.2</ele></trkpt><trkpt lat="45.980462" lon="10.286606"><time>2025-04-28T08:41:49.000Z</time><ele>1280</ele></trkpt><trkpt lat="45.980456" lon="10.286592"><time>2025-04-28T08:41:50.000Z</time><ele>1280</ele></trkpt><trkpt lat="45.980451" lon="10.286582"><time>2025-04-28T08:41:51.000Z</time><ele>1280</ele></trkpt><trkpt lat="45.980446" lon="10.28657"><time>2025-04-28T08:41:52.000Z</time><ele>1279.8</ele></trkpt><trkpt lat="45.980438" lon="10.286557"><time>2025-04-28T08:41:53.000Z</time><ele>1279.8</ele></trkpt><trkpt lat="45.980432" lon="10.286546"><time>2025-04-28T08:41:54.000Z</time><ele>1279.8</ele></trkpt><trkpt lat="45.980426" lon="10.286535"><time>2025-04-28T08:41:55.000Z</time><ele>1280</ele></trkpt><trkpt lat="45.980422" lon="10.286529"><time>2025-04-28T08:41:56.000Z</time><ele>1280</ele></trkpt><trkpt lat="45.980419" lon="10.286526"><time>2025-04-28T08:41:57.000Z</time><ele>1280</ele></trkpt><trkpt lat="45.980419" lon="10.286521"><time>2025-04-28T08:41:58.000Z</time><ele>1280</ele></trkpt><trkpt lat="45.980424" lon="10.286515"><time>2025-04-28T08:41:59.000Z</time><ele>1280</ele></trkpt><trkpt lat="45.980429" lon="10.286507"><time>2025-04-28T08:42:00.000Z</time><ele>1280</ele></trkpt><trkpt lat="45.980431" lon="10.286504"><time>2025-04-28T08:42:01.000Z</time><ele>1280</ele></trkpt><trkpt lat="45.980433" lon="10.286503"><time>2025-04-28T08:42:02.000Z</time><ele>1280</ele></trkpt><trkpt lat="45.980444" lon="10.286489"><time>2025-04-28T08:42:03.000Z</time><ele>1280</ele></trkpt><trkpt lat="45.980448" lon="10.286489"><time>2025-04-28T08:42:04.000Z</time><ele>1280</ele></trkpt><trkpt lat="45.980453" lon="10.286487"><time>2025-04-28T08:42:05.000Z</time><ele>1280</ele></trkpt><trkpt lat="45.980464" lon="10.286484"><time>2025-04-28T08:42:06.000Z</time><ele>1280</ele></trkpt><trkpt lat="45.980469" lon="10.286481"><time>2025-04-28T08:42:07.000Z</time><ele>1280</ele></trkpt><trkpt lat="45.98047" lon="10.28648"><time>2025-04-28T08:42:08.000Z</time><ele>1280</ele></trkpt><trkpt lat="45.98048" lon="10.286504"><time>2025-04-28T08:42:09.000Z</time><ele>1279.8</ele></trkpt><trkpt lat="45.98047" lon="10.286545"><time>2025-04-28T08:42:10.000Z</time><ele>1279.8</ele></trkpt><trkpt lat="45.980471" lon="10.286545"><time>2025-04-28T08:42:11.000Z</time><ele>1279.8</ele></trkpt><trkpt lat="45.980469" lon="10.286544"><time>2025-04-28T08:42:12.000Z</time><ele>1279.8</ele></trkpt><trkpt lat="45.980469" lon="10.286543"><time>2025-04-28T08:42:13.000Z</time><ele>1279.8</ele></trkpt><trkpt lat="45.980468" lon="10.286541"><time>2025-04-28T08:42:14.000Z</time><ele>1279.8</ele></trkpt><trkpt lat="45.980469" lon="10.286542"><time>2025-04-28T08:42:15.000Z</time><ele>1279.8</ele></trkpt><trkpt lat="45.980467" lon="10.286544"><time>2025-04-28T08:42:16.000Z</time><ele>1279.8</ele></trkpt><trkpt lat="45.980465" lon="10.286544"><time>2025-04-28T08:42:17.000Z</time><ele>1279.8</ele></trkpt><trkpt lat="45.980465" lon="10.286545"><time>2025-04-28T08:42:18.000Z</time><ele>1279.8</ele></trkpt><trkpt lat="45.980465" lon="10.286545"><time>2025-04-28T08:42:19.000Z</time><ele>1279.8</ele></trkpt><trkpt lat="45.980465" lon="10.286545"><time>2025-04-28T08:42:20.000Z</time><ele>1279.8</ele></trkpt><trkpt lat="45.980465" lon="10.286545"><time>2025-04-28T08:42:21.000Z</time><ele>1279.8</ele></trkpt><trkpt lat="45.980465" lon="10.286545"><time>2025-04-28T08:42:22.000Z</time><ele>1279.8</ele></trkpt><trkpt lat="45.980465" lon="10.286545"><time>2025-04-28T08:42:23.000Z</time><ele>1279.8</ele></trkpt><trkpt lat="45.980465" lon="10.286545"><time>2025-04-28T08:42:24.000Z</time><ele>1280</ele></trkpt><trkpt lat="45.980465" lon="10.286545"><time>2025-04-28T08:42:25.000Z</time><ele>1280</ele></trkpt><trkpt lat="45.980465" lon="10.286545"><time>2025-04-28T08:42:26.000Z</time><ele>1280</ele></trkpt><trkpt lat="45.980465" lon="10.286545"><time>2025-04-28T08:42:27.000Z</time><ele>1280</ele></trkpt><trkpt lat="45.980465" lon="10.286545"><time>2025-04-28T08:42:28.000Z</time><ele>1280</ele></trkpt><trkpt lat="45.980465" lon="10.286545"><time>2025-04-28T08:42:29.000Z</time><ele>1280</ele></trkpt><trkpt lat="45.980466" lon="10.286545"><time>2025-04-28T08:42:30.000Z</time><ele>1280</ele></trkpt><trkpt lat="45.980467" lon="10.286545"><time>2025-04-28T08:42:31.000Z</time><ele>1280</ele></trkpt><trkpt lat="45.980468" lon="10.286545"><time>2025-04-28T08:42:32.000Z</time><ele>1280</ele></trkpt><trkpt lat="45.980468" lon="10.286545"><time>2025-04-28T08:42:33.000Z</time><ele>1280</ele></trkpt><trkpt lat="45.980468" lon="10.286545"><time>2025-04-28T08:42:34.000Z</time><ele>1279.8</ele></trkpt><trkpt lat="45.980468" lon="10.286545"><time>2025-04-28T08:42:35.000Z</time><ele>1279.8</ele></trkpt><trkpt lat="45.980468" lon="10.286545"><time>2025-04-28T08:42:36.000Z</time><ele>1279.8</ele></trkpt><trkpt lat="45.980468" lon="10.286545"><time>2025-04-28T08:42:37.000Z</time><ele>1279.8</ele></trkpt><trkpt lat="45.980468" lon="10.286545"><time>2025-04-28T08:42:38.000Z</time><ele>1279.8</ele></trkpt><trkpt lat="45.980468" lon="10.286545"><time>2025-04-28T08:42:39.000Z</time><ele>1279.8</ele></trkpt><trkpt lat="45.980467" lon="10.286545"><time>2025-04-28T08:42:40.000Z</time><ele>1280</ele></trkpt><trkpt lat="45.980467" lon="10.286545"><time>2025-04-28T08:42:41.000Z</time><ele>1280</ele></trkpt><trkpt lat="45.980466" lon="10.286545"><time>2025-04-28T08:42:42.000Z</time><ele>1280</ele></trkpt><trkpt lat="45.980465" lon="10.286547"><time>2025-04-28T08:42:43.000Z</time><ele>1280</ele></trkpt><trkpt lat="45.980465" lon="10.286548"><time>2025-04-28T08:42:44.000Z</time><ele>1280</ele></trkpt><trkpt lat="45.980465" lon="10.286548"><time>2025-04-28T08:42:45.000Z</time><ele>1280</ele></trkpt><trkpt lat="45.980465" lon="10.286549"><time>2025-04-28T08:42:46.000Z</time><ele>1279.8</ele></trkpt><trkpt lat="45.980464" lon="10.286553"><time>2025-04-28T08:42:47.000Z</time><ele>1279.8</ele></trkpt><trkpt lat="45.980464" lon="10.286556"><time>2025-04-28T08:42:48.000Z</time><ele>1279.8</ele></trkpt><trkpt lat="45.980464" lon="10.286556"><time>2025-04-28T08:42:49.000Z</time><ele>1279.8</ele></trkpt><trkpt lat="45.980464" lon="10.286558"><time>2025-04-28T08:42:50.000Z</time><ele>1279.8</ele></trkpt><trkpt lat="45.980463" lon="10.286558"><time>2025-04-28T08:42:51.000Z</time><ele>1279.8</ele></trkpt><trkpt lat="45.980462" lon="10.286559"><time>2025-04-28T08:42:52.000Z</time><ele>1279.6</ele></trkpt><trkpt lat="45.980462" lon="10.28656"><time>2025-04-28T08:42:53.000Z</time><ele>1279.6</ele></trkpt><trkpt lat="45.980462" lon="10.28656"><time>2025-04-28T08:42:54.000Z</time><ele>1279.6</ele></trkpt><trkpt lat="45.980461" lon="10.28656"><time>2025-04-28T08:42:55.000Z</time><ele>1279.6</ele></trkpt><trkpt lat="45.980461" lon="10.286561"><time>2025-04-28T08:42:56.000Z</time><ele>1279.6</ele></trkpt><trkpt lat="45.98046" lon="10.286561"><time>2025-04-28T08:42:57.000Z</time><ele>1279.6</ele></trkpt><trkpt lat="45.98046" lon="10.286562"><time>2025-04-28T08:42:58.000Z</time><ele>1279.6</ele></trkpt><trkpt lat="45.980458" lon="10.286563"><time>2025-04-28T08:42:59.000Z</time><ele>1279.6</ele></trkpt><trkpt lat="45.980458" lon="10.286563"><time>2025-04-28T08:43:00.000Z</time><ele>1279.6</ele></trkpt><trkpt lat="45.980457" lon="10.286564"><time>2025-04-28T08:43:01.000Z</time><ele>1279.6</ele></trkpt><trkpt lat="45.980457" lon="10.286564"><time>2025-04-28T08:43:02.000Z</time><ele>1279.6</ele></trkpt><trkpt lat="45.980457" lon="10.286564"><time>2025-04-28T08:43:03.000Z</time><ele>1279.6</ele></trkpt><trkpt lat="45.980456" lon="10.286565"><time>2025-04-28T08:43:04.000Z</time><ele>1279.4</ele></trkpt><trkpt lat="45.980456" lon="10.286565"><time>2025-04-28T08:43:05.000Z</time><ele>1279.4</ele></trkpt><trkpt lat="45.980456" lon="10.286565"><time>2025-04-28T08:43:06.000Z</time><ele>1279.4</ele></trkpt><trkpt lat="45.980456" lon="10.286565"><time>2025-04-28T08:43:07.000Z</time><ele>1279.4</ele></trkpt><trkpt lat="45.980456" lon="10.286565"><time>2025-04-28T08:43:08.000Z</time><ele>1279.2</ele></trkpt><trkpt lat="45.980456" lon="10.286565"><time>2025-04-28T08:43:09.000Z</time><ele>1279.4</ele></trkpt><trkpt lat="45.980455" lon="10.286565"><time>2025-04-28T08:43:10.000Z</time><ele>1279.4</ele></trkpt><trkpt lat="45.980455" lon="10.286565"><time>2025-04-28T08:43:11.000Z</time><ele>1279.4</ele></trkpt><trkpt lat="45.980454" lon="10.286565"><time>2025-04-28T08:43:12.000Z</time><ele>1279.4</ele></trkpt><trkpt lat="45.980454" lon="10.286565"><time>2025-04-28T08:43:13.000Z</time><ele>1279.4</ele></trkpt><trkpt lat="45.980453" lon="10.286565"><time>2025-04-28T08:43:14.000Z</time><ele>1279.4</ele></trkpt><trkpt lat="45.980453" lon="10.286565"><time>2025-04-28T08:43:15.000Z</time><ele>1279.6</ele></trkpt><trkpt lat="45.980452" lon="10.286565"><time>2025-04-28T08:43:16.000Z</time><ele>1279.6</ele></trkpt><trkpt lat="45.980452" lon="10.286564"><time>2025-04-28T08:43:17.000Z</time><ele>1279.4</ele></trkpt><trkpt lat="45.980452" lon="10.286563"><time>2025-04-28T08:43:18.000Z</time><ele>1279.4</ele></trkpt><trkpt lat="45.980448" lon="10.286563"><time>2025-04-28T08:43:19.000Z</time><ele>1279.4</ele></trkpt><trkpt lat="45.980443" lon="10.286558"><time>2025-04-28T08:43:20.000Z</time><ele>1279.4</ele></trkpt><trkpt lat="45.980441" lon="10.286556"><time>2025-04-28T08:43:21.000Z</time><ele>1279.4</ele></trkpt><trkpt lat="45.980435" lon="10.286556"><time>2025-04-28T08:43:22.000Z</time><ele>1279.4</ele></trkpt><trkpt lat="45.980427" lon="10.286555"><time>2025-04-28T08:43:23.000Z</time><ele>1279.4</ele></trkpt><trkpt lat="45.980422" lon="10.286555"><time>2025-04-28T08:43:24.000Z</time><ele>1279.4</ele></trkpt><trkpt lat="45.980418" lon="10.286555"><time>2025-04-28T08:43:25.000Z</time><ele>1279.4</ele></trkpt><trkpt lat="45.980413" lon="10.286552"><time>2025-04-28T08:43:26.000Z</time><ele>1279.4</ele></trkpt><trkpt lat="45.98041" lon="10.286551"><time>2025-04-28T08:43:27.000Z</time><ele>1279.4</ele></trkpt><trkpt lat="45.980408" lon="10.286551"><time>2025-04-28T08:43:28.000Z</time><ele>1279.4</ele></trkpt><trkpt lat="45.980407" lon="10.286551"><time>2025-04-28T08:43:29.000Z</time><ele>1279.4</ele></trkpt><trkpt lat="45.980405" lon="10.286551"><time>2025-04-28T08:43:30.000Z</time><ele>1279.4</ele></trkpt><trkpt lat="45.980404" lon="10.286551"><time>2025-04-28T08:43:31.000Z</time><ele>1279.4</ele></trkpt><trkpt lat="45.980403" lon="10.286551"><time>2025-04-28T08:43:32.000Z</time><ele>1279.4</ele></trkpt><trkpt lat="45.980401" lon="10.286551"><time>2025-04-28T08:43:33.000Z</time><ele>1279.4</ele></trkpt><trkpt lat="45.980399" lon="10.286551"><time>2025-04-28T08:43:34.000Z</time><ele>1279.4</ele></trkpt><trkpt lat="45.980398" lon="10.286551"><time>2025-04-28T08:43:35.000Z</time><ele>1279.4</ele></trkpt><trkpt lat="45.980397" lon="10.286551"><time>2025-04-28T08:43:36.000Z</time><ele>1279.4</ele></trkpt><trkpt lat="45.980396" lon="10.286551"><time>2025-04-28T08:43:37.000Z</time><ele>1279.4</ele></trkpt><trkpt lat="45.980396" lon="10.286551"><time>2025-04-28T08:43:38.000Z</time><ele>1279.4</ele></trkpt><trkpt lat="45.980395" lon="10.286551"><time>2025-04-28T08:43:39.000Z</time><ele>1279.4</ele></trkpt><trkpt lat="45.980395" lon="10.286551"><time>2025-04-28T08:43:40.000Z</time><ele>1279.4</ele></trkpt><trkpt lat="45.980394" lon="10.286551"><time>2025-04-28T08:43:41.000Z</time><ele>1279.4</ele></trkpt><trkpt lat="45.980394" lon="10.286551"><time>2025-04-28T08:43:42.000Z</time><ele>1279.4</ele></trkpt><trkpt lat="45.980394" lon="10.286551"><time>2025-04-28T08:43:43.000Z</time><ele>1279.4</ele></trkpt><trkpt lat="45.980394" lon="10.286551"><time>2025-04-28T08:43:44.000Z</time><ele>1279.4</ele></trkpt><trkpt lat="45.980393" lon="10.286551"><time>2025-04-28T08:43:45.000Z</time><ele>1279.4</ele></trkpt><trkpt lat="45.980392" lon="10.286551"><time>2025-04-28T08:43:46.000Z</time><ele>1279.4</ele></trkpt><trkpt lat="45.980389" lon="10.286551"><time>2025-04-28T08:43:47.000Z</time><ele>1279.4</ele></trkpt><trkpt lat="45.980385" lon="10.286551"><time>2025-04-28T08:43:48.000Z</time><ele>1279.4</ele></trkpt><trkpt lat="45.980383" lon="10.286551"><time>2025-04-28T08:43:49.000Z</time><ele>1279.4</ele></trkpt><trkpt lat="45.980382" lon="10.286551"><time>2025-04-28T08:43:50.000Z</time><ele>1279.4</ele></trkpt><trkpt lat="45.980381" lon="10.286551"><time>2025-04-28T08:43:51.000Z</time><ele>1279.4</ele></trkpt><trkpt lat="45.980379" lon="10.286551"><time>2025-04-28T08:43:52.000Z</time><ele>1279.4</ele></trkpt><trkpt lat="45.980377" lon="10.286551"><time>2025-04-28T08:43:53.000Z</time><ele>1279.4</ele></trkpt><trkpt lat="45.980375" lon="10.286552"><time>2025-04-28T08:43:54.000Z</time><ele>1279.4</ele></trkpt><trkpt lat="45.980373" lon="10.286552"><time>2025-04-28T08:43:55.000Z</time><ele>1279.4</ele></trkpt><trkpt lat="45.980372" lon="10.286553"><time>2025-04-28T08:43:56.000Z</time><ele>1279.4</ele></trkpt><trkpt lat="45.980371" lon="10.286554"><time>2025-04-28T08:43:57.000Z</time><ele>1279.4</ele></trkpt><trkpt lat="45.980369" lon="10.286554"><time>2025-04-28T08:43:58.000Z</time><ele>1279.4</ele></trkpt><trkpt lat="45.980368" lon="10.286553"><time>2025-04-28T08:43:59.000Z</time><ele>1279.4</ele></trkpt><trkpt lat="45.980367" lon="10.286553"><time>2025-04-28T08:44:00.000Z</time><ele>1279.4</ele></trkpt><trkpt lat="45.980366" lon="10.286553"><time>2025-04-28T08:44:01.000Z</time><ele>1279.4</ele></trkpt><trkpt lat="45.980366" lon="10.286553"><time>2025-04-28T08:44:02.000Z</time><ele>1279.4</ele></trkpt><trkpt lat="45.980365" lon="10.286553"><time>2025-04-28T08:44:03.000Z</time><ele>1279.4</ele></trkpt><trkpt lat="45.980364" lon="10.286552"><time>2025-04-28T08:44:04.000Z</time><ele>1279.4</ele></trkpt><trkpt lat="45.980363" lon="10.286552"><time>2025-04-28T08:44:05.000Z</time><ele>1279.4</ele></trkpt><trkpt lat="45.980363" lon="10.286552"><time>2025-04-28T08:44:06.000Z</time><ele>1279.4</ele></trkpt><trkpt lat="45.980362" lon="10.286551"><time>2025-04-28T08:44:07.000Z</time><ele>1279.4</ele></trkpt><trkpt lat="45.98036" lon="10.28655"><time>2025-04-28T08:44:08.000Z</time><ele>1279.4</ele></trkpt><trkpt lat="45.980357" lon="10.28655"><time>2025-04-28T08:44:09.000Z</time><ele>1279.4</ele></trkpt><trkpt lat="45.980355" lon="10.286549"><time>2025-04-28T08:44:10.000Z</time><ele>1279.4</ele></trkpt><trkpt lat="45.980353" lon="10.286548"><time>2025-04-28T08:44:11.000Z</time><ele>1279.4</ele></trkpt><trkpt lat="45.980353" lon="10.286547"><time>2025-04-28T08:44:12.000Z</time><ele>1279.4</ele></trkpt><trkpt lat="45.980352" lon="10.286545"><time>2025-04-28T08:44:13.000Z</time><ele>1279.4</ele></trkpt><trkpt lat="45.980351" lon="10.286545"><time>2025-04-28T08:44:14.000Z</time><ele>1279.4</ele></trkpt><trkpt lat="45.980347" lon="10.286539"><time>2025-04-28T08:44:15.000Z</time><ele>1279.4</ele></trkpt><trkpt lat="45.980335" lon="10.286524"><time>2025-04-28T08:44:16.000Z</time><ele>1279.4</ele></trkpt><trkpt lat="45.980324" lon="10.286512"><time>2025-04-28T08:44:17.000Z</time><ele>1279.4</ele></trkpt><trkpt lat="45.980312" lon="10.286498"><time>2025-04-28T08:44:18.000Z</time><ele>1279.4</ele></trkpt><trkpt lat="45.980298" lon="10.28648"><time>2025-04-28T08:44:19.000Z</time><ele>1279.4</ele></trkpt><trkpt lat="45.980282" lon="10.286465"><time>2025-04-28T08:44:20.000Z</time><ele>1279.4</ele></trkpt><trkpt lat="45.980269" lon="10.286451"><time>2025-04-28T08:44:21.000Z</time><ele>1279.4</ele></trkpt><trkpt lat="45.980259" lon="10.286438"><time>2025-04-28T08:44:22.000Z</time><ele>1279.4</ele></trkpt><trkpt lat="45.980248" lon="10.28642"><time>2025-04-28T08:44:23.000Z</time><ele>1279.4</ele></trkpt><trkpt lat="45.980239" lon="10.286393"><time>2025-04-28T08:44:24.000Z</time><ele>1279.4</ele></trkpt><trkpt lat="45.980225" lon="10.286373"><time>2025-04-28T08:44:25.000Z</time><ele>1279.2</ele></trkpt><trkpt lat="45.980208" lon="10.286357"><time>2025-04-28T08:44:26.000Z</time><ele>1279</ele></trkpt><trkpt lat="45.980196" lon="10.286344"><time>2025-04-28T08:44:27.000Z</time><ele>1279</ele></trkpt><trkpt lat="45.980192" lon="10.286331"><time>2025-04-28T08:44:28.000Z</time><ele>1278.8</ele></trkpt><trkpt lat="45.980179" lon="10.286315"><time>2025-04-28T08:44:29.000Z</time><ele>1278.8</ele></trkpt><trkpt lat="45.980168" lon="10.286303"><time>2025-04-28T08:44:30.000Z</time><ele>1278.8</ele></trkpt><trkpt lat="45.980158" lon="10.286287"><time>2025-04-28T08:44:31.000Z</time><ele>1278.8</ele></trkpt><trkpt lat="45.980149" lon="10.286273"><time>2025-04-28T08:44:32.000Z</time><ele>1278.8</ele></trkpt><trkpt lat="45.980137" lon="10.286265"><time>2025-04-28T08:44:33.000Z</time><ele>1278.8</ele></trkpt><trkpt lat="45.980123" lon="10.286255"><time>2025-04-28T08:44:34.000Z</time><ele>1278.8</ele></trkpt><trkpt lat="45.980114" lon="10.286255"><time>2025-04-28T08:44:35.000Z</time><ele>1278.6</ele></trkpt><trkpt lat="45.980107" lon="10.286252"><time>2025-04-28T08:44:36.000Z</time><ele>1278.6</ele></trkpt><trkpt lat="45.980096" lon="10.286249"><time>2025-04-28T08:44:37.000Z</time><ele>1278.6</ele></trkpt><trkpt lat="45.980081" lon="10.286243"><time>2025-04-28T08:44:38.000Z</time><ele>1278.4</ele></trkpt><trkpt lat="45.980062" lon="10.286244"><time>2025-04-28T08:44:39.000Z</time><ele>1278.4</ele></trkpt><trkpt lat="45.980045" lon="10.286247"><time>2025-04-28T08:44:40.000Z</time><ele>1278.4</ele></trkpt><trkpt lat="45.980027" lon="10.286244"><time>2025-04-28T08:44:41.000Z</time><ele>1278.4</ele></trkpt><trkpt lat="45.980014" lon="10.286249"><time>2025-04-28T08:44:42.000Z</time><ele>1278.4</ele></trkpt><trkpt lat="45.979995" lon="10.286244"><time>2025-04-28T08:44:43.000Z</time><ele>1278.2</ele></trkpt><trkpt lat="45.979977" lon="10.286235"><time>2025-04-28T08:44:44.000Z</time><ele>1278.2</ele></trkpt><trkpt lat="45.979954" lon="10.286239"><time>2025-04-28T08:44:45.000Z</time><ele>1278.2</ele></trkpt><trkpt lat="45.979923" lon="10.286229"><time>2025-04-28T08:44:46.000Z</time><ele>1278</ele></trkpt><trkpt lat="45.979898" lon="10.286234"><time>2025-04-28T08:44:47.000Z</time><ele>1278</ele></trkpt><trkpt lat="45.979891" lon="10.286227"><time>2025-04-28T08:44:48.000Z</time><ele>1278</ele></trkpt><trkpt lat="45.979884" lon="10.286226"><time>2025-04-28T08:44:49.000Z</time><ele>1277.8</ele></trkpt><trkpt lat="45.979868" lon="10.286241"><time>2025-04-28T08:44:50.000Z</time><ele>1276.6</ele></trkpt><trkpt lat="45.979848" lon="10.286254"><time>2025-04-28T08:44:51.000Z</time><ele>1276.6</ele></trkpt><trkpt lat="45.979841" lon="10.286259"><time>2025-04-28T08:44:52.000Z</time><ele>1276.6</ele></trkpt><trkpt lat="45.979832" lon="10.286267"><time>2025-04-28T08:44:53.000Z</time><ele>1276.6</ele></trkpt><trkpt lat="45.979818" lon="10.286271"><time>2025-04-28T08:44:54.000Z</time><ele>1276.6</ele></trkpt><trkpt lat="45.979802" lon="10.286275"><time>2025-04-28T08:44:55.000Z</time><ele>1276.6</ele></trkpt><trkpt lat="45.979788" lon="10.286279"><time>2025-04-28T08:44:56.000Z</time><ele>1276.4</ele></trkpt><trkpt lat="45.979773" lon="10.286284"><time>2025-04-28T08:44:57.000Z</time><ele>1276.4</ele></trkpt><trkpt lat="45.97976" lon="10.286288"><time>2025-04-28T08:44:58.000Z</time><ele>1276.2</ele></trkpt><trkpt lat="45.979749" lon="10.286288"><time>2025-04-28T08:44:59.000Z</time><ele>1276.2</ele></trkpt><trkpt lat="45.97974" lon="10.286294"><time>2025-04-28T08:45:00.000Z</time><ele>1276</ele></trkpt><trkpt lat="45.979728" lon="10.286298"><time>2025-04-28T08:45:01.000Z</time><ele>1275.8</ele></trkpt><trkpt lat="45.979716" lon="10.286301"><time>2025-04-28T08:45:02.000Z</time><ele>1275.8</ele></trkpt><trkpt lat="45.979704" lon="10.286314"><time>2025-04-28T08:45:03.000Z</time><ele>1275.6</ele></trkpt><trkpt lat="45.97969" lon="10.286326"><time>2025-04-28T08:45:04.000Z</time><ele>1275.6</ele></trkpt><trkpt lat="45.979683" lon="10.286335"><time>2025-04-28T08:45:05.000Z</time><ele>1275.4</ele></trkpt><trkpt lat="45.979676" lon="10.286344"><time>2025-04-28T08:45:06.000Z</time><ele>1275.4</ele></trkpt><trkpt lat="45.979663" lon="10.286348"><time>2025-04-28T08:45:07.000Z</time><ele>1275.4</ele></trkpt><trkpt lat="45.979647" lon="10.28635"><time>2025-04-28T08:45:08.000Z</time><ele>1275.2</ele></trkpt><trkpt lat="45.97963" lon="10.286347"><time>2025-04-28T08:45:09.000Z</time><ele>1275.2</ele></trkpt><trkpt lat="45.979607" lon="10.286343"><time>2025-04-28T08:45:10.000Z</time><ele>1275.2</ele></trkpt><trkpt lat="45.979588" lon="10.286337"><time>2025-04-28T08:45:11.000Z</time><ele>1275</ele></trkpt><trkpt lat="45.979574" lon="10.286334"><time>2025-04-28T08:45:12.000Z</time><ele>1275</ele></trkpt><trkpt lat="45.979564" lon="10.28633"><time>2025-04-28T08:45:13.000Z</time><ele>1275</ele></trkpt><trkpt lat="45.979552" lon="10.286322"><time>2025-04-28T08:45:14.000Z</time><ele>1274.8</ele></trkpt><trkpt lat="45.979535" lon="10.286319"><time>2025-04-28T08:45:15.000Z</time><ele>1274.6</ele></trkpt><trkpt lat="45.979522" lon="10.286313"><time>2025-04-28T08:45:16.000Z</time><ele>1274.6</ele></trkpt><trkpt lat="45.979509" lon="10.286305"><time>2025-04-28T08:45:17.000Z</time><ele>1274.4</ele></trkpt><trkpt lat="45.979494" lon="10.286293"><time>2025-04-28T08:45:18.000Z</time><ele>1274.4</ele></trkpt><trkpt lat="45.979484" lon="10.286292"><time>2025-04-28T08:45:19.000Z</time><ele>1274.2</ele></trkpt><trkpt lat="45.979477" lon="10.286289"><time>2025-04-28T08:45:20.000Z</time><ele>1274</ele></trkpt><trkpt lat="45.979469" lon="10.286277"><time>2025-04-28T08:45:21.000Z</time><ele>1274</ele></trkpt><trkpt lat="45.979462" lon="10.286266"><time>2025-04-28T08:45:22.000Z</time><ele>1274</ele></trkpt><trkpt lat="45.979449" lon="10.286254"><time>2025-04-28T08:45:23.000Z</time><ele>1273.8</ele></trkpt><trkpt lat="45.979432" lon="10.286242"><time>2025-04-28T08:45:24.000Z</time><ele>1273.8</ele></trkpt><trkpt lat="45.979422" lon="10.286227"><time>2025-04-28T08:45:25.000Z</time><ele>1273.6</ele></trkpt><trkpt lat="45.97941" lon="10.286214"><time>2025-04-28T08:45:26.000Z</time><ele>1273.4</ele></trkpt><trkpt lat="45.979394" lon="10.286201"><time>2025-04-28T08:45:27.000Z</time><ele>1273.2</ele></trkpt><trkpt lat="45.979376" lon="10.286198"><time>2025-04-28T08:45:28.000Z</time><ele>1273.2</ele></trkpt><trkpt lat="45.979353" lon="10.2862"><time>2025-04-28T08:45:29.000Z</time><ele>1273</ele></trkpt><trkpt lat="45.979333" lon="10.286205"><time>2025-04-28T08:45:30.000Z</time><ele>1273</ele></trkpt><trkpt lat="45.979316" lon="10.286208"><time>2025-04-28T08:45:31.000Z</time><ele>1272.8</ele></trkpt><trkpt lat="45.979303" lon="10.286205"><time>2025-04-28T08:45:32.000Z</time><ele>1272.8</ele></trkpt><trkpt lat="45.97929" lon="10.286199"><time>2025-04-28T08:45:33.000Z</time><ele>1272.6</ele></trkpt><trkpt lat="45.979285" lon="10.28619"><time>2025-04-28T08:45:34.000Z</time><ele>1272.6</ele></trkpt><trkpt lat="45.979273" lon="10.286195"><time>2025-04-28T08:45:35.000Z</time><ele>1272.6</ele></trkpt><trkpt lat="45.979259" lon="10.286204"><time>2025-04-28T08:45:36.000Z</time><ele>1272.6</ele></trkpt><trkpt lat="45.979249" lon="10.28621"><time>2025-04-28T08:45:37.000Z</time><ele>1272.4</ele></trkpt><trkpt lat="45.979236" lon="10.286216"><time>2025-04-28T08:45:38.000Z</time><ele>1272.4</ele></trkpt><trkpt lat="45.979225" lon="10.286214"><time>2025-04-28T08:45:39.000Z</time><ele>1272.2</ele></trkpt><trkpt lat="45.979216" lon="10.286209"><time>2025-04-28T08:45:40.000Z</time><ele>1272.2</ele></trkpt><trkpt lat="45.979202" lon="10.286209"><time>2025-04-28T08:45:41.000Z</time><ele>1272.2</ele></trkpt><trkpt lat="45.979185" lon="10.286204"><time>2025-04-28T08:45:42.000Z</time><ele>1272</ele></trkpt><trkpt lat="45.979167" lon="10.286208"><time>2025-04-28T08:45:43.000Z</time><ele>1272</ele></trkpt><trkpt lat="45.97915" lon="10.2862"><time>2025-04-28T08:45:44.000Z</time><ele>1271.8</ele></trkpt><trkpt lat="45.979134" lon="10.286189"><time>2025-04-28T08:45:45.000Z</time><ele>1271.8</ele></trkpt><trkpt lat="45.979117" lon="10.286189"><time>2025-04-28T08:45:46.000Z</time><ele>1271.8</ele></trkpt><trkpt lat="45.979104" lon="10.286184"><time>2025-04-28T08:45:47.000Z</time><ele>1271.8</ele></trkpt><trkpt lat="45.979091" lon="10.286176"><time>2025-04-28T08:45:48.000Z</time><ele>1271.8</ele></trkpt><trkpt lat="45.97908" lon="10.286172"><time>2025-04-28T08:45:49.000Z</time><ele>1271.8</ele></trkpt><trkpt lat="45.979067" lon="10.286166"><time>2025-04-28T08:45:50.000Z</time><ele>1271.8</ele></trkpt><trkpt lat="45.979045" lon="10.286163"><time>2025-04-28T08:45:51.000Z</time><ele>1271.8</ele></trkpt><trkpt lat="45.979028" lon="10.286163"><time>2025-04-28T08:45:52.000Z</time><ele>1271.4</ele></trkpt><trkpt lat="45.979011" lon="10.286157"><time>2025-04-28T08:45:53.000Z</time><ele>1271.2</ele></trkpt><trkpt lat="45.978993" lon="10.286161"><time>2025-04-28T08:45:54.000Z</time><ele>1271</ele></trkpt><trkpt lat="45.978975" lon="10.286163"><time>2025-04-28T08:45:55.000Z</time><ele>1270.8</ele></trkpt><trkpt lat="45.978957" lon="10.286166"><time>2025-04-28T08:45:56.000Z</time><ele>1270.6</ele></trkpt><trkpt lat="45.978941" lon="10.286162"><time>2025-04-28T08:45:57.000Z</time><ele>1270.4</ele></trkpt><trkpt lat="45.978926" lon="10.286156"><time>2025-04-28T08:45:58.000Z</time><ele>1270.2</ele></trkpt><trkpt lat="45.978912" lon="10.286151"><time>2025-04-28T08:45:59.000Z</time><ele>1270</ele></trkpt><trkpt lat="45.978902" lon="10.286149"><time>2025-04-28T08:46:00.000Z</time><ele>1269.8</ele></trkpt><trkpt lat="45.97889" lon="10.286141"><time>2025-04-28T08:46:01.000Z</time><ele>1269.8</ele></trkpt><trkpt lat="45.978874" lon="10.286143"><time>2025-04-28T08:46:02.000Z</time><ele>1269.6</ele></trkpt><trkpt lat="45.978861" lon="10.286143"><time>2025-04-28T08:46:03.000Z</time><ele>1269.4</ele></trkpt><trkpt lat="45.978848" lon="10.286143"><time>2025-04-28T08:46:04.000Z</time><ele>1269.4</ele></trkpt><trkpt lat="45.978834" lon="10.286139"><time>2025-04-28T08:46:05.000Z</time><ele>1269.2</ele></trkpt><trkpt lat="45.978821" lon="10.286137"><time>2025-04-28T08:46:06.000Z</time><ele>1269.2</ele></trkpt><trkpt lat="45.978807" lon="10.286133"><time>2025-04-28T08:46:07.000Z</time><ele>1269.2</ele></trkpt><trkpt lat="45.978793" lon="10.28613"><time>2025-04-28T08:46:08.000Z</time><ele>1269</ele></trkpt><trkpt lat="45.978781" lon="10.286128"><time>2025-04-28T08:46:09.000Z</time><ele>1269</ele></trkpt><trkpt lat="45.978771" lon="10.286121"><time>2025-04-28T08:46:10.000Z</time><ele>1268.8</ele></trkpt><trkpt lat="45.97876" lon="10.286117"><time>2025-04-28T08:46:11.000Z</time><ele>1268.8</ele></trkpt><trkpt lat="45.978752" lon="10.28611"><time>2025-04-28T08:46:12.000Z</time><ele>1268.6</ele></trkpt><trkpt lat="45.978738" lon="10.286103"><time>2025-04-28T08:46:13.000Z</time><ele>1268.4</ele></trkpt><trkpt lat="45.978725" lon="10.286095"><time>2025-04-28T08:46:14.000Z</time><ele>1268.2</ele></trkpt><trkpt lat="45.978711" lon="10.286086"><time>2025-04-28T08:46:15.000Z</time><ele>1268</ele></trkpt><trkpt lat="45.978698" lon="10.286079"><time>2025-04-28T08:46:16.000Z</time><ele>1267.8</ele></trkpt><trkpt lat="45.978682" lon="10.28607"><time>2025-04-28T08:46:17.000Z</time><ele>1267.4</ele></trkpt><trkpt lat="45.978671" lon="10.286055"><time>2025-04-28T08:46:18.000Z</time><ele>1267.2</ele></trkpt><trkpt lat="45.978661" lon="10.286042"><time>2025-04-28T08:46:19.000Z</time><ele>1267.2</ele></trkpt><trkpt lat="45.978652" lon="10.286027"><time>2025-04-28T08:46:20.000Z</time><ele>1267</ele></trkpt><trkpt lat="45.978642" lon="10.286012"><time>2025-04-28T08:46:21.000Z</time><ele>1266.8</ele></trkpt><trkpt lat="45.97863" lon="10.285999"><time>2025-04-28T08:46:22.000Z</time><ele>1266.8</ele></trkpt><trkpt lat="45.978616" lon="10.285995"><time>2025-04-28T08:46:23.000Z</time><ele>1266.6</ele></trkpt><trkpt lat="45.978605" lon="10.285991"><time>2025-04-28T08:46:24.000Z</time><ele>1266.6</ele></trkpt><trkpt lat="45.978595" lon="10.285987"><time>2025-04-28T08:46:25.000Z</time><ele>1266.4</ele></trkpt><trkpt lat="45.978583" lon="10.285978"><time>2025-04-28T08:46:26.000Z</time><ele>1266</ele></trkpt><trkpt lat="45.978571" lon="10.285973"><time>2025-04-28T08:46:27.000Z</time><ele>1265.8</ele></trkpt><trkpt lat="45.978563" lon="10.285966"><time>2025-04-28T08:46:28.000Z</time><ele>1265.6</ele></trkpt><trkpt lat="45.97856" lon="10.285961"><time>2025-04-28T08:46:29.000Z</time><ele>1265.2</ele></trkpt><trkpt lat="45.978545" lon="10.285947"><time>2025-04-28T08:46:30.000Z</time><ele>1265</ele></trkpt><trkpt lat="45.978535" lon="10.285937"><time>2025-04-28T08:46:31.000Z</time><ele>1264.8</ele></trkpt><trkpt lat="45.978526" lon="10.285929"><time>2025-04-28T08:46:32.000Z</time><ele>1264.6</ele></trkpt><trkpt lat="45.978511" lon="10.285921"><time>2025-04-28T08:46:33.000Z</time><ele>1264.6</ele></trkpt><trkpt lat="45.978497" lon="10.285919"><time>2025-04-28T08:46:34.000Z</time><ele>1264.4</ele></trkpt><trkpt lat="45.978485" lon="10.285921"><time>2025-04-28T08:46:35.000Z</time><ele>1264.4</ele></trkpt><trkpt lat="45.978474" lon="10.285925"><time>2025-04-28T08:46:36.000Z</time><ele>1264.2</ele></trkpt><trkpt lat="45.978463" lon="10.28593"><time>2025-04-28T08:46:37.000Z</time><ele>1264.2</ele></trkpt><trkpt lat="45.978454" lon="10.28594"><time>2025-04-28T08:46:38.000Z</time><ele>1264</ele></trkpt><trkpt lat="45.978446" lon="10.285947"><time>2025-04-28T08:46:39.000Z</time><ele>1264</ele></trkpt><trkpt lat="45.978437" lon="10.28595"><time>2025-04-28T08:46:40.000Z</time><ele>1264</ele></trkpt><trkpt lat="45.978425" lon="10.285949"><time>2025-04-28T08:46:41.000Z</time><ele>1264</ele></trkpt><trkpt lat="45.978417" lon="10.285958"><time>2025-04-28T08:46:42.000Z</time><ele>1263.8</ele></trkpt><trkpt lat="45.978408" lon="10.285964"><time>2025-04-28T08:46:43.000Z</time><ele>1263.8</ele></trkpt><trkpt lat="45.978404" lon="10.285965"><time>2025-04-28T08:46:44.000Z</time><ele>1263.8</ele></trkpt><trkpt lat="45.978401" lon="10.285964"><time>2025-04-28T08:46:45.000Z</time><ele>1263.8</ele></trkpt><trkpt lat="45.9784" lon="10.285963"><time>2025-04-28T08:46:46.000Z</time><ele>1263.8</ele></trkpt><trkpt lat="45.9784" lon="10.285963"><time>2025-04-28T08:46:47.000Z</time><ele>1263.8</ele></trkpt><trkpt lat="45.978399" lon="10.285972"><time>2025-04-28T08:46:48.000Z</time><ele>1263.8</ele></trkpt><trkpt lat="45.9784" lon="10.285986"><time>2025-04-28T08:46:49.000Z</time><ele>1263.6</ele></trkpt><trkpt lat="45.978395" lon="10.285996"><time>2025-04-28T08:46:50.000Z</time><ele>1263.6</ele></trkpt><trkpt lat="45.978388" lon="10.286004"><time>2025-04-28T08:46:51.000Z</time><ele>1263.6</ele></trkpt><trkpt lat="45.978385" lon="10.286005"><time>2025-04-28T08:46:52.000Z</time><ele>1263.6</ele></trkpt><trkpt lat="45.978384" lon="10.286008"><time>2025-04-28T08:46:53.000Z</time><ele>1263.4</ele></trkpt><trkpt lat="45.978384" lon="10.286009"><time>2025-04-28T08:46:54.000Z</time><ele>1263.4</ele></trkpt><trkpt lat="45.978383" lon="10.286009"><time>2025-04-28T08:46:55.000Z</time><ele>1263.4</ele></trkpt><trkpt lat="45.978383" lon="10.28601"><time>2025-04-28T08:46:56.000Z</time><ele>1263.4</ele></trkpt><trkpt lat="45.978384" lon="10.28601"><time>2025-04-28T08:46:57.000Z</time><ele>1263.2</ele></trkpt><trkpt lat="45.978384" lon="10.286011"><time>2025-04-28T08:46:58.000Z</time><ele>1263</ele></trkpt><trkpt lat="45.978383" lon="10.286012"><time>2025-04-28T08:46:59.000Z</time><ele>1263</ele></trkpt><trkpt lat="45.978382" lon="10.286012"><time>2025-04-28T08:47:00.000Z</time><ele>1263</ele></trkpt><trkpt lat="45.97838" lon="10.286012"><time>2025-04-28T08:47:01.000Z</time><ele>1263</ele></trkpt><trkpt lat="45.978379" lon="10.286012"><time>2025-04-28T08:47:02.000Z</time><ele>1263</ele></trkpt><trkpt lat="45.978378" lon="10.286012"><time>2025-04-28T08:47:03.000Z</time><ele>1263</ele></trkpt><trkpt lat="45.978378" lon="10.286011"><time>2025-04-28T08:47:04.000Z</time><ele>1263</ele></trkpt><trkpt lat="45.978378" lon="10.286011"><time>2025-04-28T08:47:05.000Z</time><ele>1263</ele></trkpt><trkpt lat="45.978378" lon="10.286011"><time>2025-04-28T08:47:06.000Z</time><ele>1263</ele></trkpt><trkpt lat="45.978378" lon="10.286011"><time>2025-04-28T08:47:07.000Z</time><ele>1263</ele></trkpt><trkpt lat="45.978378" lon="10.286011"><time>2025-04-28T08:47:08.000Z</time><ele>1263</ele></trkpt><trkpt lat="45.978378" lon="10.286011"><time>2025-04-28T08:47:09.000Z</time><ele>1263</ele></trkpt><trkpt lat="45.978378" lon="10.286011"><time>2025-04-28T08:47:10.000Z</time><ele>1262.8</ele></trkpt><trkpt lat="45.978378" lon="10.286011"><time>2025-04-28T08:47:11.000Z</time><ele>1262.8</ele></trkpt><trkpt lat="45.978378" lon="10.286011"><time>2025-04-28T08:47:12.000Z</time><ele>1262.8</ele></trkpt><trkpt lat="45.978378" lon="10.286011"><time>2025-04-28T08:47:13.000Z</time><ele>1262.8</ele></trkpt><trkpt lat="45.978378" lon="10.286011"><time>2025-04-28T08:47:14.000Z</time><ele>1262.8</ele></trkpt><trkpt lat="45.978378" lon="10.286011"><time>2025-04-28T08:47:15.000Z</time><ele>1262.8</ele></trkpt><trkpt lat="45.978378" lon="10.286011"><time>2025-04-28T08:47:16.000Z</time><ele>1262.8</ele></trkpt><trkpt lat="45.978378" lon="10.286011"><time>2025-04-28T08:47:17.000Z</time><ele>1262.8</ele></trkpt><trkpt lat="45.978378" lon="10.28601"><time>2025-04-28T08:47:18.000Z</time><ele>1262.8</ele></trkpt><trkpt lat="45.978378" lon="10.28601"><time>2025-04-28T08:47:19.000Z</time><ele>1262.8</ele></trkpt><trkpt lat="45.978378" lon="10.28601"><time>2025-04-28T08:47:20.000Z</time><ele>1262.6</ele></trkpt><trkpt lat="45.978378" lon="10.286009"><time>2025-04-28T08:47:21.000Z</time><ele>1262.6</ele></trkpt><trkpt lat="45.978378" lon="10.286009"><time>2025-04-28T08:47:22.000Z</time><ele>1262.6</ele></trkpt><trkpt lat="45.978378" lon="10.286008"><time>2025-04-28T08:47:23.000Z</time><ele>1262.6</ele></trkpt><trkpt lat="45.978378" lon="10.286008"><time>2025-04-28T08:47:24.000Z</time><ele>1262.6</ele></trkpt><trkpt lat="45.978378" lon="10.286008"><time>2025-04-28T08:47:25.000Z</time><ele>1262.8</ele></trkpt><trkpt lat="45.978378" lon="10.286008"><time>2025-04-28T08:47:26.000Z</time><ele>1262.8</ele></trkpt><trkpt lat="45.978378" lon="10.286008"><time>2025-04-28T08:47:27.000Z</time><ele>1262.8</ele></trkpt><trkpt lat="45.978377" lon="10.286007"><time>2025-04-28T08:47:28.000Z</time><ele>1262.8</ele></trkpt><trkpt lat="45.978377" lon="10.286007"><time>2025-04-28T08:47:29.000Z</time><ele>1262.8</ele></trkpt><trkpt lat="45.978376" lon="10.286007"><time>2025-04-28T08:47:30.000Z</time><ele>1262.8</ele></trkpt><trkpt lat="45.978375" lon="10.286007"><time>2025-04-28T08:47:31.000Z</time><ele>1262.8</ele></trkpt><trkpt lat="45.978374" lon="10.286007"><time>2025-04-28T08:47:32.000Z</time><ele>1262.8</ele></trkpt><trkpt lat="45.978374" lon="10.286007"><time>2025-04-28T08:47:33.000Z</time><ele>1262.8</ele></trkpt><trkpt lat="45.978373" lon="10.286013"><time>2025-04-28T08:47:34.000Z</time><ele>1262.8</ele></trkpt><trkpt lat="45.978371" lon="10.286035"><time>2025-04-28T08:47:35.000Z</time><ele>1262.6</ele></trkpt><trkpt lat="45.97837" lon="10.286061"><time>2025-04-28T08:47:36.000Z</time><ele>1262.6</ele></trkpt><trkpt lat="45.978367" lon="10.286089"><time>2025-04-28T08:47:37.000Z</time><ele>1262.4</ele></trkpt><trkpt lat="45.978366" lon="10.286116"><time>2025-04-28T08:47:38.000Z</time><ele>1262.2</ele></trkpt><trkpt lat="45.978369" lon="10.286146"><time>2025-04-28T08:47:39.000Z</time><ele>1262</ele></trkpt><trkpt lat="45.978369" lon="10.286176"><time>2025-04-28T08:47:40.000Z</time><ele>1262</ele></trkpt><trkpt lat="45.978368" lon="10.286201"><time>2025-04-28T08:47:41.000Z</time><ele>1261.8</ele></trkpt><trkpt lat="45.978365" lon="10.286223"><time>2025-04-28T08:47:42.000Z</time><ele>1261.6</ele></trkpt><trkpt lat="45.978363" lon="10.286249"><time>2025-04-28T08:47:43.000Z</time><ele>1261.4</ele></trkpt><trkpt lat="45.978361" lon="10.286269"><time>2025-04-28T08:47:44.000Z</time><ele>1261.4</ele></trkpt><trkpt lat="45.978358" lon="10.286288"><time>2025-04-28T08:47:45.000Z</time><ele>1261.2</ele></trkpt><trkpt lat="45.978353" lon="10.286308"><time>2025-04-28T08:47:46.000Z</time><ele>1261</ele></trkpt><trkpt lat="45.978353" lon="10.286327"><time>2025-04-28T08:47:47.000Z</time><ele>1260.6</ele></trkpt><trkpt lat="45.97835" lon="10.286344"><time>2025-04-28T08:47:48.000Z</time><ele>1260.4</ele></trkpt><trkpt lat="45.978344" lon="10.286356"><time>2025-04-28T08:47:49.000Z</time><ele>1260.2</ele></trkpt><trkpt lat="45.978335" lon="10.286366"><time>2025-04-28T08:47:50.000Z</time><ele>1260.2</ele></trkpt><trkpt lat="45.978326" lon="10.286376"><time>2025-04-28T08:47:51.000Z</time><ele>1260</ele></trkpt><trkpt lat="45.978308" lon="10.286382"><time>2025-04-28T08:47:52.000Z</time><ele>1259.6</ele></trkpt><trkpt lat="45.978292" lon="10.286383"><time>2025-04-28T08:47:53.000Z</time><ele>1259.4</ele></trkpt><trkpt lat="45.978282" lon="10.286387"><time>2025-04-28T08:47:54.000Z</time><ele>1259.2</ele></trkpt><trkpt lat="45.978271" lon="10.286392"><time>2025-04-28T08:47:55.000Z</time><ele>1259</ele></trkpt><trkpt lat="45.978267" lon="10.286395"><time>2025-04-28T08:47:56.000Z</time><ele>1258.6</ele></trkpt><trkpt lat="45.978255" lon="10.286401"><time>2025-04-28T08:47:57.000Z</time><ele>1258.4</ele></trkpt><trkpt lat="45.978249" lon="10.28641"><time>2025-04-28T08:47:58.000Z</time><ele>1258.2</ele></trkpt><trkpt lat="45.978247" lon="10.286425"><time>2025-04-28T08:47:59.000Z</time><ele>1258</ele></trkpt><trkpt lat="45.978245" lon="10.286463"><time>2025-04-28T08:48:00.000Z</time><ele>1257.8</ele></trkpt><trkpt lat="45.978238" lon="10.286483"><time>2025-04-28T08:48:01.000Z</time><ele>1257.6</ele></trkpt><trkpt lat="45.978232" lon="10.286493"><time>2025-04-28T08:48:02.000Z</time><ele>1257.2</ele></trkpt><trkpt lat="45.978231" lon="10.286511"><time>2025-04-28T08:48:03.000Z</time><ele>1257.2</ele></trkpt><trkpt lat="45.978229" lon="10.286516"><time>2025-04-28T08:48:04.000Z</time><ele>1257</ele></trkpt><trkpt lat="45.978229" lon="10.286518"><time>2025-04-28T08:48:05.000Z</time><ele>1256.8</ele></trkpt><trkpt lat="45.978224" lon="10.286541"><time>2025-04-28T08:48:06.000Z</time><ele>1256.4</ele></trkpt><trkpt lat="45.978217" lon="10.286558"><time>2025-04-28T08:48:07.000Z</time><ele>1256.2</ele></trkpt><trkpt lat="45.978217" lon="10.286569"><time>2025-04-28T08:48:08.000Z</time><ele>1256.2</ele></trkpt><trkpt lat="45.978222" lon="10.286581"><time>2025-04-28T08:48:09.000Z</time><ele>1256</ele></trkpt><trkpt lat="45.978228" lon="10.286588"><time>2025-04-28T08:48:10.000Z</time><ele>1255.8</ele></trkpt><trkpt lat="45.978237" lon="10.286594"><time>2025-04-28T08:48:11.000Z</time><ele>1255.6</ele></trkpt><trkpt lat="45.978245" lon="10.286594"><time>2025-04-28T08:48:12.000Z</time><ele>1255.4</ele></trkpt><trkpt lat="45.978253" lon="10.286599"><time>2025-04-28T08:48:13.000Z</time><ele>1255.4</ele></trkpt><trkpt lat="45.978263" lon="10.28661"><time>2025-04-28T08:48:14.000Z</time><ele>1255.2</ele></trkpt><trkpt lat="45.978271" lon="10.28662"><time>2025-04-28T08:48:15.000Z</time><ele>1254.8</ele></trkpt><trkpt lat="45.978277" lon="10.28663"><time>2025-04-28T08:48:16.000Z</time><ele>1254.6</ele></trkpt><trkpt lat="45.978286" lon="10.286638"><time>2025-04-28T08:48:17.000Z</time><ele>1254.4</ele></trkpt><trkpt lat="45.978294" lon="10.286656"><time>2025-04-28T08:48:18.000Z</time><ele>1254.2</ele></trkpt><trkpt lat="45.978297" lon="10.286672"><time>2025-04-28T08:48:19.000Z</time><ele>1254</ele></trkpt><trkpt lat="45.978294" lon="10.286682"><time>2025-04-28T08:48:20.000Z</time><ele>1253.8</ele></trkpt><trkpt lat="45.978297" lon="10.28669"><time>2025-04-28T08:48:21.000Z</time><ele>1253.8</ele></trkpt><trkpt lat="45.978305" lon="10.286691"><time>2025-04-28T08:48:22.000Z</time><ele>1253.6</ele></trkpt><trkpt lat="45.978313" lon="10.286692"><time>2025-04-28T08:48:23.000Z</time><ele>1253.4</ele></trkpt><trkpt lat="45.978316" lon="10.286702"><time>2025-04-28T08:48:24.000Z</time><ele>1253</ele></trkpt><trkpt lat="45.978329" lon="10.286718"><time>2025-04-28T08:48:25.000Z</time><ele>1252.8</ele></trkpt><trkpt lat="45.978336" lon="10.286739"><time>2025-04-28T08:48:26.000Z</time><ele>1252.6</ele></trkpt><trkpt lat="45.978341" lon="10.286756"><time>2025-04-28T08:48:27.000Z</time><ele>1252.4</ele></trkpt><trkpt lat="45.978341" lon="10.286768"><time>2025-04-28T08:48:28.000Z</time><ele>1252.2</ele></trkpt><trkpt lat="45.978349" lon="10.286773"><time>2025-04-28T08:48:29.000Z</time><ele>1252</ele></trkpt><trkpt lat="45.978356" lon="10.286788"><time>2025-04-28T08:48:30.000Z</time><ele>1251.8</ele></trkpt><trkpt lat="45.97836" lon="10.286808"><time>2025-04-28T08:48:31.000Z</time><ele>1251.2</ele></trkpt><trkpt lat="45.978369" lon="10.286823"><time>2025-04-28T08:48:32.000Z</time><ele>1251</ele></trkpt><trkpt lat="45.978375" lon="10.286832"><time>2025-04-28T08:48:33.000Z</time><ele>1250.8</ele></trkpt><trkpt lat="45.978382" lon="10.286849"><time>2025-04-28T08:48:34.000Z</time><ele>1250.6</ele></trkpt><trkpt lat="45.978389" lon="10.286866"><time>2025-04-28T08:48:35.000Z</time><ele>1250.2</ele></trkpt><trkpt lat="45.978397" lon="10.28688"><time>2025-04-28T08:48:36.000Z</time><ele>1249.8</ele></trkpt><trkpt lat="45.978405" lon="10.286889"><time>2025-04-28T08:48:37.000Z</time><ele>1249.6</ele></trkpt><trkpt lat="45.978415" lon="10.286902"><time>2025-04-28T08:48:38.000Z</time><ele>1249.4</ele></trkpt><trkpt lat="45.978425" lon="10.286914"><time>2025-04-28T08:48:39.000Z</time><ele>1249.2</ele></trkpt><trkpt lat="45.978431" lon="10.28693"><time>2025-04-28T08:48:40.000Z</time><ele>1249</ele></trkpt><trkpt lat="45.978439" lon="10.286944"><time>2025-04-28T08:48:41.000Z</time><ele>1248.8</ele></trkpt><trkpt lat="45.978446" lon="10.286958"><time>2025-04-28T08:48:42.000Z</time><ele>1248.4</ele></trkpt><trkpt lat="45.978451" lon="10.286972"><time>2025-04-28T08:48:43.000Z</time><ele>1248.2</ele></trkpt><trkpt lat="45.978453" lon="10.286989"><time>2025-04-28T08:48:44.000Z</time><ele>1247.8</ele></trkpt><trkpt lat="45.978462" lon="10.287003"><time>2025-04-28T08:48:45.000Z</time><ele>1247.4</ele></trkpt><trkpt lat="45.978471" lon="10.287014"><time>2025-04-28T08:48:46.000Z</time><ele>1247.2</ele></trkpt><trkpt lat="45.978482" lon="10.287013"><time>2025-04-28T08:48:47.000Z</time><ele>1247</ele></trkpt><trkpt lat="45.97849" lon="10.287023"><time>2025-04-28T08:48:48.000Z</time><ele>1246.6</ele></trkpt><trkpt lat="45.978493" lon="10.287033"><time>2025-04-28T08:48:49.000Z</time><ele>1246.2</ele></trkpt><trkpt lat="45.978498" lon="10.287042"><time>2025-04-28T08:48:50.000Z</time><ele>1245.8</ele></trkpt><trkpt lat="45.978503" lon="10.287055"><time>2025-04-28T08:48:51.000Z</time><ele>1245.6</ele></trkpt><trkpt lat="45.97851" lon="10.287067"><time>2025-04-28T08:48:52.000Z</time><ele>1245.2</ele></trkpt><trkpt lat="45.978521" lon="10.287082"><time>2025-04-28T08:48:53.000Z</time><ele>1245</ele></trkpt><trkpt lat="45.978528" lon="10.287094"><time>2025-04-28T08:48:54.000Z</time><ele>1244.6</ele></trkpt><trkpt lat="45.978534" lon="10.287108"><time>2025-04-28T08:48:55.000Z</time><ele>1244.6</ele></trkpt><trkpt lat="45.978548" lon="10.287119"><time>2025-04-28T08:48:56.000Z</time><ele>1244</ele></trkpt><trkpt lat="45.978558" lon="10.287128"><time>2025-04-28T08:48:57.000Z</time><ele>1243.8</ele></trkpt><trkpt lat="45.978572" lon="10.287142"><time>2025-04-28T08:48:58.000Z</time><ele>1243.6</ele></trkpt><trkpt lat="45.978586" lon="10.287155"><time>2025-04-28T08:48:59.000Z</time><ele>1243.4</ele></trkpt><trkpt lat="45.978598" lon="10.28717"><time>2025-04-28T08:49:00.000Z</time><ele>1243</ele></trkpt><trkpt lat="45.978609" lon="10.287184"><time>2025-04-28T08:49:01.000Z</time><ele>1242.6</ele></trkpt><trkpt lat="45.978618" lon="10.287196"><time>2025-04-28T08:49:02.000Z</time><ele>1242.4</ele></trkpt><trkpt lat="45.97863" lon="10.287211"><time>2025-04-28T08:49:03.000Z</time><ele>1242.2</ele></trkpt><trkpt lat="45.978639" lon="10.287225"><time>2025-04-28T08:49:04.000Z</time><ele>1242</ele></trkpt><trkpt lat="45.978648" lon="10.28724"><time>2025-04-28T08:49:05.000Z</time><ele>1241.6</ele></trkpt><trkpt lat="45.978655" lon="10.287252"><time>2025-04-28T08:49:06.000Z</time><ele>1241.4</ele></trkpt><trkpt lat="45.97866" lon="10.287264"><time>2025-04-28T08:49:07.000Z</time><ele>1241.2</ele></trkpt><trkpt lat="45.978667" lon="10.287272"><time>2025-04-28T08:49:08.000Z</time><ele>1240.8</ele></trkpt><trkpt lat="45.978673" lon="10.287283"><time>2025-04-28T08:49:09.000Z</time><ele>1240.6</ele></trkpt><trkpt lat="45.978681" lon="10.287293"><time>2025-04-28T08:49:10.000Z</time><ele>1240.4</ele></trkpt><trkpt lat="45.978689" lon="10.287303"><time>2025-04-28T08:49:11.000Z</time><ele>1240</ele></trkpt><trkpt lat="45.978696" lon="10.287312"><time>2025-04-28T08:49:12.000Z</time><ele>1239.6</ele></trkpt><trkpt lat="45.978702" lon="10.287319"><time>2025-04-28T08:49:13.000Z</time><ele>1239.2</ele></trkpt><trkpt lat="45.978709" lon="10.287329"><time>2025-04-28T08:49:14.000Z</time><ele>1239</ele></trkpt><trkpt lat="45.978715" lon="10.287342"><time>2025-04-28T08:49:15.000Z</time><ele>1238.6</ele></trkpt><trkpt lat="45.978726" lon="10.287356"><time>2025-04-28T08:49:16.000Z</time><ele>1238.4</ele></trkpt><trkpt lat="45.978734" lon="10.287361"><time>2025-04-28T08:49:17.000Z</time><ele>1237.8</ele></trkpt><trkpt lat="45.97874" lon="10.287371"><time>2025-04-28T08:49:18.000Z</time><ele>1237.6</ele></trkpt><trkpt lat="45.978748" lon="10.287385"><time>2025-04-28T08:49:19.000Z</time><ele>1237.4</ele></trkpt><trkpt lat="45.978754" lon="10.287405"><time>2025-04-28T08:49:20.000Z</time><ele>1237.2</ele></trkpt><trkpt lat="45.978756" lon="10.287419"><time>2025-04-28T08:49:21.000Z</time><ele>1237</ele></trkpt><trkpt lat="45.978762" lon="10.287431"><time>2025-04-28T08:49:22.000Z</time><ele>1236.6</ele></trkpt><trkpt lat="45.978776" lon="10.287436"><time>2025-04-28T08:49:23.000Z</time><ele>1236.4</ele></trkpt><trkpt lat="45.978788" lon="10.287435"><time>2025-04-28T08:49:24.000Z</time><ele>1236.2</ele></trkpt><trkpt lat="45.978796" lon="10.287441"><time>2025-04-28T08:49:25.000Z</time><ele>1236.2</ele></trkpt><trkpt lat="45.978804" lon="10.287451"><time>2025-04-28T08:49:26.000Z</time><ele>1235.8</ele></trkpt><trkpt lat="45.978814" lon="10.287464"><time>2025-04-28T08:49:27.000Z</time><ele>1235.6</ele></trkpt><trkpt lat="45.978825" lon="10.28748"><time>2025-04-28T08:49:28.000Z</time><ele>1235.6</ele></trkpt><trkpt lat="45.978836" lon="10.287492"><time>2025-04-28T08:49:29.000Z</time><ele>1235.2</ele></trkpt><trkpt lat="45.97885" lon="10.287508"><time>2025-04-28T08:49:30.000Z</time><ele>1235.2</ele></trkpt><trkpt lat="45.978862" lon="10.28752"><time>2025-04-28T08:49:31.000Z</time><ele>1235</ele></trkpt><trkpt lat="45.978872" lon="10.287524"><time>2025-04-28T08:49:32.000Z</time><ele>1234.8</ele></trkpt><trkpt lat="45.978885" lon="10.28753"><time>2025-04-28T08:49:33.000Z</time><ele>1234.6</ele></trkpt><trkpt lat="45.978892" lon="10.287529"><time>2025-04-28T08:49:34.000Z</time><ele>1234.4</ele></trkpt><trkpt lat="45.978897" lon="10.287539"><time>2025-04-28T08:49:35.000Z</time><ele>1234.2</ele></trkpt><trkpt lat="45.978904" lon="10.287554"><time>2025-04-28T08:49:36.000Z</time><ele>1233.8</ele></trkpt><trkpt lat="45.978911" lon="10.287564"><time>2025-04-28T08:49:37.000Z</time><ele>1233.8</ele></trkpt><trkpt lat="45.978924" lon="10.287572"><time>2025-04-28T08:49:38.000Z</time><ele>1233.4</ele></trkpt><trkpt lat="45.978931" lon="10.287575"><time>2025-04-28T08:49:39.000Z</time><ele>1233.2</ele></trkpt><trkpt lat="45.978934" lon="10.287576"><time>2025-04-28T08:49:40.000Z</time><ele>1232.8</ele></trkpt><trkpt lat="45.978937" lon="10.287577"><time>2025-04-28T08:49:41.000Z</time><ele>1232.6</ele></trkpt><trkpt lat="45.978949" lon="10.2876"><time>2025-04-28T08:49:42.000Z</time><ele>1232.4</ele></trkpt><trkpt lat="45.978961" lon="10.287617"><time>2025-04-28T08:49:43.000Z</time><ele>1232.4</ele></trkpt><trkpt lat="45.978975" lon="10.287629"><time>2025-04-28T08:49:44.000Z</time><ele>1232.2</ele></trkpt><trkpt lat="45.97899" lon="10.287644"><time>2025-04-28T08:49:45.000Z</time><ele>1232</ele></trkpt><trkpt lat="45.979003" lon="10.287657"><time>2025-04-28T08:49:46.000Z</time><ele>1231.8</ele></trkpt><trkpt lat="45.979011" lon="10.287667"><time>2025-04-28T08:49:47.000Z</time><ele>1231.8</ele></trkpt><trkpt lat="45.979005" lon="10.287675"><time>2025-04-28T08:49:48.000Z</time><ele>1231.6</ele></trkpt><trkpt lat="45.97901" lon="10.287676"><time>2025-04-28T08:49:49.000Z</time><ele>1231.6</ele></trkpt><trkpt lat="45.979015" lon="10.287686"><time>2025-04-28T08:49:50.000Z</time><ele>1231.4</ele></trkpt><trkpt lat="45.979019" lon="10.287694"><time>2025-04-28T08:49:51.000Z</time><ele>1231.2</ele></trkpt><trkpt lat="45.979019" lon="10.287704"><time>2025-04-28T08:49:52.000Z</time><ele>1231.2</ele></trkpt><trkpt lat="45.979017" lon="10.287711"><time>2025-04-28T08:49:53.000Z</time><ele>1231</ele></trkpt><trkpt lat="45.979014" lon="10.287719"><time>2025-04-28T08:49:54.000Z</time><ele>1230.8</ele></trkpt><trkpt lat="45.979008" lon="10.287725"><time>2025-04-28T08:49:55.000Z</time><ele>1230.6</ele></trkpt><trkpt lat="45.979001" lon="10.28772"><time>2025-04-28T08:49:56.000Z</time><ele>1230.4</ele></trkpt><trkpt lat="45.978999" lon="10.287723"><time>2025-04-28T08:49:57.000Z</time><ele>1230.2</ele></trkpt><trkpt lat="45.978996" lon="10.287727"><time>2025-04-28T08:49:58.000Z</time><ele>1230</ele></trkpt><trkpt lat="45.978993" lon="10.287731"><time>2025-04-28T08:49:59.000Z</time><ele>1229.8</ele></trkpt><trkpt lat="45.978984" lon="10.287719"><time>2025-04-28T08:50:00.000Z</time><ele>1229.6</ele></trkpt><trkpt lat="45.978963" lon="10.287709"><time>2025-04-28T08:50:01.000Z</time><ele>1229.4</ele></trkpt><trkpt lat="45.97894" lon="10.287701"><time>2025-04-28T08:50:02.000Z</time><ele>1229.2</ele></trkpt><trkpt lat="45.978921" lon="10.2877"><time>2025-04-28T08:50:03.000Z</time><ele>1229.2</ele></trkpt><trkpt lat="45.978916" lon="10.287699"><time>2025-04-28T08:50:04.000Z</time><ele>1228.8</ele></trkpt><trkpt lat="45.978905" lon="10.287705"><time>2025-04-28T08:50:05.000Z</time><ele>1228.6</ele></trkpt><trkpt lat="45.978897" lon="10.287707"><time>2025-04-28T08:50:06.000Z</time><ele>1228.4</ele></trkpt><trkpt lat="45.978886" lon="10.287703"><time>2025-04-28T08:50:07.000Z</time><ele>1228.2</ele></trkpt><trkpt lat="45.978874" lon="10.2877"><time>2025-04-28T08:50:08.000Z</time><ele>1228</ele></trkpt><trkpt lat="45.978858" lon="10.287695"><time>2025-04-28T08:50:09.000Z</time><ele>1227.8</ele></trkpt><trkpt lat="45.978846" lon="10.287699"><time>2025-04-28T08:50:10.000Z</time><ele>1227.6</ele></trkpt><trkpt lat="45.978831" lon="10.287699"><time>2025-04-28T08:50:11.000Z</time><ele>1227.2</ele></trkpt><trkpt lat="45.978817" lon="10.2877"><time>2025-04-28T08:50:12.000Z</time><ele>1227</ele></trkpt><trkpt lat="45.9788" lon="10.287695"><time>2025-04-28T08:50:13.000Z</time><ele>1226.8</ele></trkpt><trkpt lat="45.978782" lon="10.287693"><time>2025-04-28T08:50:14.000Z</time><ele>1226.6</ele></trkpt><trkpt lat="45.978767" lon="10.28769"><time>2025-04-28T08:50:15.000Z</time><ele>1226.2</ele></trkpt><trkpt lat="45.97875" lon="10.287679"><time>2025-04-28T08:50:16.000Z</time><ele>1226.2</ele></trkpt><trkpt lat="45.978733" lon="10.287676"><time>2025-04-28T08:50:17.000Z</time><ele>1225.8</ele></trkpt><trkpt lat="45.978718" lon="10.287674"><time>2025-04-28T08:50:18.000Z</time><ele>1225.6</ele></trkpt><trkpt lat="45.978707" lon="10.287672"><time>2025-04-28T08:50:19.000Z</time><ele>1225.4</ele></trkpt><trkpt lat="45.978692" lon="10.287669"><time>2025-04-28T08:50:20.000Z</time><ele>1225.2</ele></trkpt><trkpt lat="45.978682" lon="10.287665"><time>2025-04-28T08:50:21.000Z</time><ele>1225</ele></trkpt><trkpt lat="45.978674" lon="10.287664"><time>2025-04-28T08:50:22.000Z</time><ele>1224.8</ele></trkpt><trkpt lat="45.978667" lon="10.287663"><time>2025-04-28T08:50:23.000Z</time><ele>1224.6</ele></trkpt><trkpt lat="45.978658" lon="10.287659"><time>2025-04-28T08:50:24.000Z</time><ele>1224.4</ele></trkpt><trkpt lat="45.978651" lon="10.287653"><time>2025-04-28T08:50:25.000Z</time><ele>1224.2</ele></trkpt><trkpt lat="45.978643" lon="10.287657"><time>2025-04-28T08:50:26.000Z</time><ele>1224</ele></trkpt><trkpt lat="45.978637" lon="10.287657"><time>2025-04-28T08:50:27.000Z</time><ele>1223.8</ele></trkpt><trkpt lat="45.978631" lon="10.287658"><time>2025-04-28T08:50:28.000Z</time><ele>1223.2</ele></trkpt><trkpt lat="45.97862" lon="10.287657"><time>2025-04-28T08:50:29.000Z</time><ele>1223</ele></trkpt><trkpt lat="45.978608" lon="10.287654"><time>2025-04-28T08:50:30.000Z</time><ele>1222.8</ele></trkpt><trkpt lat="45.978596" lon="10.28765"><time>2025-04-28T08:50:31.000Z</time><ele>1222.8</ele></trkpt><trkpt lat="45.978589" lon="10.287641"><time>2025-04-28T08:50:32.000Z</time><ele>1222.4</ele></trkpt><trkpt lat="45.978566" lon="10.28764"><time>2025-04-28T08:50:33.000Z</time><ele>1222</ele></trkpt><trkpt lat="45.978548" lon="10.287636"><time>2025-04-28T08:50:34.000Z</time><ele>1221.6</ele></trkpt><trkpt lat="45.978534" lon="10.287634"><time>2025-04-28T08:50:35.000Z</time><ele>1221.4</ele></trkpt><trkpt lat="45.978522" lon="10.287627"><time>2025-04-28T08:50:36.000Z</time><ele>1221</ele></trkpt><trkpt lat="45.978509" lon="10.287622"><time>2025-04-28T08:50:37.000Z</time><ele>1220.8</ele></trkpt><trkpt lat="45.9785" lon="10.287619"><time>2025-04-28T08:50:38.000Z</time><ele>1220.6</ele></trkpt><trkpt lat="45.978489" lon="10.287615"><time>2025-04-28T08:50:39.000Z</time><ele>1220.4</ele></trkpt><trkpt lat="45.978478" lon="10.287611"><time>2025-04-28T08:50:40.000Z</time><ele>1220.4</ele></trkpt><trkpt lat="45.978466" lon="10.287608"><time>2025-04-28T08:50:41.000Z</time><ele>1220.2</ele></trkpt><trkpt lat="45.978453" lon="10.287605"><time>2025-04-28T08:50:42.000Z</time><ele>1220.2</ele></trkpt><trkpt lat="45.978435" lon="10.287608"><time>2025-04-28T08:50:43.000Z</time><ele>1220</ele></trkpt><trkpt lat="45.978417" lon="10.287608"><time>2025-04-28T08:50:44.000Z</time><ele>1219.6</ele></trkpt><trkpt lat="45.978404" lon="10.287611"><time>2025-04-28T08:50:45.000Z</time><ele>1219.6</ele></trkpt><trkpt lat="45.978391" lon="10.287616"><time>2025-04-28T08:50:46.000Z</time><ele>1219.4</ele></trkpt><trkpt lat="45.978377" lon="10.28762"><time>2025-04-28T08:50:47.000Z</time><ele>1219.2</ele></trkpt><trkpt lat="45.978354" lon="10.287636"><time>2025-04-28T08:50:48.000Z</time><ele>1219</ele></trkpt><trkpt lat="45.978349" lon="10.287639"><time>2025-04-28T08:50:49.000Z</time><ele>1218.8</ele></trkpt><trkpt lat="45.978349" lon="10.287637"><time>2025-04-28T08:50:50.000Z</time><ele>1218.8</ele></trkpt><trkpt lat="45.978351" lon="10.287638"><time>2025-04-28T08:50:51.000Z</time><ele>1218.8</ele></trkpt><trkpt lat="45.978353" lon="10.287637"><time>2025-04-28T08:50:52.000Z</time><ele>1218.8</ele></trkpt><trkpt lat="45.978351" lon="10.287636"><time>2025-04-28T08:50:53.000Z</time><ele>1218.8</ele></trkpt><trkpt lat="45.978348" lon="10.287634"><time>2025-04-28T08:50:54.000Z</time><ele>1218.8</ele></trkpt><trkpt lat="45.978346" lon="10.287631"><time>2025-04-28T08:50:55.000Z</time><ele>1218.8</ele></trkpt><trkpt lat="45.978345" lon="10.287631"><time>2025-04-28T08:50:56.000Z</time><ele>1218.8</ele></trkpt><trkpt lat="45.978344" lon="10.287632"><time>2025-04-28T08:50:57.000Z</time><ele>1218.8</ele></trkpt><trkpt lat="45.978342" lon="10.287633"><time>2025-04-28T08:50:58.000Z</time><ele>1218.8</ele></trkpt><trkpt lat="45.978333" lon="10.287622"><time>2025-04-28T08:50:59.000Z</time><ele>1218.6</ele></trkpt><trkpt lat="45.978333" lon="10.287616"><time>2025-04-28T08:51:00.000Z</time><ele>1218.4</ele></trkpt><trkpt lat="45.978335" lon="10.287621"><time>2025-04-28T08:51:01.000Z</time><ele>1218.4</ele></trkpt><trkpt lat="45.978338" lon="10.287609"><time>2025-04-28T08:51:02.000Z</time><ele>1218.2</ele></trkpt><trkpt lat="45.978337" lon="10.2876"><time>2025-04-28T08:51:03.000Z</time><ele>1218.2</ele></trkpt><trkpt lat="45.978338" lon="10.287599"><time>2025-04-28T08:51:04.000Z</time><ele>1218.2</ele></trkpt><trkpt lat="45.978337" lon="10.287598"><time>2025-04-28T08:51:05.000Z</time><ele>1218.2</ele></trkpt><trkpt lat="45.978335" lon="10.287595"><time>2025-04-28T08:51:06.000Z</time><ele>1218</ele></trkpt><trkpt lat="45.978335" lon="10.287592"><time>2025-04-28T08:51:07.000Z</time><ele>1218</ele></trkpt><trkpt lat="45.97833" lon="10.287591"><time>2025-04-28T08:51:08.000Z</time><ele>1218</ele></trkpt><trkpt lat="45.978333" lon="10.287591"><time>2025-04-28T08:51:09.000Z</time><ele>1218</ele></trkpt><trkpt lat="45.978332" lon="10.287596"><time>2025-04-28T08:51:10.000Z</time><ele>1218</ele></trkpt><trkpt lat="45.978337" lon="10.2876"><time>2025-04-28T08:51:11.000Z</time><ele>1218</ele></trkpt><trkpt lat="45.97834" lon="10.287602"><time>2025-04-28T08:51:12.000Z</time><ele>1218</ele></trkpt><trkpt lat="45.978342" lon="10.287606"><time>2025-04-28T08:51:13.000Z</time><ele>1218</ele></trkpt><trkpt lat="45.978346" lon="10.287609"><time>2025-04-28T08:51:14.000Z</time><ele>1218</ele></trkpt><trkpt lat="45.978348" lon="10.287612"><time>2025-04-28T08:51:15.000Z</time><ele>1218.2</ele></trkpt><trkpt lat="45.978347" lon="10.287613"><time>2025-04-28T08:51:16.000Z</time><ele>1218.2</ele></trkpt><trkpt lat="45.978347" lon="10.287612"><time>2025-04-28T08:51:17.000Z</time><ele>1218.2</ele></trkpt><trkpt lat="45.978344" lon="10.287607"><time>2025-04-28T08:51:18.000Z</time><ele>1218.2</ele></trkpt><trkpt lat="45.978343" lon="10.287601"><time>2025-04-28T08:51:19.000Z</time><ele>1218.4</ele></trkpt><trkpt lat="45.97834" lon="10.287595"><time>2025-04-28T08:51:20.000Z</time><ele>1218.4</ele></trkpt><trkpt lat="45.978336" lon="10.287592"><time>2025-04-28T08:51:21.000Z</time><ele>1218.4</ele></trkpt><trkpt lat="45.978332" lon="10.287594"><time>2025-04-28T08:51:22.000Z</time><ele>1218.4</ele></trkpt><trkpt lat="45.978333" lon="10.287597"><time>2025-04-28T08:51:23.000Z</time><ele>1218.4</ele></trkpt><trkpt lat="45.978338" lon="10.287598"><time>2025-04-28T08:51:24.000Z</time><ele>1218.4</ele></trkpt><trkpt lat="45.978336" lon="10.287599"><time>2025-04-28T08:51:25.000Z</time><ele>1218.4</ele></trkpt><trkpt lat="45.978327" lon="10.287595"><time>2025-04-28T08:51:26.000Z</time><ele>1218.4</ele></trkpt><trkpt lat="45.978325" lon="10.287593"><time>2025-04-28T08:51:27.000Z</time><ele>1218.2</ele></trkpt><trkpt lat="45.978321" lon="10.287611"><time>2025-04-28T08:51:28.000Z</time><ele>1218.4</ele></trkpt><trkpt lat="45.978318" lon="10.287615"><time>2025-04-28T08:51:29.000Z</time><ele>1218.2</ele></trkpt><trkpt lat="45.978317" lon="10.287616"><time>2025-04-28T08:51:30.000Z</time><ele>1218.2</ele></trkpt><trkpt lat="45.978317" lon="10.287616"><time>2025-04-28T08:51:31.000Z</time><ele>1218.2</ele></trkpt><trkpt lat="45.978317" lon="10.287616"><time>2025-04-28T08:51:32.000Z</time><ele>1218.2</ele></trkpt><trkpt lat="45.978317" lon="10.287616"><time>2025-04-28T08:51:33.000Z</time><ele>1218.2</ele></trkpt><trkpt lat="45.978317" lon="10.287616"><time>2025-04-28T08:51:34.000Z</time><ele>1218.2</ele></trkpt><trkpt lat="45.978317" lon="10.287616"><time>2025-04-28T08:51:35.000Z</time><ele>1218.2</ele></trkpt><trkpt lat="45.978317" lon="10.287616"><time>2025-04-28T08:51:36.000Z</time><ele>1218.2</ele></trkpt><trkpt lat="45.978317" lon="10.287616"><time>2025-04-28T08:51:37.000Z</time><ele>1218.2</ele></trkpt><trkpt lat="45.978317" lon="10.287616"><time>2025-04-28T08:51:38.000Z</time><ele>1218.2</ele></trkpt><trkpt lat="45.978317" lon="10.287615"><time>2025-04-28T08:51:39.000Z</time><ele>1218.2</ele></trkpt><trkpt lat="45.978318" lon="10.287615"><time>2025-04-28T08:51:40.000Z</time><ele>1218.2</ele></trkpt><trkpt lat="45.978321" lon="10.287613"><time>2025-04-28T08:51:41.000Z</time><ele>1218.2</ele></trkpt><trkpt lat="45.978324" lon="10.287614"><time>2025-04-28T08:51:42.000Z</time><ele>1218</ele></trkpt><trkpt lat="45.978328" lon="10.287622"><time>2025-04-28T08:51:43.000Z</time><ele>1218</ele></trkpt><trkpt lat="45.978335" lon="10.287625"><time>2025-04-28T08:51:44.000Z</time><ele>1218</ele></trkpt><trkpt lat="45.978346" lon="10.287621"><time>2025-04-28T08:51:45.000Z</time><ele>1218</ele></trkpt><trkpt lat="45.978351" lon="10.28762"><time>2025-04-28T08:51:46.000Z</time><ele>1218</ele></trkpt><trkpt lat="45.978356" lon="10.287621"><time>2025-04-28T08:51:47.000Z</time><ele>1218</ele></trkpt><trkpt lat="45.978363" lon="10.287618"><time>2025-04-28T08:51:48.000Z</time><ele>1218</ele></trkpt><trkpt lat="45.978371" lon="10.287617"><time>2025-04-28T08:51:49.000Z</time><ele>1218</ele></trkpt><trkpt lat="45.97838" lon="10.287627"><time>2025-04-28T08:51:50.000Z</time><ele>1218</ele></trkpt><trkpt lat="45.978384" lon="10.287631"><time>2025-04-28T08:51:51.000Z</time><ele>1218</ele></trkpt><trkpt lat="45.978386" lon="10.28763"><time>2025-04-28T08:51:52.000Z</time><ele>1218</ele></trkpt><trkpt lat="45.978387" lon="10.287631"><time>2025-04-28T08:51:53.000Z</time><ele>1218</ele></trkpt><trkpt lat="45.978385" lon="10.287633"><time>2025-04-28T08:51:54.000Z</time><ele>1218</ele></trkpt><trkpt lat="45.978387" lon="10.287631"><time>2025-04-28T08:51:55.000Z</time><ele>1218</ele></trkpt><trkpt lat="45.97839" lon="10.28763"><time>2025-04-28T08:51:56.000Z</time><ele>1218</ele></trkpt><trkpt lat="45.978391" lon="10.28763"><time>2025-04-28T08:51:57.000Z</time><ele>1218</ele></trkpt><trkpt lat="45.978383" lon="10.287626"><time>2025-04-28T08:51:58.000Z</time><ele>1218</ele></trkpt><trkpt lat="45.97838" lon="10.28762"><time>2025-04-28T08:51:59.000Z</time><ele>1218</ele></trkpt><trkpt lat="45.978378" lon="10.287616"><time>2025-04-28T08:52:00.000Z</time><ele>1218</ele></trkpt><trkpt lat="45.978381" lon="10.287619"><time>2025-04-28T08:52:01.000Z</time><ele>1218</ele></trkpt><trkpt lat="45.978383" lon="10.287619"><time>2025-04-28T08:52:02.000Z</time><ele>1218</ele></trkpt><trkpt lat="45.978383" lon="10.287626"><time>2025-04-28T08:52:03.000Z</time><ele>1218</ele></trkpt><trkpt lat="45.978379" lon="10.287633"><time>2025-04-28T08:52:04.000Z</time><ele>1218</ele></trkpt><trkpt lat="45.978373" lon="10.287635"><time>2025-04-28T08:52:05.000Z</time><ele>1218</ele></trkpt><trkpt lat="45.978364" lon="10.287633"><time>2025-04-28T08:52:06.000Z</time><ele>1218.2</ele></trkpt><trkpt lat="45.978359" lon="10.287631"><time>2025-04-28T08:52:07.000Z</time><ele>1218.2</ele></trkpt><trkpt lat="45.978356" lon="10.287627"><time>2025-04-28T08:52:08.000Z</time><ele>1218.2</ele></trkpt><trkpt lat="45.978352" lon="10.287618"><time>2025-04-28T08:52:09.000Z</time><ele>1218.2</ele></trkpt><trkpt lat="45.97835" lon="10.287616"><time>2025-04-28T08:52:10.000Z</time><ele>1218.2</ele></trkpt><trkpt lat="45.978355" lon="10.287609"><time>2025-04-28T08:52:11.000Z</time><ele>1218.2</ele></trkpt><trkpt lat="45.978363" lon="10.287604"><time>2025-04-28T08:52:12.000Z</time><ele>1218.2</ele></trkpt><trkpt lat="45.978364" lon="10.287604"><time>2025-04-28T08:52:13.000Z</time><ele>1218.2</ele></trkpt><trkpt lat="45.978364" lon="10.287604"><time>2025-04-28T08:52:14.000Z</time><ele>1218.2</ele></trkpt><trkpt lat="45.978359" lon="10.2876"><time>2025-04-28T08:52:15.000Z</time><ele>1218.2</ele></trkpt><trkpt lat="45.978356" lon="10.287597"><time>2025-04-28T08:52:16.000Z</time><ele>1218.2</ele></trkpt><trkpt lat="45.978354" lon="10.287598"><time>2025-04-28T08:52:17.000Z</time><ele>1218.2</ele></trkpt><trkpt lat="45.978353" lon="10.287603"><time>2025-04-28T08:52:18.000Z</time><ele>1218.2</ele></trkpt><trkpt lat="45.978351" lon="10.287605"><time>2025-04-28T08:52:19.000Z</time><ele>1218.2</ele></trkpt><trkpt lat="45.978343" lon="10.287606"><time>2025-04-28T08:52:20.000Z</time><ele>1218</ele></trkpt><trkpt lat="45.978345" lon="10.287605"><time>2025-04-28T08:52:21.000Z</time><ele>1218</ele></trkpt><trkpt lat="45.978352" lon="10.287607"><time>2025-04-28T08:52:22.000Z</time><ele>1218</ele></trkpt><trkpt lat="45.978356" lon="10.287604"><time>2025-04-28T08:52:23.000Z</time><ele>1218</ele></trkpt><trkpt lat="45.97836" lon="10.287598"><time>2025-04-28T08:52:24.000Z</time><ele>1218</ele></trkpt><trkpt lat="45.978359" lon="10.287597"><time>2025-04-28T08:52:25.000Z</time><ele>1218.2</ele></trkpt><trkpt lat="45.978361" lon="10.287594"><time>2025-04-28T08:52:26.000Z</time><ele>1218.4</ele></trkpt><trkpt lat="45.978362" lon="10.287594"><time>2025-04-28T08:52:27.000Z</time><ele>1218.4</ele></trkpt><trkpt lat="45.978361" lon="10.287589"><time>2025-04-28T08:52:28.000Z</time><ele>1218.4</ele></trkpt><trkpt lat="45.978364" lon="10.287588"><time>2025-04-28T08:52:29.000Z</time><ele>1218.4</ele></trkpt><trkpt lat="45.978366" lon="10.28759"><time>2025-04-28T08:52:30.000Z</time><ele>1218.4</ele></trkpt><trkpt lat="45.978367" lon="10.287593"><time>2025-04-28T08:52:31.000Z</time><ele>1218.4</ele></trkpt><trkpt lat="45.978371" lon="10.287599"><time>2025-04-28T08:52:32.000Z</time><ele>1218.4</ele></trkpt><trkpt lat="45.978376" lon="10.287607"><time>2025-04-28T08:52:33.000Z</time><ele>1218.4</ele></trkpt><trkpt lat="45.978379" lon="10.28761"><time>2025-04-28T08:52:34.000Z</time><ele>1218.4</ele></trkpt><trkpt lat="45.978382" lon="10.287611"><time>2025-04-28T08:52:35.000Z</time><ele>1218.4</ele></trkpt><trkpt lat="45.978383" lon="10.287609"><time>2025-04-28T08:52:36.000Z</time><ele>1218.4</ele></trkpt><trkpt lat="45.978385" lon="10.287608"><time>2025-04-28T08:52:37.000Z</time><ele>1218.4</ele></trkpt><trkpt lat="45.978382" lon="10.2876"><time>2025-04-28T08:52:38.000Z</time><ele>1218.4</ele></trkpt><trkpt lat="45.978379" lon="10.287592"><time>2025-04-28T08:52:39.000Z</time><ele>1218.4</ele></trkpt><trkpt lat="45.978381" lon="10.287588"><time>2025-04-28T08:52:40.000Z</time><ele>1218.4</ele></trkpt><trkpt lat="45.978384" lon="10.287592"><time>2025-04-28T08:52:41.000Z</time><ele>1218.4</ele></trkpt><trkpt lat="45.978387" lon="10.287596"><time>2025-04-28T08:52:42.000Z</time><ele>1218.4</ele></trkpt><trkpt lat="45.978383" lon="10.287602"><time>2025-04-28T08:52:43.000Z</time><ele>1218.2</ele></trkpt><trkpt lat="45.978379" lon="10.287609"><time>2025-04-28T08:52:44.000Z</time><ele>1218.2</ele></trkpt><trkpt lat="45.978373" lon="10.287616"><time>2025-04-28T08:52:45.000Z</time><ele>1218</ele></trkpt><trkpt lat="45.97837" lon="10.287632"><time>2025-04-28T08:52:46.000Z</time><ele>1217.8</ele></trkpt><trkpt lat="45.978372" lon="10.287656"><time>2025-04-28T08:52:47.000Z</time><ele>1217.6</ele></trkpt><trkpt lat="45.978375" lon="10.287687"><time>2025-04-28T08:52:48.000Z</time><ele>1217.4</ele></trkpt><trkpt lat="45.978381" lon="10.287719"><time>2025-04-28T08:52:49.000Z</time><ele>1217.2</ele></trkpt><trkpt lat="45.978391" lon="10.287734"><time>2025-04-28T08:52:50.000Z</time><ele>1217.2</ele></trkpt><trkpt lat="45.978399" lon="10.287749"><time>2025-04-28T08:52:51.000Z</time><ele>1216.8</ele></trkpt><trkpt lat="45.978413" lon="10.287748"><time>2025-04-28T08:52:52.000Z</time><ele>1216.4</ele></trkpt><trkpt lat="45.978421" lon="10.287757"><time>2025-04-28T08:52:53.000Z</time><ele>1216</ele></trkpt><trkpt lat="45.978425" lon="10.287772"><time>2025-04-28T08:52:54.000Z</time><ele>1215.8</ele></trkpt><trkpt lat="45.97843" lon="10.287785"><time>2025-04-28T08:52:55.000Z</time><ele>1215.6</ele></trkpt><trkpt lat="45.978434" lon="10.287793"><time>2025-04-28T08:52:56.000Z</time><ele>1215.2</ele></trkpt><trkpt lat="45.978433" lon="10.287795"><time>2025-04-28T08:52:57.000Z</time><ele>1215</ele></trkpt><trkpt lat="45.978434" lon="10.287799"><time>2025-04-28T08:52:58.000Z</time><ele>1214.8</ele></trkpt><trkpt lat="45.978436" lon="10.287813"><time>2025-04-28T08:52:59.000Z</time><ele>1214.6</ele></trkpt><trkpt lat="45.978441" lon="10.28782"><time>2025-04-28T08:53:00.000Z</time><ele>1214.4</ele></trkpt><trkpt lat="45.978449" lon="10.287828"><time>2025-04-28T08:53:01.000Z</time><ele>1214.2</ele></trkpt><trkpt lat="45.978462" lon="10.287838"><time>2025-04-28T08:53:02.000Z</time><ele>1213.8</ele></trkpt><trkpt lat="45.978474" lon="10.287842"><time>2025-04-28T08:53:03.000Z</time><ele>1213.2</ele></trkpt><trkpt lat="45.97848" lon="10.287854"><time>2025-04-28T08:53:04.000Z</time><ele>1213</ele></trkpt><trkpt lat="45.978481" lon="10.287872"><time>2025-04-28T08:53:05.000Z</time><ele>1212.8</ele></trkpt><trkpt lat="45.978489" lon="10.28789"><time>2025-04-28T08:53:06.000Z</time><ele>1212.6</ele></trkpt><trkpt lat="45.978498" lon="10.287904"><time>2025-04-28T08:53:07.000Z</time><ele>1212.4</ele></trkpt><trkpt lat="45.978512" lon="10.287914"><time>2025-04-28T08:53:08.000Z</time><ele>1212.4</ele></trkpt><trkpt lat="45.978531" lon="10.287924"><time>2025-04-28T08:53:09.000Z</time><ele>1212</ele></trkpt><trkpt lat="45.978544" lon="10.287944"><time>2025-04-28T08:53:10.000Z</time><ele>1211.8</ele></trkpt><trkpt lat="45.978559" lon="10.287966"><time>2025-04-28T08:53:11.000Z</time><ele>1211.6</ele></trkpt><trkpt lat="45.978574" lon="10.287989"><time>2025-04-28T08:53:12.000Z</time><ele>1211.4</ele></trkpt><trkpt lat="45.978593" lon="10.288018"><time>2025-04-28T08:53:13.000Z</time><ele>1211.2</ele></trkpt><trkpt lat="45.978614" lon="10.288037"><time>2025-04-28T08:53:14.000Z</time><ele>1210.8</ele></trkpt><trkpt lat="45.97862" lon="10.288042"><time>2025-04-28T08:53:15.000Z</time><ele>1210.6</ele></trkpt><trkpt lat="45.978638" lon="10.288048"><time>2025-04-28T08:53:16.000Z</time><ele>1210.2</ele></trkpt><trkpt lat="45.978652" lon="10.288057"><time>2025-04-28T08:53:17.000Z</time><ele>1210</ele></trkpt><trkpt lat="45.978656" lon="10.288057"><time>2025-04-28T08:53:18.000Z</time><ele>1209.4</ele></trkpt><trkpt lat="45.978655" lon="10.288067"><time>2025-04-28T08:53:19.000Z</time><ele>1209.2</ele></trkpt><trkpt lat="45.978659" lon="10.288077"><time>2025-04-28T08:53:20.000Z</time><ele>1209</ele></trkpt><trkpt lat="45.978661" lon="10.28809"><time>2025-04-28T08:53:21.000Z</time><ele>1208.8</ele></trkpt><trkpt lat="45.978663" lon="10.288107"><time>2025-04-28T08:53:22.000Z</time><ele>1208.6</ele></trkpt><trkpt lat="45.978667" lon="10.288125"><time>2025-04-28T08:53:23.000Z</time><ele>1208.4</ele></trkpt><trkpt lat="45.978669" lon="10.288147"><time>2025-04-28T08:53:24.000Z</time><ele>1208.2</ele></trkpt><trkpt lat="45.978672" lon="10.288159"><time>2025-04-28T08:53:25.000Z</time><ele>1207.6</ele></trkpt><trkpt lat="45.978687" lon="10.288164"><time>2025-04-28T08:53:26.000Z</time><ele>1207.4</ele></trkpt><trkpt lat="45.978706" lon="10.288163"><time>2025-04-28T08:53:27.000Z</time><ele>1207.2</ele></trkpt><trkpt lat="45.978733" lon="10.288164"><time>2025-04-28T08:53:28.000Z</time><ele>1206.8</ele></trkpt><trkpt lat="45.978755" lon="10.288177"><time>2025-04-28T08:53:29.000Z</time><ele>1206.8</ele></trkpt><trkpt lat="45.978769" lon="10.288183"><time>2025-04-28T08:53:30.000Z</time><ele>1206.6</ele></trkpt><trkpt lat="45.97878" lon="10.288191"><time>2025-04-28T08:53:31.000Z</time><ele>1206.4</ele></trkpt><trkpt lat="45.978792" lon="10.288199"><time>2025-04-28T08:53:32.000Z</time><ele>1206.4</ele></trkpt><trkpt lat="45.978806" lon="10.288206"><time>2025-04-28T08:53:33.000Z</time><ele>1206</ele></trkpt><trkpt lat="45.97882" lon="10.288217"><time>2025-04-28T08:53:34.000Z</time><ele>1205.6</ele></trkpt><trkpt lat="45.97883" lon="10.288223"><time>2025-04-28T08:53:35.000Z</time><ele>1205.2</ele></trkpt><trkpt lat="45.978841" lon="10.288225"><time>2025-04-28T08:53:36.000Z</time><ele>1205</ele></trkpt><trkpt lat="45.978855" lon="10.288227"><time>2025-04-28T08:53:37.000Z</time><ele>1204.8</ele></trkpt><trkpt lat="45.97887" lon="10.288229"><time>2025-04-28T08:53:38.000Z</time><ele>1204.8</ele></trkpt><trkpt lat="45.978881" lon="10.288233"><time>2025-04-28T08:53:39.000Z</time><ele>1204.4</ele></trkpt><trkpt lat="45.978896" lon="10.288235"><time>2025-04-28T08:53:40.000Z</time><ele>1204</ele></trkpt><trkpt lat="45.978907" lon="10.288242"><time>2025-04-28T08:53:41.000Z</time><ele>1203.8</ele></trkpt><trkpt lat="45.978917" lon="10.288249"><time>2025-04-28T08:53:42.000Z</time><ele>1203.6</ele></trkpt><trkpt lat="45.978928" lon="10.288258"><time>2025-04-28T08:53:43.000Z</time><ele>1203.2</ele></trkpt><trkpt lat="45.978938" lon="10.28827"><time>2025-04-28T08:53:44.000Z</time><ele>1203</ele></trkpt><trkpt lat="45.978945" lon="10.288294"><time>2025-04-28T08:53:45.000Z</time><ele>1202.6</ele></trkpt><trkpt lat="45.97895" lon="10.28832"><time>2025-04-28T08:53:46.000Z</time><ele>1202.4</ele></trkpt><trkpt lat="45.978959" lon="10.288338"><time>2025-04-28T08:53:47.000Z</time><ele>1201.8</ele></trkpt><trkpt lat="45.978971" lon="10.28835"><time>2025-04-28T08:53:48.000Z</time><ele>1201.6</ele></trkpt><trkpt lat="45.978984" lon="10.288366"><time>2025-04-28T08:53:49.000Z</time><ele>1201.4</ele></trkpt><trkpt lat="45.979002" lon="10.288391"><time>2025-04-28T08:53:50.000Z</time><ele>1201</ele></trkpt><trkpt lat="45.979011" lon="10.288411"><time>2025-04-28T08:53:51.000Z</time><ele>1200.6</ele></trkpt><trkpt lat="45.979026" lon="10.288439"><time>2025-04-28T08:53:52.000Z</time><ele>1200.4</ele></trkpt><trkpt lat="45.979037" lon="10.288449"><time>2025-04-28T08:53:53.000Z</time><ele>1200.2</ele></trkpt><trkpt lat="45.979045" lon="10.288457"><time>2025-04-28T08:53:54.000Z</time><ele>1199.8</ele></trkpt><trkpt lat="45.979054" lon="10.288469"><time>2025-04-28T08:53:55.000Z</time><ele>1199.6</ele></trkpt><trkpt lat="45.979063" lon="10.288471"><time>2025-04-28T08:53:56.000Z</time><ele>1199.2</ele></trkpt><trkpt lat="45.979076" lon="10.288461"><time>2025-04-28T08:53:57.000Z</time><ele>1199</ele></trkpt><trkpt lat="45.979086" lon="10.288461"><time>2025-04-28T08:53:58.000Z</time><ele>1198.8</ele></trkpt><trkpt lat="45.979102" lon="10.288469"><time>2025-04-28T08:53:59.000Z</time><ele>1198.6</ele></trkpt><trkpt lat="45.979121" lon="10.288469"><time>2025-04-28T08:54:00.000Z</time><ele>1198.2</ele></trkpt><trkpt lat="45.979136" lon="10.288479"><time>2025-04-28T08:54:01.000Z</time><ele>1198</ele></trkpt><trkpt lat="45.979151" lon="10.288488"><time>2025-04-28T08:54:02.000Z</time><ele>1197.8</ele></trkpt><trkpt lat="45.979166" lon="10.288502"><time>2025-04-28T08:54:03.000Z</time><ele>1197.6</ele></trkpt><trkpt lat="45.97918" lon="10.288506"><time>2025-04-28T08:54:04.000Z</time><ele>1197.4</ele></trkpt><trkpt lat="45.979191" lon="10.288507"><time>2025-04-28T08:54:05.000Z</time><ele>1197.2</ele></trkpt><trkpt lat="45.979207" lon="10.288509"><time>2025-04-28T08:54:06.000Z</time><ele>1197</ele></trkpt><trkpt lat="45.979221" lon="10.288519"><time>2025-04-28T08:54:07.000Z</time><ele>1196.8</ele></trkpt><trkpt lat="45.979238" lon="10.288533"><time>2025-04-28T08:54:08.000Z</time><ele>1196.6</ele></trkpt><trkpt lat="45.979253" lon="10.288535"><time>2025-04-28T08:54:09.000Z</time><ele>1196.4</ele></trkpt><trkpt lat="45.979263" lon="10.288539"><time>2025-04-28T08:54:10.000Z</time><ele>1196</ele></trkpt><trkpt lat="45.979266" lon="10.288547"><time>2025-04-28T08:54:11.000Z</time><ele>1195.8</ele></trkpt><trkpt lat="45.979267" lon="10.288547"><time>2025-04-28T08:54:12.000Z</time><ele>1195.8</ele></trkpt><trkpt lat="45.979262" lon="10.288531"><time>2025-04-28T08:54:13.000Z</time><ele>1195.6</ele></trkpt><trkpt lat="45.979254" lon="10.288517"><time>2025-04-28T08:54:14.000Z</time><ele>1195.6</ele></trkpt><trkpt lat="45.979257" lon="10.288515"><time>2025-04-28T08:54:15.000Z</time><ele>1195.6</ele></trkpt><trkpt lat="45.979261" lon="10.288512"><time>2025-04-28T08:54:16.000Z</time><ele>1195.6</ele></trkpt><trkpt lat="45.979269" lon="10.288502"><time>2025-04-28T08:54:17.000Z</time><ele>1195.6</ele></trkpt><trkpt lat="45.97927" lon="10.288498"><time>2025-04-28T08:54:18.000Z</time><ele>1195.4</ele></trkpt><trkpt lat="45.979261" lon="10.288509"><time>2025-04-28T08:54:19.000Z</time><ele>1195.4</ele></trkpt><trkpt lat="45.979257" lon="10.28851"><time>2025-04-28T08:54:20.000Z</time><ele>1195.4</ele></trkpt><trkpt lat="45.979241" lon="10.288535"><time>2025-04-28T08:54:21.000Z</time><ele>1195.2</ele></trkpt><trkpt lat="45.979241" lon="10.288537"><time>2025-04-28T08:54:22.000Z</time><ele>1195.2</ele></trkpt><trkpt lat="45.979235" lon="10.288562"><time>2025-04-28T08:54:23.000Z</time><ele>1195.2</ele></trkpt><trkpt lat="45.979243" lon="10.288579"><time>2025-04-28T08:54:24.000Z</time><ele>1195.2</ele></trkpt><trkpt lat="45.979243" lon="10.288584"><time>2025-04-28T08:54:25.000Z</time><ele>1195.2</ele></trkpt><trkpt lat="45.979244" lon="10.288595"><time>2025-04-28T08:54:26.000Z</time><ele>1195.2</ele></trkpt><trkpt lat="45.979248" lon="10.28858"><time>2025-04-28T08:54:27.000Z</time><ele>1195</ele></trkpt><trkpt lat="45.979243" lon="10.288576"><time>2025-04-28T08:54:28.000Z</time><ele>1195</ele></trkpt><trkpt lat="45.97924" lon="10.288588"><time>2025-04-28T08:54:29.000Z</time><ele>1195</ele></trkpt><trkpt lat="45.979239" lon="10.288596"><time>2025-04-28T08:54:30.000Z</time><ele>1195</ele></trkpt><trkpt lat="45.97924" lon="10.288601"><time>2025-04-28T08:54:31.000Z</time><ele>1195</ele></trkpt><trkpt lat="45.97924" lon="10.288608"><time>2025-04-28T08:54:32.000Z</time><ele>1195</ele></trkpt><trkpt lat="45.979238" lon="10.288612"><time>2025-04-28T08:54:33.000Z</time><ele>1195</ele></trkpt><trkpt lat="45.97924" lon="10.288618"><time>2025-04-28T08:54:34.000Z</time><ele>1195.2</ele></trkpt><trkpt lat="45.979236" lon="10.288626"><time>2025-04-28T08:54:35.000Z</time><ele>1195.2</ele></trkpt><trkpt lat="45.979244" lon="10.288633"><time>2025-04-28T08:54:36.000Z</time><ele>1195.2</ele></trkpt><trkpt lat="45.97925" lon="10.288639"><time>2025-04-28T08:54:37.000Z</time><ele>1195.2</ele></trkpt><trkpt lat="45.979256" lon="10.288654"><time>2025-04-28T08:54:38.000Z</time><ele>1195.2</ele></trkpt><trkpt lat="45.979262" lon="10.288661"><time>2025-04-28T08:54:39.000Z</time><ele>1195</ele></trkpt><trkpt lat="45.97927" lon="10.288673"><time>2025-04-28T08:54:40.000Z</time><ele>1194.8</ele></trkpt><trkpt lat="45.979281" lon="10.288679"><time>2025-04-28T08:54:41.000Z</time><ele>1194.8</ele></trkpt><trkpt lat="45.979297" lon="10.288685"><time>2025-04-28T08:54:42.000Z</time><ele>1194.6</ele></trkpt><trkpt lat="45.979321" lon="10.288689"><time>2025-04-28T08:54:43.000Z</time><ele>1194.4</ele></trkpt><trkpt lat="45.979339" lon="10.288687"><time>2025-04-28T08:54:44.000Z</time><ele>1194.2</ele></trkpt><trkpt lat="45.979348" lon="10.288696"><time>2025-04-28T08:54:45.000Z</time><ele>1194</ele></trkpt><trkpt lat="45.979351" lon="10.288706"><time>2025-04-28T08:54:46.000Z</time><ele>1193.6</ele></trkpt><trkpt lat="45.979344" lon="10.288728"><time>2025-04-28T08:54:47.000Z</time><ele>1193.4</ele></trkpt><trkpt lat="45.979347" lon="10.288746"><time>2025-04-28T08:54:48.000Z</time><ele>1193</ele></trkpt><trkpt lat="45.979354" lon="10.288762"><time>2025-04-28T08:54:49.000Z</time><ele>1192.8</ele></trkpt><trkpt lat="45.979366" lon="10.288791"><time>2025-04-28T08:54:50.000Z</time><ele>1192.2</ele></trkpt><trkpt lat="45.979374" lon="10.288816"><time>2025-04-28T08:54:51.000Z</time><ele>1191.8</ele></trkpt><trkpt lat="45.979386" lon="10.288841"><time>2025-04-28T08:54:52.000Z</time><ele>1191.6</ele></trkpt><trkpt lat="45.979399" lon="10.288857"><time>2025-04-28T08:54:53.000Z</time><ele>1191.2</ele></trkpt><trkpt lat="45.979417" lon="10.288868"><time>2025-04-28T08:54:54.000Z</time><ele>1191</ele></trkpt><trkpt lat="45.979435" lon="10.288871"><time>2025-04-28T08:54:55.000Z</time><ele>1190.8</ele></trkpt><trkpt lat="45.979447" lon="10.288879"><time>2025-04-28T08:54:56.000Z</time><ele>1190.4</ele></trkpt><trkpt lat="45.979458" lon="10.288885"><time>2025-04-28T08:54:57.000Z</time><ele>1190.4</ele></trkpt><trkpt lat="45.979468" lon="10.288893"><time>2025-04-28T08:54:58.000Z</time><ele>1190</ele></trkpt><trkpt lat="45.97948" lon="10.2889"><time>2025-04-28T08:54:59.000Z</time><ele>1189.6</ele></trkpt><trkpt lat="45.979493" lon="10.288911"><time>2025-04-28T08:55:00.000Z</time><ele>1189.4</ele></trkpt><trkpt lat="45.9795" lon="10.288915"><time>2025-04-28T08:55:01.000Z</time><ele>1189.4</ele></trkpt><trkpt lat="45.979511" lon="10.288922"><time>2025-04-28T08:55:02.000Z</time><ele>1189.4</ele></trkpt><trkpt lat="45.979525" lon="10.288935"><time>2025-04-28T08:55:03.000Z</time><ele>1189.2</ele></trkpt><trkpt lat="45.979542" lon="10.288949"><time>2025-04-28T08:55:04.000Z</time><ele>1189</ele></trkpt><trkpt lat="45.979555" lon="10.288969"><time>2025-04-28T08:55:05.000Z</time><ele>1188.8</ele></trkpt><trkpt lat="45.979566" lon="10.288981"><time>2025-04-28T08:55:06.000Z</time><ele>1188.6</ele></trkpt><trkpt lat="45.97958" lon="10.288988"><time>2025-04-28T08:55:07.000Z</time><ele>1188.4</ele></trkpt><trkpt lat="45.97959" lon="10.289"><time>2025-04-28T08:55:08.000Z</time><ele>1188.2</ele></trkpt><trkpt lat="45.979592" lon="10.289013"><time>2025-04-28T08:55:09.000Z</time><ele>1188</ele></trkpt><trkpt lat="45.979592" lon="10.289026"><time>2025-04-28T08:55:10.000Z</time><ele>1188</ele></trkpt><trkpt lat="45.979594" lon="10.289042"><time>2025-04-28T08:55:11.000Z</time><ele>1187.8</ele></trkpt><trkpt lat="45.979602" lon="10.289059"><time>2025-04-28T08:55:12.000Z</time><ele>1187.6</ele></trkpt><trkpt lat="45.979617" lon="10.289085"><time>2025-04-28T08:55:13.000Z</time><ele>1187.6</ele></trkpt><trkpt lat="45.979632" lon="10.289113"><time>2025-04-28T08:55:14.000Z</time><ele>1187.4</ele></trkpt><trkpt lat="45.979642" lon="10.28914"><time>2025-04-28T08:55:15.000Z</time><ele>1187</ele></trkpt><trkpt lat="45.979646" lon="10.28916"><time>2025-04-28T08:55:16.000Z</time><ele>1186.8</ele></trkpt><trkpt lat="45.979643" lon="10.289171"><time>2025-04-28T08:55:17.000Z</time><ele>1186.6</ele></trkpt><trkpt lat="45.979643" lon="10.28918"><time>2025-04-28T08:55:18.000Z</time><ele>1186.4</ele></trkpt><trkpt lat="45.979649" lon="10.289192"><time>2025-04-28T08:55:19.000Z</time><ele>1186.2</ele></trkpt><trkpt lat="45.979654" lon="10.28921"><time>2025-04-28T08:55:20.000Z</time><ele>1186</ele></trkpt><trkpt lat="45.979651" lon="10.289233"><time>2025-04-28T08:55:21.000Z</time><ele>1185.6</ele></trkpt><trkpt lat="45.979644" lon="10.289252"><time>2025-04-28T08:55:22.000Z</time><ele>1185.4</ele></trkpt><trkpt lat="45.979639" lon="10.289267"><time>2025-04-28T08:55:23.000Z</time><ele>1185.2</ele></trkpt><trkpt lat="45.979639" lon="10.289287"><time>2025-04-28T08:55:24.000Z</time><ele>1185</ele></trkpt><trkpt lat="45.979643" lon="10.289307"><time>2025-04-28T08:55:25.000Z</time><ele>1184.8</ele></trkpt><trkpt lat="45.979642" lon="10.289326"><time>2025-04-28T08:55:26.000Z</time><ele>1184.8</ele></trkpt><trkpt lat="45.979644" lon="10.289344"><time>2025-04-28T08:55:27.000Z</time><ele>1184.6</ele></trkpt><trkpt lat="45.979643" lon="10.289359"><time>2025-04-28T08:55:28.000Z</time><ele>1184.4</ele></trkpt><trkpt lat="45.979642" lon="10.289375"><time>2025-04-28T08:55:29.000Z</time><ele>1184</ele></trkpt><trkpt lat="45.979642" lon="10.289386"><time>2025-04-28T08:55:30.000Z</time><ele>1183.6</ele></trkpt><trkpt lat="45.979645" lon="10.289401"><time>2025-04-28T08:55:31.000Z</time><ele>1183.2</ele></trkpt><trkpt lat="45.97965" lon="10.289421"><time>2025-04-28T08:55:32.000Z</time><ele>1183</ele></trkpt><trkpt lat="45.979653" lon="10.289445"><time>2025-04-28T08:55:33.000Z</time><ele>1183</ele></trkpt><trkpt lat="45.979649" lon="10.289466"><time>2025-04-28T08:55:34.000Z</time><ele>1182.6</ele></trkpt><trkpt lat="45.979648" lon="10.289491"><time>2025-04-28T08:55:35.000Z</time><ele>1182.2</ele></trkpt><trkpt lat="45.979652" lon="10.289518"><time>2025-04-28T08:55:36.000Z</time><ele>1181.8</ele></trkpt><trkpt lat="45.979662" lon="10.28955"><time>2025-04-28T08:55:37.000Z</time><ele>1181.6</ele></trkpt><trkpt lat="45.979672" lon="10.289588"><time>2025-04-28T08:55:38.000Z</time><ele>1181.4</ele></trkpt><trkpt lat="45.979672" lon="10.289624"><time>2025-04-28T08:55:39.000Z</time><ele>1181</ele></trkpt><trkpt lat="45.979674" lon="10.289655"><time>2025-04-28T08:55:40.000Z</time><ele>1180.6</ele></trkpt><trkpt lat="45.979679" lon="10.28968"><time>2025-04-28T08:55:41.000Z</time><ele>1180.4</ele></trkpt><trkpt lat="45.979684" lon="10.289705"><time>2025-04-28T08:55:42.000Z</time><ele>1180</ele></trkpt><trkpt lat="45.979683" lon="10.289729"><time>2025-04-28T08:55:43.000Z</time><ele>1180</ele></trkpt><trkpt lat="45.979684" lon="10.289751"><time>2025-04-28T08:55:44.000Z</time><ele>1179.6</ele></trkpt><trkpt lat="45.97969" lon="10.28977"><time>2025-04-28T08:55:45.000Z</time><ele>1179.2</ele></trkpt><trkpt lat="45.979695" lon="10.289786"><time>2025-04-28T08:55:46.000Z</time><ele>1178.8</ele></trkpt><trkpt lat="45.979699" lon="10.289803"><time>2025-04-28T08:55:47.000Z</time><ele>1178.6</ele></trkpt><trkpt lat="45.979704" lon="10.289825"><time>2025-04-28T08:55:48.000Z</time><ele>1178.2</ele></trkpt><trkpt lat="45.97971" lon="10.289844"><time>2025-04-28T08:55:49.000Z</time><ele>1177.8</ele></trkpt><trkpt lat="45.979714" lon="10.289865"><time>2025-04-28T08:55:50.000Z</time><ele>1177.4</ele></trkpt><trkpt lat="45.97972" lon="10.289887"><time>2025-04-28T08:55:51.000Z</time><ele>1177.2</ele></trkpt><trkpt lat="45.979725" lon="10.289908"><time>2025-04-28T08:55:52.000Z</time><ele>1176.8</ele></trkpt><trkpt lat="45.979733" lon="10.289927"><time>2025-04-28T08:55:53.000Z</time><ele>1176.6</ele></trkpt><trkpt lat="45.979737" lon="10.289949"><time>2025-04-28T08:55:54.000Z</time><ele>1176.6</ele></trkpt><trkpt lat="45.979743" lon="10.289972"><time>2025-04-28T08:55:55.000Z</time><ele>1176.4</ele></trkpt><trkpt lat="45.979742" lon="10.289991"><time>2025-04-28T08:55:56.000Z</time><ele>1176.2</ele></trkpt><trkpt lat="45.979741" lon="10.290006"><time>2025-04-28T08:55:57.000Z</time><ele>1176</ele></trkpt><trkpt lat="45.979738" lon="10.29002"><time>2025-04-28T08:55:58.000Z</time><ele>1175.6</ele></trkpt><trkpt lat="45.979736" lon="10.290031"><time>2025-04-28T08:55:59.000Z</time><ele>1175.4</ele></trkpt><trkpt lat="45.979737" lon="10.290038"><time>2025-04-28T08:56:00.000Z</time><ele>1175.4</ele></trkpt><trkpt lat="45.979737" lon="10.290045"><time>2025-04-28T08:56:01.000Z</time><ele>1175.2</ele></trkpt><trkpt lat="45.979737" lon="10.290045"><time>2025-04-28T08:56:02.000Z</time><ele>1175</ele></trkpt><trkpt lat="45.979738" lon="10.290045"><time>2025-04-28T08:56:03.000Z</time><ele>1175</ele></trkpt><trkpt lat="45.979738" lon="10.290045"><time>2025-04-28T08:56:04.000Z</time><ele>1175</ele></trkpt><trkpt lat="45.979737" lon="10.290044"><time>2025-04-28T08:56:05.000Z</time><ele>1175</ele></trkpt><trkpt lat="45.97974" lon="10.290033"><time>2025-04-28T08:56:06.000Z</time><ele>1175</ele></trkpt><trkpt lat="45.979741" lon="10.290026"><time>2025-04-28T08:56:07.000Z</time><ele>1175</ele></trkpt><trkpt lat="45.979739" lon="10.290022"><time>2025-04-28T08:56:08.000Z</time><ele>1175</ele></trkpt><trkpt lat="45.97974" lon="10.290016"><time>2025-04-28T08:56:09.000Z</time><ele>1175</ele></trkpt><trkpt lat="45.979741" lon="10.290015"><time>2025-04-28T08:56:10.000Z</time><ele>1175</ele></trkpt><trkpt lat="45.979744" lon="10.290013"><time>2025-04-28T08:56:11.000Z</time><ele>1175</ele></trkpt><trkpt lat="45.979747" lon="10.290012"><time>2025-04-28T08:56:12.000Z</time><ele>1175</ele></trkpt><trkpt lat="45.979749" lon="10.290005"><time>2025-04-28T08:56:13.000Z</time><ele>1174.8</ele></trkpt><trkpt lat="45.979751" lon="10.290002"><time>2025-04-28T08:56:14.000Z</time><ele>1174.8</ele></trkpt><trkpt lat="45.979753" lon="10.289999"><time>2025-04-28T08:56:15.000Z</time><ele>1174.8</ele></trkpt><trkpt lat="45.979755" lon="10.289995"><time>2025-04-28T08:56:16.000Z</time><ele>1174.8</ele></trkpt><trkpt lat="45.979756" lon="10.289993"><time>2025-04-28T08:56:17.000Z</time><ele>1174.8</ele></trkpt><trkpt lat="45.979758" lon="10.289995"><time>2025-04-28T08:56:18.000Z</time><ele>1174.8</ele></trkpt><trkpt lat="45.979759" lon="10.289992"><time>2025-04-28T08:56:19.000Z</time><ele>1174.8</ele></trkpt><trkpt lat="45.97976" lon="10.28999"><time>2025-04-28T08:56:20.000Z</time><ele>1174.8</ele></trkpt><trkpt lat="45.979758" lon="10.289993"><time>2025-04-28T08:56:21.000Z</time><ele>1174.8</ele></trkpt><trkpt lat="45.979757" lon="10.289993"><time>2025-04-28T08:56:22.000Z</time><ele>1174.8</ele></trkpt><trkpt lat="45.979756" lon="10.289989"><time>2025-04-28T08:56:23.000Z</time><ele>1174.8</ele></trkpt><trkpt lat="45.979756" lon="10.289987"><time>2025-04-28T08:56:24.000Z</time><ele>1174.8</ele></trkpt><trkpt lat="45.979756" lon="10.289986"><time>2025-04-28T08:56:25.000Z</time><ele>1174.8</ele></trkpt><trkpt lat="45.979756" lon="10.289986"><time>2025-04-28T08:56:26.000Z</time><ele>1174.6</ele></trkpt><trkpt lat="45.979756" lon="10.289986"><time>2025-04-28T08:56:27.000Z</time><ele>1174.6</ele></trkpt><trkpt lat="45.979756" lon="10.289986"><time>2025-04-28T08:56:28.000Z</time><ele>1174.6</ele></trkpt><trkpt lat="45.979756" lon="10.289986"><time>2025-04-28T08:56:29.000Z</time><ele>1174.4</ele></trkpt><trkpt lat="45.979756" lon="10.289986"><time>2025-04-28T08:56:30.000Z</time><ele>1174.6</ele></trkpt><trkpt lat="45.979756" lon="10.289986"><time>2025-04-28T08:56:31.000Z</time><ele>1174.4</ele></trkpt><trkpt lat="45.979756" lon="10.289986"><time>2025-04-28T08:56:32.000Z</time><ele>1174.6</ele></trkpt><trkpt lat="45.979756" lon="10.289986"><time>2025-04-28T08:56:33.000Z</time><ele>1174.6</ele></trkpt><trkpt lat="45.979756" lon="10.289986"><time>2025-04-28T08:56:34.000Z</time><ele>1174.6</ele></trkpt><trkpt lat="45.979756" lon="10.289986"><time>2025-04-28T08:56:35.000Z</time><ele>1174.6</ele></trkpt><trkpt lat="45.979756" lon="10.289986"><time>2025-04-28T08:56:36.000Z</time><ele>1174.6</ele></trkpt><trkpt lat="45.979756" lon="10.289986"><time>2025-04-28T08:56:37.000Z</time><ele>1174.6</ele></trkpt><trkpt lat="45.979757" lon="10.289986"><time>2025-04-28T08:56:38.000Z</time><ele>1174.8</ele></trkpt><trkpt lat="45.979757" lon="10.289986"><time>2025-04-28T08:56:39.000Z</time><ele>1174.8</ele></trkpt><trkpt lat="45.979757" lon="10.289986"><time>2025-04-28T08:56:40.000Z</time><ele>1174.8</ele></trkpt><trkpt lat="45.979758" lon="10.289981"><time>2025-04-28T08:56:41.000Z</time><ele>1174.8</ele></trkpt><trkpt lat="45.979759" lon="10.289973"><time>2025-04-28T08:56:42.000Z</time><ele>1175</ele></trkpt><trkpt lat="45.979759" lon="10.289972"><time>2025-04-28T08:56:43.000Z</time><ele>1175</ele></trkpt><trkpt lat="45.97976" lon="10.289972"><time>2025-04-28T08:56:44.000Z</time><ele>1175</ele></trkpt><trkpt lat="45.97976" lon="10.289972"><time>2025-04-28T08:56:45.000Z</time><ele>1175</ele></trkpt><trkpt lat="45.979763" lon="10.289972"><time>2025-04-28T08:56:46.000Z</time><ele>1175.2</ele></trkpt><trkpt lat="45.979767" lon="10.289972"><time>2025-04-28T08:56:47.000Z</time><ele>1175.2</ele></trkpt><trkpt lat="45.97977" lon="10.289972"><time>2025-04-28T08:56:48.000Z</time><ele>1175.2</ele></trkpt><trkpt lat="45.979771" lon="10.289972"><time>2025-04-28T08:56:49.000Z</time><ele>1175.2</ele></trkpt><trkpt lat="45.979772" lon="10.28997"><time>2025-04-28T08:56:50.000Z</time><ele>1175.2</ele></trkpt><trkpt lat="45.979772" lon="10.28997"><time>2025-04-28T08:56:51.000Z</time><ele>1175.2</ele></trkpt><trkpt lat="45.979772" lon="10.28997"><time>2025-04-28T08:56:52.000Z</time><ele>1175.2</ele></trkpt><trkpt lat="45.979772" lon="10.28997"><time>2025-04-28T08:56:53.000Z</time><ele>1175.2</ele></trkpt><trkpt lat="45.979772" lon="10.28997"><time>2025-04-28T08:56:54.000Z</time><ele>1175.2</ele></trkpt><trkpt lat="45.979772" lon="10.28997"><time>2025-04-28T08:56:55.000Z</time><ele>1174.8</ele></trkpt><trkpt lat="45.979773" lon="10.28997"><time>2025-04-28T08:56:56.000Z</time><ele>1174.6</ele></trkpt><trkpt lat="45.979774" lon="10.289975"><time>2025-04-28T08:56:57.000Z</time><ele>1174.4</ele></trkpt><trkpt lat="45.979779" lon="10.289995"><time>2025-04-28T08:56:58.000Z</time><ele>1174.2</ele></trkpt><trkpt lat="45.979781" lon="10.29002"><time>2025-04-28T08:56:59.000Z</time><ele>1174.2</ele></trkpt><trkpt lat="45.979788" lon="10.290044"><time>2025-04-28T08:57:00.000Z</time><ele>1174</ele></trkpt><trkpt lat="45.979792" lon="10.290064"><time>2025-04-28T08:57:01.000Z</time><ele>1173.8</ele></trkpt><trkpt lat="45.9798" lon="10.290086"><time>2025-04-28T08:57:02.000Z</time><ele>1173.6</ele></trkpt><trkpt lat="45.979808" lon="10.290116"><time>2025-04-28T08:57:03.000Z</time><ele>1173.6</ele></trkpt><trkpt lat="45.979811" lon="10.290144"><time>2025-04-28T08:57:04.000Z</time><ele>1173</ele></trkpt><trkpt lat="45.979815" lon="10.290168"><time>2025-04-28T08:57:05.000Z</time><ele>1172.6</ele></trkpt><trkpt lat="45.979821" lon="10.290191"><time>2025-04-28T08:57:06.000Z</time><ele>1172.4</ele></trkpt><trkpt lat="45.979834" lon="10.290202"><time>2025-04-28T08:57:07.000Z</time><ele>1172.2</ele></trkpt><trkpt lat="45.979844" lon="10.290217"><time>2025-04-28T08:57:08.000Z</time><ele>1171.8</ele></trkpt><trkpt lat="45.979856" lon="10.29023"><time>2025-04-28T08:57:09.000Z</time><ele>1171.6</ele></trkpt><trkpt lat="45.979867" lon="10.290243"><time>2025-04-28T08:57:10.000Z</time><ele>1171.4</ele></trkpt><trkpt lat="45.979878" lon="10.290251"><time>2025-04-28T08:57:11.000Z</time><ele>1171.2</ele></trkpt><trkpt lat="45.97989" lon="10.290262"><time>2025-04-28T08:57:12.000Z</time><ele>1171.2</ele></trkpt><trkpt lat="45.979899" lon="10.290276"><time>2025-04-28T08:57:13.000Z</time><ele>1170.8</ele></trkpt><trkpt lat="45.979908" lon="10.290292"><time>2025-04-28T08:57:14.000Z</time><ele>1170.4</ele></trkpt><trkpt lat="45.979914" lon="10.290305"><time>2025-04-28T08:57:15.000Z</time><ele>1170.2</ele></trkpt><trkpt lat="45.979931" lon="10.290322"><time>2025-04-28T08:57:16.000Z</time><ele>1170</ele></trkpt><trkpt lat="45.979943" lon="10.290331"><time>2025-04-28T08:57:17.000Z</time><ele>1169.6</ele></trkpt><trkpt lat="45.979964" lon="10.290349"><time>2025-04-28T08:57:18.000Z</time><ele>1169.2</ele></trkpt><trkpt lat="45.97998" lon="10.290367"><time>2025-04-28T08:57:19.000Z</time><ele>1169.2</ele></trkpt><trkpt lat="45.979994" lon="10.29039"><time>2025-04-28T08:57:20.000Z</time><ele>1169</ele></trkpt><trkpt lat="45.979998" lon="10.290412"><time>2025-04-28T08:57:21.000Z</time><ele>1169</ele></trkpt><trkpt lat="45.980003" lon="10.290426"><time>2025-04-28T08:57:22.000Z</time><ele>1169</ele></trkpt><trkpt lat="45.980008" lon="10.290437"><time>2025-04-28T08:57:23.000Z</time><ele>1168.8</ele></trkpt><trkpt lat="45.980013" lon="10.290457"><time>2025-04-28T08:57:24.000Z</time><ele>1168.6</ele></trkpt><trkpt lat="45.980022" lon="10.290467"><time>2025-04-28T08:57:25.000Z</time><ele>1168.6</ele></trkpt><trkpt lat="45.980041" lon="10.290475"><time>2025-04-28T08:57:26.000Z</time><ele>1168.4</ele></trkpt><trkpt lat="45.980063" lon="10.29048"><time>2025-04-28T08:57:27.000Z</time><ele>1168.4</ele></trkpt><trkpt lat="45.980085" lon="10.290482"><time>2025-04-28T08:57:28.000Z</time><ele>1168.2</ele></trkpt><trkpt lat="45.980094" lon="10.290489"><time>2025-04-28T08:57:29.000Z</time><ele>1167.8</ele></trkpt><trkpt lat="45.980104" lon="10.2905"><time>2025-04-28T08:57:30.000Z</time><ele>1167.6</ele></trkpt><trkpt lat="45.980112" lon="10.290518"><time>2025-04-28T08:57:31.000Z</time><ele>1167.4</ele></trkpt><trkpt lat="45.980121" lon="10.290541"><time>2025-04-28T08:57:32.000Z</time><ele>1167.2</ele></trkpt><trkpt lat="45.980131" lon="10.29056"><time>2025-04-28T08:57:33.000Z</time><ele>1167</ele></trkpt><trkpt lat="45.980132" lon="10.290579"><time>2025-04-28T08:57:34.000Z</time><ele>1166.8</ele></trkpt><trkpt lat="45.980138" lon="10.290599"><time>2025-04-28T08:57:35.000Z</time><ele>1166.8</ele></trkpt><trkpt lat="45.980149" lon="10.290616"><time>2025-04-28T08:57:36.000Z</time><ele>1166.6</ele></trkpt><trkpt lat="45.980155" lon="10.290632"><time>2025-04-28T08:57:37.000Z</time><ele>1166.6</ele></trkpt><trkpt lat="45.980159" lon="10.290634"><time>2025-04-28T08:57:38.000Z</time><ele>1166.6</ele></trkpt><trkpt lat="45.980161" lon="10.290634"><time>2025-04-28T08:57:39.000Z</time><ele>1166.6</ele></trkpt><trkpt lat="45.980177" lon="10.290634"><time>2025-04-28T08:57:40.000Z</time><ele>1166.6</ele></trkpt><trkpt lat="45.980196" lon="10.290635"><time>2025-04-28T08:57:41.000Z</time><ele>1166.4</ele></trkpt><trkpt lat="45.980212" lon="10.290647"><time>2025-04-28T08:57:42.000Z</time><ele>1166.4</ele></trkpt><trkpt lat="45.980225" lon="10.290664"><time>2025-04-28T08:57:43.000Z</time><ele>1166.2</ele></trkpt><trkpt lat="45.980235" lon="10.290681"><time>2025-04-28T08:57:44.000Z</time><ele>1166.2</ele></trkpt><trkpt lat="45.980246" lon="10.290694"><time>2025-04-28T08:57:45.000Z</time><ele>1166</ele></trkpt><trkpt lat="45.980248" lon="10.290709"><time>2025-04-28T08:57:46.000Z</time><ele>1166</ele></trkpt><trkpt lat="45.980256" lon="10.290712"><time>2025-04-28T08:57:47.000Z</time><ele>1165.8</ele></trkpt><trkpt lat="45.980271" lon="10.290721"><time>2025-04-28T08:57:48.000Z</time><ele>1165.6</ele></trkpt><trkpt lat="45.980287" lon="10.290733"><time>2025-04-28T08:57:49.000Z</time><ele>1165.6</ele></trkpt><trkpt lat="45.980304" lon="10.290748"><time>2025-04-28T08:57:50.000Z</time><ele>1165.4</ele></trkpt><trkpt lat="45.980324" lon="10.29076"><time>2025-04-28T08:57:51.000Z</time><ele>1165.4</ele></trkpt><trkpt lat="45.980342" lon="10.290765"><time>2025-04-28T08:57:52.000Z</time><ele>1165.4</ele></trkpt><trkpt lat="45.980358" lon="10.290773"><time>2025-04-28T08:57:53.000Z</time><ele>1165.2</ele></trkpt><trkpt lat="45.980368" lon="10.290786"><time>2025-04-28T08:57:54.000Z</time><ele>1165</ele></trkpt><trkpt lat="45.980383" lon="10.290798"><time>2025-04-28T08:57:55.000Z</time><ele>1164.8</ele></trkpt><trkpt lat="45.980397" lon="10.290808"><time>2025-04-28T08:57:56.000Z</time><ele>1164.6</ele></trkpt><trkpt lat="45.98041" lon="10.290815"><time>2025-04-28T08:57:57.000Z</time><ele>1164.4</ele></trkpt><trkpt lat="45.980416" lon="10.290827"><time>2025-04-28T08:57:58.000Z</time><ele>1164.4</ele></trkpt><trkpt lat="45.980425" lon="10.290837"><time>2025-04-28T08:57:59.000Z</time><ele>1164</ele></trkpt><trkpt lat="45.98044" lon="10.290846"><time>2025-04-28T08:58:00.000Z</time><ele>1163.8</ele></trkpt><trkpt lat="45.980447" lon="10.290847"><time>2025-04-28T08:58:01.000Z</time><ele>1163.6</ele></trkpt><trkpt lat="45.980457" lon="10.290858"><time>2025-04-28T08:58:02.000Z</time><ele>1163.4</ele></trkpt><trkpt lat="45.980472" lon="10.290876"><time>2025-04-28T08:58:03.000Z</time><ele>1163.2</ele></trkpt><trkpt lat="45.980486" lon="10.290893"><time>2025-04-28T08:58:04.000Z</time><ele>1163</ele></trkpt><trkpt lat="45.980498" lon="10.290916"><time>2025-04-28T08:58:05.000Z</time><ele>1163</ele></trkpt><trkpt lat="45.980512" lon="10.29093"><time>2025-04-28T08:58:06.000Z</time><ele>1163</ele></trkpt><trkpt lat="45.980523" lon="10.290941"><time>2025-04-28T08:58:07.000Z</time><ele>1163</ele></trkpt><trkpt lat="45.980533" lon="10.290951"><time>2025-04-28T08:58:08.000Z</time><ele>1162.6</ele></trkpt><trkpt lat="45.980543" lon="10.290965"><time>2025-04-28T08:58:09.000Z</time><ele>1162.6</ele></trkpt><trkpt lat="45.980556" lon="10.290976"><time>2025-04-28T08:58:10.000Z</time><ele>1162.4</ele></trkpt><trkpt lat="45.980568" lon="10.290986"><time>2025-04-28T08:58:11.000Z</time><ele>1162.2</ele></trkpt><trkpt lat="45.980581" lon="10.290996"><time>2025-04-28T08:58:12.000Z</time><ele>1162.2</ele></trkpt><trkpt lat="45.980599" lon="10.291004"><time>2025-04-28T08:58:13.000Z</time><ele>1162</ele></trkpt><trkpt lat="45.980612" lon="10.291009"><time>2025-04-28T08:58:14.000Z</time><ele>1162</ele></trkpt><trkpt lat="45.980616" lon="10.291011"><time>2025-04-28T08:58:15.000Z</time><ele>1162</ele></trkpt><trkpt lat="45.980617" lon="10.291014"><time>2025-04-28T08:58:16.000Z</time><ele>1161.8</ele></trkpt><trkpt lat="45.980624" lon="10.291024"><time>2025-04-28T08:58:17.000Z</time><ele>1161.8</ele></trkpt><trkpt lat="45.980629" lon="10.291027"><time>2025-04-28T08:58:18.000Z</time><ele>1161.6</ele></trkpt><trkpt lat="45.980636" lon="10.291045"><time>2025-04-28T08:58:19.000Z</time><ele>1161.4</ele></trkpt><trkpt lat="45.98064" lon="10.291046"><time>2025-04-28T08:58:20.000Z</time><ele>1161.4</ele></trkpt><trkpt lat="45.980663" lon="10.291054"><time>2025-04-28T08:58:21.000Z</time><ele>1161.4</ele></trkpt><trkpt lat="45.980682" lon="10.291064"><time>2025-04-28T08:58:22.000Z</time><ele>1161.4</ele></trkpt><trkpt lat="45.9807" lon="10.291075"><time>2025-04-28T08:58:23.000Z</time><ele>1161.4</ele></trkpt><trkpt lat="45.980712" lon="10.291085"><time>2025-04-28T08:58:24.000Z</time><ele>1161.4</ele></trkpt><trkpt lat="45.980713" lon="10.291099"><time>2025-04-28T08:58:25.000Z</time><ele>1161.4</ele></trkpt><trkpt lat="45.980718" lon="10.291114"><time>2025-04-28T08:58:26.000Z</time><ele>1161.4</ele></trkpt><trkpt lat="45.980728" lon="10.291132"><time>2025-04-28T08:58:27.000Z</time><ele>1161.2</ele></trkpt><trkpt lat="45.980741" lon="10.291142"><time>2025-04-28T08:58:28.000Z</time><ele>1160.8</ele></trkpt><trkpt lat="45.980757" lon="10.291158"><time>2025-04-28T08:58:29.000Z</time><ele>1160.6</ele></trkpt><trkpt lat="45.980764" lon="10.291168"><time>2025-04-28T08:58:30.000Z</time><ele>1160.2</ele></trkpt><trkpt lat="45.980776" lon="10.291181"><time>2025-04-28T08:58:31.000Z</time><ele>1160.2</ele></trkpt><trkpt lat="45.980788" lon="10.291192"><time>2025-04-28T08:58:32.000Z</time><ele>1160</ele></trkpt><trkpt lat="45.980795" lon="10.291204"><time>2025-04-28T08:58:33.000Z</time><ele>1160</ele></trkpt><trkpt lat="45.980804" lon="10.291212"><time>2025-04-28T08:58:34.000Z</time><ele>1159.8</ele></trkpt><trkpt lat="45.98081" lon="10.29122"><time>2025-04-28T08:58:35.000Z</time><ele>1159.4</ele></trkpt><trkpt lat="45.980818" lon="10.291236"><time>2025-04-28T08:58:36.000Z</time><ele>1159.2</ele></trkpt><trkpt lat="45.980827" lon="10.291257"><time>2025-04-28T08:58:37.000Z</time><ele>1159.2</ele></trkpt><trkpt lat="45.980832" lon="10.291276"><time>2025-04-28T08:58:38.000Z</time><ele>1159</ele></trkpt><trkpt lat="45.980833" lon="10.291293"><time>2025-04-28T08:58:39.000Z</time><ele>1158.8</ele></trkpt><trkpt lat="45.98084" lon="10.291308"><time>2025-04-28T08:58:40.000Z</time><ele>1158.4</ele></trkpt><trkpt lat="45.98085" lon="10.291326"><time>2025-04-28T08:58:41.000Z</time><ele>1158.2</ele></trkpt><trkpt lat="45.980853" lon="10.291353"><time>2025-04-28T08:58:42.000Z</time><ele>1158</ele></trkpt><trkpt lat="45.980856" lon="10.291373"><time>2025-04-28T08:58:43.000Z</time><ele>1157.8</ele></trkpt><trkpt lat="45.980854" lon="10.291393"><time>2025-04-28T08:58:44.000Z</time><ele>1157.6</ele></trkpt><trkpt lat="45.980854" lon="10.291413"><time>2025-04-28T08:58:45.000Z</time><ele>1157.4</ele></trkpt><trkpt lat="45.980857" lon="10.291431"><time>2025-04-28T08:58:46.000Z</time><ele>1157.2</ele></trkpt><trkpt lat="45.980863" lon="10.291452"><time>2025-04-28T08:58:47.000Z</time><ele>1157</ele></trkpt><trkpt lat="45.980874" lon="10.291472"><time>2025-04-28T08:58:48.000Z</time><ele>1157</ele></trkpt><trkpt lat="45.980878" lon="10.29149"><time>2025-04-28T08:58:49.000Z</time><ele>1156.6</ele></trkpt><trkpt lat="45.980885" lon="10.291508"><time>2025-04-28T08:58:50.000Z</time><ele>1156.6</ele></trkpt><trkpt lat="45.980892" lon="10.291521"><time>2025-04-28T08:58:51.000Z</time><ele>1156.2</ele></trkpt><trkpt lat="45.980896" lon="10.291536"><time>2025-04-28T08:58:52.000Z</time><ele>1156</ele></trkpt><trkpt lat="45.980901" lon="10.291553"><time>2025-04-28T08:58:53.000Z</time><ele>1155.8</ele></trkpt><trkpt lat="45.980909" lon="10.291574"><time>2025-04-28T08:58:54.000Z</time><ele>1155.6</ele></trkpt><trkpt lat="45.980924" lon="10.291596"><time>2025-04-28T08:58:55.000Z</time><ele>1155.6</ele></trkpt><trkpt lat="45.980941" lon="10.291616"><time>2025-04-28T08:58:56.000Z</time><ele>1155.4</ele></trkpt><trkpt lat="45.980953" lon="10.291635"><time>2025-04-28T08:58:57.000Z</time><ele>1155.2</ele></trkpt><trkpt lat="45.980961" lon="10.291654"><time>2025-04-28T08:58:58.000Z</time><ele>1155.2</ele></trkpt><trkpt lat="45.98097" lon="10.291673"><time>2025-04-28T08:58:59.000Z</time><ele>1155</ele></trkpt><trkpt lat="45.980978" lon="10.291689"><time>2025-04-28T08:59:00.000Z</time><ele>1154.4</ele></trkpt><trkpt lat="45.980984" lon="10.291699"><time>2025-04-28T08:59:01.000Z</time><ele>1154.2</ele></trkpt><trkpt lat="45.980994" lon="10.291708"><time>2025-04-28T08:59:02.000Z</time><ele>1153.8</ele></trkpt><trkpt lat="45.981009" lon="10.29172"><time>2025-04-28T08:59:03.000Z</time><ele>1153.8</ele></trkpt><trkpt lat="45.981028" lon="10.291747"><time>2025-04-28T08:59:04.000Z</time><ele>1153.6</ele></trkpt><trkpt lat="45.981031" lon="10.291751"><time>2025-04-28T08:59:05.000Z</time><ele>1153.6</ele></trkpt><trkpt lat="45.981034" lon="10.291783"><time>2025-04-28T08:59:06.000Z</time><ele>1153.6</ele></trkpt><trkpt lat="45.981037" lon="10.291784"><time>2025-04-28T08:59:07.000Z</time><ele>1153.6</ele></trkpt><trkpt lat="45.981039" lon="10.291787"><time>2025-04-28T08:59:08.000Z</time><ele>1153.4</ele></trkpt><trkpt lat="45.981046" lon="10.291802"><time>2025-04-28T08:59:09.000Z</time><ele>1153.4</ele></trkpt><trkpt lat="45.981045" lon="10.291821"><time>2025-04-28T08:59:10.000Z</time><ele>1153.4</ele></trkpt><trkpt lat="45.981054" lon="10.291843"><time>2025-04-28T08:59:11.000Z</time><ele>1153.4</ele></trkpt><trkpt lat="45.981057" lon="10.291849"><time>2025-04-28T08:59:12.000Z</time><ele>1153.2</ele></trkpt><trkpt lat="45.981065" lon="10.291861"><time>2025-04-28T08:59:13.000Z</time><ele>1153.2</ele></trkpt><trkpt lat="45.981067" lon="10.291874"><time>2025-04-28T08:59:14.000Z</time><ele>1153.2</ele></trkpt><trkpt lat="45.981069" lon="10.2919"><time>2025-04-28T08:59:15.000Z</time><ele>1153.2</ele></trkpt><trkpt lat="45.981081" lon="10.291911"><time>2025-04-28T08:59:16.000Z</time><ele>1153</ele></trkpt><trkpt lat="45.981096" lon="10.291917"><time>2025-04-28T08:59:17.000Z</time><ele>1153</ele></trkpt><trkpt lat="45.981102" lon="10.291936"><time>2025-04-28T08:59:18.000Z</time><ele>1152.8</ele></trkpt><trkpt lat="45.981115" lon="10.29196"><time>2025-04-28T08:59:19.000Z</time><ele>1152.6</ele></trkpt><trkpt lat="45.981116" lon="10.291984"><time>2025-04-28T08:59:20.000Z</time><ele>1152.4</ele></trkpt><trkpt lat="45.981126" lon="10.292008"><time>2025-04-28T08:59:21.000Z</time><ele>1152</ele></trkpt><trkpt lat="45.98114" lon="10.292015"><time>2025-04-28T08:59:22.000Z</time><ele>1151.8</ele></trkpt><trkpt lat="45.981159" lon="10.292021"><time>2025-04-28T08:59:23.000Z</time><ele>1151.6</ele></trkpt><trkpt lat="45.981169" lon="10.292035"><time>2025-04-28T08:59:24.000Z</time><ele>1151.4</ele></trkpt><trkpt lat="45.981187" lon="10.292042"><time>2025-04-28T08:59:25.000Z</time><ele>1151.4</ele></trkpt><trkpt lat="45.981202" lon="10.29205"><time>2025-04-28T08:59:26.000Z</time><ele>1151.2</ele></trkpt><trkpt lat="45.981214" lon="10.292057"><time>2025-04-28T08:59:27.000Z</time><ele>1151</ele></trkpt><trkpt lat="45.981223" lon="10.29207"><time>2025-04-28T08:59:28.000Z</time><ele>1150.8</ele></trkpt><trkpt lat="45.981233" lon="10.292085"><time>2025-04-28T08:59:29.000Z</time><ele>1150.8</ele></trkpt><trkpt lat="45.981241" lon="10.292107"><time>2025-04-28T08:59:30.000Z</time><ele>1150.6</ele></trkpt><trkpt lat="45.981249" lon="10.292127"><time>2025-04-28T08:59:31.000Z</time><ele>1150.4</ele></trkpt><trkpt lat="45.981252" lon="10.292147"><time>2025-04-28T08:59:32.000Z</time><ele>1150.2</ele></trkpt><trkpt lat="45.981251" lon="10.292179"><time>2025-04-28T08:59:33.000Z</time><ele>1150</ele></trkpt><trkpt lat="45.981256" lon="10.2922"><time>2025-04-28T08:59:34.000Z</time><ele>1150</ele></trkpt><trkpt lat="45.981257" lon="10.292215"><time>2025-04-28T08:59:35.000Z</time><ele>1149.8</ele></trkpt><trkpt lat="45.981266" lon="10.292229"><time>2025-04-28T08:59:36.000Z</time><ele>1149.6</ele></trkpt><trkpt lat="45.981274" lon="10.292253"><time>2025-04-28T08:59:37.000Z</time><ele>1149.6</ele></trkpt><trkpt lat="45.981287" lon="10.292278"><time>2025-04-28T08:59:38.000Z</time><ele>1149.2</ele></trkpt><trkpt lat="45.981303" lon="10.2923"><time>2025-04-28T08:59:39.000Z</time><ele>1149.2</ele></trkpt><trkpt lat="45.981318" lon="10.292321"><time>2025-04-28T08:59:40.000Z</time><ele>1149</ele></trkpt><trkpt lat="45.981326" lon="10.292339"><time>2025-04-28T08:59:41.000Z</time><ele>1148.8</ele></trkpt><trkpt lat="45.981327" lon="10.292364"><time>2025-04-28T08:59:42.000Z</time><ele>1148.8</ele></trkpt><trkpt lat="45.981324" lon="10.292389"><time>2025-04-28T08:59:43.000Z</time><ele>1148.6</ele></trkpt><trkpt lat="45.98133" lon="10.292415"><time>2025-04-28T08:59:44.000Z</time><ele>1148.4</ele></trkpt><trkpt lat="45.981338" lon="10.292439"><time>2025-04-28T08:59:45.000Z</time><ele>1148.2</ele></trkpt><trkpt lat="45.981352" lon="10.292463"><time>2025-04-28T08:59:46.000Z</time><ele>1147.8</ele></trkpt><trkpt lat="45.981366" lon="10.292475"><time>2025-04-28T08:59:47.000Z</time><ele>1147.6</ele></trkpt><trkpt lat="45.981382" lon="10.292475"><time>2025-04-28T08:59:48.000Z</time><ele>1147.2</ele></trkpt><trkpt lat="45.981384" lon="10.292488"><time>2025-04-28T08:59:49.000Z</time><ele>1146.8</ele></trkpt><trkpt lat="45.981389" lon="10.2925"><time>2025-04-28T08:59:50.000Z</time><ele>1146.6</ele></trkpt><trkpt lat="45.9814" lon="10.292507"><time>2025-04-28T08:59:51.000Z</time><ele>1146.6</ele></trkpt><trkpt lat="45.981413" lon="10.292525"><time>2025-04-28T08:59:52.000Z</time><ele>1146.4</ele></trkpt><trkpt lat="45.981426" lon="10.292545"><time>2025-04-28T08:59:53.000Z</time><ele>1146.2</ele></trkpt><trkpt lat="45.981436" lon="10.292565"><time>2025-04-28T08:59:54.000Z</time><ele>1146</ele></trkpt><trkpt lat="45.981441" lon="10.292579"><time>2025-04-28T08:59:55.000Z</time><ele>1145.8</ele></trkpt><trkpt lat="45.981448" lon="10.29259"><time>2025-04-28T08:59:56.000Z</time><ele>1145.8</ele></trkpt><trkpt lat="45.981455" lon="10.292605"><time>2025-04-28T08:59:57.000Z</time><ele>1145.6</ele></trkpt><trkpt lat="45.98146" lon="10.292617"><time>2025-04-28T08:59:58.000Z</time><ele>1145.6</ele></trkpt><trkpt lat="45.981469" lon="10.292629"><time>2025-04-28T08:59:59.000Z</time><ele>1145.6</ele></trkpt><trkpt lat="45.981478" lon="10.29264"><time>2025-04-28T09:00:00.000Z</time><ele>1145.4</ele></trkpt><trkpt lat="45.981488" lon="10.292655"><time>2025-04-28T09:00:01.000Z</time><ele>1145.2</ele></trkpt><trkpt lat="45.981498" lon="10.29267"><time>2025-04-28T09:00:02.000Z</time><ele>1145</ele></trkpt><trkpt lat="45.981503" lon="10.292692"><time>2025-04-28T09:00:03.000Z</time><ele>1145</ele></trkpt><trkpt lat="45.981506" lon="10.292715"><time>2025-04-28T09:00:04.000Z</time><ele>1144.6</ele></trkpt><trkpt lat="45.98151" lon="10.292734"><time>2025-04-28T09:00:05.000Z</time><ele>1144.4</ele></trkpt><trkpt lat="45.981512" lon="10.292748"><time>2025-04-28T09:00:06.000Z</time><ele>1144.2</ele></trkpt><trkpt lat="45.981518" lon="10.292757"><time>2025-04-28T09:00:07.000Z</time><ele>1144.2</ele></trkpt><trkpt lat="45.98153" lon="10.292767"><time>2025-04-28T09:00:08.000Z</time><ele>1144.2</ele></trkpt><trkpt lat="45.981541" lon="10.292774"><time>2025-04-28T09:00:09.000Z</time><ele>1143.8</ele></trkpt><trkpt lat="45.981557" lon="10.292781"><time>2025-04-28T09:00:10.000Z</time><ele>1143.6</ele></trkpt><trkpt lat="45.981573" lon="10.292787"><time>2025-04-28T09:00:11.000Z</time><ele>1143.4</ele></trkpt><trkpt lat="45.981583" lon="10.292786"><time>2025-04-28T09:00:12.000Z</time><ele>1143.4</ele></trkpt><trkpt lat="45.981589" lon="10.292782"><time>2025-04-28T09:00:13.000Z</time><ele>1143.2</ele></trkpt><trkpt lat="45.981595" lon="10.292779"><time>2025-04-28T09:00:14.000Z</time><ele>1143.2</ele></trkpt><trkpt lat="45.981605" lon="10.292784"><time>2025-04-28T09:00:15.000Z</time><ele>1142.8</ele></trkpt><trkpt lat="45.981616" lon="10.292792"><time>2025-04-28T09:00:16.000Z</time><ele>1142.6</ele></trkpt><trkpt lat="45.981623" lon="10.292799"><time>2025-04-28T09:00:17.000Z</time><ele>1142.2</ele></trkpt><trkpt lat="45.981631" lon="10.292808"><time>2025-04-28T09:00:18.000Z</time><ele>1141.8</ele></trkpt><trkpt lat="45.981638" lon="10.292817"><time>2025-04-28T09:00:19.000Z</time><ele>1141.6</ele></trkpt><trkpt lat="45.981652" lon="10.292827"><time>2025-04-28T09:00:20.000Z</time><ele>1141.4</ele></trkpt><trkpt lat="45.98166" lon="10.292839"><time>2025-04-28T09:00:21.000Z</time><ele>1141</ele></trkpt><trkpt lat="45.981665" lon="10.292853"><time>2025-04-28T09:00:22.000Z</time><ele>1140.8</ele></trkpt><trkpt lat="45.981673" lon="10.292864"><time>2025-04-28T09:00:23.000Z</time><ele>1140.6</ele></trkpt><trkpt lat="45.981688" lon="10.292873"><time>2025-04-28T09:00:24.000Z</time><ele>1140.2</ele></trkpt><trkpt lat="45.981697" lon="10.292888"><time>2025-04-28T09:00:25.000Z</time><ele>1140</ele></trkpt><trkpt lat="45.981708" lon="10.292907"><time>2025-04-28T09:00:26.000Z</time><ele>1139.8</ele></trkpt><trkpt lat="45.981729" lon="10.292919"><time>2025-04-28T09:00:27.000Z</time><ele>1139.4</ele></trkpt><trkpt lat="45.981747" lon="10.292932"><time>2025-04-28T09:00:28.000Z</time><ele>1139.2</ele></trkpt><trkpt lat="45.981765" lon="10.29294"><time>2025-04-28T09:00:29.000Z</time><ele>1139</ele></trkpt><trkpt lat="45.981782" lon="10.292948"><time>2025-04-28T09:00:30.000Z</time><ele>1138.6</ele></trkpt><trkpt lat="45.981806" lon="10.292942"><time>2025-04-28T09:00:31.000Z</time><ele>1138.2</ele></trkpt><trkpt lat="45.981815" lon="10.29294"><time>2025-04-28T09:00:32.000Z</time><ele>1138</ele></trkpt><trkpt lat="45.981829" lon="10.292954"><time>2025-04-28T09:00:33.000Z</time><ele>1137.8</ele></trkpt><trkpt lat="45.981847" lon="10.292969"><time>2025-04-28T09:00:34.000Z</time><ele>1137.8</ele></trkpt><trkpt lat="45.981862" lon="10.292977"><time>2025-04-28T09:00:35.000Z</time><ele>1137.6</ele></trkpt><trkpt lat="45.981873" lon="10.292993"><time>2025-04-28T09:00:36.000Z</time><ele>1137.4</ele></trkpt><trkpt lat="45.981882" lon="10.293014"><time>2025-04-28T09:00:37.000Z</time><ele>1137</ele></trkpt><trkpt lat="45.981896" lon="10.293046"><time>2025-04-28T09:00:38.000Z</time><ele>1136.6</ele></trkpt><trkpt lat="45.981908" lon="10.293074"><time>2025-04-28T09:00:39.000Z</time><ele>1136.2</ele></trkpt><trkpt lat="45.981918" lon="10.293093"><time>2025-04-28T09:00:40.000Z</time><ele>1135.8</ele></trkpt><trkpt lat="45.981929" lon="10.29311"><time>2025-04-28T09:00:41.000Z</time><ele>1135.6</ele></trkpt><trkpt lat="45.981942" lon="10.293148"><time>2025-04-28T09:00:42.000Z</time><ele>1135.2</ele></trkpt><trkpt lat="45.98196" lon="10.293162"><time>2025-04-28T09:00:43.000Z</time><ele>1135</ele></trkpt><trkpt lat="45.981984" lon="10.293144"><time>2025-04-28T09:00:44.000Z</time><ele>1134.8</ele></trkpt><trkpt lat="45.981989" lon="10.293136"><time>2025-04-28T09:00:45.000Z</time><ele>1134.6</ele></trkpt><trkpt lat="45.981995" lon="10.293141"><time>2025-04-28T09:00:46.000Z</time><ele>1134.4</ele></trkpt><trkpt lat="45.982001" lon="10.293146"><time>2025-04-28T09:00:47.000Z</time><ele>1134.2</ele></trkpt><trkpt lat="45.982002" lon="10.293149"><time>2025-04-28T09:00:48.000Z</time><ele>1134</ele></trkpt><trkpt lat="45.98201" lon="10.293161"><time>2025-04-28T09:00:49.000Z</time><ele>1134</ele></trkpt><trkpt lat="45.98202" lon="10.293155"><time>2025-04-28T09:00:50.000Z</time><ele>1133.8</ele></trkpt><trkpt lat="45.982027" lon="10.293173"><time>2025-04-28T09:00:51.000Z</time><ele>1133.6</ele></trkpt><trkpt lat="45.982032" lon="10.293185"><time>2025-04-28T09:00:52.000Z</time><ele>1133.4</ele></trkpt><trkpt lat="45.982039" lon="10.293195"><time>2025-04-28T09:00:53.000Z</time><ele>1133</ele></trkpt><trkpt lat="45.982049" lon="10.293216"><time>2025-04-28T09:00:54.000Z</time><ele>1132.8</ele></trkpt><trkpt lat="45.982061" lon="10.293243"><time>2025-04-28T09:00:55.000Z</time><ele>1132.6</ele></trkpt><trkpt lat="45.982068" lon="10.293264"><time>2025-04-28T09:00:56.000Z</time><ele>1132.4</ele></trkpt><trkpt lat="45.98208" lon="10.293284"><time>2025-04-28T09:00:57.000Z</time><ele>1132.2</ele></trkpt><trkpt lat="45.982091" lon="10.293299"><time>2025-04-28T09:00:58.000Z</time><ele>1132</ele></trkpt><trkpt lat="45.982101" lon="10.293312"><time>2025-04-28T09:00:59.000Z</time><ele>1131.8</ele></trkpt><trkpt lat="45.982109" lon="10.29332"><time>2025-04-28T09:01:00.000Z</time><ele>1131.6</ele></trkpt><trkpt lat="45.982118" lon="10.293329"><time>2025-04-28T09:01:01.000Z</time><ele>1131.4</ele></trkpt><trkpt lat="45.982127" lon="10.293334"><time>2025-04-28T09:01:02.000Z</time><ele>1131.2</ele></trkpt><trkpt lat="45.982138" lon="10.293336"><time>2025-04-28T09:01:03.000Z</time><ele>1131</ele></trkpt><trkpt lat="45.982148" lon="10.293332"><time>2025-04-28T09:01:04.000Z</time><ele>1130.8</ele></trkpt><trkpt lat="45.98216" lon="10.293328"><time>2025-04-28T09:01:05.000Z</time><ele>1130.6</ele></trkpt><trkpt lat="45.982172" lon="10.293323"><time>2025-04-28T09:01:06.000Z</time><ele>1130.4</ele></trkpt><trkpt lat="45.982188" lon="10.293315"><time>2025-04-28T09:01:07.000Z</time><ele>1130.2</ele></trkpt><trkpt lat="45.982201" lon="10.29331"><time>2025-04-28T09:01:08.000Z</time><ele>1129.8</ele></trkpt><trkpt lat="45.982205" lon="10.29331"><time>2025-04-28T09:01:09.000Z</time><ele>1129.6</ele></trkpt><trkpt lat="45.982213" lon="10.293328"><time>2025-04-28T09:01:10.000Z</time><ele>1129.4</ele></trkpt><trkpt lat="45.982222" lon="10.293344"><time>2025-04-28T09:01:11.000Z</time><ele>1129.2</ele></trkpt><trkpt lat="45.982231" lon="10.293358"><time>2025-04-28T09:01:12.000Z</time><ele>1129</ele></trkpt><trkpt lat="45.982246" lon="10.293359"><time>2025-04-28T09:01:13.000Z</time><ele>1128.8</ele></trkpt><trkpt lat="45.982262" lon="10.293354"><time>2025-04-28T09:01:14.000Z</time><ele>1128.6</ele></trkpt><trkpt lat="45.982272" lon="10.293357"><time>2025-04-28T09:01:15.000Z</time><ele>1128.4</ele></trkpt><trkpt lat="45.982284" lon="10.293355"><time>2025-04-28T09:01:16.000Z</time><ele>1128.4</ele></trkpt><trkpt lat="45.982298" lon="10.293357"><time>2025-04-28T09:01:17.000Z</time><ele>1128.2</ele></trkpt><trkpt lat="45.982309" lon="10.293358"><time>2025-04-28T09:01:18.000Z</time><ele>1128</ele></trkpt><trkpt lat="45.982322" lon="10.29336"><time>2025-04-28T09:01:19.000Z</time><ele>1128</ele></trkpt><trkpt lat="45.982333" lon="10.293377"><time>2025-04-28T09:01:20.000Z</time><ele>1127.8</ele></trkpt><trkpt lat="45.982339" lon="10.293385"><time>2025-04-28T09:01:21.000Z</time><ele>1127.4</ele></trkpt><trkpt lat="45.982352" lon="10.293398"><time>2025-04-28T09:01:22.000Z</time><ele>1127.2</ele></trkpt><trkpt lat="45.98237" lon="10.293411"><time>2025-04-28T09:01:23.000Z</time><ele>1126.8</ele></trkpt><trkpt lat="45.982383" lon="10.293426"><time>2025-04-28T09:01:24.000Z</time><ele>1126.6</ele></trkpt><trkpt lat="45.982394" lon="10.293441"><time>2025-04-28T09:01:25.000Z</time><ele>1126.6</ele></trkpt><trkpt lat="45.9824" lon="10.293457"><time>2025-04-28T09:01:26.000Z</time><ele>1126.4</ele></trkpt><trkpt lat="45.982403" lon="10.293471"><time>2025-04-28T09:01:27.000Z</time><ele>1126.2</ele></trkpt><trkpt lat="45.982411" lon="10.293485"><time>2025-04-28T09:01:28.000Z</time><ele>1126.2</ele></trkpt><trkpt lat="45.982423" lon="10.29349"><time>2025-04-28T09:01:29.000Z</time><ele>1126.2</ele></trkpt><trkpt lat="45.982432" lon="10.293493"><time>2025-04-28T09:01:30.000Z</time><ele>1126</ele></trkpt><trkpt lat="45.982442" lon="10.293499"><time>2025-04-28T09:01:31.000Z</time><ele>1125.8</ele></trkpt><trkpt lat="45.982453" lon="10.293508"><time>2025-04-28T09:01:32.000Z</time><ele>1125.6</ele></trkpt><trkpt lat="45.982464" lon="10.293521"><time>2025-04-28T09:01:33.000Z</time><ele>1125.4</ele></trkpt><trkpt lat="45.982471" lon="10.293539"><time>2025-04-28T09:01:34.000Z</time><ele>1125</ele></trkpt><trkpt lat="45.982478" lon="10.293551"><time>2025-04-28T09:01:35.000Z</time><ele>1124.6</ele></trkpt><trkpt lat="45.982486" lon="10.29356"><time>2025-04-28T09:01:36.000Z</time><ele>1124.4</ele></trkpt><trkpt lat="45.982494" lon="10.293571"><time>2025-04-28T09:01:37.000Z</time><ele>1124.2</ele></trkpt><trkpt lat="45.982503" lon="10.29358"><time>2025-04-28T09:01:38.000Z</time><ele>1124</ele></trkpt><trkpt lat="45.982512" lon="10.29359"><time>2025-04-28T09:01:39.000Z</time><ele>1123.8</ele></trkpt><trkpt lat="45.982523" lon="10.293604"><time>2025-04-28T09:01:40.000Z</time><ele>1123.4</ele></trkpt><trkpt lat="45.982531" lon="10.293616"><time>2025-04-28T09:01:41.000Z</time><ele>1123.2</ele></trkpt><trkpt lat="45.982542" lon="10.293627"><time>2025-04-28T09:01:42.000Z</time><ele>1123</ele></trkpt><trkpt lat="45.98255" lon="10.293647"><time>2025-04-28T09:01:43.000Z</time><ele>1122.8</ele></trkpt><trkpt lat="45.982556" lon="10.293672"><time>2025-04-28T09:01:44.000Z</time><ele>1122.6</ele></trkpt><trkpt lat="45.982567" lon="10.293686"><time>2025-04-28T09:01:45.000Z</time><ele>1122.4</ele></trkpt><trkpt lat="45.982576" lon="10.293698"><time>2025-04-28T09:01:46.000Z</time><ele>1122.2</ele></trkpt><trkpt lat="45.982588" lon="10.293706"><time>2025-04-28T09:01:47.000Z</time><ele>1122</ele></trkpt><trkpt lat="45.982595" lon="10.293715"><time>2025-04-28T09:01:48.000Z</time><ele>1121.8</ele></trkpt><trkpt lat="45.982609" lon="10.293716"><time>2025-04-28T09:01:49.000Z</time><ele>1121.2</ele></trkpt><trkpt lat="45.98262" lon="10.29372"><time>2025-04-28T09:01:50.000Z</time><ele>1120.8</ele></trkpt><trkpt lat="45.982632" lon="10.293727"><time>2025-04-28T09:01:51.000Z</time><ele>1120.6</ele></trkpt><trkpt lat="45.982642" lon="10.293742"><time>2025-04-28T09:01:52.000Z</time><ele>1120.2</ele></trkpt><trkpt lat="45.982653" lon="10.293759"><time>2025-04-28T09:01:53.000Z</time><ele>1120</ele></trkpt><trkpt lat="45.982657" lon="10.293777"><time>2025-04-28T09:01:54.000Z</time><ele>1120</ele></trkpt><trkpt lat="45.982669" lon="10.293783"><time>2025-04-28T09:01:55.000Z</time><ele>1119.8</ele></trkpt><trkpt lat="45.982678" lon="10.293801"><time>2025-04-28T09:01:56.000Z</time><ele>1119.6</ele></trkpt><trkpt lat="45.982687" lon="10.293817"><time>2025-04-28T09:01:57.000Z</time><ele>1119.6</ele></trkpt><trkpt lat="45.982704" lon="10.293825"><time>2025-04-28T09:01:58.000Z</time><ele>1119</ele></trkpt><trkpt lat="45.982722" lon="10.293825"><time>2025-04-28T09:01:59.000Z</time><ele>1118.6</ele></trkpt><trkpt lat="45.982732" lon="10.293822"><time>2025-04-28T09:02:00.000Z</time><ele>1118.2</ele></trkpt><trkpt lat="45.982748" lon="10.293829"><time>2025-04-28T09:02:01.000Z</time><ele>1118.2</ele></trkpt><trkpt lat="45.98276" lon="10.293826"><time>2025-04-28T09:02:02.000Z</time><ele>1118</ele></trkpt><trkpt lat="45.982764" lon="10.293823"><time>2025-04-28T09:02:03.000Z</time><ele>1118</ele></trkpt><trkpt lat="45.982765" lon="10.293818"><time>2025-04-28T09:02:04.000Z</time><ele>1118</ele></trkpt><trkpt lat="45.982773" lon="10.293811"><time>2025-04-28T09:02:05.000Z</time><ele>1118</ele></trkpt><trkpt lat="45.982785" lon="10.293808"><time>2025-04-28T09:02:06.000Z</time><ele>1117.8</ele></trkpt><trkpt lat="45.982796" lon="10.293808"><time>2025-04-28T09:02:07.000Z</time><ele>1117.6</ele></trkpt><trkpt lat="45.98281" lon="10.293815"><time>2025-04-28T09:02:08.000Z</time><ele>1117.6</ele></trkpt><trkpt lat="45.982829" lon="10.293822"><time>2025-04-28T09:02:09.000Z</time><ele>1117.4</ele></trkpt><trkpt lat="45.982843" lon="10.293829"><time>2025-04-28T09:02:10.000Z</time><ele>1117.2</ele></trkpt><trkpt lat="45.982857" lon="10.293832"><time>2025-04-28T09:02:11.000Z</time><ele>1117</ele></trkpt><trkpt lat="45.982865" lon="10.293838"><time>2025-04-28T09:02:12.000Z</time><ele>1116.8</ele></trkpt><trkpt lat="45.982875" lon="10.293852"><time>2025-04-28T09:02:13.000Z</time><ele>1116.6</ele></trkpt><trkpt lat="45.982875" lon="10.293873"><time>2025-04-28T09:02:14.000Z</time><ele>1116.6</ele></trkpt><trkpt lat="45.982869" lon="10.293896"><time>2025-04-28T09:02:15.000Z</time><ele>1116.6</ele></trkpt><trkpt lat="45.982861" lon="10.293918"><time>2025-04-28T09:02:16.000Z</time><ele>1116.4</ele></trkpt><trkpt lat="45.98286" lon="10.293938"><time>2025-04-28T09:02:17.000Z</time><ele>1116.4</ele></trkpt><trkpt lat="45.982859" lon="10.293952"><time>2025-04-28T09:02:18.000Z</time><ele>1116.4</ele></trkpt><trkpt lat="45.982855" lon="10.293967"><time>2025-04-28T09:02:19.000Z</time><ele>1116.2</ele></trkpt><trkpt lat="45.982853" lon="10.293973"><time>2025-04-28T09:02:20.000Z</time><ele>1115.8</ele></trkpt><trkpt lat="45.982853" lon="10.293973"><time>2025-04-28T09:02:21.000Z</time><ele>1115.6</ele></trkpt><trkpt lat="45.982852" lon="10.293981"><time>2025-04-28T09:02:22.000Z</time><ele>1115.2</ele></trkpt><trkpt lat="45.982844" lon="10.293996"><time>2025-04-28T09:02:23.000Z</time><ele>1115</ele></trkpt><trkpt lat="45.982837" lon="10.294008"><time>2025-04-28T09:02:24.000Z</time><ele>1114.6</ele></trkpt><trkpt lat="45.982832" lon="10.294016"><time>2025-04-28T09:02:25.000Z</time><ele>1114.4</ele></trkpt><trkpt lat="45.982832" lon="10.29402"><time>2025-04-28T09:02:26.000Z</time><ele>1114.2</ele></trkpt><trkpt lat="45.982833" lon="10.294036"><time>2025-04-28T09:02:27.000Z</time><ele>1114</ele></trkpt><trkpt lat="45.982833" lon="10.294051"><time>2025-04-28T09:02:28.000Z</time><ele>1113.8</ele></trkpt><trkpt lat="45.982835" lon="10.294066"><time>2025-04-28T09:02:29.000Z</time><ele>1113.4</ele></trkpt><trkpt lat="45.982835" lon="10.294088"><time>2025-04-28T09:02:30.000Z</time><ele>1113</ele></trkpt><trkpt lat="45.982836" lon="10.294109"><time>2025-04-28T09:02:31.000Z</time><ele>1112.8</ele></trkpt><trkpt lat="45.982829" lon="10.294131"><time>2025-04-28T09:02:32.000Z</time><ele>1112.4</ele></trkpt><trkpt lat="45.982826" lon="10.294151"><time>2025-04-28T09:02:33.000Z</time><ele>1112.2</ele></trkpt><trkpt lat="45.98282" lon="10.29417"><time>2025-04-28T09:02:34.000Z</time><ele>1112</ele></trkpt><trkpt lat="45.982821" lon="10.294193"><time>2025-04-28T09:02:35.000Z</time><ele>1111.8</ele></trkpt><trkpt lat="45.982827" lon="10.294214"><time>2025-04-28T09:02:36.000Z</time><ele>1111.6</ele></trkpt><trkpt lat="45.982828" lon="10.294237"><time>2025-04-28T09:02:37.000Z</time><ele>1111.4</ele></trkpt><trkpt lat="45.982836" lon="10.29426"><time>2025-04-28T09:02:38.000Z</time><ele>1111.4</ele></trkpt><trkpt lat="45.982837" lon="10.294285"><time>2025-04-28T09:02:39.000Z</time><ele>1111.2</ele></trkpt><trkpt lat="45.982841" lon="10.2943"><time>2025-04-28T09:02:40.000Z</time><ele>1111</ele></trkpt><trkpt lat="45.982842" lon="10.29431"><time>2025-04-28T09:02:41.000Z</time><ele>1111</ele></trkpt><trkpt lat="45.982846" lon="10.294325"><time>2025-04-28T09:02:42.000Z</time><ele>1110.8</ele></trkpt><trkpt lat="45.982842" lon="10.294356"><time>2025-04-28T09:02:43.000Z</time><ele>1110.6</ele></trkpt><trkpt lat="45.982846" lon="10.29437"><time>2025-04-28T09:02:44.000Z</time><ele>1110.4</ele></trkpt><trkpt lat="45.982851" lon="10.294384"><time>2025-04-28T09:02:45.000Z</time><ele>1109.8</ele></trkpt><trkpt lat="45.982854" lon="10.294395"><time>2025-04-28T09:02:46.000Z</time><ele>1109.6</ele></trkpt><trkpt lat="45.982851" lon="10.294404"><time>2025-04-28T09:02:47.000Z</time><ele>1109.4</ele></trkpt><trkpt lat="45.98285" lon="10.294419"><time>2025-04-28T09:02:48.000Z</time><ele>1109.2</ele></trkpt><trkpt lat="45.982853" lon="10.294431"><time>2025-04-28T09:02:49.000Z</time><ele>1109.2</ele></trkpt><trkpt lat="45.982854" lon="10.294446"><time>2025-04-28T09:02:50.000Z</time><ele>1108.8</ele></trkpt><trkpt lat="45.982855" lon="10.29446"><time>2025-04-28T09:02:51.000Z</time><ele>1108.6</ele></trkpt><trkpt lat="45.982857" lon="10.294476"><time>2025-04-28T09:02:52.000Z</time><ele>1108.6</ele></trkpt><trkpt lat="45.982862" lon="10.294486"><time>2025-04-28T09:02:53.000Z</time><ele>1108.4</ele></trkpt><trkpt lat="45.982867" lon="10.294493"><time>2025-04-28T09:02:54.000Z</time><ele>1107.8</ele></trkpt><trkpt lat="45.982873" lon="10.294502"><time>2025-04-28T09:02:55.000Z</time><ele>1107.4</ele></trkpt><trkpt lat="45.982882" lon="10.294511"><time>2025-04-28T09:02:56.000Z</time><ele>1107.2</ele></trkpt><trkpt lat="45.982895" lon="10.294516"><time>2025-04-28T09:02:57.000Z</time><ele>1107</ele></trkpt><trkpt lat="45.982905" lon="10.294526"><time>2025-04-28T09:02:58.000Z</time><ele>1106.8</ele></trkpt><trkpt lat="45.982909" lon="10.29454"><time>2025-04-28T09:02:59.000Z</time><ele>1106.6</ele></trkpt><trkpt lat="45.982914" lon="10.294551"><time>2025-04-28T09:03:00.000Z</time><ele>1106.4</ele></trkpt><trkpt lat="45.98292" lon="10.294561"><time>2025-04-28T09:03:01.000Z</time><ele>1106.2</ele></trkpt><trkpt lat="45.982924" lon="10.294577"><time>2025-04-28T09:03:02.000Z</time><ele>1106</ele></trkpt><trkpt lat="45.982926" lon="10.294595"><time>2025-04-28T09:03:03.000Z</time><ele>1105.8</ele></trkpt><trkpt lat="45.982926" lon="10.294617"><time>2025-04-28T09:03:04.000Z</time><ele>1105.4</ele></trkpt><trkpt lat="45.982927" lon="10.294645"><time>2025-04-28T09:03:05.000Z</time><ele>1105.2</ele></trkpt><trkpt lat="45.982921" lon="10.294671"><time>2025-04-28T09:03:06.000Z</time><ele>1105</ele></trkpt><trkpt lat="45.982915" lon="10.294696"><time>2025-04-28T09:03:07.000Z</time><ele>1104.8</ele></trkpt><trkpt lat="45.982907" lon="10.29472"><time>2025-04-28T09:03:08.000Z</time><ele>1104.6</ele></trkpt><trkpt lat="45.982898" lon="10.294743"><time>2025-04-28T09:03:09.000Z</time><ele>1104.4</ele></trkpt><trkpt lat="45.982899" lon="10.294765"><time>2025-04-28T09:03:10.000Z</time><ele>1104.4</ele></trkpt><trkpt lat="45.982901" lon="10.294785"><time>2025-04-28T09:03:11.000Z</time><ele>1104.2</ele></trkpt><trkpt lat="45.9829" lon="10.294801"><time>2025-04-28T09:03:12.000Z</time><ele>1104</ele></trkpt><trkpt lat="45.982898" lon="10.294822"><time>2025-04-28T09:03:13.000Z</time><ele>1104</ele></trkpt><trkpt lat="45.982896" lon="10.294847"><time>2025-04-28T09:03:14.000Z</time><ele>1103.6</ele></trkpt><trkpt lat="45.982894" lon="10.294869"><time>2025-04-28T09:03:15.000Z</time><ele>1103.4</ele></trkpt><trkpt lat="45.982899" lon="10.294888"><time>2025-04-28T09:03:16.000Z</time><ele>1103</ele></trkpt><trkpt lat="45.982899" lon="10.294907"><time>2025-04-28T09:03:17.000Z</time><ele>1102.6</ele></trkpt><trkpt lat="45.982898" lon="10.294936"><time>2025-04-28T09:03:18.000Z</time><ele>1102.2</ele></trkpt><trkpt lat="45.982899" lon="10.294957"><time>2025-04-28T09:03:19.000Z</time><ele>1102</ele></trkpt><trkpt lat="45.982892" lon="10.294979"><time>2025-04-28T09:03:20.000Z</time><ele>1101.8</ele></trkpt><trkpt lat="45.982886" lon="10.295004"><time>2025-04-28T09:03:21.000Z</time><ele>1101.8</ele></trkpt><trkpt lat="45.982874" lon="10.295031"><time>2025-04-28T09:03:22.000Z</time><ele>1101.6</ele></trkpt><trkpt lat="45.982865" lon="10.29505"><time>2025-04-28T09:03:23.000Z</time><ele>1101.4</ele></trkpt><trkpt lat="45.982856" lon="10.29507"><time>2025-04-28T09:03:24.000Z</time><ele>1101.2</ele></trkpt><trkpt lat="45.982849" lon="10.295089"><time>2025-04-28T09:03:25.000Z</time><ele>1101</ele></trkpt><trkpt lat="45.982848" lon="10.295107"><time>2025-04-28T09:03:26.000Z</time><ele>1100.8</ele></trkpt><trkpt lat="45.982842" lon="10.295122"><time>2025-04-28T09:03:27.000Z</time><ele>1100.6</ele></trkpt><trkpt lat="45.982834" lon="10.29514"><time>2025-04-28T09:03:28.000Z</time><ele>1100.4</ele></trkpt><trkpt lat="45.982831" lon="10.29516"><time>2025-04-28T09:03:29.000Z</time><ele>1100.2</ele></trkpt><trkpt lat="45.982831" lon="10.295179"><time>2025-04-28T09:03:30.000Z</time><ele>1100.2</ele></trkpt><trkpt lat="45.98283" lon="10.295196"><time>2025-04-28T09:03:31.000Z</time><ele>1100</ele></trkpt><trkpt lat="45.982828" lon="10.295209"><time>2025-04-28T09:03:32.000Z</time><ele>1099.8</ele></trkpt><trkpt lat="45.982826" lon="10.295223"><time>2025-04-28T09:03:33.000Z</time><ele>1099.8</ele></trkpt><trkpt lat="45.982821" lon="10.295239"><time>2025-04-28T09:03:34.000Z</time><ele>1099.8</ele></trkpt><trkpt lat="45.982821" lon="10.295254"><time>2025-04-28T09:03:35.000Z</time><ele>1099.6</ele></trkpt><trkpt lat="45.98282" lon="10.295269"><time>2025-04-28T09:03:36.000Z</time><ele>1099.4</ele></trkpt><trkpt lat="45.982821" lon="10.295284"><time>2025-04-28T09:03:37.000Z</time><ele>1099.2</ele></trkpt><trkpt lat="45.982822" lon="10.295297"><time>2025-04-28T09:03:38.000Z</time><ele>1099.2</ele></trkpt><trkpt lat="45.982829" lon="10.295311"><time>2025-04-28T09:03:39.000Z</time><ele>1099</ele></trkpt><trkpt lat="45.982839" lon="10.295335"><time>2025-04-28T09:03:40.000Z</time><ele>1098.6</ele></trkpt><trkpt lat="45.982841" lon="10.295367"><time>2025-04-28T09:03:41.000Z</time><ele>1098.4</ele></trkpt><trkpt lat="45.982843" lon="10.295386"><time>2025-04-28T09:03:42.000Z</time><ele>1098.2</ele></trkpt><trkpt lat="45.982844" lon="10.295403"><time>2025-04-28T09:03:43.000Z</time><ele>1098</ele></trkpt><trkpt lat="45.982842" lon="10.295422"><time>2025-04-28T09:03:44.000Z</time><ele>1097.8</ele></trkpt><trkpt lat="45.982843" lon="10.295456"><time>2025-04-28T09:03:45.000Z</time><ele>1097.6</ele></trkpt><trkpt lat="45.982853" lon="10.295481"><time>2025-04-28T09:03:46.000Z</time><ele>1097.4</ele></trkpt><trkpt lat="45.98286" lon="10.295507"><time>2025-04-28T09:03:47.000Z</time><ele>1097.4</ele></trkpt><trkpt lat="45.982862" lon="10.295515"><time>2025-04-28T09:03:48.000Z</time><ele>1097.2</ele></trkpt><trkpt lat="45.982853" lon="10.295535"><time>2025-04-28T09:03:49.000Z</time><ele>1096.8</ele></trkpt><trkpt lat="45.982843" lon="10.29556"><time>2025-04-28T09:03:50.000Z</time><ele>1096.8</ele></trkpt><trkpt lat="45.98284" lon="10.295575"><time>2025-04-28T09:03:51.000Z</time><ele>1096.6</ele></trkpt><trkpt lat="45.982841" lon="10.29559"><time>2025-04-28T09:03:52.000Z</time><ele>1096.6</ele></trkpt><trkpt lat="45.982856" lon="10.295605"><time>2025-04-28T09:03:53.000Z</time><ele>1096.4</ele></trkpt><trkpt lat="45.982861" lon="10.295633"><time>2025-04-28T09:03:54.000Z</time><ele>1096</ele></trkpt><trkpt lat="45.982847" lon="10.295672"><time>2025-04-28T09:03:55.000Z</time><ele>1095.8</ele></trkpt><trkpt lat="45.982833" lon="10.295702"><time>2025-04-28T09:03:56.000Z</time><ele>1095.6</ele></trkpt><trkpt lat="45.982823" lon="10.29573"><time>2025-04-28T09:03:57.000Z</time><ele>1095.4</ele></trkpt><trkpt lat="45.982827" lon="10.295756"><time>2025-04-28T09:03:58.000Z</time><ele>1095.2</ele></trkpt><trkpt lat="45.982824" lon="10.295777"><time>2025-04-28T09:03:59.000Z</time><ele>1094.8</ele></trkpt><trkpt lat="45.982827" lon="10.295796"><time>2025-04-28T09:04:00.000Z</time><ele>1094.6</ele></trkpt><trkpt lat="45.982842" lon="10.295813"><time>2025-04-28T09:04:01.000Z</time><ele>1094.6</ele></trkpt><trkpt lat="45.982854" lon="10.295825"><time>2025-04-28T09:04:02.000Z</time><ele>1094.4</ele></trkpt><trkpt lat="45.982861" lon="10.295836"><time>2025-04-28T09:04:03.000Z</time><ele>1094.2</ele></trkpt><trkpt lat="45.982863" lon="10.295844"><time>2025-04-28T09:04:04.000Z</time><ele>1094.2</ele></trkpt><trkpt lat="45.982866" lon="10.295846"><time>2025-04-28T09:04:05.000Z</time><ele>1094</ele></trkpt><trkpt lat="45.982867" lon="10.295848"><time>2025-04-28T09:04:06.000Z</time><ele>1094</ele></trkpt><trkpt lat="45.982869" lon="10.295847"><time>2025-04-28T09:04:07.000Z</time><ele>1094</ele></trkpt><trkpt lat="45.982868" lon="10.29585"><time>2025-04-28T09:04:08.000Z</time><ele>1094</ele></trkpt><trkpt lat="45.982869" lon="10.29585"><time>2025-04-28T09:04:09.000Z</time><ele>1093.8</ele></trkpt><trkpt lat="45.982868" lon="10.295851"><time>2025-04-28T09:04:10.000Z</time><ele>1093.8</ele></trkpt><trkpt lat="45.982867" lon="10.295853"><time>2025-04-28T09:04:11.000Z</time><ele>1093.6</ele></trkpt><trkpt lat="45.982866" lon="10.295854"><time>2025-04-28T09:04:12.000Z</time><ele>1093.6</ele></trkpt><trkpt lat="45.982867" lon="10.295855"><time>2025-04-28T09:04:13.000Z</time><ele>1093.6</ele></trkpt><trkpt lat="45.982867" lon="10.295856"><time>2025-04-28T09:04:14.000Z</time><ele>1093.6</ele></trkpt><trkpt lat="45.982869" lon="10.295855"><time>2025-04-28T09:04:15.000Z</time><ele>1093.6</ele></trkpt><trkpt lat="45.98287" lon="10.295853"><time>2025-04-28T09:04:16.000Z</time><ele>1093.6</ele></trkpt><trkpt lat="45.982873" lon="10.295863"><time>2025-04-28T09:04:17.000Z</time><ele>1093.6</ele></trkpt><trkpt lat="45.982877" lon="10.295871"><time>2025-04-28T09:04:18.000Z</time><ele>1093.4</ele></trkpt><trkpt lat="45.982878" lon="10.295885"><time>2025-04-28T09:04:19.000Z</time><ele>1093.2</ele></trkpt><trkpt lat="45.98288" lon="10.295902"><time>2025-04-28T09:04:20.000Z</time><ele>1093</ele></trkpt><trkpt lat="45.98288" lon="10.295922"><time>2025-04-28T09:04:21.000Z</time><ele>1093</ele></trkpt><trkpt lat="45.982879" lon="10.295941"><time>2025-04-28T09:04:22.000Z</time><ele>1092.8</ele></trkpt><trkpt lat="45.98288" lon="10.295959"><time>2025-04-28T09:04:23.000Z</time><ele>1092.6</ele></trkpt><trkpt lat="45.982878" lon="10.295979"><time>2025-04-28T09:04:24.000Z</time><ele>1092.6</ele></trkpt><trkpt lat="45.982875" lon="10.296001"><time>2025-04-28T09:04:25.000Z</time><ele>1092.6</ele></trkpt><trkpt lat="45.982873" lon="10.296021"><time>2025-04-28T09:04:26.000Z</time><ele>1092.4</ele></trkpt><trkpt lat="45.982874" lon="10.296042"><time>2025-04-28T09:04:27.000Z</time><ele>1092.2</ele></trkpt><trkpt lat="45.982878" lon="10.296061"><time>2025-04-28T09:04:28.000Z</time><ele>1092.2</ele></trkpt><trkpt lat="45.982885" lon="10.296083"><time>2025-04-28T09:04:29.000Z</time><ele>1091.8</ele></trkpt><trkpt lat="45.982885" lon="10.296107"><time>2025-04-28T09:04:30.000Z</time><ele>1091.6</ele></trkpt><trkpt lat="45.982882" lon="10.296132"><time>2025-04-28T09:04:31.000Z</time><ele>1091.2</ele></trkpt><trkpt lat="45.982878" lon="10.29616"><time>2025-04-28T09:04:32.000Z</time><ele>1091.2</ele></trkpt><trkpt lat="45.982877" lon="10.296179"><time>2025-04-28T09:04:33.000Z</time><ele>1091</ele></trkpt><trkpt lat="45.982882" lon="10.296195"><time>2025-04-28T09:04:34.000Z</time><ele>1090.8</ele></trkpt><trkpt lat="45.982888" lon="10.296212"><time>2025-04-28T09:04:35.000Z</time><ele>1090.6</ele></trkpt><trkpt lat="45.982894" lon="10.296229"><time>2025-04-28T09:04:36.000Z</time><ele>1090.6</ele></trkpt><trkpt lat="45.982897" lon="10.296247"><time>2025-04-28T09:04:37.000Z</time><ele>1090.4</ele></trkpt><trkpt lat="45.9829" lon="10.296269"><time>2025-04-28T09:04:38.000Z</time><ele>1090.2</ele></trkpt><trkpt lat="45.9829" lon="10.296288"><time>2025-04-28T09:04:39.000Z</time><ele>1090</ele></trkpt><trkpt lat="45.982899" lon="10.296306"><time>2025-04-28T09:04:40.000Z</time><ele>1089.8</ele></trkpt><trkpt lat="45.982901" lon="10.296323"><time>2025-04-28T09:04:41.000Z</time><ele>1089.6</ele></trkpt><trkpt lat="45.982906" lon="10.296341"><time>2025-04-28T09:04:42.000Z</time><ele>1089.2</ele></trkpt><trkpt lat="45.982909" lon="10.29636"><time>2025-04-28T09:04:43.000Z</time><ele>1089</ele></trkpt><trkpt lat="45.982918" lon="10.296373"><time>2025-04-28T09:04:44.000Z</time><ele>1088.8</ele></trkpt><trkpt lat="45.982923" lon="10.296388"><time>2025-04-28T09:04:45.000Z</time><ele>1088.6</ele></trkpt><trkpt lat="45.982928" lon="10.296399"><time>2025-04-28T09:04:46.000Z</time><ele>1088.4</ele></trkpt><trkpt lat="45.982932" lon="10.296415"><time>2025-04-28T09:04:47.000Z</time><ele>1088.2</ele></trkpt><trkpt lat="45.982939" lon="10.296427"><time>2025-04-28T09:04:48.000Z</time><ele>1087.8</ele></trkpt><trkpt lat="45.982944" lon="10.296442"><time>2025-04-28T09:04:49.000Z</time><ele>1087.6</ele></trkpt><trkpt lat="45.982942" lon="10.296467"><time>2025-04-28T09:04:50.000Z</time><ele>1087.4</ele></trkpt><trkpt lat="45.982939" lon="10.296493"><time>2025-04-28T09:04:51.000Z</time><ele>1087</ele></trkpt><trkpt lat="45.982935" lon="10.296516"><time>2025-04-28T09:04:52.000Z</time><ele>1086.6</ele></trkpt><trkpt lat="45.982931" lon="10.296535"><time>2025-04-28T09:04:53.000Z</time><ele>1086.4</ele></trkpt><trkpt lat="45.982926" lon="10.296561"><time>2025-04-28T09:04:54.000Z</time><ele>1086.4</ele></trkpt><trkpt lat="45.982924" lon="10.296591"><time>2025-04-28T09:04:55.000Z</time><ele>1086</ele></trkpt><trkpt lat="45.982926" lon="10.296624"><time>2025-04-28T09:04:56.000Z</time><ele>1085.8</ele></trkpt><trkpt lat="45.982932" lon="10.296643"><time>2025-04-28T09:04:57.000Z</time><ele>1085.6</ele></trkpt><trkpt lat="45.982942" lon="10.296644"><time>2025-04-28T09:04:58.000Z</time><ele>1085.6</ele></trkpt><trkpt lat="45.98295" lon="10.296646"><time>2025-04-28T09:04:59.000Z</time><ele>1085.4</ele></trkpt><trkpt lat="45.982963" lon="10.296646"><time>2025-04-28T09:05:00.000Z</time><ele>1085.2</ele></trkpt><trkpt lat="45.982973" lon="10.296653"><time>2025-04-28T09:05:01.000Z</time><ele>1085</ele></trkpt><trkpt lat="45.982979" lon="10.296671"><time>2025-04-28T09:05:02.000Z</time><ele>1084.8</ele></trkpt><trkpt lat="45.982984" lon="10.296689"><time>2025-04-28T09:05:03.000Z</time><ele>1084.6</ele></trkpt><trkpt lat="45.982989" lon="10.296709"><time>2025-04-28T09:05:04.000Z</time><ele>1084.4</ele></trkpt><trkpt lat="45.982997" lon="10.296728"><time>2025-04-28T09:05:05.000Z</time><ele>1084.4</ele></trkpt><trkpt lat="45.983002" lon="10.296744"><time>2025-04-28T09:05:06.000Z</time><ele>1084</ele></trkpt><trkpt lat="45.983005" lon="10.296759"><time>2025-04-28T09:05:07.000Z</time><ele>1083.8</ele></trkpt><trkpt lat="45.983014" lon="10.296771"><time>2025-04-28T09:05:08.000Z</time><ele>1083.6</ele></trkpt><trkpt lat="45.983018" lon="10.296787"><time>2025-04-28T09:05:09.000Z</time><ele>1083.2</ele></trkpt><trkpt lat="45.983015" lon="10.296808"><time>2025-04-28T09:05:10.000Z</time><ele>1082.8</ele></trkpt><trkpt lat="45.983013" lon="10.296828"><time>2025-04-28T09:05:11.000Z</time><ele>1082.6</ele></trkpt><trkpt lat="45.983007" lon="10.296849"><time>2025-04-28T09:05:12.000Z</time><ele>1082.2</ele></trkpt><trkpt lat="45.983013" lon="10.296863"><time>2025-04-28T09:05:13.000Z</time><ele>1082</ele></trkpt><trkpt lat="45.983018" lon="10.296882"><time>2025-04-28T09:05:14.000Z</time><ele>1081.8</ele></trkpt><trkpt lat="45.983019" lon="10.296904"><time>2025-04-28T09:05:15.000Z</time><ele>1081.6</ele></trkpt><trkpt lat="45.98302" lon="10.296925"><time>2025-04-28T09:05:16.000Z</time><ele>1081.4</ele></trkpt><trkpt lat="45.983016" lon="10.29695"><time>2025-04-28T09:05:17.000Z</time><ele>1081.2</ele></trkpt><trkpt lat="45.983019" lon="10.296976"><time>2025-04-28T09:05:18.000Z</time><ele>1081.2</ele></trkpt><trkpt lat="45.983022" lon="10.297005"><time>2025-04-28T09:05:19.000Z</time><ele>1081.2</ele></trkpt><trkpt lat="45.983024" lon="10.297035"><time>2025-04-28T09:05:20.000Z</time><ele>1081</ele></trkpt><trkpt lat="45.983021" lon="10.297061"><time>2025-04-28T09:05:21.000Z</time><ele>1080.8</ele></trkpt><trkpt lat="45.983023" lon="10.297085"><time>2025-04-28T09:05:22.000Z</time><ele>1080.6</ele></trkpt><trkpt lat="45.983032" lon="10.297099"><time>2025-04-28T09:05:23.000Z</time><ele>1080.4</ele></trkpt><trkpt lat="45.983039" lon="10.29712"><time>2025-04-28T09:05:24.000Z</time><ele>1080.2</ele></trkpt><trkpt lat="45.983042" lon="10.297139"><time>2025-04-28T09:05:25.000Z</time><ele>1080</ele></trkpt><trkpt lat="45.983048" lon="10.297155"><time>2025-04-28T09:05:26.000Z</time><ele>1079.8</ele></trkpt><trkpt lat="45.983053" lon="10.297177"><time>2025-04-28T09:05:27.000Z</time><ele>1079.4</ele></trkpt><trkpt lat="45.983057" lon="10.297197"><time>2025-04-28T09:05:28.000Z</time><ele>1079.2</ele></trkpt><trkpt lat="45.983062" lon="10.297218"><time>2025-04-28T09:05:29.000Z</time><ele>1079</ele></trkpt><trkpt lat="45.983071" lon="10.297235"><time>2025-04-28T09:05:30.000Z</time><ele>1078.6</ele></trkpt><trkpt lat="45.983077" lon="10.297249"><time>2025-04-28T09:05:31.000Z</time><ele>1078.4</ele></trkpt><trkpt lat="45.98309" lon="10.297266"><time>2025-04-28T09:05:32.000Z</time><ele>1078.2</ele></trkpt><trkpt lat="45.983091" lon="10.297293"><time>2025-04-28T09:05:33.000Z</time><ele>1078</ele></trkpt><trkpt lat="45.983089" lon="10.297318"><time>2025-04-28T09:05:34.000Z</time><ele>1078</ele></trkpt><trkpt lat="45.983092" lon="10.297336"><time>2025-04-28T09:05:35.000Z</time><ele>1077.8</ele></trkpt><trkpt lat="45.983101" lon="10.297349"><time>2025-04-28T09:05:36.000Z</time><ele>1077.6</ele></trkpt><trkpt lat="45.983104" lon="10.297361"><time>2025-04-28T09:05:37.000Z</time><ele>1077.4</ele></trkpt><trkpt lat="45.983103" lon="10.297375"><time>2025-04-28T09:05:38.000Z</time><ele>1077.2</ele></trkpt><trkpt lat="45.9831" lon="10.297392"><time>2025-04-28T09:05:39.000Z</time><ele>1077</ele></trkpt><trkpt lat="45.983094" lon="10.297408"><time>2025-04-28T09:05:40.000Z</time><ele>1076.8</ele></trkpt><trkpt lat="45.98309" lon="10.297414"><time>2025-04-28T09:05:41.000Z</time><ele>1076.6</ele></trkpt><trkpt lat="45.983079" lon="10.297409"><time>2025-04-28T09:05:42.000Z</time><ele>1076.6</ele></trkpt><trkpt lat="45.983069" lon="10.297401"><time>2025-04-28T09:05:43.000Z</time><ele>1076.4</ele></trkpt><trkpt lat="45.983055" lon="10.297393"><time>2025-04-28T09:05:44.000Z</time><ele>1076.2</ele></trkpt><trkpt lat="45.983041" lon="10.297387"><time>2025-04-28T09:05:45.000Z</time><ele>1076</ele></trkpt><trkpt lat="45.983034" lon="10.297375"><time>2025-04-28T09:05:46.000Z</time><ele>1076</ele></trkpt><trkpt lat="45.983023" lon="10.297362"><time>2025-04-28T09:05:47.000Z</time><ele>1075.8</ele></trkpt><trkpt lat="45.983007" lon="10.29733"><time>2025-04-28T09:05:48.000Z</time><ele>1075.6</ele></trkpt><trkpt lat="45.983" lon="10.297297"><time>2025-04-28T09:05:49.000Z</time><ele>1075.4</ele></trkpt><trkpt lat="45.982995" lon="10.297285"><time>2025-04-28T09:05:50.000Z</time><ele>1075.2</ele></trkpt><trkpt lat="45.982988" lon="10.29727"><time>2025-04-28T09:05:51.000Z</time><ele>1075</ele></trkpt><trkpt lat="45.982985" lon="10.297255"><time>2025-04-28T09:05:52.000Z</time><ele>1074.6</ele></trkpt><trkpt lat="45.982987" lon="10.297238"><time>2025-04-28T09:05:53.000Z</time><ele>1074.4</ele></trkpt><trkpt lat="45.982986" lon="10.297221"><time>2025-04-28T09:05:54.000Z</time><ele>1074.2</ele></trkpt><trkpt lat="45.982988" lon="10.297208"><time>2025-04-28T09:05:55.000Z</time><ele>1074</ele></trkpt><trkpt lat="45.982983" lon="10.297196"><time>2025-04-28T09:05:56.000Z</time><ele>1073.6</ele></trkpt><trkpt lat="45.982983" lon="10.297178"><time>2025-04-28T09:05:57.000Z</time><ele>1073.4</ele></trkpt><trkpt lat="45.982975" lon="10.29717"><time>2025-04-28T09:05:58.000Z</time><ele>1073.2</ele></trkpt><trkpt lat="45.98297" lon="10.297157"><time>2025-04-28T09:05:59.000Z</time><ele>1073</ele></trkpt><trkpt lat="45.982968" lon="10.297145"><time>2025-04-28T09:06:00.000Z</time><ele>1072.8</ele></trkpt><trkpt lat="45.982966" lon="10.297133"><time>2025-04-28T09:06:01.000Z</time><ele>1072.8</ele></trkpt><trkpt lat="45.982964" lon="10.297126"><time>2025-04-28T09:06:02.000Z</time><ele>1072.6</ele></trkpt><trkpt lat="45.982961" lon="10.297108"><time>2025-04-28T09:06:03.000Z</time><ele>1072.6</ele></trkpt><trkpt lat="45.98296" lon="10.297095"><time>2025-04-28T09:06:04.000Z</time><ele>1072.4</ele></trkpt><trkpt lat="45.982953" lon="10.297078"><time>2025-04-28T09:06:05.000Z</time><ele>1072</ele></trkpt><trkpt lat="45.982943" lon="10.297067"><time>2025-04-28T09:06:06.000Z</time><ele>1071.8</ele></trkpt><trkpt lat="45.982932" lon="10.297049"><time>2025-04-28T09:06:07.000Z</time><ele>1071.6</ele></trkpt><trkpt lat="45.982925" lon="10.297022"><time>2025-04-28T09:06:08.000Z</time><ele>1071.4</ele></trkpt><trkpt lat="45.982916" lon="10.297004"><time>2025-04-28T09:06:09.000Z</time><ele>1071.2</ele></trkpt><trkpt lat="45.982909" lon="10.296984"><time>2025-04-28T09:06:10.000Z</time><ele>1071</ele></trkpt><trkpt lat="45.982898" lon="10.296972"><time>2025-04-28T09:06:11.000Z</time><ele>1070.8</ele></trkpt><trkpt lat="45.982887" lon="10.296951"><time>2025-04-28T09:06:12.000Z</time><ele>1070.6</ele></trkpt><trkpt lat="45.982878" lon="10.296926"><time>2025-04-28T09:06:13.000Z</time><ele>1070.4</ele></trkpt><trkpt lat="45.982868" lon="10.296919"><time>2025-04-28T09:06:14.000Z</time><ele>1070</ele></trkpt><trkpt lat="45.98286" lon="10.296909"><time>2025-04-28T09:06:15.000Z</time><ele>1069.8</ele></trkpt><trkpt lat="45.982855" lon="10.296894"><time>2025-04-28T09:06:16.000Z</time><ele>1069.6</ele></trkpt><trkpt lat="45.982841" lon="10.296889"><time>2025-04-28T09:06:17.000Z</time><ele>1069.2</ele></trkpt><trkpt lat="45.982836" lon="10.296873"><time>2025-04-28T09:06:18.000Z</time><ele>1069</ele></trkpt><trkpt lat="45.98283" lon="10.296864"><time>2025-04-28T09:06:19.000Z</time><ele>1068.8</ele></trkpt><trkpt lat="45.982817" lon="10.296846"><time>2025-04-28T09:06:20.000Z</time><ele>1068.8</ele></trkpt><trkpt lat="45.98281" lon="10.296828"><time>2025-04-28T09:06:21.000Z</time><ele>1068.6</ele></trkpt><trkpt lat="45.982804" lon="10.296817"><time>2025-04-28T09:06:22.000Z</time><ele>1068.4</ele></trkpt><trkpt lat="45.982802" lon="10.296808"><time>2025-04-28T09:06:23.000Z</time><ele>1068.2</ele></trkpt><trkpt lat="45.982801" lon="10.296803"><time>2025-04-28T09:06:24.000Z</time><ele>1067.8</ele></trkpt><trkpt lat="45.982797" lon="10.296794"><time>2025-04-28T09:06:25.000Z</time><ele>1067.6</ele></trkpt><trkpt lat="45.982793" lon="10.296781"><time>2025-04-28T09:06:26.000Z</time><ele>1067.6</ele></trkpt><trkpt lat="45.982788" lon="10.296766"><time>2025-04-28T09:06:27.000Z</time><ele>1067.4</ele></trkpt><trkpt lat="45.982781" lon="10.296754"><time>2025-04-28T09:06:28.000Z</time><ele>1067.4</ele></trkpt><trkpt lat="45.982773" lon="10.296741"><time>2025-04-28T09:06:29.000Z</time><ele>1067.2</ele></trkpt><trkpt lat="45.982765" lon="10.296725"><time>2025-04-28T09:06:30.000Z</time><ele>1067</ele></trkpt><trkpt lat="45.982755" lon="10.296708"><time>2025-04-28T09:06:31.000Z</time><ele>1066.8</ele></trkpt><trkpt lat="45.982749" lon="10.296695"><time>2025-04-28T09:06:32.000Z</time><ele>1066.6</ele></trkpt><trkpt lat="45.982746" lon="10.296675"><time>2025-04-28T09:06:33.000Z</time><ele>1066.4</ele></trkpt><trkpt lat="45.982741" lon="10.296666"><time>2025-04-28T09:06:34.000Z</time><ele>1066.2</ele></trkpt><trkpt lat="45.982738" lon="10.296651"><time>2025-04-28T09:06:35.000Z</time><ele>1066</ele></trkpt><trkpt lat="45.982733" lon="10.296639"><time>2025-04-28T09:06:36.000Z</time><ele>1065.8</ele></trkpt><trkpt lat="45.982728" lon="10.296626"><time>2025-04-28T09:06:37.000Z</time><ele>1065.6</ele></trkpt><trkpt lat="45.982724" lon="10.296611"><time>2025-04-28T09:06:38.000Z</time><ele>1065.6</ele></trkpt><trkpt lat="45.982721" lon="10.296593"><time>2025-04-28T09:06:39.000Z</time><ele>1065.4</ele></trkpt><trkpt lat="45.982713" lon="10.296579"><time>2025-04-28T09:06:40.000Z</time><ele>1065.2</ele></trkpt><trkpt lat="45.982703" lon="10.296565"><time>2025-04-28T09:06:41.000Z</time><ele>1065.2</ele></trkpt><trkpt lat="45.982693" lon="10.296558"><time>2025-04-28T09:06:42.000Z</time><ele>1064.8</ele></trkpt><trkpt lat="45.982684" lon="10.296557"><time>2025-04-28T09:06:43.000Z</time><ele>1064.8</ele></trkpt><trkpt lat="45.982676" lon="10.296556"><time>2025-04-28T09:06:44.000Z</time><ele>1064.6</ele></trkpt><trkpt lat="45.98267" lon="10.296553"><time>2025-04-28T09:06:45.000Z</time><ele>1064.6</ele></trkpt><trkpt lat="45.982658" lon="10.296548"><time>2025-04-28T09:06:46.000Z</time><ele>1064.8</ele></trkpt><trkpt lat="45.982659" lon="10.296547"><time>2025-04-28T09:06:47.000Z</time><ele>1064.8</ele></trkpt><trkpt lat="45.982648" lon="10.296538"><time>2025-04-28T09:06:48.000Z</time><ele>1065</ele></trkpt><trkpt lat="45.982645" lon="10.296538"><time>2025-04-28T09:06:49.000Z</time><ele>1065</ele></trkpt><trkpt lat="45.982643" lon="10.296538"><time>2025-04-28T09:06:50.000Z</time><ele>1065</ele></trkpt><trkpt lat="45.982638" lon="10.296553"><time>2025-04-28T09:06:51.000Z</time><ele>1064.6</ele></trkpt><trkpt lat="45.982633" lon="10.296572"><time>2025-04-28T09:06:52.000Z</time><ele>1064.4</ele></trkpt><trkpt lat="45.98263" lon="10.296588"><time>2025-04-28T09:06:53.000Z</time><ele>1064.4</ele></trkpt><trkpt lat="45.98263" lon="10.296594"><time>2025-04-28T09:06:54.000Z</time><ele>1064.4</ele></trkpt><trkpt lat="45.982631" lon="10.296597"><time>2025-04-28T09:06:55.000Z</time><ele>1064.4</ele></trkpt><trkpt lat="45.982626" lon="10.296593"><time>2025-04-28T09:06:56.000Z</time><ele>1064.4</ele></trkpt><trkpt lat="45.982626" lon="10.296591"><time>2025-04-28T09:06:57.000Z</time><ele>1064.4</ele></trkpt><trkpt lat="45.982625" lon="10.296581"><time>2025-04-28T09:06:58.000Z</time><ele>1064.4</ele></trkpt><trkpt lat="45.982624" lon="10.29658"><time>2025-04-28T09:06:59.000Z</time><ele>1064.6</ele></trkpt><trkpt lat="45.982624" lon="10.296579"><time>2025-04-28T09:07:00.000Z</time><ele>1064.6</ele></trkpt><trkpt lat="45.982624" lon="10.296579"><time>2025-04-28T09:07:01.000Z</time><ele>1064.6</ele></trkpt><trkpt lat="45.982624" lon="10.296579"><time>2025-04-28T09:07:02.000Z</time><ele>1064.6</ele></trkpt><trkpt lat="45.982624" lon="10.296579"><time>2025-04-28T09:07:03.000Z</time><ele>1064.6</ele></trkpt><trkpt lat="45.982624" lon="10.296579"><time>2025-04-28T09:07:04.000Z</time><ele>1064.6</ele></trkpt><trkpt lat="45.982624" lon="10.296579"><time>2025-04-28T09:07:05.000Z</time><ele>1064.6</ele></trkpt><trkpt lat="45.982624" lon="10.296579"><time>2025-04-28T09:07:06.000Z</time><ele>1064.4</ele></trkpt><trkpt lat="45.982624" lon="10.296579"><time>2025-04-28T09:07:07.000Z</time><ele>1064.4</ele></trkpt><trkpt lat="45.982624" lon="10.296579"><time>2025-04-28T09:07:08.000Z</time><ele>1064.2</ele></trkpt><trkpt lat="45.982624" lon="10.296579"><time>2025-04-28T09:07:09.000Z</time><ele>1064.2</ele></trkpt><trkpt lat="45.982624" lon="10.296579"><time>2025-04-28T09:07:10.000Z</time><ele>1064.2</ele></trkpt><trkpt lat="45.982624" lon="10.296579"><time>2025-04-28T09:07:11.000Z</time><ele>1064.2</ele></trkpt><trkpt lat="45.982624" lon="10.296579"><time>2025-04-28T09:07:12.000Z</time><ele>1064.4</ele></trkpt><trkpt lat="45.982625" lon="10.296579"><time>2025-04-28T09:07:13.000Z</time><ele>1064.4</ele></trkpt><trkpt lat="45.982626" lon="10.296579"><time>2025-04-28T09:07:14.000Z</time><ele>1064.4</ele></trkpt><trkpt lat="45.982626" lon="10.296579"><time>2025-04-28T09:07:15.000Z</time><ele>1064.6</ele></trkpt><trkpt lat="45.982627" lon="10.296579"><time>2025-04-28T09:07:16.000Z</time><ele>1064.6</ele></trkpt><trkpt lat="45.982629" lon="10.29658"><time>2025-04-28T09:07:17.000Z</time><ele>1064.6</ele></trkpt><trkpt lat="45.98263" lon="10.29658"><time>2025-04-28T09:07:18.000Z</time><ele>1064.6</ele></trkpt><trkpt lat="45.98263" lon="10.296581"><time>2025-04-28T09:07:19.000Z</time><ele>1064.6</ele></trkpt><trkpt lat="45.982631" lon="10.296581"><time>2025-04-28T09:07:20.000Z</time><ele>1064.8</ele></trkpt><trkpt lat="45.982631" lon="10.296581"><time>2025-04-28T09:07:21.000Z</time><ele>1064.6</ele></trkpt><trkpt lat="45.982631" lon="10.296581"><time>2025-04-28T09:07:22.000Z</time><ele>1064.4</ele></trkpt><trkpt lat="45.982631" lon="10.296581"><time>2025-04-28T09:07:23.000Z</time><ele>1064.2</ele></trkpt><trkpt lat="45.982627" lon="10.296581"><time>2025-04-28T09:07:24.000Z</time><ele>1064</ele></trkpt><trkpt lat="45.982623" lon="10.296582"><time>2025-04-28T09:07:25.000Z</time><ele>1063.8</ele></trkpt><trkpt lat="45.982617" lon="10.296581"><time>2025-04-28T09:07:26.000Z</time><ele>1063.4</ele></trkpt><trkpt lat="45.982615" lon="10.296578"><time>2025-04-28T09:07:27.000Z</time><ele>1063.4</ele></trkpt><trkpt lat="45.982614" lon="10.296576"><time>2025-04-28T09:07:28.000Z</time><ele>1063.2</ele></trkpt><trkpt lat="45.982608" lon="10.296577"><time>2025-04-28T09:07:29.000Z</time><ele>1063.2</ele></trkpt><trkpt lat="45.982606" lon="10.296579"><time>2025-04-28T09:07:30.000Z</time><ele>1063.4</ele></trkpt><trkpt lat="45.9826" lon="10.296591"><time>2025-04-28T09:07:31.000Z</time><ele>1063.4</ele></trkpt><trkpt lat="45.982592" lon="10.296607"><time>2025-04-28T09:07:32.000Z</time><ele>1063.4</ele></trkpt><trkpt lat="45.98259" lon="10.296621"><time>2025-04-28T09:07:33.000Z</time><ele>1063.4</ele></trkpt><trkpt lat="45.982593" lon="10.296634"><time>2025-04-28T09:07:34.000Z</time><ele>1063.4</ele></trkpt><trkpt lat="45.982595" lon="10.296641"><time>2025-04-28T09:07:35.000Z</time><ele>1063.2</ele></trkpt><trkpt lat="45.982603" lon="10.296646"><time>2025-04-28T09:07:36.000Z</time><ele>1063</ele></trkpt><trkpt lat="45.982611" lon="10.296652"><time>2025-04-28T09:07:37.000Z</time><ele>1062.6</ele></trkpt><trkpt lat="45.982621" lon="10.296658"><time>2025-04-28T09:07:38.000Z</time><ele>1062.2</ele></trkpt><trkpt lat="45.982632" lon="10.296665"><time>2025-04-28T09:07:39.000Z</time><ele>1062.2</ele></trkpt><trkpt lat="45.982642" lon="10.296676"><time>2025-04-28T09:07:40.000Z</time><ele>1062</ele></trkpt><trkpt lat="45.98265" lon="10.29669"><time>2025-04-28T09:07:41.000Z</time><ele>1061.8</ele></trkpt><trkpt lat="45.982656" lon="10.296702"><time>2025-04-28T09:07:42.000Z</time><ele>1061.6</ele></trkpt><trkpt lat="45.982664" lon="10.296712"><time>2025-04-28T09:07:43.000Z</time><ele>1061.4</ele></trkpt><trkpt lat="45.982671" lon="10.296721"><time>2025-04-28T09:07:44.000Z</time><ele>1061.2</ele></trkpt><trkpt lat="45.982679" lon="10.296737"><time>2025-04-28T09:07:45.000Z</time><ele>1060.8</ele></trkpt><trkpt lat="45.98269" lon="10.296752"><time>2025-04-28T09:07:46.000Z</time><ele>1060.8</ele></trkpt><trkpt lat="45.982697" lon="10.29677"><time>2025-04-28T09:07:47.000Z</time><ele>1060.6</ele></trkpt><trkpt lat="45.982701" lon="10.296789"><time>2025-04-28T09:07:48.000Z</time><ele>1060.4</ele></trkpt><trkpt lat="45.982703" lon="10.2968"><time>2025-04-28T09:07:49.000Z</time><ele>1060.2</ele></trkpt><trkpt lat="45.982703" lon="10.296816"><time>2025-04-28T09:07:50.000Z</time><ele>1060</ele></trkpt><trkpt lat="45.982703" lon="10.296833"><time>2025-04-28T09:07:51.000Z</time><ele>1059.6</ele></trkpt><trkpt lat="45.982702" lon="10.296851"><time>2025-04-28T09:07:52.000Z</time><ele>1059.4</ele></trkpt><trkpt lat="45.982703" lon="10.296869"><time>2025-04-28T09:07:53.000Z</time><ele>1059.2</ele></trkpt><trkpt lat="45.982703" lon="10.296884"><time>2025-04-28T09:07:54.000Z</time><ele>1059</ele></trkpt><trkpt lat="45.982703" lon="10.296898"><time>2025-04-28T09:07:55.000Z</time><ele>1058.8</ele></trkpt><trkpt lat="45.982703" lon="10.296908"><time>2025-04-28T09:07:56.000Z</time><ele>1058.8</ele></trkpt><trkpt lat="45.982701" lon="10.296922"><time>2025-04-28T09:07:57.000Z</time><ele>1058.4</ele></trkpt><trkpt lat="45.982697" lon="10.296939"><time>2025-04-28T09:07:58.000Z</time><ele>1058.2</ele></trkpt><trkpt lat="45.982697" lon="10.296959"><time>2025-04-28T09:07:59.000Z</time><ele>1058</ele></trkpt><trkpt lat="45.982693" lon="10.29698"><time>2025-04-28T09:08:00.000Z</time><ele>1057.8</ele></trkpt><trkpt lat="45.982689" lon="10.297004"><time>2025-04-28T09:08:01.000Z</time><ele>1057.4</ele></trkpt><trkpt lat="45.982686" lon="10.297027"><time>2025-04-28T09:08:02.000Z</time><ele>1057.2</ele></trkpt><trkpt lat="45.982688" lon="10.297048"><time>2025-04-28T09:08:03.000Z</time><ele>1057.2</ele></trkpt><trkpt lat="45.982696" lon="10.297069"><time>2025-04-28T09:08:04.000Z</time><ele>1057</ele></trkpt><trkpt lat="45.9827" lon="10.297089"><time>2025-04-28T09:08:05.000Z</time><ele>1056.6</ele></trkpt><trkpt lat="45.982706" lon="10.297102"><time>2025-04-28T09:08:06.000Z</time><ele>1056.2</ele></trkpt><trkpt lat="45.982715" lon="10.297113"><time>2025-04-28T09:08:07.000Z</time><ele>1055.8</ele></trkpt><trkpt lat="45.982721" lon="10.297126"><time>2025-04-28T09:08:08.000Z</time><ele>1055.4</ele></trkpt><trkpt lat="45.982727" lon="10.297138"><time>2025-04-28T09:08:09.000Z</time><ele>1055.2</ele></trkpt><trkpt lat="45.982735" lon="10.297153"><time>2025-04-28T09:08:10.000Z</time><ele>1055.2</ele></trkpt><trkpt lat="45.982737" lon="10.297173"><time>2025-04-28T09:08:11.000Z</time><ele>1055</ele></trkpt><trkpt lat="45.982743" lon="10.297192"><time>2025-04-28T09:08:12.000Z</time><ele>1054.8</ele></trkpt><trkpt lat="45.982751" lon="10.297215"><time>2025-04-28T09:08:13.000Z</time><ele>1054.6</ele></trkpt><trkpt lat="45.982762" lon="10.297236"><time>2025-04-28T09:08:14.000Z</time><ele>1054.4</ele></trkpt><trkpt lat="45.982768" lon="10.29725"><time>2025-04-28T09:08:15.000Z</time><ele>1054.2</ele></trkpt><trkpt lat="45.982778" lon="10.297259"><time>2025-04-28T09:08:16.000Z</time><ele>1053.8</ele></trkpt><trkpt lat="45.98279" lon="10.297264"><time>2025-04-28T09:08:17.000Z</time><ele>1053.6</ele></trkpt><trkpt lat="45.982797" lon="10.297269"><time>2025-04-28T09:08:18.000Z</time><ele>1053.4</ele></trkpt><trkpt lat="45.982803" lon="10.297283"><time>2025-04-28T09:08:19.000Z</time><ele>1053.2</ele></trkpt><trkpt lat="45.982805" lon="10.297309"><time>2025-04-28T09:08:20.000Z</time><ele>1053</ele></trkpt><trkpt lat="45.982808" lon="10.297334"><time>2025-04-28T09:08:21.000Z</time><ele>1052.8</ele></trkpt><trkpt lat="45.982817" lon="10.297354"><time>2025-04-28T09:08:22.000Z</time><ele>1052.2</ele></trkpt><trkpt lat="45.982825" lon="10.297365"><time>2025-04-28T09:08:23.000Z</time><ele>1052</ele></trkpt><trkpt lat="45.982835" lon="10.297373"><time>2025-04-28T09:08:24.000Z</time><ele>1051.6</ele></trkpt><trkpt lat="45.982844" lon="10.297387"><time>2025-04-28T09:08:25.000Z</time><ele>1051.2</ele></trkpt><trkpt lat="45.982845" lon="10.297403"><time>2025-04-28T09:08:26.000Z</time><ele>1051</ele></trkpt><trkpt lat="45.982843" lon="10.297421"><time>2025-04-28T09:08:27.000Z</time><ele>1050.6</ele></trkpt><trkpt lat="45.982841" lon="10.297435"><time>2025-04-28T09:08:28.000Z</time><ele>1050.2</ele></trkpt><trkpt lat="45.982838" lon="10.297456"><time>2025-04-28T09:08:29.000Z</time><ele>1050</ele></trkpt><trkpt lat="45.982834" lon="10.29748"><time>2025-04-28T09:08:30.000Z</time><ele>1049.6</ele></trkpt><trkpt lat="45.982833" lon="10.297499"><time>2025-04-28T09:08:31.000Z</time><ele>1049.4</ele></trkpt><trkpt lat="45.982833" lon="10.297511"><time>2025-04-28T09:08:32.000Z</time><ele>1049.2</ele></trkpt><trkpt lat="45.982834" lon="10.297522"><time>2025-04-28T09:08:33.000Z</time><ele>1049</ele></trkpt><trkpt lat="45.982837" lon="10.297533"><time>2025-04-28T09:08:34.000Z</time><ele>1048.8</ele></trkpt><trkpt lat="45.982836" lon="10.29755"><time>2025-04-28T09:08:35.000Z</time><ele>1048.6</ele></trkpt><trkpt lat="45.982836" lon="10.297564"><time>2025-04-28T09:08:36.000Z</time><ele>1048.2</ele></trkpt><trkpt lat="45.982836" lon="10.297583"><time>2025-04-28T09:08:37.000Z</time><ele>1048</ele></trkpt><trkpt lat="45.982838" lon="10.297602"><time>2025-04-28T09:08:38.000Z</time><ele>1047.6</ele></trkpt><trkpt lat="45.98284" lon="10.297623"><time>2025-04-28T09:08:39.000Z</time><ele>1047.2</ele></trkpt><trkpt lat="45.982845" lon="10.297643"><time>2025-04-28T09:08:40.000Z</time><ele>1046.8</ele></trkpt><trkpt lat="45.982851" lon="10.297667"><time>2025-04-28T09:08:41.000Z</time><ele>1046.6</ele></trkpt><trkpt lat="45.982852" lon="10.297686"><time>2025-04-28T09:08:42.000Z</time><ele>1046.4</ele></trkpt><trkpt lat="45.982848" lon="10.297701"><time>2025-04-28T09:08:43.000Z</time><ele>1046</ele></trkpt><trkpt lat="45.98285" lon="10.29772"><time>2025-04-28T09:08:44.000Z</time><ele>1045.8</ele></trkpt><trkpt lat="45.982852" lon="10.297733"><time>2025-04-28T09:08:45.000Z</time><ele>1045.6</ele></trkpt><trkpt lat="45.982849" lon="10.297749"><time>2025-04-28T09:08:46.000Z</time><ele>1045.4</ele></trkpt><trkpt lat="45.982845" lon="10.297768"><time>2025-04-28T09:08:47.000Z</time><ele>1045.2</ele></trkpt><trkpt lat="45.982849" lon="10.297781"><time>2025-04-28T09:08:48.000Z</time><ele>1044.8</ele></trkpt><trkpt lat="45.982855" lon="10.297795"><time>2025-04-28T09:08:49.000Z</time><ele>1044.6</ele></trkpt><trkpt lat="45.982858" lon="10.29781"><time>2025-04-28T09:08:50.000Z</time><ele>1044.4</ele></trkpt><trkpt lat="45.982859" lon="10.297825"><time>2025-04-28T09:08:51.000Z</time><ele>1044</ele></trkpt><trkpt lat="45.982855" lon="10.297851"><time>2025-04-28T09:08:52.000Z</time><ele>1043.8</ele></trkpt><trkpt lat="45.98286" lon="10.297876"><time>2025-04-28T09:08:53.000Z</time><ele>1043.6</ele></trkpt><trkpt lat="45.982869" lon="10.29789"><time>2025-04-28T09:08:54.000Z</time><ele>1043.2</ele></trkpt><trkpt lat="45.982876" lon="10.297897"><time>2025-04-28T09:08:55.000Z</time><ele>1043</ele></trkpt><trkpt lat="45.982878" lon="10.297908"><time>2025-04-28T09:08:56.000Z</time><ele>1042.8</ele></trkpt><trkpt lat="45.982878" lon="10.297924"><time>2025-04-28T09:08:57.000Z</time><ele>1042.6</ele></trkpt><trkpt lat="45.98288" lon="10.297932"><time>2025-04-28T09:08:58.000Z</time><ele>1042.2</ele></trkpt><trkpt lat="45.982881" lon="10.297938"><time>2025-04-28T09:08:59.000Z</time><ele>1042</ele></trkpt><trkpt lat="45.982879" lon="10.297958"><time>2025-04-28T09:09:00.000Z</time><ele>1041.8</ele></trkpt><trkpt lat="45.982882" lon="10.297982"><time>2025-04-28T09:09:01.000Z</time><ele>1041.4</ele></trkpt><trkpt lat="45.982883" lon="10.29801"><time>2025-04-28T09:09:02.000Z</time><ele>1041</ele></trkpt><trkpt lat="45.982884" lon="10.298026"><time>2025-04-28T09:09:03.000Z</time><ele>1040.8</ele></trkpt><trkpt lat="45.982885" lon="10.29804"><time>2025-04-28T09:09:04.000Z</time><ele>1040.4</ele></trkpt><trkpt lat="45.982884" lon="10.298051"><time>2025-04-28T09:09:05.000Z</time><ele>1040.2</ele></trkpt><trkpt lat="45.982887" lon="10.298061"><time>2025-04-28T09:09:06.000Z</time><ele>1040</ele></trkpt><trkpt lat="45.982893" lon="10.298072"><time>2025-04-28T09:09:07.000Z</time><ele>1039.8</ele></trkpt><trkpt lat="45.982902" lon="10.298083"><time>2025-04-28T09:09:08.000Z</time><ele>1039.6</ele></trkpt><trkpt lat="45.982912" lon="10.2981"><time>2025-04-28T09:09:09.000Z</time><ele>1039.4</ele></trkpt><trkpt lat="45.982915" lon="10.298119"><time>2025-04-28T09:09:10.000Z</time><ele>1039.2</ele></trkpt><trkpt lat="45.982919" lon="10.29814"><time>2025-04-28T09:09:11.000Z</time><ele>1039</ele></trkpt><trkpt lat="45.982923" lon="10.298158"><time>2025-04-28T09:09:12.000Z</time><ele>1039</ele></trkpt><trkpt lat="45.982929" lon="10.298176"><time>2025-04-28T09:09:13.000Z</time><ele>1038.8</ele></trkpt><trkpt lat="45.982929" lon="10.298191"><time>2025-04-28T09:09:14.000Z</time><ele>1038.6</ele></trkpt><trkpt lat="45.982926" lon="10.298211"><time>2025-04-28T09:09:15.000Z</time><ele>1038.4</ele></trkpt><trkpt lat="45.982923" lon="10.298229"><time>2025-04-28T09:09:16.000Z</time><ele>1038.2</ele></trkpt><trkpt lat="45.982922" lon="10.298248"><time>2025-04-28T09:09:17.000Z</time><ele>1038</ele></trkpt><trkpt lat="45.982927" lon="10.298269"><time>2025-04-28T09:09:18.000Z</time><ele>1037.8</ele></trkpt><trkpt lat="45.982935" lon="10.29828"><time>2025-04-28T09:09:19.000Z</time><ele>1037.6</ele></trkpt><trkpt lat="45.982942" lon="10.298296"><time>2025-04-28T09:09:20.000Z</time><ele>1037.4</ele></trkpt><trkpt lat="45.982947" lon="10.298309"><time>2025-04-28T09:09:21.000Z</time><ele>1037.2</ele></trkpt><trkpt lat="45.982947" lon="10.298324"><time>2025-04-28T09:09:22.000Z</time><ele>1037</ele></trkpt><trkpt lat="45.982948" lon="10.298335"><time>2025-04-28T09:09:23.000Z</time><ele>1036.6</ele></trkpt><trkpt lat="45.982946" lon="10.298351"><time>2025-04-28T09:09:24.000Z</time><ele>1036.4</ele></trkpt><trkpt lat="45.982944" lon="10.298375"><time>2025-04-28T09:09:25.000Z</time><ele>1036.2</ele></trkpt><trkpt lat="45.982944" lon="10.2984"><time>2025-04-28T09:09:26.000Z</time><ele>1036</ele></trkpt><trkpt lat="45.982944" lon="10.298419"><time>2025-04-28T09:09:27.000Z</time><ele>1035.6</ele></trkpt><trkpt lat="45.982947" lon="10.298432"><time>2025-04-28T09:09:28.000Z</time><ele>1035.2</ele></trkpt><trkpt lat="45.982947" lon="10.298447"><time>2025-04-28T09:09:29.000Z</time><ele>1034.8</ele></trkpt><trkpt lat="45.98295" lon="10.298461"><time>2025-04-28T09:09:30.000Z</time><ele>1034.6</ele></trkpt><trkpt lat="45.982951" lon="10.298476"><time>2025-04-28T09:09:31.000Z</time><ele>1034.4</ele></trkpt><trkpt lat="45.982957" lon="10.298488"><time>2025-04-28T09:09:32.000Z</time><ele>1034</ele></trkpt><trkpt lat="45.982958" lon="10.298495"><time>2025-04-28T09:09:33.000Z</time><ele>1033.6</ele></trkpt><trkpt lat="45.982954" lon="10.298511"><time>2025-04-28T09:09:34.000Z</time><ele>1033.4</ele></trkpt><trkpt lat="45.982952" lon="10.298529"><time>2025-04-28T09:09:35.000Z</time><ele>1033.2</ele></trkpt><trkpt lat="45.982959" lon="10.29855"><time>2025-04-28T09:09:36.000Z</time><ele>1033.2</ele></trkpt><trkpt lat="45.982963" lon="10.298577"><time>2025-04-28T09:09:37.000Z</time><ele>1032.8</ele></trkpt><trkpt lat="45.982963" lon="10.298604"><time>2025-04-28T09:09:38.000Z</time><ele>1032.6</ele></trkpt><trkpt lat="45.982962" lon="10.298638"><time>2025-04-28T09:09:39.000Z</time><ele>1032.4</ele></trkpt><trkpt lat="45.98295" lon="10.298672"><time>2025-04-28T09:09:40.000Z</time><ele>1032.4</ele></trkpt><trkpt lat="45.982946" lon="10.298681"><time>2025-04-28T09:09:41.000Z</time><ele>1032.2</ele></trkpt><trkpt lat="45.982943" lon="10.298688"><time>2025-04-28T09:09:42.000Z</time><ele>1032.2</ele></trkpt><trkpt lat="45.982938" lon="10.298692"><time>2025-04-28T09:09:43.000Z</time><ele>1032.2</ele></trkpt><trkpt lat="45.982935" lon="10.298695"><time>2025-04-28T09:09:44.000Z</time><ele>1032.2</ele></trkpt><trkpt lat="45.982933" lon="10.298698"><time>2025-04-28T09:09:45.000Z</time><ele>1032.2</ele></trkpt><trkpt lat="45.982933" lon="10.298699"><time>2025-04-28T09:09:46.000Z</time><ele>1032.2</ele></trkpt><trkpt lat="45.982935" lon="10.298706"><time>2025-04-28T09:09:47.000Z</time><ele>1032.2</ele></trkpt><trkpt lat="45.982934" lon="10.298723"><time>2025-04-28T09:09:48.000Z</time><ele>1032</ele></trkpt><trkpt lat="45.982933" lon="10.298738"><time>2025-04-28T09:09:49.000Z</time><ele>1032</ele></trkpt><trkpt lat="45.982922" lon="10.298763"><time>2025-04-28T09:09:50.000Z</time><ele>1031.8</ele></trkpt><trkpt lat="45.982922" lon="10.298768"><time>2025-04-28T09:09:51.000Z</time><ele>1031.8</ele></trkpt><trkpt lat="45.982923" lon="10.298773"><time>2025-04-28T09:09:52.000Z</time><ele>1031.6</ele></trkpt><trkpt lat="45.982919" lon="10.298798"><time>2025-04-28T09:09:53.000Z</time><ele>1031.2</ele></trkpt><trkpt lat="45.982915" lon="10.298823"><time>2025-04-28T09:09:54.000Z</time><ele>1031</ele></trkpt><trkpt lat="45.982905" lon="10.298838"><time>2025-04-28T09:09:55.000Z</time><ele>1030.6</ele></trkpt><trkpt lat="45.982903" lon="10.298851"><time>2025-04-28T09:09:56.000Z</time><ele>1030.4</ele></trkpt><trkpt lat="45.982901" lon="10.298863"><time>2025-04-28T09:09:57.000Z</time><ele>1030</ele></trkpt><trkpt lat="45.982897" lon="10.298884"><time>2025-04-28T09:09:58.000Z</time><ele>1029.8</ele></trkpt><trkpt lat="45.982891" lon="10.298901"><time>2025-04-28T09:09:59.000Z</time><ele>1029.6</ele></trkpt><trkpt lat="45.982884" lon="10.298915"><time>2025-04-28T09:10:00.000Z</time><ele>1029.4</ele></trkpt><trkpt lat="45.982879" lon="10.298928"><time>2025-04-28T09:10:01.000Z</time><ele>1029</ele></trkpt><trkpt lat="45.982884" lon="10.298941"><time>2025-04-28T09:10:02.000Z</time><ele>1028.8</ele></trkpt><trkpt lat="45.982894" lon="10.298957"><time>2025-04-28T09:10:03.000Z</time><ele>1028.6</ele></trkpt><trkpt lat="45.982892" lon="10.298982"><time>2025-04-28T09:10:04.000Z</time><ele>1028.4</ele></trkpt><trkpt lat="45.982891" lon="10.299004"><time>2025-04-28T09:10:05.000Z</time><ele>1028.2</ele></trkpt><trkpt lat="45.982887" lon="10.299021"><time>2025-04-28T09:10:06.000Z</time><ele>1028</ele></trkpt><trkpt lat="45.982892" lon="10.299025"><time>2025-04-28T09:10:07.000Z</time><ele>1027.8</ele></trkpt><trkpt lat="45.982897" lon="10.299031"><time>2025-04-28T09:10:08.000Z</time><ele>1027.4</ele></trkpt><trkpt lat="45.982896" lon="10.299044"><time>2025-04-28T09:10:09.000Z</time><ele>1027.2</ele></trkpt><trkpt lat="45.982894" lon="10.299071"><time>2025-04-28T09:10:10.000Z</time><ele>1027</ele></trkpt><trkpt lat="45.982889" lon="10.299083"><time>2025-04-28T09:10:11.000Z</time><ele>1027</ele></trkpt><trkpt lat="45.982884" lon="10.299093"><time>2025-04-28T09:10:12.000Z</time><ele>1026.6</ele></trkpt><trkpt lat="45.982881" lon="10.299109"><time>2025-04-28T09:10:13.000Z</time><ele>1026.4</ele></trkpt><trkpt lat="45.982873" lon="10.299125"><time>2025-04-28T09:10:14.000Z</time><ele>1026.2</ele></trkpt><trkpt lat="45.982871" lon="10.299143"><time>2025-04-28T09:10:15.000Z</time><ele>1026</ele></trkpt><trkpt lat="45.982881" lon="10.29916"><time>2025-04-28T09:10:16.000Z</time><ele>1025.8</ele></trkpt><trkpt lat="45.982888" lon="10.299176"><time>2025-04-28T09:10:17.000Z</time><ele>1025.6</ele></trkpt><trkpt lat="45.982891" lon="10.299188"><time>2025-04-28T09:10:18.000Z</time><ele>1025.4</ele></trkpt><trkpt lat="45.982882" lon="10.299209"><time>2025-04-28T09:10:19.000Z</time><ele>1025.2</ele></trkpt><trkpt lat="45.982877" lon="10.299224"><time>2025-04-28T09:10:20.000Z</time><ele>1025</ele></trkpt><trkpt lat="45.98287" lon="10.29924"><time>2025-04-28T09:10:21.000Z</time><ele>1024.8</ele></trkpt><trkpt lat="45.982863" lon="10.299258"><time>2025-04-28T09:10:22.000Z</time><ele>1024.6</ele></trkpt><trkpt lat="45.982859" lon="10.299273"><time>2025-04-28T09:10:23.000Z</time><ele>1024.4</ele></trkpt><trkpt lat="45.982853" lon="10.29929"><time>2025-04-28T09:10:24.000Z</time><ele>1024.2</ele></trkpt><trkpt lat="45.982843" lon="10.299311"><time>2025-04-28T09:10:25.000Z</time><ele>1024</ele></trkpt><trkpt lat="45.982835" lon="10.299326"><time>2025-04-28T09:10:26.000Z</time><ele>1023.8</ele></trkpt><trkpt lat="45.982832" lon="10.299331"><time>2025-04-28T09:10:27.000Z</time><ele>1023.4</ele></trkpt><trkpt lat="45.982827" lon="10.299347"><time>2025-04-28T09:10:28.000Z</time><ele>1023.2</ele></trkpt><trkpt lat="45.982825" lon="10.299365"><time>2025-04-28T09:10:29.000Z</time><ele>1023</ele></trkpt><trkpt lat="45.98282" lon="10.299389"><time>2025-04-28T09:10:30.000Z</time><ele>1022.8</ele></trkpt><trkpt lat="45.982811" lon="10.299412"><time>2025-04-28T09:10:31.000Z</time><ele>1022.4</ele></trkpt><trkpt lat="45.982809" lon="10.299433"><time>2025-04-28T09:10:32.000Z</time><ele>1022.2</ele></trkpt><trkpt lat="45.982807" lon="10.299455"><time>2025-04-28T09:10:33.000Z</time><ele>1022</ele></trkpt><trkpt lat="45.982808" lon="10.299481"><time>2025-04-28T09:10:34.000Z</time><ele>1021.8</ele></trkpt><trkpt lat="45.982811" lon="10.299499"><time>2025-04-28T09:10:35.000Z</time><ele>1021.8</ele></trkpt><trkpt lat="45.982812" lon="10.299518"><time>2025-04-28T09:10:36.000Z</time><ele>1021.4</ele></trkpt><trkpt lat="45.98281" lon="10.299536"><time>2025-04-28T09:10:37.000Z</time><ele>1021.2</ele></trkpt><trkpt lat="45.982808" lon="10.299557"><time>2025-04-28T09:10:38.000Z</time><ele>1020.8</ele></trkpt><trkpt lat="45.982804" lon="10.299576"><time>2025-04-28T09:10:39.000Z</time><ele>1020.4</ele></trkpt><trkpt lat="45.9828" lon="10.299591"><time>2025-04-28T09:10:40.000Z</time><ele>1020.2</ele></trkpt><trkpt lat="45.982795" lon="10.299608"><time>2025-04-28T09:10:41.000Z</time><ele>1020.2</ele></trkpt><trkpt lat="45.982781" lon="10.299635"><time>2025-04-28T09:10:42.000Z</time><ele>1020</ele></trkpt><trkpt lat="45.982776" lon="10.299663"><time>2025-04-28T09:10:43.000Z</time><ele>1019.8</ele></trkpt><trkpt lat="45.982772" lon="10.299693"><time>2025-04-28T09:10:44.000Z</time><ele>1019.4</ele></trkpt><trkpt lat="45.982768" lon="10.299716"><time>2025-04-28T09:10:45.000Z</time><ele>1019.2</ele></trkpt><trkpt lat="45.98277" lon="10.299723"><time>2025-04-28T09:10:46.000Z</time><ele>1019</ele></trkpt><trkpt lat="45.982771" lon="10.299742"><time>2025-04-28T09:10:47.000Z</time><ele>1018.6</ele></trkpt><trkpt lat="45.982774" lon="10.299757"><time>2025-04-28T09:10:48.000Z</time><ele>1018.6</ele></trkpt><trkpt lat="45.982779" lon="10.299774"><time>2025-04-28T09:10:49.000Z</time><ele>1018.4</ele></trkpt><trkpt lat="45.98278" lon="10.299788"><time>2025-04-28T09:10:50.000Z</time><ele>1018.2</ele></trkpt><trkpt lat="45.982781" lon="10.299802"><time>2025-04-28T09:10:51.000Z</time><ele>1018</ele></trkpt><trkpt lat="45.982775" lon="10.299824"><time>2025-04-28T09:10:52.000Z</time><ele>1017.8</ele></trkpt><trkpt lat="45.982768" lon="10.299839"><time>2025-04-28T09:10:53.000Z</time><ele>1017.8</ele></trkpt><trkpt lat="45.982763" lon="10.299858"><time>2025-04-28T09:10:54.000Z</time><ele>1017.6</ele></trkpt><trkpt lat="45.98276" lon="10.299872"><time>2025-04-28T09:10:55.000Z</time><ele>1017.4</ele></trkpt><trkpt lat="45.982761" lon="10.299873"><time>2025-04-28T09:10:56.000Z</time><ele>1017.2</ele></trkpt><trkpt lat="45.982765" lon="10.299886"><time>2025-04-28T09:10:57.000Z</time><ele>1017</ele></trkpt><trkpt lat="45.982767" lon="10.299902"><time>2025-04-28T09:10:58.000Z</time><ele>1017</ele></trkpt><trkpt lat="45.98277" lon="10.299923"><time>2025-04-28T09:10:59.000Z</time><ele>1016.8</ele></trkpt><trkpt lat="45.982773" lon="10.299938"><time>2025-04-28T09:11:00.000Z</time><ele>1016.8</ele></trkpt><trkpt lat="45.982779" lon="10.299954"><time>2025-04-28T09:11:01.000Z</time><ele>1016.4</ele></trkpt><trkpt lat="45.982779" lon="10.299967"><time>2025-04-28T09:11:02.000Z</time><ele>1016.4</ele></trkpt><trkpt lat="45.982772" lon="10.299981"><time>2025-04-28T09:11:03.000Z</time><ele>1016.2</ele></trkpt><trkpt lat="45.982758" lon="10.299999"><time>2025-04-28T09:11:04.000Z</time><ele>1015.8</ele></trkpt><trkpt lat="45.982751" lon="10.300016"><time>2025-04-28T09:11:05.000Z</time><ele>1015.6</ele></trkpt><trkpt lat="45.982744" lon="10.300029"><time>2025-04-28T09:11:06.000Z</time><ele>1015.6</ele></trkpt><trkpt lat="45.982736" lon="10.30004"><time>2025-04-28T09:11:07.000Z</time><ele>1015.4</ele></trkpt><trkpt lat="45.982729" lon="10.300061"><time>2025-04-28T09:11:08.000Z</time><ele>1015.2</ele></trkpt><trkpt lat="45.982723" lon="10.300082"><time>2025-04-28T09:11:09.000Z</time><ele>1015</ele></trkpt><trkpt lat="45.982717" lon="10.300111"><time>2025-04-28T09:11:10.000Z</time><ele>1014.8</ele></trkpt><trkpt lat="45.982716" lon="10.300134"><time>2025-04-28T09:11:11.000Z</time><ele>1014.6</ele></trkpt><trkpt lat="45.982711" lon="10.300152"><time>2025-04-28T09:11:12.000Z</time><ele>1014.6</ele></trkpt><trkpt lat="45.98271" lon="10.300163"><time>2025-04-28T09:11:13.000Z</time><ele>1014.4</ele></trkpt><trkpt lat="45.982704" lon="10.300176"><time>2025-04-28T09:11:14.000Z</time><ele>1014.2</ele></trkpt><trkpt lat="45.982693" lon="10.300195"><time>2025-04-28T09:11:15.000Z</time><ele>1014</ele></trkpt><trkpt lat="45.982683" lon="10.300219"><time>2025-04-28T09:11:16.000Z</time><ele>1013.8</ele></trkpt><trkpt lat="45.982672" lon="10.300243"><time>2025-04-28T09:11:17.000Z</time><ele>1013.6</ele></trkpt><trkpt lat="45.982662" lon="10.30026"><time>2025-04-28T09:11:18.000Z</time><ele>1013.6</ele></trkpt><trkpt lat="45.982652" lon="10.30028"><time>2025-04-28T09:11:19.000Z</time><ele>1013.4</ele></trkpt><trkpt lat="45.982642" lon="10.300302"><time>2025-04-28T09:11:20.000Z</time><ele>1013.4</ele></trkpt><trkpt lat="45.982624" lon="10.300319"><time>2025-04-28T09:11:21.000Z</time><ele>1013.2</ele></trkpt><trkpt lat="45.982617" lon="10.300338"><time>2025-04-28T09:11:22.000Z</time><ele>1012.8</ele></trkpt><trkpt lat="45.982615" lon="10.300359"><time>2025-04-28T09:11:23.000Z</time><ele>1012.6</ele></trkpt><trkpt lat="45.982615" lon="10.300366"><time>2025-04-28T09:11:24.000Z</time><ele>1012.4</ele></trkpt><trkpt lat="45.982618" lon="10.300377"><time>2025-04-28T09:11:25.000Z</time><ele>1012.2</ele></trkpt><trkpt lat="45.982619" lon="10.300404"><time>2025-04-28T09:11:26.000Z</time><ele>1011.8</ele></trkpt><trkpt lat="45.982626" lon="10.300426"><time>2025-04-28T09:11:27.000Z</time><ele>1011.6</ele></trkpt><trkpt lat="45.982628" lon="10.30045"><time>2025-04-28T09:11:28.000Z</time><ele>1011.4</ele></trkpt><trkpt lat="45.982634" lon="10.30047"><time>2025-04-28T09:11:29.000Z</time><ele>1011.4</ele></trkpt><trkpt lat="45.982637" lon="10.300492"><time>2025-04-28T09:11:30.000Z</time><ele>1011.2</ele></trkpt><trkpt lat="45.982643" lon="10.300515"><time>2025-04-28T09:11:31.000Z</time><ele>1011</ele></trkpt><trkpt lat="45.982647" lon="10.300538"><time>2025-04-28T09:11:32.000Z</time><ele>1010.8</ele></trkpt><trkpt lat="45.982653" lon="10.300558"><time>2025-04-28T09:11:33.000Z</time><ele>1010.6</ele></trkpt><trkpt lat="45.982657" lon="10.300576"><time>2025-04-28T09:11:34.000Z</time><ele>1010.2</ele></trkpt><trkpt lat="45.982659" lon="10.300587"><time>2025-04-28T09:11:35.000Z</time><ele>1010.2</ele></trkpt><trkpt lat="45.982664" lon="10.300598"><time>2025-04-28T09:11:36.000Z</time><ele>1009.8</ele></trkpt><trkpt lat="45.982671" lon="10.300615"><time>2025-04-28T09:11:37.000Z</time><ele>1009.6</ele></trkpt><trkpt lat="45.982678" lon="10.300633"><time>2025-04-28T09:11:38.000Z</time><ele>1009.4</ele></trkpt><trkpt lat="45.982677" lon="10.30066"><time>2025-04-28T09:11:39.000Z</time><ele>1009.2</ele></trkpt><trkpt lat="45.982671" lon="10.300687"><time>2025-04-28T09:11:40.000Z</time><ele>1008.8</ele></trkpt><trkpt lat="45.98267" lon="10.300706"><time>2025-04-28T09:11:41.000Z</time><ele>1008.6</ele></trkpt><trkpt lat="45.982665" lon="10.300729"><time>2025-04-28T09:11:42.000Z</time><ele>1008.4</ele></trkpt><trkpt lat="45.982662" lon="10.300753"><time>2025-04-28T09:11:43.000Z</time><ele>1008</ele></trkpt><trkpt lat="45.982661" lon="10.300776"><time>2025-04-28T09:11:44.000Z</time><ele>1007.8</ele></trkpt><trkpt lat="45.982662" lon="10.300797"><time>2025-04-28T09:11:45.000Z</time><ele>1007.8</ele></trkpt><trkpt lat="45.982666" lon="10.300826"><time>2025-04-28T09:11:46.000Z</time><ele>1007.4</ele></trkpt><trkpt lat="45.982675" lon="10.300829"><time>2025-04-28T09:11:47.000Z</time><ele>1007.2</ele></trkpt><trkpt lat="45.982679" lon="10.300845"><time>2025-04-28T09:11:48.000Z</time><ele>1007.2</ele></trkpt><trkpt lat="45.982688" lon="10.300869"><time>2025-04-28T09:11:49.000Z</time><ele>1007</ele></trkpt><trkpt lat="45.982696" lon="10.300885"><time>2025-04-28T09:11:50.000Z</time><ele>1007</ele></trkpt><trkpt lat="45.982702" lon="10.300901"><time>2025-04-28T09:11:51.000Z</time><ele>1006.8</ele></trkpt><trkpt lat="45.982709" lon="10.300919"><time>2025-04-28T09:11:52.000Z</time><ele>1006.6</ele></trkpt><trkpt lat="45.98271" lon="10.300943"><time>2025-04-28T09:11:53.000Z</time><ele>1006.4</ele></trkpt><trkpt lat="45.982712" lon="10.300968"><time>2025-04-28T09:11:54.000Z</time><ele>1006.2</ele></trkpt><trkpt lat="45.98271" lon="10.300996"><time>2025-04-28T09:11:55.000Z</time><ele>1006.2</ele></trkpt><trkpt lat="45.982713" lon="10.301021"><time>2025-04-28T09:11:56.000Z</time><ele>1006</ele></trkpt><trkpt lat="45.98272" lon="10.301038"><time>2025-04-28T09:11:57.000Z</time><ele>1005.8</ele></trkpt><trkpt lat="45.982722" lon="10.30106"><time>2025-04-28T09:11:58.000Z</time><ele>1005.6</ele></trkpt><trkpt lat="45.982721" lon="10.301078"><time>2025-04-28T09:11:59.000Z</time><ele>1005.6</ele></trkpt><trkpt lat="45.982725" lon="10.301093"><time>2025-04-28T09:12:00.000Z</time><ele>1005.2</ele></trkpt><trkpt lat="45.982728" lon="10.301116"><time>2025-04-28T09:12:01.000Z</time><ele>1005</ele></trkpt><trkpt lat="45.982734" lon="10.301138"><time>2025-04-28T09:12:02.000Z</time><ele>1004.6</ele></trkpt><trkpt lat="45.982741" lon="10.301159"><time>2025-04-28T09:12:03.000Z</time><ele>1004.4</ele></trkpt><trkpt lat="45.982737" lon="10.301182"><time>2025-04-28T09:12:04.000Z</time><ele>1004.2</ele></trkpt><trkpt lat="45.982731" lon="10.301209"><time>2025-04-28T09:12:05.000Z</time><ele>1004</ele></trkpt><trkpt lat="45.982737" lon="10.301229"><time>2025-04-28T09:12:06.000Z</time><ele>1003.8</ele></trkpt><trkpt lat="45.982747" lon="10.301241"><time>2025-04-28T09:12:07.000Z</time><ele>1003.6</ele></trkpt><trkpt lat="45.982754" lon="10.301249"><time>2025-04-28T09:12:08.000Z</time><ele>1003.4</ele></trkpt><trkpt lat="45.982759" lon="10.30126"><time>2025-04-28T09:12:09.000Z</time><ele>1003.4</ele></trkpt><trkpt lat="45.982761" lon="10.301273"><time>2025-04-28T09:12:10.000Z</time><ele>1003.2</ele></trkpt><trkpt lat="45.98276" lon="10.301291"><time>2025-04-28T09:12:11.000Z</time><ele>1003</ele></trkpt><trkpt lat="45.982757" lon="10.301308"><time>2025-04-28T09:12:12.000Z</time><ele>1002.8</ele></trkpt><trkpt lat="45.982755" lon="10.301331"><time>2025-04-28T09:12:13.000Z</time><ele>1002.4</ele></trkpt><trkpt lat="45.982759" lon="10.301348"><time>2025-04-28T09:12:14.000Z</time><ele>1002.2</ele></trkpt><trkpt lat="45.982763" lon="10.301363"><time>2025-04-28T09:12:15.000Z</time><ele>1002.2</ele></trkpt><trkpt lat="45.982763" lon="10.301383"><time>2025-04-28T09:12:16.000Z</time><ele>1002</ele></trkpt><trkpt lat="45.982774" lon="10.301398"><time>2025-04-28T09:12:17.000Z</time><ele>1001.8</ele></trkpt><trkpt lat="45.982783" lon="10.301409"><time>2025-04-28T09:12:18.000Z</time><ele>1001.6</ele></trkpt><trkpt lat="45.982797" lon="10.301418"><time>2025-04-28T09:12:19.000Z</time><ele>1001.4</ele></trkpt><trkpt lat="45.982801" lon="10.301433"><time>2025-04-28T09:12:20.000Z</time><ele>1001.2</ele></trkpt><trkpt lat="45.982808" lon="10.301447"><time>2025-04-28T09:12:21.000Z</time><ele>1001</ele></trkpt><trkpt lat="45.982814" lon="10.301462"><time>2025-04-28T09:12:22.000Z</time><ele>1000.8</ele></trkpt><trkpt lat="45.982822" lon="10.301474"><time>2025-04-28T09:12:23.000Z</time><ele>1000.6</ele></trkpt><trkpt lat="45.982829" lon="10.301495"><time>2025-04-28T09:12:24.000Z</time><ele>1000.4</ele></trkpt><trkpt lat="45.982831" lon="10.301515"><time>2025-04-28T09:12:25.000Z</time><ele>1000.2</ele></trkpt><trkpt lat="45.982839" lon="10.301527"><time>2025-04-28T09:12:26.000Z</time><ele>1000</ele></trkpt><trkpt lat="45.98285" lon="10.301541"><time>2025-04-28T09:12:27.000Z</time><ele>999.8</ele></trkpt><trkpt lat="45.982856" lon="10.301559"><time>2025-04-28T09:12:28.000Z</time><ele>999.6</ele></trkpt><trkpt lat="45.98286" lon="10.301577"><time>2025-04-28T09:12:29.000Z</time><ele>999.4</ele></trkpt><trkpt lat="45.98287" lon="10.301595"><time>2025-04-28T09:12:30.000Z</time><ele>999.2</ele></trkpt><trkpt lat="45.982879" lon="10.301607"><time>2025-04-28T09:12:31.000Z</time><ele>999</ele></trkpt><trkpt lat="45.982888" lon="10.301615"><time>2025-04-28T09:12:32.000Z</time><ele>998.6</ele></trkpt><trkpt lat="45.982895" lon="10.301624"><time>2025-04-28T09:12:33.000Z</time><ele>998.4</ele></trkpt><trkpt lat="45.982899" lon="10.301633"><time>2025-04-28T09:12:34.000Z</time><ele>998.2</ele></trkpt><trkpt lat="45.982904" lon="10.301639"><time>2025-04-28T09:12:35.000Z</time><ele>998</ele></trkpt><trkpt lat="45.982914" lon="10.301644"><time>2025-04-28T09:12:36.000Z</time><ele>997.8</ele></trkpt><trkpt lat="45.982924" lon="10.301657"><time>2025-04-28T09:12:37.000Z</time><ele>997.6</ele></trkpt><trkpt lat="45.982937" lon="10.301666"><time>2025-04-28T09:12:38.000Z</time><ele>997.4</ele></trkpt><trkpt lat="45.982951" lon="10.301677"><time>2025-04-28T09:12:39.000Z</time><ele>997</ele></trkpt><trkpt lat="45.982962" lon="10.301698"><time>2025-04-28T09:12:40.000Z</time><ele>996.8</ele></trkpt><trkpt lat="45.982971" lon="10.301718"><time>2025-04-28T09:12:41.000Z</time><ele>996.8</ele></trkpt><trkpt lat="45.982981" lon="10.301738"><time>2025-04-28T09:12:42.000Z</time><ele>996.6</ele></trkpt><trkpt lat="45.982989" lon="10.301756"><time>2025-04-28T09:12:43.000Z</time><ele>996.4</ele></trkpt><trkpt lat="45.982993" lon="10.301775"><time>2025-04-28T09:12:44.000Z</time><ele>996</ele></trkpt><trkpt lat="45.982997" lon="10.30179"><time>2025-04-28T09:12:45.000Z</time><ele>995.8</ele></trkpt><trkpt lat="45.983001" lon="10.301809"><time>2025-04-28T09:12:46.000Z</time><ele>995.6</ele></trkpt><trkpt lat="45.983012" lon="10.301827"><time>2025-04-28T09:12:47.000Z</time><ele>995.2</ele></trkpt><trkpt lat="45.983018" lon="10.301851"><time>2025-04-28T09:12:48.000Z</time><ele>995</ele></trkpt><trkpt lat="45.983024" lon="10.301863"><time>2025-04-28T09:12:49.000Z</time><ele>994.6</ele></trkpt><trkpt lat="45.983024" lon="10.301883"><time>2025-04-28T09:12:50.000Z</time><ele>994</ele></trkpt><trkpt lat="45.983031" lon="10.301901"><time>2025-04-28T09:12:51.000Z</time><ele>993.6</ele></trkpt><trkpt lat="45.983039" lon="10.301915"><time>2025-04-28T09:12:52.000Z</time><ele>993.4</ele></trkpt><trkpt lat="45.983044" lon="10.301929"><time>2025-04-28T09:12:53.000Z</time><ele>993.2</ele></trkpt><trkpt lat="45.983052" lon="10.301942"><time>2025-04-28T09:12:54.000Z</time><ele>993</ele></trkpt><trkpt lat="45.98306" lon="10.301953"><time>2025-04-28T09:12:55.000Z</time><ele>992.8</ele></trkpt><trkpt lat="45.983063" lon="10.301971"><time>2025-04-28T09:12:56.000Z</time><ele>992.4</ele></trkpt><trkpt lat="45.983072" lon="10.301986"><time>2025-04-28T09:12:57.000Z</time><ele>992</ele></trkpt><trkpt lat="45.98308" lon="10.302"><time>2025-04-28T09:12:58.000Z</time><ele>991.6</ele></trkpt><trkpt lat="45.983088" lon="10.302014"><time>2025-04-28T09:12:59.000Z</time><ele>991.4</ele></trkpt><trkpt lat="45.983096" lon="10.302024"><time>2025-04-28T09:13:00.000Z</time><ele>991</ele></trkpt><trkpt lat="45.983103" lon="10.302041"><time>2025-04-28T09:13:01.000Z</time><ele>990.8</ele></trkpt><trkpt lat="45.983098" lon="10.302072"><time>2025-04-28T09:13:02.000Z</time><ele>990.6</ele></trkpt><trkpt lat="45.9831" lon="10.302083"><time>2025-04-28T09:13:03.000Z</time><ele>990.4</ele></trkpt><trkpt lat="45.983098" lon="10.302097"><time>2025-04-28T09:13:04.000Z</time><ele>990.4</ele></trkpt><trkpt lat="45.983094" lon="10.302115"><time>2025-04-28T09:13:05.000Z</time><ele>990.2</ele></trkpt><trkpt lat="45.983095" lon="10.302129"><time>2025-04-28T09:13:06.000Z</time><ele>990</ele></trkpt><trkpt lat="45.983098" lon="10.302149"><time>2025-04-28T09:13:07.000Z</time><ele>990</ele></trkpt><trkpt lat="45.9831" lon="10.302174"><time>2025-04-28T09:13:08.000Z</time><ele>989.6</ele></trkpt><trkpt lat="45.983092" lon="10.302211"><time>2025-04-28T09:13:09.000Z</time><ele>989.4</ele></trkpt><trkpt lat="45.983083" lon="10.302247"><time>2025-04-28T09:13:10.000Z</time><ele>989</ele></trkpt><trkpt lat="45.983084" lon="10.302265"><time>2025-04-28T09:13:11.000Z</time><ele>988.6</ele></trkpt><trkpt lat="45.983083" lon="10.302282"><time>2025-04-28T09:13:12.000Z</time><ele>988.4</ele></trkpt><trkpt lat="45.983076" lon="10.302301"><time>2025-04-28T09:13:13.000Z</time><ele>988.4</ele></trkpt><trkpt lat="45.983072" lon="10.302324"><time>2025-04-28T09:13:14.000Z</time><ele>988.2</ele></trkpt><trkpt lat="45.983071" lon="10.302341"><time>2025-04-28T09:13:15.000Z</time><ele>988</ele></trkpt><trkpt lat="45.983074" lon="10.302347"><time>2025-04-28T09:13:16.000Z</time><ele>988</ele></trkpt><trkpt lat="45.983069" lon="10.302354"><time>2025-04-28T09:13:17.000Z</time><ele>988</ele></trkpt><trkpt lat="45.983064" lon="10.302359"><time>2025-04-28T09:13:18.000Z</time><ele>987.8</ele></trkpt><trkpt lat="45.983059" lon="10.302361"><time>2025-04-28T09:13:19.000Z</time><ele>987.6</ele></trkpt><trkpt lat="45.983061" lon="10.302359"><time>2025-04-28T09:13:20.000Z</time><ele>987.2</ele></trkpt><trkpt lat="45.983056" lon="10.302366"><time>2025-04-28T09:13:21.000Z</time><ele>986.8</ele></trkpt><trkpt lat="45.983044" lon="10.30239"><time>2025-04-28T09:13:22.000Z</time><ele>986.6</ele></trkpt><trkpt lat="45.983028" lon="10.30241"><time>2025-04-28T09:13:23.000Z</time><ele>986.4</ele></trkpt><trkpt lat="45.983025" lon="10.302424"><time>2025-04-28T09:13:24.000Z</time><ele>986.4</ele></trkpt><trkpt lat="45.983022" lon="10.302439"><time>2025-04-28T09:13:25.000Z</time><ele>986.2</ele></trkpt><trkpt lat="45.983017" lon="10.30245"><time>2025-04-28T09:13:26.000Z</time><ele>985.8</ele></trkpt><trkpt lat="45.98301" lon="10.30246"><time>2025-04-28T09:13:27.000Z</time><ele>985.6</ele></trkpt><trkpt lat="45.983003" lon="10.302472"><time>2025-04-28T09:13:28.000Z</time><ele>985.2</ele></trkpt><trkpt lat="45.982996" lon="10.302481"><time>2025-04-28T09:13:29.000Z</time><ele>985.2</ele></trkpt><trkpt lat="45.982987" lon="10.302492"><time>2025-04-28T09:13:30.000Z</time><ele>985</ele></trkpt><trkpt lat="45.982971" lon="10.302492"><time>2025-04-28T09:13:31.000Z</time><ele>984.8</ele></trkpt><trkpt lat="45.982949" lon="10.302504"><time>2025-04-28T09:13:32.000Z</time><ele>984.6</ele></trkpt><trkpt lat="45.982935" lon="10.30251"><time>2025-04-28T09:13:33.000Z</time><ele>984.4</ele></trkpt><trkpt lat="45.982931" lon="10.302515"><time>2025-04-28T09:13:34.000Z</time><ele>984</ele></trkpt><trkpt lat="45.982923" lon="10.302506"><time>2025-04-28T09:13:35.000Z</time><ele>983.8</ele></trkpt><trkpt lat="45.98291" lon="10.302498"><time>2025-04-28T09:13:36.000Z</time><ele>983.4</ele></trkpt><trkpt lat="45.982907" lon="10.302481"><time>2025-04-28T09:13:37.000Z</time><ele>983.2</ele></trkpt><trkpt lat="45.9829" lon="10.302467"><time>2025-04-28T09:13:38.000Z</time><ele>983</ele></trkpt><trkpt lat="45.982891" lon="10.302453"><time>2025-04-28T09:13:39.000Z</time><ele>982.8</ele></trkpt><trkpt lat="45.982889" lon="10.302434"><time>2025-04-28T09:13:40.000Z</time><ele>982.6</ele></trkpt><trkpt lat="45.982883" lon="10.302422"><time>2025-04-28T09:13:41.000Z</time><ele>982.4</ele></trkpt><trkpt lat="45.982877" lon="10.302421"><time>2025-04-28T09:13:42.000Z</time><ele>982</ele></trkpt><trkpt lat="45.982869" lon="10.302427"><time>2025-04-28T09:13:43.000Z</time><ele>981.8</ele></trkpt><trkpt lat="45.98286" lon="10.302422"><time>2025-04-28T09:13:44.000Z</time><ele>981.4</ele></trkpt><trkpt lat="45.982845" lon="10.302428"><time>2025-04-28T09:13:45.000Z</time><ele>981.2</ele></trkpt><trkpt lat="45.982831" lon="10.30244"><time>2025-04-28T09:13:46.000Z</time><ele>980.8</ele></trkpt><trkpt lat="45.982821" lon="10.30245"><time>2025-04-28T09:13:47.000Z</time><ele>980.6</ele></trkpt><trkpt lat="45.982814" lon="10.302464"><time>2025-04-28T09:13:48.000Z</time><ele>980.2</ele></trkpt><trkpt lat="45.982809" lon="10.302478"><time>2025-04-28T09:13:49.000Z</time><ele>980</ele></trkpt><trkpt lat="45.982804" lon="10.302492"><time>2025-04-28T09:13:50.000Z</time><ele>979.8</ele></trkpt><trkpt lat="45.982797" lon="10.302504"><time>2025-04-28T09:13:51.000Z</time><ele>979.4</ele></trkpt><trkpt lat="45.982789" lon="10.302513"><time>2025-04-28T09:13:52.000Z</time><ele>979</ele></trkpt><trkpt lat="45.982786" lon="10.302531"><time>2025-04-28T09:13:53.000Z</time><ele>978.6</ele></trkpt><trkpt lat="45.982787" lon="10.302551"><time>2025-04-28T09:13:54.000Z</time><ele>978.2</ele></trkpt><trkpt lat="45.982792" lon="10.302573"><time>2025-04-28T09:13:55.000Z</time><ele>977.8</ele></trkpt><trkpt lat="45.982795" lon="10.302597"><time>2025-04-28T09:13:56.000Z</time><ele>977.6</ele></trkpt><trkpt lat="45.982794" lon="10.30262"><time>2025-04-28T09:13:57.000Z</time><ele>977</ele></trkpt><trkpt lat="45.982789" lon="10.302644"><time>2025-04-28T09:13:58.000Z</time><ele>976.8</ele></trkpt><trkpt lat="45.982785" lon="10.302663"><time>2025-04-28T09:13:59.000Z</time><ele>976.4</ele></trkpt><trkpt lat="45.982785" lon="10.302681"><time>2025-04-28T09:14:00.000Z</time><ele>976</ele></trkpt><trkpt lat="45.982785" lon="10.302693"><time>2025-04-28T09:14:01.000Z</time><ele>975.8</ele></trkpt><trkpt lat="45.98279" lon="10.3027"><time>2025-04-28T09:14:02.000Z</time><ele>975.6</ele></trkpt><trkpt lat="45.982785" lon="10.302725"><time>2025-04-28T09:14:03.000Z</time><ele>975.4</ele></trkpt><trkpt lat="45.982782" lon="10.302755"><time>2025-04-28T09:14:04.000Z</time><ele>975</ele></trkpt><trkpt lat="45.982771" lon="10.302791"><time>2025-04-28T09:14:05.000Z</time><ele>974.8</ele></trkpt><trkpt lat="45.982774" lon="10.302813"><time>2025-04-28T09:14:06.000Z</time><ele>974.8</ele></trkpt><trkpt lat="45.982777" lon="10.302815"><time>2025-04-28T09:14:07.000Z</time><ele>974.6</ele></trkpt><trkpt lat="45.982776" lon="10.302827"><time>2025-04-28T09:14:08.000Z</time><ele>974.4</ele></trkpt><trkpt lat="45.982779" lon="10.302846"><time>2025-04-28T09:14:09.000Z</time><ele>974.2</ele></trkpt><trkpt lat="45.982778" lon="10.302863"><time>2025-04-28T09:14:10.000Z</time><ele>974</ele></trkpt><trkpt lat="45.982774" lon="10.302878"><time>2025-04-28T09:14:11.000Z</time><ele>973.8</ele></trkpt><trkpt lat="45.982773" lon="10.302891"><time>2025-04-28T09:14:12.000Z</time><ele>973.6</ele></trkpt><trkpt lat="45.982772" lon="10.302904"><time>2025-04-28T09:14:13.000Z</time><ele>973.2</ele></trkpt><trkpt lat="45.982769" lon="10.302919"><time>2025-04-28T09:14:14.000Z</time><ele>973</ele></trkpt><trkpt lat="45.982774" lon="10.302927"><time>2025-04-28T09:14:15.000Z</time><ele>972.8</ele></trkpt><trkpt lat="45.982778" lon="10.302935"><time>2025-04-28T09:14:16.000Z</time><ele>972.6</ele></trkpt><trkpt lat="45.982781" lon="10.302947"><time>2025-04-28T09:14:17.000Z</time><ele>972.4</ele></trkpt><trkpt lat="45.982779" lon="10.302961"><time>2025-04-28T09:14:18.000Z</time><ele>972.2</ele></trkpt><trkpt lat="45.982766" lon="10.30297"><time>2025-04-28T09:14:19.000Z</time><ele>972</ele></trkpt><trkpt lat="45.982766" lon="10.302991"><time>2025-04-28T09:14:20.000Z</time><ele>971.6</ele></trkpt><trkpt lat="45.982768" lon="10.303011"><time>2025-04-28T09:14:21.000Z</time><ele>971.4</ele></trkpt><trkpt lat="45.982772" lon="10.303021"><time>2025-04-28T09:14:22.000Z</time><ele>971</ele></trkpt><trkpt lat="45.982772" lon="10.303033"><time>2025-04-28T09:14:23.000Z</time><ele>970.8</ele></trkpt><trkpt lat="45.982765" lon="10.303046"><time>2025-04-28T09:14:24.000Z</time><ele>970.6</ele></trkpt><trkpt lat="45.982759" lon="10.303059"><time>2025-04-28T09:14:25.000Z</time><ele>970.2</ele></trkpt><trkpt lat="45.982755" lon="10.303084"><time>2025-04-28T09:14:26.000Z</time><ele>969.8</ele></trkpt><trkpt lat="45.982755" lon="10.303108"><time>2025-04-28T09:14:27.000Z</time><ele>969.6</ele></trkpt><trkpt lat="45.982757" lon="10.303133"><time>2025-04-28T09:14:28.000Z</time><ele>969.2</ele></trkpt><trkpt lat="45.982757" lon="10.30316"><time>2025-04-28T09:14:29.000Z</time><ele>969</ele></trkpt><trkpt lat="45.98276" lon="10.303185"><time>2025-04-28T09:14:30.000Z</time><ele>968.8</ele></trkpt><trkpt lat="45.982762" lon="10.303204"><time>2025-04-28T09:14:31.000Z</time><ele>968.4</ele></trkpt><trkpt lat="45.982764" lon="10.303221"><time>2025-04-28T09:14:32.000Z</time><ele>968.2</ele></trkpt><trkpt lat="45.982768" lon="10.303236"><time>2025-04-28T09:14:33.000Z</time><ele>968.2</ele></trkpt><trkpt lat="45.982773" lon="10.303245"><time>2025-04-28T09:14:34.000Z</time><ele>968</ele></trkpt><trkpt lat="45.982774" lon="10.303266"><time>2025-04-28T09:14:35.000Z</time><ele>967.8</ele></trkpt><trkpt lat="45.982773" lon="10.303286"><time>2025-04-28T09:14:36.000Z</time><ele>967.4</ele></trkpt><trkpt lat="45.982771" lon="10.303305"><time>2025-04-28T09:14:37.000Z</time><ele>967.2</ele></trkpt><trkpt lat="45.982778" lon="10.303324"><time>2025-04-28T09:14:38.000Z</time><ele>967</ele></trkpt><trkpt lat="45.982784" lon="10.303332"><time>2025-04-28T09:14:39.000Z</time><ele>966.8</ele></trkpt><trkpt lat="45.982785" lon="10.303348"><time>2025-04-28T09:14:40.000Z</time><ele>966.4</ele></trkpt><trkpt lat="45.982789" lon="10.303369"><time>2025-04-28T09:14:41.000Z</time><ele>966</ele></trkpt><trkpt lat="45.982791" lon="10.303389"><time>2025-04-28T09:14:42.000Z</time><ele>965.8</ele></trkpt><trkpt lat="45.982794" lon="10.303411"><time>2025-04-28T09:14:43.000Z</time><ele>965.6</ele></trkpt><trkpt lat="45.982797" lon="10.30343"><time>2025-04-28T09:14:44.000Z</time><ele>965.2</ele></trkpt><trkpt lat="45.982801" lon="10.30345"><time>2025-04-28T09:14:45.000Z</time><ele>965</ele></trkpt><trkpt lat="45.982807" lon="10.303473"><time>2025-04-28T09:14:46.000Z</time><ele>964.8</ele></trkpt><trkpt lat="45.982811" lon="10.303495"><time>2025-04-28T09:14:47.000Z</time><ele>964.8</ele></trkpt><trkpt lat="45.982817" lon="10.303516"><time>2025-04-28T09:14:48.000Z</time><ele>964.4</ele></trkpt><trkpt lat="45.982822" lon="10.303538"><time>2025-04-28T09:14:49.000Z</time><ele>964.2</ele></trkpt><trkpt lat="45.982826" lon="10.303558"><time>2025-04-28T09:14:50.000Z</time><ele>964</ele></trkpt><trkpt lat="45.982826" lon="10.303577"><time>2025-04-28T09:14:51.000Z</time><ele>963.6</ele></trkpt><trkpt lat="45.982826" lon="10.303595"><time>2025-04-28T09:14:52.000Z</time><ele>963.4</ele></trkpt><trkpt lat="45.982825" lon="10.303614"><time>2025-04-28T09:14:53.000Z</time><ele>963.4</ele></trkpt><trkpt lat="45.982825" lon="10.303635"><time>2025-04-28T09:14:54.000Z</time><ele>963</ele></trkpt><trkpt lat="45.982825" lon="10.303656"><time>2025-04-28T09:14:55.000Z</time><ele>962.8</ele></trkpt><trkpt lat="45.98283" lon="10.303676"><time>2025-04-28T09:14:56.000Z</time><ele>962.6</ele></trkpt><trkpt lat="45.982834" lon="10.303696"><time>2025-04-28T09:14:57.000Z</time><ele>962.4</ele></trkpt><trkpt lat="45.982837" lon="10.303719"><time>2025-04-28T09:14:58.000Z</time><ele>962.2</ele></trkpt><trkpt lat="45.98284" lon="10.303736"><time>2025-04-28T09:14:59.000Z</time><ele>961.8</ele></trkpt><trkpt lat="45.982845" lon="10.30375"><time>2025-04-28T09:15:00.000Z</time><ele>961.6</ele></trkpt><trkpt lat="45.982853" lon="10.303762"><time>2025-04-28T09:15:01.000Z</time><ele>961.4</ele></trkpt><trkpt lat="45.982862" lon="10.303776"><time>2025-04-28T09:15:02.000Z</time><ele>961.2</ele></trkpt><trkpt lat="45.982869" lon="10.303791"><time>2025-04-28T09:15:03.000Z</time><ele>960.8</ele></trkpt><trkpt lat="45.982874" lon="10.303808"><time>2025-04-28T09:15:04.000Z</time><ele>960.6</ele></trkpt><trkpt lat="45.982884" lon="10.303825"><time>2025-04-28T09:15:05.000Z</time><ele>960.4</ele></trkpt><trkpt lat="45.982892" lon="10.303838"><time>2025-04-28T09:15:06.000Z</time><ele>960.2</ele></trkpt><trkpt lat="45.982902" lon="10.303848"><time>2025-04-28T09:15:07.000Z</time><ele>960.2</ele></trkpt><trkpt lat="45.982907" lon="10.303864"><time>2025-04-28T09:15:08.000Z</time><ele>960</ele></trkpt><trkpt lat="45.982913" lon="10.303885"><time>2025-04-28T09:15:09.000Z</time><ele>959.8</ele></trkpt><trkpt lat="45.982917" lon="10.303906"><time>2025-04-28T09:15:10.000Z</time><ele>959.6</ele></trkpt><trkpt lat="45.982918" lon="10.303926"><time>2025-04-28T09:15:11.000Z</time><ele>959.4</ele></trkpt><trkpt lat="45.982921" lon="10.303948"><time>2025-04-28T09:15:12.000Z</time><ele>959.2</ele></trkpt><trkpt lat="45.98293" lon="10.303975"><time>2025-04-28T09:15:13.000Z</time><ele>959</ele></trkpt><trkpt lat="45.982934" lon="10.304"><time>2025-04-28T09:15:14.000Z</time><ele>958.6</ele></trkpt><trkpt lat="45.98294" lon="10.304019"><time>2025-04-28T09:15:15.000Z</time><ele>958.4</ele></trkpt><trkpt lat="45.982952" lon="10.304038"><time>2025-04-28T09:15:16.000Z</time><ele>958.2</ele></trkpt><trkpt lat="45.982964" lon="10.304055"><time>2025-04-28T09:15:17.000Z</time><ele>958</ele></trkpt><trkpt lat="45.982972" lon="10.304069"><time>2025-04-28T09:15:18.000Z</time><ele>957.8</ele></trkpt><trkpt lat="45.982976" lon="10.304078"><time>2025-04-28T09:15:19.000Z</time><ele>957.4</ele></trkpt><trkpt lat="45.982986" lon="10.304093"><time>2025-04-28T09:15:20.000Z</time><ele>957.2</ele></trkpt><trkpt lat="45.982991" lon="10.304117"><time>2025-04-28T09:15:21.000Z</time><ele>957</ele></trkpt><trkpt lat="45.982997" lon="10.304135"><time>2025-04-28T09:15:22.000Z</time><ele>956.6</ele></trkpt><trkpt lat="45.983003" lon="10.304149"><time>2025-04-28T09:15:23.000Z</time><ele>956.4</ele></trkpt><trkpt lat="45.983008" lon="10.30416"><time>2025-04-28T09:15:24.000Z</time><ele>956</ele></trkpt><trkpt lat="45.983006" lon="10.304168"><time>2025-04-28T09:15:25.000Z</time><ele>955.8</ele></trkpt><trkpt lat="45.983003" lon="10.304181"><time>2025-04-28T09:15:26.000Z</time><ele>955.6</ele></trkpt><trkpt lat="45.982996" lon="10.304191"><time>2025-04-28T09:15:27.000Z</time><ele>955.2</ele></trkpt><trkpt lat="45.98299" lon="10.304195"><time>2025-04-28T09:15:28.000Z</time><ele>955</ele></trkpt><trkpt lat="45.982994" lon="10.30421"><time>2025-04-28T09:15:29.000Z</time><ele>954.8</ele></trkpt><trkpt lat="45.983004" lon="10.30423"><time>2025-04-28T09:15:30.000Z</time><ele>954.8</ele></trkpt><trkpt lat="45.983017" lon="10.304248"><time>2025-04-28T09:15:31.000Z</time><ele>954.6</ele></trkpt><trkpt lat="45.983029" lon="10.304273"><time>2025-04-28T09:15:32.000Z</time><ele>954.4</ele></trkpt><trkpt lat="45.983039" lon="10.304291"><time>2025-04-28T09:15:33.000Z</time><ele>954.4</ele></trkpt><trkpt lat="45.983053" lon="10.304307"><time>2025-04-28T09:15:34.000Z</time><ele>954</ele></trkpt><trkpt lat="45.983064" lon="10.30432"><time>2025-04-28T09:15:35.000Z</time><ele>953.8</ele></trkpt><trkpt lat="45.98307" lon="10.304338"><time>2025-04-28T09:15:36.000Z</time><ele>953.8</ele></trkpt><trkpt lat="45.983075" lon="10.304356"><time>2025-04-28T09:15:37.000Z</time><ele>953.6</ele></trkpt><trkpt lat="45.98308" lon="10.304371"><time>2025-04-28T09:15:38.000Z</time><ele>953.4</ele></trkpt><trkpt lat="45.983086" lon="10.30439"><time>2025-04-28T09:15:39.000Z</time><ele>953.2</ele></trkpt><trkpt lat="45.983091" lon="10.304413"><time>2025-04-28T09:15:40.000Z</time><ele>953.2</ele></trkpt><trkpt lat="45.983099" lon="10.304433"><time>2025-04-28T09:15:41.000Z</time><ele>953</ele></trkpt><trkpt lat="45.983108" lon="10.304454"><time>2025-04-28T09:15:42.000Z</time><ele>952.8</ele></trkpt><trkpt lat="45.983119" lon="10.304469"><time>2025-04-28T09:15:43.000Z</time><ele>952.6</ele></trkpt><trkpt lat="45.983134" lon="10.304483"><time>2025-04-28T09:15:44.000Z</time><ele>952.4</ele></trkpt><trkpt lat="45.98315" lon="10.304495"><time>2025-04-28T09:15:45.000Z</time><ele>952.4</ele></trkpt><trkpt lat="45.983165" lon="10.304499"><time>2025-04-28T09:15:46.000Z</time><ele>952.2</ele></trkpt><trkpt lat="45.983182" lon="10.304501"><time>2025-04-28T09:15:47.000Z</time><ele>952</ele></trkpt><trkpt lat="45.983193" lon="10.304511"><time>2025-04-28T09:15:48.000Z</time><ele>951.8</ele></trkpt><trkpt lat="45.983205" lon="10.304525"><time>2025-04-28T09:15:49.000Z</time><ele>951.6</ele></trkpt><trkpt lat="45.983217" lon="10.304541"><time>2025-04-28T09:15:50.000Z</time><ele>951.4</ele></trkpt><trkpt lat="45.983231" lon="10.304558"><time>2025-04-28T09:15:51.000Z</time><ele>951.2</ele></trkpt><trkpt lat="45.983245" lon="10.304572"><time>2025-04-28T09:15:52.000Z</time><ele>951</ele></trkpt><trkpt lat="45.983265" lon="10.304576"><time>2025-04-28T09:15:53.000Z</time><ele>951</ele></trkpt><trkpt lat="45.983288" lon="10.304587"><time>2025-04-28T09:15:54.000Z</time><ele>951</ele></trkpt><trkpt lat="45.983312" lon="10.3046"><time>2025-04-28T09:15:55.000Z</time><ele>950.6</ele></trkpt><trkpt lat="45.983332" lon="10.304607"><time>2025-04-28T09:15:56.000Z</time><ele>950.4</ele></trkpt><trkpt lat="45.983347" lon="10.304618"><time>2025-04-28T09:15:57.000Z</time><ele>950</ele></trkpt><trkpt lat="45.983363" lon="10.304629"><time>2025-04-28T09:15:58.000Z</time><ele>949.8</ele></trkpt><trkpt lat="45.983374" lon="10.304632"><time>2025-04-28T09:15:59.000Z</time><ele>949.6</ele></trkpt><trkpt lat="45.983386" lon="10.30463"><time>2025-04-28T09:16:00.000Z</time><ele>949.6</ele></trkpt><trkpt lat="45.983402" lon="10.304627"><time>2025-04-28T09:16:01.000Z</time><ele>949.4</ele></trkpt><trkpt lat="45.983417" lon="10.304622"><time>2025-04-28T09:16:02.000Z</time><ele>949.4</ele></trkpt><trkpt lat="45.983439" lon="10.304625"><time>2025-04-28T09:16:03.000Z</time><ele>949.2</ele></trkpt><trkpt lat="45.98346" lon="10.304633"><time>2025-04-28T09:16:04.000Z</time><ele>949</ele></trkpt><trkpt lat="45.983478" lon="10.304643"><time>2025-04-28T09:16:05.000Z</time><ele>949</ele></trkpt><trkpt lat="45.983495" lon="10.304652"><time>2025-04-28T09:16:06.000Z</time><ele>948.8</ele></trkpt><trkpt lat="45.983511" lon="10.304652"><time>2025-04-28T09:16:07.000Z</time><ele>948.6</ele></trkpt><trkpt lat="45.983527" lon="10.304656"><time>2025-04-28T09:16:08.000Z</time><ele>948.4</ele></trkpt><trkpt lat="45.983549" lon="10.304651"><time>2025-04-28T09:16:09.000Z</time><ele>948.2</ele></trkpt><trkpt lat="45.983569" lon="10.304642"><time>2025-04-28T09:16:10.000Z</time><ele>948</ele></trkpt><trkpt lat="45.983586" lon="10.304634"><time>2025-04-28T09:16:11.000Z</time><ele>948</ele></trkpt><trkpt lat="45.983598" lon="10.304633"><time>2025-04-28T09:16:12.000Z</time><ele>947.8</ele></trkpt><trkpt lat="45.983609" lon="10.304633"><time>2025-04-28T09:16:13.000Z</time><ele>947.6</ele></trkpt><trkpt lat="45.983619" lon="10.304639"><time>2025-04-28T09:16:14.000Z</time><ele>947.6</ele></trkpt><trkpt lat="45.983628" lon="10.30465"><time>2025-04-28T09:16:15.000Z</time><ele>947.2</ele></trkpt><trkpt lat="45.983643" lon="10.304656"><time>2025-04-28T09:16:16.000Z</time><ele>947</ele></trkpt><trkpt lat="45.98366" lon="10.304659"><time>2025-04-28T09:16:17.000Z</time><ele>946.8</ele></trkpt><trkpt lat="45.983676" lon="10.30466"><time>2025-04-28T09:16:18.000Z</time><ele>946.6</ele></trkpt><trkpt lat="45.98369" lon="10.30466"><time>2025-04-28T09:16:19.000Z</time><ele>946.4</ele></trkpt><trkpt lat="45.983703" lon="10.304662"><time>2025-04-28T09:16:20.000Z</time><ele>946.2</ele></trkpt><trkpt lat="45.983714" lon="10.304665"><time>2025-04-28T09:16:21.000Z</time><ele>946</ele></trkpt><trkpt lat="45.983721" lon="10.30467"><time>2025-04-28T09:16:22.000Z</time><ele>945.8</ele></trkpt><trkpt lat="45.983731" lon="10.30467"><time>2025-04-28T09:16:23.000Z</time><ele>945.6</ele></trkpt><trkpt lat="45.983738" lon="10.304666"><time>2025-04-28T09:16:24.000Z</time><ele>945.6</ele></trkpt><trkpt lat="45.983752" lon="10.304661"><time>2025-04-28T09:16:25.000Z</time><ele>945.2</ele></trkpt><trkpt lat="45.983765" lon="10.304661"><time>2025-04-28T09:16:26.000Z</time><ele>945</ele></trkpt><trkpt lat="45.983781" lon="10.304658"><time>2025-04-28T09:16:27.000Z</time><ele>944.8</ele></trkpt><trkpt lat="45.983795" lon="10.304654"><time>2025-04-28T09:16:28.000Z</time><ele>944.6</ele></trkpt><trkpt lat="45.98382" lon="10.304649"><time>2025-04-28T09:16:29.000Z</time><ele>944.4</ele></trkpt><trkpt lat="45.983839" lon="10.304645"><time>2025-04-28T09:16:30.000Z</time><ele>944.4</ele></trkpt><trkpt lat="45.983858" lon="10.304644"><time>2025-04-28T09:16:31.000Z</time><ele>944.2</ele></trkpt><trkpt lat="45.983875" lon="10.304646"><time>2025-04-28T09:16:32.000Z</time><ele>944.2</ele></trkpt><trkpt lat="45.983894" lon="10.304644"><time>2025-04-28T09:16:33.000Z</time><ele>944</ele></trkpt><trkpt lat="45.983909" lon="10.304644"><time>2025-04-28T09:16:34.000Z</time><ele>944</ele></trkpt><trkpt lat="45.983921" lon="10.304649"><time>2025-04-28T09:16:35.000Z</time><ele>943.8</ele></trkpt><trkpt lat="45.983934" lon="10.304656"><time>2025-04-28T09:16:36.000Z</time><ele>943.6</ele></trkpt><trkpt lat="45.983946" lon="10.304661"><time>2025-04-28T09:16:37.000Z</time><ele>943.6</ele></trkpt><trkpt lat="45.983958" lon="10.304673"><time>2025-04-28T09:16:38.000Z</time><ele>943.4</ele></trkpt><trkpt lat="45.983974" lon="10.304687"><time>2025-04-28T09:16:39.000Z</time><ele>943.4</ele></trkpt><trkpt lat="45.983991" lon="10.304698"><time>2025-04-28T09:16:40.000Z</time><ele>943</ele></trkpt><trkpt lat="45.984002" lon="10.304703"><time>2025-04-28T09:16:41.000Z</time><ele>942.8</ele></trkpt><trkpt lat="45.984015" lon="10.304705"><time>2025-04-28T09:16:42.000Z</time><ele>942.8</ele></trkpt><trkpt lat="45.984034" lon="10.304696"><time>2025-04-28T09:16:43.000Z</time><ele>942.6</ele></trkpt><trkpt lat="45.984047" lon="10.304695"><time>2025-04-28T09:16:44.000Z</time><ele>942.6</ele></trkpt><trkpt lat="45.98406" lon="10.304694"><time>2025-04-28T09:16:45.000Z</time><ele>942.4</ele></trkpt><trkpt lat="45.984072" lon="10.304702"><time>2025-04-28T09:16:46.000Z</time><ele>942.4</ele></trkpt><trkpt lat="45.984087" lon="10.304713"><time>2025-04-28T09:16:47.000Z</time><ele>942.4</ele></trkpt><trkpt lat="45.984101" lon="10.304718"><time>2025-04-28T09:16:48.000Z</time><ele>942.4</ele></trkpt><trkpt lat="45.984113" lon="10.304718"><time>2025-04-28T09:16:49.000Z</time><ele>942.2</ele></trkpt><trkpt lat="45.984127" lon="10.304712"><time>2025-04-28T09:16:50.000Z</time><ele>942.2</ele></trkpt><trkpt lat="45.98414" lon="10.304703"><time>2025-04-28T09:16:51.000Z</time><ele>942</ele></trkpt><trkpt lat="45.984155" lon="10.304696"><time>2025-04-28T09:16:52.000Z</time><ele>942</ele></trkpt><trkpt lat="45.984174" lon="10.304692"><time>2025-04-28T09:16:53.000Z</time><ele>942</ele></trkpt><trkpt lat="45.984188" lon="10.304702"><time>2025-04-28T09:16:54.000Z</time><ele>941.8</ele></trkpt><trkpt lat="45.984203" lon="10.304713"><time>2025-04-28T09:16:55.000Z</time><ele>941.6</ele></trkpt><trkpt lat="45.984216" lon="10.304726"><time>2025-04-28T09:16:56.000Z</time><ele>941.6</ele></trkpt><trkpt lat="45.984227" lon="10.304733"><time>2025-04-28T09:16:57.000Z</time><ele>941.6</ele></trkpt><trkpt lat="45.984236" lon="10.304746"><time>2025-04-28T09:16:58.000Z</time><ele>941.6</ele></trkpt><trkpt lat="45.984251" lon="10.304755"><time>2025-04-28T09:16:59.000Z</time><ele>941.4</ele></trkpt><trkpt lat="45.984265" lon="10.304761"><time>2025-04-28T09:17:00.000Z</time><ele>941.4</ele></trkpt><trkpt lat="45.984274" lon="10.304765"><time>2025-04-28T09:17:01.000Z</time><ele>941.4</ele></trkpt><trkpt lat="45.984287" lon="10.304767"><time>2025-04-28T09:17:02.000Z</time><ele>941.4</ele></trkpt><trkpt lat="45.9843" lon="10.304769"><time>2025-04-28T09:17:03.000Z</time><ele>941.4</ele></trkpt><trkpt lat="45.984311" lon="10.304775"><time>2025-04-28T09:17:04.000Z</time><ele>941.4</ele></trkpt><trkpt lat="45.984324" lon="10.304775"><time>2025-04-28T09:17:05.000Z</time><ele>941.2</ele></trkpt><trkpt lat="45.984337" lon="10.304781"><time>2025-04-28T09:17:06.000Z</time><ele>941.2</ele></trkpt><trkpt lat="45.984348" lon="10.304783"><time>2025-04-28T09:17:07.000Z</time><ele>941.2</ele></trkpt><trkpt lat="45.984359" lon="10.304784"><time>2025-04-28T09:17:08.000Z</time><ele>941.2</ele></trkpt><trkpt lat="45.984372" lon="10.304781"><time>2025-04-28T09:17:09.000Z</time><ele>941.2</ele></trkpt><trkpt lat="45.984383" lon="10.304782"><time>2025-04-28T09:17:10.000Z</time><ele>941.2</ele></trkpt><trkpt lat="45.984398" lon="10.304783"><time>2025-04-28T09:17:11.000Z</time><ele>941.2</ele></trkpt><trkpt lat="45.984412" lon="10.304779"><time>2025-04-28T09:17:12.000Z</time><ele>941</ele></trkpt><trkpt lat="45.984426" lon="10.304775"><time>2025-04-28T09:17:13.000Z</time><ele>941</ele></trkpt><trkpt lat="45.984443" lon="10.304771"><time>2025-04-28T09:17:14.000Z</time><ele>940.8</ele></trkpt><trkpt lat="45.984458" lon="10.304764"><time>2025-04-28T09:17:15.000Z</time><ele>940.8</ele></trkpt><trkpt lat="45.984471" lon="10.304756"><time>2025-04-28T09:17:16.000Z</time><ele>940.8</ele></trkpt><trkpt lat="45.98448" lon="10.304744"><time>2025-04-28T09:17:17.000Z</time><ele>940.6</ele></trkpt><trkpt lat="45.984488" lon="10.304731"><time>2025-04-28T09:17:18.000Z</time><ele>940.4</ele></trkpt><trkpt lat="45.984499" lon="10.304712"><time>2025-04-28T09:17:19.000Z</time><ele>940.2</ele></trkpt><trkpt lat="45.984508" lon="10.304694"><time>2025-04-28T09:17:20.000Z</time><ele>940</ele></trkpt><trkpt lat="45.984516" lon="10.304675"><time>2025-04-28T09:17:21.000Z</time><ele>939.8</ele></trkpt><trkpt lat="45.984527" lon="10.304654"><time>2025-04-28T09:17:22.000Z</time><ele>939.4</ele></trkpt><trkpt lat="45.984539" lon="10.304625"><time>2025-04-28T09:17:23.000Z</time><ele>939.2</ele></trkpt><trkpt lat="45.984549" lon="10.304603"><time>2025-04-28T09:17:24.000Z</time><ele>939</ele></trkpt><trkpt lat="45.984557" lon="10.304584"><time>2025-04-28T09:17:25.000Z</time><ele>938.8</ele></trkpt><trkpt lat="45.98456" lon="10.304564"><time>2025-04-28T09:17:26.000Z</time><ele>938.6</ele></trkpt><trkpt lat="45.98456" lon="10.304545"><time>2025-04-28T09:17:27.000Z</time><ele>938.4</ele></trkpt><trkpt lat="45.984557" lon="10.304528"><time>2025-04-28T09:17:28.000Z</time><ele>938.4</ele></trkpt><trkpt lat="45.984559" lon="10.304511"><time>2025-04-28T09:17:29.000Z</time><ele>938.2</ele></trkpt><trkpt lat="45.984565" lon="10.304495"><time>2025-04-28T09:17:30.000Z</time><ele>938</ele></trkpt><trkpt lat="45.984571" lon="10.304478"><time>2025-04-28T09:17:31.000Z</time><ele>937.8</ele></trkpt><trkpt lat="45.984574" lon="10.304461"><time>2025-04-28T09:17:32.000Z</time><ele>937.4</ele></trkpt><trkpt lat="45.984579" lon="10.304441"><time>2025-04-28T09:17:33.000Z</time><ele>937.2</ele></trkpt><trkpt lat="45.984586" lon="10.304426"><time>2025-04-28T09:17:34.000Z</time><ele>937</ele></trkpt><trkpt lat="45.984593" lon="10.304415"><time>2025-04-28T09:17:35.000Z</time><ele>936.8</ele></trkpt><trkpt lat="45.984605" lon="10.304403"><time>2025-04-28T09:17:36.000Z</time><ele>936.6</ele></trkpt><trkpt lat="45.984614" lon="10.304394"><time>2025-04-28T09:17:37.000Z</time><ele>936.2</ele></trkpt><trkpt lat="45.984625" lon="10.304378"><time>2025-04-28T09:17:38.000Z</time><ele>936</ele></trkpt><trkpt lat="45.984633" lon="10.304361"><time>2025-04-28T09:17:39.000Z</time><ele>935.8</ele></trkpt><trkpt lat="45.984643" lon="10.304345"><time>2025-04-28T09:17:40.000Z</time><ele>935.6</ele></trkpt><trkpt lat="45.98465" lon="10.30433"><time>2025-04-28T09:17:41.000Z</time><ele>935.6</ele></trkpt><trkpt lat="45.984654" lon="10.304315"><time>2025-04-28T09:17:42.000Z</time><ele>935.4</ele></trkpt><trkpt lat="45.984661" lon="10.3043"><time>2025-04-28T09:17:43.000Z</time><ele>935</ele></trkpt><trkpt lat="45.984667" lon="10.304284"><time>2025-04-28T09:17:44.000Z</time><ele>934.8</ele></trkpt><trkpt lat="45.984679" lon="10.304267"><time>2025-04-28T09:17:45.000Z</time><ele>934.8</ele></trkpt><trkpt lat="45.984691" lon="10.30425"><time>2025-04-28T09:17:46.000Z</time><ele>934.6</ele></trkpt><trkpt lat="45.98471" lon="10.304227"><time>2025-04-28T09:17:47.000Z</time><ele>934.4</ele></trkpt><trkpt lat="45.984719" lon="10.3042"><time>2025-04-28T09:17:48.000Z</time><ele>934.4</ele></trkpt><trkpt lat="45.98472" lon="10.304179"><time>2025-04-28T09:17:49.000Z</time><ele>934.2</ele></trkpt><trkpt lat="45.984726" lon="10.304158"><time>2025-04-28T09:17:50.000Z</time><ele>934.2</ele></trkpt><trkpt lat="45.984731" lon="10.30414"><time>2025-04-28T09:17:51.000Z</time><ele>934</ele></trkpt><trkpt lat="45.984735" lon="10.304125"><time>2025-04-28T09:17:52.000Z</time><ele>933.8</ele></trkpt><trkpt lat="45.984737" lon="10.304108"><time>2025-04-28T09:17:53.000Z</time><ele>933.6</ele></trkpt><trkpt lat="45.984742" lon="10.304089"><time>2025-04-28T09:17:54.000Z</time><ele>933.6</ele></trkpt><trkpt lat="45.98475" lon="10.304073"><time>2025-04-28T09:17:55.000Z</time><ele>933.4</ele></trkpt><trkpt lat="45.984757" lon="10.304057"><time>2025-04-28T09:17:56.000Z</time><ele>933.2</ele></trkpt><trkpt lat="45.984768" lon="10.304046"><time>2025-04-28T09:17:57.000Z</time><ele>933.2</ele></trkpt><trkpt lat="45.984776" lon="10.304028"><time>2025-04-28T09:17:58.000Z</time><ele>933.2</ele></trkpt><trkpt lat="45.984781" lon="10.304013"><time>2025-04-28T09:17:59.000Z</time><ele>933</ele></trkpt><trkpt lat="45.984794" lon="10.303996"><time>2025-04-28T09:18:00.000Z</time><ele>933</ele></trkpt><trkpt lat="45.9848" lon="10.303975"><time>2025-04-28T09:18:01.000Z</time><ele>932.8</ele></trkpt><trkpt lat="45.984809" lon="10.303953"><time>2025-04-28T09:18:02.000Z</time><ele>932.6</ele></trkpt><trkpt lat="45.984815" lon="10.303933"><time>2025-04-28T09:18:03.000Z</time><ele>932.4</ele></trkpt><trkpt lat="45.984826" lon="10.303912"><time>2025-04-28T09:18:04.000Z</time><ele>932</ele></trkpt><trkpt lat="45.984843" lon="10.303894"><time>2025-04-28T09:18:05.000Z</time><ele>931.6</ele></trkpt><trkpt lat="45.984857" lon="10.303873"><time>2025-04-28T09:18:06.000Z</time><ele>931.4</ele></trkpt><trkpt lat="45.984868" lon="10.303854"><time>2025-04-28T09:18:07.000Z</time><ele>931.2</ele></trkpt><trkpt lat="45.984881" lon="10.303837"><time>2025-04-28T09:18:08.000Z</time><ele>931</ele></trkpt><trkpt lat="45.984893" lon="10.303825"><time>2025-04-28T09:18:09.000Z</time><ele>930.8</ele></trkpt><trkpt lat="45.984907" lon="10.303811"><time>2025-04-28T09:18:10.000Z</time><ele>930.6</ele></trkpt><trkpt lat="45.984929" lon="10.3038"><time>2025-04-28T09:18:11.000Z</time><ele>930.4</ele></trkpt><trkpt lat="45.984954" lon="10.303788"><time>2025-04-28T09:18:12.000Z</time><ele>930</ele></trkpt><trkpt lat="45.984958" lon="10.303762"><time>2025-04-28T09:18:13.000Z</time><ele>929.6</ele></trkpt><trkpt lat="45.984963" lon="10.303733"><time>2025-04-28T09:18:14.000Z</time><ele>929.4</ele></trkpt><trkpt lat="45.984977" lon="10.303706"><time>2025-04-28T09:18:15.000Z</time><ele>929.2</ele></trkpt><trkpt lat="45.984983" lon="10.303689"><time>2025-04-28T09:18:16.000Z</time><ele>928.8</ele></trkpt><trkpt lat="45.984987" lon="10.303671"><time>2025-04-28T09:18:17.000Z</time><ele>928.4</ele></trkpt><trkpt lat="45.984988" lon="10.303657"><time>2025-04-28T09:18:18.000Z</time><ele>928.2</ele></trkpt><trkpt lat="45.984989" lon="10.303642"><time>2025-04-28T09:18:19.000Z</time><ele>927.8</ele></trkpt><trkpt lat="45.984987" lon="10.303616"><time>2025-04-28T09:18:20.000Z</time><ele>927.6</ele></trkpt><trkpt lat="45.984996" lon="10.303605"><time>2025-04-28T09:18:21.000Z</time><ele>927.4</ele></trkpt><trkpt lat="45.985001" lon="10.303587"><time>2025-04-28T09:18:22.000Z</time><ele>927.2</ele></trkpt><trkpt lat="45.985006" lon="10.303566"><time>2025-04-28T09:18:23.000Z</time><ele>927</ele></trkpt><trkpt lat="45.985007" lon="10.30355"><time>2025-04-28T09:18:24.000Z</time><ele>926.6</ele></trkpt><trkpt lat="45.985005" lon="10.30353"><time>2025-04-28T09:18:25.000Z</time><ele>926.4</ele></trkpt><trkpt lat="45.985001" lon="10.303511"><time>2025-04-28T09:18:26.000Z</time><ele>926.2</ele></trkpt><trkpt lat="45.984993" lon="10.303494"><time>2025-04-28T09:18:27.000Z</time><ele>925.8</ele></trkpt><trkpt lat="45.984983" lon="10.303477"><time>2025-04-28T09:18:28.000Z</time><ele>925.4</ele></trkpt><trkpt lat="45.984985" lon="10.303464"><time>2025-04-28T09:18:29.000Z</time><ele>925.2</ele></trkpt><trkpt lat="45.984992" lon="10.303449"><time>2025-04-28T09:18:30.000Z</time><ele>925</ele></trkpt><trkpt lat="45.985003" lon="10.303434"><time>2025-04-28T09:18:31.000Z</time><ele>924.8</ele></trkpt><trkpt lat="45.98501" lon="10.30342"><time>2025-04-28T09:18:32.000Z</time><ele>924.4</ele></trkpt><trkpt lat="45.985018" lon="10.303407"><time>2025-04-28T09:18:33.000Z</time><ele>924</ele></trkpt><trkpt lat="45.985031" lon="10.303393"><time>2025-04-28T09:18:34.000Z</time><ele>923.8</ele></trkpt><trkpt lat="45.985038" lon="10.30338"><time>2025-04-28T09:18:35.000Z</time><ele>923.6</ele></trkpt><trkpt lat="45.985045" lon="10.303372"><time>2025-04-28T09:18:36.000Z</time><ele>923.4</ele></trkpt><trkpt lat="45.985051" lon="10.303366"><time>2025-04-28T09:18:37.000Z</time><ele>923.2</ele></trkpt><trkpt lat="45.985057" lon="10.30336"><time>2025-04-28T09:18:38.000Z</time><ele>923</ele></trkpt><trkpt lat="45.985064" lon="10.303348"><time>2025-04-28T09:18:39.000Z</time><ele>922.8</ele></trkpt><trkpt lat="45.985066" lon="10.303331"><time>2025-04-28T09:18:40.000Z</time><ele>922.6</ele></trkpt><trkpt lat="45.985063" lon="10.303322"><time>2025-04-28T09:18:41.000Z</time><ele>922.4</ele></trkpt><trkpt lat="45.98507" lon="10.303312"><time>2025-04-28T09:18:42.000Z</time><ele>922</ele></trkpt><trkpt lat="45.985079" lon="10.303302"><time>2025-04-28T09:18:43.000Z</time><ele>921.6</ele></trkpt><trkpt lat="45.985083" lon="10.303295"><time>2025-04-28T09:18:44.000Z</time><ele>921.4</ele></trkpt><trkpt lat="45.985081" lon="10.303296"><time>2025-04-28T09:18:45.000Z</time><ele>921.4</ele></trkpt><trkpt lat="45.985086" lon="10.303284"><time>2025-04-28T09:18:46.000Z</time><ele>921</ele></trkpt><trkpt lat="45.98509" lon="10.303266"><time>2025-04-28T09:18:47.000Z</time><ele>920.8</ele></trkpt><trkpt lat="45.985103" lon="10.303242"><time>2025-04-28T09:18:48.000Z</time><ele>920.6</ele></trkpt><trkpt lat="45.985115" lon="10.303223"><time>2025-04-28T09:18:49.000Z</time><ele>920.4</ele></trkpt><trkpt lat="45.985127" lon="10.303205"><time>2025-04-28T09:18:50.000Z</time><ele>920.2</ele></trkpt><trkpt lat="45.985137" lon="10.303186"><time>2025-04-28T09:18:51.000Z</time><ele>920</ele></trkpt><trkpt lat="45.98515" lon="10.303165"><time>2025-04-28T09:18:52.000Z</time><ele>919.8</ele></trkpt><trkpt lat="45.985161" lon="10.30315"><time>2025-04-28T09:18:53.000Z</time><ele>919.4</ele></trkpt><trkpt lat="45.985172" lon="10.303137"><time>2025-04-28T09:18:54.000Z</time><ele>919.2</ele></trkpt><trkpt lat="45.985187" lon="10.303124"><time>2025-04-28T09:18:55.000Z</time><ele>918.8</ele></trkpt><trkpt lat="45.985201" lon="10.303109"><time>2025-04-28T09:18:56.000Z</time><ele>918.4</ele></trkpt><trkpt lat="45.985215" lon="10.303087"><time>2025-04-28T09:18:57.000Z</time><ele>918.2</ele></trkpt><trkpt lat="45.985227" lon="10.30307"><time>2025-04-28T09:18:58.000Z</time><ele>918</ele></trkpt><trkpt lat="45.985243" lon="10.30306"><time>2025-04-28T09:18:59.000Z</time><ele>917.8</ele></trkpt><trkpt lat="45.98525" lon="10.303051"><time>2025-04-28T09:19:00.000Z</time><ele>917.6</ele></trkpt><trkpt lat="45.985254" lon="10.303041"><time>2025-04-28T09:19:01.000Z</time><ele>917.6</ele></trkpt><trkpt lat="45.985264" lon="10.303034"><time>2025-04-28T09:19:02.000Z</time><ele>917.2</ele></trkpt><trkpt lat="45.985281" lon="10.303023"><time>2025-04-28T09:19:03.000Z</time><ele>916.8</ele></trkpt><trkpt lat="45.985292" lon="10.303006"><time>2025-04-28T09:19:04.000Z</time><ele>916.6</ele></trkpt><trkpt lat="45.985299" lon="10.302989"><time>2025-04-28T09:19:05.000Z</time><ele>916.2</ele></trkpt><trkpt lat="45.985314" lon="10.302976"><time>2025-04-28T09:19:06.000Z</time><ele>916</ele></trkpt><trkpt lat="45.985327" lon="10.302953"><time>2025-04-28T09:19:07.000Z</time><ele>915.8</ele></trkpt><trkpt lat="45.985345" lon="10.302939"><time>2025-04-28T09:19:08.000Z</time><ele>915.6</ele></trkpt><trkpt lat="45.985357" lon="10.302929"><time>2025-04-28T09:19:09.000Z</time><ele>915.4</ele></trkpt><trkpt lat="45.985377" lon="10.30291"><time>2025-04-28T09:19:10.000Z</time><ele>915.2</ele></trkpt><trkpt lat="45.985371" lon="10.30288"><time>2025-04-28T09:19:11.000Z</time><ele>915</ele></trkpt><trkpt lat="45.985381" lon="10.302864"><time>2025-04-28T09:19:12.000Z</time><ele>914.6</ele></trkpt><trkpt lat="45.9854" lon="10.302844"><time>2025-04-28T09:19:13.000Z</time><ele>914.4</ele></trkpt><trkpt lat="45.985416" lon="10.302825"><time>2025-04-28T09:19:14.000Z</time><ele>914</ele></trkpt><trkpt lat="45.985426" lon="10.30281"><time>2025-04-28T09:19:15.000Z</time><ele>913.8</ele></trkpt><trkpt lat="45.985435" lon="10.302792"><time>2025-04-28T09:19:16.000Z</time><ele>913.6</ele></trkpt><trkpt lat="45.985424" lon="10.302774"><time>2025-04-28T09:19:17.000Z</time><ele>913.6</ele></trkpt><trkpt lat="45.985431" lon="10.302757"><time>2025-04-28T09:19:18.000Z</time><ele>913.4</ele></trkpt><trkpt lat="45.985434" lon="10.302735"><time>2025-04-28T09:19:19.000Z</time><ele>913</ele></trkpt><trkpt lat="45.985438" lon="10.302726"><time>2025-04-28T09:19:20.000Z</time><ele>912.8</ele></trkpt><trkpt lat="45.985448" lon="10.302723"><time>2025-04-28T09:19:21.000Z</time><ele>912.6</ele></trkpt><trkpt lat="45.985454" lon="10.302715"><time>2025-04-28T09:19:22.000Z</time><ele>912.4</ele></trkpt><trkpt lat="45.985467" lon="10.302692"><time>2025-04-28T09:19:23.000Z</time><ele>912.2</ele></trkpt><trkpt lat="45.985476" lon="10.302668"><time>2025-04-28T09:19:24.000Z</time><ele>912</ele></trkpt><trkpt lat="45.98548" lon="10.302659"><time>2025-04-28T09:19:25.000Z</time><ele>911.8</ele></trkpt><trkpt lat="45.985475" lon="10.302642"><time>2025-04-28T09:19:26.000Z</time><ele>911.8</ele></trkpt><trkpt lat="45.985476" lon="10.302626"><time>2025-04-28T09:19:27.000Z</time><ele>911.8</ele></trkpt><trkpt lat="45.98548" lon="10.302617"><time>2025-04-28T09:19:28.000Z</time><ele>911.6</ele></trkpt><trkpt lat="45.985496" lon="10.302606"><time>2025-04-28T09:19:29.000Z</time><ele>911.6</ele></trkpt><trkpt lat="45.985498" lon="10.302594"><time>2025-04-28T09:19:30.000Z</time><ele>911.4</ele></trkpt><trkpt lat="45.985498" lon="10.302578"><time>2025-04-28T09:19:31.000Z</time><ele>911.4</ele></trkpt><trkpt lat="45.985499" lon="10.302562"><time>2025-04-28T09:19:32.000Z</time><ele>911.4</ele></trkpt><trkpt lat="45.985504" lon="10.30255"><time>2025-04-28T09:19:33.000Z</time><ele>911.4</ele></trkpt><trkpt lat="45.985512" lon="10.302536"><time>2025-04-28T09:19:34.000Z</time><ele>911.4</ele></trkpt><trkpt lat="45.985513" lon="10.30252"><time>2025-04-28T09:19:35.000Z</time><ele>911.2</ele></trkpt><trkpt lat="45.985509" lon="10.302502"><time>2025-04-28T09:19:36.000Z</time><ele>911</ele></trkpt><trkpt lat="45.98551" lon="10.302482"><time>2025-04-28T09:19:37.000Z</time><ele>911</ele></trkpt><trkpt lat="45.98551" lon="10.302463"><time>2025-04-28T09:19:38.000Z</time><ele>911</ele></trkpt><trkpt lat="45.985511" lon="10.302451"><time>2025-04-28T09:19:39.000Z</time><ele>910.8</ele></trkpt><trkpt lat="45.985512" lon="10.302446"><time>2025-04-28T09:19:40.000Z</time><ele>910.8</ele></trkpt><trkpt lat="45.985512" lon="10.302445"><time>2025-04-28T09:19:41.000Z</time><ele>910.8</ele></trkpt><trkpt lat="45.985504" lon="10.302437"><time>2025-04-28T09:19:42.000Z</time><ele>911</ele></trkpt><trkpt lat="45.985498" lon="10.302429"><time>2025-04-28T09:19:43.000Z</time><ele>911</ele></trkpt><trkpt lat="45.985494" lon="10.302417"><time>2025-04-28T09:19:44.000Z</time><ele>910.8</ele></trkpt><trkpt lat="45.985493" lon="10.302404"><time>2025-04-28T09:19:45.000Z</time><ele>910.8</ele></trkpt><trkpt lat="45.985489" lon="10.302396"><time>2025-04-28T09:19:46.000Z</time><ele>910.8</ele></trkpt><trkpt lat="45.985482" lon="10.302388"><time>2025-04-28T09:19:47.000Z</time><ele>910.6</ele></trkpt><trkpt lat="45.985462" lon="10.30238"><time>2025-04-28T09:19:48.000Z</time><ele>910.6</ele></trkpt><trkpt lat="45.985451" lon="10.302377"><time>2025-04-28T09:19:49.000Z</time><ele>910.6</ele></trkpt><trkpt lat="45.985477" lon="10.302378"><time>2025-04-28T09:19:50.000Z</time><ele>910.6</ele></trkpt><trkpt lat="45.985479" lon="10.302379"><time>2025-04-28T09:19:51.000Z</time><ele>910.6</ele></trkpt><trkpt lat="45.985487" lon="10.302372"><time>2025-04-28T09:19:52.000Z</time><ele>910.6</ele></trkpt><trkpt lat="45.985489" lon="10.30237"><time>2025-04-28T09:19:53.000Z</time><ele>910.8</ele></trkpt><trkpt lat="45.985485" lon="10.302369"><time>2025-04-28T09:19:54.000Z</time><ele>910.8</ele></trkpt><trkpt lat="45.985493" lon="10.302358"><time>2025-04-28T09:19:55.000Z</time><ele>910.8</ele></trkpt><trkpt lat="45.985495" lon="10.302359"><time>2025-04-28T09:19:56.000Z</time><ele>910.6</ele></trkpt><trkpt lat="45.985495" lon="10.30236"><time>2025-04-28T09:19:57.000Z</time><ele>910.4</ele></trkpt><trkpt lat="45.985496" lon="10.302354"><time>2025-04-28T09:19:58.000Z</time><ele>910.4</ele></trkpt><trkpt lat="45.985494" lon="10.302354"><time>2025-04-28T09:19:59.000Z</time><ele>910.2</ele></trkpt><trkpt lat="45.985493" lon="10.302354"><time>2025-04-28T09:20:00.000Z</time><ele>910.2</ele></trkpt><trkpt lat="45.985494" lon="10.302355"><time>2025-04-28T09:20:01.000Z</time><ele>910.2</ele></trkpt><trkpt lat="45.985494" lon="10.302352"><time>2025-04-28T09:20:02.000Z</time><ele>910.2</ele></trkpt><trkpt lat="45.985495" lon="10.302349"><time>2025-04-28T09:20:03.000Z</time><ele>910.2</ele></trkpt><trkpt lat="45.985495" lon="10.302342"><time>2025-04-28T09:20:04.000Z</time><ele>910.2</ele></trkpt><trkpt lat="45.98549" lon="10.302342"><time>2025-04-28T09:20:05.000Z</time><ele>910.2</ele></trkpt><trkpt lat="45.985479" lon="10.30233"><time>2025-04-28T09:20:06.000Z</time><ele>910.2</ele></trkpt><trkpt lat="45.98547" lon="10.302323"><time>2025-04-28T09:20:07.000Z</time><ele>910.2</ele></trkpt><trkpt lat="45.985477" lon="10.302313"><time>2025-04-28T09:20:08.000Z</time><ele>910.2</ele></trkpt><trkpt lat="45.985482" lon="10.302302"><time>2025-04-28T09:20:09.000Z</time><ele>910.2</ele></trkpt><trkpt lat="45.985493" lon="10.302297"><time>2025-04-28T09:20:10.000Z</time><ele>910.2</ele></trkpt><trkpt lat="45.985502" lon="10.302302"><time>2025-04-28T09:20:11.000Z</time><ele>910.2</ele></trkpt><trkpt lat="45.985506" lon="10.302307"><time>2025-04-28T09:20:12.000Z</time><ele>910.2</ele></trkpt><trkpt lat="45.985505" lon="10.302308"><time>2025-04-28T09:20:13.000Z</time><ele>910.2</ele></trkpt><trkpt lat="45.9855" lon="10.302308"><time>2025-04-28T09:20:14.000Z</time><ele>910.2</ele></trkpt><trkpt lat="45.985491" lon="10.302306"><time>2025-04-28T09:20:15.000Z</time><ele>910.4</ele></trkpt><trkpt lat="45.98546" lon="10.302305"><time>2025-04-28T09:20:16.000Z</time><ele>910.4</ele></trkpt><trkpt lat="45.985453" lon="10.302303"><time>2025-04-28T09:20:17.000Z</time><ele>910.6</ele></trkpt><trkpt lat="45.985455" lon="10.3023"><time>2025-04-28T09:20:18.000Z</time><ele>910.4</ele></trkpt><trkpt lat="45.98545" lon="10.302302"><time>2025-04-28T09:20:19.000Z</time><ele>910.6</ele></trkpt><trkpt lat="45.985444" lon="10.302303"><time>2025-04-28T09:20:20.000Z</time><ele>910.6</ele></trkpt><trkpt lat="45.985435" lon="10.302302"><time>2025-04-28T09:20:21.000Z</time><ele>910.6</ele></trkpt><trkpt lat="45.985417" lon="10.302301"><time>2025-04-28T09:20:22.000Z</time><ele>910.6</ele></trkpt><trkpt lat="45.985408" lon="10.302304"><time>2025-04-28T09:20:23.000Z</time><ele>910.4</ele></trkpt><trkpt lat="45.985404" lon="10.302305"><time>2025-04-28T09:20:24.000Z</time><ele>910.4</ele></trkpt><trkpt lat="45.985399" lon="10.302312"><time>2025-04-28T09:20:25.000Z</time><ele>910.6</ele></trkpt><trkpt lat="45.985399" lon="10.302315"><time>2025-04-28T09:20:26.000Z</time><ele>910.4</ele></trkpt><trkpt lat="45.98542" lon="10.302308"><time>2025-04-28T09:20:27.000Z</time><ele>910.4</ele></trkpt><trkpt lat="45.985425" lon="10.30231"><time>2025-04-28T09:20:28.000Z</time><ele>910.4</ele></trkpt><trkpt lat="45.985422" lon="10.302313"><time>2025-04-28T09:20:29.000Z</time><ele>910.4</ele></trkpt><trkpt lat="45.985421" lon="10.302312"><time>2025-04-28T09:20:30.000Z</time><ele>910.4</ele></trkpt><trkpt lat="45.985409" lon="10.302311"><time>2025-04-28T09:20:31.000Z</time><ele>910.4</ele></trkpt><trkpt lat="45.985412" lon="10.302308"><time>2025-04-28T09:20:32.000Z</time><ele>910.4</ele></trkpt><trkpt lat="45.985413" lon="10.302303"><time>2025-04-28T09:20:33.000Z</time><ele>910.4</ele></trkpt><trkpt lat="45.985412" lon="10.302296"><time>2025-04-28T09:20:34.000Z</time><ele>910.4</ele></trkpt><trkpt lat="45.98541" lon="10.302285"><time>2025-04-28T09:20:35.000Z</time><ele>910.4</ele></trkpt><trkpt lat="45.985422" lon="10.302272"><time>2025-04-28T09:20:36.000Z</time><ele>910.4</ele></trkpt><trkpt lat="45.985435" lon="10.302264"><time>2025-04-28T09:20:37.000Z</time><ele>910.4</ele></trkpt><trkpt lat="45.985448" lon="10.302251"><time>2025-04-28T09:20:38.000Z</time><ele>910.4</ele></trkpt><trkpt lat="45.985456" lon="10.302239"><time>2025-04-28T09:20:39.000Z</time><ele>910.6</ele></trkpt><trkpt lat="45.985459" lon="10.302227"><time>2025-04-28T09:20:40.000Z</time><ele>910.6</ele></trkpt><trkpt lat="45.985462" lon="10.302217"><time>2025-04-28T09:20:41.000Z</time><ele>910.4</ele></trkpt><trkpt lat="45.985464" lon="10.302205"><time>2025-04-28T09:20:42.000Z</time><ele>910.4</ele></trkpt><trkpt lat="45.985471" lon="10.302191"><time>2025-04-28T09:20:43.000Z</time><ele>910.4</ele></trkpt><trkpt lat="45.985482" lon="10.302175"><time>2025-04-28T09:20:44.000Z</time><ele>910.4</ele></trkpt><trkpt lat="45.985493" lon="10.302162"><time>2025-04-28T09:20:45.000Z</time><ele>910.2</ele></trkpt><trkpt lat="45.985507" lon="10.302154"><time>2025-04-28T09:20:46.000Z</time><ele>910.2</ele></trkpt><trkpt lat="45.985521" lon="10.302147"><time>2025-04-28T09:20:47.000Z</time><ele>910.2</ele></trkpt><trkpt lat="45.985526" lon="10.302136"><time>2025-04-28T09:20:48.000Z</time><ele>910.2</ele></trkpt><trkpt lat="45.985539" lon="10.302124"><time>2025-04-28T09:20:49.000Z</time><ele>910.2</ele></trkpt><trkpt lat="45.985559" lon="10.302108"><time>2025-04-28T09:20:50.000Z</time><ele>910.2</ele></trkpt><trkpt lat="45.98558" lon="10.302094"><time>2025-04-28T09:20:51.000Z</time><ele>910.2</ele></trkpt><trkpt lat="45.985613" lon="10.302078"><time>2025-04-28T09:20:52.000Z</time><ele>910.2</ele></trkpt><trkpt lat="45.985638" lon="10.302061"><time>2025-04-28T09:20:53.000Z</time><ele>910.2</ele></trkpt><trkpt lat="45.985649" lon="10.302041"><time>2025-04-28T09:20:54.000Z</time><ele>910.2</ele></trkpt><trkpt lat="45.985653" lon="10.302025"><time>2025-04-28T09:20:55.000Z</time><ele>910</ele></trkpt><trkpt lat="45.985659" lon="10.302012"><time>2025-04-28T09:20:56.000Z</time><ele>910</ele></trkpt><trkpt lat="45.985661" lon="10.301997"><time>2025-04-28T09:20:57.000Z</time><ele>910</ele></trkpt><trkpt lat="45.985664" lon="10.301979"><time>2025-04-28T09:20:58.000Z</time><ele>910</ele></trkpt><trkpt lat="45.985667" lon="10.301959"><time>2025-04-28T09:20:59.000Z</time><ele>909.8</ele></trkpt><trkpt lat="45.985668" lon="10.301937"><time>2025-04-28T09:21:00.000Z</time><ele>909.8</ele></trkpt><trkpt lat="45.985675" lon="10.301922"><time>2025-04-28T09:21:01.000Z</time><ele>909.6</ele></trkpt><trkpt lat="45.98568" lon="10.301907"><time>2025-04-28T09:21:02.000Z</time><ele>909.6</ele></trkpt><trkpt lat="45.985683" lon="10.301891"><time>2025-04-28T09:21:03.000Z</time><ele>909.4</ele></trkpt><trkpt lat="45.985686" lon="10.301873"><time>2025-04-28T09:21:04.000Z</time><ele>909.4</ele></trkpt><trkpt lat="45.985691" lon="10.301856"><time>2025-04-28T09:21:05.000Z</time><ele>909.2</ele></trkpt><trkpt lat="45.985702" lon="10.301834"><time>2025-04-28T09:21:06.000Z</time><ele>909.2</ele></trkpt><trkpt lat="45.985705" lon="10.301813"><time>2025-04-28T09:21:07.000Z</time><ele>909.2</ele></trkpt><trkpt lat="45.985709" lon="10.301796"><time>2025-04-28T09:21:08.000Z</time><ele>909.2</ele></trkpt><trkpt lat="45.985725" lon="10.301778"><time>2025-04-28T09:21:09.000Z</time><ele>909.2</ele></trkpt><trkpt lat="45.985747" lon="10.301767"><time>2025-04-28T09:21:10.000Z</time><ele>909.2</ele></trkpt><trkpt lat="45.985767" lon="10.30175"><time>2025-04-28T09:21:11.000Z</time><ele>909.2</ele></trkpt><trkpt lat="45.985777" lon="10.301731"><time>2025-04-28T09:21:12.000Z</time><ele>909.2</ele></trkpt><trkpt lat="45.985787" lon="10.301715"><time>2025-04-28T09:21:13.000Z</time><ele>909</ele></trkpt><trkpt lat="45.985788" lon="10.301703"><time>2025-04-28T09:21:14.000Z</time><ele>909</ele></trkpt><trkpt lat="45.985789" lon="10.301692"><time>2025-04-28T09:21:15.000Z</time><ele>909</ele></trkpt><trkpt lat="45.985797" lon="10.301676"><time>2025-04-28T09:21:16.000Z</time><ele>909</ele></trkpt><trkpt lat="45.985805" lon="10.301661"><time>2025-04-28T09:21:17.000Z</time><ele>909</ele></trkpt><trkpt lat="45.985812" lon="10.301645"><time>2025-04-28T09:21:18.000Z</time><ele>909</ele></trkpt><trkpt lat="45.985815" lon="10.301632"><time>2025-04-28T09:21:19.000Z</time><ele>909</ele></trkpt><trkpt lat="45.985814" lon="10.301617"><time>2025-04-28T09:21:20.000Z</time><ele>909</ele></trkpt><trkpt lat="45.985807" lon="10.301596"><time>2025-04-28T09:21:21.000Z</time><ele>909</ele></trkpt><trkpt lat="45.985806" lon="10.301576"><time>2025-04-28T09:21:22.000Z</time><ele>909</ele></trkpt><trkpt lat="45.985822" lon="10.301565"><time>2025-04-28T09:21:23.000Z</time><ele>909</ele></trkpt><trkpt lat="45.985829" lon="10.301552"><time>2025-04-28T09:21:24.000Z</time><ele>909</ele></trkpt><trkpt lat="45.985839" lon="10.301532"><time>2025-04-28T09:21:25.000Z</time><ele>908.8</ele></trkpt><trkpt lat="45.985847" lon="10.30152"><time>2025-04-28T09:21:26.000Z</time><ele>908.8</ele></trkpt><trkpt lat="45.98585" lon="10.301505"><time>2025-04-28T09:21:27.000Z</time><ele>908.8</ele></trkpt><trkpt lat="45.985862" lon="10.301491"><time>2025-04-28T09:21:28.000Z</time><ele>908.8</ele></trkpt><trkpt lat="45.985871" lon="10.301472"><time>2025-04-28T09:21:29.000Z</time><ele>908.6</ele></trkpt><trkpt lat="45.985878" lon="10.301452"><time>2025-04-28T09:21:30.000Z</time><ele>908.6</ele></trkpt><trkpt lat="45.985884" lon="10.301432"><time>2025-04-28T09:21:31.000Z</time><ele>908.6</ele></trkpt><trkpt lat="45.985892" lon="10.301416"><time>2025-04-28T09:21:32.000Z</time><ele>908.4</ele></trkpt><trkpt lat="45.9859" lon="10.301397"><time>2025-04-28T09:21:33.000Z</time><ele>908.4</ele></trkpt><trkpt lat="45.985905" lon="10.301379"><time>2025-04-28T09:21:34.000Z</time><ele>908.4</ele></trkpt><trkpt lat="45.985909" lon="10.301358"><time>2025-04-28T09:21:35.000Z</time><ele>908.2</ele></trkpt><trkpt lat="45.985913" lon="10.301337"><time>2025-04-28T09:21:36.000Z</time><ele>908.2</ele></trkpt><trkpt lat="45.985918" lon="10.301314"><time>2025-04-28T09:21:37.000Z</time><ele>908.2</ele></trkpt><trkpt lat="45.985921" lon="10.301283"><time>2025-04-28T09:21:38.000Z</time><ele>908.2</ele></trkpt><trkpt lat="45.985914" lon="10.301258"><time>2025-04-28T09:21:39.000Z</time><ele>908.2</ele></trkpt><trkpt lat="45.985916" lon="10.301233"><time>2025-04-28T09:21:40.000Z</time><ele>908</ele></trkpt><trkpt lat="45.985915" lon="10.301217"><time>2025-04-28T09:21:41.000Z</time><ele>908</ele></trkpt><trkpt lat="45.985908" lon="10.301213"><time>2025-04-28T09:21:42.000Z</time><ele>908</ele></trkpt><trkpt lat="45.985904" lon="10.301217"><time>2025-04-28T09:21:43.000Z</time><ele>908</ele></trkpt><trkpt lat="45.985903" lon="10.301233"><time>2025-04-28T09:21:44.000Z</time><ele>908</ele></trkpt><trkpt lat="45.985896" lon="10.301245"><time>2025-04-28T09:21:45.000Z</time><ele>908</ele></trkpt><trkpt lat="45.985878" lon="10.301246"><time>2025-04-28T09:21:46.000Z</time><ele>908</ele></trkpt><trkpt lat="45.985856" lon="10.301249"><time>2025-04-28T09:21:47.000Z</time><ele>908</ele></trkpt><trkpt lat="45.985837" lon="10.301245"><time>2025-04-28T09:21:48.000Z</time><ele>908</ele></trkpt><trkpt lat="45.985827" lon="10.301241"><time>2025-04-28T09:21:49.000Z</time><ele>908</ele></trkpt><trkpt lat="45.985823" lon="10.301238"><time>2025-04-28T09:21:50.000Z</time><ele>908</ele></trkpt><trkpt lat="45.985819" lon="10.301236"><time>2025-04-28T09:21:51.000Z</time><ele>908</ele></trkpt><trkpt lat="45.985815" lon="10.301238"><time>2025-04-28T09:21:52.000Z</time><ele>908.2</ele></trkpt><trkpt lat="45.985812" lon="10.301238"><time>2025-04-28T09:21:53.000Z</time><ele>908.2</ele></trkpt><trkpt lat="45.98581" lon="10.301238"><time>2025-04-28T09:21:54.000Z</time><ele>908.4</ele></trkpt><trkpt lat="45.985837" lon="10.301265"><time>2025-04-28T09:21:55.000Z</time><ele>908.4</ele></trkpt><trkpt lat="45.985875" lon="10.30129"><time>2025-04-28T09:21:56.000Z</time><ele>908.4</ele></trkpt><trkpt lat="45.98589" lon="10.301296"><time>2025-04-28T09:21:57.000Z</time><ele>908.4</ele></trkpt><trkpt lat="45.985896" lon="10.30129"><time>2025-04-28T09:21:58.000Z</time><ele>908.2</ele></trkpt><trkpt lat="45.9859" lon="10.301279"><time>2025-04-28T09:21:59.000Z</time><ele>908.2</ele></trkpt><trkpt lat="45.985905" lon="10.301272"><time>2025-04-28T09:22:00.000Z</time><ele>908</ele></trkpt><trkpt lat="45.985907" lon="10.301264"><time>2025-04-28T09:22:01.000Z</time><ele>908</ele></trkpt><trkpt lat="45.985905" lon="10.301251"><time>2025-04-28T09:22:02.000Z</time><ele>908</ele></trkpt><trkpt lat="45.985905" lon="10.301236"><time>2025-04-28T09:22:03.000Z</time><ele>907.8</ele></trkpt><trkpt lat="45.985903" lon="10.301223"><time>2025-04-28T09:22:04.000Z</time><ele>907.8</ele></trkpt><trkpt lat="45.985893" lon="10.301209"><time>2025-04-28T09:22:05.000Z</time><ele>907.8</ele></trkpt><trkpt lat="45.985881" lon="10.301193"><time>2025-04-28T09:22:06.000Z</time><ele>907.8</ele></trkpt><trkpt lat="45.985873" lon="10.301176"><time>2025-04-28T09:22:07.000Z</time><ele>907.8</ele></trkpt><trkpt lat="45.98587" lon="10.301162"><time>2025-04-28T09:22:08.000Z</time><ele>907.8</ele></trkpt><trkpt lat="45.985872" lon="10.301148"><time>2025-04-28T09:22:09.000Z</time><ele>907.8</ele></trkpt><trkpt lat="45.985876" lon="10.301134"><time>2025-04-28T09:22:10.000Z</time><ele>907.8</ele></trkpt><trkpt lat="45.985881" lon="10.301123"><time>2025-04-28T09:22:11.000Z</time><ele>907.8</ele></trkpt><trkpt lat="45.985892" lon="10.301109"><time>2025-04-28T09:22:12.000Z</time><ele>907.8</ele></trkpt><trkpt lat="45.985906" lon="10.301098"><time>2025-04-28T09:22:13.000Z</time><ele>907.8</ele></trkpt><trkpt lat="45.985913" lon="10.30109"><time>2025-04-28T09:22:14.000Z</time><ele>907.6</ele></trkpt><trkpt lat="45.98592" lon="10.301081"><time>2025-04-28T09:22:15.000Z</time><ele>907.6</ele></trkpt><trkpt lat="45.985923" lon="10.301073"><time>2025-04-28T09:22:16.000Z</time><ele>907.6</ele></trkpt><trkpt lat="45.985922" lon="10.301066"><time>2025-04-28T09:22:17.000Z</time><ele>907.4</ele></trkpt><trkpt lat="45.985921" lon="10.301053"><time>2025-04-28T09:22:18.000Z</time><ele>907.4</ele></trkpt><trkpt lat="45.98592" lon="10.30104"><time>2025-04-28T09:22:19.000Z</time><ele>907.4</ele></trkpt><trkpt lat="45.985925" lon="10.301026"><time>2025-04-28T09:22:20.000Z</time><ele>907.4</ele></trkpt><trkpt lat="45.98593" lon="10.30101"><time>2025-04-28T09:22:21.000Z</time><ele>907.4</ele></trkpt><trkpt lat="45.985941" lon="10.300994"><time>2025-04-28T09:22:22.000Z</time><ele>907.6</ele></trkpt><trkpt lat="45.985957" lon="10.300979"><time>2025-04-28T09:22:23.000Z</time><ele>907.4</ele></trkpt><trkpt lat="45.985959" lon="10.300961"><time>2025-04-28T09:22:24.000Z</time><ele>907.4</ele></trkpt><trkpt lat="45.985969" lon="10.300944"><time>2025-04-28T09:22:25.000Z</time><ele>907.2</ele></trkpt><trkpt lat="45.985976" lon="10.300928"><time>2025-04-28T09:22:26.000Z</time><ele>907.2</ele></trkpt><trkpt lat="45.985975" lon="10.300914"><time>2025-04-28T09:22:27.000Z</time><ele>907.2</ele></trkpt><trkpt lat="45.985982" lon="10.300897"><time>2025-04-28T09:22:28.000Z</time><ele>907</ele></trkpt><trkpt lat="45.985993" lon="10.300878"><time>2025-04-28T09:22:29.000Z</time><ele>907</ele></trkpt><trkpt lat="45.986011" lon="10.300855"><time>2025-04-28T09:22:30.000Z</time><ele>907</ele></trkpt><trkpt lat="45.986016" lon="10.300833"><time>2025-04-28T09:22:31.000Z</time><ele>906.8</ele></trkpt><trkpt lat="45.986003" lon="10.300818"><time>2025-04-28T09:22:32.000Z</time><ele>906.8</ele></trkpt><trkpt lat="45.98601" lon="10.300804"><time>2025-04-28T09:22:33.000Z</time><ele>906.6</ele></trkpt><trkpt lat="45.986027" lon="10.300784"><time>2025-04-28T09:22:34.000Z</time><ele>906.4</ele></trkpt><trkpt lat="45.986053" lon="10.300775"><time>2025-04-28T09:22:35.000Z</time><ele>906.2</ele></trkpt><trkpt lat="45.986077" lon="10.300762"><time>2025-04-28T09:22:36.000Z</time><ele>906.2</ele></trkpt><trkpt lat="45.986103" lon="10.300746"><time>2025-04-28T09:22:37.000Z</time><ele>906</ele></trkpt><trkpt lat="45.986118" lon="10.300733"><time>2025-04-28T09:22:38.000Z</time><ele>906</ele></trkpt><trkpt lat="45.986132" lon="10.30071"><time>2025-04-28T09:22:39.000Z</time><ele>905.8</ele></trkpt><trkpt lat="45.986128" lon="10.300691"><time>2025-04-28T09:22:40.000Z</time><ele>905.8</ele></trkpt><trkpt lat="45.986149" lon="10.300665"><time>2025-04-28T09:22:41.000Z</time><ele>905.6</ele></trkpt><trkpt lat="45.986166" lon="10.300647"><time>2025-04-28T09:22:42.000Z</time><ele>905.6</ele></trkpt><trkpt lat="45.986182" lon="10.300629"><time>2025-04-28T09:22:43.000Z</time><ele>905.6</ele></trkpt><trkpt lat="45.986199" lon="10.300606"><time>2025-04-28T09:22:44.000Z</time><ele>905.6</ele></trkpt><trkpt lat="45.986211" lon="10.300588"><time>2025-04-28T09:22:45.000Z</time><ele>905.6</ele></trkpt><trkpt lat="45.98622" lon="10.300575"><time>2025-04-28T09:22:46.000Z</time><ele>905.6</ele></trkpt><trkpt lat="45.986235" lon="10.300566"><time>2025-04-28T09:22:47.000Z</time><ele>905.6</ele></trkpt><trkpt lat="45.986252" lon="10.300549"><time>2025-04-28T09:22:48.000Z</time><ele>905.6</ele></trkpt><trkpt lat="45.986257" lon="10.30053"><time>2025-04-28T09:22:49.000Z</time><ele>905.6</ele></trkpt><trkpt lat="45.986255" lon="10.300511"><time>2025-04-28T09:22:50.000Z</time><ele>905.8</ele></trkpt><trkpt lat="45.986259" lon="10.300486"><time>2025-04-28T09:22:51.000Z</time><ele>905.8</ele></trkpt><trkpt lat="45.986273" lon="10.300463"><time>2025-04-28T09:22:52.000Z</time><ele>905.8</ele></trkpt><trkpt lat="45.986286" lon="10.300442"><time>2025-04-28T09:22:53.000Z</time><ele>905.6</ele></trkpt><trkpt lat="45.986298" lon="10.300424"><time>2025-04-28T09:22:54.000Z</time><ele>905.6</ele></trkpt><trkpt lat="45.986304" lon="10.300405"><time>2025-04-28T09:22:55.000Z</time><ele>905.4</ele></trkpt><trkpt lat="45.986314" lon="10.300383"><time>2025-04-28T09:22:56.000Z</time><ele>905.4</ele></trkpt><trkpt lat="45.986325" lon="10.300361"><time>2025-04-28T09:22:57.000Z</time><ele>905.4</ele></trkpt><trkpt lat="45.986322" lon="10.300346"><time>2025-04-28T09:22:58.000Z</time><ele>905.4</ele></trkpt><trkpt lat="45.986323" lon="10.300327"><time>2025-04-28T09:22:59.000Z</time><ele>905.4</ele></trkpt><trkpt lat="45.986321" lon="10.300309"><time>2025-04-28T09:23:00.000Z</time><ele>905.4</ele></trkpt><trkpt lat="45.986324" lon="10.300287"><time>2025-04-28T09:23:01.000Z</time><ele>905.4</ele></trkpt><trkpt lat="45.986321" lon="10.300273"><time>2025-04-28T09:23:02.000Z</time><ele>905.4</ele></trkpt><trkpt lat="45.986311" lon="10.300264"><time>2025-04-28T09:23:03.000Z</time><ele>905.4</ele></trkpt><trkpt lat="45.986316" lon="10.300249"><time>2025-04-28T09:23:04.000Z</time><ele>905.4</ele></trkpt><trkpt lat="45.986323" lon="10.300228"><time>2025-04-28T09:23:05.000Z</time><ele>905.2</ele></trkpt><trkpt lat="45.986328" lon="10.300208"><time>2025-04-28T09:23:06.000Z</time><ele>905.2</ele></trkpt><trkpt lat="45.986328" lon="10.300188"><time>2025-04-28T09:23:07.000Z</time><ele>905.2</ele></trkpt><trkpt lat="45.986332" lon="10.300172"><time>2025-04-28T09:23:08.000Z</time><ele>905</ele></trkpt><trkpt lat="45.98634" lon="10.300154"><time>2025-04-28T09:23:09.000Z</time><ele>905</ele></trkpt><trkpt lat="45.986344" lon="10.300135"><time>2025-04-28T09:23:10.000Z</time><ele>905</ele></trkpt><trkpt lat="45.986345" lon="10.300118"><time>2025-04-28T09:23:11.000Z</time><ele>905</ele></trkpt><trkpt lat="45.986347" lon="10.300097"><time>2025-04-28T09:23:12.000Z</time><ele>905</ele></trkpt><trkpt lat="45.986347" lon="10.300073"><time>2025-04-28T09:23:13.000Z</time><ele>905</ele></trkpt><trkpt lat="45.986342" lon="10.300051"><time>2025-04-28T09:23:14.000Z</time><ele>905.2</ele></trkpt><trkpt lat="45.986332" lon="10.300034"><time>2025-04-28T09:23:15.000Z</time><ele>905.2</ele></trkpt><trkpt lat="45.986322" lon="10.300016"><time>2025-04-28T09:23:16.000Z</time><ele>905.2</ele></trkpt><trkpt lat="45.986322" lon="10.299997"><time>2025-04-28T09:23:17.000Z</time><ele>905.2</ele></trkpt><trkpt lat="45.98632" lon="10.299976"><time>2025-04-28T09:23:18.000Z</time><ele>905.2</ele></trkpt><trkpt lat="45.986321" lon="10.299962"><time>2025-04-28T09:23:19.000Z</time><ele>905.2</ele></trkpt><trkpt lat="45.98633" lon="10.299941"><time>2025-04-28T09:23:20.000Z</time><ele>905.2</ele></trkpt><trkpt lat="45.986347" lon="10.299911"><time>2025-04-28T09:23:21.000Z</time><ele>905.2</ele></trkpt><trkpt lat="45.986353" lon="10.299884"><time>2025-04-28T09:23:22.000Z</time><ele>905.2</ele></trkpt><trkpt lat="45.98636" lon="10.299861"><time>2025-04-28T09:23:23.000Z</time><ele>905.2</ele></trkpt><trkpt lat="45.986361" lon="10.299845"><time>2025-04-28T09:23:24.000Z</time><ele>905.2</ele></trkpt><trkpt lat="45.986369" lon="10.299822"><time>2025-04-28T09:23:25.000Z</time><ele>905.2</ele></trkpt><trkpt lat="45.986381" lon="10.299803"><time>2025-04-28T09:23:26.000Z</time><ele>905.2</ele></trkpt><trkpt lat="45.986387" lon="10.299781"><time>2025-04-28T09:23:27.000Z</time><ele>905.2</ele></trkpt><trkpt lat="45.986387" lon="10.299766"><time>2025-04-28T09:23:28.000Z</time><ele>905.2</ele></trkpt><trkpt lat="45.986394" lon="10.299753"><time>2025-04-28T09:23:29.000Z</time><ele>905.2</ele></trkpt><trkpt lat="45.986397" lon="10.299738"><time>2025-04-28T09:23:30.000Z</time><ele>905.4</ele></trkpt><trkpt lat="45.986396" lon="10.299719"><time>2025-04-28T09:23:31.000Z</time><ele>905.4</ele></trkpt><trkpt lat="45.986403" lon="10.299704"><time>2025-04-28T09:23:32.000Z</time><ele>905.4</ele></trkpt><trkpt lat="45.986407" lon="10.299694"><time>2025-04-28T09:23:33.000Z</time><ele>905.6</ele></trkpt><trkpt lat="45.986417" lon="10.299683"><time>2025-04-28T09:23:34.000Z</time><ele>905.6</ele></trkpt><trkpt lat="45.98642" lon="10.299668"><time>2025-04-28T09:23:35.000Z</time><ele>905.6</ele></trkpt><trkpt lat="45.986426" lon="10.299651"><time>2025-04-28T09:23:36.000Z</time><ele>905.6</ele></trkpt><trkpt lat="45.986439" lon="10.299633"><time>2025-04-28T09:23:37.000Z</time><ele>905.6</ele></trkpt><trkpt lat="45.986455" lon="10.299612"><time>2025-04-28T09:23:38.000Z</time><ele>905.6</ele></trkpt><trkpt lat="45.986467" lon="10.299601"><time>2025-04-28T09:23:39.000Z</time><ele>905.4</ele></trkpt><trkpt lat="45.986475" lon="10.29959"><time>2025-04-28T09:23:40.000Z</time><ele>905.4</ele></trkpt><trkpt lat="45.986495" lon="10.299576"><time>2025-04-28T09:23:41.000Z</time><ele>905.4</ele></trkpt><trkpt lat="45.986511" lon="10.299566"><time>2025-04-28T09:23:42.000Z</time><ele>905.4</ele></trkpt><trkpt lat="45.986519" lon="10.299561"><time>2025-04-28T09:23:43.000Z</time><ele>905.4</ele></trkpt><trkpt lat="45.986519" lon="10.299567"><time>2025-04-28T09:23:44.000Z</time><ele>905.4</ele></trkpt><trkpt lat="45.986522" lon="10.299575"><time>2025-04-28T09:23:45.000Z</time><ele>905.4</ele></trkpt><trkpt lat="45.986531" lon="10.299574"><time>2025-04-28T09:23:46.000Z</time><ele>905.6</ele></trkpt><trkpt lat="45.986542" lon="10.299574"><time>2025-04-28T09:23:47.000Z</time><ele>905.6</ele></trkpt><trkpt lat="45.986553" lon="10.299576"><time>2025-04-28T09:23:48.000Z</time><ele>905.6</ele></trkpt><trkpt lat="45.986562" lon="10.299584"><time>2025-04-28T09:23:49.000Z</time><ele>905.6</ele></trkpt><trkpt lat="45.986573" lon="10.299586"><time>2025-04-28T09:23:50.000Z</time><ele>905.6</ele></trkpt><trkpt lat="45.986585" lon="10.29958"><time>2025-04-28T09:23:51.000Z</time><ele>905.6</ele></trkpt><trkpt lat="45.986599" lon="10.299567"><time>2025-04-28T09:23:52.000Z</time><ele>905.6</ele></trkpt><trkpt lat="45.986609" lon="10.299554"><time>2025-04-28T09:23:53.000Z</time><ele>905.6</ele></trkpt><trkpt lat="45.986623" lon="10.299535"><time>2025-04-28T09:23:54.000Z</time><ele>905.6</ele></trkpt><trkpt lat="45.986632" lon="10.299519"><time>2025-04-28T09:23:55.000Z</time><ele>905.6</ele></trkpt><trkpt lat="45.986641" lon="10.299503"><time>2025-04-28T09:23:56.000Z</time><ele>905.6</ele></trkpt><trkpt lat="45.986652" lon="10.299487"><time>2025-04-28T09:23:57.000Z</time><ele>905.6</ele></trkpt><trkpt lat="45.986661" lon="10.299465"><time>2025-04-28T09:23:58.000Z</time><ele>905.6</ele></trkpt><trkpt lat="45.986676" lon="10.299436"><time>2025-04-28T09:23:59.000Z</time><ele>905.6</ele></trkpt><trkpt lat="45.986686" lon="10.299412"><time>2025-04-28T09:24:00.000Z</time><ele>905.6</ele></trkpt><trkpt lat="45.986688" lon="10.299399"><time>2025-04-28T09:24:01.000Z</time><ele>905.6</ele></trkpt><trkpt lat="45.986693" lon="10.299383"><time>2025-04-28T09:24:02.000Z</time><ele>905.6</ele></trkpt><trkpt lat="45.986695" lon="10.299369"><time>2025-04-28T09:24:03.000Z</time><ele>905.6</ele></trkpt><trkpt lat="45.986701" lon="10.299347"><time>2025-04-28T09:24:04.000Z</time><ele>905.4</ele></trkpt><trkpt lat="45.98671" lon="10.299312"><time>2025-04-28T09:24:05.000Z</time><ele>905.4</ele></trkpt><trkpt lat="45.986712" lon="10.29929"><time>2025-04-28T09:24:06.000Z</time><ele>905.2</ele></trkpt><trkpt lat="45.986712" lon="10.299278"><time>2025-04-28T09:24:07.000Z</time><ele>905</ele></trkpt><trkpt lat="45.986715" lon="10.299264"><time>2025-04-28T09:24:08.000Z</time><ele>904.8</ele></trkpt><trkpt lat="45.986724" lon="10.299247"><time>2025-04-28T09:24:09.000Z</time><ele>904.6</ele></trkpt><trkpt lat="45.986739" lon="10.299227"><time>2025-04-28T09:24:10.000Z</time><ele>904.6</ele></trkpt><trkpt lat="45.98675" lon="10.299215"><time>2025-04-28T09:24:11.000Z</time><ele>904.4</ele></trkpt><trkpt lat="45.986757" lon="10.299201"><time>2025-04-28T09:24:12.000Z</time><ele>904</ele></trkpt><trkpt lat="45.986773" lon="10.299184"><time>2025-04-28T09:24:13.000Z</time><ele>903.8</ele></trkpt><trkpt lat="45.986787" lon="10.299166"><time>2025-04-28T09:24:14.000Z</time><ele>903.6</ele></trkpt><trkpt lat="45.986802" lon="10.299148"><time>2025-04-28T09:24:15.000Z</time><ele>903.6</ele></trkpt><trkpt lat="45.986817" lon="10.299132"><time>2025-04-28T09:24:16.000Z</time><ele>903.4</ele></trkpt><trkpt lat="45.986829" lon="10.299117"><time>2025-04-28T09:24:17.000Z</time><ele>903.2</ele></trkpt><trkpt lat="45.98684" lon="10.29911"><time>2025-04-28T09:24:18.000Z</time><ele>903</ele></trkpt><trkpt lat="45.986845" lon="10.299102"><time>2025-04-28T09:24:19.000Z</time><ele>902.8</ele></trkpt><trkpt lat="45.986861" lon="10.299086"><time>2025-04-28T09:24:20.000Z</time><ele>902.6</ele></trkpt><trkpt lat="45.986876" lon="10.299077"><time>2025-04-28T09:24:21.000Z</time><ele>902.4</ele></trkpt><trkpt lat="45.986891" lon="10.299071"><time>2025-04-28T09:24:22.000Z</time><ele>902.4</ele></trkpt><trkpt lat="45.986904" lon="10.299057"><time>2025-04-28T09:24:23.000Z</time><ele>902.2</ele></trkpt><trkpt lat="45.986911" lon="10.299053"><time>2025-04-28T09:24:24.000Z</time><ele>902</ele></trkpt><trkpt lat="45.986912" lon="10.299042"><time>2025-04-28T09:24:25.000Z</time><ele>901.8</ele></trkpt><trkpt lat="45.986917" lon="10.299032"><time>2025-04-28T09:24:26.000Z</time><ele>901.8</ele></trkpt><trkpt lat="45.98692" lon="10.299017"><time>2025-04-28T09:24:27.000Z</time><ele>901.8</ele></trkpt><trkpt lat="45.986929" lon="10.299007"><time>2025-04-28T09:24:28.000Z</time><ele>901.4</ele></trkpt><trkpt lat="45.986935" lon="10.298997"><time>2025-04-28T09:24:29.000Z</time><ele>901.2</ele></trkpt><trkpt lat="45.986943" lon="10.298988"><time>2025-04-28T09:24:30.000Z</time><ele>901</ele></trkpt><trkpt lat="45.986949" lon="10.298975"><time>2025-04-28T09:24:31.000Z</time><ele>900.8</ele></trkpt><trkpt lat="45.986956" lon="10.298966"><time>2025-04-28T09:24:32.000Z</time><ele>900.8</ele></trkpt><trkpt lat="45.986967" lon="10.298956"><time>2025-04-28T09:24:33.000Z</time><ele>900.2</ele></trkpt><trkpt lat="45.986973" lon="10.298945"><time>2025-04-28T09:24:34.000Z</time><ele>899.8</ele></trkpt><trkpt lat="45.986973" lon="10.29894"><time>2025-04-28T09:24:35.000Z</time><ele>899.6</ele></trkpt><trkpt lat="45.986971" lon="10.298938"><time>2025-04-28T09:24:36.000Z</time><ele>899.2</ele></trkpt><trkpt lat="45.986976" lon="10.298933"><time>2025-04-28T09:24:37.000Z</time><ele>899.2</ele></trkpt><trkpt lat="45.986978" lon="10.298927"><time>2025-04-28T09:24:38.000Z</time><ele>899</ele></trkpt><trkpt lat="45.986979" lon="10.298922"><time>2025-04-28T09:24:39.000Z</time><ele>899</ele></trkpt><trkpt lat="45.986972" lon="10.29892"><time>2025-04-28T09:24:40.000Z</time><ele>898.8</ele></trkpt><trkpt lat="45.986965" lon="10.298921"><time>2025-04-28T09:24:41.000Z</time><ele>898.8</ele></trkpt><trkpt lat="45.986967" lon="10.298919"><time>2025-04-28T09:24:42.000Z</time><ele>898.4</ele></trkpt><trkpt lat="45.986972" lon="10.298913"><time>2025-04-28T09:24:43.000Z</time><ele>898.2</ele></trkpt><trkpt lat="45.986981" lon="10.298902"><time>2025-04-28T09:24:44.000Z</time><ele>898</ele></trkpt><trkpt lat="45.986991" lon="10.29889"><time>2025-04-28T09:24:45.000Z</time><ele>897.8</ele></trkpt><trkpt lat="45.987002" lon="10.298878"><time>2025-04-28T09:24:46.000Z</time><ele>897.6</ele></trkpt><trkpt lat="45.987014" lon="10.298864"><time>2025-04-28T09:24:47.000Z</time><ele>897.6</ele></trkpt><trkpt lat="45.987022" lon="10.29885"><time>2025-04-28T09:24:48.000Z</time><ele>897.4</ele></trkpt><trkpt lat="45.987029" lon="10.298837"><time>2025-04-28T09:24:49.000Z</time><ele>897.2</ele></trkpt><trkpt lat="45.987042" lon="10.298826"><time>2025-04-28T09:24:50.000Z</time><ele>897</ele></trkpt><trkpt lat="45.987056" lon="10.298815"><time>2025-04-28T09:24:51.000Z</time><ele>896.8</ele></trkpt><trkpt lat="45.987074" lon="10.298805"><time>2025-04-28T09:24:52.000Z</time><ele>896.6</ele></trkpt><trkpt lat="45.987093" lon="10.298795"><time>2025-04-28T09:24:53.000Z</time><ele>896.2</ele></trkpt><trkpt lat="45.987113" lon="10.298784"><time>2025-04-28T09:24:54.000Z</time><ele>896.2</ele></trkpt><trkpt lat="45.987143" lon="10.298762"><time>2025-04-28T09:24:55.000Z</time><ele>896</ele></trkpt><trkpt lat="45.987164" lon="10.298735"><time>2025-04-28T09:24:56.000Z</time><ele>895.6</ele></trkpt><trkpt lat="45.987181" lon="10.298722"><time>2025-04-28T09:24:57.000Z</time><ele>895.6</ele></trkpt><trkpt lat="45.987194" lon="10.298724"><time>2025-04-28T09:24:58.000Z</time><ele>895.4</ele></trkpt><trkpt lat="45.987207" lon="10.298722"><time>2025-04-28T09:24:59.000Z</time><ele>895.4</ele></trkpt><trkpt lat="45.987219" lon="10.298722"><time>2025-04-28T09:25:00.000Z</time><ele>895.2</ele></trkpt><trkpt lat="45.987231" lon="10.298729"><time>2025-04-28T09:25:01.000Z</time><ele>895.2</ele></trkpt><trkpt lat="45.987253" lon="10.298731"><time>2025-04-28T09:25:02.000Z</time><ele>895</ele></trkpt><trkpt lat="45.987265" lon="10.298735"><time>2025-04-28T09:25:03.000Z</time><ele>894.8</ele></trkpt><trkpt lat="45.987283" lon="10.298746"><time>2025-04-28T09:25:04.000Z</time><ele>894.8</ele></trkpt><trkpt lat="45.987299" lon="10.298761"><time>2025-04-28T09:25:05.000Z</time><ele>894.6</ele></trkpt><trkpt lat="45.987309" lon="10.298781"><time>2025-04-28T09:25:06.000Z</time><ele>894.6</ele></trkpt><trkpt lat="45.987315" lon="10.298799"><time>2025-04-28T09:25:07.000Z</time><ele>894.6</ele></trkpt><trkpt lat="45.987316" lon="10.298819"><time>2025-04-28T09:25:08.000Z</time><ele>894.4</ele></trkpt><trkpt lat="45.987316" lon="10.298841"><time>2025-04-28T09:25:09.000Z</time><ele>894.2</ele></trkpt><trkpt lat="45.987314" lon="10.298866"><time>2025-04-28T09:25:10.000Z</time><ele>894.2</ele></trkpt><trkpt lat="45.987316" lon="10.298887"><time>2025-04-28T09:25:11.000Z</time><ele>894</ele></trkpt><trkpt lat="45.987323" lon="10.298909"><time>2025-04-28T09:25:12.000Z</time><ele>894</ele></trkpt><trkpt lat="45.987328" lon="10.298917"><time>2025-04-28T09:25:13.000Z</time><ele>894</ele></trkpt><trkpt lat="45.98733" lon="10.298919"><time>2025-04-28T09:25:14.000Z</time><ele>894</ele></trkpt><trkpt lat="45.987335" lon="10.298928"><time>2025-04-28T09:25:15.000Z</time><ele>894</ele></trkpt><trkpt lat="45.987335" lon="10.298933"><time>2025-04-28T09:25:16.000Z</time><ele>893.8</ele></trkpt><trkpt lat="45.987335" lon="10.298939"><time>2025-04-28T09:25:17.000Z</time><ele>893.8</ele></trkpt><trkpt lat="45.987345" lon="10.298951"><time>2025-04-28T09:25:18.000Z</time><ele>893.8</ele></trkpt><trkpt lat="45.98735" lon="10.298939"><time>2025-04-28T09:25:19.000Z</time><ele>893.8</ele></trkpt><trkpt lat="45.987352" lon="10.298927"><time>2025-04-28T09:25:20.000Z</time><ele>893.8</ele></trkpt><trkpt lat="45.987353" lon="10.298915"><time>2025-04-28T09:25:21.000Z</time><ele>893.8</ele></trkpt><trkpt lat="45.987359" lon="10.29891"><time>2025-04-28T09:25:22.000Z</time><ele>893.8</ele></trkpt><trkpt lat="45.987362" lon="10.298913"><time>2025-04-28T09:25:23.000Z</time><ele>893.8</ele></trkpt><trkpt lat="45.987366" lon="10.298918"><time>2025-04-28T09:25:24.000Z</time><ele>893.8</ele></trkpt><trkpt lat="45.98737" lon="10.298932"><time>2025-04-28T09:25:25.000Z</time><ele>893.6</ele></trkpt><trkpt lat="45.987374" lon="10.29895"><time>2025-04-28T09:25:26.000Z</time><ele>893.4</ele></trkpt><trkpt lat="45.987385" lon="10.298973"><time>2025-04-28T09:25:27.000Z</time><ele>893.4</ele></trkpt><trkpt lat="45.987394" lon="10.298994"><time>2025-04-28T09:25:28.000Z</time><ele>893.2</ele></trkpt><trkpt lat="45.987401" lon="10.299014"><time>2025-04-28T09:25:29.000Z</time><ele>893</ele></trkpt><trkpt lat="45.987406" lon="10.299032"><time>2025-04-28T09:25:30.000Z</time><ele>892.8</ele></trkpt><trkpt lat="45.987403" lon="10.29905"><time>2025-04-28T09:25:31.000Z</time><ele>892.6</ele></trkpt><trkpt lat="45.987401" lon="10.299061"><time>2025-04-28T09:25:32.000Z</time><ele>892.4</ele></trkpt><trkpt lat="45.987402" lon="10.299065"><time>2025-04-28T09:25:33.000Z</time><ele>892.2</ele></trkpt><trkpt lat="45.987408" lon="10.29907"><time>2025-04-28T09:25:34.000Z</time><ele>892.2</ele></trkpt><trkpt lat="45.987406" lon="10.299084"><time>2025-04-28T09:25:35.000Z</time><ele>892</ele></trkpt><trkpt lat="45.987403" lon="10.2991"><time>2025-04-28T09:25:36.000Z</time><ele>892</ele></trkpt><trkpt lat="45.987398" lon="10.299116"><time>2025-04-28T09:25:37.000Z</time><ele>892</ele></trkpt><trkpt lat="45.987394" lon="10.299134"><time>2025-04-28T09:25:38.000Z</time><ele>891.8</ele></trkpt><trkpt lat="45.987392" lon="10.299149"><time>2025-04-28T09:25:39.000Z</time><ele>891.8</ele></trkpt><trkpt lat="45.987398" lon="10.299158"><time>2025-04-28T09:25:40.000Z</time><ele>891.6</ele></trkpt><trkpt lat="45.987402" lon="10.299169"><time>2025-04-28T09:25:41.000Z</time><ele>891.6</ele></trkpt><trkpt lat="45.987403" lon="10.299185"><time>2025-04-28T09:25:42.000Z</time><ele>891.4</ele></trkpt><trkpt lat="45.987399" lon="10.299201"><time>2025-04-28T09:25:43.000Z</time><ele>891.4</ele></trkpt><trkpt lat="45.987394" lon="10.299217"><time>2025-04-28T09:25:44.000Z</time><ele>891.4</ele></trkpt><trkpt lat="45.987396" lon="10.299231"><time>2025-04-28T09:25:45.000Z</time><ele>891.4</ele></trkpt><trkpt lat="45.987401" lon="10.299241"><time>2025-04-28T09:25:46.000Z</time><ele>891.2</ele></trkpt><trkpt lat="45.987403" lon="10.299255"><time>2025-04-28T09:25:47.000Z</time><ele>891.2</ele></trkpt><trkpt lat="45.987407" lon="10.299275"><time>2025-04-28T09:25:48.000Z</time><ele>891.2</ele></trkpt><trkpt lat="45.987416" lon="10.2993"><time>2025-04-28T09:25:49.000Z</time><ele>891.2</ele></trkpt><trkpt lat="45.987421" lon="10.299328"><time>2025-04-28T09:25:50.000Z</time><ele>891.2</ele></trkpt><trkpt lat="45.987426" lon="10.29936"><time>2025-04-28T09:25:51.000Z</time><ele>891.2</ele></trkpt><trkpt lat="45.987432" lon="10.299388"><time>2025-04-28T09:25:52.000Z</time><ele>891.2</ele></trkpt><trkpt lat="45.987442" lon="10.299406"><time>2025-04-28T09:25:53.000Z</time><ele>891</ele></trkpt><trkpt lat="45.98745" lon="10.299424"><time>2025-04-28T09:25:54.000Z</time><ele>891</ele></trkpt><trkpt lat="45.987453" lon="10.299455"><time>2025-04-28T09:25:55.000Z</time><ele>890.8</ele></trkpt><trkpt lat="45.987458" lon="10.299493"><time>2025-04-28T09:25:56.000Z</time><ele>890.6</ele></trkpt><trkpt lat="45.987459" lon="10.299536"><time>2025-04-28T09:25:57.000Z</time><ele>890.4</ele></trkpt><trkpt lat="45.987463" lon="10.299565"><time>2025-04-28T09:25:58.000Z</time><ele>890.4</ele></trkpt><trkpt lat="45.987462" lon="10.299589"><time>2025-04-28T09:25:59.000Z</time><ele>890.4</ele></trkpt><trkpt lat="45.987467" lon="10.299604"><time>2025-04-28T09:26:00.000Z</time><ele>890.2</ele></trkpt><trkpt lat="45.987472" lon="10.299621"><time>2025-04-28T09:26:01.000Z</time><ele>890.2</ele></trkpt><trkpt lat="45.987475" lon="10.299646"><time>2025-04-28T09:26:02.000Z</time><ele>890.2</ele></trkpt><trkpt lat="45.987476" lon="10.299685"><time>2025-04-28T09:26:03.000Z</time><ele>890.2</ele></trkpt><trkpt lat="45.987472" lon="10.299713"><time>2025-04-28T09:26:04.000Z</time><ele>890</ele></trkpt><trkpt lat="45.987473" lon="10.299748"><time>2025-04-28T09:26:05.000Z</time><ele>889.8</ele></trkpt><trkpt lat="45.987476" lon="10.299749"><time>2025-04-28T09:26:06.000Z</time><ele>889.6</ele></trkpt><trkpt lat="45.987486" lon="10.299762"><time>2025-04-28T09:26:07.000Z</time><ele>889.6</ele></trkpt><trkpt lat="45.987492" lon="10.299779"><time>2025-04-28T09:26:08.000Z</time><ele>889.6</ele></trkpt><trkpt lat="45.987498" lon="10.299801"><time>2025-04-28T09:26:09.000Z</time><ele>889.6</ele></trkpt><trkpt lat="45.987506" lon="10.299811"><time>2025-04-28T09:26:10.000Z</time><ele>889.4</ele></trkpt><trkpt lat="45.987512" lon="10.299824"><time>2025-04-28T09:26:11.000Z</time><ele>889.2</ele></trkpt><trkpt lat="45.987516" lon="10.299833"><time>2025-04-28T09:26:12.000Z</time><ele>889.2</ele></trkpt><trkpt lat="45.987526" lon="10.299834"><time>2025-04-28T09:26:13.000Z</time><ele>889</ele></trkpt><trkpt lat="45.987538" lon="10.299845"><time>2025-04-28T09:26:14.000Z</time><ele>888.8</ele></trkpt><trkpt lat="45.987541" lon="10.299863"><time>2025-04-28T09:26:15.000Z</time><ele>888.8</ele></trkpt><trkpt lat="45.987541" lon="10.299892"><time>2025-04-28T09:26:16.000Z</time><ele>888.6</ele></trkpt><trkpt lat="45.987541" lon="10.299917"><time>2025-04-28T09:26:17.000Z</time><ele>888.4</ele></trkpt><trkpt lat="45.98755" lon="10.299926"><time>2025-04-28T09:26:18.000Z</time><ele>888.4</ele></trkpt><trkpt lat="45.987558" lon="10.299937"><time>2025-04-28T09:26:19.000Z</time><ele>888.2</ele></trkpt><trkpt lat="45.98757" lon="10.299949"><time>2025-04-28T09:26:20.000Z</time><ele>888.2</ele></trkpt><trkpt lat="45.987579" lon="10.299966"><time>2025-04-28T09:26:21.000Z</time><ele>888</ele></trkpt><trkpt lat="45.987582" lon="10.299979"><time>2025-04-28T09:26:22.000Z</time><ele>887.8</ele></trkpt><trkpt lat="45.987582" lon="10.299993"><time>2025-04-28T09:26:23.000Z</time><ele>887.8</ele></trkpt><trkpt lat="45.987585" lon="10.300003"><time>2025-04-28T09:26:24.000Z</time><ele>887.6</ele></trkpt><trkpt lat="45.987589" lon="10.300018"><time>2025-04-28T09:26:25.000Z</time><ele>887.6</ele></trkpt><trkpt lat="45.987595" lon="10.300028"><time>2025-04-28T09:26:26.000Z</time><ele>887.4</ele></trkpt><trkpt lat="45.9876" lon="10.300041"><time>2025-04-28T09:26:27.000Z</time><ele>887.4</ele></trkpt><trkpt lat="45.987608" lon="10.300056"><time>2025-04-28T09:26:28.000Z</time><ele>887.2</ele></trkpt><trkpt lat="45.987616" lon="10.300066"><time>2025-04-28T09:26:29.000Z</time><ele>887</ele></trkpt><trkpt lat="45.987623" lon="10.300075"><time>2025-04-28T09:26:30.000Z</time><ele>887</ele></trkpt><trkpt lat="45.987626" lon="10.300092"><time>2025-04-28T09:26:31.000Z</time><ele>886.8</ele></trkpt><trkpt lat="45.987628" lon="10.30011"><time>2025-04-28T09:26:32.000Z</time><ele>886.6</ele></trkpt><trkpt lat="45.98763" lon="10.300123"><time>2025-04-28T09:26:33.000Z</time><ele>886.4</ele></trkpt><trkpt lat="45.987631" lon="10.300137"><time>2025-04-28T09:26:34.000Z</time><ele>886.2</ele></trkpt><trkpt lat="45.987634" lon="10.300147"><time>2025-04-28T09:26:35.000Z</time><ele>886</ele></trkpt><trkpt lat="45.987637" lon="10.300148"><time>2025-04-28T09:26:36.000Z</time><ele>885.8</ele></trkpt><trkpt lat="45.987646" lon="10.300158"><time>2025-04-28T09:26:37.000Z</time><ele>885.8</ele></trkpt><trkpt lat="45.98765" lon="10.300166"><time>2025-04-28T09:26:38.000Z</time><ele>885.6</ele></trkpt><trkpt lat="45.98765" lon="10.300176"><time>2025-04-28T09:26:39.000Z</time><ele>885.6</ele></trkpt><trkpt lat="45.98765" lon="10.300191"><time>2025-04-28T09:26:40.000Z</time><ele>885.4</ele></trkpt><trkpt lat="45.987652" lon="10.300205"><time>2025-04-28T09:26:41.000Z</time><ele>885.4</ele></trkpt><trkpt lat="45.987651" lon="10.300222"><time>2025-04-28T09:26:42.000Z</time><ele>885.2</ele></trkpt><trkpt lat="45.987653" lon="10.300239"><time>2025-04-28T09:26:43.000Z</time><ele>885</ele></trkpt><trkpt lat="45.987655" lon="10.300248"><time>2025-04-28T09:26:44.000Z</time><ele>884.8</ele></trkpt><trkpt lat="45.987658" lon="10.300261"><time>2025-04-28T09:26:45.000Z</time><ele>884.6</ele></trkpt><trkpt lat="45.987664" lon="10.300276"><time>2025-04-28T09:26:46.000Z</time><ele>884.4</ele></trkpt><trkpt lat="45.987667" lon="10.300286"><time>2025-04-28T09:26:47.000Z</time><ele>884.4</ele></trkpt><trkpt lat="45.987664" lon="10.300299"><time>2025-04-28T09:26:48.000Z</time><ele>884.2</ele></trkpt><trkpt lat="45.987657" lon="10.300307"><time>2025-04-28T09:26:49.000Z</time><ele>884</ele></trkpt><trkpt lat="45.987654" lon="10.300315"><time>2025-04-28T09:26:50.000Z</time><ele>884</ele></trkpt><trkpt lat="45.987651" lon="10.300322"><time>2025-04-28T09:26:51.000Z</time><ele>883.6</ele></trkpt><trkpt lat="45.98765" lon="10.300324"><time>2025-04-28T09:26:52.000Z</time><ele>883.6</ele></trkpt><trkpt lat="45.987651" lon="10.300323"><time>2025-04-28T09:26:53.000Z</time><ele>883.4</ele></trkpt><trkpt lat="45.987651" lon="10.300324"><time>2025-04-28T09:26:54.000Z</time><ele>883.4</ele></trkpt><trkpt lat="45.987651" lon="10.300326"><time>2025-04-28T09:26:55.000Z</time><ele>883.4</ele></trkpt><trkpt lat="45.987651" lon="10.300326"><time>2025-04-28T09:26:56.000Z</time><ele>883.2</ele></trkpt><trkpt lat="45.987651" lon="10.300326"><time>2025-04-28T09:26:57.000Z</time><ele>883.2</ele></trkpt><trkpt lat="45.987651" lon="10.300327"><time>2025-04-28T09:26:58.000Z</time><ele>883.2</ele></trkpt><trkpt lat="45.987651" lon="10.300328"><time>2025-04-28T09:26:59.000Z</time><ele>883.2</ele></trkpt><trkpt lat="45.987652" lon="10.300331"><time>2025-04-28T09:27:00.000Z</time><ele>883.2</ele></trkpt><trkpt lat="45.987651" lon="10.300334"><time>2025-04-28T09:27:01.000Z</time><ele>883.2</ele></trkpt><trkpt lat="45.98765" lon="10.30034"><time>2025-04-28T09:27:02.000Z</time><ele>883.2</ele></trkpt><trkpt lat="45.987648" lon="10.300346"><time>2025-04-28T09:27:03.000Z</time><ele>883.2</ele></trkpt><trkpt lat="45.987649" lon="10.300358"><time>2025-04-28T09:27:04.000Z</time><ele>883</ele></trkpt><trkpt lat="45.98765" lon="10.300366"><time>2025-04-28T09:27:05.000Z</time><ele>883</ele></trkpt><trkpt lat="45.987652" lon="10.300371"><time>2025-04-28T09:27:06.000Z</time><ele>883</ele></trkpt><trkpt lat="45.987651" lon="10.300371"><time>2025-04-28T09:27:07.000Z</time><ele>882.8</ele></trkpt><trkpt lat="45.987649" lon="10.300371"><time>2025-04-28T09:27:08.000Z</time><ele>882.8</ele></trkpt><trkpt lat="45.987648" lon="10.300372"><time>2025-04-28T09:27:09.000Z</time><ele>882.6</ele></trkpt><trkpt lat="45.987649" lon="10.300371"><time>2025-04-28T09:27:10.000Z</time><ele>882.6</ele></trkpt><trkpt lat="45.987651" lon="10.300369"><time>2025-04-28T09:27:11.000Z</time><ele>882.6</ele></trkpt><trkpt lat="45.987652" lon="10.300368"><time>2025-04-28T09:27:12.000Z</time><ele>882.4</ele></trkpt><trkpt lat="45.987652" lon="10.300368"><time>2025-04-28T09:27:13.000Z</time><ele>882.4</ele></trkpt><trkpt lat="45.987652" lon="10.300368"><time>2025-04-28T09:27:14.000Z</time><ele>882.4</ele></trkpt><trkpt lat="45.987652" lon="10.300368"><time>2025-04-28T09:27:15.000Z</time><ele>882.4</ele></trkpt><trkpt lat="45.987652" lon="10.300368"><time>2025-04-28T09:27:16.000Z</time><ele>882.4</ele></trkpt><trkpt lat="45.987652" lon="10.300368"><time>2025-04-28T09:27:17.000Z</time><ele>882.4</ele></trkpt><trkpt lat="45.987652" lon="10.300368"><time>2025-04-28T09:27:18.000Z</time><ele>882.4</ele></trkpt><trkpt lat="45.987652" lon="10.300368"><time>2025-04-28T09:27:19.000Z</time><ele>882.4</ele></trkpt><trkpt lat="45.987652" lon="10.300368"><time>2025-04-28T09:27:20.000Z</time><ele>882.4</ele></trkpt><trkpt lat="45.987652" lon="10.300368"><time>2025-04-28T09:27:21.000Z</time><ele>882.4</ele></trkpt><trkpt lat="45.987652" lon="10.300368"><time>2025-04-28T09:27:22.000Z</time><ele>882.4</ele></trkpt><trkpt lat="45.987652" lon="10.300368"><time>2025-04-28T09:27:23.000Z</time><ele>882.4</ele></trkpt><trkpt lat="45.987652" lon="10.300368"><time>2025-04-28T09:27:24.000Z</time><ele>882.4</ele></trkpt><trkpt lat="45.987652" lon="10.300368"><time>2025-04-28T09:27:25.000Z</time><ele>882.4</ele></trkpt><trkpt lat="45.987652" lon="10.300368"><time>2025-04-28T09:27:26.000Z</time><ele>882.2</ele></trkpt><trkpt lat="45.987651" lon="10.300368"><time>2025-04-28T09:27:27.000Z</time><ele>882.2</ele></trkpt><trkpt lat="45.987651" lon="10.300368"><time>2025-04-28T09:27:28.000Z</time><ele>882</ele></trkpt><trkpt lat="45.987651" lon="10.300368"><time>2025-04-28T09:27:29.000Z</time><ele>882</ele></trkpt><trkpt lat="45.987651" lon="10.300368"><time>2025-04-28T09:27:30.000Z</time><ele>881.8</ele></trkpt><trkpt lat="45.987651" lon="10.300369"><time>2025-04-28T09:27:31.000Z</time><ele>881.8</ele></trkpt><trkpt lat="45.987651" lon="10.30037"><time>2025-04-28T09:27:32.000Z</time><ele>881.8</ele></trkpt><trkpt lat="45.987651" lon="10.300371"><time>2025-04-28T09:27:33.000Z</time><ele>881.6</ele></trkpt><trkpt lat="45.987651" lon="10.300371"><time>2025-04-28T09:27:34.000Z</time><ele>881.4</ele></trkpt><trkpt lat="45.987651" lon="10.300371"><time>2025-04-28T09:27:35.000Z</time><ele>881.4</ele></trkpt><trkpt lat="45.987651" lon="10.300371"><time>2025-04-28T09:27:36.000Z</time><ele>881.4</ele></trkpt><trkpt lat="45.987651" lon="10.300371"><time>2025-04-28T09:27:37.000Z</time><ele>881.4</ele></trkpt><trkpt lat="45.987651" lon="10.300372"><time>2025-04-28T09:27:38.000Z</time><ele>881.4</ele></trkpt><trkpt lat="45.987651" lon="10.300373"><time>2025-04-28T09:27:39.000Z</time><ele>881.4</ele></trkpt><trkpt lat="45.987651" lon="10.300379"><time>2025-04-28T09:27:40.000Z</time><ele>881.4</ele></trkpt><trkpt lat="45.987651" lon="10.300384"><time>2025-04-28T09:27:41.000Z</time><ele>881.4</ele></trkpt><trkpt lat="45.987651" lon="10.300388"><time>2025-04-28T09:27:42.000Z</time><ele>881.2</ele></trkpt><trkpt lat="45.98765" lon="10.300392"><time>2025-04-28T09:27:43.000Z</time><ele>881.2</ele></trkpt><trkpt lat="45.98765" lon="10.300396"><time>2025-04-28T09:27:44.000Z</time><ele>881</ele></trkpt><trkpt lat="45.98765" lon="10.3004"><time>2025-04-28T09:27:45.000Z</time><ele>880.8</ele></trkpt><trkpt lat="45.98765" lon="10.300409"><time>2025-04-28T09:27:46.000Z</time><ele>880.8</ele></trkpt><trkpt lat="45.98765" lon="10.300415"><time>2025-04-28T09:27:47.000Z</time><ele>880.6</ele></trkpt><trkpt lat="45.98765" lon="10.300427"><time>2025-04-28T09:27:48.000Z</time><ele>880.6</ele></trkpt><trkpt lat="45.987654" lon="10.300453"><time>2025-04-28T09:27:49.000Z</time><ele>880.4</ele></trkpt><trkpt lat="45.987655" lon="10.300467"><time>2025-04-28T09:27:50.000Z</time><ele>880.2</ele></trkpt><trkpt lat="45.987661" lon="10.300485"><time>2025-04-28T09:27:51.000Z</time><ele>880</ele></trkpt><trkpt lat="45.987663" lon="10.300508"><time>2025-04-28T09:27:52.000Z</time><ele>880</ele></trkpt><trkpt lat="45.987663" lon="10.300527"><time>2025-04-28T09:27:53.000Z</time><ele>880</ele></trkpt><trkpt lat="45.987663" lon="10.300543"><time>2025-04-28T09:27:54.000Z</time><ele>880</ele></trkpt><trkpt lat="45.987671" lon="10.30056"><time>2025-04-28T09:27:55.000Z</time><ele>879.8</ele></trkpt><trkpt lat="45.987672" lon="10.300579"><time>2025-04-28T09:27:56.000Z</time><ele>879.6</ele></trkpt><trkpt lat="45.987674" lon="10.300601"><time>2025-04-28T09:27:57.000Z</time><ele>879.6</ele></trkpt><trkpt lat="45.987674" lon="10.300616"><time>2025-04-28T09:27:58.000Z</time><ele>879.4</ele></trkpt><trkpt lat="45.987676" lon="10.300617"><time>2025-04-28T09:27:59.000Z</time><ele>879.4</ele></trkpt><trkpt lat="45.987678" lon="10.300619"><time>2025-04-28T09:28:00.000Z</time><ele>879.4</ele></trkpt><trkpt lat="45.987679" lon="10.30062"><time>2025-04-28T09:28:01.000Z</time><ele>879.2</ele></trkpt><trkpt lat="45.987678" lon="10.30062"><time>2025-04-28T09:28:02.000Z</time><ele>879.4</ele></trkpt><trkpt lat="45.987677" lon="10.300619"><time>2025-04-28T09:28:03.000Z</time><ele>879.2</ele></trkpt><trkpt lat="45.987678" lon="10.300612"><time>2025-04-28T09:28:04.000Z</time><ele>879.2</ele></trkpt><trkpt lat="45.987676" lon="10.300605"><time>2025-04-28T09:28:05.000Z</time><ele>879.2</ele></trkpt><trkpt lat="45.987678" lon="10.300601"><time>2025-04-28T09:28:06.000Z</time><ele>879.2</ele></trkpt><trkpt lat="45.987681" lon="10.300605"><time>2025-04-28T09:28:07.000Z</time><ele>879.2</ele></trkpt><trkpt lat="45.987682" lon="10.300604"><time>2025-04-28T09:28:08.000Z</time><ele>879</ele></trkpt><trkpt lat="45.987684" lon="10.300605"><time>2025-04-28T09:28:09.000Z</time><ele>879</ele></trkpt><trkpt lat="45.987684" lon="10.300605"><time>2025-04-28T09:28:10.000Z</time><ele>879</ele></trkpt><trkpt lat="45.987688" lon="10.300606"><time>2025-04-28T09:28:11.000Z</time><ele>879</ele></trkpt><trkpt lat="45.987689" lon="10.300603"><time>2025-04-28T09:28:12.000Z</time><ele>879</ele></trkpt><trkpt lat="45.98769" lon="10.300607"><time>2025-04-28T09:28:13.000Z</time><ele>878.8</ele></trkpt><trkpt lat="45.987693" lon="10.300612"><time>2025-04-28T09:28:14.000Z</time><ele>878.8</ele></trkpt><trkpt lat="45.987694" lon="10.300614"><time>2025-04-28T09:28:15.000Z</time><ele>878.8</ele></trkpt><trkpt lat="45.987695" lon="10.300621"><time>2025-04-28T09:28:16.000Z</time><ele>878.8</ele></trkpt><trkpt lat="45.987698" lon="10.300629"><time>2025-04-28T09:28:17.000Z</time><ele>878.8</ele></trkpt><trkpt lat="45.987699" lon="10.300644"><time>2025-04-28T09:28:18.000Z</time><ele>878.8</ele></trkpt><trkpt lat="45.987692" lon="10.300668"><time>2025-04-28T09:28:19.000Z</time><ele>878.8</ele></trkpt><trkpt lat="45.987689" lon="10.300687"><time>2025-04-28T09:28:20.000Z</time><ele>878.6</ele></trkpt><trkpt lat="45.987682" lon="10.300712"><time>2025-04-28T09:28:21.000Z</time><ele>878.6</ele></trkpt><trkpt lat="45.987681" lon="10.300735"><time>2025-04-28T09:28:22.000Z</time><ele>878.4</ele></trkpt><trkpt lat="45.987683" lon="10.300755"><time>2025-04-28T09:28:23.000Z</time><ele>878.2</ele></trkpt><trkpt lat="45.987688" lon="10.300775"><time>2025-04-28T09:28:24.000Z</time><ele>878</ele></trkpt><trkpt lat="45.987689" lon="10.300795"><time>2025-04-28T09:28:25.000Z</time><ele>878</ele></trkpt><trkpt lat="45.987685" lon="10.300814"><time>2025-04-28T09:28:26.000Z</time><ele>878</ele></trkpt><trkpt lat="45.987689" lon="10.300832"><time>2025-04-28T09:28:27.000Z</time><ele>877.6</ele></trkpt><trkpt lat="45.987692" lon="10.300853"><time>2025-04-28T09:28:28.000Z</time><ele>877.6</ele></trkpt><trkpt lat="45.987692" lon="10.300879"><time>2025-04-28T09:28:29.000Z</time><ele>877.2</ele></trkpt><trkpt lat="45.987691" lon="10.300908"><time>2025-04-28T09:28:30.000Z</time><ele>877</ele></trkpt><trkpt lat="45.987688" lon="10.300931"><time>2025-04-28T09:28:31.000Z</time><ele>876.6</ele></trkpt><trkpt lat="45.987684" lon="10.300952"><time>2025-04-28T09:28:32.000Z</time><ele>876.4</ele></trkpt><trkpt lat="45.987685" lon="10.300971"><time>2025-04-28T09:28:33.000Z</time><ele>876.2</ele></trkpt><trkpt lat="45.987684" lon="10.300988"><time>2025-04-28T09:28:34.000Z</time><ele>876</ele></trkpt><trkpt lat="45.987686" lon="10.301006"><time>2025-04-28T09:28:35.000Z</time><ele>875.8</ele></trkpt><trkpt lat="45.987691" lon="10.301022"><time>2025-04-28T09:28:36.000Z</time><ele>875.6</ele></trkpt><trkpt lat="45.987695" lon="10.301044"><time>2025-04-28T09:28:37.000Z</time><ele>875.4</ele></trkpt><trkpt lat="45.987699" lon="10.301062"><time>2025-04-28T09:28:38.000Z</time><ele>875.2</ele></trkpt><trkpt lat="45.987699" lon="10.301081"><time>2025-04-28T09:28:39.000Z</time><ele>875.2</ele></trkpt><trkpt lat="45.987693" lon="10.301097"><time>2025-04-28T09:28:40.000Z</time><ele>875</ele></trkpt><trkpt lat="45.987693" lon="10.301114"><time>2025-04-28T09:28:41.000Z</time><ele>874.8</ele></trkpt><trkpt lat="45.987687" lon="10.301128"><time>2025-04-28T09:28:42.000Z</time><ele>874.6</ele></trkpt><trkpt lat="45.987684" lon="10.30114"><time>2025-04-28T09:28:43.000Z</time><ele>874.4</ele></trkpt><trkpt lat="45.987683" lon="10.30116"><time>2025-04-28T09:28:44.000Z</time><ele>874.4</ele></trkpt><trkpt lat="45.987682" lon="10.301185"><time>2025-04-28T09:28:45.000Z</time><ele>874.2</ele></trkpt><trkpt lat="45.987696" lon="10.301202"><time>2025-04-28T09:28:46.000Z</time><ele>874.2</ele></trkpt><trkpt lat="45.987695" lon="10.30123"><time>2025-04-28T09:28:47.000Z</time><ele>874.2</ele></trkpt><trkpt lat="45.987705" lon="10.301255"><time>2025-04-28T09:28:48.000Z</time><ele>874</ele></trkpt><trkpt lat="45.987711" lon="10.301278"><time>2025-04-28T09:28:49.000Z</time><ele>874</ele></trkpt><trkpt lat="45.987713" lon="10.3013"><time>2025-04-28T09:28:50.000Z</time><ele>873.8</ele></trkpt><trkpt lat="45.987716" lon="10.30132"><time>2025-04-28T09:28:51.000Z</time><ele>873.8</ele></trkpt><trkpt lat="45.987711" lon="10.301355"><time>2025-04-28T09:28:52.000Z</time><ele>873.6</ele></trkpt><trkpt lat="45.987716" lon="10.301377"><time>2025-04-28T09:28:53.000Z</time><ele>873.6</ele></trkpt><trkpt lat="45.987723" lon="10.301393"><time>2025-04-28T09:28:54.000Z</time><ele>873.4</ele></trkpt><trkpt lat="45.987731" lon="10.301408"><time>2025-04-28T09:28:55.000Z</time><ele>873.4</ele></trkpt><trkpt lat="45.987733" lon="10.301426"><time>2025-04-28T09:28:56.000Z</time><ele>873.2</ele></trkpt><trkpt lat="45.987739" lon="10.301441"><time>2025-04-28T09:28:57.000Z</time><ele>873.2</ele></trkpt><trkpt lat="45.98774" lon="10.301454"><time>2025-04-28T09:28:58.000Z</time><ele>873.2</ele></trkpt><trkpt lat="45.987741" lon="10.301471"><time>2025-04-28T09:28:59.000Z</time><ele>873</ele></trkpt><trkpt lat="45.987748" lon="10.30149"><time>2025-04-28T09:29:00.000Z</time><ele>873</ele></trkpt><trkpt lat="45.987752" lon="10.301508"><time>2025-04-28T09:29:01.000Z</time><ele>873</ele></trkpt><trkpt lat="45.98776" lon="10.301526"><time>2025-04-28T09:29:02.000Z</time><ele>873</ele></trkpt><trkpt lat="45.987768" lon="10.301543"><time>2025-04-28T09:29:03.000Z</time><ele>872.8</ele></trkpt><trkpt lat="45.987774" lon="10.301559"><time>2025-04-28T09:29:04.000Z</time><ele>872.8</ele></trkpt><trkpt lat="45.987779" lon="10.301573"><time>2025-04-28T09:29:05.000Z</time><ele>872.8</ele></trkpt><trkpt lat="45.987784" lon="10.301593"><time>2025-04-28T09:29:06.000Z</time><ele>872.8</ele></trkpt><trkpt lat="45.987795" lon="10.301611"><time>2025-04-28T09:29:07.000Z</time><ele>872.8</ele></trkpt><trkpt lat="45.987807" lon="10.301624"><time>2025-04-28T09:29:08.000Z</time><ele>872.8</ele></trkpt><trkpt lat="45.987818" lon="10.301638"><time>2025-04-28T09:29:09.000Z</time><ele>872.8</ele></trkpt><trkpt lat="45.987827" lon="10.301652"><time>2025-04-28T09:29:10.000Z</time><ele>872.6</ele></trkpt><trkpt lat="45.987839" lon="10.301665"><time>2025-04-28T09:29:11.000Z</time><ele>872.6</ele></trkpt><trkpt lat="45.987849" lon="10.301679"><time>2025-04-28T09:29:12.000Z</time><ele>872.4</ele></trkpt><trkpt lat="45.987853" lon="10.301699"><time>2025-04-28T09:29:13.000Z</time><ele>872.2</ele></trkpt><trkpt lat="45.987855" lon="10.301721"><time>2025-04-28T09:29:14.000Z</time><ele>872.2</ele></trkpt><trkpt lat="45.987855" lon="10.301744"><time>2025-04-28T09:29:15.000Z</time><ele>872.2</ele></trkpt><trkpt lat="45.987861" lon="10.301767"><time>2025-04-28T09:29:16.000Z</time><ele>872</ele></trkpt><trkpt lat="45.987871" lon="10.301786"><time>2025-04-28T09:29:17.000Z</time><ele>872</ele></trkpt><trkpt lat="45.987879" lon="10.301805"><time>2025-04-28T09:29:18.000Z</time><ele>872</ele></trkpt><trkpt lat="45.98788" lon="10.301818"><time>2025-04-28T09:29:19.000Z</time><ele>872</ele></trkpt><trkpt lat="45.987883" lon="10.301819"><time>2025-04-28T09:29:20.000Z</time><ele>872</ele></trkpt><trkpt lat="45.987885" lon="10.301824"><time>2025-04-28T09:29:21.000Z</time><ele>871.8</ele></trkpt><trkpt lat="45.987878" lon="10.301841"><time>2025-04-28T09:29:22.000Z</time><ele>871.8</ele></trkpt><trkpt lat="45.987869" lon="10.30186"><time>2025-04-28T09:29:23.000Z</time><ele>871.6</ele></trkpt><trkpt lat="45.987866" lon="10.301879"><time>2025-04-28T09:29:24.000Z</time><ele>871.6</ele></trkpt><trkpt lat="45.987867" lon="10.301892"><time>2025-04-28T09:29:25.000Z</time><ele>871.6</ele></trkpt><trkpt lat="45.987862" lon="10.30191"><time>2025-04-28T09:29:26.000Z</time><ele>871.6</ele></trkpt><trkpt lat="45.987855" lon="10.301929"><time>2025-04-28T09:29:27.000Z</time><ele>871.4</ele></trkpt><trkpt lat="45.987846" lon="10.301957"><time>2025-04-28T09:29:28.000Z</time><ele>871.4</ele></trkpt><trkpt lat="45.987838" lon="10.30198"><time>2025-04-28T09:29:29.000Z</time><ele>871.2</ele></trkpt><trkpt lat="45.987826" lon="10.302001"><time>2025-04-28T09:29:30.000Z</time><ele>871</ele></trkpt><trkpt lat="45.987816" lon="10.302021"><time>2025-04-28T09:29:31.000Z</time><ele>871</ele></trkpt><trkpt lat="45.987811" lon="10.302042"><time>2025-04-28T09:29:32.000Z</time><ele>870.8</ele></trkpt><trkpt lat="45.987804" lon="10.302061"><time>2025-04-28T09:29:33.000Z</time><ele>870.8</ele></trkpt><trkpt lat="45.987798" lon="10.302087"><time>2025-04-28T09:29:34.000Z</time><ele>870.6</ele></trkpt><trkpt lat="45.987794" lon="10.302113"><time>2025-04-28T09:29:35.000Z</time><ele>870.4</ele></trkpt><trkpt lat="45.987794" lon="10.302135"><time>2025-04-28T09:29:36.000Z</time><ele>870.2</ele></trkpt><trkpt lat="45.987795" lon="10.302155"><time>2025-04-28T09:29:37.000Z</time><ele>870</ele></trkpt><trkpt lat="45.987805" lon="10.302186"><time>2025-04-28T09:29:38.000Z</time><ele>870</ele></trkpt><trkpt lat="45.987812" lon="10.302212"><time>2025-04-28T09:29:39.000Z</time><ele>870</ele></trkpt><trkpt lat="45.98782" lon="10.302236"><time>2025-04-28T09:29:40.000Z</time><ele>869.8</ele></trkpt><trkpt lat="45.987826" lon="10.30226"><time>2025-04-28T09:29:41.000Z</time><ele>869.6</ele></trkpt><trkpt lat="45.987836" lon="10.302274"><time>2025-04-28T09:29:42.000Z</time><ele>869.6</ele></trkpt><trkpt lat="45.987841" lon="10.302297"><time>2025-04-28T09:29:43.000Z</time><ele>869.4</ele></trkpt><trkpt lat="45.987853" lon="10.302319"><time>2025-04-28T09:29:44.000Z</time><ele>869.4</ele></trkpt><trkpt lat="45.987862" lon="10.302346"><time>2025-04-28T09:29:45.000Z</time><ele>869.2</ele></trkpt><trkpt lat="45.987868" lon="10.302371"><time>2025-04-28T09:29:46.000Z</time><ele>869.2</ele></trkpt><trkpt lat="45.987878" lon="10.302396"><time>2025-04-28T09:29:47.000Z</time><ele>868.8</ele></trkpt><trkpt lat="45.987884" lon="10.302414"><time>2025-04-28T09:29:48.000Z</time><ele>868.6</ele></trkpt><trkpt lat="45.987886" lon="10.302429"><time>2025-04-28T09:29:49.000Z</time><ele>868</ele></trkpt><trkpt lat="45.987888" lon="10.302447"><time>2025-04-28T09:29:50.000Z</time><ele>867.8</ele></trkpt><trkpt lat="45.987892" lon="10.302462"><time>2025-04-28T09:29:51.000Z</time><ele>867.6</ele></trkpt><trkpt lat="45.9879" lon="10.302487"><time>2025-04-28T09:29:52.000Z</time><ele>867.4</ele></trkpt><trkpt lat="45.987908" lon="10.302513"><time>2025-04-28T09:29:53.000Z</time><ele>867.2</ele></trkpt><trkpt lat="45.987912" lon="10.302537"><time>2025-04-28T09:29:54.000Z</time><ele>867</ele></trkpt><trkpt lat="45.987911" lon="10.302566"><time>2025-04-28T09:29:55.000Z</time><ele>867</ele></trkpt><trkpt lat="45.987919" lon="10.302579"><time>2025-04-28T09:29:56.000Z</time><ele>866.8</ele></trkpt><trkpt lat="45.987924" lon="10.302598"><time>2025-04-28T09:29:57.000Z</time><ele>866.8</ele></trkpt><trkpt lat="45.98793" lon="10.302616"><time>2025-04-28T09:29:58.000Z</time><ele>866.6</ele></trkpt><trkpt lat="45.98794" lon="10.302635"><time>2025-04-28T09:29:59.000Z</time><ele>866.6</ele></trkpt><trkpt lat="45.98795" lon="10.302648"><time>2025-04-28T09:30:00.000Z</time><ele>866.6</ele></trkpt><trkpt lat="45.987961" lon="10.302662"><time>2025-04-28T09:30:01.000Z</time><ele>866.4</ele></trkpt><trkpt lat="45.98797" lon="10.302676"><time>2025-04-28T09:30:02.000Z</time><ele>866.4</ele></trkpt><trkpt lat="45.987978" lon="10.302692"><time>2025-04-28T09:30:03.000Z</time><ele>866.4</ele></trkpt><trkpt lat="45.987986" lon="10.302707"><time>2025-04-28T09:30:04.000Z</time><ele>866.4</ele></trkpt><trkpt lat="45.987996" lon="10.302719"><time>2025-04-28T09:30:05.000Z</time><ele>866.2</ele></trkpt><trkpt lat="45.988008" lon="10.30273"><time>2025-04-28T09:30:06.000Z</time><ele>866.2</ele></trkpt><trkpt lat="45.988011" lon="10.30275"><time>2025-04-28T09:30:07.000Z</time><ele>866.2</ele></trkpt><trkpt lat="45.988006" lon="10.302773"><time>2025-04-28T09:30:08.000Z</time><ele>866.2</ele></trkpt><trkpt lat="45.988008" lon="10.302788"><time>2025-04-28T09:30:09.000Z</time><ele>866</ele></trkpt><trkpt lat="45.988015" lon="10.302803"><time>2025-04-28T09:30:10.000Z</time><ele>866</ele></trkpt><trkpt lat="45.98802" lon="10.30282"><time>2025-04-28T09:30:11.000Z</time><ele>866</ele></trkpt><trkpt lat="45.98802" lon="10.302837"><time>2025-04-28T09:30:12.000Z</time><ele>866</ele></trkpt><trkpt lat="45.988025" lon="10.302859"><time>2025-04-28T09:30:13.000Z</time><ele>866</ele></trkpt><trkpt lat="45.98803" lon="10.302876"><time>2025-04-28T09:30:14.000Z</time><ele>866</ele></trkpt><trkpt lat="45.988036" lon="10.302893"><time>2025-04-28T09:30:15.000Z</time><ele>865.8</ele></trkpt><trkpt lat="45.988035" lon="10.302916"><time>2025-04-28T09:30:16.000Z</time><ele>865.8</ele></trkpt><trkpt lat="45.988039" lon="10.30294"><time>2025-04-28T09:30:17.000Z</time><ele>865.8</ele></trkpt><trkpt lat="45.988043" lon="10.302961"><time>2025-04-28T09:30:18.000Z</time><ele>865.8</ele></trkpt><trkpt lat="45.988048" lon="10.302983"><time>2025-04-28T09:30:19.000Z</time><ele>865.6</ele></trkpt><trkpt lat="45.988053" lon="10.303005"><time>2025-04-28T09:30:20.000Z</time><ele>865.6</ele></trkpt><trkpt lat="45.988057" lon="10.303039"><time>2025-04-28T09:30:21.000Z</time><ele>865.6</ele></trkpt><trkpt lat="45.988067" lon="10.303061"><time>2025-04-28T09:30:22.000Z</time><ele>865.4</ele></trkpt><trkpt lat="45.988068" lon="10.303085"><time>2025-04-28T09:30:23.000Z</time><ele>865.2</ele></trkpt><trkpt lat="45.988077" lon="10.303094"><time>2025-04-28T09:30:24.000Z</time><ele>865.2</ele></trkpt><trkpt lat="45.988089" lon="10.303104"><time>2025-04-28T09:30:25.000Z</time><ele>865</ele></trkpt><trkpt lat="45.988101" lon="10.303116"><time>2025-04-28T09:30:26.000Z</time><ele>865</ele></trkpt><trkpt lat="45.988113" lon="10.303126"><time>2025-04-28T09:30:27.000Z</time><ele>864.8</ele></trkpt><trkpt lat="45.988129" lon="10.303134"><time>2025-04-28T09:30:28.000Z</time><ele>864.8</ele></trkpt><trkpt lat="45.988141" lon="10.303148"><time>2025-04-28T09:30:29.000Z</time><ele>864.8</ele></trkpt><trkpt lat="45.988151" lon="10.303158"><time>2025-04-28T09:30:30.000Z</time><ele>864.6</ele></trkpt><trkpt lat="45.988161" lon="10.303175"><time>2025-04-28T09:30:31.000Z</time><ele>864.6</ele></trkpt><trkpt lat="45.988169" lon="10.30319"><time>2025-04-28T09:30:32.000Z</time><ele>864.4</ele></trkpt><trkpt lat="45.988171" lon="10.30321"><time>2025-04-28T09:30:33.000Z</time><ele>864.2</ele></trkpt><trkpt lat="45.98817" lon="10.303229"><time>2025-04-28T09:30:34.000Z</time><ele>864</ele></trkpt><trkpt lat="45.988175" lon="10.303239"><time>2025-04-28T09:30:35.000Z</time><ele>864</ele></trkpt><trkpt lat="45.988194" lon="10.303237"><time>2025-04-28T09:30:36.000Z</time><ele>863.8</ele></trkpt><trkpt lat="45.988213" lon="10.303235"><time>2025-04-28T09:30:37.000Z</time><ele>863.4</ele></trkpt><trkpt lat="45.988224" lon="10.303239"><time>2025-04-28T09:30:38.000Z</time><ele>863.2</ele></trkpt><trkpt lat="45.98824" lon="10.303247"><time>2025-04-28T09:30:39.000Z</time><ele>863</ele></trkpt><trkpt lat="45.98826" lon="10.303255"><time>2025-04-28T09:30:40.000Z</time><ele>862.8</ele></trkpt><trkpt lat="45.988276" lon="10.303261"><time>2025-04-28T09:30:41.000Z</time><ele>862.6</ele></trkpt><trkpt lat="45.988288" lon="10.303273"><time>2025-04-28T09:30:42.000Z</time><ele>862.4</ele></trkpt><trkpt lat="45.988301" lon="10.303282"><time>2025-04-28T09:30:43.000Z</time><ele>862.4</ele></trkpt><trkpt lat="45.988314" lon="10.30328"><time>2025-04-28T09:30:44.000Z</time><ele>862.2</ele></trkpt><trkpt lat="45.988328" lon="10.303277"><time>2025-04-28T09:30:45.000Z</time><ele>862.2</ele></trkpt><trkpt lat="45.988344" lon="10.303275"><time>2025-04-28T09:30:46.000Z</time><ele>862.2</ele></trkpt><trkpt lat="45.988359" lon="10.303279"><time>2025-04-28T09:30:47.000Z</time><ele>862</ele></trkpt><trkpt lat="45.988374" lon="10.303285"><time>2025-04-28T09:30:48.000Z</time><ele>861.8</ele></trkpt><trkpt lat="45.988385" lon="10.303295"><time>2025-04-28T09:30:49.000Z</time><ele>861.6</ele></trkpt><trkpt lat="45.988397" lon="10.303303"><time>2025-04-28T09:30:50.000Z</time><ele>861.6</ele></trkpt><trkpt lat="45.988416" lon="10.303307"><time>2025-04-28T09:30:51.000Z</time><ele>861.4</ele></trkpt><trkpt lat="45.988437" lon="10.303308"><time>2025-04-28T09:30:52.000Z</time><ele>861.4</ele></trkpt><trkpt lat="45.988453" lon="10.303304"><time>2025-04-28T09:30:53.000Z</time><ele>861.4</ele></trkpt><trkpt lat="45.988469" lon="10.303302"><time>2025-04-28T09:30:54.000Z</time><ele>861.2</ele></trkpt><trkpt lat="45.988487" lon="10.303308"><time>2025-04-28T09:30:55.000Z</time><ele>861.2</ele></trkpt><trkpt lat="45.9885" lon="10.303327"><time>2025-04-28T09:30:56.000Z</time><ele>861</ele></trkpt><trkpt lat="45.988505" lon="10.303345"><time>2025-04-28T09:30:57.000Z</time><ele>861</ele></trkpt><trkpt lat="45.988516" lon="10.303359"><time>2025-04-28T09:30:58.000Z</time><ele>861</ele></trkpt><trkpt lat="45.988535" lon="10.303361"><time>2025-04-28T09:30:59.000Z</time><ele>860.8</ele></trkpt><trkpt lat="45.988557" lon="10.30336"><time>2025-04-28T09:31:00.000Z</time><ele>860.8</ele></trkpt><trkpt lat="45.988578" lon="10.303362"><time>2025-04-28T09:31:01.000Z</time><ele>860.6</ele></trkpt><trkpt lat="45.988589" lon="10.303367"><time>2025-04-28T09:31:02.000Z</time><ele>860.6</ele></trkpt><trkpt lat="45.988597" lon="10.303374"><time>2025-04-28T09:31:03.000Z</time><ele>860.6</ele></trkpt><trkpt lat="45.988611" lon="10.303378"><time>2025-04-28T09:31:04.000Z</time><ele>860.6</ele></trkpt><trkpt lat="45.988623" lon="10.303384"><time>2025-04-28T09:31:05.000Z</time><ele>860.6</ele></trkpt><trkpt lat="45.98863" lon="10.303394"><time>2025-04-28T09:31:06.000Z</time><ele>860.6</ele></trkpt><trkpt lat="45.98864" lon="10.303409"><time>2025-04-28T09:31:07.000Z</time><ele>860.6</ele></trkpt><trkpt lat="45.988652" lon="10.30342"><time>2025-04-28T09:31:08.000Z</time><ele>860.4</ele></trkpt><trkpt lat="45.988667" lon="10.303424"><time>2025-04-28T09:31:09.000Z</time><ele>860.4</ele></trkpt><trkpt lat="45.988687" lon="10.303433"><time>2025-04-28T09:31:10.000Z</time><ele>860.4</ele></trkpt><trkpt lat="45.9887" lon="10.303443"><time>2025-04-28T09:31:11.000Z</time><ele>860.4</ele></trkpt><trkpt lat="45.988717" lon="10.303456"><time>2025-04-28T09:31:12.000Z</time><ele>860.4</ele></trkpt><trkpt lat="45.988734" lon="10.303455"><time>2025-04-28T09:31:13.000Z</time><ele>860.4</ele></trkpt><trkpt lat="45.988759" lon="10.30345"><time>2025-04-28T09:31:14.000Z</time><ele>860.4</ele></trkpt><trkpt lat="45.988787" lon="10.303449"><time>2025-04-28T09:31:15.000Z</time><ele>860.4</ele></trkpt><trkpt lat="45.988801" lon="10.303459"><time>2025-04-28T09:31:16.000Z</time><ele>860.4</ele></trkpt><trkpt lat="45.98881" lon="10.303476"><time>2025-04-28T09:31:17.000Z</time><ele>860.2</ele></trkpt><trkpt lat="45.98882" lon="10.303485"><time>2025-04-28T09:31:18.000Z</time><ele>860.2</ele></trkpt><trkpt lat="45.988825" lon="10.303497"><time>2025-04-28T09:31:19.000Z</time><ele>860</ele></trkpt><trkpt lat="45.988834" lon="10.303511"><time>2025-04-28T09:31:20.000Z</time><ele>859.8</ele></trkpt><trkpt lat="45.988847" lon="10.303513"><time>2025-04-28T09:31:21.000Z</time><ele>859.6</ele></trkpt><trkpt lat="45.988859" lon="10.303513"><time>2025-04-28T09:31:22.000Z</time><ele>859.6</ele></trkpt><trkpt lat="45.988874" lon="10.303519"><time>2025-04-28T09:31:23.000Z</time><ele>859.6</ele></trkpt><trkpt lat="45.988891" lon="10.303528"><time>2025-04-28T09:31:24.000Z</time><ele>859.4</ele></trkpt><trkpt lat="45.9889" lon="10.303531"><time>2025-04-28T09:31:25.000Z</time><ele>859.4</ele></trkpt><trkpt lat="45.988904" lon="10.303549"><time>2025-04-28T09:31:26.000Z</time><ele>859.4</ele></trkpt><trkpt lat="45.988917" lon="10.303563"><time>2025-04-28T09:31:27.000Z</time><ele>859.4</ele></trkpt><trkpt lat="45.988931" lon="10.303578"><time>2025-04-28T09:31:28.000Z</time><ele>859.4</ele></trkpt><trkpt lat="45.988943" lon="10.303597"><time>2025-04-28T09:31:29.000Z</time><ele>859.2</ele></trkpt><trkpt lat="45.988946" lon="10.303617"><time>2025-04-28T09:31:30.000Z</time><ele>859.2</ele></trkpt><trkpt lat="45.988956" lon="10.303631"><time>2025-04-28T09:31:31.000Z</time><ele>859</ele></trkpt><trkpt lat="45.988966" lon="10.303648"><time>2025-04-28T09:31:32.000Z</time><ele>859</ele></trkpt><trkpt lat="45.98898" lon="10.303659"><time>2025-04-28T09:31:33.000Z</time><ele>858.8</ele></trkpt><trkpt lat="45.988994" lon="10.303672"><time>2025-04-28T09:31:34.000Z</time><ele>858.6</ele></trkpt><trkpt lat="45.98901" lon="10.303682"><time>2025-04-28T09:31:35.000Z</time><ele>858.6</ele></trkpt><trkpt lat="45.989028" lon="10.303679"><time>2025-04-28T09:31:36.000Z</time><ele>858.4</ele></trkpt><trkpt lat="45.98904" lon="10.30369"><time>2025-04-28T09:31:37.000Z</time><ele>858.4</ele></trkpt><trkpt lat="45.989048" lon="10.303704"><time>2025-04-28T09:31:38.000Z</time><ele>858.4</ele></trkpt><trkpt lat="45.989059" lon="10.303721"><time>2025-04-28T09:31:39.000Z</time><ele>858.4</ele></trkpt><trkpt lat="45.989068" lon="10.303733"><time>2025-04-28T09:31:40.000Z</time><ele>858.4</ele></trkpt><trkpt lat="45.98908" lon="10.303744"><time>2025-04-28T09:31:41.000Z</time><ele>858.2</ele></trkpt><trkpt lat="45.989091" lon="10.303752"><time>2025-04-28T09:31:42.000Z</time><ele>858.2</ele></trkpt><trkpt lat="45.9891" lon="10.303754"><time>2025-04-28T09:31:43.000Z</time><ele>858</ele></trkpt><trkpt lat="45.989111" lon="10.303759"><time>2025-04-28T09:31:44.000Z</time><ele>858</ele></trkpt><trkpt lat="45.98912" lon="10.303766"><time>2025-04-28T09:31:45.000Z</time><ele>857.8</ele></trkpt><trkpt lat="45.989135" lon="10.303777"><time>2025-04-28T09:31:46.000Z</time><ele>857.8</ele></trkpt><trkpt lat="45.989153" lon="10.303786"><time>2025-04-28T09:31:47.000Z</time><ele>857.8</ele></trkpt><trkpt lat="45.989166" lon="10.303798"><time>2025-04-28T09:31:48.000Z</time><ele>857.6</ele></trkpt><trkpt lat="45.989177" lon="10.303812"><time>2025-04-28T09:31:49.000Z</time><ele>857.6</ele></trkpt><trkpt lat="45.989191" lon="10.303823"><time>2025-04-28T09:31:50.000Z</time><ele>857.4</ele></trkpt><trkpt lat="45.989201" lon="10.303837"><time>2025-04-28T09:31:51.000Z</time><ele>857.4</ele></trkpt><trkpt lat="45.989208" lon="10.303854"><time>2025-04-28T09:31:52.000Z</time><ele>857.4</ele></trkpt><trkpt lat="45.989218" lon="10.303871"><time>2025-04-28T09:31:53.000Z</time><ele>857.4</ele></trkpt><trkpt lat="45.989226" lon="10.303886"><time>2025-04-28T09:31:54.000Z</time><ele>857.2</ele></trkpt><trkpt lat="45.989235" lon="10.303898"><time>2025-04-28T09:31:55.000Z</time><ele>857.2</ele></trkpt><trkpt lat="45.989243" lon="10.303912"><time>2025-04-28T09:31:56.000Z</time><ele>857.2</ele></trkpt><trkpt lat="45.989252" lon="10.303924"><time>2025-04-28T09:31:57.000Z</time><ele>857.2</ele></trkpt><trkpt lat="45.989265" lon="10.303933"><time>2025-04-28T09:31:58.000Z</time><ele>857.2</ele></trkpt><trkpt lat="45.989277" lon="10.30394"><time>2025-04-28T09:31:59.000Z</time><ele>857.2</ele></trkpt><trkpt lat="45.989286" lon="10.303951"><time>2025-04-28T09:32:00.000Z</time><ele>857.2</ele></trkpt><trkpt lat="45.989296" lon="10.303968"><time>2025-04-28T09:32:01.000Z</time><ele>857.2</ele></trkpt><trkpt lat="45.989299" lon="10.303978"><time>2025-04-28T09:32:02.000Z</time><ele>857.2</ele></trkpt><trkpt lat="45.989305" lon="10.303984"><time>2025-04-28T09:32:03.000Z</time><ele>857.2</ele></trkpt><trkpt lat="45.989317" lon="10.303993"><time>2025-04-28T09:32:04.000Z</time><ele>857.2</ele></trkpt><trkpt lat="45.989331" lon="10.304004"><time>2025-04-28T09:32:05.000Z</time><ele>857.2</ele></trkpt><trkpt lat="45.989344" lon="10.304016"><time>2025-04-28T09:32:06.000Z</time><ele>857</ele></trkpt><trkpt lat="45.989355" lon="10.304028"><time>2025-04-28T09:32:07.000Z</time><ele>857</ele></trkpt><trkpt lat="45.989367" lon="10.304036"><time>2025-04-28T09:32:08.000Z</time><ele>857</ele></trkpt><trkpt lat="45.98938" lon="10.304044"><time>2025-04-28T09:32:09.000Z</time><ele>856.8</ele></trkpt><trkpt lat="45.989393" lon="10.304051"><time>2025-04-28T09:32:10.000Z</time><ele>856.8</ele></trkpt><trkpt lat="45.989406" lon="10.304055"><time>2025-04-28T09:32:11.000Z</time><ele>856.6</ele></trkpt><trkpt lat="45.98942" lon="10.304055"><time>2025-04-28T09:32:12.000Z</time><ele>856.6</ele></trkpt><trkpt lat="45.989432" lon="10.304053"><time>2025-04-28T09:32:13.000Z</time><ele>856.6</ele></trkpt><trkpt lat="45.989443" lon="10.304058"><time>2025-04-28T09:32:14.000Z</time><ele>856.4</ele></trkpt><trkpt lat="45.989457" lon="10.304067"><time>2025-04-28T09:32:15.000Z</time><ele>856.4</ele></trkpt><trkpt lat="45.989477" lon="10.30407"><time>2025-04-28T09:32:16.000Z</time><ele>856.4</ele></trkpt><trkpt lat="45.989489" lon="10.304076"><time>2025-04-28T09:32:17.000Z</time><ele>856.4</ele></trkpt><trkpt lat="45.989497" lon="10.304074"><time>2025-04-28T09:32:18.000Z</time><ele>856.4</ele></trkpt><trkpt lat="45.989502" lon="10.304078"><time>2025-04-28T09:32:19.000Z</time><ele>856.4</ele></trkpt><trkpt lat="45.989501" lon="10.304079"><time>2025-04-28T09:32:20.000Z</time><ele>856.4</ele></trkpt><trkpt lat="45.989509" lon="10.304078"><time>2025-04-28T09:32:21.000Z</time><ele>856.4</ele></trkpt><trkpt lat="45.989515" lon="10.304082"><time>2025-04-28T09:32:22.000Z</time><ele>856.4</ele></trkpt><trkpt lat="45.989524" lon="10.304081"><time>2025-04-28T09:32:23.000Z</time><ele>856.4</ele></trkpt><trkpt lat="45.989536" lon="10.304087"><time>2025-04-28T09:32:24.000Z</time><ele>856.4</ele></trkpt><trkpt lat="45.989549" lon="10.304096"><time>2025-04-28T09:32:25.000Z</time><ele>856.4</ele></trkpt><trkpt lat="45.989565" lon="10.304094"><time>2025-04-28T09:32:26.000Z</time><ele>856.4</ele></trkpt><trkpt lat="45.989574" lon="10.304096"><time>2025-04-28T09:32:27.000Z</time><ele>856.4</ele></trkpt><trkpt lat="45.989585" lon="10.304104"><time>2025-04-28T09:32:28.000Z</time><ele>856.4</ele></trkpt><trkpt lat="45.989607" lon="10.304106"><time>2025-04-28T09:32:29.000Z</time><ele>856.2</ele></trkpt><trkpt lat="45.989621" lon="10.304112"><time>2025-04-28T09:32:30.000Z</time><ele>856.2</ele></trkpt><trkpt lat="45.989628" lon="10.304124"><time>2025-04-28T09:32:31.000Z</time><ele>856.2</ele></trkpt><trkpt lat="45.989638" lon="10.304136"><time>2025-04-28T09:32:32.000Z</time><ele>856.2</ele></trkpt><trkpt lat="45.989646" lon="10.304155"><time>2025-04-28T09:32:33.000Z</time><ele>856.2</ele></trkpt><trkpt lat="45.989657" lon="10.304166"><time>2025-04-28T09:32:34.000Z</time><ele>856</ele></trkpt><trkpt lat="45.989667" lon="10.304171"><time>2025-04-28T09:32:35.000Z</time><ele>856</ele></trkpt><trkpt lat="45.989675" lon="10.304181"><time>2025-04-28T09:32:36.000Z</time><ele>855.8</ele></trkpt><trkpt lat="45.989684" lon="10.304189"><time>2025-04-28T09:32:37.000Z</time><ele>855.8</ele></trkpt><trkpt lat="45.989685" lon="10.304193"><time>2025-04-28T09:32:38.000Z</time><ele>855.8</ele></trkpt><trkpt lat="45.989687" lon="10.304198"><time>2025-04-28T09:32:39.000Z</time><ele>855.6</ele></trkpt><trkpt lat="45.989693" lon="10.304206"><time>2025-04-28T09:32:40.000Z</time><ele>855.6</ele></trkpt><trkpt lat="45.989704" lon="10.304218"><time>2025-04-28T09:32:41.000Z</time><ele>855.6</ele></trkpt><trkpt lat="45.989717" lon="10.30423"><time>2025-04-28T09:32:42.000Z</time><ele>855.4</ele></trkpt><trkpt lat="45.98973" lon="10.304242"><time>2025-04-28T09:32:43.000Z</time><ele>855.4</ele></trkpt><trkpt lat="45.989744" lon="10.304256"><time>2025-04-28T09:32:44.000Z</time><ele>855.4</ele></trkpt><trkpt lat="45.989759" lon="10.30427"><time>2025-04-28T09:32:45.000Z</time><ele>855.4</ele></trkpt><trkpt lat="45.989776" lon="10.304285"><time>2025-04-28T09:32:46.000Z</time><ele>855.2</ele></trkpt><trkpt lat="45.98979" lon="10.304299"><time>2025-04-28T09:32:47.000Z</time><ele>855.2</ele></trkpt><trkpt lat="45.989804" lon="10.304316"><time>2025-04-28T09:32:48.000Z</time><ele>855.2</ele></trkpt><trkpt lat="45.989812" lon="10.304337"><time>2025-04-28T09:32:49.000Z</time><ele>855.2</ele></trkpt><trkpt lat="45.989821" lon="10.304355"><time>2025-04-28T09:32:50.000Z</time><ele>855.2</ele></trkpt><trkpt lat="45.989833" lon="10.304373"><time>2025-04-28T09:32:51.000Z</time><ele>855</ele></trkpt><trkpt lat="45.989843" lon="10.304393"><time>2025-04-28T09:32:52.000Z</time><ele>855</ele></trkpt><trkpt lat="45.989853" lon="10.304411"><time>2025-04-28T09:32:53.000Z</time><ele>854.8</ele></trkpt><trkpt lat="45.989859" lon="10.304432"><time>2025-04-28T09:32:54.000Z</time><ele>854.8</ele></trkpt><trkpt lat="45.989862" lon="10.304447"><time>2025-04-28T09:32:55.000Z</time><ele>854.6</ele></trkpt><trkpt lat="45.989861" lon="10.304464"><time>2025-04-28T09:32:56.000Z</time><ele>854.6</ele></trkpt><trkpt lat="45.989856" lon="10.304479"><time>2025-04-28T09:32:57.000Z</time><ele>854.4</ele></trkpt><trkpt lat="45.989847" lon="10.304488"><time>2025-04-28T09:32:58.000Z</time><ele>854.4</ele></trkpt><trkpt lat="45.989848" lon="10.304495"><time>2025-04-28T09:32:59.000Z</time><ele>854.2</ele></trkpt><trkpt lat="45.989842" lon="10.30451"><time>2025-04-28T09:33:00.000Z</time><ele>854.2</ele></trkpt><trkpt lat="45.989832" lon="10.30452"><time>2025-04-28T09:33:01.000Z</time><ele>854.2</ele></trkpt><trkpt lat="45.989821" lon="10.304532"><time>2025-04-28T09:33:02.000Z</time><ele>854</ele></trkpt><trkpt lat="45.989812" lon="10.304543"><time>2025-04-28T09:33:03.000Z</time><ele>853.8</ele></trkpt><trkpt lat="45.989805" lon="10.304554"><time>2025-04-28T09:33:04.000Z</time><ele>853.6</ele></trkpt><trkpt lat="45.9898" lon="10.304562"><time>2025-04-28T09:33:05.000Z</time><ele>853.4</ele></trkpt><trkpt lat="45.989796" lon="10.304576"><time>2025-04-28T09:33:06.000Z</time><ele>853.2</ele></trkpt><trkpt lat="45.989793" lon="10.304589"><time>2025-04-28T09:33:07.000Z</time><ele>853</ele></trkpt><trkpt lat="45.989791" lon="10.304603"><time>2025-04-28T09:33:08.000Z</time><ele>852.8</ele></trkpt><trkpt lat="45.989788" lon="10.30462"><time>2025-04-28T09:33:09.000Z</time><ele>852.8</ele></trkpt><trkpt lat="45.989781" lon="10.304638"><time>2025-04-28T09:33:10.000Z</time><ele>852.6</ele></trkpt><trkpt lat="45.989781" lon="10.304658"><time>2025-04-28T09:33:11.000Z</time><ele>852.4</ele></trkpt><trkpt lat="45.989781" lon="10.304684"><time>2025-04-28T09:33:12.000Z</time><ele>852.2</ele></trkpt><trkpt lat="45.98978" lon="10.304713"><time>2025-04-28T09:33:13.000Z</time><ele>851.6</ele></trkpt><trkpt lat="45.989782" lon="10.304734"><time>2025-04-28T09:33:14.000Z</time><ele>851.2</ele></trkpt><trkpt lat="45.989783" lon="10.304751"><time>2025-04-28T09:33:15.000Z</time><ele>851</ele></trkpt><trkpt lat="45.989783" lon="10.304772"><time>2025-04-28T09:33:16.000Z</time><ele>850.6</ele></trkpt><trkpt lat="45.989773" lon="10.304791"><time>2025-04-28T09:33:17.000Z</time><ele>850.4</ele></trkpt><trkpt lat="45.98977" lon="10.304819"><time>2025-04-28T09:33:18.000Z</time><ele>850.2</ele></trkpt><trkpt lat="45.989769" lon="10.30484"><time>2025-04-28T09:33:19.000Z</time><ele>850</ele></trkpt><trkpt lat="45.989768" lon="10.304861"><time>2025-04-28T09:33:20.000Z</time><ele>849.6</ele></trkpt><trkpt lat="45.989769" lon="10.304882"><time>2025-04-28T09:33:21.000Z</time><ele>849.2</ele></trkpt><trkpt lat="45.989769" lon="10.3049"><time>2025-04-28T09:33:22.000Z</time><ele>849</ele></trkpt><trkpt lat="45.989767" lon="10.30492"><time>2025-04-28T09:33:23.000Z</time><ele>848.8</ele></trkpt><trkpt lat="45.989765" lon="10.304941"><time>2025-04-28T09:33:24.000Z</time><ele>848.4</ele></trkpt><trkpt lat="45.989767" lon="10.304955"><time>2025-04-28T09:33:25.000Z</time><ele>848</ele></trkpt><trkpt lat="45.989767" lon="10.304971"><time>2025-04-28T09:33:26.000Z</time><ele>847.8</ele></trkpt><trkpt lat="45.989768" lon="10.304993"><time>2025-04-28T09:33:27.000Z</time><ele>847.6</ele></trkpt><trkpt lat="45.989767" lon="10.305018"><time>2025-04-28T09:33:28.000Z</time><ele>847.2</ele></trkpt><trkpt lat="45.989764" lon="10.305044"><time>2025-04-28T09:33:29.000Z</time><ele>847</ele></trkpt><trkpt lat="45.989763" lon="10.305067"><time>2025-04-28T09:33:30.000Z</time><ele>846.8</ele></trkpt><trkpt lat="45.989766" lon="10.305087"><time>2025-04-28T09:33:31.000Z</time><ele>846.6</ele></trkpt><trkpt lat="45.98977" lon="10.305101"><time>2025-04-28T09:33:32.000Z</time><ele>846.4</ele></trkpt><trkpt lat="45.98977" lon="10.305113"><time>2025-04-28T09:33:33.000Z</time><ele>846.2</ele></trkpt><trkpt lat="45.989763" lon="10.305124"><time>2025-04-28T09:33:34.000Z</time><ele>846</ele></trkpt><trkpt lat="45.989755" lon="10.305139"><time>2025-04-28T09:33:35.000Z</time><ele>845.6</ele></trkpt><trkpt lat="45.989739" lon="10.305167"><time>2025-04-28T09:33:36.000Z</time><ele>845.4</ele></trkpt><trkpt lat="45.989724" lon="10.30519"><time>2025-04-28T09:33:37.000Z</time><ele>845.4</ele></trkpt><trkpt lat="45.989719" lon="10.305204"><time>2025-04-28T09:33:38.000Z</time><ele>845.4</ele></trkpt><trkpt lat="45.989711" lon="10.305225"><time>2025-04-28T09:33:39.000Z</time><ele>845.2</ele></trkpt><trkpt lat="45.98971" lon="10.305247"><time>2025-04-28T09:33:40.000Z</time><ele>845.2</ele></trkpt><trkpt lat="45.989707" lon="10.305268"><time>2025-04-28T09:33:41.000Z</time><ele>844.6</ele></trkpt><trkpt lat="45.989706" lon="10.305288"><time>2025-04-28T09:33:42.000Z</time><ele>844.4</ele></trkpt><trkpt lat="45.989702" lon="10.305305"><time>2025-04-28T09:33:43.000Z</time><ele>844</ele></trkpt><trkpt lat="45.9897" lon="10.305321"><time>2025-04-28T09:33:44.000Z</time><ele>844</ele></trkpt><trkpt lat="45.989695" lon="10.305338"><time>2025-04-28T09:33:45.000Z</time><ele>843.8</ele></trkpt><trkpt lat="45.989684" lon="10.305348"><time>2025-04-28T09:33:46.000Z</time><ele>843.8</ele></trkpt><trkpt lat="45.989677" lon="10.305355"><time>2025-04-28T09:33:47.000Z</time><ele>843.8</ele></trkpt><trkpt lat="45.989679" lon="10.305356"><time>2025-04-28T09:33:48.000Z</time><ele>843.8</ele></trkpt><trkpt lat="45.989675" lon="10.305376"><time>2025-04-28T09:33:49.000Z</time><ele>843.8</ele></trkpt><trkpt lat="45.989666" lon="10.305389"><time>2025-04-28T09:33:50.000Z</time><ele>843.8</ele></trkpt><trkpt lat="45.989662" lon="10.305399"><time>2025-04-28T09:33:51.000Z</time><ele>843.4</ele></trkpt><trkpt lat="45.989659" lon="10.305409"><time>2025-04-28T09:33:52.000Z</time><ele>843.2</ele></trkpt><trkpt lat="45.989648" lon="10.305418"><time>2025-04-28T09:33:53.000Z</time><ele>843</ele></trkpt><trkpt lat="45.989638" lon="10.305429"><time>2025-04-28T09:33:54.000Z</time><ele>843</ele></trkpt><trkpt lat="45.98963" lon="10.305444"><time>2025-04-28T09:33:55.000Z</time><ele>842.8</ele></trkpt><trkpt lat="45.989614" lon="10.30546"><time>2025-04-28T09:33:56.000Z</time><ele>842.8</ele></trkpt><trkpt lat="45.989608" lon="10.305477"><time>2025-04-28T09:33:57.000Z</time><ele>842.6</ele></trkpt><trkpt lat="45.989604" lon="10.305488"><time>2025-04-28T09:33:58.000Z</time><ele>842.6</ele></trkpt><trkpt lat="45.989596" lon="10.305505"><time>2025-04-28T09:33:59.000Z</time><ele>842.4</ele></trkpt><trkpt lat="45.989585" lon="10.305522"><time>2025-04-28T09:34:00.000Z</time><ele>842.4</ele></trkpt><trkpt lat="45.989568" lon="10.305538"><time>2025-04-28T09:34:01.000Z</time><ele>842.4</ele></trkpt><trkpt lat="45.989559" lon="10.30556"><time>2025-04-28T09:34:02.000Z</time><ele>842.2</ele></trkpt><trkpt lat="45.989554" lon="10.305586"><time>2025-04-28T09:34:03.000Z</time><ele>842.2</ele></trkpt><trkpt lat="45.989549" lon="10.305615"><time>2025-04-28T09:34:04.000Z</time><ele>842.2</ele></trkpt><trkpt lat="45.989537" lon="10.305645"><time>2025-04-28T09:34:05.000Z</time><ele>842.2</ele></trkpt><trkpt lat="45.989522" lon="10.305662"><time>2025-04-28T09:34:06.000Z</time><ele>842</ele></trkpt><trkpt lat="45.989513" lon="10.30567"><time>2025-04-28T09:34:07.000Z</time><ele>842</ele></trkpt><trkpt lat="45.989503" lon="10.305675"><time>2025-04-28T09:34:08.000Z</time><ele>841.8</ele></trkpt><trkpt lat="45.989508" lon="10.305682"><time>2025-04-28T09:34:09.000Z</time><ele>841.8</ele></trkpt><trkpt lat="45.989518" lon="10.305689"><time>2025-04-28T09:34:10.000Z</time><ele>841.8</ele></trkpt><trkpt lat="45.989512" lon="10.3057"><time>2025-04-28T09:34:11.000Z</time><ele>841.8</ele></trkpt><trkpt lat="45.989503" lon="10.305718"><time>2025-04-28T09:34:12.000Z</time><ele>841.8</ele></trkpt><trkpt lat="45.989495" lon="10.305736"><time>2025-04-28T09:34:13.000Z</time><ele>841.8</ele></trkpt><trkpt lat="45.989487" lon="10.305748"><time>2025-04-28T09:34:14.000Z</time><ele>841.6</ele></trkpt><trkpt lat="45.989486" lon="10.305756"><time>2025-04-28T09:34:15.000Z</time><ele>841.6</ele></trkpt><trkpt lat="45.989484" lon="10.305763"><time>2025-04-28T09:34:16.000Z</time><ele>841.6</ele></trkpt><trkpt lat="45.989479" lon="10.30577"><time>2025-04-28T09:34:17.000Z</time><ele>841.6</ele></trkpt><trkpt lat="45.989474" lon="10.30578"><time>2025-04-28T09:34:18.000Z</time><ele>841.6</ele></trkpt><trkpt lat="45.989469" lon="10.305791"><time>2025-04-28T09:34:19.000Z</time><ele>841.4</ele></trkpt><trkpt lat="45.989456" lon="10.305805"><time>2025-04-28T09:34:20.000Z</time><ele>841.4</ele></trkpt><trkpt lat="45.989446" lon="10.305822"><time>2025-04-28T09:34:21.000Z</time><ele>841.4</ele></trkpt><trkpt lat="45.989433" lon="10.305838"><time>2025-04-28T09:34:22.000Z</time><ele>841.4</ele></trkpt><trkpt lat="45.989423" lon="10.305853"><time>2025-04-28T09:34:23.000Z</time><ele>841.4</ele></trkpt><trkpt lat="45.98942" lon="10.305861"><time>2025-04-28T09:34:24.000Z</time><ele>841.4</ele></trkpt><trkpt lat="45.989414" lon="10.30587"><time>2025-04-28T09:34:25.000Z</time><ele>841.2</ele></trkpt><trkpt lat="45.989405" lon="10.305886"><time>2025-04-28T09:34:26.000Z</time><ele>841.2</ele></trkpt><trkpt lat="45.989391" lon="10.305898"><time>2025-04-28T09:34:27.000Z</time><ele>841.2</ele></trkpt><trkpt lat="45.989372" lon="10.305905"><time>2025-04-28T09:34:28.000Z</time><ele>841</ele></trkpt><trkpt lat="45.989356" lon="10.305913"><time>2025-04-28T09:34:29.000Z</time><ele>841</ele></trkpt><trkpt lat="45.989338" lon="10.305924"><time>2025-04-28T09:34:30.000Z</time><ele>840.8</ele></trkpt><trkpt lat="45.989325" lon="10.305928"><time>2025-04-28T09:34:31.000Z</time><ele>840.6</ele></trkpt><trkpt lat="45.989317" lon="10.305936"><time>2025-04-28T09:34:32.000Z</time><ele>840.4</ele></trkpt><trkpt lat="45.989315" lon="10.305947"><time>2025-04-28T09:34:33.000Z</time><ele>840.4</ele></trkpt><trkpt lat="45.989306" lon="10.305963"><time>2025-04-28T09:34:34.000Z</time><ele>840.2</ele></trkpt><trkpt lat="45.989297" lon="10.30598"><time>2025-04-28T09:34:35.000Z</time><ele>840</ele></trkpt><trkpt lat="45.989289" lon="10.305994"><time>2025-04-28T09:34:36.000Z</time><ele>839.8</ele></trkpt><trkpt lat="45.989283" lon="10.306014"><time>2025-04-28T09:34:37.000Z</time><ele>839.8</ele></trkpt><trkpt lat="45.989274" lon="10.306039"><time>2025-04-28T09:34:38.000Z</time><ele>839.6</ele></trkpt><trkpt lat="45.989269" lon="10.306052"><time>2025-04-28T09:34:39.000Z</time><ele>839.4</ele></trkpt><trkpt lat="45.989261" lon="10.306062"><time>2025-04-28T09:34:40.000Z</time><ele>839.4</ele></trkpt><trkpt lat="45.989252" lon="10.30607"><time>2025-04-28T09:34:41.000Z</time><ele>839.2</ele></trkpt><trkpt lat="45.989246" lon="10.306079"><time>2025-04-28T09:34:42.000Z</time><ele>839</ele></trkpt><trkpt lat="45.989238" lon="10.30609"><time>2025-04-28T09:34:43.000Z</time><ele>839</ele></trkpt><trkpt lat="45.98923" lon="10.3061"><time>2025-04-28T09:34:44.000Z</time><ele>839</ele></trkpt><trkpt lat="45.989221" lon="10.306112"><time>2025-04-28T09:34:45.000Z</time><ele>839</ele></trkpt><trkpt lat="45.98921" lon="10.306123"><time>2025-04-28T09:34:46.000Z</time><ele>838.8</ele></trkpt><trkpt lat="45.989203" lon="10.30613"><time>2025-04-28T09:34:47.000Z</time><ele>838.8</ele></trkpt><trkpt lat="45.989195" lon="10.306137"><time>2025-04-28T09:34:48.000Z</time><ele>838.6</ele></trkpt><trkpt lat="45.989185" lon="10.306159"><time>2025-04-28T09:34:49.000Z</time><ele>838.4</ele></trkpt><trkpt lat="45.989175" lon="10.306181"><time>2025-04-28T09:34:50.000Z</time><ele>838</ele></trkpt><trkpt lat="45.989173" lon="10.306195"><time>2025-04-28T09:34:51.000Z</time><ele>837.6</ele></trkpt><trkpt lat="45.98917" lon="10.306204"><time>2025-04-28T09:34:52.000Z</time><ele>837.4</ele></trkpt><trkpt lat="45.989161" lon="10.306219"><time>2025-04-28T09:34:53.000Z</time><ele>837.4</ele></trkpt><trkpt lat="45.989155" lon="10.306238"><time>2025-04-28T09:34:54.000Z</time><ele>837.2</ele></trkpt><trkpt lat="45.989153" lon="10.306253"><time>2025-04-28T09:34:55.000Z</time><ele>837</ele></trkpt><trkpt lat="45.989152" lon="10.306272"><time>2025-04-28T09:34:56.000Z</time><ele>836.8</ele></trkpt><trkpt lat="45.989151" lon="10.306297"><time>2025-04-28T09:34:57.000Z</time><ele>836.4</ele></trkpt><trkpt lat="45.989153" lon="10.306317"><time>2025-04-28T09:34:58.000Z</time><ele>836.2</ele></trkpt><trkpt lat="45.989157" lon="10.306332"><time>2025-04-28T09:34:59.000Z</time><ele>836</ele></trkpt><trkpt lat="45.989163" lon="10.306358"><time>2025-04-28T09:35:00.000Z</time><ele>835.8</ele></trkpt><trkpt lat="45.989172" lon="10.306378"><time>2025-04-28T09:35:01.000Z</time><ele>835.4</ele></trkpt><trkpt lat="45.989179" lon="10.306399"><time>2025-04-28T09:35:02.000Z</time><ele>835</ele></trkpt><trkpt lat="45.989186" lon="10.306415"><time>2025-04-28T09:35:03.000Z</time><ele>834.6</ele></trkpt><trkpt lat="45.989193" lon="10.30643"><time>2025-04-28T09:35:04.000Z</time><ele>834.4</ele></trkpt><trkpt lat="45.989199" lon="10.306447"><time>2025-04-28T09:35:05.000Z</time><ele>834.2</ele></trkpt><trkpt lat="45.989206" lon="10.306461"><time>2025-04-28T09:35:06.000Z</time><ele>834.2</ele></trkpt><trkpt lat="45.98921" lon="10.306473"><time>2025-04-28T09:35:07.000Z</time><ele>834</ele></trkpt><trkpt lat="45.989213" lon="10.306479"><time>2025-04-28T09:35:08.000Z</time><ele>834</ele></trkpt><trkpt lat="45.989218" lon="10.306481"><time>2025-04-28T09:35:09.000Z</time><ele>833.8</ele></trkpt><trkpt lat="45.989223" lon="10.306496"><time>2025-04-28T09:35:10.000Z</time><ele>833.8</ele></trkpt><trkpt lat="45.989229" lon="10.306516"><time>2025-04-28T09:35:11.000Z</time><ele>833.6</ele></trkpt><trkpt lat="45.989239" lon="10.306528"><time>2025-04-28T09:35:12.000Z</time><ele>833.4</ele></trkpt><trkpt lat="45.989248" lon="10.30654"><time>2025-04-28T09:35:13.000Z</time><ele>833.2</ele></trkpt><trkpt lat="45.989256" lon="10.306554"><time>2025-04-28T09:35:14.000Z</time><ele>833</ele></trkpt><trkpt lat="45.989261" lon="10.306571"><time>2025-04-28T09:35:15.000Z</time><ele>832.6</ele></trkpt><trkpt lat="45.989271" lon="10.306585"><time>2025-04-28T09:35:16.000Z</time><ele>832.4</ele></trkpt><trkpt lat="45.98928" lon="10.306597"><time>2025-04-28T09:35:17.000Z</time><ele>832</ele></trkpt><trkpt lat="45.989284" lon="10.306621"><time>2025-04-28T09:35:18.000Z</time><ele>831.8</ele></trkpt><trkpt lat="45.989284" lon="10.306644"><time>2025-04-28T09:35:19.000Z</time><ele>831.6</ele></trkpt><trkpt lat="45.989287" lon="10.306665"><time>2025-04-28T09:35:20.000Z</time><ele>831.4</ele></trkpt><trkpt lat="45.989286" lon="10.306689"><time>2025-04-28T09:35:21.000Z</time><ele>831.2</ele></trkpt><trkpt lat="45.989287" lon="10.306707"><time>2025-04-28T09:35:22.000Z</time><ele>831.2</ele></trkpt><trkpt lat="45.989289" lon="10.306724"><time>2025-04-28T09:35:23.000Z</time><ele>830.8</ele></trkpt><trkpt lat="45.989291" lon="10.306739"><time>2025-04-28T09:35:24.000Z</time><ele>830.6</ele></trkpt><trkpt lat="45.989293" lon="10.306756"><time>2025-04-28T09:35:25.000Z</time><ele>830.6</ele></trkpt><trkpt lat="45.989296" lon="10.306774"><time>2025-04-28T09:35:26.000Z</time><ele>830.2</ele></trkpt><trkpt lat="45.989304" lon="10.30679"><time>2025-04-28T09:35:27.000Z</time><ele>829.8</ele></trkpt><trkpt lat="45.989305" lon="10.306811"><time>2025-04-28T09:35:28.000Z</time><ele>829.6</ele></trkpt><trkpt lat="45.989306" lon="10.306837"><time>2025-04-28T09:35:29.000Z</time><ele>829.2</ele></trkpt><trkpt lat="45.98931" lon="10.306859"><time>2025-04-28T09:35:30.000Z</time><ele>829</ele></trkpt><trkpt lat="45.989315" lon="10.306883"><time>2025-04-28T09:35:31.000Z</time><ele>828.8</ele></trkpt><trkpt lat="45.989319" lon="10.306903"><time>2025-04-28T09:35:32.000Z</time><ele>828.6</ele></trkpt><trkpt lat="45.989322" lon="10.306922"><time>2025-04-28T09:35:33.000Z</time><ele>828.4</ele></trkpt><trkpt lat="45.989326" lon="10.30694"><time>2025-04-28T09:35:34.000Z</time><ele>828.2</ele></trkpt><trkpt lat="45.989329" lon="10.306959"><time>2025-04-28T09:35:35.000Z</time><ele>827.8</ele></trkpt><trkpt lat="45.989335" lon="10.306978"><time>2025-04-28T09:35:36.000Z</time><ele>827.6</ele></trkpt><trkpt lat="45.989342" lon="10.306998"><time>2025-04-28T09:35:37.000Z</time><ele>827.6</ele></trkpt><trkpt lat="45.989352" lon="10.307009"><time>2025-04-28T09:35:38.000Z</time><ele>827.4</ele></trkpt><trkpt lat="45.989363" lon="10.307017"><time>2025-04-28T09:35:39.000Z</time><ele>827.2</ele></trkpt><trkpt lat="45.989372" lon="10.307027"><time>2025-04-28T09:35:40.000Z</time><ele>827</ele></trkpt><trkpt lat="45.989381" lon="10.307032"><time>2025-04-28T09:35:41.000Z</time><ele>826.8</ele></trkpt><trkpt lat="45.989386" lon="10.307034"><time>2025-04-28T09:35:42.000Z</time><ele>826.6</ele></trkpt><trkpt lat="45.989386" lon="10.307037"><time>2025-04-28T09:35:43.000Z</time><ele>826.2</ele></trkpt><trkpt lat="45.989385" lon="10.307038"><time>2025-04-28T09:35:44.000Z</time><ele>826</ele></trkpt><trkpt lat="45.989384" lon="10.307037"><time>2025-04-28T09:35:45.000Z</time><ele>825.8</ele></trkpt><trkpt lat="45.989383" lon="10.307037"><time>2025-04-28T09:35:46.000Z</time><ele>825.8</ele></trkpt><trkpt lat="45.989384" lon="10.307037"><time>2025-04-28T09:35:47.000Z</time><ele>825.8</ele></trkpt><trkpt lat="45.989385" lon="10.307038"><time>2025-04-28T09:35:48.000Z</time><ele>825.8</ele></trkpt><trkpt lat="45.989387" lon="10.307038"><time>2025-04-28T09:35:49.000Z</time><ele>825.8</ele></trkpt><trkpt lat="45.989386" lon="10.307038"><time>2025-04-28T09:35:50.000Z</time><ele>825.8</ele></trkpt><trkpt lat="45.989386" lon="10.307041"><time>2025-04-28T09:35:51.000Z</time><ele>825.8</ele></trkpt><trkpt lat="45.989386" lon="10.307039"><time>2025-04-28T09:35:52.000Z</time><ele>825.8</ele></trkpt><trkpt lat="45.989386" lon="10.307042"><time>2025-04-28T09:35:53.000Z</time><ele>825.6</ele></trkpt><trkpt lat="45.989386" lon="10.307042"><time>2025-04-28T09:35:54.000Z</time><ele>825.6</ele></trkpt><trkpt lat="45.989386" lon="10.307042"><time>2025-04-28T09:35:55.000Z</time><ele>825.6</ele></trkpt><trkpt lat="45.989386" lon="10.307042"><time>2025-04-28T09:35:56.000Z</time><ele>825.6</ele></trkpt><trkpt lat="45.989386" lon="10.307042"><time>2025-04-28T09:35:57.000Z</time><ele>825.6</ele></trkpt><trkpt lat="45.989386" lon="10.307042"><time>2025-04-28T09:35:58.000Z</time><ele>825.6</ele></trkpt><trkpt lat="45.989386" lon="10.307042"><time>2025-04-28T09:35:59.000Z</time><ele>825.6</ele></trkpt><trkpt lat="45.989386" lon="10.307042"><time>2025-04-28T09:36:00.000Z</time><ele>825.6</ele></trkpt><trkpt lat="45.989386" lon="10.307042"><time>2025-04-28T09:36:01.000Z</time><ele>825.6</ele></trkpt><trkpt lat="45.989386" lon="10.307042"><time>2025-04-28T09:36:02.000Z</time><ele>825.6</ele></trkpt><trkpt lat="45.989386" lon="10.307042"><time>2025-04-28T09:36:03.000Z</time><ele>825.6</ele></trkpt><trkpt lat="45.989386" lon="10.307042"><time>2025-04-28T09:36:04.000Z</time><ele>825.4</ele></trkpt><trkpt lat="45.989386" lon="10.307042"><time>2025-04-28T09:36:05.000Z</time><ele>825.2</ele></trkpt><trkpt lat="45.989386" lon="10.307042"><time>2025-04-28T09:36:06.000Z</time><ele>825</ele></trkpt><trkpt lat="45.98939" lon="10.307047"><time>2025-04-28T09:36:07.000Z</time><ele>824.8</ele></trkpt><trkpt lat="45.989399" lon="10.307068"><time>2025-04-28T09:36:08.000Z</time><ele>824.6</ele></trkpt><trkpt lat="45.989414" lon="10.307084"><time>2025-04-28T09:36:09.000Z</time><ele>824.4</ele></trkpt><trkpt lat="45.989426" lon="10.307106"><time>2025-04-28T09:36:10.000Z</time><ele>824</ele></trkpt><trkpt lat="45.989437" lon="10.30713"><time>2025-04-28T09:36:11.000Z</time><ele>823.6</ele></trkpt><trkpt lat="45.989446" lon="10.307149"><time>2025-04-28T09:36:12.000Z</time><ele>823.2</ele></trkpt><trkpt lat="45.989455" lon="10.30717"><time>2025-04-28T09:36:13.000Z</time><ele>822.8</ele></trkpt><trkpt lat="45.989469" lon="10.307193"><time>2025-04-28T09:36:14.000Z</time><ele>822.6</ele></trkpt><trkpt lat="45.989486" lon="10.307219"><time>2025-04-28T09:36:15.000Z</time><ele>822.6</ele></trkpt><trkpt lat="45.989501" lon="10.307242"><time>2025-04-28T09:36:16.000Z</time><ele>822.2</ele></trkpt><trkpt lat="45.989508" lon="10.30726"><time>2025-04-28T09:36:17.000Z</time><ele>822.2</ele></trkpt><trkpt lat="45.989514" lon="10.307278"><time>2025-04-28T09:36:18.000Z</time><ele>821.8</ele></trkpt><trkpt lat="45.989521" lon="10.307293"><time>2025-04-28T09:36:19.000Z</time><ele>821.6</ele></trkpt><trkpt lat="45.989535" lon="10.307304"><time>2025-04-28T09:36:20.000Z</time><ele>821.4</ele></trkpt><trkpt lat="45.989545" lon="10.307326"><time>2025-04-28T09:36:21.000Z</time><ele>821</ele></trkpt><trkpt lat="45.989549" lon="10.307345"><time>2025-04-28T09:36:22.000Z</time><ele>820.8</ele></trkpt><trkpt lat="45.989555" lon="10.30736"><time>2025-04-28T09:36:23.000Z</time><ele>820.4</ele></trkpt><trkpt lat="45.989558" lon="10.30738"><time>2025-04-28T09:36:24.000Z</time><ele>820.2</ele></trkpt><trkpt lat="45.989561" lon="10.307399"><time>2025-04-28T09:36:25.000Z</time><ele>820</ele></trkpt><trkpt lat="45.989562" lon="10.307419"><time>2025-04-28T09:36:26.000Z</time><ele>819.8</ele></trkpt><trkpt lat="45.989562" lon="10.30744"><time>2025-04-28T09:36:27.000Z</time><ele>819.6</ele></trkpt><trkpt lat="45.989554" lon="10.307463"><time>2025-04-28T09:36:28.000Z</time><ele>819.4</ele></trkpt><trkpt lat="45.989552" lon="10.307485"><time>2025-04-28T09:36:29.000Z</time><ele>819.2</ele></trkpt><trkpt lat="45.98955" lon="10.307507"><time>2025-04-28T09:36:30.000Z</time><ele>819</ele></trkpt><trkpt lat="45.989546" lon="10.30753"><time>2025-04-28T09:36:31.000Z</time><ele>818.8</ele></trkpt><trkpt lat="45.989543" lon="10.30755"><time>2025-04-28T09:36:32.000Z</time><ele>818.6</ele></trkpt><trkpt lat="45.98954" lon="10.307568"><time>2025-04-28T09:36:33.000Z</time><ele>818.4</ele></trkpt><trkpt lat="45.989538" lon="10.307589"><time>2025-04-28T09:36:34.000Z</time><ele>818.2</ele></trkpt><trkpt lat="45.989532" lon="10.307609"><time>2025-04-28T09:36:35.000Z</time><ele>818</ele></trkpt><trkpt lat="45.989524" lon="10.307628"><time>2025-04-28T09:36:36.000Z</time><ele>817.8</ele></trkpt><trkpt lat="45.989519" lon="10.307648"><time>2025-04-28T09:36:37.000Z</time><ele>817.6</ele></trkpt><trkpt lat="45.989516" lon="10.307662"><time>2025-04-28T09:36:38.000Z</time><ele>817.4</ele></trkpt><trkpt lat="45.98951" lon="10.307683"><time>2025-04-28T09:36:39.000Z</time><ele>817.2</ele></trkpt><trkpt lat="45.989506" lon="10.307701"><time>2025-04-28T09:36:40.000Z</time><ele>817.2</ele></trkpt><trkpt lat="45.989505" lon="10.307718"><time>2025-04-28T09:36:41.000Z</time><ele>817</ele></trkpt><trkpt lat="45.989504" lon="10.307735"><time>2025-04-28T09:36:42.000Z</time><ele>816.8</ele></trkpt><trkpt lat="45.989503" lon="10.307749"><time>2025-04-28T09:36:43.000Z</time><ele>816.8</ele></trkpt><trkpt lat="45.989506" lon="10.307764"><time>2025-04-28T09:36:44.000Z</time><ele>816.6</ele></trkpt><trkpt lat="45.989515" lon="10.30778"><time>2025-04-28T09:36:45.000Z</time><ele>816.4</ele></trkpt><trkpt lat="45.989519" lon="10.307795"><time>2025-04-28T09:36:46.000Z</time><ele>816</ele></trkpt><trkpt lat="45.989525" lon="10.307816"><time>2025-04-28T09:36:47.000Z</time><ele>815.8</ele></trkpt><trkpt lat="45.989526" lon="10.307836"><time>2025-04-28T09:36:48.000Z</time><ele>815.6</ele></trkpt><trkpt lat="45.989528" lon="10.307854"><time>2025-04-28T09:36:49.000Z</time><ele>815.4</ele></trkpt><trkpt lat="45.989534" lon="10.30787"><time>2025-04-28T09:36:50.000Z</time><ele>815.2</ele></trkpt><trkpt lat="45.989535" lon="10.30789"><time>2025-04-28T09:36:51.000Z</time><ele>814.8</ele></trkpt><trkpt lat="45.989535" lon="10.307918"><time>2025-04-28T09:36:52.000Z</time><ele>814.6</ele></trkpt><trkpt lat="45.989534" lon="10.307945"><time>2025-04-28T09:36:53.000Z</time><ele>814.2</ele></trkpt><trkpt lat="45.989529" lon="10.307971"><time>2025-04-28T09:36:54.000Z</time><ele>814</ele></trkpt><trkpt lat="45.989524" lon="10.307997"><time>2025-04-28T09:36:55.000Z</time><ele>813.8</ele></trkpt><trkpt lat="45.989517" lon="10.308017"><time>2025-04-28T09:36:56.000Z</time><ele>813.6</ele></trkpt><trkpt lat="45.989518" lon="10.308036"><time>2025-04-28T09:36:57.000Z</time><ele>813.2</ele></trkpt><trkpt lat="45.989516" lon="10.308049"><time>2025-04-28T09:36:58.000Z</time><ele>813</ele></trkpt><trkpt lat="45.989514" lon="10.308071"><time>2025-04-28T09:36:59.000Z</time><ele>812.8</ele></trkpt><trkpt lat="45.989514" lon="10.308093"><time>2025-04-28T09:37:00.000Z</time><ele>812.6</ele></trkpt><trkpt lat="45.989516" lon="10.308118"><time>2025-04-28T09:37:01.000Z</time><ele>812.4</ele></trkpt><trkpt lat="45.989514" lon="10.30815"><time>2025-04-28T09:37:02.000Z</time><ele>812.2</ele></trkpt><trkpt lat="45.989516" lon="10.308172"><time>2025-04-28T09:37:03.000Z</time><ele>812</ele></trkpt><trkpt lat="45.989522" lon="10.308194"><time>2025-04-28T09:37:04.000Z</time><ele>811.8</ele></trkpt><trkpt lat="45.989533" lon="10.308209"><time>2025-04-28T09:37:05.000Z</time><ele>811.6</ele></trkpt><trkpt lat="45.989542" lon="10.308225"><time>2025-04-28T09:37:06.000Z</time><ele>811.6</ele></trkpt><trkpt lat="45.989548" lon="10.308242"><time>2025-04-28T09:37:07.000Z</time><ele>811.4</ele></trkpt><trkpt lat="45.989559" lon="10.308257"><time>2025-04-28T09:37:08.000Z</time><ele>811.4</ele></trkpt><trkpt lat="45.989571" lon="10.30827"><time>2025-04-28T09:37:09.000Z</time><ele>811</ele></trkpt><trkpt lat="45.989586" lon="10.308285"><time>2025-04-28T09:37:10.000Z</time><ele>810.8</ele></trkpt><trkpt lat="45.9896" lon="10.308298"><time>2025-04-28T09:37:11.000Z</time><ele>810.8</ele></trkpt><trkpt lat="45.989613" lon="10.308311"><time>2025-04-28T09:37:12.000Z</time><ele>810.8</ele></trkpt><trkpt lat="45.989625" lon="10.308326"><time>2025-04-28T09:37:13.000Z</time><ele>810.6</ele></trkpt><trkpt lat="45.989635" lon="10.308341"><time>2025-04-28T09:37:14.000Z</time><ele>810.6</ele></trkpt><trkpt lat="45.989647" lon="10.308354"><time>2025-04-28T09:37:15.000Z</time><ele>810.6</ele></trkpt><trkpt lat="45.989658" lon="10.308369"><time>2025-04-28T09:37:16.000Z</time><ele>810.4</ele></trkpt><trkpt lat="45.989666" lon="10.308381"><time>2025-04-28T09:37:17.000Z</time><ele>810.2</ele></trkpt><trkpt lat="45.989678" lon="10.308393"><time>2025-04-28T09:37:18.000Z</time><ele>810.2</ele></trkpt><trkpt lat="45.98969" lon="10.308401"><time>2025-04-28T09:37:19.000Z</time><ele>810</ele></trkpt><trkpt lat="45.989703" lon="10.308408"><time>2025-04-28T09:37:20.000Z</time><ele>810</ele></trkpt><trkpt lat="45.989714" lon="10.308417"><time>2025-04-28T09:37:21.000Z</time><ele>809.8</ele></trkpt><trkpt lat="45.989723" lon="10.308431"><time>2025-04-28T09:37:22.000Z</time><ele>809.6</ele></trkpt><trkpt lat="45.989728" lon="10.308448"><time>2025-04-28T09:37:23.000Z</time><ele>809.4</ele></trkpt><trkpt lat="45.989733" lon="10.308464"><time>2025-04-28T09:37:24.000Z</time><ele>809.2</ele></trkpt><trkpt lat="45.989737" lon="10.30848"><time>2025-04-28T09:37:25.000Z</time><ele>809.2</ele></trkpt><trkpt lat="45.98974" lon="10.308493"><time>2025-04-28T09:37:26.000Z</time><ele>809</ele></trkpt><trkpt lat="45.989745" lon="10.308508"><time>2025-04-28T09:37:27.000Z</time><ele>808.8</ele></trkpt><trkpt lat="45.989749" lon="10.308523"><time>2025-04-28T09:37:28.000Z</time><ele>808.6</ele></trkpt><trkpt lat="45.989748" lon="10.308537"><time>2025-04-28T09:37:29.000Z</time><ele>808.4</ele></trkpt><trkpt lat="45.989744" lon="10.308554"><time>2025-04-28T09:37:30.000Z</time><ele>808.2</ele></trkpt><trkpt lat="45.989737" lon="10.308571"><time>2025-04-28T09:37:31.000Z</time><ele>808</ele></trkpt><trkpt lat="45.989732" lon="10.308589"><time>2025-04-28T09:37:32.000Z</time><ele>807.8</ele></trkpt><trkpt lat="45.989725" lon="10.308606"><time>2025-04-28T09:37:33.000Z</time><ele>807.6</ele></trkpt><trkpt lat="45.989716" lon="10.308622"><time>2025-04-28T09:37:34.000Z</time><ele>807.2</ele></trkpt><trkpt lat="45.98971" lon="10.308635"><time>2025-04-28T09:37:35.000Z</time><ele>806.8</ele></trkpt><trkpt lat="45.989703" lon="10.308646"><time>2025-04-28T09:37:36.000Z</time><ele>806.6</ele></trkpt><trkpt lat="45.989697" lon="10.308656"><time>2025-04-28T09:37:37.000Z</time><ele>806.4</ele></trkpt><trkpt lat="45.989683" lon="10.308663"><time>2025-04-28T09:37:38.000Z</time><ele>806.4</ele></trkpt><trkpt lat="45.98967" lon="10.308673"><time>2025-04-28T09:37:39.000Z</time><ele>806</ele></trkpt><trkpt lat="45.989662" lon="10.308686"><time>2025-04-28T09:37:40.000Z</time><ele>805.8</ele></trkpt><trkpt lat="45.989654" lon="10.308697"><time>2025-04-28T09:37:41.000Z</time><ele>805.4</ele></trkpt><trkpt lat="45.989647" lon="10.308708"><time>2025-04-28T09:37:42.000Z</time><ele>805.2</ele></trkpt><trkpt lat="45.989639" lon="10.30872"><time>2025-04-28T09:37:43.000Z</time><ele>805.2</ele></trkpt><trkpt lat="45.989631" lon="10.308732"><time>2025-04-28T09:37:44.000Z</time><ele>805</ele></trkpt><trkpt lat="45.98963" lon="10.308736"><time>2025-04-28T09:37:45.000Z</time><ele>804.8</ele></trkpt><trkpt lat="45.989628" lon="10.308741"><time>2025-04-28T09:37:46.000Z</time><ele>804.8</ele></trkpt><trkpt lat="45.989624" lon="10.308757"><time>2025-04-28T09:37:47.000Z</time><ele>804.6</ele></trkpt><trkpt lat="45.989622" lon="10.308766"><time>2025-04-28T09:37:48.000Z</time><ele>804.4</ele></trkpt><trkpt lat="45.989611" lon="10.308785"><time>2025-04-28T09:37:49.000Z</time><ele>804.2</ele></trkpt><trkpt lat="45.989601" lon="10.308804"><time>2025-04-28T09:37:50.000Z</time><ele>804</ele></trkpt><trkpt lat="45.989594" lon="10.308824"><time>2025-04-28T09:37:51.000Z</time><ele>804</ele></trkpt><trkpt lat="45.989578" lon="10.308858"><time>2025-04-28T09:37:52.000Z</time><ele>803.6</ele></trkpt><trkpt lat="45.989577" lon="10.308874"><time>2025-04-28T09:37:53.000Z</time><ele>803.4</ele></trkpt><trkpt lat="45.989573" lon="10.308888"><time>2025-04-28T09:37:54.000Z</time><ele>803.2</ele></trkpt><trkpt lat="45.989571" lon="10.308902"><time>2025-04-28T09:37:55.000Z</time><ele>803</ele></trkpt><trkpt lat="45.989569" lon="10.308914"><time>2025-04-28T09:37:56.000Z</time><ele>802.6</ele></trkpt><trkpt lat="45.98956" lon="10.308929"><time>2025-04-28T09:37:57.000Z</time><ele>802.4</ele></trkpt><trkpt lat="45.989552" lon="10.30894"><time>2025-04-28T09:37:58.000Z</time><ele>802.4</ele></trkpt><trkpt lat="45.989541" lon="10.308954"><time>2025-04-28T09:37:59.000Z</time><ele>802.2</ele></trkpt><trkpt lat="45.989528" lon="10.30897"><time>2025-04-28T09:38:00.000Z</time><ele>802.2</ele></trkpt><trkpt lat="45.989519" lon="10.30899"><time>2025-04-28T09:38:01.000Z</time><ele>802.2</ele></trkpt><trkpt lat="45.989508" lon="10.309007"><time>2025-04-28T09:38:02.000Z</time><ele>802</ele></trkpt><trkpt lat="45.989502" lon="10.309021"><time>2025-04-28T09:38:03.000Z</time><ele>802</ele></trkpt><trkpt lat="45.9895" lon="10.309036"><time>2025-04-28T09:38:04.000Z</time><ele>802</ele></trkpt><trkpt lat="45.989497" lon="10.30905"><time>2025-04-28T09:38:05.000Z</time><ele>802</ele></trkpt><trkpt lat="45.98949" lon="10.309065"><time>2025-04-28T09:38:06.000Z</time><ele>802</ele></trkpt><trkpt lat="45.989481" lon="10.309085"><time>2025-04-28T09:38:07.000Z</time><ele>801.8</ele></trkpt><trkpt lat="45.98947" lon="10.309107"><time>2025-04-28T09:38:08.000Z</time><ele>801.8</ele></trkpt><trkpt lat="45.989457" lon="10.30913"><time>2025-04-28T09:38:09.000Z</time><ele>801.8</ele></trkpt><trkpt lat="45.989447" lon="10.309149"><time>2025-04-28T09:38:10.000Z</time><ele>801.6</ele></trkpt><trkpt lat="45.989446" lon="10.309167"><time>2025-04-28T09:38:11.000Z</time><ele>801.6</ele></trkpt><trkpt lat="45.989448" lon="10.309179"><time>2025-04-28T09:38:12.000Z</time><ele>801.8</ele></trkpt><trkpt lat="45.989454" lon="10.309182"><time>2025-04-28T09:38:13.000Z</time><ele>801.8</ele></trkpt><trkpt lat="45.989453" lon="10.309185"><time>2025-04-28T09:38:14.000Z</time><ele>801.8</ele></trkpt><trkpt lat="45.989445" lon="10.309199"><time>2025-04-28T09:38:15.000Z</time><ele>801.6</ele></trkpt><trkpt lat="45.989435" lon="10.309211"><time>2025-04-28T09:38:16.000Z</time><ele>801.6</ele></trkpt><trkpt lat="45.989425" lon="10.309221"><time>2025-04-28T09:38:17.000Z</time><ele>801.6</ele></trkpt><trkpt lat="45.989409" lon="10.309235"><time>2025-04-28T09:38:18.000Z</time><ele>801.4</ele></trkpt><trkpt lat="45.989396" lon="10.309259"><time>2025-04-28T09:38:19.000Z</time><ele>801.4</ele></trkpt><trkpt lat="45.98939" lon="10.309274"><time>2025-04-28T09:38:20.000Z</time><ele>801.2</ele></trkpt><trkpt lat="45.989387" lon="10.309291"><time>2025-04-28T09:38:21.000Z</time><ele>801</ele></trkpt><trkpt lat="45.989384" lon="10.309307"><time>2025-04-28T09:38:22.000Z</time><ele>801</ele></trkpt><trkpt lat="45.989384" lon="10.309322"><time>2025-04-28T09:38:23.000Z</time><ele>800.8</ele></trkpt><trkpt lat="45.989381" lon="10.309339"><time>2025-04-28T09:38:24.000Z</time><ele>800.8</ele></trkpt><trkpt lat="45.989376" lon="10.309359"><time>2025-04-28T09:38:25.000Z</time><ele>800.6</ele></trkpt><trkpt lat="45.989358" lon="10.309378"><time>2025-04-28T09:38:26.000Z</time><ele>800.6</ele></trkpt><trkpt lat="45.989347" lon="10.309395"><time>2025-04-28T09:38:27.000Z</time><ele>800.4</ele></trkpt><trkpt lat="45.98934" lon="10.30941"><time>2025-04-28T09:38:28.000Z</time><ele>800.4</ele></trkpt><trkpt lat="45.989328" lon="10.309425"><time>2025-04-28T09:38:29.000Z</time><ele>800.4</ele></trkpt><trkpt lat="45.989312" lon="10.30945"><time>2025-04-28T09:38:30.000Z</time><ele>800.4</ele></trkpt><trkpt lat="45.989301" lon="10.309471"><time>2025-04-28T09:38:31.000Z</time><ele>800.2</ele></trkpt><trkpt lat="45.989292" lon="10.309491"><time>2025-04-28T09:38:32.000Z</time><ele>800</ele></trkpt><trkpt lat="45.989286" lon="10.309513"><time>2025-04-28T09:38:33.000Z</time><ele>799.6</ele></trkpt><trkpt lat="45.98928" lon="10.309533"><time>2025-04-28T09:38:34.000Z</time><ele>799.6</ele></trkpt><trkpt lat="45.989272" lon="10.309551"><time>2025-04-28T09:38:35.000Z</time><ele>799.4</ele></trkpt><trkpt lat="45.989265" lon="10.309565"><time>2025-04-28T09:38:36.000Z</time><ele>799.2</ele></trkpt><trkpt lat="45.989257" lon="10.309579"><time>2025-04-28T09:38:37.000Z</time><ele>799.2</ele></trkpt><trkpt lat="45.989252" lon="10.309592"><time>2025-04-28T09:38:38.000Z</time><ele>798.8</ele></trkpt><trkpt lat="45.989248" lon="10.309605"><time>2025-04-28T09:38:39.000Z</time><ele>798.4</ele></trkpt><trkpt lat="45.989242" lon="10.30962"><time>2025-04-28T09:38:40.000Z</time><ele>798</ele></trkpt><trkpt lat="45.989235" lon="10.309634"><time>2025-04-28T09:38:41.000Z</time><ele>797.8</ele></trkpt><trkpt lat="45.989226" lon="10.309645"><time>2025-04-28T09:38:42.000Z</time><ele>797.8</ele></trkpt><trkpt lat="45.989222" lon="10.309656"><time>2025-04-28T09:38:43.000Z</time><ele>797.6</ele></trkpt><trkpt lat="45.989213" lon="10.309671"><time>2025-04-28T09:38:44.000Z</time><ele>797.4</ele></trkpt><trkpt lat="45.989205" lon="10.309686"><time>2025-04-28T09:38:45.000Z</time><ele>797.4</ele></trkpt><trkpt lat="45.989198" lon="10.3097"><time>2025-04-28T09:38:46.000Z</time><ele>797.2</ele></trkpt><trkpt lat="45.989195" lon="10.309713"><time>2025-04-28T09:38:47.000Z</time><ele>797</ele></trkpt><trkpt lat="45.989191" lon="10.309729"><time>2025-04-28T09:38:48.000Z</time><ele>796.8</ele></trkpt><trkpt lat="45.989186" lon="10.309745"><time>2025-04-28T09:38:49.000Z</time><ele>796.4</ele></trkpt><trkpt lat="45.98918" lon="10.309756"><time>2025-04-28T09:38:50.000Z</time><ele>796</ele></trkpt><trkpt lat="45.98917" lon="10.309765"><time>2025-04-28T09:38:51.000Z</time><ele>795.8</ele></trkpt><trkpt lat="45.989159" lon="10.309775"><time>2025-04-28T09:38:52.000Z</time><ele>795.6</ele></trkpt><trkpt lat="45.989147" lon="10.309786"><time>2025-04-28T09:38:53.000Z</time><ele>795.4</ele></trkpt><trkpt lat="45.989138" lon="10.309802"><time>2025-04-28T09:38:54.000Z</time><ele>795.4</ele></trkpt><trkpt lat="45.989131" lon="10.309822"><time>2025-04-28T09:38:55.000Z</time><ele>795.2</ele></trkpt><trkpt lat="45.989125" lon="10.309841"><time>2025-04-28T09:38:56.000Z</time><ele>795</ele></trkpt><trkpt lat="45.989119" lon="10.30986"><time>2025-04-28T09:38:57.000Z</time><ele>794.8</ele></trkpt><trkpt lat="45.989112" lon="10.309881"><time>2025-04-28T09:38:58.000Z</time><ele>794.4</ele></trkpt><trkpt lat="45.989107" lon="10.309904"><time>2025-04-28T09:38:59.000Z</time><ele>794</ele></trkpt><trkpt lat="45.989102" lon="10.309924"><time>2025-04-28T09:39:00.000Z</time><ele>793.8</ele></trkpt><trkpt lat="45.9891" lon="10.309941"><time>2025-04-28T09:39:01.000Z</time><ele>793.4</ele></trkpt><trkpt lat="45.989098" lon="10.30996"><time>2025-04-28T09:39:02.000Z</time><ele>793.2</ele></trkpt><trkpt lat="45.989099" lon="10.309983"><time>2025-04-28T09:39:03.000Z</time><ele>792.8</ele></trkpt><trkpt lat="45.989103" lon="10.310004"><time>2025-04-28T09:39:04.000Z</time><ele>792.6</ele></trkpt><trkpt lat="45.989107" lon="10.310026"><time>2025-04-28T09:39:05.000Z</time><ele>792.2</ele></trkpt><trkpt lat="45.989108" lon="10.310052"><time>2025-04-28T09:39:06.000Z</time><ele>792</ele></trkpt><trkpt lat="45.98911" lon="10.31008"><time>2025-04-28T09:39:07.000Z</time><ele>791.6</ele></trkpt><trkpt lat="45.989114" lon="10.310105"><time>2025-04-28T09:39:08.000Z</time><ele>791.4</ele></trkpt><trkpt lat="45.989115" lon="10.310139"><time>2025-04-28T09:39:09.000Z</time><ele>791.2</ele></trkpt><trkpt lat="45.989113" lon="10.310168"><time>2025-04-28T09:39:10.000Z</time><ele>790.8</ele></trkpt><trkpt lat="45.989116" lon="10.310189"><time>2025-04-28T09:39:11.000Z</time><ele>790.6</ele></trkpt><trkpt lat="45.989122" lon="10.310211"><time>2025-04-28T09:39:12.000Z</time><ele>790.2</ele></trkpt><trkpt lat="45.989124" lon="10.310233"><time>2025-04-28T09:39:13.000Z</time><ele>790</ele></trkpt><trkpt lat="45.989125" lon="10.310253"><time>2025-04-28T09:39:14.000Z</time><ele>789.8</ele></trkpt><trkpt lat="45.989122" lon="10.310268"><time>2025-04-28T09:39:15.000Z</time><ele>789.4</ele></trkpt><trkpt lat="45.989116" lon="10.310289"><time>2025-04-28T09:39:16.000Z</time><ele>789.2</ele></trkpt><trkpt lat="45.989106" lon="10.31031"><time>2025-04-28T09:39:17.000Z</time><ele>789</ele></trkpt><trkpt lat="45.989105" lon="10.310324"><time>2025-04-28T09:39:18.000Z</time><ele>788.8</ele></trkpt><trkpt lat="45.9891" lon="10.310333"><time>2025-04-28T09:39:19.000Z</time><ele>788.4</ele></trkpt><trkpt lat="45.989084" lon="10.310349"><time>2025-04-28T09:39:20.000Z</time><ele>788.2</ele></trkpt><trkpt lat="45.989077" lon="10.31037"><time>2025-04-28T09:39:21.000Z</time><ele>787.8</ele></trkpt><trkpt lat="45.989067" lon="10.310384"><time>2025-04-28T09:39:22.000Z</time><ele>787.6</ele></trkpt><trkpt lat="45.989064" lon="10.310394"><time>2025-04-28T09:39:23.000Z</time><ele>787.4</ele></trkpt><trkpt lat="45.989061" lon="10.310403"><time>2025-04-28T09:39:24.000Z</time><ele>787.2</ele></trkpt><trkpt lat="45.989054" lon="10.310416"><time>2025-04-28T09:39:25.000Z</time><ele>787</ele></trkpt><trkpt lat="45.989049" lon="10.310424"><time>2025-04-28T09:39:26.000Z</time><ele>786.8</ele></trkpt><trkpt lat="45.98904" lon="10.310438"><time>2025-04-28T09:39:27.000Z</time><ele>786.6</ele></trkpt><trkpt lat="45.989034" lon="10.310453"><time>2025-04-28T09:39:28.000Z</time><ele>786.4</ele></trkpt><trkpt lat="45.989027" lon="10.310467"><time>2025-04-28T09:39:29.000Z</time><ele>786.2</ele></trkpt><trkpt lat="45.989016" lon="10.310474"><time>2025-04-28T09:39:30.000Z</time><ele>786</ele></trkpt><trkpt lat="45.989004" lon="10.310485"><time>2025-04-28T09:39:31.000Z</time><ele>785.8</ele></trkpt><trkpt lat="45.988997" lon="10.310506"><time>2025-04-28T09:39:32.000Z</time><ele>785.6</ele></trkpt><trkpt lat="45.988992" lon="10.310522"><time>2025-04-28T09:39:33.000Z</time><ele>785.4</ele></trkpt><trkpt lat="45.988986" lon="10.310543"><time>2025-04-28T09:39:34.000Z</time><ele>785.2</ele></trkpt><trkpt lat="45.988987" lon="10.310566"><time>2025-04-28T09:39:35.000Z</time><ele>785</ele></trkpt><trkpt lat="45.988987" lon="10.31059"><time>2025-04-28T09:39:36.000Z</time><ele>784.8</ele></trkpt><trkpt lat="45.988981" lon="10.310619"><time>2025-04-28T09:39:37.000Z</time><ele>784.6</ele></trkpt><trkpt lat="45.988977" lon="10.31064"><time>2025-04-28T09:39:38.000Z</time><ele>784.6</ele></trkpt><trkpt lat="45.988971" lon="10.310662"><time>2025-04-28T09:39:39.000Z</time><ele>784.2</ele></trkpt><trkpt lat="45.988966" lon="10.310681"><time>2025-04-28T09:39:40.000Z</time><ele>784</ele></trkpt><trkpt lat="45.988961" lon="10.310706"><time>2025-04-28T09:39:41.000Z</time><ele>784</ele></trkpt><trkpt lat="45.988951" lon="10.310732"><time>2025-04-28T09:39:42.000Z</time><ele>783.8</ele></trkpt><trkpt lat="45.988951" lon="10.310753"><time>2025-04-28T09:39:43.000Z</time><ele>783.6</ele></trkpt><trkpt lat="45.988948" lon="10.310784"><time>2025-04-28T09:39:44.000Z</time><ele>783.4</ele></trkpt><trkpt lat="45.988942" lon="10.310807"><time>2025-04-28T09:39:45.000Z</time><ele>783.2</ele></trkpt><trkpt lat="45.988937" lon="10.310822"><time>2025-04-28T09:39:46.000Z</time><ele>783.2</ele></trkpt><trkpt lat="45.988933" lon="10.310847"><time>2025-04-28T09:39:47.000Z</time><ele>783</ele></trkpt><trkpt lat="45.988928" lon="10.310869"><time>2025-04-28T09:39:48.000Z</time><ele>782.8</ele></trkpt><trkpt lat="45.988924" lon="10.310893"><time>2025-04-28T09:39:49.000Z</time><ele>782.8</ele></trkpt><trkpt lat="45.988923" lon="10.310911"><time>2025-04-28T09:39:50.000Z</time><ele>782.6</ele></trkpt><trkpt lat="45.988924" lon="10.310921"><time>2025-04-28T09:39:51.000Z</time><ele>782.4</ele></trkpt><trkpt lat="45.988926" lon="10.31094"><time>2025-04-28T09:39:52.000Z</time><ele>782.4</ele></trkpt><trkpt lat="45.988924" lon="10.310956"><time>2025-04-28T09:39:53.000Z</time><ele>782.2</ele></trkpt><trkpt lat="45.988921" lon="10.310974"><time>2025-04-28T09:39:54.000Z</time><ele>782.2</ele></trkpt><trkpt lat="45.988918" lon="10.310993"><time>2025-04-28T09:39:55.000Z</time><ele>782</ele></trkpt><trkpt lat="45.988916" lon="10.311013"><time>2025-04-28T09:39:56.000Z</time><ele>781.8</ele></trkpt><trkpt lat="45.988918" lon="10.311034"><time>2025-04-28T09:39:57.000Z</time><ele>781.6</ele></trkpt><trkpt lat="45.988916" lon="10.311054"><time>2025-04-28T09:39:58.000Z</time><ele>781.4</ele></trkpt><trkpt lat="45.988915" lon="10.311074"><time>2025-04-28T09:39:59.000Z</time><ele>781.2</ele></trkpt><trkpt lat="45.988916" lon="10.311094"><time>2025-04-28T09:40:00.000Z</time><ele>781</ele></trkpt><trkpt lat="45.988918" lon="10.311111"><time>2025-04-28T09:40:01.000Z</time><ele>780.8</ele></trkpt><trkpt lat="45.988921" lon="10.311125"><time>2025-04-28T09:40:02.000Z</time><ele>780.6</ele></trkpt><trkpt lat="45.988927" lon="10.311147"><time>2025-04-28T09:40:03.000Z</time><ele>780.6</ele></trkpt><trkpt lat="45.988931" lon="10.311165"><time>2025-04-28T09:40:04.000Z</time><ele>780.4</ele></trkpt><trkpt lat="45.988933" lon="10.311186"><time>2025-04-28T09:40:05.000Z</time><ele>780.2</ele></trkpt><trkpt lat="45.988936" lon="10.311205"><time>2025-04-28T09:40:06.000Z</time><ele>780</ele></trkpt><trkpt lat="45.988942" lon="10.311223"><time>2025-04-28T09:40:07.000Z</time><ele>780</ele></trkpt><trkpt lat="45.988947" lon="10.311242"><time>2025-04-28T09:40:08.000Z</time><ele>779.8</ele></trkpt><trkpt lat="45.988954" lon="10.311259"><time>2025-04-28T09:40:09.000Z</time><ele>779.6</ele></trkpt><trkpt lat="45.988962" lon="10.311275"><time>2025-04-28T09:40:10.000Z</time><ele>779.2</ele></trkpt><trkpt lat="45.988968" lon="10.311291"><time>2025-04-28T09:40:11.000Z</time><ele>779</ele></trkpt><trkpt lat="45.988974" lon="10.311304"><time>2025-04-28T09:40:12.000Z</time><ele>778.6</ele></trkpt><trkpt lat="45.988979" lon="10.311316"><time>2025-04-28T09:40:13.000Z</time><ele>778.4</ele></trkpt><trkpt lat="45.988984" lon="10.31133"><time>2025-04-28T09:40:14.000Z</time><ele>778.2</ele></trkpt><trkpt lat="45.98899" lon="10.311349"><time>2025-04-28T09:40:15.000Z</time><ele>778.2</ele></trkpt><trkpt lat="45.988998" lon="10.311366"><time>2025-04-28T09:40:16.000Z</time><ele>778</ele></trkpt><trkpt lat="45.989007" lon="10.311384"><time>2025-04-28T09:40:17.000Z</time><ele>778</ele></trkpt><trkpt lat="45.989014" lon="10.311398"><time>2025-04-28T09:40:18.000Z</time><ele>777.6</ele></trkpt><trkpt lat="45.989016" lon="10.31142"><time>2025-04-28T09:40:19.000Z</time><ele>777.4</ele></trkpt><trkpt lat="45.989024" lon="10.311442"><time>2025-04-28T09:40:20.000Z</time><ele>777.2</ele></trkpt><trkpt lat="45.98903" lon="10.311462"><time>2025-04-28T09:40:21.000Z</time><ele>777</ele></trkpt><trkpt lat="45.989039" lon="10.31148"><time>2025-04-28T09:40:22.000Z</time><ele>776.8</ele></trkpt><trkpt lat="45.989049" lon="10.311497"><time>2025-04-28T09:40:23.000Z</time><ele>776.6</ele></trkpt><trkpt lat="45.989056" lon="10.311509"><time>2025-04-28T09:40:24.000Z</time><ele>776.4</ele></trkpt><trkpt lat="45.989059" lon="10.311526"><time>2025-04-28T09:40:25.000Z</time><ele>776.2</ele></trkpt><trkpt lat="45.989069" lon="10.311535"><time>2025-04-28T09:40:26.000Z</time><ele>776</ele></trkpt><trkpt lat="45.989076" lon="10.311546"><time>2025-04-28T09:40:27.000Z</time><ele>775.8</ele></trkpt><trkpt lat="45.989081" lon="10.311558"><time>2025-04-28T09:40:28.000Z</time><ele>775.6</ele></trkpt><trkpt lat="45.989089" lon="10.311569"><time>2025-04-28T09:40:29.000Z</time><ele>775.2</ele></trkpt><trkpt lat="45.989099" lon="10.311581"><time>2025-04-28T09:40:30.000Z</time><ele>775</ele></trkpt><trkpt lat="45.989109" lon="10.3116"><time>2025-04-28T09:40:31.000Z</time><ele>774.8</ele></trkpt><trkpt lat="45.989119" lon="10.31162"><time>2025-04-28T09:40:32.000Z</time><ele>774.6</ele></trkpt><trkpt lat="45.989128" lon="10.311637"><time>2025-04-28T09:40:33.000Z</time><ele>774.6</ele></trkpt><trkpt lat="45.989136" lon="10.311654"><time>2025-04-28T09:40:34.000Z</time><ele>774.4</ele></trkpt><trkpt lat="45.989145" lon="10.311668"><time>2025-04-28T09:40:35.000Z</time><ele>774.4</ele></trkpt><trkpt lat="45.989154" lon="10.311682"><time>2025-04-28T09:40:36.000Z</time><ele>774.2</ele></trkpt><trkpt lat="45.989169" lon="10.311691"><time>2025-04-28T09:40:37.000Z</time><ele>774.2</ele></trkpt><trkpt lat="45.989184" lon="10.311699"><time>2025-04-28T09:40:38.000Z</time><ele>774</ele></trkpt><trkpt lat="45.989201" lon="10.31171"><time>2025-04-28T09:40:39.000Z</time><ele>773.8</ele></trkpt><trkpt lat="45.989217" lon="10.311721"><time>2025-04-28T09:40:40.000Z</time><ele>773.6</ele></trkpt><trkpt lat="45.989224" lon="10.311726"><time>2025-04-28T09:40:41.000Z</time><ele>773.4</ele></trkpt><trkpt lat="45.989227" lon="10.311732"><time>2025-04-28T09:40:42.000Z</time><ele>773.4</ele></trkpt><trkpt lat="45.989251" lon="10.311729"><time>2025-04-28T09:40:43.000Z</time><ele>773.4</ele></trkpt><trkpt lat="45.989266" lon="10.311723"><time>2025-04-28T09:40:44.000Z</time><ele>773.4</ele></trkpt><trkpt lat="45.989282" lon="10.31172"><time>2025-04-28T09:40:45.000Z</time><ele>773.6</ele></trkpt><trkpt lat="45.98929" lon="10.311721"><time>2025-04-28T09:40:46.000Z</time><ele>773.6</ele></trkpt><trkpt lat="45.989293" lon="10.311722"><time>2025-04-28T09:40:47.000Z</time><ele>773.6</ele></trkpt><trkpt lat="45.989304" lon="10.311733"><time>2025-04-28T09:40:48.000Z</time><ele>773.6</ele></trkpt><trkpt lat="45.989313" lon="10.311755"><time>2025-04-28T09:40:49.000Z</time><ele>773.2</ele></trkpt><trkpt lat="45.989324" lon="10.311769"><time>2025-04-28T09:40:50.000Z</time><ele>773</ele></trkpt><trkpt lat="45.98933" lon="10.311778"><time>2025-04-28T09:40:51.000Z</time><ele>772.8</ele></trkpt><trkpt lat="45.98934" lon="10.31179"><time>2025-04-28T09:40:52.000Z</time><ele>772.6</ele></trkpt><trkpt lat="45.989351" lon="10.311803"><time>2025-04-28T09:40:53.000Z</time><ele>772.6</ele></trkpt><trkpt lat="45.989364" lon="10.311819"><time>2025-04-28T09:40:54.000Z</time><ele>772.6</ele></trkpt><trkpt lat="45.989381" lon="10.311843"><time>2025-04-28T09:40:55.000Z</time><ele>772.4</ele></trkpt><trkpt lat="45.989395" lon="10.311862"><time>2025-04-28T09:40:56.000Z</time><ele>772.2</ele></trkpt><trkpt lat="45.989413" lon="10.311869"><time>2025-04-28T09:40:57.000Z</time><ele>772</ele></trkpt><trkpt lat="45.989423" lon="10.311881"><time>2025-04-28T09:40:58.000Z</time><ele>772</ele></trkpt><trkpt lat="45.989429" lon="10.311889"><time>2025-04-28T09:40:59.000Z</time><ele>771.8</ele></trkpt><trkpt lat="45.989438" lon="10.311894"><time>2025-04-28T09:41:00.000Z</time><ele>771.4</ele></trkpt><trkpt lat="45.989447" lon="10.311903"><time>2025-04-28T09:41:01.000Z</time><ele>771.4</ele></trkpt><trkpt lat="45.989458" lon="10.311907"><time>2025-04-28T09:41:02.000Z</time><ele>771</ele></trkpt><trkpt lat="45.989468" lon="10.311912"><time>2025-04-28T09:41:03.000Z</time><ele>770.8</ele></trkpt><trkpt lat="45.989479" lon="10.311925"><time>2025-04-28T09:41:04.000Z</time><ele>770.8</ele></trkpt><trkpt lat="45.98949" lon="10.311929"><time>2025-04-28T09:41:05.000Z</time><ele>770.6</ele></trkpt><trkpt lat="45.989504" lon="10.311929"><time>2025-04-28T09:41:06.000Z</time><ele>770.6</ele></trkpt><trkpt lat="45.989519" lon="10.311933"><time>2025-04-28T09:41:07.000Z</time><ele>770.4</ele></trkpt><trkpt lat="45.989534" lon="10.31194"><time>2025-04-28T09:41:08.000Z</time><ele>770.2</ele></trkpt><trkpt lat="45.989547" lon="10.311941"><time>2025-04-28T09:41:09.000Z</time><ele>770</ele></trkpt><trkpt lat="45.989559" lon="10.311942"><time>2025-04-28T09:41:10.000Z</time><ele>769.8</ele></trkpt><trkpt lat="45.989567" lon="10.311942"><time>2025-04-28T09:41:11.000Z</time><ele>769.8</ele></trkpt><trkpt lat="45.989577" lon="10.311937"><time>2025-04-28T09:41:12.000Z</time><ele>769.6</ele></trkpt><trkpt lat="45.989585" lon="10.311934"><time>2025-04-28T09:41:13.000Z</time><ele>769.6</ele></trkpt><trkpt lat="45.989591" lon="10.311934"><time>2025-04-28T09:41:14.000Z</time><ele>769.4</ele></trkpt><trkpt lat="45.9896" lon="10.311932"><time>2025-04-28T09:41:15.000Z</time><ele>769.2</ele></trkpt><trkpt lat="45.989609" lon="10.311944"><time>2025-04-28T09:41:16.000Z</time><ele>769.2</ele></trkpt><trkpt lat="45.98962" lon="10.311955"><time>2025-04-28T09:41:17.000Z</time><ele>769</ele></trkpt><trkpt lat="45.989634" lon="10.311962"><time>2025-04-28T09:41:18.000Z</time><ele>769</ele></trkpt><trkpt lat="45.989647" lon="10.31197"><time>2025-04-28T09:41:19.000Z</time><ele>768.8</ele></trkpt><trkpt lat="45.989658" lon="10.311973"><time>2025-04-28T09:41:20.000Z</time><ele>768.6</ele></trkpt><trkpt lat="45.989668" lon="10.311969"><time>2025-04-28T09:41:21.000Z</time><ele>768.4</ele></trkpt><trkpt lat="45.989678" lon="10.311967"><time>2025-04-28T09:41:22.000Z</time><ele>768.2</ele></trkpt><trkpt lat="45.989692" lon="10.311966"><time>2025-04-28T09:41:23.000Z</time><ele>768</ele></trkpt><trkpt lat="45.989701" lon="10.311974"><time>2025-04-28T09:41:24.000Z</time><ele>767.8</ele></trkpt><trkpt lat="45.989707" lon="10.311991"><time>2025-04-28T09:41:25.000Z</time><ele>767.6</ele></trkpt><trkpt lat="45.989718" lon="10.31201"><time>2025-04-28T09:41:26.000Z</time><ele>767.4</ele></trkpt><trkpt lat="45.989722" lon="10.31203"><time>2025-04-28T09:41:27.000Z</time><ele>767.2</ele></trkpt><trkpt lat="45.989728" lon="10.312045"><time>2025-04-28T09:41:28.000Z</time><ele>767</ele></trkpt><trkpt lat="45.989736" lon="10.312058"><time>2025-04-28T09:41:29.000Z</time><ele>766.8</ele></trkpt><trkpt lat="45.989748" lon="10.312063"><time>2025-04-28T09:41:30.000Z</time><ele>766.8</ele></trkpt><trkpt lat="45.989759" lon="10.312061"><time>2025-04-28T09:41:31.000Z</time><ele>766.6</ele></trkpt><trkpt lat="45.989768" lon="10.312071"><time>2025-04-28T09:41:32.000Z</time><ele>766.4</ele></trkpt><trkpt lat="45.989777" lon="10.312088"><time>2025-04-28T09:41:33.000Z</time><ele>766.2</ele></trkpt><trkpt lat="45.989786" lon="10.312108"><time>2025-04-28T09:41:34.000Z</time><ele>766</ele></trkpt><trkpt lat="45.989798" lon="10.312123"><time>2025-04-28T09:41:35.000Z</time><ele>765.8</ele></trkpt><trkpt lat="45.989813" lon="10.312148"><time>2025-04-28T09:41:36.000Z</time><ele>765.4</ele></trkpt><trkpt lat="45.989826" lon="10.312164"><time>2025-04-28T09:41:37.000Z</time><ele>765.2</ele></trkpt><trkpt lat="45.989844" lon="10.312168"><time>2025-04-28T09:41:38.000Z</time><ele>765.2</ele></trkpt><trkpt lat="45.989861" lon="10.312157"><time>2025-04-28T09:41:39.000Z</time><ele>765</ele></trkpt><trkpt lat="45.989876" lon="10.312148"><time>2025-04-28T09:41:40.000Z</time><ele>765</ele></trkpt><trkpt lat="45.98989" lon="10.312151"><time>2025-04-28T09:41:41.000Z</time><ele>764.8</ele></trkpt><trkpt lat="45.989895" lon="10.312148"><time>2025-04-28T09:41:42.000Z</time><ele>764.6</ele></trkpt><trkpt lat="45.989913" lon="10.312148"><time>2025-04-28T09:41:43.000Z</time><ele>764.2</ele></trkpt><trkpt lat="45.989925" lon="10.312152"><time>2025-04-28T09:41:44.000Z</time><ele>764</ele></trkpt><trkpt lat="45.989936" lon="10.312153"><time>2025-04-28T09:41:45.000Z</time><ele>764</ele></trkpt><trkpt lat="45.989946" lon="10.312162"><time>2025-04-28T09:41:46.000Z</time><ele>763.8</ele></trkpt><trkpt lat="45.989955" lon="10.312176"><time>2025-04-28T09:41:47.000Z</time><ele>763.6</ele></trkpt><trkpt lat="45.989969" lon="10.312178"><time>2025-04-28T09:41:48.000Z</time><ele>763.6</ele></trkpt><trkpt lat="45.989981" lon="10.31218"><time>2025-04-28T09:41:49.000Z</time><ele>763.4</ele></trkpt><trkpt lat="45.989994" lon="10.312187"><time>2025-04-28T09:41:50.000Z</time><ele>763.2</ele></trkpt><trkpt lat="45.990005" lon="10.312189"><time>2025-04-28T09:41:51.000Z</time><ele>763</ele></trkpt><trkpt lat="45.990016" lon="10.312193"><time>2025-04-28T09:41:52.000Z</time><ele>763</ele></trkpt><trkpt lat="45.990029" lon="10.312197"><time>2025-04-28T09:41:53.000Z</time><ele>762.8</ele></trkpt><trkpt lat="45.990041" lon="10.312206"><time>2025-04-28T09:41:54.000Z</time><ele>762.6</ele></trkpt><trkpt lat="45.990054" lon="10.312214"><time>2025-04-28T09:41:55.000Z</time><ele>762.4</ele></trkpt><trkpt lat="45.990069" lon="10.312213"><time>2025-04-28T09:41:56.000Z</time><ele>762.2</ele></trkpt><trkpt lat="45.990081" lon="10.31221"><time>2025-04-28T09:41:57.000Z</time><ele>762</ele></trkpt><trkpt lat="45.990094" lon="10.312207"><time>2025-04-28T09:41:58.000Z</time><ele>761.8</ele></trkpt><trkpt lat="45.990104" lon="10.312207"><time>2025-04-28T09:41:59.000Z</time><ele>761.6</ele></trkpt><trkpt lat="45.990113" lon="10.312205"><time>2025-04-28T09:42:00.000Z</time><ele>761.4</ele></trkpt><trkpt lat="45.990125" lon="10.312201"><time>2025-04-28T09:42:01.000Z</time><ele>761.2</ele></trkpt><trkpt lat="45.990139" lon="10.312201"><time>2025-04-28T09:42:02.000Z</time><ele>761</ele></trkpt><trkpt lat="45.990153" lon="10.312198"><time>2025-04-28T09:42:03.000Z</time><ele>760.6</ele></trkpt><trkpt lat="45.990163" lon="10.312196"><time>2025-04-28T09:42:04.000Z</time><ele>760.4</ele></trkpt><trkpt lat="45.990176" lon="10.31219"><time>2025-04-28T09:42:05.000Z</time><ele>760.2</ele></trkpt><trkpt lat="45.99019" lon="10.312181"><time>2025-04-28T09:42:06.000Z</time><ele>760</ele></trkpt><trkpt lat="45.990206" lon="10.312171"><time>2025-04-28T09:42:07.000Z</time><ele>759.8</ele></trkpt><trkpt lat="45.990222" lon="10.312161"><time>2025-04-28T09:42:08.000Z</time><ele>759.6</ele></trkpt><trkpt lat="45.990238" lon="10.312155"><time>2025-04-28T09:42:09.000Z</time><ele>759.4</ele></trkpt><trkpt lat="45.990255" lon="10.312153"><time>2025-04-28T09:42:10.000Z</time><ele>759.2</ele></trkpt><trkpt lat="45.990279" lon="10.312146"><time>2025-04-28T09:42:11.000Z</time><ele>759</ele></trkpt><trkpt lat="45.9903" lon="10.312134"><time>2025-04-28T09:42:12.000Z</time><ele>758.6</ele></trkpt><trkpt lat="45.990315" lon="10.312118"><time>2025-04-28T09:42:13.000Z</time><ele>758.4</ele></trkpt><trkpt lat="45.990328" lon="10.312109"><time>2025-04-28T09:42:14.000Z</time><ele>758.2</ele></trkpt><trkpt lat="45.990344" lon="10.312105"><time>2025-04-28T09:42:15.000Z</time><ele>757.8</ele></trkpt><trkpt lat="45.99036" lon="10.312099"><time>2025-04-28T09:42:16.000Z</time><ele>757.6</ele></trkpt><trkpt lat="45.990367" lon="10.312096"><time>2025-04-28T09:42:17.000Z</time><ele>757.2</ele></trkpt><trkpt lat="45.990379" lon="10.312098"><time>2025-04-28T09:42:18.000Z</time><ele>756.8</ele></trkpt><trkpt lat="45.990391" lon="10.312098"><time>2025-04-28T09:42:19.000Z</time><ele>756.6</ele></trkpt><trkpt lat="45.990406" lon="10.312096"><time>2025-04-28T09:42:20.000Z</time><ele>756.4</ele></trkpt><trkpt lat="45.990422" lon="10.31209"><time>2025-04-28T09:42:21.000Z</time><ele>756.2</ele></trkpt><trkpt lat="45.990439" lon="10.312084"><time>2025-04-28T09:42:22.000Z</time><ele>756</ele></trkpt><trkpt lat="45.990456" lon="10.312075"><time>2025-04-28T09:42:23.000Z</time><ele>755.8</ele></trkpt><trkpt lat="45.990471" lon="10.312069"><time>2025-04-28T09:42:24.000Z</time><ele>755.6</ele></trkpt><trkpt lat="45.990488" lon="10.312061"><time>2025-04-28T09:42:25.000Z</time><ele>755.4</ele></trkpt><trkpt lat="45.990503" lon="10.312054"><time>2025-04-28T09:42:26.000Z</time><ele>755.4</ele></trkpt><trkpt lat="45.990522" lon="10.312049"><time>2025-04-28T09:42:27.000Z</time><ele>755</ele></trkpt><trkpt lat="45.990534" lon="10.31205"><time>2025-04-28T09:42:28.000Z</time><ele>754.8</ele></trkpt><trkpt lat="45.990545" lon="10.312055"><time>2025-04-28T09:42:29.000Z</time><ele>754.8</ele></trkpt><trkpt lat="45.990555" lon="10.312063"><time>2025-04-28T09:42:30.000Z</time><ele>754.6</ele></trkpt><trkpt lat="45.990565" lon="10.312064"><time>2025-04-28T09:42:31.000Z</time><ele>754.6</ele></trkpt><trkpt lat="45.990576" lon="10.312061"><time>2025-04-28T09:42:32.000Z</time><ele>754.4</ele></trkpt><trkpt lat="45.990589" lon="10.312062"><time>2025-04-28T09:42:33.000Z</time><ele>754</ele></trkpt><trkpt lat="45.990604" lon="10.312078"><time>2025-04-28T09:42:34.000Z</time><ele>753.8</ele></trkpt><trkpt lat="45.990627" lon="10.312089"><time>2025-04-28T09:42:35.000Z</time><ele>753.6</ele></trkpt><trkpt lat="45.990652" lon="10.312096"><time>2025-04-28T09:42:36.000Z</time><ele>753.4</ele></trkpt><trkpt lat="45.990666" lon="10.312099"><time>2025-04-28T09:42:37.000Z</time><ele>753.2</ele></trkpt><trkpt lat="45.990676" lon="10.312107"><time>2025-04-28T09:42:38.000Z</time><ele>753</ele></trkpt><trkpt lat="45.990685" lon="10.312116"><time>2025-04-28T09:42:39.000Z</time><ele>753</ele></trkpt><trkpt lat="45.990703" lon="10.312113"><time>2025-04-28T09:42:40.000Z</time><ele>752.8</ele></trkpt><trkpt lat="45.990722" lon="10.312096"><time>2025-04-28T09:42:41.000Z</time><ele>752.6</ele></trkpt><trkpt lat="45.990735" lon="10.312085"><time>2025-04-28T09:42:42.000Z</time><ele>752.4</ele></trkpt><trkpt lat="45.99075" lon="10.312077"><time>2025-04-28T09:42:43.000Z</time><ele>752.4</ele></trkpt><trkpt lat="45.990763" lon="10.312071"><time>2025-04-28T09:42:44.000Z</time><ele>752.2</ele></trkpt><trkpt lat="45.990777" lon="10.312066"><time>2025-04-28T09:42:45.000Z</time><ele>752</ele></trkpt><trkpt lat="45.990789" lon="10.31206"><time>2025-04-28T09:42:46.000Z</time><ele>752</ele></trkpt><trkpt lat="45.990801" lon="10.312059"><time>2025-04-28T09:42:47.000Z</time><ele>751.8</ele></trkpt><trkpt lat="45.990818" lon="10.312058"><time>2025-04-28T09:42:48.000Z</time><ele>751.6</ele></trkpt><trkpt lat="45.990828" lon="10.312061"><time>2025-04-28T09:42:49.000Z</time><ele>751.6</ele></trkpt><trkpt lat="45.990838" lon="10.31206"><time>2025-04-28T09:42:50.000Z</time><ele>751.4</ele></trkpt><trkpt lat="45.990848" lon="10.312058"><time>2025-04-28T09:42:51.000Z</time><ele>751.4</ele></trkpt><trkpt lat="45.990863" lon="10.312054"><time>2025-04-28T09:42:52.000Z</time><ele>751.2</ele></trkpt><trkpt lat="45.990876" lon="10.312048"><time>2025-04-28T09:42:53.000Z</time><ele>751.2</ele></trkpt><trkpt lat="45.99089" lon="10.312045"><time>2025-04-28T09:42:54.000Z</time><ele>751</ele></trkpt><trkpt lat="45.990901" lon="10.312045"><time>2025-04-28T09:42:55.000Z</time><ele>750.8</ele></trkpt><trkpt lat="45.990916" lon="10.312048"><time>2025-04-28T09:42:56.000Z</time><ele>750.8</ele></trkpt><trkpt lat="45.99093" lon="10.312048"><time>2025-04-28T09:42:57.000Z</time><ele>750.6</ele></trkpt><trkpt lat="45.990942" lon="10.312052"><time>2025-04-28T09:42:58.000Z</time><ele>750.4</ele></trkpt><trkpt lat="45.990953" lon="10.312059"><time>2025-04-28T09:42:59.000Z</time><ele>750.2</ele></trkpt><trkpt lat="45.99097" lon="10.312066"><time>2025-04-28T09:43:00.000Z</time><ele>750</ele></trkpt><trkpt lat="45.990985" lon="10.31207"><time>2025-04-28T09:43:01.000Z</time><ele>749.8</ele></trkpt><trkpt lat="45.991" lon="10.312071"><time>2025-04-28T09:43:02.000Z</time><ele>749.6</ele></trkpt><trkpt lat="45.991015" lon="10.312069"><time>2025-04-28T09:43:03.000Z</time><ele>749.4</ele></trkpt><trkpt lat="45.991029" lon="10.312068"><time>2025-04-28T09:43:04.000Z</time><ele>749.2</ele></trkpt><trkpt lat="45.991044" lon="10.312062"><time>2025-04-28T09:43:05.000Z</time><ele>749.2</ele></trkpt><trkpt lat="45.991058" lon="10.312061"><time>2025-04-28T09:43:06.000Z</time><ele>749</ele></trkpt><trkpt lat="45.991074" lon="10.312069"><time>2025-04-28T09:43:07.000Z</time><ele>748.8</ele></trkpt><trkpt lat="45.991086" lon="10.312076"><time>2025-04-28T09:43:08.000Z</time><ele>748.6</ele></trkpt><trkpt lat="45.991097" lon="10.312084"><time>2025-04-28T09:43:09.000Z</time><ele>748.4</ele></trkpt><trkpt lat="45.991103" lon="10.312098"><time>2025-04-28T09:43:10.000Z</time><ele>748.2</ele></trkpt><trkpt lat="45.99111" lon="10.312111"><time>2025-04-28T09:43:11.000Z</time><ele>748</ele></trkpt><trkpt lat="45.99112" lon="10.312123"><time>2025-04-28T09:43:12.000Z</time><ele>748</ele></trkpt><trkpt lat="45.991129" lon="10.312135"><time>2025-04-28T09:43:13.000Z</time><ele>747.6</ele></trkpt><trkpt lat="45.991136" lon="10.312145"><time>2025-04-28T09:43:14.000Z</time><ele>747.4</ele></trkpt><trkpt lat="45.991147" lon="10.312152"><time>2025-04-28T09:43:15.000Z</time><ele>747</ele></trkpt><trkpt lat="45.99116" lon="10.312158"><time>2025-04-28T09:43:16.000Z</time><ele>746.6</ele></trkpt><trkpt lat="45.991175" lon="10.312162"><time>2025-04-28T09:43:17.000Z</time><ele>746.4</ele></trkpt><trkpt lat="45.99119" lon="10.312169"><time>2025-04-28T09:43:18.000Z</time><ele>746.4</ele></trkpt><trkpt lat="45.991204" lon="10.31217"><time>2025-04-28T09:43:19.000Z</time><ele>746.2</ele></trkpt><trkpt lat="45.991217" lon="10.312167"><time>2025-04-28T09:43:20.000Z</time><ele>746.2</ele></trkpt><trkpt lat="45.991233" lon="10.31216"><time>2025-04-28T09:43:21.000Z</time><ele>746</ele></trkpt><trkpt lat="45.991247" lon="10.312154"><time>2025-04-28T09:43:22.000Z</time><ele>745.8</ele></trkpt><trkpt lat="45.99126" lon="10.312149"><time>2025-04-28T09:43:23.000Z</time><ele>745.6</ele></trkpt><trkpt lat="45.991277" lon="10.312137"><time>2025-04-28T09:43:24.000Z</time><ele>745.4</ele></trkpt><trkpt lat="45.99129" lon="10.312124"><time>2025-04-28T09:43:25.000Z</time><ele>745.4</ele></trkpt><trkpt lat="45.991302" lon="10.312111"><time>2025-04-28T09:43:26.000Z</time><ele>745.2</ele></trkpt><trkpt lat="45.991317" lon="10.312097"><time>2025-04-28T09:43:27.000Z</time><ele>745</ele></trkpt><trkpt lat="45.991336" lon="10.31209"><time>2025-04-28T09:43:28.000Z</time><ele>744.8</ele></trkpt><trkpt lat="45.991354" lon="10.312084"><time>2025-04-28T09:43:29.000Z</time><ele>744.6</ele></trkpt><trkpt lat="45.991367" lon="10.312081"><time>2025-04-28T09:43:30.000Z</time><ele>744.4</ele></trkpt><trkpt lat="45.991381" lon="10.312078"><time>2025-04-28T09:43:31.000Z</time><ele>744.2</ele></trkpt><trkpt lat="45.991398" lon="10.312065"><time>2025-04-28T09:43:32.000Z</time><ele>743.8</ele></trkpt><trkpt lat="45.991412" lon="10.312054"><time>2025-04-28T09:43:33.000Z</time><ele>743.4</ele></trkpt><trkpt lat="45.991422" lon="10.312048"><time>2025-04-28T09:43:34.000Z</time><ele>743.2</ele></trkpt><trkpt lat="45.991432" lon="10.31205"><time>2025-04-28T09:43:35.000Z</time><ele>743</ele></trkpt><trkpt lat="45.991443" lon="10.312056"><time>2025-04-28T09:43:36.000Z</time><ele>742.8</ele></trkpt><trkpt lat="45.991457" lon="10.312058"><time>2025-04-28T09:43:37.000Z</time><ele>742.8</ele></trkpt><trkpt lat="45.991471" lon="10.312057"><time>2025-04-28T09:43:38.000Z</time><ele>742.4</ele></trkpt><trkpt lat="45.991487" lon="10.31206"><time>2025-04-28T09:43:39.000Z</time><ele>742.2</ele></trkpt><trkpt lat="45.991501" lon="10.312066"><time>2025-04-28T09:43:40.000Z</time><ele>741.8</ele></trkpt><trkpt lat="45.991512" lon="10.31207"><time>2025-04-28T09:43:41.000Z</time><ele>741.6</ele></trkpt><trkpt lat="45.991523" lon="10.312075"><time>2025-04-28T09:43:42.000Z</time><ele>741.4</ele></trkpt><trkpt lat="45.991535" lon="10.312083"><time>2025-04-28T09:43:43.000Z</time><ele>741</ele></trkpt><trkpt lat="45.991548" lon="10.31209"><time>2025-04-28T09:43:44.000Z</time><ele>740.8</ele></trkpt><trkpt lat="45.991563" lon="10.312099"><time>2025-04-28T09:43:45.000Z</time><ele>740.4</ele></trkpt><trkpt lat="45.991575" lon="10.312106"><time>2025-04-28T09:43:46.000Z</time><ele>740.2</ele></trkpt><trkpt lat="45.991585" lon="10.312114"><time>2025-04-28T09:43:47.000Z</time><ele>740</ele></trkpt><trkpt lat="45.991594" lon="10.312118"><time>2025-04-28T09:43:48.000Z</time><ele>739.8</ele></trkpt><trkpt lat="45.991606" lon="10.312125"><time>2025-04-28T09:43:49.000Z</time><ele>739.4</ele></trkpt><trkpt lat="45.991619" lon="10.312133"><time>2025-04-28T09:43:50.000Z</time><ele>739.2</ele></trkpt><trkpt lat="45.991629" lon="10.31214"><time>2025-04-28T09:43:51.000Z</time><ele>739</ele></trkpt><trkpt lat="45.99164" lon="10.312152"><time>2025-04-28T09:43:52.000Z</time><ele>738.8</ele></trkpt><trkpt lat="45.991648" lon="10.312163"><time>2025-04-28T09:43:53.000Z</time><ele>738.6</ele></trkpt><trkpt lat="45.991661" lon="10.31217"><time>2025-04-28T09:43:54.000Z</time><ele>738.2</ele></trkpt><trkpt lat="45.991674" lon="10.312181"><time>2025-04-28T09:43:55.000Z</time><ele>737.8</ele></trkpt><trkpt lat="45.991684" lon="10.312187"><time>2025-04-28T09:43:56.000Z</time><ele>737.6</ele></trkpt><trkpt lat="45.991692" lon="10.312198"><time>2025-04-28T09:43:57.000Z</time><ele>737.2</ele></trkpt><trkpt lat="45.9917" lon="10.312207"><time>2025-04-28T09:43:58.000Z</time><ele>737</ele></trkpt><trkpt lat="45.991706" lon="10.312218"><time>2025-04-28T09:43:59.000Z</time><ele>736.6</ele></trkpt><trkpt lat="45.991713" lon="10.312227"><time>2025-04-28T09:44:00.000Z</time><ele>736.4</ele></trkpt><trkpt lat="45.99172" lon="10.31224"><time>2025-04-28T09:44:01.000Z</time><ele>736.2</ele></trkpt><trkpt lat="45.991727" lon="10.312258"><time>2025-04-28T09:44:02.000Z</time><ele>736</ele></trkpt><trkpt lat="45.991734" lon="10.312276"><time>2025-04-28T09:44:03.000Z</time><ele>735.8</ele></trkpt><trkpt lat="45.991741" lon="10.312287"><time>2025-04-28T09:44:04.000Z</time><ele>735.6</ele></trkpt><trkpt lat="45.991747" lon="10.312301"><time>2025-04-28T09:44:05.000Z</time><ele>735.4</ele></trkpt><trkpt lat="45.991752" lon="10.312319"><time>2025-04-28T09:44:06.000Z</time><ele>735.2</ele></trkpt><trkpt lat="45.991758" lon="10.31234"><time>2025-04-28T09:44:07.000Z</time><ele>735</ele></trkpt><trkpt lat="45.991763" lon="10.312354"><time>2025-04-28T09:44:08.000Z</time><ele>734.8</ele></trkpt><trkpt lat="45.991766" lon="10.312371"><time>2025-04-28T09:44:09.000Z</time><ele>734.6</ele></trkpt><trkpt lat="45.991769" lon="10.312391"><time>2025-04-28T09:44:10.000Z</time><ele>734.4</ele></trkpt><trkpt lat="45.991775" lon="10.312406"><time>2025-04-28T09:44:11.000Z</time><ele>734</ele></trkpt><trkpt lat="45.991782" lon="10.312417"><time>2025-04-28T09:44:12.000Z</time><ele>733.8</ele></trkpt><trkpt lat="45.991789" lon="10.312428"><time>2025-04-28T09:44:13.000Z</time><ele>733.6</ele></trkpt><trkpt lat="45.991798" lon="10.312435"><time>2025-04-28T09:44:14.000Z</time><ele>733.4</ele></trkpt><trkpt lat="45.991809" lon="10.312439"><time>2025-04-28T09:44:15.000Z</time><ele>733.2</ele></trkpt><trkpt lat="45.991818" lon="10.312446"><time>2025-04-28T09:44:16.000Z</time><ele>732.8</ele></trkpt><trkpt lat="45.991828" lon="10.312452"><time>2025-04-28T09:44:17.000Z</time><ele>732.4</ele></trkpt><trkpt lat="45.991837" lon="10.312461"><time>2025-04-28T09:44:18.000Z</time><ele>732.2</ele></trkpt><trkpt lat="45.991847" lon="10.312467"><time>2025-04-28T09:44:19.000Z</time><ele>731.8</ele></trkpt><trkpt lat="45.991855" lon="10.312477"><time>2025-04-28T09:44:20.000Z</time><ele>731.4</ele></trkpt><trkpt lat="45.991864" lon="10.312486"><time>2025-04-28T09:44:21.000Z</time><ele>731</ele></trkpt><trkpt lat="45.991872" lon="10.312495"><time>2025-04-28T09:44:22.000Z</time><ele>730.6</ele></trkpt><trkpt lat="45.99188" lon="10.312505"><time>2025-04-28T09:44:23.000Z</time><ele>730.2</ele></trkpt><trkpt lat="45.991887" lon="10.31252"><time>2025-04-28T09:44:24.000Z</time><ele>730</ele></trkpt><trkpt lat="45.991896" lon="10.312532"><time>2025-04-28T09:44:25.000Z</time><ele>729.6</ele></trkpt><trkpt lat="45.991903" lon="10.312546"><time>2025-04-28T09:44:26.000Z</time><ele>729.4</ele></trkpt><trkpt lat="45.991909" lon="10.31256"><time>2025-04-28T09:44:27.000Z</time><ele>729</ele></trkpt><trkpt lat="45.99191" lon="10.312577"><time>2025-04-28T09:44:28.000Z</time><ele>728.6</ele></trkpt><trkpt lat="45.99191" lon="10.312589"><time>2025-04-28T09:44:29.000Z</time><ele>728.4</ele></trkpt><trkpt lat="45.991909" lon="10.312606"><time>2025-04-28T09:44:30.000Z</time><ele>728</ele></trkpt><trkpt lat="45.991909" lon="10.312624"><time>2025-04-28T09:44:31.000Z</time><ele>727.8</ele></trkpt><trkpt lat="45.991912" lon="10.312641"><time>2025-04-28T09:44:32.000Z</time><ele>727.4</ele></trkpt><trkpt lat="45.991915" lon="10.312654"><time>2025-04-28T09:44:33.000Z</time><ele>727.2</ele></trkpt><trkpt lat="45.991916" lon="10.312666"><time>2025-04-28T09:44:34.000Z</time><ele>727</ele></trkpt><trkpt lat="45.991919" lon="10.312674"><time>2025-04-28T09:44:35.000Z</time><ele>726.6</ele></trkpt><trkpt lat="45.991919" lon="10.312678"><time>2025-04-28T09:44:36.000Z</time><ele>726.2</ele></trkpt><trkpt lat="45.991918" lon="10.312682"><time>2025-04-28T09:44:37.000Z</time><ele>726</ele></trkpt><trkpt lat="45.991916" lon="10.312686"><time>2025-04-28T09:44:38.000Z</time><ele>725.8</ele></trkpt><trkpt lat="45.991917" lon="10.312687"><time>2025-04-28T09:44:39.000Z</time><ele>725.8</ele></trkpt><trkpt lat="45.991918" lon="10.312686"><time>2025-04-28T09:44:40.000Z</time><ele>725.6</ele></trkpt><trkpt lat="45.991918" lon="10.312685"><time>2025-04-28T09:44:41.000Z</time><ele>725.6</ele></trkpt><trkpt lat="45.991918" lon="10.312684"><time>2025-04-28T09:44:42.000Z</time><ele>725.6</ele></trkpt><trkpt lat="45.991918" lon="10.312683"><time>2025-04-28T09:44:43.000Z</time><ele>725.6</ele></trkpt><trkpt lat="45.991918" lon="10.312684"><time>2025-04-28T09:44:44.000Z</time><ele>725.8</ele></trkpt><trkpt lat="45.99192" lon="10.312679"><time>2025-04-28T09:44:45.000Z</time><ele>725.8</ele></trkpt><trkpt lat="45.99192" lon="10.312676"><time>2025-04-28T09:44:46.000Z</time><ele>725.8</ele></trkpt><trkpt lat="45.991919" lon="10.312675"><time>2025-04-28T09:44:47.000Z</time><ele>725.8</ele></trkpt><trkpt lat="45.991918" lon="10.312675"><time>2025-04-28T09:44:48.000Z</time><ele>725.6</ele></trkpt><trkpt lat="45.991918" lon="10.312675"><time>2025-04-28T09:44:49.000Z</time><ele>725.6</ele></trkpt><trkpt lat="45.991918" lon="10.312675"><time>2025-04-28T09:44:50.000Z</time><ele>725.6</ele></trkpt><trkpt lat="45.991918" lon="10.312675"><time>2025-04-28T09:44:51.000Z</time><ele>725.6</ele></trkpt><trkpt lat="45.991918" lon="10.312675"><time>2025-04-28T09:44:52.000Z</time><ele>725.6</ele></trkpt><trkpt lat="45.991918" lon="10.312675"><time>2025-04-28T09:44:53.000Z</time><ele>725.6</ele></trkpt><trkpt lat="45.991918" lon="10.312675"><time>2025-04-28T09:44:54.000Z</time><ele>725.6</ele></trkpt><trkpt lat="45.991918" lon="10.312675"><time>2025-04-28T09:44:55.000Z</time><ele>725.6</ele></trkpt><trkpt lat="45.991918" lon="10.312675"><time>2025-04-28T09:44:56.000Z</time><ele>725.6</ele></trkpt><trkpt lat="45.991918" lon="10.312675"><time>2025-04-28T09:44:57.000Z</time><ele>725.6</ele></trkpt><trkpt lat="45.991918" lon="10.312676"><time>2025-04-28T09:44:58.000Z</time><ele>725.6</ele></trkpt><trkpt lat="45.991918" lon="10.312676"><time>2025-04-28T09:44:59.000Z</time><ele>725.6</ele></trkpt><trkpt lat="45.991918" lon="10.312676"><time>2025-04-28T09:45:00.000Z</time><ele>725.4</ele></trkpt><trkpt lat="45.991918" lon="10.312676"><time>2025-04-28T09:45:01.000Z</time><ele>725.4</ele></trkpt><trkpt lat="45.991918" lon="10.312676"><time>2025-04-28T09:45:02.000Z</time><ele>725.4</ele></trkpt><trkpt lat="45.991918" lon="10.312676"><time>2025-04-28T09:45:03.000Z</time><ele>725.4</ele></trkpt><trkpt lat="45.991918" lon="10.312677"><time>2025-04-28T09:45:04.000Z</time><ele>725.2</ele></trkpt><trkpt lat="45.991917" lon="10.312683"><time>2025-04-28T09:45:05.000Z</time><ele>725</ele></trkpt><trkpt lat="45.991916" lon="10.312709"><time>2025-04-28T09:45:06.000Z</time><ele>724.8</ele></trkpt><trkpt lat="45.991918" lon="10.312734"><time>2025-04-28T09:45:07.000Z</time><ele>724.6</ele></trkpt><trkpt lat="45.991922" lon="10.31276"><time>2025-04-28T09:45:08.000Z</time><ele>724.4</ele></trkpt><trkpt lat="45.991925" lon="10.312783"><time>2025-04-28T09:45:09.000Z</time><ele>724.2</ele></trkpt><trkpt lat="45.99193" lon="10.312807"><time>2025-04-28T09:45:10.000Z</time><ele>724</ele></trkpt><trkpt lat="45.991932" lon="10.312834"><time>2025-04-28T09:45:11.000Z</time><ele>723.6</ele></trkpt><trkpt lat="45.991934" lon="10.312861"><time>2025-04-28T09:45:12.000Z</time><ele>723.4</ele></trkpt><trkpt lat="45.991935" lon="10.312888"><time>2025-04-28T09:45:13.000Z</time><ele>723.2</ele></trkpt><trkpt lat="45.991938" lon="10.312911"><time>2025-04-28T09:45:14.000Z</time><ele>722.8</ele></trkpt><trkpt lat="45.991943" lon="10.312927"><time>2025-04-28T09:45:15.000Z</time><ele>722.4</ele></trkpt><trkpt lat="45.991947" lon="10.312945"><time>2025-04-28T09:45:16.000Z</time><ele>722.2</ele></trkpt><trkpt lat="45.991954" lon="10.312963"><time>2025-04-28T09:45:17.000Z</time><ele>722</ele></trkpt><trkpt lat="45.991961" lon="10.312982"><time>2025-04-28T09:45:18.000Z</time><ele>721.6</ele></trkpt><trkpt lat="45.991966" lon="10.313"><time>2025-04-28T09:45:19.000Z</time><ele>721.2</ele></trkpt><trkpt lat="45.991971" lon="10.313018"><time>2025-04-28T09:45:20.000Z</time><ele>721</ele></trkpt><trkpt lat="45.991975" lon="10.313036"><time>2025-04-28T09:45:21.000Z</time><ele>720.8</ele></trkpt><trkpt lat="45.99198" lon="10.313053"><time>2025-04-28T09:45:22.000Z</time><ele>720.4</ele></trkpt><trkpt lat="45.991988" lon="10.313065"><time>2025-04-28T09:45:23.000Z</time><ele>720.2</ele></trkpt><trkpt lat="45.991997" lon="10.313078"><time>2025-04-28T09:45:24.000Z</time><ele>720</ele></trkpt><trkpt lat="45.992007" lon="10.313089"><time>2025-04-28T09:45:25.000Z</time><ele>720</ele></trkpt><trkpt lat="45.992016" lon="10.313102"><time>2025-04-28T09:45:26.000Z</time><ele>719.8</ele></trkpt><trkpt lat="45.992024" lon="10.313119"><time>2025-04-28T09:45:27.000Z</time><ele>719.4</ele></trkpt><trkpt lat="45.992034" lon="10.313134"><time>2025-04-28T09:45:28.000Z</time><ele>719.2</ele></trkpt><trkpt lat="45.992048" lon="10.313145"><time>2025-04-28T09:45:29.000Z</time><ele>719</ele></trkpt><trkpt lat="45.992058" lon="10.313158"><time>2025-04-28T09:45:30.000Z</time><ele>718.6</ele></trkpt><trkpt lat="45.992069" lon="10.313172"><time>2025-04-28T09:45:31.000Z</time><ele>718.6</ele></trkpt><trkpt lat="45.992078" lon="10.313189"><time>2025-04-28T09:45:32.000Z</time><ele>718</ele></trkpt><trkpt lat="45.992086" lon="10.313205"><time>2025-04-28T09:45:33.000Z</time><ele>717.6</ele></trkpt><trkpt lat="45.992093" lon="10.313223"><time>2025-04-28T09:45:34.000Z</time><ele>717.4</ele></trkpt><trkpt lat="45.992104" lon="10.313236"><time>2025-04-28T09:45:35.000Z</time><ele>717.2</ele></trkpt><trkpt lat="45.992114" lon="10.313252"><time>2025-04-28T09:45:36.000Z</time><ele>717</ele></trkpt><trkpt lat="45.992123" lon="10.31327"><time>2025-04-28T09:45:37.000Z</time><ele>716.8</ele></trkpt><trkpt lat="45.992133" lon="10.313289"><time>2025-04-28T09:45:38.000Z</time><ele>716.8</ele></trkpt><trkpt lat="45.992146" lon="10.313303"><time>2025-04-28T09:45:39.000Z</time><ele>716.4</ele></trkpt><trkpt lat="45.992158" lon="10.313318"><time>2025-04-28T09:45:40.000Z</time><ele>716.2</ele></trkpt><trkpt lat="45.992169" lon="10.313334"><time>2025-04-28T09:45:41.000Z</time><ele>716</ele></trkpt><trkpt lat="45.992178" lon="10.313348"><time>2025-04-28T09:45:42.000Z</time><ele>715.8</ele></trkpt><trkpt lat="45.992186" lon="10.313363"><time>2025-04-28T09:45:43.000Z</time><ele>715.6</ele></trkpt><trkpt lat="45.992192" lon="10.313379"><time>2025-04-28T09:45:44.000Z</time><ele>715.2</ele></trkpt><trkpt lat="45.992197" lon="10.313395"><time>2025-04-28T09:45:45.000Z</time><ele>715.2</ele></trkpt><trkpt lat="45.9922" lon="10.313416"><time>2025-04-28T09:45:46.000Z</time><ele>715</ele></trkpt><trkpt lat="45.992206" lon="10.313433"><time>2025-04-28T09:45:47.000Z</time><ele>714.8</ele></trkpt><trkpt lat="45.992214" lon="10.313449"><time>2025-04-28T09:45:48.000Z</time><ele>714.6</ele></trkpt><trkpt lat="45.992225" lon="10.313464"><time>2025-04-28T09:45:49.000Z</time><ele>714.6</ele></trkpt><trkpt lat="45.992236" lon="10.313474"><time>2025-04-28T09:45:50.000Z</time><ele>714.4</ele></trkpt><trkpt lat="45.992247" lon="10.313487"><time>2025-04-28T09:45:51.000Z</time><ele>714.2</ele></trkpt><trkpt lat="45.992256" lon="10.313502"><time>2025-04-28T09:45:52.000Z</time><ele>714</ele></trkpt><trkpt lat="45.992264" lon="10.313515"><time>2025-04-28T09:45:53.000Z</time><ele>713.8</ele></trkpt><trkpt lat="45.992274" lon="10.313525"><time>2025-04-28T09:45:54.000Z</time><ele>713.4</ele></trkpt><trkpt lat="45.992283" lon="10.313542"><time>2025-04-28T09:45:55.000Z</time><ele>713</ele></trkpt><trkpt lat="45.992293" lon="10.313553"><time>2025-04-28T09:45:56.000Z</time><ele>712.8</ele></trkpt><trkpt lat="45.992302" lon="10.313565"><time>2025-04-28T09:45:57.000Z</time><ele>712.8</ele></trkpt><trkpt lat="45.992309" lon="10.313579"><time>2025-04-28T09:45:58.000Z</time><ele>712.6</ele></trkpt><trkpt lat="45.992315" lon="10.313598"><time>2025-04-28T09:45:59.000Z</time><ele>712.6</ele></trkpt><trkpt lat="45.992324" lon="10.313613"><time>2025-04-28T09:46:00.000Z</time><ele>712.4</ele></trkpt><trkpt lat="45.992327" lon="10.313633"><time>2025-04-28T09:46:01.000Z</time><ele>712.2</ele></trkpt><trkpt lat="45.992332" lon="10.313649"><time>2025-04-28T09:46:02.000Z</time><ele>712</ele></trkpt><trkpt lat="45.992339" lon="10.313661"><time>2025-04-28T09:46:03.000Z</time><ele>711.6</ele></trkpt><trkpt lat="45.992346" lon="10.313677"><time>2025-04-28T09:46:04.000Z</time><ele>711.4</ele></trkpt><trkpt lat="45.992353" lon="10.313693"><time>2025-04-28T09:46:05.000Z</time><ele>711.4</ele></trkpt><trkpt lat="45.992356" lon="10.31371"><time>2025-04-28T09:46:06.000Z</time><ele>711.2</ele></trkpt><trkpt lat="45.992358" lon="10.313727"><time>2025-04-28T09:46:07.000Z</time><ele>711.2</ele></trkpt><trkpt lat="45.992365" lon="10.313742"><time>2025-04-28T09:46:08.000Z</time><ele>711</ele></trkpt><trkpt lat="45.992367" lon="10.31376"><time>2025-04-28T09:46:09.000Z</time><ele>711</ele></trkpt><trkpt lat="45.992371" lon="10.313774"><time>2025-04-28T09:46:10.000Z</time><ele>710.8</ele></trkpt><trkpt lat="45.992376" lon="10.313793"><time>2025-04-28T09:46:11.000Z</time><ele>710.8</ele></trkpt><trkpt lat="45.992378" lon="10.313817"><time>2025-04-28T09:46:12.000Z</time><ele>710.8</ele></trkpt><trkpt lat="45.992379" lon="10.31384"><time>2025-04-28T09:46:13.000Z</time><ele>710.8</ele></trkpt><trkpt lat="45.992382" lon="10.31386"><time>2025-04-28T09:46:14.000Z</time><ele>710.6</ele></trkpt><trkpt lat="45.992387" lon="10.313881"><time>2025-04-28T09:46:15.000Z</time><ele>710.4</ele></trkpt><trkpt lat="45.992391" lon="10.313899"><time>2025-04-28T09:46:16.000Z</time><ele>710.2</ele></trkpt><trkpt lat="45.992396" lon="10.313919"><time>2025-04-28T09:46:17.000Z</time><ele>710.2</ele></trkpt><trkpt lat="45.992403" lon="10.31394"><time>2025-04-28T09:46:18.000Z</time><ele>710</ele></trkpt><trkpt lat="45.992411" lon="10.313962"><time>2025-04-28T09:46:19.000Z</time><ele>709.8</ele></trkpt><trkpt lat="45.992418" lon="10.313983"><time>2025-04-28T09:46:20.000Z</time><ele>709.6</ele></trkpt><trkpt lat="45.992426" lon="10.313994"><time>2025-04-28T09:46:21.000Z</time><ele>709.6</ele></trkpt><trkpt lat="45.992434" lon="10.314006"><time>2025-04-28T09:46:22.000Z</time><ele>709.4</ele></trkpt><trkpt lat="45.992443" lon="10.314016"><time>2025-04-28T09:46:23.000Z</time><ele>709.4</ele></trkpt><trkpt lat="45.99245" lon="10.314026"><time>2025-04-28T09:46:24.000Z</time><ele>709</ele></trkpt><trkpt lat="45.992455" lon="10.314038"><time>2025-04-28T09:46:25.000Z</time><ele>708.8</ele></trkpt><trkpt lat="45.992459" lon="10.314047"><time>2025-04-28T09:46:26.000Z</time><ele>708.8</ele></trkpt><trkpt lat="45.992466" lon="10.314053"><time>2025-04-28T09:46:27.000Z</time><ele>708.8</ele></trkpt><trkpt lat="45.992475" lon="10.314061"><time>2025-04-28T09:46:28.000Z</time><ele>708.6</ele></trkpt><trkpt lat="45.992481" lon="10.314062"><time>2025-04-28T09:46:29.000Z</time><ele>708.6</ele></trkpt><trkpt lat="45.992482" lon="10.314061"><time>2025-04-28T09:46:30.000Z</time><ele>708.4</ele></trkpt><trkpt lat="45.992482" lon="10.31406"><time>2025-04-28T09:46:31.000Z</time><ele>708.4</ele></trkpt><trkpt lat="45.992483" lon="10.314058"><time>2025-04-28T09:46:32.000Z</time><ele>708.4</ele></trkpt><trkpt lat="45.992483" lon="10.314057"><time>2025-04-28T09:46:33.000Z</time><ele>708.4</ele></trkpt><trkpt lat="45.992484" lon="10.314055"><time>2025-04-28T09:46:34.000Z</time><ele>708.4</ele></trkpt><trkpt lat="45.992485" lon="10.314054"><time>2025-04-28T09:46:35.000Z</time><ele>708.4</ele></trkpt><trkpt lat="45.992484" lon="10.314053"><time>2025-04-28T09:46:36.000Z</time><ele>708.4</ele></trkpt><trkpt lat="45.992484" lon="10.314052"><time>2025-04-28T09:46:37.000Z</time><ele>708.4</ele></trkpt><trkpt lat="45.992484" lon="10.314051"><time>2025-04-28T09:46:38.000Z</time><ele>708.4</ele></trkpt><trkpt lat="45.992483" lon="10.314052"><time>2025-04-28T09:46:39.000Z</time><ele>708.4</ele></trkpt><trkpt lat="45.992482" lon="10.314053"><time>2025-04-28T09:46:40.000Z</time><ele>708.6</ele></trkpt><trkpt lat="45.992482" lon="10.314054"><time>2025-04-28T09:46:41.000Z</time><ele>708.6</ele></trkpt><trkpt lat="45.992482" lon="10.314054"><time>2025-04-28T09:46:42.000Z</time><ele>708.6</ele></trkpt><trkpt lat="45.992482" lon="10.314054"><time>2025-04-28T09:46:43.000Z</time><ele>708.6</ele></trkpt><trkpt lat="45.992482" lon="10.314054"><time>2025-04-28T09:46:44.000Z</time><ele>708.6</ele></trkpt><trkpt lat="45.992482" lon="10.314054"><time>2025-04-28T09:46:45.000Z</time><ele>708.6</ele></trkpt><trkpt lat="45.992482" lon="10.314054"><time>2025-04-28T09:46:46.000Z</time><ele>708.6</ele></trkpt><trkpt lat="45.992482" lon="10.314054"><time>2025-04-28T09:46:47.000Z</time><ele>708.4</ele></trkpt><trkpt lat="45.992482" lon="10.314054"><time>2025-04-28T09:46:48.000Z</time><ele>708.2</ele></trkpt><trkpt lat="45.992482" lon="10.314054"><time>2025-04-28T09:46:49.000Z</time><ele>708</ele></trkpt><trkpt lat="45.992485" lon="10.314059"><time>2025-04-28T09:46:50.000Z</time><ele>708</ele></trkpt><trkpt lat="45.992494" lon="10.314086"><time>2025-04-28T09:46:51.000Z</time><ele>708</ele></trkpt><trkpt lat="45.992503" lon="10.314111"><time>2025-04-28T09:46:52.000Z</time><ele>708</ele></trkpt><trkpt lat="45.992511" lon="10.314138"><time>2025-04-28T09:46:53.000Z</time><ele>707.8</ele></trkpt><trkpt lat="45.992523" lon="10.314168"><time>2025-04-28T09:46:54.000Z</time><ele>707.6</ele></trkpt><trkpt lat="45.992539" lon="10.314192"><time>2025-04-28T09:46:55.000Z</time><ele>707.4</ele></trkpt><trkpt lat="45.992555" lon="10.314209"><time>2025-04-28T09:46:56.000Z</time><ele>707</ele></trkpt><trkpt lat="45.992571" lon="10.314221"><time>2025-04-28T09:46:57.000Z</time><ele>706.8</ele></trkpt><trkpt lat="45.992586" lon="10.314237"><time>2025-04-28T09:46:58.000Z</time><ele>706.6</ele></trkpt><trkpt lat="45.9926" lon="10.31425"><time>2025-04-28T09:46:59.000Z</time><ele>706.4</ele></trkpt><trkpt lat="45.992606" lon="10.31426"><time>2025-04-28T09:47:00.000Z</time><ele>706</ele></trkpt><trkpt lat="45.992616" lon="10.314267"><time>2025-04-28T09:47:01.000Z</time><ele>705.6</ele></trkpt><trkpt lat="45.992625" lon="10.314277"><time>2025-04-28T09:47:02.000Z</time><ele>705.4</ele></trkpt><trkpt lat="45.992636" lon="10.314287"><time>2025-04-28T09:47:03.000Z</time><ele>705</ele></trkpt><trkpt lat="45.99265" lon="10.314295"><time>2025-04-28T09:47:04.000Z</time><ele>704.6</ele></trkpt><trkpt lat="45.992668" lon="10.314299"><time>2025-04-28T09:47:05.000Z</time><ele>704.4</ele></trkpt><trkpt lat="45.992686" lon="10.314296"><time>2025-04-28T09:47:06.000Z</time><ele>704.2</ele></trkpt><trkpt lat="45.992699" lon="10.314294"><time>2025-04-28T09:47:07.000Z</time><ele>704.2</ele></trkpt><trkpt lat="45.992711" lon="10.314291"><time>2025-04-28T09:47:08.000Z</time><ele>704</ele></trkpt><trkpt lat="45.992721" lon="10.314286"><time>2025-04-28T09:47:09.000Z</time><ele>703.8</ele></trkpt><trkpt lat="45.992733" lon="10.314283"><time>2025-04-28T09:47:10.000Z</time><ele>703.6</ele></trkpt><trkpt lat="45.992743" lon="10.314281"><time>2025-04-28T09:47:11.000Z</time><ele>703.4</ele></trkpt><trkpt lat="45.992754" lon="10.314277"><time>2025-04-28T09:47:12.000Z</time><ele>702.8</ele></trkpt><trkpt lat="45.992767" lon="10.314269"><time>2025-04-28T09:47:13.000Z</time><ele>702.4</ele></trkpt><trkpt lat="45.992781" lon="10.314261"><time>2025-04-28T09:47:14.000Z</time><ele>702</ele></trkpt><trkpt lat="45.992795" lon="10.314252"><time>2025-04-28T09:47:15.000Z</time><ele>701.8</ele></trkpt><trkpt lat="45.992812" lon="10.314243"><time>2025-04-28T09:47:16.000Z</time><ele>701.6</ele></trkpt><trkpt lat="45.992827" lon="10.314238"><time>2025-04-28T09:47:17.000Z</time><ele>701.4</ele></trkpt><trkpt lat="45.992846" lon="10.314232"><time>2025-04-28T09:47:18.000Z</time><ele>701</ele></trkpt><trkpt lat="45.992861" lon="10.314227"><time>2025-04-28T09:47:19.000Z</time><ele>700.6</ele></trkpt><trkpt lat="45.992878" lon="10.314226"><time>2025-04-28T09:47:20.000Z</time><ele>700.4</ele></trkpt><trkpt lat="45.992895" lon="10.314226"><time>2025-04-28T09:47:21.000Z</time><ele>700.2</ele></trkpt><trkpt lat="45.992914" lon="10.314221"><time>2025-04-28T09:47:22.000Z</time><ele>699.8</ele></trkpt><trkpt lat="45.992931" lon="10.314215"><time>2025-04-28T09:47:23.000Z</time><ele>699.6</ele></trkpt><trkpt lat="45.992941" lon="10.314212"><time>2025-04-28T09:47:24.000Z</time><ele>699.2</ele></trkpt><trkpt lat="45.992948" lon="10.314214"><time>2025-04-28T09:47:25.000Z</time><ele>698.8</ele></trkpt><trkpt lat="45.992959" lon="10.314217"><time>2025-04-28T09:47:26.000Z</time><ele>698.6</ele></trkpt><trkpt lat="45.992975" lon="10.314227"><time>2025-04-28T09:47:27.000Z</time><ele>698.4</ele></trkpt><trkpt lat="45.992987" lon="10.314238"><time>2025-04-28T09:47:28.000Z</time><ele>698.2</ele></trkpt><trkpt lat="45.992997" lon="10.314245"><time>2025-04-28T09:47:29.000Z</time><ele>697.8</ele></trkpt><trkpt lat="45.993008" lon="10.314257"><time>2025-04-28T09:47:30.000Z</time><ele>697.6</ele></trkpt><trkpt lat="45.993023" lon="10.314268"><time>2025-04-28T09:47:31.000Z</time><ele>697.4</ele></trkpt><trkpt lat="45.993035" lon="10.314264"><time>2025-04-28T09:47:32.000Z</time><ele>697.2</ele></trkpt><trkpt lat="45.993048" lon="10.314266"><time>2025-04-28T09:47:33.000Z</time><ele>696.8</ele></trkpt><trkpt lat="45.993062" lon="10.314268"><time>2025-04-28T09:47:34.000Z</time><ele>696.4</ele></trkpt><trkpt lat="45.993076" lon="10.314273"><time>2025-04-28T09:47:35.000Z</time><ele>696.2</ele></trkpt><trkpt lat="45.993088" lon="10.314275"><time>2025-04-28T09:47:36.000Z</time><ele>696</ele></trkpt><trkpt lat="45.993102" lon="10.31428"><time>2025-04-28T09:47:37.000Z</time><ele>695.6</ele></trkpt><trkpt lat="45.993112" lon="10.314285"><time>2025-04-28T09:47:38.000Z</time><ele>695.2</ele></trkpt><trkpt lat="45.993127" lon="10.314285"><time>2025-04-28T09:47:39.000Z</time><ele>695</ele></trkpt><trkpt lat="45.993138" lon="10.314289"><time>2025-04-28T09:47:40.000Z</time><ele>694.8</ele></trkpt><trkpt lat="45.993147" lon="10.314292"><time>2025-04-28T09:47:41.000Z</time><ele>694.6</ele></trkpt><trkpt lat="45.993156" lon="10.314294"><time>2025-04-28T09:47:42.000Z</time><ele>694.4</ele></trkpt><trkpt lat="45.993164" lon="10.314297"><time>2025-04-28T09:47:43.000Z</time><ele>694.2</ele></trkpt><trkpt lat="45.993175" lon="10.314302"><time>2025-04-28T09:47:44.000Z</time><ele>694</ele></trkpt><trkpt lat="45.993186" lon="10.314315"><time>2025-04-28T09:47:45.000Z</time><ele>693.6</ele></trkpt><trkpt lat="45.993198" lon="10.314321"><time>2025-04-28T09:47:46.000Z</time><ele>693.4</ele></trkpt><trkpt lat="45.993211" lon="10.31433"><time>2025-04-28T09:47:47.000Z</time><ele>693</ele></trkpt><trkpt lat="45.993221" lon="10.314331"><time>2025-04-28T09:47:48.000Z</time><ele>692.6</ele></trkpt><trkpt lat="45.993233" lon="10.314329"><time>2025-04-28T09:47:49.000Z</time><ele>692.4</ele></trkpt><trkpt lat="45.993245" lon="10.314331"><time>2025-04-28T09:47:50.000Z</time><ele>692.2</ele></trkpt><trkpt lat="45.993257" lon="10.314331"><time>2025-04-28T09:47:51.000Z</time><ele>692</ele></trkpt><trkpt lat="45.99327" lon="10.314333"><time>2025-04-28T09:47:52.000Z</time><ele>691.8</ele></trkpt><trkpt lat="45.993282" lon="10.314344"><time>2025-04-28T09:47:53.000Z</time><ele>691.6</ele></trkpt><trkpt lat="45.993291" lon="10.314349"><time>2025-04-28T09:47:54.000Z</time><ele>691.4</ele></trkpt><trkpt lat="45.993303" lon="10.314355"><time>2025-04-28T09:47:55.000Z</time><ele>691.2</ele></trkpt><trkpt lat="45.993316" lon="10.314356"><time>2025-04-28T09:47:56.000Z</time><ele>691</ele></trkpt><trkpt lat="45.99333" lon="10.314366"><time>2025-04-28T09:47:57.000Z</time><ele>690.8</ele></trkpt><trkpt lat="45.993339" lon="10.314383"><time>2025-04-28T09:47:58.000Z</time><ele>690.6</ele></trkpt><trkpt lat="45.993348" lon="10.314389"><time>2025-04-28T09:47:59.000Z</time><ele>690.4</ele></trkpt><trkpt lat="45.993363" lon="10.314401"><time>2025-04-28T09:48:00.000Z</time><ele>690.2</ele></trkpt><trkpt lat="45.993377" lon="10.314401"><time>2025-04-28T09:48:01.000Z</time><ele>689.8</ele></trkpt><trkpt lat="45.99339" lon="10.314403"><time>2025-04-28T09:48:02.000Z</time><ele>689.6</ele></trkpt><trkpt lat="45.993401" lon="10.314407"><time>2025-04-28T09:48:03.000Z</time><ele>689.4</ele></trkpt><trkpt lat="45.993412" lon="10.31441"><time>2025-04-28T09:48:04.000Z</time><ele>689.2</ele></trkpt><trkpt lat="45.993422" lon="10.31441"><time>2025-04-28T09:48:05.000Z</time><ele>689</ele></trkpt><trkpt lat="45.993436" lon="10.314415"><time>2025-04-28T09:48:06.000Z</time><ele>688.8</ele></trkpt><trkpt lat="45.993448" lon="10.31442"><time>2025-04-28T09:48:07.000Z</time><ele>688.6</ele></trkpt><trkpt lat="45.993463" lon="10.314426"><time>2025-04-28T09:48:08.000Z</time><ele>688.6</ele></trkpt><trkpt lat="45.993479" lon="10.314429"><time>2025-04-28T09:48:09.000Z</time><ele>688.4</ele></trkpt><trkpt lat="45.993496" lon="10.31443"><time>2025-04-28T09:48:10.000Z</time><ele>688.2</ele></trkpt><trkpt lat="45.993512" lon="10.314429"><time>2025-04-28T09:48:11.000Z</time><ele>688</ele></trkpt><trkpt lat="45.99353" lon="10.314429"><time>2025-04-28T09:48:12.000Z</time><ele>687.8</ele></trkpt><trkpt lat="45.993546" lon="10.314423"><time>2025-04-28T09:48:13.000Z</time><ele>687.8</ele></trkpt><trkpt lat="45.993568" lon="10.314412"><time>2025-04-28T09:48:14.000Z</time><ele>687.4</ele></trkpt><trkpt lat="45.993585" lon="10.314405"><time>2025-04-28T09:48:15.000Z</time><ele>687.2</ele></trkpt><trkpt lat="45.993602" lon="10.314405"><time>2025-04-28T09:48:16.000Z</time><ele>687.2</ele></trkpt><trkpt lat="45.993618" lon="10.314405"><time>2025-04-28T09:48:17.000Z</time><ele>687</ele></trkpt><trkpt lat="45.993632" lon="10.314404"><time>2025-04-28T09:48:18.000Z</time><ele>686.8</ele></trkpt><trkpt lat="45.993649" lon="10.314402"><time>2025-04-28T09:48:19.000Z</time><ele>686.6</ele></trkpt><trkpt lat="45.993663" lon="10.314399"><time>2025-04-28T09:48:20.000Z</time><ele>686.2</ele></trkpt><trkpt lat="45.993685" lon="10.314388"><time>2025-04-28T09:48:21.000Z</time><ele>686</ele></trkpt><trkpt lat="45.993705" lon="10.314387"><time>2025-04-28T09:48:22.000Z</time><ele>685.8</ele></trkpt><trkpt lat="45.99372" lon="10.314388"><time>2025-04-28T09:48:23.000Z</time><ele>685.8</ele></trkpt><trkpt lat="45.993732" lon="10.314392"><time>2025-04-28T09:48:24.000Z</time><ele>685.6</ele></trkpt><trkpt lat="45.993747" lon="10.314392"><time>2025-04-28T09:48:25.000Z</time><ele>685.4</ele></trkpt><trkpt lat="45.993762" lon="10.314399"><time>2025-04-28T09:48:26.000Z</time><ele>685.4</ele></trkpt><trkpt lat="45.993772" lon="10.31441"><time>2025-04-28T09:48:27.000Z</time><ele>685.2</ele></trkpt><trkpt lat="45.993784" lon="10.314423"><time>2025-04-28T09:48:28.000Z</time><ele>685.2</ele></trkpt><trkpt lat="45.993792" lon="10.314431"><time>2025-04-28T09:48:29.000Z</time><ele>685</ele></trkpt><trkpt lat="45.993801" lon="10.314437"><time>2025-04-28T09:48:30.000Z</time><ele>684.8</ele></trkpt><trkpt lat="45.99381" lon="10.314442"><time>2025-04-28T09:48:31.000Z</time><ele>684.4</ele></trkpt><trkpt lat="45.993822" lon="10.314443"><time>2025-04-28T09:48:32.000Z</time><ele>684.4</ele></trkpt><trkpt lat="45.993835" lon="10.314446"><time>2025-04-28T09:48:33.000Z</time><ele>684.2</ele></trkpt><trkpt lat="45.993846" lon="10.314448"><time>2025-04-28T09:48:34.000Z</time><ele>684.2</ele></trkpt><trkpt lat="45.993858" lon="10.314459"><time>2025-04-28T09:48:35.000Z</time><ele>684.2</ele></trkpt><trkpt lat="45.993871" lon="10.314467"><time>2025-04-28T09:48:36.000Z</time><ele>684.2</ele></trkpt><trkpt lat="45.993883" lon="10.314468"><time>2025-04-28T09:48:37.000Z</time><ele>684</ele></trkpt><trkpt lat="45.993897" lon="10.314472"><time>2025-04-28T09:48:38.000Z</time><ele>684</ele></trkpt><trkpt lat="45.993913" lon="10.314475"><time>2025-04-28T09:48:39.000Z</time><ele>684</ele></trkpt><trkpt lat="45.993927" lon="10.314474"><time>2025-04-28T09:48:40.000Z</time><ele>683.8</ele></trkpt><trkpt lat="45.993939" lon="10.314471"><time>2025-04-28T09:48:41.000Z</time><ele>683.4</ele></trkpt><trkpt lat="45.993951" lon="10.314469"><time>2025-04-28T09:48:42.000Z</time><ele>683.2</ele></trkpt><trkpt lat="45.993963" lon="10.314466"><time>2025-04-28T09:48:43.000Z</time><ele>682.8</ele></trkpt><trkpt lat="45.993978" lon="10.314459"><time>2025-04-28T09:48:44.000Z</time><ele>682.4</ele></trkpt><trkpt lat="45.993995" lon="10.314455"><time>2025-04-28T09:48:45.000Z</time><ele>682</ele></trkpt><trkpt lat="45.99401" lon="10.314451"><time>2025-04-28T09:48:46.000Z</time><ele>681.8</ele></trkpt><trkpt lat="45.994023" lon="10.314448"><time>2025-04-28T09:48:47.000Z</time><ele>681.8</ele></trkpt><trkpt lat="45.994036" lon="10.314441"><time>2025-04-28T09:48:48.000Z</time><ele>681.6</ele></trkpt><trkpt lat="45.994048" lon="10.314439"><time>2025-04-28T09:48:49.000Z</time><ele>681.6</ele></trkpt><trkpt lat="45.99406" lon="10.31444"><time>2025-04-28T09:48:50.000Z</time><ele>681.4</ele></trkpt><trkpt lat="45.994072" lon="10.31444"><time>2025-04-28T09:48:51.000Z</time><ele>681</ele></trkpt><trkpt lat="45.994086" lon="10.314441"><time>2025-04-28T09:48:52.000Z</time><ele>680.8</ele></trkpt><trkpt lat="45.994099" lon="10.314443"><time>2025-04-28T09:48:53.000Z</time><ele>680.8</ele></trkpt><trkpt lat="45.994113" lon="10.314439"><time>2025-04-28T09:48:54.000Z</time><ele>680.4</ele></trkpt><trkpt lat="45.994123" lon="10.314442"><time>2025-04-28T09:48:55.000Z</time><ele>680.4</ele></trkpt><trkpt lat="45.994135" lon="10.314449"><time>2025-04-28T09:48:56.000Z</time><ele>680</ele></trkpt><trkpt lat="45.994148" lon="10.314455"><time>2025-04-28T09:48:57.000Z</time><ele>679.8</ele></trkpt><trkpt lat="45.994161" lon="10.31446"><time>2025-04-28T09:48:58.000Z</time><ele>679.6</ele></trkpt><trkpt lat="45.994173" lon="10.314466"><time>2025-04-28T09:48:59.000Z</time><ele>679.4</ele></trkpt><trkpt lat="45.994186" lon="10.314476"><time>2025-04-28T09:49:00.000Z</time><ele>679.2</ele></trkpt><trkpt lat="45.994201" lon="10.314484"><time>2025-04-28T09:49:01.000Z</time><ele>679</ele></trkpt><trkpt lat="45.994215" lon="10.314488"><time>2025-04-28T09:49:02.000Z</time><ele>679</ele></trkpt><trkpt lat="45.994228" lon="10.314495"><time>2025-04-28T09:49:03.000Z</time><ele>678.8</ele></trkpt><trkpt lat="45.994242" lon="10.314513"><time>2025-04-28T09:49:04.000Z</time><ele>678.8</ele></trkpt><trkpt lat="45.994255" lon="10.314532"><time>2025-04-28T09:49:05.000Z</time><ele>678.6</ele></trkpt><trkpt lat="45.994268" lon="10.314556"><time>2025-04-28T09:49:06.000Z</time><ele>678.4</ele></trkpt><trkpt lat="45.994282" lon="10.314569"><time>2025-04-28T09:49:07.000Z</time><ele>678.2</ele></trkpt><trkpt lat="45.994295" lon="10.314575"><time>2025-04-28T09:49:08.000Z</time><ele>678</ele></trkpt><trkpt lat="45.994305" lon="10.314583"><time>2025-04-28T09:49:09.000Z</time><ele>677.8</ele></trkpt><trkpt lat="45.99432" lon="10.314596"><time>2025-04-28T09:49:10.000Z</time><ele>677.6</ele></trkpt><trkpt lat="45.994332" lon="10.314615"><time>2025-04-28T09:49:11.000Z</time><ele>677.4</ele></trkpt><trkpt lat="45.99434" lon="10.314635"><time>2025-04-28T09:49:12.000Z</time><ele>677.2</ele></trkpt><trkpt lat="45.994348" lon="10.314645"><time>2025-04-28T09:49:13.000Z</time><ele>677</ele></trkpt><trkpt lat="45.994352" lon="10.314655"><time>2025-04-28T09:49:14.000Z</time><ele>677</ele></trkpt><trkpt lat="45.994359" lon="10.314667"><time>2025-04-28T09:49:15.000Z</time><ele>676.8</ele></trkpt><trkpt lat="45.994365" lon="10.314686"><time>2025-04-28T09:49:16.000Z</time><ele>676.6</ele></trkpt><trkpt lat="45.99437" lon="10.314701"><time>2025-04-28T09:49:17.000Z</time><ele>676.4</ele></trkpt><trkpt lat="45.994374" lon="10.314714"><time>2025-04-28T09:49:18.000Z</time><ele>676.2</ele></trkpt><trkpt lat="45.994383" lon="10.314729"><time>2025-04-28T09:49:19.000Z</time><ele>675.8</ele></trkpt><trkpt lat="45.994396" lon="10.314748"><time>2025-04-28T09:49:20.000Z</time><ele>675.6</ele></trkpt><trkpt lat="45.994408" lon="10.314766"><time>2025-04-28T09:49:21.000Z</time><ele>675.2</ele></trkpt><trkpt lat="45.994417" lon="10.314782"><time>2025-04-28T09:49:22.000Z</time><ele>675</ele></trkpt><trkpt lat="45.994426" lon="10.314799"><time>2025-04-28T09:49:23.000Z</time><ele>674.8</ele></trkpt><trkpt lat="45.994438" lon="10.314818"><time>2025-04-28T09:49:24.000Z</time><ele>674.4</ele></trkpt><trkpt lat="45.99445" lon="10.314839"><time>2025-04-28T09:49:25.000Z</time><ele>674.2</ele></trkpt><trkpt lat="45.99446" lon="10.314848"><time>2025-04-28T09:49:26.000Z</time><ele>673.8</ele></trkpt><trkpt lat="45.994471" lon="10.314856"><time>2025-04-28T09:49:27.000Z</time><ele>673.6</ele></trkpt><trkpt lat="45.994481" lon="10.314865"><time>2025-04-28T09:49:28.000Z</time><ele>673.4</ele></trkpt><trkpt lat="45.994492" lon="10.314871"><time>2025-04-28T09:49:29.000Z</time><ele>673</ele></trkpt><trkpt lat="45.994504" lon="10.314875"><time>2025-04-28T09:49:30.000Z</time><ele>672.6</ele></trkpt><trkpt lat="45.994516" lon="10.31488"><time>2025-04-28T09:49:31.000Z</time><ele>672.4</ele></trkpt><trkpt lat="45.994525" lon="10.314891"><time>2025-04-28T09:49:32.000Z</time><ele>672</ele></trkpt><trkpt lat="45.994532" lon="10.314902"><time>2025-04-28T09:49:33.000Z</time><ele>671.8</ele></trkpt><trkpt lat="45.99454" lon="10.314914"><time>2025-04-28T09:49:34.000Z</time><ele>671.4</ele></trkpt><trkpt lat="45.994551" lon="10.314925"><time>2025-04-28T09:49:35.000Z</time><ele>670.8</ele></trkpt><trkpt lat="45.99456" lon="10.314932"><time>2025-04-28T09:49:36.000Z</time><ele>670.6</ele></trkpt><trkpt lat="45.994573" lon="10.314943"><time>2025-04-28T09:49:37.000Z</time><ele>670.4</ele></trkpt><trkpt lat="45.994583" lon="10.314957"><time>2025-04-28T09:49:38.000Z</time><ele>670.2</ele></trkpt><trkpt lat="45.994593" lon="10.314972"><time>2025-04-28T09:49:39.000Z</time><ele>670</ele></trkpt><trkpt lat="45.994603" lon="10.314986"><time>2025-04-28T09:49:40.000Z</time><ele>669.4</ele></trkpt><trkpt lat="45.994614" lon="10.314998"><time>2025-04-28T09:49:41.000Z</time><ele>669.2</ele></trkpt><trkpt lat="45.994624" lon="10.315008"><time>2025-04-28T09:49:42.000Z</time><ele>669</ele></trkpt><trkpt lat="45.994638" lon="10.315018"><time>2025-04-28T09:49:43.000Z</time><ele>668.8</ele></trkpt><trkpt lat="45.994649" lon="10.315028"><time>2025-04-28T09:49:44.000Z</time><ele>668.6</ele></trkpt><trkpt lat="45.994665" lon="10.315027"><time>2025-04-28T09:49:45.000Z</time><ele>668.4</ele></trkpt><trkpt lat="45.994679" lon="10.315026"><time>2025-04-28T09:49:46.000Z</time><ele>668</ele></trkpt><trkpt lat="45.99469" lon="10.315026"><time>2025-04-28T09:49:47.000Z</time><ele>667.8</ele></trkpt><trkpt lat="45.994703" lon="10.315034"><time>2025-04-28T09:49:48.000Z</time><ele>667.4</ele></trkpt><trkpt lat="45.994714" lon="10.315045"><time>2025-04-28T09:49:49.000Z</time><ele>667.2</ele></trkpt><trkpt lat="45.994726" lon="10.315056"><time>2025-04-28T09:49:50.000Z</time><ele>667</ele></trkpt><trkpt lat="45.994738" lon="10.315065"><time>2025-04-28T09:49:51.000Z</time><ele>666.8</ele></trkpt><trkpt lat="45.994742" lon="10.315074"><time>2025-04-28T09:49:52.000Z</time><ele>666.6</ele></trkpt><trkpt lat="45.994751" lon="10.315086"><time>2025-04-28T09:49:53.000Z</time><ele>666.4</ele></trkpt><trkpt lat="45.994763" lon="10.315098"><time>2025-04-28T09:49:54.000Z</time><ele>666.2</ele></trkpt><trkpt lat="45.994774" lon="10.315107"><time>2025-04-28T09:49:55.000Z</time><ele>665.8</ele></trkpt><trkpt lat="45.994787" lon="10.315114"><time>2025-04-28T09:49:56.000Z</time><ele>665.8</ele></trkpt><trkpt lat="45.9948" lon="10.315121"><time>2025-04-28T09:49:57.000Z</time><ele>665.6</ele></trkpt><trkpt lat="45.994811" lon="10.315129"><time>2025-04-28T09:49:58.000Z</time><ele>665.2</ele></trkpt><trkpt lat="45.994822" lon="10.315135"><time>2025-04-28T09:49:59.000Z</time><ele>665</ele></trkpt><trkpt lat="45.994834" lon="10.315146"><time>2025-04-28T09:50:00.000Z</time><ele>664.8</ele></trkpt><trkpt lat="45.994843" lon="10.315162"><time>2025-04-28T09:50:01.000Z</time><ele>664.4</ele></trkpt><trkpt lat="45.994852" lon="10.315174"><time>2025-04-28T09:50:02.000Z</time><ele>664.4</ele></trkpt><trkpt lat="45.99486" lon="10.31519"><time>2025-04-28T09:50:03.000Z</time><ele>664</ele></trkpt><trkpt lat="45.994869" lon="10.315202"><time>2025-04-28T09:50:04.000Z</time><ele>663.8</ele></trkpt><trkpt lat="45.99488" lon="10.315215"><time>2025-04-28T09:50:05.000Z</time><ele>663.4</ele></trkpt><trkpt lat="45.994886" lon="10.315228"><time>2025-04-28T09:50:06.000Z</time><ele>663.4</ele></trkpt><trkpt lat="45.994892" lon="10.315242"><time>2025-04-28T09:50:07.000Z</time><ele>663.2</ele></trkpt><trkpt lat="45.9949" lon="10.315255"><time>2025-04-28T09:50:08.000Z</time><ele>663</ele></trkpt><trkpt lat="45.994906" lon="10.315269"><time>2025-04-28T09:50:09.000Z</time><ele>662.8</ele></trkpt><trkpt lat="45.994913" lon="10.315289"><time>2025-04-28T09:50:10.000Z</time><ele>662.6</ele></trkpt><trkpt lat="45.994918" lon="10.315305"><time>2025-04-28T09:50:11.000Z</time><ele>662.4</ele></trkpt><trkpt lat="45.994925" lon="10.315317"><time>2025-04-28T09:50:12.000Z</time><ele>662.4</ele></trkpt><trkpt lat="45.994931" lon="10.315331"><time>2025-04-28T09:50:13.000Z</time><ele>662</ele></trkpt><trkpt lat="45.994934" lon="10.315341"><time>2025-04-28T09:50:14.000Z</time><ele>662</ele></trkpt><trkpt lat="45.994937" lon="10.315356"><time>2025-04-28T09:50:15.000Z</time><ele>661.8</ele></trkpt><trkpt lat="45.994942" lon="10.315372"><time>2025-04-28T09:50:16.000Z</time><ele>661.6</ele></trkpt><trkpt lat="45.994946" lon="10.31539"><time>2025-04-28T09:50:17.000Z</time><ele>661.6</ele></trkpt><trkpt lat="45.994946" lon="10.315412"><time>2025-04-28T09:50:18.000Z</time><ele>661.4</ele></trkpt><trkpt lat="45.994949" lon="10.315431"><time>2025-04-28T09:50:19.000Z</time><ele>661.2</ele></trkpt><trkpt lat="45.994952" lon="10.315445"><time>2025-04-28T09:50:20.000Z</time><ele>661</ele></trkpt><trkpt lat="45.994957" lon="10.315458"><time>2025-04-28T09:50:21.000Z</time><ele>660.8</ele></trkpt><trkpt lat="45.994965" lon="10.315471"><time>2025-04-28T09:50:22.000Z</time><ele>660.4</ele></trkpt><trkpt lat="45.994974" lon="10.315483"><time>2025-04-28T09:50:23.000Z</time><ele>660.2</ele></trkpt><trkpt lat="45.994981" lon="10.315495"><time>2025-04-28T09:50:24.000Z</time><ele>660.2</ele></trkpt><trkpt lat="45.994985" lon="10.315501"><time>2025-04-28T09:50:25.000Z</time><ele>660</ele></trkpt><trkpt lat="45.994988" lon="10.315522"><time>2025-04-28T09:50:26.000Z</time><ele>659.8</ele></trkpt><trkpt lat="45.994991" lon="10.315541"><time>2025-04-28T09:50:27.000Z</time><ele>659.8</ele></trkpt><trkpt lat="45.994992" lon="10.315559"><time>2025-04-28T09:50:28.000Z</time><ele>659.8</ele></trkpt><trkpt lat="45.994997" lon="10.315567"><time>2025-04-28T09:50:29.000Z</time><ele>659.6</ele></trkpt><trkpt lat="45.995" lon="10.315574"><time>2025-04-28T09:50:30.000Z</time><ele>659.6</ele></trkpt><trkpt lat="45.995002" lon="10.315582"><time>2025-04-28T09:50:31.000Z</time><ele>659.4</ele></trkpt><trkpt lat="45.995006" lon="10.315589"><time>2025-04-28T09:50:32.000Z</time><ele>659.2</ele></trkpt><trkpt lat="45.995014" lon="10.315605"><time>2025-04-28T09:50:33.000Z</time><ele>659</ele></trkpt><trkpt lat="45.99502" lon="10.315631"><time>2025-04-28T09:50:34.000Z</time><ele>658.8</ele></trkpt><trkpt lat="45.995025" lon="10.31565"><time>2025-04-28T09:50:35.000Z</time><ele>658.6</ele></trkpt><trkpt lat="45.995028" lon="10.315659"><time>2025-04-28T09:50:36.000Z</time><ele>658.4</ele></trkpt><trkpt lat="45.995034" lon="10.315669"><time>2025-04-28T09:50:37.000Z</time><ele>658.2</ele></trkpt><trkpt lat="45.995037" lon="10.315687"><time>2025-04-28T09:50:38.000Z</time><ele>657.8</ele></trkpt><trkpt lat="45.995043" lon="10.315705"><time>2025-04-28T09:50:39.000Z</time><ele>657.6</ele></trkpt><trkpt lat="45.995052" lon="10.315718"><time>2025-04-28T09:50:40.000Z</time><ele>657.4</ele></trkpt><trkpt lat="45.995059" lon="10.315729"><time>2025-04-28T09:50:41.000Z</time><ele>657.2</ele></trkpt><trkpt lat="45.995066" lon="10.315747"><time>2025-04-28T09:50:42.000Z</time><ele>657.2</ele></trkpt><trkpt lat="45.995072" lon="10.315761"><time>2025-04-28T09:50:43.000Z</time><ele>657</ele></trkpt><trkpt lat="45.995086" lon="10.315773"><time>2025-04-28T09:50:44.000Z</time><ele>657</ele></trkpt><trkpt lat="45.995094" lon="10.315787"><time>2025-04-28T09:50:45.000Z</time><ele>656.8</ele></trkpt><trkpt lat="45.995099" lon="10.315799"><time>2025-04-28T09:50:46.000Z</time><ele>656.8</ele></trkpt><trkpt lat="45.995102" lon="10.315808"><time>2025-04-28T09:50:47.000Z</time><ele>656.8</ele></trkpt><trkpt lat="45.995109" lon="10.315814"><time>2025-04-28T09:50:48.000Z</time><ele>656.8</ele></trkpt><trkpt lat="45.995114" lon="10.31582"><time>2025-04-28T09:50:49.000Z</time><ele>656.8</ele></trkpt><trkpt lat="45.995119" lon="10.315821"><time>2025-04-28T09:50:50.000Z</time><ele>657</ele></trkpt><trkpt lat="45.995123" lon="10.315822"><time>2025-04-28T09:50:51.000Z</time><ele>657.2</ele></trkpt><trkpt lat="45.995123" lon="10.315822"><time>2025-04-28T09:50:52.000Z</time><ele>657.2</ele></trkpt><trkpt lat="45.995125" lon="10.315826"><time>2025-04-28T09:50:53.000Z</time><ele>657.4</ele></trkpt><trkpt lat="45.995128" lon="10.315832"><time>2025-04-28T09:50:54.000Z</time><ele>657.4</ele></trkpt><trkpt lat="45.995129" lon="10.315835"><time>2025-04-28T09:50:55.000Z</time><ele>657.2</ele></trkpt><trkpt lat="45.995129" lon="10.315839"><time>2025-04-28T09:50:56.000Z</time><ele>657</ele></trkpt><trkpt lat="45.995128" lon="10.315841"><time>2025-04-28T09:50:57.000Z</time><ele>657</ele></trkpt><trkpt lat="45.995127" lon="10.315841"><time>2025-04-28T09:50:58.000Z</time><ele>657</ele></trkpt><trkpt lat="45.995126" lon="10.315841"><time>2025-04-28T09:50:59.000Z</time><ele>657</ele></trkpt><trkpt lat="45.995125" lon="10.315844"><time>2025-04-28T09:51:00.000Z</time><ele>657</ele></trkpt><trkpt lat="45.995125" lon="10.315847"><time>2025-04-28T09:51:01.000Z</time><ele>657</ele></trkpt><trkpt lat="45.995125" lon="10.315848"><time>2025-04-28T09:51:02.000Z</time><ele>657</ele></trkpt><trkpt lat="45.995125" lon="10.315848"><time>2025-04-28T09:51:03.000Z</time><ele>657</ele></trkpt><trkpt lat="45.995125" lon="10.315848"><time>2025-04-28T09:51:04.000Z</time><ele>657</ele></trkpt><trkpt lat="45.995125" lon="10.315846"><time>2025-04-28T09:51:05.000Z</time><ele>657</ele></trkpt><trkpt lat="45.995125" lon="10.315846"><time>2025-04-28T09:51:06.000Z</time><ele>657</ele></trkpt><trkpt lat="45.995125" lon="10.315846"><time>2025-04-28T09:51:07.000Z</time><ele>657</ele></trkpt><trkpt lat="45.995125" lon="10.315846"><time>2025-04-28T09:51:08.000Z</time><ele>657</ele></trkpt><trkpt lat="45.995125" lon="10.315846"><time>2025-04-28T09:51:09.000Z</time><ele>657</ele></trkpt><trkpt lat="45.995125" lon="10.315846"><time>2025-04-28T09:51:10.000Z</time><ele>657</ele></trkpt><trkpt lat="45.995125" lon="10.315846"><time>2025-04-28T09:51:11.000Z</time><ele>657</ele></trkpt><trkpt lat="45.995125" lon="10.315846"><time>2025-04-28T09:51:12.000Z</time><ele>657</ele></trkpt><trkpt lat="45.995125" lon="10.315846"><time>2025-04-28T09:51:13.000Z</time><ele>657</ele></trkpt><trkpt lat="45.995125" lon="10.315846"><time>2025-04-28T09:51:14.000Z</time><ele>657</ele></trkpt><trkpt lat="45.995125" lon="10.315846"><time>2025-04-28T09:51:15.000Z</time><ele>657</ele></trkpt><trkpt lat="45.995125" lon="10.315846"><time>2025-04-28T09:51:16.000Z</time><ele>657</ele></trkpt><trkpt lat="45.995125" lon="10.315846"><time>2025-04-28T09:51:17.000Z</time><ele>657</ele></trkpt><trkpt lat="45.995125" lon="10.315846"><time>2025-04-28T09:51:18.000Z</time><ele>657</ele></trkpt><trkpt lat="45.995125" lon="10.315846"><time>2025-04-28T09:51:19.000Z</time><ele>657</ele></trkpt><trkpt lat="45.995125" lon="10.315846"><time>2025-04-28T09:51:20.000Z</time><ele>657</ele></trkpt><trkpt lat="45.995124" lon="10.315846"><time>2025-04-28T09:51:21.000Z</time><ele>657</ele></trkpt><trkpt lat="45.995123" lon="10.315846"><time>2025-04-28T09:51:22.000Z</time><ele>657</ele></trkpt><trkpt lat="45.995123" lon="10.315846"><time>2025-04-28T09:51:23.000Z</time><ele>657</ele></trkpt><trkpt lat="45.995122" lon="10.315847"><time>2025-04-28T09:51:24.000Z</time><ele>657</ele></trkpt><trkpt lat="45.99512" lon="10.315848"><time>2025-04-28T09:51:25.000Z</time><ele>657</ele></trkpt><trkpt lat="45.99512" lon="10.315848"><time>2025-04-28T09:51:26.000Z</time><ele>657</ele></trkpt><trkpt lat="45.99512" lon="10.315848"><time>2025-04-28T09:51:27.000Z</time><ele>657</ele></trkpt><trkpt lat="45.99512" lon="10.315848"><time>2025-04-28T09:51:28.000Z</time><ele>657</ele></trkpt><trkpt lat="45.99512" lon="10.315848"><time>2025-04-28T09:51:29.000Z</time><ele>657</ele></trkpt><trkpt lat="45.995119" lon="10.315848"><time>2025-04-28T09:51:30.000Z</time><ele>657</ele></trkpt><trkpt lat="45.995119" lon="10.315848"><time>2025-04-28T09:51:31.000Z</time><ele>657</ele></trkpt><trkpt lat="45.995119" lon="10.315848"><time>2025-04-28T09:51:32.000Z</time><ele>657</ele></trkpt><trkpt lat="45.995119" lon="10.315848"><time>2025-04-28T09:51:33.000Z</time><ele>657</ele></trkpt><trkpt lat="45.995119" lon="10.315848"><time>2025-04-28T09:51:34.000Z</time><ele>657</ele></trkpt><trkpt lat="45.995119" lon="10.315848"><time>2025-04-28T09:51:35.000Z</time><ele>657</ele></trkpt><trkpt lat="45.995119" lon="10.315848"><time>2025-04-28T09:51:36.000Z</time><ele>656.8</ele></trkpt><trkpt lat="45.995119" lon="10.315848"><time>2025-04-28T09:51:37.000Z</time><ele>656.8</ele></trkpt><trkpt lat="45.995119" lon="10.315848"><time>2025-04-28T09:51:38.000Z</time><ele>656.8</ele></trkpt><trkpt lat="45.995119" lon="10.315849"><time>2025-04-28T09:51:39.000Z</time><ele>656.8</ele></trkpt><trkpt lat="45.995119" lon="10.315849"><time>2025-04-28T09:51:40.000Z</time><ele>656.8</ele></trkpt><trkpt lat="45.995119" lon="10.315849"><time>2025-04-28T09:51:41.000Z</time><ele>656.8</ele></trkpt><trkpt lat="45.995118" lon="10.315849"><time>2025-04-28T09:51:42.000Z</time><ele>656.8</ele></trkpt><trkpt lat="45.995118" lon="10.315849"><time>2025-04-28T09:51:43.000Z</time><ele>656.8</ele></trkpt><trkpt lat="45.995118" lon="10.31585"><time>2025-04-28T09:51:44.000Z</time><ele>656.8</ele></trkpt><trkpt lat="45.995118" lon="10.31585"><time>2025-04-28T09:51:45.000Z</time><ele>656.8</ele></trkpt><trkpt lat="45.995118" lon="10.31585"><time>2025-04-28T09:51:46.000Z</time><ele>656.8</ele></trkpt><trkpt lat="45.995118" lon="10.315851"><time>2025-04-28T09:51:47.000Z</time><ele>656.8</ele></trkpt><trkpt lat="45.995117" lon="10.315853"><time>2025-04-28T09:51:48.000Z</time><ele>656.8</ele></trkpt><trkpt lat="45.995116" lon="10.315855"><time>2025-04-28T09:51:49.000Z</time><ele>656.8</ele></trkpt><trkpt lat="45.995114" lon="10.315857"><time>2025-04-28T09:51:50.000Z</time><ele>656.8</ele></trkpt><trkpt lat="45.995113" lon="10.315858"><time>2025-04-28T09:51:51.000Z</time><ele>656.6</ele></trkpt><trkpt lat="45.995112" lon="10.31586"><time>2025-04-28T09:51:52.000Z</time><ele>656.6</ele></trkpt><trkpt lat="45.995111" lon="10.315861"><time>2025-04-28T09:51:53.000Z</time><ele>656.6</ele></trkpt><trkpt lat="45.99511" lon="10.315861"><time>2025-04-28T09:51:54.000Z</time><ele>656.6</ele></trkpt><trkpt lat="45.995109" lon="10.315861"><time>2025-04-28T09:51:55.000Z</time><ele>656.6</ele></trkpt><trkpt lat="45.995109" lon="10.315861"><time>2025-04-28T09:51:56.000Z</time><ele>656.6</ele></trkpt><trkpt lat="45.995108" lon="10.315861"><time>2025-04-28T09:51:57.000Z</time><ele>656.6</ele></trkpt><trkpt lat="45.995108" lon="10.315861"><time>2025-04-28T09:51:58.000Z</time><ele>656.6</ele></trkpt><trkpt lat="45.995108" lon="10.315861"><time>2025-04-28T09:51:59.000Z</time><ele>656.6</ele></trkpt><trkpt lat="45.995108" lon="10.315861"><time>2025-04-28T09:52:00.000Z</time><ele>656.6</ele></trkpt><trkpt lat="45.995108" lon="10.315861"><time>2025-04-28T09:52:01.000Z</time><ele>656.6</ele></trkpt><trkpt lat="45.995108" lon="10.315861"><time>2025-04-28T09:52:02.000Z</time><ele>656.6</ele></trkpt><trkpt lat="45.995108" lon="10.315861"><time>2025-04-28T09:52:03.000Z</time><ele>656.6</ele></trkpt><trkpt lat="45.995108" lon="10.315861"><time>2025-04-28T09:52:04.000Z</time><ele>656.6</ele></trkpt><trkpt lat="45.995108" lon="10.315861"><time>2025-04-28T09:52:05.000Z</time><ele>656.6</ele></trkpt><trkpt lat="45.995108" lon="10.315861"><time>2025-04-28T09:52:06.000Z</time><ele>656.6</ele></trkpt><trkpt lat="45.995108" lon="10.315861"><time>2025-04-28T09:52:07.000Z</time><ele>656.6</ele></trkpt><trkpt lat="45.995108" lon="10.315861"><time>2025-04-28T09:52:08.000Z</time><ele>656.8</ele></trkpt><trkpt lat="45.995108" lon="10.315861"><time>2025-04-28T09:52:09.000Z</time><ele>656.6</ele></trkpt><trkpt lat="45.995108" lon="10.31586"><time>2025-04-28T09:52:10.000Z</time><ele>656.6</ele></trkpt><trkpt lat="45.995108" lon="10.315859"><time>2025-04-28T09:52:11.000Z</time><ele>656.6</ele></trkpt><trkpt lat="45.995108" lon="10.315859"><time>2025-04-28T09:52:12.000Z</time><ele>656.8</ele></trkpt><trkpt lat="45.995109" lon="10.315858"><time>2025-04-28T09:52:13.000Z</time><ele>657.2</ele></trkpt><trkpt lat="45.995109" lon="10.315857"><time>2025-04-28T09:52:14.000Z</time><ele>657.2</ele></trkpt><trkpt lat="45.995109" lon="10.315857"><time>2025-04-28T09:52:15.000Z</time><ele>657.2</ele></trkpt><trkpt lat="45.99511" lon="10.315856"><time>2025-04-28T09:52:16.000Z</time><ele>657.2</ele></trkpt><trkpt lat="45.995111" lon="10.315855"><time>2025-04-28T09:52:17.000Z</time><ele>657.2</ele></trkpt><trkpt lat="45.995111" lon="10.315855"><time>2025-04-28T09:52:18.000Z</time><ele>657.2</ele></trkpt><trkpt lat="45.995111" lon="10.315854"><time>2025-04-28T09:52:19.000Z</time><ele>657.2</ele></trkpt><trkpt lat="45.995112" lon="10.315854"><time>2025-04-28T09:52:20.000Z</time><ele>657.2</ele></trkpt><trkpt lat="45.995112" lon="10.315853"><time>2025-04-28T09:52:21.000Z</time><ele>657.2</ele></trkpt><trkpt lat="45.995112" lon="10.315853"><time>2025-04-28T09:52:22.000Z</time><ele>657.2</ele></trkpt><trkpt lat="45.995112" lon="10.315853"><time>2025-04-28T09:52:23.000Z</time><ele>657.2</ele></trkpt><trkpt lat="45.995112" lon="10.315852"><time>2025-04-28T09:52:24.000Z</time><ele>657.2</ele></trkpt><trkpt lat="45.995112" lon="10.315852"><time>2025-04-28T09:52:25.000Z</time><ele>657.2</ele></trkpt><trkpt lat="45.995112" lon="10.315851"><time>2025-04-28T09:52:26.000Z</time><ele>657.2</ele></trkpt><trkpt lat="45.995112" lon="10.315851"><time>2025-04-28T09:52:27.000Z</time><ele>657.2</ele></trkpt><trkpt lat="45.995112" lon="10.31585"><time>2025-04-28T09:52:28.000Z</time><ele>657.2</ele></trkpt><trkpt lat="45.995112" lon="10.31585"><time>2025-04-28T09:52:29.000Z</time><ele>657.2</ele></trkpt><trkpt lat="45.995112" lon="10.31585"><time>2025-04-28T09:52:30.000Z</time><ele>657.2</ele></trkpt><trkpt lat="45.995112" lon="10.31585"><time>2025-04-28T09:52:31.000Z</time><ele>657.2</ele></trkpt><trkpt lat="45.995112" lon="10.31585"><time>2025-04-28T09:52:32.000Z</time><ele>657.2</ele></trkpt><trkpt lat="45.995112" lon="10.31585"><time>2025-04-28T09:52:33.000Z</time><ele>657.2</ele></trkpt><trkpt lat="45.995112" lon="10.31585"><time>2025-04-28T09:52:34.000Z</time><ele>657.2</ele></trkpt><trkpt lat="45.995112" lon="10.31585"><time>2025-04-28T09:52:35.000Z</time><ele>657.2</ele></trkpt><trkpt lat="45.995112" lon="10.31585"><time>2025-04-28T09:52:36.000Z</time><ele>657.2</ele></trkpt><trkpt lat="45.995112" lon="10.31585"><time>2025-04-28T09:52:37.000Z</time><ele>657.2</ele></trkpt><trkpt lat="45.995112" lon="10.31585"><time>2025-04-28T09:52:38.000Z</time><ele>657.2</ele></trkpt><trkpt lat="45.995112" lon="10.31585"><time>2025-04-28T09:52:39.000Z</time><ele>657.2</ele></trkpt><trkpt lat="45.995111" lon="10.31585"><time>2025-04-28T09:52:40.000Z</time><ele>657.2</ele></trkpt><trkpt lat="45.995111" lon="10.315851"><time>2025-04-28T09:52:41.000Z</time><ele>657.2</ele></trkpt><trkpt lat="45.995111" lon="10.315851"><time>2025-04-28T09:52:42.000Z</time><ele>657.2</ele></trkpt><trkpt lat="45.99511" lon="10.315852"><time>2025-04-28T09:52:43.000Z</time><ele>657.2</ele></trkpt><trkpt lat="45.99511" lon="10.315852"><time>2025-04-28T09:52:44.000Z</time><ele>657.2</ele></trkpt><trkpt lat="45.995109" lon="10.315852"><time>2025-04-28T09:52:45.000Z</time><ele>657.2</ele></trkpt><trkpt lat="45.995109" lon="10.315853"><time>2025-04-28T09:52:46.000Z</time><ele>657.2</ele></trkpt><trkpt lat="45.995109" lon="10.315853"><time>2025-04-28T09:52:47.000Z</time><ele>657.2</ele></trkpt><trkpt lat="45.995109" lon="10.315856"><time>2025-04-28T09:52:48.000Z</time><ele>657.2</ele></trkpt><trkpt lat="45.995108" lon="10.31586"><time>2025-04-28T09:52:49.000Z</time><ele>657.2</ele></trkpt><trkpt lat="45.995108" lon="10.315863"><time>2025-04-28T09:52:50.000Z</time><ele>657.2</ele></trkpt><trkpt lat="45.995107" lon="10.315864"><time>2025-04-28T09:52:51.000Z</time><ele>657.2</ele></trkpt><trkpt lat="45.995107" lon="10.315864"><time>2025-04-28T09:52:52.000Z</time><ele>657.2</ele></trkpt><trkpt lat="45.995107" lon="10.315865"><time>2025-04-28T09:52:53.000Z</time><ele>657.2</ele></trkpt><trkpt lat="45.995107" lon="10.315865"><time>2025-04-28T09:52:54.000Z</time><ele>657.2</ele></trkpt><trkpt lat="45.995107" lon="10.315865"><time>2025-04-28T09:52:55.000Z</time><ele>657.2</ele></trkpt><trkpt lat="45.995107" lon="10.315865"><time>2025-04-28T09:52:56.000Z</time><ele>657.2</ele></trkpt><trkpt lat="45.995105" lon="10.315865"><time>2025-04-28T09:52:57.000Z</time><ele>657.2</ele></trkpt><trkpt lat="45.995103" lon="10.315865"><time>2025-04-28T09:52:58.000Z</time><ele>657.2</ele></trkpt><trkpt lat="45.995102" lon="10.315865"><time>2025-04-28T09:52:59.000Z</time><ele>657.2</ele></trkpt><trkpt lat="45.995101" lon="10.315865"><time>2025-04-28T09:53:00.000Z</time><ele>657.2</ele></trkpt><trkpt lat="45.9951" lon="10.315865"><time>2025-04-28T09:53:01.000Z</time><ele>657.2</ele></trkpt><trkpt lat="45.9951" lon="10.315865"><time>2025-04-28T09:53:02.000Z</time><ele>657.2</ele></trkpt><trkpt lat="45.995099" lon="10.315865"><time>2025-04-28T09:53:03.000Z</time><ele>657.2</ele></trkpt><trkpt lat="45.995099" lon="10.315865"><time>2025-04-28T09:53:04.000Z</time><ele>657.2</ele></trkpt><trkpt lat="45.995099" lon="10.315865"><time>2025-04-28T09:53:05.000Z</time><ele>657.2</ele></trkpt><trkpt lat="45.995098" lon="10.315865"><time>2025-04-28T09:53:06.000Z</time><ele>657.2</ele></trkpt><trkpt lat="45.995096" lon="10.315865"><time>2025-04-28T09:53:07.000Z</time><ele>657.2</ele></trkpt><trkpt lat="45.995095" lon="10.315864"><time>2025-04-28T09:53:08.000Z</time><ele>657.2</ele></trkpt><trkpt lat="45.995094" lon="10.315863"><time>2025-04-28T09:53:09.000Z</time><ele>657.2</ele></trkpt><trkpt lat="45.995094" lon="10.315862"><time>2025-04-28T09:53:10.000Z</time><ele>657.2</ele></trkpt><trkpt lat="45.995093" lon="10.315862"><time>2025-04-28T09:53:11.000Z</time><ele>657.2</ele></trkpt><trkpt lat="45.995093" lon="10.315861"><time>2025-04-28T09:53:12.000Z</time><ele>657.2</ele></trkpt><trkpt lat="45.995093" lon="10.31586"><time>2025-04-28T09:53:13.000Z</time><ele>657.2</ele></trkpt><trkpt lat="45.995093" lon="10.315859"><time>2025-04-28T09:53:14.000Z</time><ele>657.2</ele></trkpt><trkpt lat="45.995093" lon="10.315858"><time>2025-04-28T09:53:15.000Z</time><ele>657.2</ele></trkpt><trkpt lat="45.995093" lon="10.315857"><time>2025-04-28T09:53:16.000Z</time><ele>657.2</ele></trkpt><trkpt lat="45.995093" lon="10.315856"><time>2025-04-28T09:53:17.000Z</time><ele>657.2</ele></trkpt><trkpt lat="45.995093" lon="10.315856"><time>2025-04-28T09:53:18.000Z</time><ele>657.2</ele></trkpt><trkpt lat="45.995093" lon="10.315856"><time>2025-04-28T09:53:19.000Z</time><ele>657.2</ele></trkpt><trkpt lat="45.995093" lon="10.315856"><time>2025-04-28T09:53:20.000Z</time><ele>657.2</ele></trkpt><trkpt lat="45.995093" lon="10.315856"><time>2025-04-28T09:53:21.000Z</time><ele>657.2</ele></trkpt><trkpt lat="45.995093" lon="10.315856"><time>2025-04-28T09:53:22.000Z</time><ele>657.2</ele></trkpt><trkpt lat="45.995093" lon="10.315856"><time>2025-04-28T09:53:23.000Z</time><ele>657.2</ele></trkpt><trkpt lat="45.995093" lon="10.315856"><time>2025-04-28T09:53:24.000Z</time><ele>657.2</ele></trkpt><trkpt lat="45.995093" lon="10.315855"><time>2025-04-28T09:53:25.000Z</time><ele>657.2</ele></trkpt><trkpt lat="45.995094" lon="10.315855"><time>2025-04-28T09:53:26.000Z</time><ele>657.2</ele></trkpt><trkpt lat="45.995094" lon="10.315855"><time>2025-04-28T09:53:27.000Z</time><ele>657.2</ele></trkpt><trkpt lat="45.995094" lon="10.315855"><time>2025-04-28T09:53:28.000Z</time><ele>657.2</ele></trkpt><trkpt lat="45.995095" lon="10.315855"><time>2025-04-28T09:53:29.000Z</time><ele>657.2</ele></trkpt><trkpt lat="45.995095" lon="10.315855"><time>2025-04-28T09:53:30.000Z</time><ele>657.2</ele></trkpt><trkpt lat="45.995095" lon="10.315855"><time>2025-04-28T09:53:31.000Z</time><ele>657.2</ele></trkpt><trkpt lat="45.995096" lon="10.315855"><time>2025-04-28T09:53:32.000Z</time><ele>657.2</ele></trkpt><trkpt lat="45.995096" lon="10.315855"><time>2025-04-28T09:53:33.000Z</time><ele>657.2</ele></trkpt><trkpt lat="45.995096" lon="10.315855"><time>2025-04-28T09:53:34.000Z</time><ele>657.2</ele></trkpt><trkpt lat="45.995096" lon="10.315855"><time>2025-04-28T09:53:35.000Z</time><ele>657.2</ele></trkpt><trkpt lat="45.995096" lon="10.315854"><time>2025-04-28T09:53:36.000Z</time><ele>657.2</ele></trkpt><trkpt lat="45.995096" lon="10.315854"><time>2025-04-28T09:53:37.000Z</time><ele>657.2</ele></trkpt><trkpt lat="45.995096" lon="10.315854"><time>2025-04-28T09:53:38.000Z</time><ele>657.2</ele></trkpt><trkpt lat="45.995097" lon="10.315854"><time>2025-04-28T09:53:39.000Z</time><ele>657.2</ele></trkpt><trkpt lat="45.995097" lon="10.315854"><time>2025-04-28T09:53:40.000Z</time><ele>657.2</ele></trkpt><trkpt lat="45.995097" lon="10.315854"><time>2025-04-28T09:53:41.000Z</time><ele>657.2</ele></trkpt><trkpt lat="45.995097" lon="10.315855"><time>2025-04-28T09:53:42.000Z</time><ele>657.2</ele></trkpt><trkpt lat="45.995098" lon="10.315855"><time>2025-04-28T09:53:43.000Z</time><ele>657.2</ele></trkpt><trkpt lat="45.995098" lon="10.315855"><time>2025-04-28T09:53:44.000Z</time><ele>657.2</ele></trkpt><trkpt lat="45.995098" lon="10.315855"><time>2025-04-28T09:53:45.000Z</time><ele>657.2</ele></trkpt><trkpt lat="45.995098" lon="10.315855"><time>2025-04-28T09:53:46.000Z</time><ele>657.2</ele></trkpt><trkpt lat="45.995099" lon="10.315855"><time>2025-04-28T09:53:47.000Z</time><ele>657.2</ele></trkpt><trkpt lat="45.995099" lon="10.315855"><time>2025-04-28T09:53:48.000Z</time><ele>657.2</ele></trkpt><trkpt lat="45.995099" lon="10.315854"><time>2025-04-28T09:53:49.000Z</time><ele>657.2</ele></trkpt><trkpt lat="45.995099" lon="10.315854"><time>2025-04-28T09:53:50.000Z</time><ele>657.2</ele></trkpt><trkpt lat="45.995099" lon="10.315854"><time>2025-04-28T09:53:51.000Z</time><ele>657.2</ele></trkpt><trkpt lat="45.995099" lon="10.315854"><time>2025-04-28T09:53:52.000Z</time><ele>657.2</ele></trkpt><trkpt lat="45.995099" lon="10.315854"><time>2025-04-28T09:53:53.000Z</time><ele>657.2</ele></trkpt><trkpt lat="45.995099" lon="10.315854"><time>2025-04-28T09:53:54.000Z</time><ele>657.2</ele></trkpt><trkpt lat="45.995099" lon="10.315854"><time>2025-04-28T09:53:55.000Z</time><ele>657.2</ele></trkpt><trkpt lat="45.9951" lon="10.315854"><time>2025-04-28T09:53:56.000Z</time><ele>657.2</ele></trkpt><trkpt lat="45.9951" lon="10.315854"><time>2025-04-28T09:53:57.000Z</time><ele>657.2</ele></trkpt><trkpt lat="45.9951" lon="10.315854"><time>2025-04-28T09:53:58.000Z</time><ele>657.2</ele></trkpt><trkpt lat="45.9951" lon="10.315853"><time>2025-04-28T09:53:59.000Z</time><ele>657.2</ele></trkpt><trkpt lat="45.9951" lon="10.315853"><time>2025-04-28T09:54:00.000Z</time><ele>657.2</ele></trkpt><trkpt lat="45.9951" lon="10.315853"><time>2025-04-28T09:54:01.000Z</time><ele>657.2</ele></trkpt><trkpt lat="45.9951" lon="10.315853"><time>2025-04-28T09:54:02.000Z</time><ele>657.2</ele></trkpt><trkpt lat="45.9951" lon="10.315853"><time>2025-04-28T09:54:03.000Z</time><ele>657.2</ele></trkpt><trkpt lat="45.9951" lon="10.315853"><time>2025-04-28T09:54:04.000Z</time><ele>657.2</ele></trkpt><trkpt lat="45.9951" lon="10.315853"><time>2025-04-28T09:54:05.000Z</time><ele>657.2</ele></trkpt><trkpt lat="45.9951" lon="10.315853"><time>2025-04-28T09:54:06.000Z</time><ele>657.2</ele></trkpt><trkpt lat="45.995101" lon="10.315853"><time>2025-04-28T09:54:07.000Z</time><ele>657.2</ele></trkpt><trkpt lat="45.995101" lon="10.315853"><time>2025-04-28T09:54:08.000Z</time><ele>657.2</ele></trkpt><trkpt lat="45.995101" lon="10.315853"><time>2025-04-28T09:54:09.000Z</time><ele>657.2</ele></trkpt><trkpt lat="45.995101" lon="10.315853"><time>2025-04-28T09:54:10.000Z</time><ele>657.2</ele></trkpt><trkpt lat="45.995102" lon="10.315853"><time>2025-04-28T09:54:11.000Z</time><ele>657.2</ele></trkpt><trkpt lat="45.995102" lon="10.315853"><time>2025-04-28T09:54:12.000Z</time><ele>657.2</ele></trkpt><trkpt lat="45.995102" lon="10.315853"><time>2025-04-28T09:54:13.000Z</time><ele>657.2</ele></trkpt><trkpt lat="45.995102" lon="10.315853"><time>2025-04-28T09:54:14.000Z</time><ele>657.2</ele></trkpt><trkpt lat="45.995102" lon="10.315853"><time>2025-04-28T09:54:15.000Z</time><ele>657.2</ele></trkpt><trkpt lat="45.995102" lon="10.315853"><time>2025-04-28T09:54:16.000Z</time><ele>657.2</ele></trkpt><trkpt lat="45.995102" lon="10.315853"><time>2025-04-28T09:54:17.000Z</time><ele>657.2</ele></trkpt><trkpt lat="45.995102" lon="10.315853"><time>2025-04-28T09:54:18.000Z</time><ele>657.2</ele></trkpt><trkpt lat="45.995102" lon="10.315853"><time>2025-04-28T09:54:19.000Z</time><ele>657.2</ele></trkpt><trkpt lat="45.995103" lon="10.315852"><time>2025-04-28T09:54:20.000Z</time><ele>657.2</ele></trkpt><trkpt lat="45.995103" lon="10.315852"><time>2025-04-28T09:54:21.000Z</time><ele>657.2</ele></trkpt><trkpt lat="45.995103" lon="10.315852"><time>2025-04-28T09:54:22.000Z</time><ele>657.2</ele></trkpt><trkpt lat="45.995103" lon="10.315852"><time>2025-04-28T09:54:23.000Z</time><ele>657.2</ele></trkpt><trkpt lat="45.995103" lon="10.315852"><time>2025-04-28T09:54:24.000Z</time><ele>657.2</ele></trkpt><trkpt lat="45.995103" lon="10.315852"><time>2025-04-28T09:54:25.000Z</time><ele>657.2</ele></trkpt><trkpt lat="45.995103" lon="10.315853"><time>2025-04-28T09:54:26.000Z</time><ele>657.2</ele></trkpt><trkpt lat="45.995103" lon="10.315853"><time>2025-04-28T09:54:27.000Z</time><ele>657.2</ele></trkpt><trkpt lat="45.995103" lon="10.315853"><time>2025-04-28T09:54:28.000Z</time><ele>657.2</ele></trkpt><trkpt lat="45.995103" lon="10.315853"><time>2025-04-28T09:54:29.000Z</time><ele>657.2</ele></trkpt><trkpt lat="45.995103" lon="10.315853"><time>2025-04-28T09:54:30.000Z</time><ele>657.2</ele></trkpt><trkpt lat="45.995103" lon="10.315853"><time>2025-04-28T09:54:31.000Z</time><ele>657.2</ele></trkpt><trkpt lat="45.995103" lon="10.315853"><time>2025-04-28T09:54:32.000Z</time><ele>657.2</ele></trkpt><trkpt lat="45.995103" lon="10.315853"><time>2025-04-28T09:54:33.000Z</time><ele>657.2</ele></trkpt><trkpt lat="45.995103" lon="10.315853"><time>2025-04-28T09:54:34.000Z</time><ele>657.2</ele></trkpt><trkpt lat="45.995104" lon="10.315854"><time>2025-04-28T09:54:35.000Z</time><ele>657.2</ele></trkpt><trkpt lat="45.995104" lon="10.315854"><time>2025-04-28T09:54:36.000Z</time><ele>657.2</ele></trkpt><trkpt lat="45.995104" lon="10.315854"><time>2025-04-28T09:54:37.000Z</time><ele>657.2</ele></trkpt><trkpt lat="45.995104" lon="10.315854"><time>2025-04-28T09:54:38.000Z</time><ele>657.2</ele></trkpt><trkpt lat="45.995104" lon="10.315854"><time>2025-04-28T09:54:39.000Z</time><ele>657.2</ele></trkpt><trkpt lat="45.995104" lon="10.315854"><time>2025-04-28T09:54:40.000Z</time><ele>657.2</ele></trkpt><trkpt lat="45.995104" lon="10.315854"><time>2025-04-28T09:54:41.000Z</time><ele>657.2</ele></trkpt><trkpt lat="45.995104" lon="10.315854"><time>2025-04-28T09:54:42.000Z</time><ele>657.2</ele></trkpt><trkpt lat="45.995104" lon="10.315854"><time>2025-04-28T09:54:43.000Z</time><ele>657.2</ele></trkpt><trkpt lat="45.995104" lon="10.315854"><time>2025-04-28T09:54:44.000Z</time><ele>657.2</ele></trkpt><trkpt lat="45.995104" lon="10.315854"><time>2025-04-28T09:54:45.000Z</time><ele>657.2</ele></trkpt><trkpt lat="45.995104" lon="10.315854"><time>2025-04-28T09:54:46.000Z</time><ele>657.2</ele></trkpt><trkpt lat="45.995104" lon="10.315854"><time>2025-04-28T09:54:47.000Z</time><ele>657.2</ele></trkpt><trkpt lat="45.995104" lon="10.315854"><time>2025-04-28T09:54:48.000Z</time><ele>657.2</ele></trkpt><trkpt lat="45.995104" lon="10.315854"><time>2025-04-28T09:54:49.000Z</time><ele>657.2</ele></trkpt><trkpt lat="45.995104" lon="10.315854"><time>2025-04-28T09:54:50.000Z</time><ele>657.2</ele></trkpt><trkpt lat="45.995104" lon="10.315854"><time>2025-04-28T09:54:51.000Z</time><ele>657.2</ele></trkpt><trkpt lat="45.995104" lon="10.315854"><time>2025-04-28T09:54:52.000Z</time><ele>657.2</ele></trkpt><trkpt lat="45.995104" lon="10.315854"><time>2025-04-28T09:54:53.000Z</time><ele>657.2</ele></trkpt><trkpt lat="45.995104" lon="10.315854"><time>2025-04-28T09:54:54.000Z</time><ele>657.2</ele></trkpt><trkpt lat="45.995104" lon="10.315854"><time>2025-04-28T09:54:55.000Z</time><ele>657.2</ele></trkpt><trkpt lat="45.995105" lon="10.315854"><time>2025-04-28T09:54:56.000Z</time><ele>657.2</ele></trkpt><trkpt lat="45.995105" lon="10.315854"><time>2025-04-28T09:54:57.000Z</time><ele>657.2</ele></trkpt><trkpt lat="45.995105" lon="10.315854"><time>2025-04-28T09:54:58.000Z</time><ele>657.2</ele></trkpt><trkpt lat="45.995105" lon="10.315855"><time>2025-04-28T09:54:59.000Z</time><ele>657.2</ele></trkpt><trkpt lat="45.995105" lon="10.315855"><time>2025-04-28T09:55:00.000Z</time><ele>657.2</ele></trkpt><trkpt lat="45.995105" lon="10.315855"><time>2025-04-28T09:55:01.000Z</time><ele>657.2</ele></trkpt><trkpt lat="45.995105" lon="10.315855"><time>2025-04-28T09:55:02.000Z</time><ele>657.2</ele></trkpt><trkpt lat="45.995105" lon="10.315855"><time>2025-04-28T09:55:03.000Z</time><ele>657.2</ele></trkpt><trkpt lat="45.995105" lon="10.315855"><time>2025-04-28T09:55:04.000Z</time><ele>657.2</ele></trkpt><trkpt lat="45.995105" lon="10.315855"><time>2025-04-28T09:55:05.000Z</time><ele>657.2</ele></trkpt><trkpt lat="45.995105" lon="10.315855"><time>2025-04-28T09:55:06.000Z</time><ele>657.2</ele></trkpt><trkpt lat="45.995105" lon="10.315855"><time>2025-04-28T09:55:07.000Z</time><ele>657.2</ele></trkpt><trkpt lat="45.995105" lon="10.315855"><time>2025-04-28T09:55:08.000Z</time><ele>657.2</ele></trkpt><trkpt lat="45.995105" lon="10.315855"><time>2025-04-28T09:55:09.000Z</time><ele>657.2</ele></trkpt><trkpt lat="45.995105" lon="10.315855"><time>2025-04-28T09:55:10.000Z</time><ele>657.2</ele></trkpt><trkpt lat="45.995105" lon="10.315855"><time>2025-04-28T09:55:11.000Z</time><ele>657.2</ele></trkpt><trkpt lat="45.995105" lon="10.315855"><time>2025-04-28T09:55:12.000Z</time><ele>657.2</ele></trkpt><trkpt lat="45.995105" lon="10.315855"><time>2025-04-28T09:55:13.000Z</time><ele>657.2</ele></trkpt><trkpt lat="45.995105" lon="10.315855"><time>2025-04-28T09:55:14.000Z</time><ele>657.2</ele></trkpt><trkpt lat="45.995105" lon="10.315855"><time>2025-04-28T09:55:15.000Z</time><ele>657.2</ele></trkpt><trkpt lat="45.995105" lon="10.315855"><time>2025-04-28T09:55:16.000Z</time><ele>657.2</ele></trkpt><trkpt lat="45.995105" lon="10.315856"><time>2025-04-28T09:55:17.000Z</time><ele>657.2</ele></trkpt><trkpt lat="45.995105" lon="10.315856"><time>2025-04-28T09:55:18.000Z</time><ele>657.2</ele></trkpt><trkpt lat="45.995105" lon="10.315856"><time>2025-04-28T09:55:19.000Z</time><ele>657.2</ele></trkpt><trkpt lat="45.995105" lon="10.315856"><time>2025-04-28T09:55:20.000Z</time><ele>657.2</ele></trkpt><trkpt lat="45.995105" lon="10.315856"><time>2025-04-28T09:55:21.000Z</time><ele>657.2</ele></trkpt><trkpt lat="45.995105" lon="10.315856"><time>2025-04-28T09:55:22.000Z</time><ele>657.2</ele></trkpt><trkpt lat="45.995105" lon="10.315856"><time>2025-04-28T09:55:23.000Z</time><ele>657.2</ele></trkpt><trkpt lat="45.995105" lon="10.315856"><time>2025-04-28T09:55:24.000Z</time><ele>657.2</ele></trkpt><trkpt lat="45.995105" lon="10.315856"><time>2025-04-28T09:55:25.000Z</time><ele>657.2</ele></trkpt><trkpt lat="45.995105" lon="10.315856"><time>2025-04-28T09:55:26.000Z</time><ele>657.2</ele></trkpt><trkpt lat="45.995105" lon="10.315856"><time>2025-04-28T09:55:27.000Z</time><ele>657.2</ele></trkpt><trkpt lat="45.995105" lon="10.315855"><time>2025-04-28T09:55:28.000Z</time><ele>657.2</ele></trkpt><trkpt lat="45.995105" lon="10.315855"><time>2025-04-28T09:55:29.000Z</time><ele>657.2</ele></trkpt><trkpt lat="45.995105" lon="10.315856"><time>2025-04-28T09:55:30.000Z</time><ele>657.2</ele></trkpt><trkpt lat="45.995105" lon="10.315856"><time>2025-04-28T09:55:31.000Z</time><ele>657.2</ele></trkpt><trkpt lat="45.995105" lon="10.315856"><time>2025-04-28T09:55:32.000Z</time><ele>657.2</ele></trkpt><trkpt lat="45.995105" lon="10.315856"><time>2025-04-28T09:55:33.000Z</time><ele>657.2</ele></trkpt><trkpt lat="45.995105" lon="10.315856"><time>2025-04-28T09:55:34.000Z</time><ele>657.2</ele></trkpt><trkpt lat="45.995106" lon="10.315856"><time>2025-04-28T09:55:35.000Z</time><ele>657.2</ele></trkpt><trkpt lat="45.995106" lon="10.315856"><time>2025-04-28T09:55:36.000Z</time><ele>657.2</ele></trkpt><trkpt lat="45.995106" lon="10.315856"><time>2025-04-28T09:55:37.000Z</time><ele>657.2</ele></trkpt><trkpt lat="45.995105" lon="10.315856"><time>2025-04-28T09:55:38.000Z</time><ele>657.2</ele></trkpt><trkpt lat="45.995105" lon="10.315856"><time>2025-04-28T09:55:39.000Z</time><ele>657.2</ele></trkpt><trkpt lat="45.995105" lon="10.315856"><time>2025-04-28T09:55:40.000Z</time><ele>657.2</ele></trkpt><trkpt lat="45.995105" lon="10.315856"><time>2025-04-28T09:55:41.000Z</time><ele>657.2</ele></trkpt><trkpt lat="45.995105" lon="10.315857"><time>2025-04-28T09:55:42.000Z</time><ele>657.2</ele></trkpt><trkpt lat="45.995105" lon="10.315857"><time>2025-04-28T09:55:43.000Z</time><ele>657.2</ele></trkpt><trkpt lat="45.995105" lon="10.315857"><time>2025-04-28T09:55:44.000Z</time><ele>657.2</ele></trkpt><trkpt lat="45.995105" lon="10.315857"><time>2025-04-28T09:55:45.000Z</time><ele>657.2</ele></trkpt><trkpt lat="45.995105" lon="10.315857"><time>2025-04-28T09:55:46.000Z</time><ele>657.2</ele></trkpt><trkpt lat="45.995106" lon="10.315857"><time>2025-04-28T09:55:47.000Z</time><ele>657.2</ele></trkpt><trkpt lat="45.995106" lon="10.315857"><time>2025-04-28T09:55:48.000Z</time><ele>657.2</ele></trkpt><trkpt lat="45.995106" lon="10.315857"><time>2025-04-28T09:55:49.000Z</time><ele>657.2</ele></trkpt><trkpt lat="45.995106" lon="10.315857"><time>2025-04-28T09:55:50.000Z</time><ele>657.2</ele></trkpt><trkpt lat="45.995106" lon="10.315858"><time>2025-04-28T09:55:51.000Z</time><ele>657.2</ele></trkpt><trkpt lat="45.995106" lon="10.315858"><time>2025-04-28T09:55:52.000Z</time><ele>657.2</ele></trkpt><trkpt lat="45.995106" lon="10.315858"><time>2025-04-28T09:55:53.000Z</time><ele>657.2</ele></trkpt><trkpt lat="45.995106" lon="10.315858"><time>2025-04-28T09:55:54.000Z</time><ele>657.2</ele></trkpt><trkpt lat="45.995106" lon="10.315858"><time>2025-04-28T09:55:55.000Z</time><ele>657.2</ele></trkpt><trkpt lat="45.995106" lon="10.315858"><time>2025-04-28T09:55:56.000Z</time><ele>657.2</ele></trkpt><trkpt lat="45.995106" lon="10.315858"><time>2025-04-28T09:55:57.000Z</time><ele>657.2</ele></trkpt><trkpt lat="45.995106" lon="10.315858"><time>2025-04-28T09:55:58.000Z</time><ele>657.2</ele></trkpt><trkpt lat="45.995106" lon="10.315858"><time>2025-04-28T09:55:59.000Z</time><ele>657.2</ele></trkpt><trkpt lat="45.995106" lon="10.315858"><time>2025-04-28T09:56:00.000Z</time><ele>657.2</ele></trkpt><trkpt lat="45.995106" lon="10.315858"><time>2025-04-28T09:56:01.000Z</time><ele>657.2</ele></trkpt><trkpt lat="45.995106" lon="10.315858"><time>2025-04-28T09:56:02.000Z</time><ele>657.2</ele></trkpt><trkpt lat="45.995106" lon="10.315859"><time>2025-04-28T09:56:03.000Z</time><ele>657.2</ele></trkpt><trkpt lat="45.995106" lon="10.315858"><time>2025-04-28T09:56:04.000Z</time><ele>657.2</ele></trkpt><trkpt lat="45.995106" lon="10.315859"><time>2025-04-28T09:56:05.000Z</time><ele>657.2</ele></trkpt><trkpt lat="45.995106" lon="10.315859"><time>2025-04-28T09:56:06.000Z</time><ele>657.2</ele></trkpt><trkpt lat="45.995106" lon="10.315858"><time>2025-04-28T09:56:07.000Z</time><ele>657.2</ele></trkpt><trkpt lat="45.995106" lon="10.315858"><time>2025-04-28T09:56:08.000Z</time><ele>657.2</ele></trkpt><trkpt lat="45.995106" lon="10.315858"><time>2025-04-28T09:56:09.000Z</time><ele>657.2</ele></trkpt><trkpt lat="45.995106" lon="10.315858"><time>2025-04-28T09:56:10.000Z</time><ele>657.2</ele></trkpt><trkpt lat="45.995106" lon="10.315858"><time>2025-04-28T09:56:11.000Z</time><ele>657.2</ele></trkpt><trkpt lat="45.995106" lon="10.315858"><time>2025-04-28T09:56:12.000Z</time><ele>657.2</ele></trkpt><trkpt lat="45.995106" lon="10.315858"><time>2025-04-28T09:56:13.000Z</time><ele>657.2</ele></trkpt><trkpt lat="45.995106" lon="10.315858"><time>2025-04-28T09:56:14.000Z</time><ele>657.2</ele></trkpt><trkpt lat="45.995106" lon="10.315858"><time>2025-04-28T09:56:15.000Z</time><ele>657.2</ele></trkpt><trkpt lat="45.995106" lon="10.315858"><time>2025-04-28T09:56:16.000Z</time><ele>657.2</ele></trkpt><trkpt lat="45.995107" lon="10.315859"><time>2025-04-28T09:56:17.000Z</time><ele>657.2</ele></trkpt><trkpt lat="45.995107" lon="10.315859"><time>2025-04-28T09:56:18.000Z</time><ele>657.2</ele></trkpt><trkpt lat="45.995106" lon="10.315859"><time>2025-04-28T09:56:19.000Z</time><ele>657.2</ele></trkpt><trkpt lat="45.995106" lon="10.315859"><time>2025-04-28T09:56:20.000Z</time><ele>657.2</ele></trkpt><trkpt lat="45.995106" lon="10.315859"><time>2025-04-28T09:56:21.000Z</time><ele>657.2</ele></trkpt><trkpt lat="45.995106" lon="10.315859"><time>2025-04-28T09:56:22.000Z</time><ele>657.2</ele></trkpt><trkpt lat="45.995106" lon="10.315859"><time>2025-04-28T09:56:23.000Z</time><ele>657.2</ele></trkpt><trkpt lat="45.995106" lon="10.315859"><time>2025-04-28T09:56:24.000Z</time><ele>657.2</ele></trkpt><trkpt lat="45.995107" lon="10.315859"><time>2025-04-28T09:56:25.000Z</time><ele>657.2</ele></trkpt><trkpt lat="45.995107" lon="10.315859"><time>2025-04-28T09:56:26.000Z</time><ele>657.2</ele></trkpt><trkpt lat="45.995107" lon="10.315859"><time>2025-04-28T09:56:27.000Z</time><ele>657.2</ele></trkpt><trkpt lat="45.995107" lon="10.315859"><time>2025-04-28T09:56:28.000Z</time><ele>657.2</ele></trkpt><trkpt lat="45.995107" lon="10.315859"><time>2025-04-28T09:56:29.000Z</time><ele>657.2</ele></trkpt><trkpt lat="45.995107" lon="10.315859"><time>2025-04-28T09:56:30.000Z</time><ele>657.2</ele></trkpt><trkpt lat="45.995107" lon="10.315859"><time>2025-04-28T09:56:31.000Z</time><ele>657.2</ele></trkpt><trkpt lat="45.995107" lon="10.315859"><time>2025-04-28T09:56:32.000Z</time><ele>657.2</ele></trkpt><trkpt lat="45.995107" lon="10.315859"><time>2025-04-28T09:56:33.000Z</time><ele>657.2</ele></trkpt><trkpt lat="45.995107" lon="10.315859"><time>2025-04-28T09:56:34.000Z</time><ele>657.2</ele></trkpt><trkpt lat="45.995107" lon="10.315859"><time>2025-04-28T09:56:35.000Z</time><ele>657.2</ele></trkpt><trkpt lat="45.995107" lon="10.31586"><time>2025-04-28T09:56:36.000Z</time><ele>657.2</ele></trkpt><trkpt lat="45.995107" lon="10.31586"><time>2025-04-28T09:56:37.000Z</time><ele>657.2</ele></trkpt><trkpt lat="45.995107" lon="10.31586"><time>2025-04-28T09:56:38.000Z</time><ele>657.2</ele></trkpt><trkpt lat="45.995107" lon="10.31586"><time>2025-04-28T09:56:39.000Z</time><ele>657.2</ele></trkpt><trkpt lat="45.995107" lon="10.31586"><time>2025-04-28T09:56:40.000Z</time><ele>657.2</ele></trkpt><trkpt lat="45.995107" lon="10.31586"><time>2025-04-28T09:56:41.000Z</time><ele>657.2</ele></trkpt><trkpt lat="45.995107" lon="10.31586"><time>2025-04-28T09:56:42.000Z</time><ele>657.2</ele></trkpt><trkpt lat="45.995107" lon="10.31586"><time>2025-04-28T09:56:43.000Z</time><ele>657.2</ele></trkpt><trkpt lat="45.995107" lon="10.31586"><time>2025-04-28T09:56:44.000Z</time><ele>657.2</ele></trkpt><trkpt lat="45.995107" lon="10.31586"><time>2025-04-28T09:56:45.000Z</time><ele>657.2</ele></trkpt><trkpt lat="45.995107" lon="10.31586"><time>2025-04-28T09:56:46.000Z</time><ele>657.2</ele></trkpt><trkpt lat="45.995107" lon="10.31586"><time>2025-04-28T09:56:47.000Z</time><ele>657.2</ele></trkpt><trkpt lat="45.995107" lon="10.31586"><time>2025-04-28T09:56:48.000Z</time><ele>657.2</ele></trkpt><trkpt lat="45.995107" lon="10.31586"><time>2025-04-28T09:56:49.000Z</time><ele>657.2</ele></trkpt><trkpt lat="45.995107" lon="10.31586"><time>2025-04-28T09:56:50.000Z</time><ele>657.2</ele></trkpt><trkpt lat="45.995107" lon="10.31586"><time>2025-04-28T09:56:51.000Z</time><ele>657.2</ele></trkpt><trkpt lat="45.995107" lon="10.31586"><time>2025-04-28T09:56:52.000Z</time><ele>657.2</ele></trkpt><trkpt lat="45.995107" lon="10.31586"><time>2025-04-28T09:56:53.000Z</time><ele>657.2</ele></trkpt><trkpt lat="45.995107" lon="10.31586"><time>2025-04-28T09:56:54.000Z</time><ele>657.2</ele></trkpt><trkpt lat="45.995107" lon="10.31586"><time>2025-04-28T09:56:55.000Z</time><ele>657.2</ele></trkpt><trkpt lat="45.995107" lon="10.31586"><time>2025-04-28T09:56:56.000Z</time><ele>657.2</ele></trkpt><trkpt lat="45.995107" lon="10.31586"><time>2025-04-28T09:56:57.000Z</time><ele>657.2</ele></trkpt><trkpt lat="45.995107" lon="10.31586"><time>2025-04-28T09:56:58.000Z</time><ele>657.2</ele></trkpt><trkpt lat="45.995107" lon="10.31586"><time>2025-04-28T09:56:59.000Z</time><ele>657.2</ele></trkpt><trkpt lat="45.995107" lon="10.31586"><time>2025-04-28T09:57:00.000Z</time><ele>657.2</ele></trkpt><trkpt lat="45.995107" lon="10.31586"><time>2025-04-28T09:57:01.000Z</time><ele>657.2</ele></trkpt><trkpt lat="45.995107" lon="10.31586"><time>2025-04-28T09:57:02.000Z</time><ele>657.2</ele></trkpt><trkpt lat="45.995107" lon="10.31586"><time>2025-04-28T09:57:03.000Z</time><ele>657.2</ele></trkpt><trkpt lat="45.995107" lon="10.31586"><time>2025-04-28T09:57:04.000Z</time><ele>657.2</ele></trkpt><trkpt lat="45.995107" lon="10.31586"><time>2025-04-28T09:57:05.000Z</time><ele>657.2</ele></trkpt><trkpt lat="45.995107" lon="10.31586"><time>2025-04-28T09:57:06.000Z</time><ele>657.2</ele></trkpt><trkpt lat="45.995107" lon="10.31586"><time>2025-04-28T09:57:07.000Z</time><ele>657.2</ele></trkpt><trkpt lat="45.995107" lon="10.31586"><time>2025-04-28T09:57:08.000Z</time><ele>657.2</ele></trkpt><trkpt lat="45.995107" lon="10.31586"><time>2025-04-28T09:57:09.000Z</time><ele>657.2</ele></trkpt><trkpt lat="45.995107" lon="10.31586"><time>2025-04-28T09:57:10.000Z</time><ele>657.2</ele></trkpt><trkpt lat="45.995107" lon="10.31586"><time>2025-04-28T09:57:11.000Z</time><ele>657.2</ele></trkpt><trkpt lat="45.995107" lon="10.31586"><time>2025-04-28T09:57:12.000Z</time><ele>657.2</ele></trkpt><trkpt lat="45.995107" lon="10.31586"><time>2025-04-28T09:57:13.000Z</time><ele>657.2</ele></trkpt><trkpt lat="45.995107" lon="10.31586"><time>2025-04-28T09:57:14.000Z</time><ele>657.2</ele></trkpt><trkpt lat="45.995107" lon="10.31586"><time>2025-04-28T09:57:15.000Z</time><ele>657.2</ele></trkpt><trkpt lat="45.995107" lon="10.31586"><time>2025-04-28T09:57:16.000Z</time><ele>657.2</ele></trkpt><trkpt lat="45.995107" lon="10.31586"><time>2025-04-28T09:57:17.000Z</time><ele>657.2</ele></trkpt><trkpt lat="45.995107" lon="10.31586"><time>2025-04-28T09:57:18.000Z</time><ele>657.2</ele></trkpt><trkpt lat="45.995107" lon="10.31586"><time>2025-04-28T09:57:19.000Z</time><ele>657.2</ele></trkpt><trkpt lat="45.995107" lon="10.31586"><time>2025-04-28T09:57:20.000Z</time><ele>657.2</ele></trkpt><trkpt lat="45.995107" lon="10.31586"><time>2025-04-28T09:57:21.000Z</time><ele>657.2</ele></trkpt><trkpt lat="45.995107" lon="10.31586"><time>2025-04-28T09:57:22.000Z</time><ele>657.2</ele></trkpt><trkpt lat="45.995107" lon="10.31586"><time>2025-04-28T09:57:23.000Z</time><ele>657.2</ele></trkpt><trkpt lat="45.995107" lon="10.31586"><time>2025-04-28T09:57:24.000Z</time><ele>657.2</ele></trkpt><trkpt lat="45.995107" lon="10.31586"><time>2025-04-28T09:57:25.000Z</time><ele>657.2</ele></trkpt><trkpt lat="45.995107" lon="10.31586"><time>2025-04-28T09:57:26.000Z</time><ele>657.2</ele></trkpt><trkpt lat="45.995107" lon="10.31586"><time>2025-04-28T09:57:27.000Z</time><ele>657.2</ele></trkpt><trkpt lat="45.995107" lon="10.31586"><time>2025-04-28T09:57:28.000Z</time><ele>657.2</ele></trkpt><trkpt lat="45.995107" lon="10.31586"><time>2025-04-28T09:57:29.000Z</time><ele>657.2</ele></trkpt><trkpt lat="45.995107" lon="10.31586"><time>2025-04-28T09:57:30.000Z</time><ele>657.2</ele></trkpt><trkpt lat="45.995107" lon="10.31586"><time>2025-04-28T09:57:31.000Z</time><ele>657.2</ele></trkpt><trkpt lat="45.995107" lon="10.31586"><time>2025-04-28T09:57:32.000Z</time><ele>657.2</ele></trkpt><trkpt lat="45.995107" lon="10.31586"><time>2025-04-28T09:57:33.000Z</time><ele>657.2</ele></trkpt><trkpt lat="45.995107" lon="10.31586"><time>2025-04-28T09:57:34.000Z</time><ele>657.2</ele></trkpt><trkpt lat="45.995107" lon="10.31586"><time>2025-04-28T09:57:35.000Z</time><ele>657.2</ele></trkpt><trkpt lat="45.995107" lon="10.31586"><time>2025-04-28T09:57:36.000Z</time><ele>657.2</ele></trkpt><trkpt lat="45.995107" lon="10.31586"><time>2025-04-28T09:57:37.000Z</time><ele>657.2</ele></trkpt><trkpt lat="45.995107" lon="10.31586"><time>2025-04-28T09:57:38.000Z</time><ele>657.2</ele></trkpt><trkpt lat="45.995107" lon="10.31586"><time>2025-04-28T09:57:39.000Z</time><ele>657.2</ele></trkpt><trkpt lat="45.995107" lon="10.31586"><time>2025-04-28T09:57:40.000Z</time><ele>657.2</ele></trkpt><trkpt lat="45.995107" lon="10.31586"><time>2025-04-28T09:57:41.000Z</time><ele>657.2</ele></trkpt><trkpt lat="45.995107" lon="10.31586"><time>2025-04-28T09:57:42.000Z</time><ele>657.2</ele></trkpt><trkpt lat="45.995107" lon="10.31586"><time>2025-04-28T09:57:43.000Z</time><ele>657.2</ele></trkpt><trkpt lat="45.995107" lon="10.31586"><time>2025-04-28T09:57:44.000Z</time><ele>657.2</ele></trkpt><trkpt lat="45.995107" lon="10.31586"><time>2025-04-28T09:57:45.000Z</time><ele>657.2</ele></trkpt><trkpt lat="45.995107" lon="10.31586"><time>2025-04-28T09:57:46.000Z</time><ele>657.2</ele></trkpt><trkpt lat="45.995107" lon="10.31586"><time>2025-04-28T09:57:47.000Z</time><ele>657.2</ele></trkpt><trkpt lat="45.995107" lon="10.31586"><time>2025-04-28T09:57:48.000Z</time><ele>657.2</ele></trkpt><trkpt lat="45.995107" lon="10.31586"><time>2025-04-28T09:57:49.000Z</time><ele>657.2</ele></trkpt><trkpt lat="45.995107" lon="10.31586"><time>2025-04-28T09:57:50.000Z</time><ele>657.2</ele></trkpt><trkpt lat="45.995107" lon="10.31586"><time>2025-04-28T09:57:51.000Z</time><ele>657.2</ele></trkpt><trkpt lat="45.995107" lon="10.31586"><time>2025-04-28T09:57:52.000Z</time><ele>657.2</ele></trkpt><trkpt lat="45.995107" lon="10.31586"><time>2025-04-28T09:57:53.000Z</time><ele>657.2</ele></trkpt><trkpt lat="45.995107" lon="10.31586"><time>2025-04-28T09:57:54.000Z</time><ele>657.2</ele></trkpt><trkpt lat="45.995107" lon="10.31586"><time>2025-04-28T09:57:55.000Z</time><ele>657.2</ele></trkpt><trkpt lat="45.995107" lon="10.31586"><time>2025-04-28T09:57:56.000Z</time><ele>657.2</ele></trkpt><trkpt lat="45.995107" lon="10.315861"><time>2025-04-28T09:57:57.000Z</time><ele>657.2</ele></trkpt><trkpt lat="45.995107" lon="10.315861"><time>2025-04-28T09:57:58.000Z</time><ele>657.2</ele></trkpt><trkpt lat="45.995107" lon="10.315861"><time>2025-04-28T09:57:59.000Z</time><ele>657.2</ele></trkpt><trkpt lat="45.995107" lon="10.315861"><time>2025-04-28T09:58:00.000Z</time><ele>657.2</ele></trkpt><trkpt lat="45.995107" lon="10.315861"><time>2025-04-28T09:58:01.000Z</time><ele>657.2</ele></trkpt><trkpt lat="45.995107" lon="10.315861"><time>2025-04-28T09:58:02.000Z</time><ele>657.2</ele></trkpt><trkpt lat="45.995107" lon="10.315861"><time>2025-04-28T09:58:03.000Z</time><ele>657.2</ele></trkpt><trkpt lat="45.995107" lon="10.315861"><time>2025-04-28T09:58:04.000Z</time><ele>657.2</ele></trkpt><trkpt lat="45.995107" lon="10.315861"><time>2025-04-28T09:58:05.000Z</time><ele>657.2</ele></trkpt><trkpt lat="45.995107" lon="10.315861"><time>2025-04-28T09:58:06.000Z</time><ele>657.2</ele></trkpt><trkpt lat="45.995107" lon="10.315861"><time>2025-04-28T09:58:07.000Z</time><ele>657.2</ele></trkpt><trkpt lat="45.995107" lon="10.315861"><time>2025-04-28T09:58:08.000Z</time><ele>657.2</ele></trkpt><trkpt lat="45.995107" lon="10.315861"><time>2025-04-28T09:58:09.000Z</time><ele>657.2</ele></trkpt><trkpt lat="45.995107" lon="10.315861"><time>2025-04-28T09:58:10.000Z</time><ele>657.2</ele></trkpt><trkpt lat="45.995107" lon="10.315861"><time>2025-04-28T09:58:11.000Z</time><ele>657.2</ele></trkpt><trkpt lat="45.995107" lon="10.315861"><time>2025-04-28T09:58:12.000Z</time><ele>657.2</ele></trkpt><trkpt lat="45.995107" lon="10.315861"><time>2025-04-28T09:58:13.000Z</time><ele>657.2</ele></trkpt><trkpt lat="45.995107" lon="10.315861"><time>2025-04-28T09:58:14.000Z</time><ele>657.2</ele></trkpt><trkpt lat="45.995107" lon="10.315861"><time>2025-04-28T09:58:15.000Z</time><ele>657.2</ele></trkpt><trkpt lat="45.995107" lon="10.315862"><time>2025-04-28T09:58:16.000Z</time><ele>657.2</ele></trkpt><trkpt lat="45.995107" lon="10.315862"><time>2025-04-28T09:58:17.000Z</time><ele>657.2</ele></trkpt><trkpt lat="45.995107" lon="10.315862"><time>2025-04-28T09:58:18.000Z</time><ele>657.2</ele></trkpt><trkpt lat="45.995107" lon="10.315862"><time>2025-04-28T09:58:19.000Z</time><ele>657.2</ele></trkpt><trkpt lat="45.995107" lon="10.315862"><time>2025-04-28T09:58:20.000Z</time><ele>657.2</ele></trkpt><trkpt lat="45.995107" lon="10.315862"><time>2025-04-28T09:58:21.000Z</time><ele>657.2</ele></trkpt><trkpt lat="45.995107" lon="10.315862"><time>2025-04-28T09:58:22.000Z</time><ele>657.2</ele></trkpt><trkpt lat="45.995107" lon="10.315862"><time>2025-04-28T09:58:23.000Z</time><ele>657.2</ele></trkpt><trkpt lat="45.995107" lon="10.315863"><time>2025-04-28T09:58:24.000Z</time><ele>657.2</ele></trkpt><trkpt lat="45.995107" lon="10.315863"><time>2025-04-28T09:58:25.000Z</time><ele>657.2</ele></trkpt><trkpt lat="45.995107" lon="10.315863"><time>2025-04-28T09:58:26.000Z</time><ele>657.2</ele></trkpt><trkpt lat="45.995107" lon="10.315863"><time>2025-04-28T09:58:27.000Z</time><ele>657.2</ele></trkpt><trkpt lat="45.995107" lon="10.315863"><time>2025-04-28T09:58:28.000Z</time><ele>657.2</ele></trkpt><trkpt lat="45.995107" lon="10.315863"><time>2025-04-28T09:58:29.000Z</time><ele>657.2</ele></trkpt><trkpt lat="45.995107" lon="10.315863"><time>2025-04-28T09:58:30.000Z</time><ele>657.2</ele></trkpt><trkpt lat="45.995107" lon="10.315863"><time>2025-04-28T09:58:31.000Z</time><ele>657.2</ele></trkpt><trkpt lat="45.995107" lon="10.315863"><time>2025-04-28T09:58:32.000Z</time><ele>657.2</ele></trkpt><trkpt lat="45.995107" lon="10.315863"><time>2025-04-28T09:58:33.000Z</time><ele>657.2</ele></trkpt><trkpt lat="45.995107" lon="10.315863"><time>2025-04-28T09:58:34.000Z</time><ele>657.2</ele></trkpt><trkpt lat="45.995107" lon="10.315863"><time>2025-04-28T09:58:35.000Z</time><ele>657.2</ele></trkpt><trkpt lat="45.995107" lon="10.315863"><time>2025-04-28T09:58:36.000Z</time><ele>657.2</ele></trkpt><trkpt lat="45.995107" lon="10.315863"><time>2025-04-28T09:58:37.000Z</time><ele>657.2</ele></trkpt><trkpt lat="45.995107" lon="10.315863"><time>2025-04-28T09:58:38.000Z</time><ele>657.2</ele></trkpt><trkpt lat="45.995107" lon="10.315863"><time>2025-04-28T09:58:39.000Z</time><ele>657.2</ele></trkpt><trkpt lat="45.995107" lon="10.315863"><time>2025-04-28T09:58:40.000Z</time><ele>657.2</ele></trkpt><trkpt lat="45.995107" lon="10.315863"><time>2025-04-28T09:58:41.000Z</time><ele>657.2</ele></trkpt><trkpt lat="45.995107" lon="10.315863"><time>2025-04-28T09:58:42.000Z</time><ele>657.2</ele></trkpt><trkpt lat="45.995107" lon="10.315863"><time>2025-04-28T09:58:43.000Z</time><ele>657.2</ele></trkpt><trkpt lat="45.995107" lon="10.315863"><time>2025-04-28T09:58:44.000Z</time><ele>657.2</ele></trkpt><trkpt lat="45.995107" lon="10.315863"><time>2025-04-28T09:58:45.000Z</time><ele>657.2</ele></trkpt><trkpt lat="45.995107" lon="10.315863"><time>2025-04-28T09:58:46.000Z</time><ele>657.2</ele></trkpt><trkpt lat="45.995107" lon="10.315863"><time>2025-04-28T09:58:47.000Z</time><ele>657.2</ele></trkpt><trkpt lat="45.995107" lon="10.315863"><time>2025-04-28T09:58:48.000Z</time><ele>657.2</ele></trkpt><trkpt lat="45.995107" lon="10.315863"><time>2025-04-28T09:58:49.000Z</time><ele>657.2</ele></trkpt><trkpt lat="45.995107" lon="10.315863"><time>2025-04-28T09:58:50.000Z</time><ele>657.2</ele></trkpt><trkpt lat="45.995107" lon="10.315863"><time>2025-04-28T09:58:51.000Z</time><ele>657.2</ele></trkpt><trkpt lat="45.995107" lon="10.315864"><time>2025-04-28T09:58:52.000Z</time><ele>657.2</ele></trkpt><trkpt lat="45.995107" lon="10.315864"><time>2025-04-28T09:58:53.000Z</time><ele>657.2</ele></trkpt><trkpt lat="45.995107" lon="10.315864"><time>2025-04-28T09:58:54.000Z</time><ele>657.2</ele></trkpt><trkpt lat="45.995107" lon="10.315864"><time>2025-04-28T09:58:55.000Z</time><ele>657.2</ele></trkpt><trkpt lat="45.995107" lon="10.315864"><time>2025-04-28T09:58:56.000Z</time><ele>657.2</ele></trkpt><trkpt lat="45.995107" lon="10.315864"><time>2025-04-28T09:58:57.000Z</time><ele>657.2</ele></trkpt><trkpt lat="45.995107" lon="10.315864"><time>2025-04-28T09:58:58.000Z</time><ele>657.2</ele></trkpt><trkpt lat="45.995107" lon="10.315864"><time>2025-04-28T09:58:59.000Z</time><ele>657.2</ele></trkpt><trkpt lat="45.995107" lon="10.315864"><time>2025-04-28T09:59:00.000Z</time><ele>657.2</ele></trkpt><trkpt lat="45.995107" lon="10.315864"><time>2025-04-28T09:59:01.000Z</time><ele>657.2</ele></trkpt><trkpt lat="45.995107" lon="10.315864"><time>2025-04-28T09:59:02.000Z</time><ele>657.2</ele></trkpt><trkpt lat="45.995107" lon="10.315864"><time>2025-04-28T09:59:03.000Z</time><ele>657.2</ele></trkpt><trkpt lat="45.995107" lon="10.315864"><time>2025-04-28T09:59:04.000Z</time><ele>657.2</ele></trkpt><trkpt lat="45.995107" lon="10.315864"><time>2025-04-28T09:59:05.000Z</time><ele>657.2</ele></trkpt><trkpt lat="45.995107" lon="10.315864"><time>2025-04-28T09:59:06.000Z</time><ele>657.2</ele></trkpt><trkpt lat="45.995107" lon="10.315864"><time>2025-04-28T09:59:07.000Z</time><ele>657.2</ele></trkpt><trkpt lat="45.995107" lon="10.315864"><time>2025-04-28T09:59:08.000Z</time><ele>657.2</ele></trkpt><trkpt lat="45.995107" lon="10.315864"><time>2025-04-28T09:59:09.000Z</time><ele>657.2</ele></trkpt><trkpt lat="45.995107" lon="10.315864"><time>2025-04-28T09:59:10.000Z</time><ele>657.2</ele></trkpt><trkpt lat="45.995107" lon="10.315864"><time>2025-04-28T09:59:11.000Z</time><ele>657.2</ele></trkpt><trkpt lat="45.995107" lon="10.315864"><time>2025-04-28T09:59:12.000Z</time><ele>657.2</ele></trkpt><trkpt lat="45.995107" lon="10.315864"><time>2025-04-28T09:59:13.000Z</time><ele>657.2</ele></trkpt><trkpt lat="45.995107" lon="10.315864"><time>2025-04-28T09:59:14.000Z</time><ele>657.2</ele></trkpt><trkpt lat="45.995107" lon="10.315864"><time>2025-04-28T09:59:15.000Z</time><ele>657.2</ele></trkpt><trkpt lat="45.995107" lon="10.315864"><time>2025-04-28T09:59:16.000Z</time><ele>657.2</ele></trkpt><trkpt lat="45.995107" lon="10.315864"><time>2025-04-28T09:59:17.000Z</time><ele>657.2</ele></trkpt><trkpt lat="45.995107" lon="10.315865"><time>2025-04-28T09:59:18.000Z</time><ele>657.2</ele></trkpt><trkpt lat="45.995107" lon="10.315865"><time>2025-04-28T09:59:19.000Z</time><ele>657.2</ele></trkpt><trkpt lat="45.995107" lon="10.315864"><time>2025-04-28T09:59:20.000Z</time><ele>657.2</ele></trkpt><trkpt lat="45.995107" lon="10.315864"><time>2025-04-28T09:59:21.000Z</time><ele>657.2</ele></trkpt><trkpt lat="45.995107" lon="10.315864"><time>2025-04-28T09:59:22.000Z</time><ele>657.2</ele></trkpt><trkpt lat="45.995107" lon="10.315864"><time>2025-04-28T09:59:23.000Z</time><ele>657.2</ele></trkpt><trkpt lat="45.995107" lon="10.315864"><time>2025-04-28T09:59:24.000Z</time><ele>657.2</ele></trkpt><trkpt lat="45.995107" lon="10.315864"><time>2025-04-28T09:59:25.000Z</time><ele>657.2</ele></trkpt><trkpt lat="45.995107" lon="10.315864"><time>2025-04-28T09:59:26.000Z</time><ele>657.2</ele></trkpt><trkpt lat="45.995107" lon="10.315865"><time>2025-04-28T09:59:27.000Z</time><ele>657.2</ele></trkpt><trkpt lat="45.995107" lon="10.315865"><time>2025-04-28T09:59:28.000Z</time><ele>657.2</ele></trkpt><trkpt lat="45.995107" lon="10.315865"><time>2025-04-28T09:59:29.000Z</time><ele>657.2</ele></trkpt><trkpt lat="45.995107" lon="10.315864"><time>2025-04-28T09:59:30.000Z</time><ele>657.2</ele></trkpt><trkpt lat="45.995107" lon="10.315864"><time>2025-04-28T09:59:31.000Z</time><ele>657.2</ele></trkpt><trkpt lat="45.995107" lon="10.315864"><time>2025-04-28T09:59:32.000Z</time><ele>657.2</ele></trkpt><trkpt lat="45.995107" lon="10.315865"><time>2025-04-28T09:59:33.000Z</time><ele>657.2</ele></trkpt><trkpt lat="45.995107" lon="10.315865"><time>2025-04-28T09:59:34.000Z</time><ele>657.2</ele></trkpt><trkpt lat="45.995107" lon="10.315865"><time>2025-04-28T09:59:35.000Z</time><ele>657.2</ele></trkpt><trkpt lat="45.995107" lon="10.315865"><time>2025-04-28T09:59:36.000Z</time><ele>657.2</ele></trkpt><trkpt lat="45.995107" lon="10.315865"><time>2025-04-28T09:59:37.000Z</time><ele>657.2</ele></trkpt><trkpt lat="45.995107" lon="10.315865"><time>2025-04-28T09:59:38.000Z</time><ele>657.2</ele></trkpt><trkpt lat="45.995107" lon="10.315865"><time>2025-04-28T09:59:39.000Z</time><ele>657.2</ele></trkpt><trkpt lat="45.995107" lon="10.315864"><time>2025-04-28T09:59:40.000Z</time><ele>657.2</ele></trkpt><trkpt lat="45.995107" lon="10.315864"><time>2025-04-28T09:59:41.000Z</time><ele>657.2</ele></trkpt><trkpt lat="45.995107" lon="10.315865"><time>2025-04-28T09:59:42.000Z</time><ele>657.2</ele></trkpt><trkpt lat="45.995107" lon="10.315865"><time>2025-04-28T09:59:43.000Z</time><ele>657.2</ele></trkpt><trkpt lat="45.995107" lon="10.315865"><time>2025-04-28T09:59:44.000Z</time><ele>657.2</ele></trkpt><trkpt lat="45.995107" lon="10.315865"><time>2025-04-28T09:59:45.000Z</time><ele>657.2</ele></trkpt><trkpt lat="45.995107" lon="10.315865"><time>2025-04-28T09:59:46.000Z</time><ele>657.2</ele></trkpt><trkpt lat="45.995107" lon="10.315865"><time>2025-04-28T09:59:47.000Z</time><ele>657.2</ele></trkpt><trkpt lat="45.995107" lon="10.315865"><time>2025-04-28T09:59:48.000Z</time><ele>657.2</ele></trkpt><trkpt lat="45.995107" lon="10.315865"><time>2025-04-28T09:59:49.000Z</time><ele>657.2</ele></trkpt><trkpt lat="45.995107" lon="10.315865"><time>2025-04-28T09:59:50.000Z</time><ele>657.2</ele></trkpt><trkpt lat="45.995107" lon="10.315865"><time>2025-04-28T09:59:51.000Z</time><ele>657.2</ele></trkpt><trkpt lat="45.995107" lon="10.315865"><time>2025-04-28T09:59:52.000Z</time><ele>657.2</ele></trkpt><trkpt lat="45.995107" lon="10.315866"><time>2025-04-28T09:59:53.000Z</time><ele>657.2</ele></trkpt><trkpt lat="45.995107" lon="10.315866"><time>2025-04-28T09:59:54.000Z</time><ele>657.2</ele></trkpt><trkpt lat="45.995107" lon="10.315866"><time>2025-04-28T09:59:55.000Z</time><ele>657.2</ele></trkpt><trkpt lat="45.995107" lon="10.315866"><time>2025-04-28T09:59:56.000Z</time><ele>657.2</ele></trkpt><trkpt lat="45.995107" lon="10.315866"><time>2025-04-28T09:59:57.000Z</time><ele>657.2</ele></trkpt><trkpt lat="45.995107" lon="10.315867"><time>2025-04-28T09:59:58.000Z</time><ele>657.2</ele></trkpt><trkpt lat="45.995107" lon="10.315867"><time>2025-04-28T09:59:59.000Z</time><ele>657.2</ele></trkpt><trkpt lat="45.995107" lon="10.315867"><time>2025-04-28T10:00:00.000Z</time><ele>657.2</ele></trkpt><trkpt lat="45.995107" lon="10.315867"><time>2025-04-28T10:00:01.000Z</time><ele>657.2</ele></trkpt><trkpt lat="45.995107" lon="10.315867"><time>2025-04-28T10:00:02.000Z</time><ele>657.2</ele></trkpt><trkpt lat="45.995107" lon="10.315867"><time>2025-04-28T10:00:03.000Z</time><ele>657.2</ele></trkpt><trkpt lat="45.995107" lon="10.315868"><time>2025-04-28T10:00:04.000Z</time><ele>657.2</ele></trkpt><trkpt lat="45.995107" lon="10.315868"><time>2025-04-28T10:00:05.000Z</time><ele>657.2</ele></trkpt><trkpt lat="45.995107" lon="10.315868"><time>2025-04-28T10:00:06.000Z</time><ele>657.2</ele></trkpt><trkpt lat="45.995107" lon="10.315868"><time>2025-04-28T10:00:07.000Z</time><ele>657.2</ele></trkpt><trkpt lat="45.995107" lon="10.315868"><time>2025-04-28T10:00:08.000Z</time><ele>657.2</ele></trkpt><trkpt lat="45.995107" lon="10.315868"><time>2025-04-28T10:00:09.000Z</time><ele>657.2</ele></trkpt><trkpt lat="45.995107" lon="10.315868"><time>2025-04-28T10:00:10.000Z</time><ele>657.2</ele></trkpt><trkpt lat="45.995107" lon="10.315868"><time>2025-04-28T10:00:11.000Z</time><ele>657.2</ele></trkpt><trkpt lat="45.995107" lon="10.315868"><time>2025-04-28T10:00:12.000Z</time><ele>657.2</ele></trkpt><trkpt lat="45.995107" lon="10.315868"><time>2025-04-28T10:00:13.000Z</time><ele>657.2</ele></trkpt><trkpt lat="45.995107" lon="10.315868"><time>2025-04-28T10:00:14.000Z</time><ele>657.2</ele></trkpt><trkpt lat="45.995107" lon="10.315868"><time>2025-04-28T10:00:15.000Z</time><ele>657.2</ele></trkpt><trkpt lat="45.995107" lon="10.315868"><time>2025-04-28T10:00:16.000Z</time><ele>657.2</ele></trkpt><trkpt lat="45.995107" lon="10.315868"><time>2025-04-28T10:00:17.000Z</time><ele>657.2</ele></trkpt><trkpt lat="45.995107" lon="10.315869"><time>2025-04-28T10:00:18.000Z</time><ele>657.2</ele></trkpt><trkpt lat="45.995107" lon="10.315869"><time>2025-04-28T10:00:19.000Z</time><ele>657.2</ele></trkpt><trkpt lat="45.995107" lon="10.315869"><time>2025-04-28T10:00:20.000Z</time><ele>657.2</ele></trkpt><trkpt lat="45.995107" lon="10.315885"><time>2025-04-28T10:00:21.000Z</time><ele>657.2</ele></trkpt><trkpt lat="45.995114" lon="10.315911"><time>2025-04-28T10:00:22.000Z</time><ele>657.2</ele></trkpt><trkpt lat="45.995119" lon="10.315935"><time>2025-04-28T10:00:23.000Z</time><ele>657.2</ele></trkpt><trkpt lat="45.995122" lon="10.315962"><time>2025-04-28T10:00:24.000Z</time><ele>657.2</ele></trkpt><trkpt lat="45.995126" lon="10.315994"><time>2025-04-28T10:00:25.000Z</time><ele>657.2</ele></trkpt><trkpt lat="45.995131" lon="10.316024"><time>2025-04-28T10:00:26.000Z</time><ele>657.2</ele></trkpt><trkpt lat="45.995135" lon="10.316055"><time>2025-04-28T10:00:27.000Z</time><ele>657.2</ele></trkpt><trkpt lat="45.995138" lon="10.316083"><time>2025-04-28T10:00:28.000Z</time><ele>657.2</ele></trkpt><trkpt lat="45.995144" lon="10.316112"><time>2025-04-28T10:00:29.000Z</time><ele>656</ele></trkpt><trkpt lat="45.995149" lon="10.31614"><time>2025-04-28T10:00:30.000Z</time><ele>655.2</ele></trkpt><trkpt lat="45.995156" lon="10.316151"><time>2025-04-28T10:00:31.000Z</time><ele>654.8</ele></trkpt><trkpt lat="45.995161" lon="10.316161"><time>2025-04-28T10:00:32.000Z</time><ele>654.6</ele></trkpt><trkpt lat="45.995169" lon="10.316172"><time>2025-04-28T10:00:33.000Z</time><ele>654.4</ele></trkpt><trkpt lat="45.995177" lon="10.316182"><time>2025-04-28T10:00:34.000Z</time><ele>654.2</ele></trkpt><trkpt lat="45.995185" lon="10.31619"><time>2025-04-28T10:00:35.000Z</time><ele>654</ele></trkpt><trkpt lat="45.995195" lon="10.316198"><time>2025-04-28T10:00:36.000Z</time><ele>653.8</ele></trkpt><trkpt lat="45.995205" lon="10.316203"><time>2025-04-28T10:00:37.000Z</time><ele>653.8</ele></trkpt><trkpt lat="45.995212" lon="10.316213"><time>2025-04-28T10:00:38.000Z</time><ele>653.6</ele></trkpt><trkpt lat="45.995223" lon="10.316218"><time>2025-04-28T10:00:39.000Z</time><ele>653.4</ele></trkpt><trkpt lat="45.995233" lon="10.316224"><time>2025-04-28T10:00:40.000Z</time><ele>653.2</ele></trkpt><trkpt lat="45.995246" lon="10.316227"><time>2025-04-28T10:00:41.000Z</time><ele>653.2</ele></trkpt><trkpt lat="45.99525" lon="10.316228"><time>2025-04-28T10:00:42.000Z</time><ele>653.2</ele></trkpt><trkpt lat="45.995256" lon="10.316224"><time>2025-04-28T10:00:43.000Z</time><ele>653</ele></trkpt><trkpt lat="45.995261" lon="10.316217"><time>2025-04-28T10:00:44.000Z</time><ele>653</ele></trkpt><trkpt lat="45.995266" lon="10.316209"><time>2025-04-28T10:00:45.000Z</time><ele>653</ele></trkpt><trkpt lat="45.995274" lon="10.316201"><time>2025-04-28T10:00:46.000Z</time><ele>652.8</ele></trkpt><trkpt lat="45.995282" lon="10.316187"><time>2025-04-28T10:00:47.000Z</time><ele>652.8</ele></trkpt><trkpt lat="45.995295" lon="10.316172"><time>2025-04-28T10:00:48.000Z</time><ele>652.8</ele></trkpt><trkpt lat="45.995307" lon="10.316157"><time>2025-04-28T10:00:49.000Z</time><ele>652.6</ele></trkpt><trkpt lat="45.99532" lon="10.316143"><time>2025-04-28T10:00:50.000Z</time><ele>652.2</ele></trkpt><trkpt lat="45.995331" lon="10.316133"><time>2025-04-28T10:00:51.000Z</time><ele>651.8</ele></trkpt><trkpt lat="45.995344" lon="10.316127"><time>2025-04-28T10:00:52.000Z</time><ele>651.6</ele></trkpt><trkpt lat="45.995356" lon="10.316114"><time>2025-04-28T10:00:53.000Z</time><ele>651.4</ele></trkpt><trkpt lat="45.995366" lon="10.316103"><time>2025-04-28T10:00:54.000Z</time><ele>651.2</ele></trkpt><trkpt lat="45.995376" lon="10.316094"><time>2025-04-28T10:00:55.000Z</time><ele>651</ele></trkpt><trkpt lat="45.995388" lon="10.316086"><time>2025-04-28T10:00:56.000Z</time><ele>650.8</ele></trkpt><trkpt lat="45.995397" lon="10.316079"><time>2025-04-28T10:00:57.000Z</time><ele>650.6</ele></trkpt><trkpt lat="45.995408" lon="10.316075"><time>2025-04-28T10:00:58.000Z</time><ele>650.4</ele></trkpt><trkpt lat="45.995418" lon="10.316073"><time>2025-04-28T10:00:59.000Z</time><ele>650.2</ele></trkpt><trkpt lat="45.99543" lon="10.316068"><time>2025-04-28T10:01:00.000Z</time><ele>650.2</ele></trkpt><trkpt lat="45.995443" lon="10.31606"><time>2025-04-28T10:01:01.000Z</time><ele>650.2</ele></trkpt><trkpt lat="45.995453" lon="10.316051"><time>2025-04-28T10:01:02.000Z</time><ele>650</ele></trkpt><trkpt lat="45.995465" lon="10.316046"><time>2025-04-28T10:01:03.000Z</time><ele>650</ele></trkpt><trkpt lat="45.995476" lon="10.316038"><time>2025-04-28T10:01:04.000Z</time><ele>649.8</ele></trkpt><trkpt lat="45.995486" lon="10.316031"><time>2025-04-28T10:01:05.000Z</time><ele>649.8</ele></trkpt><trkpt lat="45.995498" lon="10.316029"><time>2025-04-28T10:01:06.000Z</time><ele>649.6</ele></trkpt><trkpt lat="45.995509" lon="10.316028"><time>2025-04-28T10:01:07.000Z</time><ele>649.4</ele></trkpt><trkpt lat="45.99552" lon="10.316022"><time>2025-04-28T10:01:08.000Z</time><ele>649.2</ele></trkpt><trkpt lat="45.995531" lon="10.316015"><time>2025-04-28T10:01:09.000Z</time><ele>649.2</ele></trkpt><trkpt lat="45.995544" lon="10.316011"><time>2025-04-28T10:01:10.000Z</time><ele>649</ele></trkpt><trkpt lat="45.995553" lon="10.316006"><time>2025-04-28T10:01:11.000Z</time><ele>649</ele></trkpt><trkpt lat="45.995563" lon="10.316003"><time>2025-04-28T10:01:12.000Z</time><ele>648.8</ele></trkpt><trkpt lat="45.995567" lon="10.315998"><time>2025-04-28T10:01:13.000Z</time><ele>648.8</ele></trkpt><trkpt lat="45.99557" lon="10.315999"><time>2025-04-28T10:01:14.000Z</time><ele>648.6</ele></trkpt><trkpt lat="45.995575" lon="10.316003"><time>2025-04-28T10:01:15.000Z</time><ele>648.2</ele></trkpt><trkpt lat="45.995584" lon="10.316013"><time>2025-04-28T10:01:16.000Z</time><ele>648</ele></trkpt><trkpt lat="45.995595" lon="10.316025"><time>2025-04-28T10:01:17.000Z</time><ele>647.8</ele></trkpt><trkpt lat="45.995607" lon="10.316036"><time>2025-04-28T10:01:18.000Z</time><ele>647.6</ele></trkpt><trkpt lat="45.995617" lon="10.316045"><time>2025-04-28T10:01:19.000Z</time><ele>647.2</ele></trkpt><trkpt lat="45.995633" lon="10.316066"><time>2025-04-28T10:01:20.000Z</time><ele>647</ele></trkpt><trkpt lat="45.99565" lon="10.316086"><time>2025-04-28T10:01:21.000Z</time><ele>646.8</ele></trkpt><trkpt lat="45.995663" lon="10.316102"><time>2025-04-28T10:01:22.000Z</time><ele>646.6</ele></trkpt><trkpt lat="45.995678" lon="10.316109"><time>2025-04-28T10:01:23.000Z</time><ele>646.4</ele></trkpt><trkpt lat="45.995699" lon="10.316117"><time>2025-04-28T10:01:24.000Z</time><ele>646.2</ele></trkpt><trkpt lat="45.995721" lon="10.316127"><time>2025-04-28T10:01:25.000Z</time><ele>646</ele></trkpt><trkpt lat="45.995739" lon="10.316136"><time>2025-04-28T10:01:26.000Z</time><ele>645.8</ele></trkpt><trkpt lat="45.99576" lon="10.316135"><time>2025-04-28T10:01:27.000Z</time><ele>645.8</ele></trkpt><trkpt lat="45.995778" lon="10.31613"><time>2025-04-28T10:01:28.000Z</time><ele>645.6</ele></trkpt><trkpt lat="45.995797" lon="10.316124"><time>2025-04-28T10:01:29.000Z</time><ele>645.4</ele></trkpt><trkpt lat="45.995812" lon="10.316131"><time>2025-04-28T10:01:30.000Z</time><ele>645.2</ele></trkpt><trkpt lat="45.995823" lon="10.316144"><time>2025-04-28T10:01:31.000Z</time><ele>645</ele></trkpt><trkpt lat="45.99584" lon="10.31616"><time>2025-04-28T10:01:32.000Z</time><ele>645</ele></trkpt><trkpt lat="45.995854" lon="10.316164"><time>2025-04-28T10:01:33.000Z</time><ele>645</ele></trkpt><trkpt lat="45.99586" lon="10.316167"><time>2025-04-28T10:01:34.000Z</time><ele>644.8</ele></trkpt><trkpt lat="45.995862" lon="10.316172"><time>2025-04-28T10:01:35.000Z</time><ele>644.6</ele></trkpt><trkpt lat="45.995871" lon="10.316196"><time>2025-04-28T10:01:36.000Z</time><ele>644.6</ele></trkpt><trkpt lat="45.995879" lon="10.316211"><time>2025-04-28T10:01:37.000Z</time><ele>644.4</ele></trkpt><trkpt lat="45.995887" lon="10.316225"><time>2025-04-28T10:01:38.000Z</time><ele>644.2</ele></trkpt><trkpt lat="45.995889" lon="10.31624"><time>2025-04-28T10:01:39.000Z</time><ele>644.2</ele></trkpt><trkpt lat="45.995891" lon="10.316251"><time>2025-04-28T10:01:40.000Z</time><ele>644.2</ele></trkpt><trkpt lat="45.995894" lon="10.316255"><time>2025-04-28T10:01:41.000Z</time><ele>643.8</ele></trkpt><trkpt lat="45.995898" lon="10.31626"><time>2025-04-28T10:01:42.000Z</time><ele>643.8</ele></trkpt><trkpt lat="45.995893" lon="10.316262"><time>2025-04-28T10:01:43.000Z</time><ele>643.6</ele></trkpt><trkpt lat="45.995895" lon="10.316271"><time>2025-04-28T10:01:44.000Z</time><ele>643.6</ele></trkpt><trkpt lat="45.995902" lon="10.316284"><time>2025-04-28T10:01:45.000Z</time><ele>643.6</ele></trkpt><trkpt lat="45.995901" lon="10.316289"><time>2025-04-28T10:01:46.000Z</time><ele>643.4</ele></trkpt><trkpt lat="45.995899" lon="10.316305"><time>2025-04-28T10:01:47.000Z</time><ele>643.2</ele></trkpt><trkpt lat="45.995901" lon="10.316321"><time>2025-04-28T10:01:48.000Z</time><ele>643</ele></trkpt><trkpt lat="45.995907" lon="10.31633"><time>2025-04-28T10:01:49.000Z</time><ele>643</ele></trkpt><trkpt lat="45.995915" lon="10.316342"><time>2025-04-28T10:01:50.000Z</time><ele>643</ele></trkpt><trkpt lat="45.995915" lon="10.31635"><time>2025-04-28T10:01:51.000Z</time><ele>642.8</ele></trkpt><trkpt lat="45.995907" lon="10.316362"><time>2025-04-28T10:01:52.000Z</time><ele>642.8</ele></trkpt><trkpt lat="45.995904" lon="10.316376"><time>2025-04-28T10:01:53.000Z</time><ele>642.4</ele></trkpt><trkpt lat="45.995899" lon="10.316385"><time>2025-04-28T10:01:54.000Z</time><ele>642.2</ele></trkpt><trkpt lat="45.995894" lon="10.316397"><time>2025-04-28T10:01:55.000Z</time><ele>642.2</ele></trkpt><trkpt lat="45.995895" lon="10.316414"><time>2025-04-28T10:01:56.000Z</time><ele>642.2</ele></trkpt><trkpt lat="45.995899" lon="10.316431"><time>2025-04-28T10:01:57.000Z</time><ele>642</ele></trkpt><trkpt lat="45.9959" lon="10.316449"><time>2025-04-28T10:01:58.000Z</time><ele>641.8</ele></trkpt><trkpt lat="45.995902" lon="10.316467"><time>2025-04-28T10:01:59.000Z</time><ele>641.6</ele></trkpt><trkpt lat="45.995904" lon="10.316486"><time>2025-04-28T10:02:00.000Z</time><ele>641.4</ele></trkpt><trkpt lat="45.995908" lon="10.3165"><time>2025-04-28T10:02:01.000Z</time><ele>641</ele></trkpt><trkpt lat="45.995913" lon="10.316515"><time>2025-04-28T10:02:02.000Z</time><ele>640.8</ele></trkpt><trkpt lat="45.995917" lon="10.316529"><time>2025-04-28T10:02:03.000Z</time><ele>640.8</ele></trkpt><trkpt lat="45.99592" lon="10.316548"><time>2025-04-28T10:02:04.000Z</time><ele>640.4</ele></trkpt><trkpt lat="45.995922" lon="10.316569"><time>2025-04-28T10:02:05.000Z</time><ele>640.2</ele></trkpt><trkpt lat="45.995925" lon="10.31659"><time>2025-04-28T10:02:06.000Z</time><ele>640</ele></trkpt><trkpt lat="45.995932" lon="10.316605"><time>2025-04-28T10:02:07.000Z</time><ele>640</ele></trkpt><trkpt lat="45.995937" lon="10.316622"><time>2025-04-28T10:02:08.000Z</time><ele>639.8</ele></trkpt><trkpt lat="45.99594" lon="10.316642"><time>2025-04-28T10:02:09.000Z</time><ele>639.8</ele></trkpt><trkpt lat="45.995944" lon="10.316665"><time>2025-04-28T10:02:10.000Z</time><ele>639.6</ele></trkpt><trkpt lat="45.99595" lon="10.316684"><time>2025-04-28T10:02:11.000Z</time><ele>639.6</ele></trkpt><trkpt lat="45.995956" lon="10.316695"><time>2025-04-28T10:02:12.000Z</time><ele>639.4</ele></trkpt><trkpt lat="45.995961" lon="10.316711"><time>2025-04-28T10:02:13.000Z</time><ele>639.2</ele></trkpt><trkpt lat="45.995962" lon="10.316728"><time>2025-04-28T10:02:14.000Z</time><ele>639</ele></trkpt><trkpt lat="45.99597" lon="10.316743"><time>2025-04-28T10:02:15.000Z</time><ele>638.8</ele></trkpt><trkpt lat="45.995979" lon="10.316758"><time>2025-04-28T10:02:16.000Z</time><ele>638.6</ele></trkpt><trkpt lat="45.995982" lon="10.316777"><time>2025-04-28T10:02:17.000Z</time><ele>638.2</ele></trkpt><trkpt lat="45.995992" lon="10.316795"><time>2025-04-28T10:02:18.000Z</time><ele>637.8</ele></trkpt><trkpt lat="45.995993" lon="10.316803"><time>2025-04-28T10:02:19.000Z</time><ele>637.6</ele></trkpt><trkpt lat="45.995993" lon="10.316815"><time>2025-04-28T10:02:20.000Z</time><ele>637.4</ele></trkpt><trkpt lat="45.995992" lon="10.316836"><time>2025-04-28T10:02:21.000Z</time><ele>637.2</ele></trkpt><trkpt lat="45.995993" lon="10.316856"><time>2025-04-28T10:02:22.000Z</time><ele>637</ele></trkpt><trkpt lat="45.995996" lon="10.316878"><time>2025-04-28T10:02:23.000Z</time><ele>637</ele></trkpt><trkpt lat="45.995994" lon="10.316896"><time>2025-04-28T10:02:24.000Z</time><ele>637</ele></trkpt><trkpt lat="45.995996" lon="10.316909"><time>2025-04-28T10:02:25.000Z</time><ele>636.8</ele></trkpt><trkpt lat="45.996" lon="10.316928"><time>2025-04-28T10:02:26.000Z</time><ele>636.8</ele></trkpt><trkpt lat="45.996009" lon="10.316942"><time>2025-04-28T10:02:27.000Z</time><ele>636.6</ele></trkpt><trkpt lat="45.996011" lon="10.316961"><time>2025-04-28T10:02:28.000Z</time><ele>636.2</ele></trkpt><trkpt lat="45.996016" lon="10.316981"><time>2025-04-28T10:02:29.000Z</time><ele>636</ele></trkpt><trkpt lat="45.996026" lon="10.317"><time>2025-04-28T10:02:30.000Z</time><ele>635.8</ele></trkpt><trkpt lat="45.996031" lon="10.317016"><time>2025-04-28T10:02:31.000Z</time><ele>635.6</ele></trkpt><trkpt lat="45.996038" lon="10.317031"><time>2025-04-28T10:02:32.000Z</time><ele>635.6</ele></trkpt><trkpt lat="45.996043" lon="10.317048"><time>2025-04-28T10:02:33.000Z</time><ele>635.4</ele></trkpt><trkpt lat="45.99604" lon="10.317063"><time>2025-04-28T10:02:34.000Z</time><ele>635.4</ele></trkpt><trkpt lat="45.996034" lon="10.317078"><time>2025-04-28T10:02:35.000Z</time><ele>635.2</ele></trkpt><trkpt lat="45.996032" lon="10.317094"><time>2025-04-28T10:02:36.000Z</time><ele>635</ele></trkpt><trkpt lat="45.996029" lon="10.317106"><time>2025-04-28T10:02:37.000Z</time><ele>634.8</ele></trkpt><trkpt lat="45.99603" lon="10.317122"><time>2025-04-28T10:02:38.000Z</time><ele>634.4</ele></trkpt><trkpt lat="45.996031" lon="10.317141"><time>2025-04-28T10:02:39.000Z</time><ele>634.2</ele></trkpt><trkpt lat="45.996034" lon="10.317161"><time>2025-04-28T10:02:40.000Z</time><ele>634</ele></trkpt><trkpt lat="45.996038" lon="10.317181"><time>2025-04-28T10:02:41.000Z</time><ele>633.8</ele></trkpt><trkpt lat="45.996043" lon="10.317198"><time>2025-04-28T10:02:42.000Z</time><ele>633.8</ele></trkpt><trkpt lat="45.996046" lon="10.317215"><time>2025-04-28T10:02:43.000Z</time><ele>633.4</ele></trkpt><trkpt lat="45.996045" lon="10.31723"><time>2025-04-28T10:02:44.000Z</time><ele>633.2</ele></trkpt><trkpt lat="45.996045" lon="10.317237"><time>2025-04-28T10:02:45.000Z</time><ele>633</ele></trkpt><trkpt lat="45.996045" lon="10.31725"><time>2025-04-28T10:02:46.000Z</time><ele>632.8</ele></trkpt><trkpt lat="45.996046" lon="10.317271"><time>2025-04-28T10:02:47.000Z</time><ele>632.8</ele></trkpt><trkpt lat="45.996048" lon="10.317294"><time>2025-04-28T10:02:48.000Z</time><ele>632.6</ele></trkpt><trkpt lat="45.996052" lon="10.317318"><time>2025-04-28T10:02:49.000Z</time><ele>632.6</ele></trkpt><trkpt lat="45.996054" lon="10.317343"><time>2025-04-28T10:02:50.000Z</time><ele>632.4</ele></trkpt><trkpt lat="45.996052" lon="10.317361"><time>2025-04-28T10:02:51.000Z</time><ele>632.2</ele></trkpt><trkpt lat="45.996049" lon="10.317383"><time>2025-04-28T10:02:52.000Z</time><ele>632</ele></trkpt><trkpt lat="45.996045" lon="10.3174"><time>2025-04-28T10:02:53.000Z</time><ele>632</ele></trkpt><trkpt lat="45.996044" lon="10.317416"><time>2025-04-28T10:02:54.000Z</time><ele>631.8</ele></trkpt><trkpt lat="45.996041" lon="10.317433"><time>2025-04-28T10:02:55.000Z</time><ele>631.6</ele></trkpt><trkpt lat="45.996035" lon="10.317449"><time>2025-04-28T10:02:56.000Z</time><ele>631.6</ele></trkpt><trkpt lat="45.996034" lon="10.31747"><time>2025-04-28T10:02:57.000Z</time><ele>631.4</ele></trkpt><trkpt lat="45.996028" lon="10.317488"><time>2025-04-28T10:02:58.000Z</time><ele>631</ele></trkpt><trkpt lat="45.99602" lon="10.317503"><time>2025-04-28T10:02:59.000Z</time><ele>630.8</ele></trkpt><trkpt lat="45.996008" lon="10.317514"><time>2025-04-28T10:03:00.000Z</time><ele>630.6</ele></trkpt><trkpt lat="45.996006" lon="10.317538"><time>2025-04-28T10:03:01.000Z</time><ele>630.2</ele></trkpt><trkpt lat="45.996007" lon="10.317561"><time>2025-04-28T10:03:02.000Z</time><ele>630</ele></trkpt><trkpt lat="45.996011" lon="10.317579"><time>2025-04-28T10:03:03.000Z</time><ele>629.8</ele></trkpt><trkpt lat="45.996018" lon="10.317595"><time>2025-04-28T10:03:04.000Z</time><ele>629.8</ele></trkpt><trkpt lat="45.996022" lon="10.317621"><time>2025-04-28T10:03:05.000Z</time><ele>629.4</ele></trkpt><trkpt lat="45.996021" lon="10.317646"><time>2025-04-28T10:03:06.000Z</time><ele>629</ele></trkpt><trkpt lat="45.996024" lon="10.317668"><time>2025-04-28T10:03:07.000Z</time><ele>628.8</ele></trkpt><trkpt lat="45.99603" lon="10.317686"><time>2025-04-28T10:03:08.000Z</time><ele>628.6</ele></trkpt><trkpt lat="45.996034" lon="10.317703"><time>2025-04-28T10:03:09.000Z</time><ele>628.2</ele></trkpt><trkpt lat="45.996035" lon="10.31773"><time>2025-04-28T10:03:10.000Z</time><ele>628</ele></trkpt><trkpt lat="45.996037" lon="10.317749"><time>2025-04-28T10:03:11.000Z</time><ele>627.8</ele></trkpt><trkpt lat="45.99604" lon="10.317768"><time>2025-04-28T10:03:12.000Z</time><ele>627.4</ele></trkpt><trkpt lat="45.996044" lon="10.317787"><time>2025-04-28T10:03:13.000Z</time><ele>627.2</ele></trkpt><trkpt lat="45.996046" lon="10.317806"><time>2025-04-28T10:03:14.000Z</time><ele>627.2</ele></trkpt><trkpt lat="45.99605" lon="10.317826"><time>2025-04-28T10:03:15.000Z</time><ele>627.2</ele></trkpt><trkpt lat="45.996053" lon="10.317844"><time>2025-04-28T10:03:16.000Z</time><ele>627</ele></trkpt><trkpt lat="45.996058" lon="10.317867"><time>2025-04-28T10:03:17.000Z</time><ele>627</ele></trkpt><trkpt lat="45.996064" lon="10.317888"><time>2025-04-28T10:03:18.000Z</time><ele>627</ele></trkpt><trkpt lat="45.996072" lon="10.317901"><time>2025-04-28T10:03:19.000Z</time><ele>626.8</ele></trkpt><trkpt lat="45.996077" lon="10.31791"><time>2025-04-28T10:03:20.000Z</time><ele>626.6</ele></trkpt><trkpt lat="45.996079" lon="10.317924"><time>2025-04-28T10:03:21.000Z</time><ele>626.6</ele></trkpt><trkpt lat="45.996085" lon="10.31794"><time>2025-04-28T10:03:22.000Z</time><ele>626.4</ele></trkpt><trkpt lat="45.996085" lon="10.317956"><time>2025-04-28T10:03:23.000Z</time><ele>626.4</ele></trkpt><trkpt lat="45.996086" lon="10.31797"><time>2025-04-28T10:03:24.000Z</time><ele>626.4</ele></trkpt><trkpt lat="45.996086" lon="10.317984"><time>2025-04-28T10:03:25.000Z</time><ele>626.2</ele></trkpt><trkpt lat="45.996087" lon="10.318005"><time>2025-04-28T10:03:26.000Z</time><ele>626</ele></trkpt><trkpt lat="45.996092" lon="10.318028"><time>2025-04-28T10:03:27.000Z</time><ele>625.8</ele></trkpt><trkpt lat="45.9961" lon="10.318051"><time>2025-04-28T10:03:28.000Z</time><ele>625.4</ele></trkpt><trkpt lat="45.996108" lon="10.318076"><time>2025-04-28T10:03:29.000Z</time><ele>625.2</ele></trkpt><trkpt lat="45.996112" lon="10.318096"><time>2025-04-28T10:03:30.000Z</time><ele>625</ele></trkpt><trkpt lat="45.996113" lon="10.318115"><time>2025-04-28T10:03:31.000Z</time><ele>625</ele></trkpt><trkpt lat="45.996117" lon="10.318135"><time>2025-04-28T10:03:32.000Z</time><ele>624.8</ele></trkpt><trkpt lat="45.99613" lon="10.318155"><time>2025-04-28T10:03:33.000Z</time><ele>624.8</ele></trkpt><trkpt lat="45.996141" lon="10.318167"><time>2025-04-28T10:03:34.000Z</time><ele>624.8</ele></trkpt><trkpt lat="45.996157" lon="10.3182"><time>2025-04-28T10:03:35.000Z</time><ele>624.8</ele></trkpt><trkpt lat="45.996167" lon="10.318222"><time>2025-04-28T10:03:36.000Z</time><ele>624.6</ele></trkpt><trkpt lat="45.996181" lon="10.318241"><time>2025-04-28T10:03:37.000Z</time><ele>624.2</ele></trkpt><trkpt lat="45.996195" lon="10.318263"><time>2025-04-28T10:03:38.000Z</time><ele>624</ele></trkpt><trkpt lat="45.996205" lon="10.318282"><time>2025-04-28T10:03:39.000Z</time><ele>624</ele></trkpt><trkpt lat="45.996214" lon="10.318293"><time>2025-04-28T10:03:40.000Z</time><ele>623.8</ele></trkpt><trkpt lat="45.996222" lon="10.318306"><time>2025-04-28T10:03:41.000Z</time><ele>623.8</ele></trkpt><trkpt lat="45.996232" lon="10.318321"><time>2025-04-28T10:03:42.000Z</time><ele>623.8</ele></trkpt><trkpt lat="45.996244" lon="10.318334"><time>2025-04-28T10:03:43.000Z</time><ele>623.6</ele></trkpt><trkpt lat="45.996258" lon="10.318343"><time>2025-04-28T10:03:44.000Z</time><ele>623.6</ele></trkpt><trkpt lat="45.996273" lon="10.318354"><time>2025-04-28T10:03:45.000Z</time><ele>623.4</ele></trkpt><trkpt lat="45.996286" lon="10.318364"><time>2025-04-28T10:03:46.000Z</time><ele>623.4</ele></trkpt><trkpt lat="45.996297" lon="10.318375"><time>2025-04-28T10:03:47.000Z</time><ele>623.2</ele></trkpt><trkpt lat="45.996306" lon="10.318389"><time>2025-04-28T10:03:48.000Z</time><ele>623.2</ele></trkpt><trkpt lat="45.996316" lon="10.318404"><time>2025-04-28T10:03:49.000Z</time><ele>623.2</ele></trkpt><trkpt lat="45.996322" lon="10.318422"><time>2025-04-28T10:03:50.000Z</time><ele>622.8</ele></trkpt><trkpt lat="45.996329" lon="10.318432"><time>2025-04-28T10:03:51.000Z</time><ele>622.8</ele></trkpt><trkpt lat="45.996343" lon="10.318445"><time>2025-04-28T10:03:52.000Z</time><ele>622.6</ele></trkpt><trkpt lat="45.996354" lon="10.318459"><time>2025-04-28T10:03:53.000Z</time><ele>622.4</ele></trkpt><trkpt lat="45.99637" lon="10.318481"><time>2025-04-28T10:03:54.000Z</time><ele>622.4</ele></trkpt><trkpt lat="45.996385" lon="10.318493"><time>2025-04-28T10:03:55.000Z</time><ele>622.2</ele></trkpt><trkpt lat="45.996396" lon="10.318506"><time>2025-04-28T10:03:56.000Z</time><ele>622</ele></trkpt><trkpt lat="45.996406" lon="10.318518"><time>2025-04-28T10:03:57.000Z</time><ele>622</ele></trkpt><trkpt lat="45.996415" lon="10.318525"><time>2025-04-28T10:03:58.000Z</time><ele>621.8</ele></trkpt><trkpt lat="45.99643" lon="10.31854"><time>2025-04-28T10:03:59.000Z</time><ele>621.4</ele></trkpt><trkpt lat="45.996442" lon="10.318552"><time>2025-04-28T10:04:00.000Z</time><ele>621.4</ele></trkpt><trkpt lat="45.996454" lon="10.318559"><time>2025-04-28T10:04:01.000Z</time><ele>621.2</ele></trkpt><trkpt lat="45.996464" lon="10.318564"><time>2025-04-28T10:04:02.000Z</time><ele>621.2</ele></trkpt><trkpt lat="45.996474" lon="10.318573"><time>2025-04-28T10:04:03.000Z</time><ele>621</ele></trkpt><trkpt lat="45.996485" lon="10.318584"><time>2025-04-28T10:04:04.000Z</time><ele>621</ele></trkpt><trkpt lat="45.996494" lon="10.318594"><time>2025-04-28T10:04:05.000Z</time><ele>620.8</ele></trkpt><trkpt lat="45.996505" lon="10.31861"><time>2025-04-28T10:04:06.000Z</time><ele>620.6</ele></trkpt><trkpt lat="45.996514" lon="10.318619"><time>2025-04-28T10:04:07.000Z</time><ele>620.4</ele></trkpt><trkpt lat="45.996526" lon="10.318625"><time>2025-04-28T10:04:08.000Z</time><ele>620.4</ele></trkpt><trkpt lat="45.996537" lon="10.318633"><time>2025-04-28T10:04:09.000Z</time><ele>620.4</ele></trkpt><trkpt lat="45.996551" lon="10.318647"><time>2025-04-28T10:04:10.000Z</time><ele>620.2</ele></trkpt><trkpt lat="45.996564" lon="10.318658"><time>2025-04-28T10:04:11.000Z</time><ele>620.2</ele></trkpt><trkpt lat="45.996575" lon="10.318663"><time>2025-04-28T10:04:12.000Z</time><ele>620.2</ele></trkpt><trkpt lat="45.996589" lon="10.318661"><time>2025-04-28T10:04:13.000Z</time><ele>620</ele></trkpt><trkpt lat="45.996602" lon="10.318667"><time>2025-04-28T10:04:14.000Z</time><ele>619.8</ele></trkpt><trkpt lat="45.996616" lon="10.318676"><time>2025-04-28T10:04:15.000Z</time><ele>619.6</ele></trkpt><trkpt lat="45.996627" lon="10.318687"><time>2025-04-28T10:04:16.000Z</time><ele>619.6</ele></trkpt><trkpt lat="45.996639" lon="10.318698"><time>2025-04-28T10:04:17.000Z</time><ele>619.4</ele></trkpt><trkpt lat="45.996651" lon="10.318705"><time>2025-04-28T10:04:18.000Z</time><ele>619.2</ele></trkpt><trkpt lat="45.996661" lon="10.318711"><time>2025-04-28T10:04:19.000Z</time><ele>619.2</ele></trkpt><trkpt lat="45.996673" lon="10.318718"><time>2025-04-28T10:04:20.000Z</time><ele>618.8</ele></trkpt><trkpt lat="45.996684" lon="10.318723"><time>2025-04-28T10:04:21.000Z</time><ele>618.6</ele></trkpt><trkpt lat="45.996696" lon="10.318732"><time>2025-04-28T10:04:22.000Z</time><ele>618.4</ele></trkpt><trkpt lat="45.996707" lon="10.318737"><time>2025-04-28T10:04:23.000Z</time><ele>618.2</ele></trkpt><trkpt lat="45.996718" lon="10.318745"><time>2025-04-28T10:04:24.000Z</time><ele>618</ele></trkpt><trkpt lat="45.996731" lon="10.318752"><time>2025-04-28T10:04:25.000Z</time><ele>618</ele></trkpt><trkpt lat="45.996742" lon="10.318758"><time>2025-04-28T10:04:26.000Z</time><ele>617.8</ele></trkpt><trkpt lat="45.996754" lon="10.318761"><time>2025-04-28T10:04:27.000Z</time><ele>617.6</ele></trkpt><trkpt lat="45.996763" lon="10.318761"><time>2025-04-28T10:04:28.000Z</time><ele>617.6</ele></trkpt><trkpt lat="45.996766" lon="10.31876"><time>2025-04-28T10:04:29.000Z</time><ele>617.4</ele></trkpt><trkpt lat="45.996768" lon="10.318755"><time>2025-04-28T10:04:30.000Z</time><ele>617.4</ele></trkpt><trkpt lat="45.996768" lon="10.318754"><time>2025-04-28T10:04:31.000Z</time><ele>617.4</ele></trkpt><trkpt lat="45.996768" lon="10.318753"><time>2025-04-28T10:04:32.000Z</time><ele>617.4</ele></trkpt><trkpt lat="45.996759" lon="10.318745"><time>2025-04-28T10:04:33.000Z</time><ele>617.4</ele></trkpt><trkpt lat="45.99677" lon="10.318753"><time>2025-04-28T10:04:34.000Z</time><ele>617.4</ele></trkpt><trkpt lat="45.996792" lon="10.318753"><time>2025-04-28T10:04:35.000Z</time><ele>617.2</ele></trkpt><trkpt lat="45.996809" lon="10.318758"><time>2025-04-28T10:04:36.000Z</time><ele>617</ele></trkpt><trkpt lat="45.996826" lon="10.318755"><time>2025-04-28T10:04:37.000Z</time><ele>617</ele></trkpt><trkpt lat="45.996846" lon="10.318754"><time>2025-04-28T10:04:38.000Z</time><ele>616.8</ele></trkpt><trkpt lat="45.996864" lon="10.318746"><time>2025-04-28T10:04:39.000Z</time><ele>616.8</ele></trkpt><trkpt lat="45.996879" lon="10.318734"><time>2025-04-28T10:04:40.000Z</time><ele>616.6</ele></trkpt><trkpt lat="45.996881" lon="10.31873"><time>2025-04-28T10:04:41.000Z</time><ele>616.6</ele></trkpt><trkpt lat="45.996884" lon="10.318728"><time>2025-04-28T10:04:42.000Z</time><ele>616.8</ele></trkpt><trkpt lat="45.996881" lon="10.318717"><time>2025-04-28T10:04:43.000Z</time><ele>617</ele></trkpt><trkpt lat="45.996876" lon="10.318718"><time>2025-04-28T10:04:44.000Z</time><ele>617.2</ele></trkpt><trkpt lat="45.996877" lon="10.318709"><time>2025-04-28T10:04:45.000Z</time><ele>617.2</ele></trkpt><trkpt lat="45.996874" lon="10.318707"><time>2025-04-28T10:04:46.000Z</time><ele>617.4</ele></trkpt><trkpt lat="45.996876" lon="10.318705"><time>2025-04-28T10:04:47.000Z</time><ele>617.2</ele></trkpt><trkpt lat="45.996892" lon="10.318698"><time>2025-04-28T10:04:48.000Z</time><ele>617</ele></trkpt><trkpt lat="45.996909" lon="10.318692"><time>2025-04-28T10:04:49.000Z</time><ele>616.8</ele></trkpt><trkpt lat="45.996937" lon="10.318696"><time>2025-04-28T10:04:50.000Z</time><ele>616.6</ele></trkpt><trkpt lat="45.996945" lon="10.31868"><time>2025-04-28T10:04:51.000Z</time><ele>616.4</ele></trkpt><trkpt lat="45.996948" lon="10.31867"><time>2025-04-28T10:04:52.000Z</time><ele>616</ele></trkpt><trkpt lat="45.996951" lon="10.318665"><time>2025-04-28T10:04:53.000Z</time><ele>615.8</ele></trkpt><trkpt lat="45.996956" lon="10.318659"><time>2025-04-28T10:04:54.000Z</time><ele>615.8</ele></trkpt><trkpt lat="45.996963" lon="10.318654"><time>2025-04-28T10:04:55.000Z</time><ele>615.6</ele></trkpt><trkpt lat="45.996972" lon="10.318649"><time>2025-04-28T10:04:56.000Z</time><ele>615.6</ele></trkpt><trkpt lat="45.996982" lon="10.31864"><time>2025-04-28T10:04:57.000Z</time><ele>615.6</ele></trkpt><trkpt lat="45.996993" lon="10.318635"><time>2025-04-28T10:04:58.000Z</time><ele>615.2</ele></trkpt><trkpt lat="45.997004" lon="10.318638"><time>2025-04-28T10:04:59.000Z</time><ele>615.2</ele></trkpt><trkpt lat="45.997015" lon="10.318639"><time>2025-04-28T10:05:00.000Z</time><ele>615.2</ele></trkpt><trkpt lat="45.997025" lon="10.318646"><time>2025-04-28T10:05:01.000Z</time><ele>615</ele></trkpt><trkpt lat="45.997026" lon="10.318645"><time>2025-04-28T10:05:02.000Z</time><ele>615.2</ele></trkpt><trkpt lat="45.997028" lon="10.31865"><time>2025-04-28T10:05:03.000Z</time><ele>615.4</ele></trkpt><trkpt lat="45.997029" lon="10.318652"><time>2025-04-28T10:05:04.000Z</time><ele>615.6</ele></trkpt><trkpt lat="45.997034" lon="10.31866"><time>2025-04-28T10:05:05.000Z</time><ele>615.6</ele></trkpt><trkpt lat="45.997033" lon="10.318681"><time>2025-04-28T10:05:06.000Z</time><ele>615.8</ele></trkpt><trkpt lat="45.997032" lon="10.3187"><time>2025-04-28T10:05:07.000Z</time><ele>615.8</ele></trkpt><trkpt lat="45.997029" lon="10.318724"><time>2025-04-28T10:05:08.000Z</time><ele>615.8</ele></trkpt><trkpt lat="45.99703" lon="10.318746"><time>2025-04-28T10:05:09.000Z</time><ele>615.8</ele></trkpt><trkpt lat="45.997023" lon="10.318788"><time>2025-04-28T10:05:10.000Z</time><ele>615.8</ele></trkpt><trkpt lat="45.99702" lon="10.318828"><time>2025-04-28T10:05:11.000Z</time><ele>615.6</ele></trkpt><trkpt lat="45.997019" lon="10.318849"><time>2025-04-28T10:05:12.000Z</time><ele>615.4</ele></trkpt><trkpt lat="45.997015" lon="10.318862"><time>2025-04-28T10:05:13.000Z</time><ele>615.2</ele></trkpt><trkpt lat="45.997018" lon="10.318871"><time>2025-04-28T10:05:14.000Z</time><ele>615.2</ele></trkpt><trkpt lat="45.997012" lon="10.318876"><time>2025-04-28T10:05:15.000Z</time><ele>614.8</ele></trkpt><trkpt lat="45.997009" lon="10.318884"><time>2025-04-28T10:05:16.000Z</time><ele>614.6</ele></trkpt><trkpt lat="45.997005" lon="10.318908"><time>2025-04-28T10:05:17.000Z</time><ele>614.2</ele></trkpt><trkpt lat="45.997004" lon="10.318929"><time>2025-04-28T10:05:18.000Z</time><ele>613.8</ele></trkpt><trkpt lat="45.996994" lon="10.31895"><time>2025-04-28T10:05:19.000Z</time><ele>613.4</ele></trkpt><trkpt lat="45.996993" lon="10.318974"><time>2025-04-28T10:05:20.000Z</time><ele>613.2</ele></trkpt><trkpt lat="45.996986" lon="10.319"><time>2025-04-28T10:05:21.000Z</time><ele>612.8</ele></trkpt><trkpt lat="45.996992" lon="10.319021"><time>2025-04-28T10:05:22.000Z</time><ele>612.6</ele></trkpt><trkpt lat="45.996982" lon="10.319041"><time>2025-04-28T10:05:23.000Z</time><ele>612.4</ele></trkpt><trkpt lat="45.996983" lon="10.319062"><time>2025-04-28T10:05:24.000Z</time><ele>612.2</ele></trkpt><trkpt lat="45.99698" lon="10.319083"><time>2025-04-28T10:05:25.000Z</time><ele>612.2</ele></trkpt><trkpt lat="45.996979" lon="10.319107"><time>2025-04-28T10:05:26.000Z</time><ele>612</ele></trkpt><trkpt lat="45.996979" lon="10.319127"><time>2025-04-28T10:05:27.000Z</time><ele>611.8</ele></trkpt><trkpt lat="45.996982" lon="10.319144"><time>2025-04-28T10:05:28.000Z</time><ele>611.6</ele></trkpt><trkpt lat="45.996985" lon="10.319164"><time>2025-04-28T10:05:29.000Z</time><ele>611.4</ele></trkpt><trkpt lat="45.996986" lon="10.319184"><time>2025-04-28T10:05:30.000Z</time><ele>611.4</ele></trkpt><trkpt lat="45.996989" lon="10.319205"><time>2025-04-28T10:05:31.000Z</time><ele>611.2</ele></trkpt><trkpt lat="45.996992" lon="10.319222"><time>2025-04-28T10:05:32.000Z</time><ele>610.8</ele></trkpt><trkpt lat="45.996993" lon="10.319239"><time>2025-04-28T10:05:33.000Z</time><ele>610.8</ele></trkpt><trkpt lat="45.996994" lon="10.319255"><time>2025-04-28T10:05:34.000Z</time><ele>610.6</ele></trkpt><trkpt lat="45.996997" lon="10.319271"><time>2025-04-28T10:05:35.000Z</time><ele>610.4</ele></trkpt><trkpt lat="45.997001" lon="10.319286"><time>2025-04-28T10:05:36.000Z</time><ele>610.2</ele></trkpt><trkpt lat="45.997005" lon="10.319305"><time>2025-04-28T10:05:37.000Z</time><ele>610</ele></trkpt><trkpt lat="45.99701" lon="10.319326"><time>2025-04-28T10:05:38.000Z</time><ele>609.8</ele></trkpt><trkpt lat="45.997016" lon="10.319341"><time>2025-04-28T10:05:39.000Z</time><ele>609.6</ele></trkpt><trkpt lat="45.997024" lon="10.319361"><time>2025-04-28T10:05:40.000Z</time><ele>609.4</ele></trkpt><trkpt lat="45.997031" lon="10.319374"><time>2025-04-28T10:05:41.000Z</time><ele>609.2</ele></trkpt><trkpt lat="45.997037" lon="10.319388"><time>2025-04-28T10:05:42.000Z</time><ele>609</ele></trkpt><trkpt lat="45.997042" lon="10.319408"><time>2025-04-28T10:05:43.000Z</time><ele>608.6</ele></trkpt><trkpt lat="45.997045" lon="10.319421"><time>2025-04-28T10:05:44.000Z</time><ele>608.4</ele></trkpt><trkpt lat="45.997052" lon="10.319434"><time>2025-04-28T10:05:45.000Z</time><ele>608.2</ele></trkpt><trkpt lat="45.997061" lon="10.319451"><time>2025-04-28T10:05:46.000Z</time><ele>607.8</ele></trkpt><trkpt lat="45.997065" lon="10.31947"><time>2025-04-28T10:05:47.000Z</time><ele>607.6</ele></trkpt><trkpt lat="45.997069" lon="10.319486"><time>2025-04-28T10:05:48.000Z</time><ele>607.4</ele></trkpt><trkpt lat="45.997079" lon="10.319497"><time>2025-04-28T10:05:49.000Z</time><ele>607</ele></trkpt><trkpt lat="45.997089" lon="10.319509"><time>2025-04-28T10:05:50.000Z</time><ele>606.8</ele></trkpt><trkpt lat="45.997101" lon="10.319521"><time>2025-04-28T10:05:51.000Z</time><ele>606.6</ele></trkpt><trkpt lat="45.997113" lon="10.319529"><time>2025-04-28T10:05:52.000Z</time><ele>606.6</ele></trkpt><trkpt lat="45.997123" lon="10.319538"><time>2025-04-28T10:05:53.000Z</time><ele>606.4</ele></trkpt><trkpt lat="45.997133" lon="10.319556"><time>2025-04-28T10:05:54.000Z</time><ele>606.2</ele></trkpt><trkpt lat="45.997142" lon="10.319573"><time>2025-04-28T10:05:55.000Z</time><ele>606.2</ele></trkpt><trkpt lat="45.997152" lon="10.319594"><time>2025-04-28T10:05:56.000Z</time><ele>605.8</ele></trkpt><trkpt lat="45.997161" lon="10.319612"><time>2025-04-28T10:05:57.000Z</time><ele>605.4</ele></trkpt><trkpt lat="45.997174" lon="10.319624"><time>2025-04-28T10:05:58.000Z</time><ele>605.2</ele></trkpt><trkpt lat="45.997184" lon="10.319633"><time>2025-04-28T10:05:59.000Z</time><ele>605</ele></trkpt><trkpt lat="45.997196" lon="10.31964"><time>2025-04-28T10:06:00.000Z</time><ele>604.8</ele></trkpt><trkpt lat="45.997208" lon="10.319644"><time>2025-04-28T10:06:01.000Z</time><ele>604.8</ele></trkpt><trkpt lat="45.997216" lon="10.319656"><time>2025-04-28T10:06:02.000Z</time><ele>604.6</ele></trkpt><trkpt lat="45.997222" lon="10.31967"><time>2025-04-28T10:06:03.000Z</time><ele>604.6</ele></trkpt><trkpt lat="45.997226" lon="10.319689"><time>2025-04-28T10:06:04.000Z</time><ele>604.2</ele></trkpt><trkpt lat="45.997229" lon="10.319705"><time>2025-04-28T10:06:05.000Z</time><ele>604.2</ele></trkpt><trkpt lat="45.997236" lon="10.319719"><time>2025-04-28T10:06:06.000Z</time><ele>604</ele></trkpt><trkpt lat="45.997245" lon="10.319723"><time>2025-04-28T10:06:07.000Z</time><ele>604</ele></trkpt><trkpt lat="45.997258" lon="10.319727"><time>2025-04-28T10:06:08.000Z</time><ele>603.8</ele></trkpt><trkpt lat="45.997274" lon="10.319734"><time>2025-04-28T10:06:09.000Z</time><ele>603.6</ele></trkpt><trkpt lat="45.997287" lon="10.319744"><time>2025-04-28T10:06:10.000Z</time><ele>603.4</ele></trkpt><trkpt lat="45.997296" lon="10.319749"><time>2025-04-28T10:06:11.000Z</time><ele>603.4</ele></trkpt><trkpt lat="45.997301" lon="10.319762"><time>2025-04-28T10:06:12.000Z</time><ele>603.2</ele></trkpt><trkpt lat="45.997302" lon="10.319767"><time>2025-04-28T10:06:13.000Z</time><ele>603.2</ele></trkpt><trkpt lat="45.997303" lon="10.319769"><time>2025-04-28T10:06:14.000Z</time><ele>603.2</ele></trkpt><trkpt lat="45.997304" lon="10.319769"><time>2025-04-28T10:06:15.000Z</time><ele>603.2</ele></trkpt><trkpt lat="45.997303" lon="10.319767"><time>2025-04-28T10:06:16.000Z</time><ele>603.2</ele></trkpt><trkpt lat="45.997291" lon="10.319758"><time>2025-04-28T10:06:17.000Z</time><ele>603.2</ele></trkpt><trkpt lat="45.997288" lon="10.31976"><time>2025-04-28T10:06:18.000Z</time><ele>603.2</ele></trkpt><trkpt lat="45.997289" lon="10.319768"><time>2025-04-28T10:06:19.000Z</time><ele>603.2</ele></trkpt><trkpt lat="45.9973" lon="10.319782"><time>2025-04-28T10:06:20.000Z</time><ele>602.8</ele></trkpt><trkpt lat="45.997314" lon="10.319801"><time>2025-04-28T10:06:21.000Z</time><ele>602.6</ele></trkpt><trkpt lat="45.997324" lon="10.319811"><time>2025-04-28T10:06:22.000Z</time><ele>602.4</ele></trkpt><trkpt lat="45.997339" lon="10.319823"><time>2025-04-28T10:06:23.000Z</time><ele>602.2</ele></trkpt><trkpt lat="45.997354" lon="10.319831"><time>2025-04-28T10:06:24.000Z</time><ele>602</ele></trkpt><trkpt lat="45.997368" lon="10.319839"><time>2025-04-28T10:06:25.000Z</time><ele>602</ele></trkpt><trkpt lat="45.997379" lon="10.319845"><time>2025-04-28T10:06:26.000Z</time><ele>601.8</ele></trkpt><trkpt lat="45.997389" lon="10.319851"><time>2025-04-28T10:06:27.000Z</time><ele>601.6</ele></trkpt><trkpt lat="45.997396" lon="10.319861"><time>2025-04-28T10:06:28.000Z</time><ele>601.6</ele></trkpt><trkpt lat="45.997403" lon="10.319866"><time>2025-04-28T10:06:29.000Z</time><ele>601.4</ele></trkpt><trkpt lat="45.997413" lon="10.319872"><time>2025-04-28T10:06:30.000Z</time><ele>601.4</ele></trkpt><trkpt lat="45.997419" lon="10.31988"><time>2025-04-28T10:06:31.000Z</time><ele>601.2</ele></trkpt><trkpt lat="45.997427" lon="10.31989"><time>2025-04-28T10:06:32.000Z</time><ele>601</ele></trkpt><trkpt lat="45.997433" lon="10.319901"><time>2025-04-28T10:06:33.000Z</time><ele>601</ele></trkpt><trkpt lat="45.997441" lon="10.31991"><time>2025-04-28T10:06:34.000Z</time><ele>600.8</ele></trkpt><trkpt lat="45.997451" lon="10.319928"><time>2025-04-28T10:06:35.000Z</time><ele>600.6</ele></trkpt><trkpt lat="45.997466" lon="10.319936"><time>2025-04-28T10:06:36.000Z</time><ele>600.4</ele></trkpt><trkpt lat="45.997483" lon="10.319949"><time>2025-04-28T10:06:37.000Z</time><ele>600.4</ele></trkpt><trkpt lat="45.997499" lon="10.319959"><time>2025-04-28T10:06:38.000Z</time><ele>600.2</ele></trkpt><trkpt lat="45.997506" lon="10.319972"><time>2025-04-28T10:06:39.000Z</time><ele>600</ele></trkpt><trkpt lat="45.997509" lon="10.319986"><time>2025-04-28T10:06:40.000Z</time><ele>600</ele></trkpt><trkpt lat="45.997524" lon="10.319996"><time>2025-04-28T10:06:41.000Z</time><ele>599.6</ele></trkpt><trkpt lat="45.997527" lon="10.32001"><time>2025-04-28T10:06:42.000Z</time><ele>599.4</ele></trkpt><trkpt lat="45.99753" lon="10.320023"><time>2025-04-28T10:06:43.000Z</time><ele>599.2</ele></trkpt><trkpt lat="45.997535" lon="10.320032"><time>2025-04-28T10:06:44.000Z</time><ele>599</ele></trkpt><trkpt lat="45.997544" lon="10.320036"><time>2025-04-28T10:06:45.000Z</time><ele>598.8</ele></trkpt><trkpt lat="45.997554" lon="10.320035"><time>2025-04-28T10:06:46.000Z</time><ele>598.6</ele></trkpt><trkpt lat="45.997566" lon="10.320038"><time>2025-04-28T10:06:47.000Z</time><ele>598.6</ele></trkpt><trkpt lat="45.997586" lon="10.320039"><time>2025-04-28T10:06:48.000Z</time><ele>598.4</ele></trkpt><trkpt lat="45.997601" lon="10.320036"><time>2025-04-28T10:06:49.000Z</time><ele>598.4</ele></trkpt><trkpt lat="45.997615" lon="10.320047"><time>2025-04-28T10:06:50.000Z</time><ele>598.2</ele></trkpt><trkpt lat="45.997628" lon="10.320056"><time>2025-04-28T10:06:51.000Z</time><ele>598.2</ele></trkpt><trkpt lat="45.997638" lon="10.320071"><time>2025-04-28T10:06:52.000Z</time><ele>598</ele></trkpt><trkpt lat="45.997655" lon="10.32008"><time>2025-04-28T10:06:53.000Z</time><ele>597.8</ele></trkpt><trkpt lat="45.997667" lon="10.320089"><time>2025-04-28T10:06:54.000Z</time><ele>597.6</ele></trkpt><trkpt lat="45.997677" lon="10.320095"><time>2025-04-28T10:06:55.000Z</time><ele>597.6</ele></trkpt><trkpt lat="45.997685" lon="10.320114"><time>2025-04-28T10:06:56.000Z</time><ele>597.4</ele></trkpt><trkpt lat="45.997692" lon="10.320141"><time>2025-04-28T10:06:57.000Z</time><ele>597</ele></trkpt><trkpt lat="45.997694" lon="10.320166"><time>2025-04-28T10:06:58.000Z</time><ele>596.8</ele></trkpt><trkpt lat="45.997717" lon="10.320187"><time>2025-04-28T10:06:59.000Z</time><ele>596.4</ele></trkpt><trkpt lat="45.997733" lon="10.320193"><time>2025-04-28T10:07:00.000Z</time><ele>596.2</ele></trkpt><trkpt lat="45.99775" lon="10.320193"><time>2025-04-28T10:07:01.000Z</time><ele>596</ele></trkpt><trkpt lat="45.997762" lon="10.320202"><time>2025-04-28T10:07:02.000Z</time><ele>595.8</ele></trkpt><trkpt lat="45.997765" lon="10.320211"><time>2025-04-28T10:07:03.000Z</time><ele>595.6</ele></trkpt><trkpt lat="45.997767" lon="10.320215"><time>2025-04-28T10:07:04.000Z</time><ele>595.6</ele></trkpt><trkpt lat="45.997772" lon="10.320229"><time>2025-04-28T10:07:05.000Z</time><ele>595.6</ele></trkpt><trkpt lat="45.997776" lon="10.320243"><time>2025-04-28T10:07:06.000Z</time><ele>595.4</ele></trkpt><trkpt lat="45.99778" lon="10.320252"><time>2025-04-28T10:07:07.000Z</time><ele>595.4</ele></trkpt><trkpt lat="45.997786" lon="10.320261"><time>2025-04-28T10:07:08.000Z</time><ele>595.2</ele></trkpt><trkpt lat="45.997785" lon="10.32026"><time>2025-04-28T10:07:09.000Z</time><ele>595</ele></trkpt><trkpt lat="45.997789" lon="10.320267"><time>2025-04-28T10:07:10.000Z</time><ele>594.8</ele></trkpt><trkpt lat="45.997795" lon="10.320267"><time>2025-04-28T10:07:11.000Z</time><ele>594.6</ele></trkpt><trkpt lat="45.997809" lon="10.320273"><time>2025-04-28T10:07:12.000Z</time><ele>594.4</ele></trkpt><trkpt lat="45.99782" lon="10.320286"><time>2025-04-28T10:07:13.000Z</time><ele>594.2</ele></trkpt><trkpt lat="45.997835" lon="10.32031"><time>2025-04-28T10:07:14.000Z</time><ele>593.8</ele></trkpt><trkpt lat="45.997839" lon="10.32032"><time>2025-04-28T10:07:15.000Z</time><ele>593.6</ele></trkpt><trkpt lat="45.997852" lon="10.320327"><time>2025-04-28T10:07:16.000Z</time><ele>593.4</ele></trkpt><trkpt lat="45.997862" lon="10.320327"><time>2025-04-28T10:07:17.000Z</time><ele>593.2</ele></trkpt><trkpt lat="45.997867" lon="10.320333"><time>2025-04-28T10:07:18.000Z</time><ele>593</ele></trkpt><trkpt lat="45.997871" lon="10.320339"><time>2025-04-28T10:07:19.000Z</time><ele>592.8</ele></trkpt><trkpt lat="45.99788" lon="10.320354"><time>2025-04-28T10:07:20.000Z</time><ele>592.6</ele></trkpt><trkpt lat="45.997893" lon="10.320366"><time>2025-04-28T10:07:21.000Z</time><ele>592.4</ele></trkpt><trkpt lat="45.997905" lon="10.320376"><time>2025-04-28T10:07:22.000Z</time><ele>592.2</ele></trkpt><trkpt lat="45.997916" lon="10.320384"><time>2025-04-28T10:07:23.000Z</time><ele>592</ele></trkpt><trkpt lat="45.99793" lon="10.320391"><time>2025-04-28T10:07:24.000Z</time><ele>591.8</ele></trkpt><trkpt lat="45.997944" lon="10.320395"><time>2025-04-28T10:07:25.000Z</time><ele>591.6</ele></trkpt><trkpt lat="45.997956" lon="10.320402"><time>2025-04-28T10:07:26.000Z</time><ele>591.4</ele></trkpt><trkpt lat="45.99796" lon="10.320411"><time>2025-04-28T10:07:27.000Z</time><ele>591.2</ele></trkpt><trkpt lat="45.997972" lon="10.320423"><time>2025-04-28T10:07:28.000Z</time><ele>590.8</ele></trkpt><trkpt lat="45.997983" lon="10.320441"><time>2025-04-28T10:07:29.000Z</time><ele>590.6</ele></trkpt><trkpt lat="45.998003" lon="10.32045"><time>2025-04-28T10:07:30.000Z</time><ele>590.4</ele></trkpt><trkpt lat="45.99802" lon="10.320464"><time>2025-04-28T10:07:31.000Z</time><ele>590.2</ele></trkpt><trkpt lat="45.998029" lon="10.320473"><time>2025-04-28T10:07:32.000Z</time><ele>590</ele></trkpt><trkpt lat="45.998041" lon="10.320486"><time>2025-04-28T10:07:33.000Z</time><ele>589.8</ele></trkpt><trkpt lat="45.998053" lon="10.320499"><time>2025-04-28T10:07:34.000Z</time><ele>589.6</ele></trkpt><trkpt lat="45.998063" lon="10.320511"><time>2025-04-28T10:07:35.000Z</time><ele>589.4</ele></trkpt><trkpt lat="45.998073" lon="10.32052"><time>2025-04-28T10:07:36.000Z</time><ele>589.2</ele></trkpt><trkpt lat="45.998083" lon="10.320534"><time>2025-04-28T10:07:37.000Z</time><ele>589</ele></trkpt><trkpt lat="45.998091" lon="10.32055"><time>2025-04-28T10:07:38.000Z</time><ele>588.8</ele></trkpt><trkpt lat="45.9981" lon="10.320563"><time>2025-04-28T10:07:39.000Z</time><ele>588.6</ele></trkpt><trkpt lat="45.998109" lon="10.320575"><time>2025-04-28T10:07:40.000Z</time><ele>588.4</ele></trkpt><trkpt lat="45.998117" lon="10.320592"><time>2025-04-28T10:07:41.000Z</time><ele>588.4</ele></trkpt><trkpt lat="45.998124" lon="10.320609"><time>2025-04-28T10:07:42.000Z</time><ele>588</ele></trkpt><trkpt lat="45.998133" lon="10.320623"><time>2025-04-28T10:07:43.000Z</time><ele>587.8</ele></trkpt><trkpt lat="45.998144" lon="10.320636"><time>2025-04-28T10:07:44.000Z</time><ele>587.6</ele></trkpt><trkpt lat="45.998155" lon="10.320643"><time>2025-04-28T10:07:45.000Z</time><ele>587.4</ele></trkpt><trkpt lat="45.998169" lon="10.320648"><time>2025-04-28T10:07:46.000Z</time><ele>587.4</ele></trkpt><trkpt lat="45.998177" lon="10.320661"><time>2025-04-28T10:07:47.000Z</time><ele>587.2</ele></trkpt><trkpt lat="45.998185" lon="10.320675"><time>2025-04-28T10:07:48.000Z</time><ele>587</ele></trkpt><trkpt lat="45.998197" lon="10.320682"><time>2025-04-28T10:07:49.000Z</time><ele>586.6</ele></trkpt><trkpt lat="45.998206" lon="10.320698"><time>2025-04-28T10:07:50.000Z</time><ele>586.4</ele></trkpt><trkpt lat="45.998215" lon="10.32071"><time>2025-04-28T10:07:51.000Z</time><ele>586</ele></trkpt><trkpt lat="45.998221" lon="10.320717"><time>2025-04-28T10:07:52.000Z</time><ele>585.8</ele></trkpt><trkpt lat="45.998228" lon="10.320723"><time>2025-04-28T10:07:53.000Z</time><ele>585.6</ele></trkpt><trkpt lat="45.998236" lon="10.320735"><time>2025-04-28T10:07:54.000Z</time><ele>585.2</ele></trkpt><trkpt lat="45.998244" lon="10.320744"><time>2025-04-28T10:07:55.000Z</time><ele>585</ele></trkpt><trkpt lat="45.998254" lon="10.320758"><time>2025-04-28T10:07:56.000Z</time><ele>584.8</ele></trkpt><trkpt lat="45.998266" lon="10.320769"><time>2025-04-28T10:07:57.000Z</time><ele>584.6</ele></trkpt><trkpt lat="45.998273" lon="10.320782"><time>2025-04-28T10:07:58.000Z</time><ele>584.2</ele></trkpt><trkpt lat="45.998282" lon="10.320791"><time>2025-04-28T10:07:59.000Z</time><ele>584</ele></trkpt><trkpt lat="45.998293" lon="10.320802"><time>2025-04-28T10:08:00.000Z</time><ele>583.8</ele></trkpt><trkpt lat="45.998304" lon="10.320807"><time>2025-04-28T10:08:01.000Z</time><ele>583.4</ele></trkpt><trkpt lat="45.998315" lon="10.320818"><time>2025-04-28T10:08:02.000Z</time><ele>583.2</ele></trkpt><trkpt lat="45.998326" lon="10.320833"><time>2025-04-28T10:08:03.000Z</time><ele>583</ele></trkpt><trkpt lat="45.998338" lon="10.320848"><time>2025-04-28T10:08:04.000Z</time><ele>582.8</ele></trkpt><trkpt lat="45.998351" lon="10.320862"><time>2025-04-28T10:08:05.000Z</time><ele>582.8</ele></trkpt><trkpt lat="45.998371" lon="10.320868"><time>2025-04-28T10:08:06.000Z</time><ele>582.6</ele></trkpt><trkpt lat="45.998389" lon="10.320879"><time>2025-04-28T10:08:07.000Z</time><ele>582.4</ele></trkpt><trkpt lat="45.998396" lon="10.320896"><time>2025-04-28T10:08:08.000Z</time><ele>582.2</ele></trkpt><trkpt lat="45.9984" lon="10.320911"><time>2025-04-28T10:08:09.000Z</time><ele>581.8</ele></trkpt><trkpt lat="45.998409" lon="10.320929"><time>2025-04-28T10:08:10.000Z</time><ele>581.6</ele></trkpt><trkpt lat="45.998415" lon="10.320947"><time>2025-04-28T10:08:11.000Z</time><ele>581.2</ele></trkpt><trkpt lat="45.998418" lon="10.320966"><time>2025-04-28T10:08:12.000Z</time><ele>581</ele></trkpt><trkpt lat="45.998423" lon="10.320977"><time>2025-04-28T10:08:13.000Z</time><ele>580.6</ele></trkpt><trkpt lat="45.99843" lon="10.320987"><time>2025-04-28T10:08:14.000Z</time><ele>580.4</ele></trkpt><trkpt lat="45.998436" lon="10.320998"><time>2025-04-28T10:08:15.000Z</time><ele>580.2</ele></trkpt><trkpt lat="45.998445" lon="10.32101"><time>2025-04-28T10:08:16.000Z</time><ele>579.8</ele></trkpt><trkpt lat="45.998459" lon="10.321027"><time>2025-04-28T10:08:17.000Z</time><ele>579.6</ele></trkpt><trkpt lat="45.998467" lon="10.321038"><time>2025-04-28T10:08:18.000Z</time><ele>579.4</ele></trkpt><trkpt lat="45.998476" lon="10.321055"><time>2025-04-28T10:08:19.000Z</time><ele>579.2</ele></trkpt><trkpt lat="45.998484" lon="10.321076"><time>2025-04-28T10:08:20.000Z</time><ele>579.2</ele></trkpt><trkpt lat="45.998493" lon="10.321086"><time>2025-04-28T10:08:21.000Z</time><ele>578.8</ele></trkpt><trkpt lat="45.998502" lon="10.3211"><time>2025-04-28T10:08:22.000Z</time><ele>578.6</ele></trkpt><trkpt lat="45.998511" lon="10.321112"><time>2025-04-28T10:08:23.000Z</time><ele>578.6</ele></trkpt><trkpt lat="45.998521" lon="10.321124"><time>2025-04-28T10:08:24.000Z</time><ele>578.4</ele></trkpt><trkpt lat="45.998531" lon="10.321142"><time>2025-04-28T10:08:25.000Z</time><ele>578.2</ele></trkpt><trkpt lat="45.998537" lon="10.321151"><time>2025-04-28T10:08:26.000Z</time><ele>578</ele></trkpt><trkpt lat="45.998543" lon="10.32116"><time>2025-04-28T10:08:27.000Z</time><ele>577.8</ele></trkpt><trkpt lat="45.998546" lon="10.321168"><time>2025-04-28T10:08:28.000Z</time><ele>577.6</ele></trkpt><trkpt lat="45.998551" lon="10.321177"><time>2025-04-28T10:08:29.000Z</time><ele>577.2</ele></trkpt><trkpt lat="45.998555" lon="10.321193"><time>2025-04-28T10:08:30.000Z</time><ele>577.2</ele></trkpt><trkpt lat="45.998561" lon="10.321205"><time>2025-04-28T10:08:31.000Z</time><ele>576.8</ele></trkpt><trkpt lat="45.998573" lon="10.321222"><time>2025-04-28T10:08:32.000Z</time><ele>576.6</ele></trkpt><trkpt lat="45.998586" lon="10.321232"><time>2025-04-28T10:08:33.000Z</time><ele>576.6</ele></trkpt><trkpt lat="45.998595" lon="10.321245"><time>2025-04-28T10:08:34.000Z</time><ele>576.4</ele></trkpt><trkpt lat="45.998605" lon="10.321258"><time>2025-04-28T10:08:35.000Z</time><ele>576</ele></trkpt><trkpt lat="45.998613" lon="10.321271"><time>2025-04-28T10:08:36.000Z</time><ele>576</ele></trkpt><trkpt lat="45.998631" lon="10.32129"><time>2025-04-28T10:08:37.000Z</time><ele>575.8</ele></trkpt><trkpt lat="45.998649" lon="10.32131"><time>2025-04-28T10:08:38.000Z</time><ele>575.6</ele></trkpt><trkpt lat="45.998661" lon="10.321322"><time>2025-04-28T10:08:39.000Z</time><ele>575.6</ele></trkpt><trkpt lat="45.998672" lon="10.321335"><time>2025-04-28T10:08:40.000Z</time><ele>575.4</ele></trkpt><trkpt lat="45.998682" lon="10.321348"><time>2025-04-28T10:08:41.000Z</time><ele>575.2</ele></trkpt><trkpt lat="45.99869" lon="10.321363"><time>2025-04-28T10:08:42.000Z</time><ele>575</ele></trkpt><trkpt lat="45.9987" lon="10.321378"><time>2025-04-28T10:08:43.000Z</time><ele>575</ele></trkpt><trkpt lat="45.99871" lon="10.321392"><time>2025-04-28T10:08:44.000Z</time><ele>575</ele></trkpt><trkpt lat="45.998717" lon="10.321405"><time>2025-04-28T10:08:45.000Z</time><ele>575</ele></trkpt><trkpt lat="45.998727" lon="10.321424"><time>2025-04-28T10:08:46.000Z</time><ele>574.8</ele></trkpt><trkpt lat="45.998734" lon="10.321442"><time>2025-04-28T10:08:47.000Z</time><ele>574.6</ele></trkpt><trkpt lat="45.998741" lon="10.32146"><time>2025-04-28T10:08:48.000Z</time><ele>574.6</ele></trkpt><trkpt lat="45.998752" lon="10.321475"><time>2025-04-28T10:08:49.000Z</time><ele>574.4</ele></trkpt><trkpt lat="45.998766" lon="10.321489"><time>2025-04-28T10:08:50.000Z</time><ele>574.4</ele></trkpt><trkpt lat="45.998778" lon="10.3215"><time>2025-04-28T10:08:51.000Z</time><ele>574.2</ele></trkpt><trkpt lat="45.998797" lon="10.321515"><time>2025-04-28T10:08:52.000Z</time><ele>574</ele></trkpt><trkpt lat="45.998805" lon="10.321527"><time>2025-04-28T10:08:53.000Z</time><ele>573.8</ele></trkpt><trkpt lat="45.998815" lon="10.321547"><time>2025-04-28T10:08:54.000Z</time><ele>573.6</ele></trkpt><trkpt lat="45.998823" lon="10.321557"><time>2025-04-28T10:08:55.000Z</time><ele>573.4</ele></trkpt><trkpt lat="45.998831" lon="10.321568"><time>2025-04-28T10:08:56.000Z</time><ele>573</ele></trkpt><trkpt lat="45.99884" lon="10.321577"><time>2025-04-28T10:08:57.000Z</time><ele>572.8</ele></trkpt><trkpt lat="45.998853" lon="10.321586"><time>2025-04-28T10:08:58.000Z</time><ele>572.8</ele></trkpt><trkpt lat="45.998863" lon="10.321595"><time>2025-04-28T10:08:59.000Z</time><ele>572.6</ele></trkpt><trkpt lat="45.99888" lon="10.321602"><time>2025-04-28T10:09:00.000Z</time><ele>572.4</ele></trkpt><trkpt lat="45.998895" lon="10.321607"><time>2025-04-28T10:09:01.000Z</time><ele>571.8</ele></trkpt><trkpt lat="45.99891" lon="10.321612"><time>2025-04-28T10:09:02.000Z</time><ele>571.6</ele></trkpt><trkpt lat="45.998921" lon="10.321616"><time>2025-04-28T10:09:03.000Z</time><ele>571.4</ele></trkpt><trkpt lat="45.998936" lon="10.321622"><time>2025-04-28T10:09:04.000Z</time><ele>571.2</ele></trkpt><trkpt lat="45.998948" lon="10.32163"><time>2025-04-28T10:09:05.000Z</time><ele>571</ele></trkpt><trkpt lat="45.998959" lon="10.321633"><time>2025-04-28T10:09:06.000Z</time><ele>570.8</ele></trkpt><trkpt lat="45.998971" lon="10.321636"><time>2025-04-28T10:09:07.000Z</time><ele>570.6</ele></trkpt><trkpt lat="45.998981" lon="10.321639"><time>2025-04-28T10:09:08.000Z</time><ele>570.6</ele></trkpt><trkpt lat="45.99899" lon="10.321649"><time>2025-04-28T10:09:09.000Z</time><ele>570.4</ele></trkpt><trkpt lat="45.999001" lon="10.321662"><time>2025-04-28T10:09:10.000Z</time><ele>570</ele></trkpt><trkpt lat="45.999011" lon="10.321674"><time>2025-04-28T10:09:11.000Z</time><ele>569.8</ele></trkpt><trkpt lat="45.999024" lon="10.32168"><time>2025-04-28T10:09:12.000Z</time><ele>569.8</ele></trkpt><trkpt lat="45.999034" lon="10.321686"><time>2025-04-28T10:09:13.000Z</time><ele>569.6</ele></trkpt><trkpt lat="45.999041" lon="10.321688"><time>2025-04-28T10:09:14.000Z</time><ele>569.6</ele></trkpt><trkpt lat="45.999047" lon="10.321692"><time>2025-04-28T10:09:15.000Z</time><ele>569.6</ele></trkpt><trkpt lat="45.99906" lon="10.321703"><time>2025-04-28T10:09:16.000Z</time><ele>569.4</ele></trkpt><trkpt lat="45.999074" lon="10.321713"><time>2025-04-28T10:09:17.000Z</time><ele>569.2</ele></trkpt><trkpt lat="45.999087" lon="10.321725"><time>2025-04-28T10:09:18.000Z</time><ele>569.2</ele></trkpt><trkpt lat="45.999103" lon="10.321737"><time>2025-04-28T10:09:19.000Z</time><ele>569</ele></trkpt><trkpt lat="45.999118" lon="10.32174"><time>2025-04-28T10:09:20.000Z</time><ele>569</ele></trkpt><trkpt lat="45.99913" lon="10.321739"><time>2025-04-28T10:09:21.000Z</time><ele>568.8</ele></trkpt><trkpt lat="45.999145" lon="10.321742"><time>2025-04-28T10:09:22.000Z</time><ele>568.6</ele></trkpt><trkpt lat="45.999153" lon="10.321743"><time>2025-04-28T10:09:23.000Z</time><ele>568.4</ele></trkpt><trkpt lat="45.999157" lon="10.32175"><time>2025-04-28T10:09:24.000Z</time><ele>568.2</ele></trkpt><trkpt lat="45.999162" lon="10.321763"><time>2025-04-28T10:09:25.000Z</time><ele>568</ele></trkpt><trkpt lat="45.999169" lon="10.321774"><time>2025-04-28T10:09:26.000Z</time><ele>567.8</ele></trkpt><trkpt lat="45.999187" lon="10.3218"><time>2025-04-28T10:09:27.000Z</time><ele>567.8</ele></trkpt><trkpt lat="45.999199" lon="10.321805"><time>2025-04-28T10:09:28.000Z</time><ele>567.6</ele></trkpt><trkpt lat="45.9992" lon="10.321794"><time>2025-04-28T10:09:29.000Z</time><ele>567.4</ele></trkpt><trkpt lat="45.999203" lon="10.321781"><time>2025-04-28T10:09:30.000Z</time><ele>567.2</ele></trkpt><trkpt lat="45.999204" lon="10.321787"><time>2025-04-28T10:09:31.000Z</time><ele>567.2</ele></trkpt><trkpt lat="45.999205" lon="10.32179"><time>2025-04-28T10:09:32.000Z</time><ele>567.2</ele></trkpt><trkpt lat="45.999207" lon="10.321792"><time>2025-04-28T10:09:33.000Z</time><ele>567.2</ele></trkpt><trkpt lat="45.999207" lon="10.321793"><time>2025-04-28T10:09:34.000Z</time><ele>567.2</ele></trkpt><trkpt lat="45.999208" lon="10.321792"><time>2025-04-28T10:09:35.000Z</time><ele>567</ele></trkpt><trkpt lat="45.999214" lon="10.321795"><time>2025-04-28T10:09:36.000Z</time><ele>566.8</ele></trkpt><trkpt lat="45.999215" lon="10.321797"><time>2025-04-28T10:09:37.000Z</time><ele>566.6</ele></trkpt><trkpt lat="45.999217" lon="10.321798"><time>2025-04-28T10:09:38.000Z</time><ele>566.6</ele></trkpt><trkpt lat="45.999217" lon="10.321798"><time>2025-04-28T10:09:39.000Z</time><ele>566.4</ele></trkpt><trkpt lat="45.999217" lon="10.3218"><time>2025-04-28T10:09:40.000Z</time><ele>566.4</ele></trkpt><trkpt lat="45.999217" lon="10.321802"><time>2025-04-28T10:09:41.000Z</time><ele>566.4</ele></trkpt><trkpt lat="45.999216" lon="10.321805"><time>2025-04-28T10:09:42.000Z</time><ele>566.4</ele></trkpt><trkpt lat="45.999216" lon="10.321807"><time>2025-04-28T10:09:43.000Z</time><ele>566.4</ele></trkpt><trkpt lat="45.999216" lon="10.321808"><time>2025-04-28T10:09:44.000Z</time><ele>566.4</ele></trkpt><trkpt lat="45.999217" lon="10.32181"><time>2025-04-28T10:09:45.000Z</time><ele>566.4</ele></trkpt><trkpt lat="45.999217" lon="10.32181"><time>2025-04-28T10:09:46.000Z</time><ele>566.4</ele></trkpt><trkpt lat="45.999217" lon="10.32181"><time>2025-04-28T10:09:47.000Z</time><ele>566.4</ele></trkpt><trkpt lat="45.999217" lon="10.32181"><time>2025-04-28T10:09:48.000Z</time><ele>566.4</ele></trkpt><trkpt lat="45.999217" lon="10.32181"><time>2025-04-28T10:09:49.000Z</time><ele>566.2</ele></trkpt><trkpt lat="45.999217" lon="10.32181"><time>2025-04-28T10:09:50.000Z</time><ele>566.2</ele></trkpt><trkpt lat="45.999217" lon="10.32181"><time>2025-04-28T10:09:51.000Z</time><ele>566.4</ele></trkpt><trkpt lat="45.999217" lon="10.32181"><time>2025-04-28T10:09:52.000Z</time><ele>566.4</ele></trkpt><trkpt lat="45.999217" lon="10.32181"><time>2025-04-28T10:09:53.000Z</time><ele>566.4</ele></trkpt><trkpt lat="45.999217" lon="10.32181"><time>2025-04-28T10:09:54.000Z</time><ele>566.4</ele></trkpt><trkpt lat="45.999217" lon="10.32181"><time>2025-04-28T10:09:55.000Z</time><ele>566.6</ele></trkpt><trkpt lat="45.999217" lon="10.32181"><time>2025-04-28T10:09:56.000Z</time><ele>566.6</ele></trkpt><trkpt lat="45.999217" lon="10.321808"><time>2025-04-28T10:09:57.000Z</time><ele>566.6</ele></trkpt><trkpt lat="45.999217" lon="10.321808"><time>2025-04-28T10:09:58.000Z</time><ele>566.6</ele></trkpt><trkpt lat="45.999217" lon="10.321808"><time>2025-04-28T10:09:59.000Z</time><ele>566.6</ele></trkpt><trkpt lat="45.999217" lon="10.321808"><time>2025-04-28T10:10:00.000Z</time><ele>566.6</ele></trkpt><trkpt lat="45.999218" lon="10.321808"><time>2025-04-28T10:10:01.000Z</time><ele>566.6</ele></trkpt><trkpt lat="45.999218" lon="10.321808"><time>2025-04-28T10:10:02.000Z</time><ele>566.6</ele></trkpt><trkpt lat="45.999219" lon="10.321808"><time>2025-04-28T10:10:03.000Z</time><ele>566.6</ele></trkpt><trkpt lat="45.99922" lon="10.321808"><time>2025-04-28T10:10:04.000Z</time><ele>566.6</ele></trkpt><trkpt lat="45.999221" lon="10.321808"><time>2025-04-28T10:10:05.000Z</time><ele>566.6</ele></trkpt><trkpt lat="45.999224" lon="10.321808"><time>2025-04-28T10:10:06.000Z</time><ele>566.6</ele></trkpt><trkpt lat="45.999224" lon="10.321808"><time>2025-04-28T10:10:07.000Z</time><ele>566.6</ele></trkpt><trkpt lat="45.999225" lon="10.321808"><time>2025-04-28T10:10:08.000Z</time><ele>566.6</ele></trkpt><trkpt lat="45.999227" lon="10.321809"><time>2025-04-28T10:10:09.000Z</time><ele>566.6</ele></trkpt><trkpt lat="45.999228" lon="10.32181"><time>2025-04-28T10:10:10.000Z</time><ele>566.6</ele></trkpt><trkpt lat="45.999228" lon="10.32181"><time>2025-04-28T10:10:11.000Z</time><ele>566.6</ele></trkpt><trkpt lat="45.999229" lon="10.321811"><time>2025-04-28T10:10:12.000Z</time><ele>566.4</ele></trkpt><trkpt lat="45.999229" lon="10.321811"><time>2025-04-28T10:10:13.000Z</time><ele>566.4</ele></trkpt><trkpt lat="45.99923" lon="10.321811"><time>2025-04-28T10:10:14.000Z</time><ele>566.4</ele></trkpt><trkpt lat="45.999234" lon="10.321815"><time>2025-04-28T10:10:15.000Z</time><ele>566.4</ele></trkpt><trkpt lat="45.999249" lon="10.321823"><time>2025-04-28T10:10:16.000Z</time><ele>566.4</ele></trkpt><trkpt lat="45.999264" lon="10.32184"><time>2025-04-28T10:10:17.000Z</time><ele>566.2</ele></trkpt><trkpt lat="45.999277" lon="10.321854"><time>2025-04-28T10:10:18.000Z</time><ele>566</ele></trkpt><trkpt lat="45.999292" lon="10.321867"><time>2025-04-28T10:10:19.000Z</time><ele>565.8</ele></trkpt><trkpt lat="45.999307" lon="10.321876"><time>2025-04-28T10:10:20.000Z</time><ele>565.8</ele></trkpt><trkpt lat="45.999322" lon="10.321893"><time>2025-04-28T10:10:21.000Z</time><ele>565.6</ele></trkpt><trkpt lat="45.999331" lon="10.321911"><time>2025-04-28T10:10:22.000Z</time><ele>565.4</ele></trkpt><trkpt lat="45.999339" lon="10.32193"><time>2025-04-28T10:10:23.000Z</time><ele>565.2</ele></trkpt><trkpt lat="45.999351" lon="10.321951"><time>2025-04-28T10:10:24.000Z</time><ele>565</ele></trkpt><trkpt lat="45.999356" lon="10.321962"><time>2025-04-28T10:10:25.000Z</time><ele>564.8</ele></trkpt><trkpt lat="45.999363" lon="10.32197"><time>2025-04-28T10:10:26.000Z</time><ele>564.6</ele></trkpt><trkpt lat="45.999371" lon="10.321979"><time>2025-04-28T10:10:27.000Z</time><ele>564.4</ele></trkpt><trkpt lat="45.99938" lon="10.321988"><time>2025-04-28T10:10:28.000Z</time><ele>564.2</ele></trkpt><trkpt lat="45.999391" lon="10.321999"><time>2025-04-28T10:10:29.000Z</time><ele>564</ele></trkpt><trkpt lat="45.999402" lon="10.322009"><time>2025-04-28T10:10:30.000Z</time><ele>563.8</ele></trkpt><trkpt lat="45.999416" lon="10.322024"><time>2025-04-28T10:10:31.000Z</time><ele>563.6</ele></trkpt><trkpt lat="45.999433" lon="10.322037"><time>2025-04-28T10:10:32.000Z</time><ele>563.4</ele></trkpt><trkpt lat="45.999448" lon="10.322039"><time>2025-04-28T10:10:33.000Z</time><ele>563.2</ele></trkpt><trkpt lat="45.999461" lon="10.32204"><time>2025-04-28T10:10:34.000Z</time><ele>563</ele></trkpt><trkpt lat="45.999479" lon="10.322047"><time>2025-04-28T10:10:35.000Z</time><ele>562.8</ele></trkpt><trkpt lat="45.999491" lon="10.322057"><time>2025-04-28T10:10:36.000Z</time><ele>562.6</ele></trkpt><trkpt lat="45.999504" lon="10.322066"><time>2025-04-28T10:10:37.000Z</time><ele>562.6</ele></trkpt><trkpt lat="45.999516" lon="10.322078"><time>2025-04-28T10:10:38.000Z</time><ele>562.6</ele></trkpt><trkpt lat="45.999528" lon="10.322089"><time>2025-04-28T10:10:39.000Z</time><ele>562.4</ele></trkpt><trkpt lat="45.999539" lon="10.3221"><time>2025-04-28T10:10:40.000Z</time><ele>562.4</ele></trkpt><trkpt lat="45.999549" lon="10.322117"><time>2025-04-28T10:10:41.000Z</time><ele>562.2</ele></trkpt><trkpt lat="45.999564" lon="10.322145"><time>2025-04-28T10:10:42.000Z</time><ele>562.2</ele></trkpt><trkpt lat="45.999577" lon="10.322166"><time>2025-04-28T10:10:43.000Z</time><ele>562.2</ele></trkpt><trkpt lat="45.999593" lon="10.322181"><time>2025-04-28T10:10:44.000Z</time><ele>562.2</ele></trkpt><trkpt lat="45.999609" lon="10.3222"><time>2025-04-28T10:10:45.000Z</time><ele>562.2</ele></trkpt><trkpt lat="45.999622" lon="10.322213"><time>2025-04-28T10:10:46.000Z</time><ele>562.2</ele></trkpt><trkpt lat="45.999631" lon="10.322226"><time>2025-04-28T10:10:47.000Z</time><ele>562.2</ele></trkpt><trkpt lat="45.999635" lon="10.322242"><time>2025-04-28T10:10:48.000Z</time><ele>562.2</ele></trkpt><trkpt lat="45.999648" lon="10.322257"><time>2025-04-28T10:10:49.000Z</time><ele>562</ele></trkpt><trkpt lat="45.999661" lon="10.322266"><time>2025-04-28T10:10:50.000Z</time><ele>561.8</ele></trkpt><trkpt lat="45.999673" lon="10.322276"><time>2025-04-28T10:10:51.000Z</time><ele>561.8</ele></trkpt><trkpt lat="45.999684" lon="10.322283"><time>2025-04-28T10:10:52.000Z</time><ele>561.4</ele></trkpt><trkpt lat="45.999695" lon="10.32229"><time>2025-04-28T10:10:53.000Z</time><ele>561.4</ele></trkpt><trkpt lat="45.999705" lon="10.322305"><time>2025-04-28T10:10:54.000Z</time><ele>561.2</ele></trkpt><trkpt lat="45.999716" lon="10.322323"><time>2025-04-28T10:10:55.000Z</time><ele>561</ele></trkpt><trkpt lat="45.999728" lon="10.322338"><time>2025-04-28T10:10:56.000Z</time><ele>560.8</ele></trkpt><trkpt lat="45.99974" lon="10.322349"><time>2025-04-28T10:10:57.000Z</time><ele>560.8</ele></trkpt><trkpt lat="45.999752" lon="10.322358"><time>2025-04-28T10:10:58.000Z</time><ele>560.6</ele></trkpt><trkpt lat="45.999765" lon="10.322371"><time>2025-04-28T10:10:59.000Z</time><ele>560.4</ele></trkpt><trkpt lat="45.999776" lon="10.322394"><time>2025-04-28T10:11:00.000Z</time><ele>560.2</ele></trkpt><trkpt lat="45.999791" lon="10.322417"><time>2025-04-28T10:11:01.000Z</time><ele>560</ele></trkpt><trkpt lat="45.999802" lon="10.322437"><time>2025-04-28T10:11:02.000Z</time><ele>559.8</ele></trkpt><trkpt lat="45.999808" lon="10.322437"><time>2025-04-28T10:11:03.000Z</time><ele>559.6</ele></trkpt><trkpt lat="45.999818" lon="10.322434"><time>2025-04-28T10:11:04.000Z</time><ele>559.2</ele></trkpt><trkpt lat="45.99983" lon="10.322439"><time>2025-04-28T10:11:05.000Z</time><ele>558.8</ele></trkpt><trkpt lat="45.999836" lon="10.322454"><time>2025-04-28T10:11:06.000Z</time><ele>558.4</ele></trkpt><trkpt lat="45.999843" lon="10.322465"><time>2025-04-28T10:11:07.000Z</time><ele>558.2</ele></trkpt><trkpt lat="45.999852" lon="10.322475"><time>2025-04-28T10:11:08.000Z</time><ele>558</ele></trkpt><trkpt lat="45.999863" lon="10.322488"><time>2025-04-28T10:11:09.000Z</time><ele>557.8</ele></trkpt><trkpt lat="45.999873" lon="10.322503"><time>2025-04-28T10:11:10.000Z</time><ele>557.6</ele></trkpt><trkpt lat="45.999887" lon="10.322518"><time>2025-04-28T10:11:11.000Z</time><ele>557.2</ele></trkpt><trkpt lat="45.999906" lon="10.322524"><time>2025-04-28T10:11:12.000Z</time><ele>557</ele></trkpt><trkpt lat="45.99992" lon="10.322534"><time>2025-04-28T10:11:13.000Z</time><ele>556.6</ele></trkpt><trkpt lat="45.999929" lon="10.322542"><time>2025-04-28T10:11:14.000Z</time><ele>556.2</ele></trkpt><trkpt lat="45.999939" lon="10.322547"><time>2025-04-28T10:11:15.000Z</time><ele>556</ele></trkpt><trkpt lat="45.999944" lon="10.322555"><time>2025-04-28T10:11:16.000Z</time><ele>555.6</ele></trkpt><trkpt lat="45.99995" lon="10.322562"><time>2025-04-28T10:11:17.000Z</time><ele>555.4</ele></trkpt><trkpt lat="45.999958" lon="10.322572"><time>2025-04-28T10:11:18.000Z</time><ele>555.4</ele></trkpt><trkpt lat="45.999967" lon="10.322578"><time>2025-04-28T10:11:19.000Z</time><ele>555.2</ele></trkpt><trkpt lat="45.999979" lon="10.322581"><time>2025-04-28T10:11:20.000Z</time><ele>555</ele></trkpt><trkpt lat="45.999987" lon="10.322588"><time>2025-04-28T10:11:21.000Z</time><ele>554.8</ele></trkpt><trkpt lat="45.999994" lon="10.322595"><time>2025-04-28T10:11:22.000Z</time><ele>554.6</ele></trkpt><trkpt lat="46.000003" lon="10.322601"><time>2025-04-28T10:11:23.000Z</time><ele>554.4</ele></trkpt><trkpt lat="46.000014" lon="10.322606"><time>2025-04-28T10:11:24.000Z</time><ele>554.2</ele></trkpt><trkpt lat="46.000023" lon="10.322607"><time>2025-04-28T10:11:25.000Z</time><ele>554</ele></trkpt><trkpt lat="46.000034" lon="10.322611"><time>2025-04-28T10:11:26.000Z</time><ele>553.8</ele></trkpt><trkpt lat="46.000045" lon="10.322616"><time>2025-04-28T10:11:27.000Z</time><ele>553.6</ele></trkpt><trkpt lat="46.000055" lon="10.322618"><time>2025-04-28T10:11:28.000Z</time><ele>553.4</ele></trkpt><trkpt lat="46.000063" lon="10.322623"><time>2025-04-28T10:11:29.000Z</time><ele>553.4</ele></trkpt><trkpt lat="46.000068" lon="10.322622"><time>2025-04-28T10:11:30.000Z</time><ele>553</ele></trkpt><trkpt lat="46.000072" lon="10.322622"><time>2025-04-28T10:11:31.000Z</time><ele>553</ele></trkpt><trkpt lat="46.000076" lon="10.32262"><time>2025-04-28T10:11:32.000Z</time><ele>552.8</ele></trkpt><trkpt lat="46.00008" lon="10.322621"><time>2025-04-28T10:11:33.000Z</time><ele>552.6</ele></trkpt><trkpt lat="46.000086" lon="10.322627"><time>2025-04-28T10:11:34.000Z</time><ele>552.4</ele></trkpt><trkpt lat="46.000096" lon="10.322633"><time>2025-04-28T10:11:35.000Z</time><ele>552.2</ele></trkpt><trkpt lat="46.000105" lon="10.322638"><time>2025-04-28T10:11:36.000Z</time><ele>552</ele></trkpt><trkpt lat="46.000114" lon="10.322647"><time>2025-04-28T10:11:37.000Z</time><ele>551.6</ele></trkpt><trkpt lat="46.000126" lon="10.322671"><time>2025-04-28T10:11:38.000Z</time><ele>551.4</ele></trkpt><trkpt lat="46.000138" lon="10.32269"><time>2025-04-28T10:11:39.000Z</time><ele>551.2</ele></trkpt><trkpt lat="46.000155" lon="10.322708"><time>2025-04-28T10:11:40.000Z</time><ele>550.8</ele></trkpt><trkpt lat="46.000168" lon="10.322724"><time>2025-04-28T10:11:41.000Z</time><ele>550.6</ele></trkpt><trkpt lat="46.000183" lon="10.322724"><time>2025-04-28T10:11:42.000Z</time><ele>550.4</ele></trkpt><trkpt lat="46.000195" lon="10.322724"><time>2025-04-28T10:11:43.000Z</time><ele>550.2</ele></trkpt><trkpt lat="46.000206" lon="10.322723"><time>2025-04-28T10:11:44.000Z</time><ele>550</ele></trkpt><trkpt lat="46.000217" lon="10.322717"><time>2025-04-28T10:11:45.000Z</time><ele>550</ele></trkpt><trkpt lat="46.000228" lon="10.322714"><time>2025-04-28T10:11:46.000Z</time><ele>549.6</ele></trkpt><trkpt lat="46.000241" lon="10.32273"><time>2025-04-28T10:11:47.000Z</time><ele>549.6</ele></trkpt><trkpt lat="46.000251" lon="10.322738"><time>2025-04-28T10:11:48.000Z</time><ele>549.4</ele></trkpt><trkpt lat="46.000256" lon="10.322749"><time>2025-04-28T10:11:49.000Z</time><ele>549.2</ele></trkpt><trkpt lat="46.000262" lon="10.32276"><time>2025-04-28T10:11:50.000Z</time><ele>549.2</ele></trkpt><trkpt lat="46.000268" lon="10.322768"><time>2025-04-28T10:11:51.000Z</time><ele>548.8</ele></trkpt><trkpt lat="46.000273" lon="10.322774"><time>2025-04-28T10:11:52.000Z</time><ele>548.6</ele></trkpt><trkpt lat="46.000285" lon="10.322779"><time>2025-04-28T10:11:53.000Z</time><ele>548.4</ele></trkpt><trkpt lat="46.000298" lon="10.322787"><time>2025-04-28T10:11:54.000Z</time><ele>548.2</ele></trkpt><trkpt lat="46.000311" lon="10.322796"><time>2025-04-28T10:11:55.000Z</time><ele>548</ele></trkpt><trkpt lat="46.000321" lon="10.322811"><time>2025-04-28T10:11:56.000Z</time><ele>547.8</ele></trkpt><trkpt lat="46.00033" lon="10.322821"><time>2025-04-28T10:11:57.000Z</time><ele>547.6</ele></trkpt><trkpt lat="46.000341" lon="10.322828"><time>2025-04-28T10:11:58.000Z</time><ele>547.4</ele></trkpt><trkpt lat="46.000353" lon="10.322832"><time>2025-04-28T10:11:59.000Z</time><ele>547.2</ele></trkpt><trkpt lat="46.000361" lon="10.322826"><time>2025-04-28T10:12:00.000Z</time><ele>547</ele></trkpt><trkpt lat="46.000367" lon="10.322826"><time>2025-04-28T10:12:01.000Z</time><ele>546.8</ele></trkpt><trkpt lat="46.000375" lon="10.322825"><time>2025-04-28T10:12:02.000Z</time><ele>546.6</ele></trkpt><trkpt lat="46.000387" lon="10.322833"><time>2025-04-28T10:12:03.000Z</time><ele>546.4</ele></trkpt><trkpt lat="46.000403" lon="10.322842"><time>2025-04-28T10:12:04.000Z</time><ele>546.2</ele></trkpt><trkpt lat="46.000414" lon="10.322856"><time>2025-04-28T10:12:05.000Z</time><ele>546.2</ele></trkpt><trkpt lat="46.000425" lon="10.322867"><time>2025-04-28T10:12:06.000Z</time><ele>546</ele></trkpt><trkpt lat="46.00044" lon="10.322873"><time>2025-04-28T10:12:07.000Z</time><ele>545.8</ele></trkpt><trkpt lat="46.000455" lon="10.32288"><time>2025-04-28T10:12:08.000Z</time><ele>545.6</ele></trkpt><trkpt lat="46.000471" lon="10.322879"><time>2025-04-28T10:12:09.000Z</time><ele>545.4</ele></trkpt><trkpt lat="46.000487" lon="10.322878"><time>2025-04-28T10:12:10.000Z</time><ele>545.2</ele></trkpt><trkpt lat="46.000505" lon="10.322881"><time>2025-04-28T10:12:11.000Z</time><ele>545</ele></trkpt><trkpt lat="46.000518" lon="10.322887"><time>2025-04-28T10:12:12.000Z</time><ele>544.8</ele></trkpt><trkpt lat="46.000527" lon="10.322901"><time>2025-04-28T10:12:13.000Z</time><ele>544.6</ele></trkpt><trkpt lat="46.000535" lon="10.322913"><time>2025-04-28T10:12:14.000Z</time><ele>544.4</ele></trkpt><trkpt lat="46.000547" lon="10.322932"><time>2025-04-28T10:12:15.000Z</time><ele>544.4</ele></trkpt><trkpt lat="46.000549" lon="10.322934"><time>2025-04-28T10:12:16.000Z</time><ele>544.2</ele></trkpt><trkpt lat="46.000552" lon="10.322936"><time>2025-04-28T10:12:17.000Z</time><ele>544</ele></trkpt><trkpt lat="46.000561" lon="10.322955"><time>2025-04-28T10:12:18.000Z</time><ele>543.8</ele></trkpt><trkpt lat="46.000567" lon="10.322969"><time>2025-04-28T10:12:19.000Z</time><ele>543.6</ele></trkpt><trkpt lat="46.000571" lon="10.322981"><time>2025-04-28T10:12:20.000Z</time><ele>543.6</ele></trkpt><trkpt lat="46.000582" lon="10.322996"><time>2025-04-28T10:12:21.000Z</time><ele>543.2</ele></trkpt><trkpt lat="46.000591" lon="10.32301"><time>2025-04-28T10:12:22.000Z</time><ele>543</ele></trkpt><trkpt lat="46.000601" lon="10.323026"><time>2025-04-28T10:12:23.000Z</time><ele>543</ele></trkpt><trkpt lat="46.000607" lon="10.323032"><time>2025-04-28T10:12:24.000Z</time><ele>542.6</ele></trkpt><trkpt lat="46.000619" lon="10.323034"><time>2025-04-28T10:12:25.000Z</time><ele>542.4</ele></trkpt><trkpt lat="46.000633" lon="10.323026"><time>2025-04-28T10:12:26.000Z</time><ele>542.2</ele></trkpt><trkpt lat="46.000649" lon="10.323025"><time>2025-04-28T10:12:27.000Z</time><ele>542</ele></trkpt><trkpt lat="46.000667" lon="10.323016"><time>2025-04-28T10:12:28.000Z</time><ele>541.8</ele></trkpt><trkpt lat="46.000686" lon="10.323024"><time>2025-04-28T10:12:29.000Z</time><ele>541.6</ele></trkpt><trkpt lat="46.000706" lon="10.323042"><time>2025-04-28T10:12:30.000Z</time><ele>541.6</ele></trkpt><trkpt lat="46.000722" lon="10.323061"><time>2025-04-28T10:12:31.000Z</time><ele>541.4</ele></trkpt><trkpt lat="46.000732" lon="10.323084"><time>2025-04-28T10:12:32.000Z</time><ele>541.4</ele></trkpt><trkpt lat="46.000745" lon="10.323102"><time>2025-04-28T10:12:33.000Z</time><ele>541.2</ele></trkpt><trkpt lat="46.000759" lon="10.323105"><time>2025-04-28T10:12:34.000Z</time><ele>541</ele></trkpt><trkpt lat="46.000769" lon="10.323109"><time>2025-04-28T10:12:35.000Z</time><ele>540.8</ele></trkpt><trkpt lat="46.000779" lon="10.323118"><time>2025-04-28T10:12:36.000Z</time><ele>540.6</ele></trkpt><trkpt lat="46.00079" lon="10.323127"><time>2025-04-28T10:12:37.000Z</time><ele>540.4</ele></trkpt><trkpt lat="46.000804" lon="10.323145"><time>2025-04-28T10:12:38.000Z</time><ele>540.2</ele></trkpt><trkpt lat="46.000815" lon="10.323167"><time>2025-04-28T10:12:39.000Z</time><ele>540</ele></trkpt><trkpt lat="46.000825" lon="10.323199"><time>2025-04-28T10:12:40.000Z</time><ele>539.8</ele></trkpt><trkpt lat="46.000833" lon="10.323219"><time>2025-04-28T10:12:41.000Z</time><ele>539.6</ele></trkpt><trkpt lat="46.000837" lon="10.323223"><time>2025-04-28T10:12:42.000Z</time><ele>539.4</ele></trkpt><trkpt lat="46.000844" lon="10.32323"><time>2025-04-28T10:12:43.000Z</time><ele>539.2</ele></trkpt><trkpt lat="46.000856" lon="10.323231"><time>2025-04-28T10:12:44.000Z</time><ele>539</ele></trkpt><trkpt lat="46.000864" lon="10.323223"><time>2025-04-28T10:12:45.000Z</time><ele>538.8</ele></trkpt><trkpt lat="46.00087" lon="10.323216"><time>2025-04-28T10:12:46.000Z</time><ele>538.6</ele></trkpt><trkpt lat="46.000879" lon="10.323225"><time>2025-04-28T10:12:47.000Z</time><ele>538.4</ele></trkpt><trkpt lat="46.00088" lon="10.323238"><time>2025-04-28T10:12:48.000Z</time><ele>538.2</ele></trkpt><trkpt lat="46.000887" lon="10.323248"><time>2025-04-28T10:12:49.000Z</time><ele>538.2</ele></trkpt><trkpt lat="46.000899" lon="10.323262"><time>2025-04-28T10:12:50.000Z</time><ele>538</ele></trkpt><trkpt lat="46.000908" lon="10.323276"><time>2025-04-28T10:12:51.000Z</time><ele>538</ele></trkpt><trkpt lat="46.000913" lon="10.323289"><time>2025-04-28T10:12:52.000Z</time><ele>537.8</ele></trkpt><trkpt lat="46.000924" lon="10.323292"><time>2025-04-28T10:12:53.000Z</time><ele>537.8</ele></trkpt><trkpt lat="46.000935" lon="10.3233"><time>2025-04-28T10:12:54.000Z</time><ele>537.6</ele></trkpt><trkpt lat="46.000952" lon="10.323317"><time>2025-04-28T10:12:55.000Z</time><ele>537.4</ele></trkpt><trkpt lat="46.000964" lon="10.323334"><time>2025-04-28T10:12:56.000Z</time><ele>537.2</ele></trkpt><trkpt lat="46.000971" lon="10.323341"><time>2025-04-28T10:12:57.000Z</time><ele>537.2</ele></trkpt><trkpt lat="46.000983" lon="10.323354"><time>2025-04-28T10:12:58.000Z</time><ele>537</ele></trkpt><trkpt lat="46.000998" lon="10.323375"><time>2025-04-28T10:12:59.000Z</time><ele>537</ele></trkpt><trkpt lat="46.001006" lon="10.323387"><time>2025-04-28T10:13:00.000Z</time><ele>536.8</ele></trkpt><trkpt lat="46.001011" lon="10.323402"><time>2025-04-28T10:13:01.000Z</time><ele>536.8</ele></trkpt><trkpt lat="46.001021" lon="10.323417"><time>2025-04-28T10:13:02.000Z</time><ele>536.6</ele></trkpt><trkpt lat="46.00103" lon="10.323432"><time>2025-04-28T10:13:03.000Z</time><ele>536.6</ele></trkpt><trkpt lat="46.00104" lon="10.323443"><time>2025-04-28T10:13:04.000Z</time><ele>536.4</ele></trkpt><trkpt lat="46.001047" lon="10.323458"><time>2025-04-28T10:13:05.000Z</time><ele>536.4</ele></trkpt><trkpt lat="46.001055" lon="10.323468"><time>2025-04-28T10:13:06.000Z</time><ele>536.2</ele></trkpt><trkpt lat="46.001069" lon="10.323475"><time>2025-04-28T10:13:07.000Z</time><ele>536</ele></trkpt><trkpt lat="46.001083" lon="10.323483"><time>2025-04-28T10:13:08.000Z</time><ele>536</ele></trkpt><trkpt lat="46.001096" lon="10.323494"><time>2025-04-28T10:13:09.000Z</time><ele>535.8</ele></trkpt><trkpt lat="46.00111" lon="10.323506"><time>2025-04-28T10:13:10.000Z</time><ele>535.8</ele></trkpt><trkpt lat="46.001122" lon="10.323521"><time>2025-04-28T10:13:11.000Z</time><ele>535.6</ele></trkpt><trkpt lat="46.001129" lon="10.32353"><time>2025-04-28T10:13:12.000Z</time><ele>535.4</ele></trkpt><trkpt lat="46.001136" lon="10.323536"><time>2025-04-28T10:13:13.000Z</time><ele>535.2</ele></trkpt><trkpt lat="46.001147" lon="10.323544"><time>2025-04-28T10:13:14.000Z</time><ele>535</ele></trkpt><trkpt lat="46.001154" lon="10.323549"><time>2025-04-28T10:13:15.000Z</time><ele>534.8</ele></trkpt><trkpt lat="46.001157" lon="10.323551"><time>2025-04-28T10:13:16.000Z</time><ele>534.6</ele></trkpt><trkpt lat="46.001158" lon="10.323549"><time>2025-04-28T10:13:17.000Z</time><ele>534.6</ele></trkpt><trkpt lat="46.001164" lon="10.323548"><time>2025-04-28T10:13:18.000Z</time><ele>534.4</ele></trkpt><trkpt lat="46.001177" lon="10.323546"><time>2025-04-28T10:13:19.000Z</time><ele>534.2</ele></trkpt><trkpt lat="46.001193" lon="10.323539"><time>2025-04-28T10:13:20.000Z</time><ele>534</ele></trkpt><trkpt lat="46.001206" lon="10.323537"><time>2025-04-28T10:13:21.000Z</time><ele>534</ele></trkpt><trkpt lat="46.001223" lon="10.32355"><time>2025-04-28T10:13:22.000Z</time><ele>533.8</ele></trkpt><trkpt lat="46.00124" lon="10.323565"><time>2025-04-28T10:13:23.000Z</time><ele>533.8</ele></trkpt><trkpt lat="46.001254" lon="10.323571"><time>2025-04-28T10:13:24.000Z</time><ele>533.6</ele></trkpt><trkpt lat="46.001267" lon="10.323575"><time>2025-04-28T10:13:25.000Z</time><ele>533.4</ele></trkpt><trkpt lat="46.001281" lon="10.323581"><time>2025-04-28T10:13:26.000Z</time><ele>533.4</ele></trkpt><trkpt lat="46.001293" lon="10.323589"><time>2025-04-28T10:13:27.000Z</time><ele>533.2</ele></trkpt><trkpt lat="46.0013" lon="10.323591"><time>2025-04-28T10:13:28.000Z</time><ele>533.2</ele></trkpt><trkpt lat="46.001311" lon="10.323594"><time>2025-04-28T10:13:29.000Z</time><ele>533</ele></trkpt><trkpt lat="46.001322" lon="10.323601"><time>2025-04-28T10:13:30.000Z</time><ele>533</ele></trkpt><trkpt lat="46.001333" lon="10.323607"><time>2025-04-28T10:13:31.000Z</time><ele>533</ele></trkpt><trkpt lat="46.001344" lon="10.32362"><time>2025-04-28T10:13:32.000Z</time><ele>533</ele></trkpt><trkpt lat="46.001349" lon="10.323622"><time>2025-04-28T10:13:33.000Z</time><ele>533</ele></trkpt><trkpt lat="46.001353" lon="10.323622"><time>2025-04-28T10:13:34.000Z</time><ele>532.8</ele></trkpt><trkpt lat="46.001365" lon="10.323631"><time>2025-04-28T10:13:35.000Z</time><ele>532.8</ele></trkpt><trkpt lat="46.001368" lon="10.323651"><time>2025-04-28T10:13:36.000Z</time><ele>532.8</ele></trkpt><trkpt lat="46.001375" lon="10.323663"><time>2025-04-28T10:13:37.000Z</time><ele>532.6</ele></trkpt><trkpt lat="46.001379" lon="10.32367"><time>2025-04-28T10:13:38.000Z</time><ele>532.6</ele></trkpt><trkpt lat="46.001386" lon="10.323673"><time>2025-04-28T10:13:39.000Z</time><ele>532.6</ele></trkpt><trkpt lat="46.001393" lon="10.323685"><time>2025-04-28T10:13:40.000Z</time><ele>532.6</ele></trkpt><trkpt lat="46.001401" lon="10.323695"><time>2025-04-28T10:13:41.000Z</time><ele>532.4</ele></trkpt><trkpt lat="46.001405" lon="10.323701"><time>2025-04-28T10:13:42.000Z</time><ele>532.4</ele></trkpt><trkpt lat="46.001411" lon="10.323704"><time>2025-04-28T10:13:43.000Z</time><ele>532.4</ele></trkpt><trkpt lat="46.001414" lon="10.323718"><time>2025-04-28T10:13:44.000Z</time><ele>532.4</ele></trkpt><trkpt lat="46.001423" lon="10.323734"><time>2025-04-28T10:13:45.000Z</time><ele>532.4</ele></trkpt><trkpt lat="46.00143" lon="10.323747"><time>2025-04-28T10:13:46.000Z</time><ele>532.4</ele></trkpt><trkpt lat="46.001445" lon="10.32376"><time>2025-04-28T10:13:47.000Z</time><ele>532.2</ele></trkpt><trkpt lat="46.001454" lon="10.32377"><time>2025-04-28T10:13:48.000Z</time><ele>532</ele></trkpt><trkpt lat="46.001459" lon="10.323778"><time>2025-04-28T10:13:49.000Z</time><ele>532</ele></trkpt><trkpt lat="46.001465" lon="10.323777"><time>2025-04-28T10:13:50.000Z</time><ele>532</ele></trkpt><trkpt lat="46.00147" lon="10.323787"><time>2025-04-28T10:13:51.000Z</time><ele>531.8</ele></trkpt><trkpt lat="46.001474" lon="10.323793"><time>2025-04-28T10:13:52.000Z</time><ele>531.6</ele></trkpt><trkpt lat="46.001478" lon="10.323796"><time>2025-04-28T10:13:53.000Z</time><ele>531.6</ele></trkpt><trkpt lat="46.001487" lon="10.323795"><time>2025-04-28T10:13:54.000Z</time><ele>531.6</ele></trkpt><trkpt lat="46.001498" lon="10.323793"><time>2025-04-28T10:13:55.000Z</time><ele>531.4</ele></trkpt><trkpt lat="46.001514" lon="10.323794"><time>2025-04-28T10:13:56.000Z</time><ele>531.4</ele></trkpt><trkpt lat="46.001529" lon="10.323801"><time>2025-04-28T10:13:57.000Z</time><ele>531.4</ele></trkpt><trkpt lat="46.001536" lon="10.323824"><time>2025-04-28T10:13:58.000Z</time><ele>531.4</ele></trkpt><trkpt lat="46.001541" lon="10.323831"><time>2025-04-28T10:13:59.000Z</time><ele>531.2</ele></trkpt><trkpt lat="46.00155" lon="10.323833"><time>2025-04-28T10:14:00.000Z</time><ele>531</ele></trkpt><trkpt lat="46.001562" lon="10.323836"><time>2025-04-28T10:14:01.000Z</time><ele>531</ele></trkpt><trkpt lat="46.001566" lon="10.323844"><time>2025-04-28T10:14:02.000Z</time><ele>531</ele></trkpt><trkpt lat="46.00157" lon="10.323852"><time>2025-04-28T10:14:03.000Z</time><ele>531</ele></trkpt><trkpt lat="46.001576" lon="10.323854"><time>2025-04-28T10:14:04.000Z</time><ele>531</ele></trkpt><trkpt lat="46.001585" lon="10.323853"><time>2025-04-28T10:14:05.000Z</time><ele>531</ele></trkpt><trkpt lat="46.001593" lon="10.323859"><time>2025-04-28T10:14:06.000Z</time><ele>531</ele></trkpt><trkpt lat="46.001602" lon="10.323864"><time>2025-04-28T10:14:07.000Z</time><ele>530.8</ele></trkpt><trkpt lat="46.001613" lon="10.323866"><time>2025-04-28T10:14:08.000Z</time><ele>530.8</ele></trkpt><trkpt lat="46.001626" lon="10.323869"><time>2025-04-28T10:14:09.000Z</time><ele>530.8</ele></trkpt><trkpt lat="46.00164" lon="10.323872"><time>2025-04-28T10:14:10.000Z</time><ele>530.8</ele></trkpt><trkpt lat="46.001651" lon="10.323882"><time>2025-04-28T10:14:11.000Z</time><ele>530.8</ele></trkpt><trkpt lat="46.001662" lon="10.323892"><time>2025-04-28T10:14:12.000Z</time><ele>530.8</ele></trkpt><trkpt lat="46.001674" lon="10.323901"><time>2025-04-28T10:14:13.000Z</time><ele>530.6</ele></trkpt><trkpt lat="46.001685" lon="10.323903"><time>2025-04-28T10:14:14.000Z</time><ele>530.6</ele></trkpt><trkpt lat="46.001692" lon="10.323902"><time>2025-04-28T10:14:15.000Z</time><ele>530.6</ele></trkpt><trkpt lat="46.001703" lon="10.323902"><time>2025-04-28T10:14:16.000Z</time><ele>530.6</ele></trkpt><trkpt lat="46.001712" lon="10.323902"><time>2025-04-28T10:14:17.000Z</time><ele>530.6</ele></trkpt><trkpt lat="46.001723" lon="10.323901"><time>2025-04-28T10:14:18.000Z</time><ele>530.4</ele></trkpt><trkpt lat="46.001732" lon="10.323902"><time>2025-04-28T10:14:19.000Z</time><ele>530.4</ele></trkpt><trkpt lat="46.001741" lon="10.323903"><time>2025-04-28T10:14:20.000Z</time><ele>530.4</ele></trkpt><trkpt lat="46.001754" lon="10.323907"><time>2025-04-28T10:14:21.000Z</time><ele>530.4</ele></trkpt><trkpt lat="46.001765" lon="10.323911"><time>2025-04-28T10:14:22.000Z</time><ele>530.2</ele></trkpt><trkpt lat="46.001773" lon="10.32391"><time>2025-04-28T10:14:23.000Z</time><ele>530.2</ele></trkpt><trkpt lat="46.001782" lon="10.323912"><time>2025-04-28T10:14:24.000Z</time><ele>530</ele></trkpt><trkpt lat="46.001793" lon="10.323919"><time>2025-04-28T10:14:25.000Z</time><ele>530</ele></trkpt><trkpt lat="46.001804" lon="10.323926"><time>2025-04-28T10:14:26.000Z</time><ele>529.8</ele></trkpt><trkpt lat="46.001813" lon="10.323931"><time>2025-04-28T10:14:27.000Z</time><ele>529.8</ele></trkpt><trkpt lat="46.001825" lon="10.32394"><time>2025-04-28T10:14:28.000Z</time><ele>529.8</ele></trkpt><trkpt lat="46.001843" lon="10.323956"><time>2025-04-28T10:14:29.000Z</time><ele>529.6</ele></trkpt><trkpt lat="46.001858" lon="10.323975"><time>2025-04-28T10:14:30.000Z</time><ele>529.6</ele></trkpt><trkpt lat="46.001873" lon="10.323985"><time>2025-04-28T10:14:31.000Z</time><ele>529.4</ele></trkpt><trkpt lat="46.001879" lon="10.323989"><time>2025-04-28T10:14:32.000Z</time><ele>529.4</ele></trkpt><trkpt lat="46.001899" lon="10.323999"><time>2025-04-28T10:14:33.000Z</time><ele>529.4</ele></trkpt><trkpt lat="46.001921" lon="10.324024"><time>2025-04-28T10:14:34.000Z</time><ele>529.2</ele></trkpt><trkpt lat="46.001934" lon="10.324039"><time>2025-04-28T10:14:35.000Z</time><ele>529.2</ele></trkpt><trkpt lat="46.00194" lon="10.324054"><time>2025-04-28T10:14:36.000Z</time><ele>529.2</ele></trkpt><trkpt lat="46.001945" lon="10.324064"><time>2025-04-28T10:14:37.000Z</time><ele>529</ele></trkpt><trkpt lat="46.00195" lon="10.324072"><time>2025-04-28T10:14:38.000Z</time><ele>529</ele></trkpt><trkpt lat="46.001957" lon="10.324069"><time>2025-04-28T10:14:39.000Z</time><ele>529</ele></trkpt><trkpt lat="46.001958" lon="10.324069"><time>2025-04-28T10:14:40.000Z</time><ele>528.8</ele></trkpt><trkpt lat="46.001955" lon="10.324069"><time>2025-04-28T10:14:41.000Z</time><ele>528.8</ele></trkpt><trkpt lat="46.001954" lon="10.324069"><time>2025-04-28T10:14:42.000Z</time><ele>528.8</ele></trkpt><trkpt lat="46.001949" lon="10.324098"><time>2025-04-28T10:14:43.000Z</time><ele>528.6</ele></trkpt><trkpt lat="46.001952" lon="10.324112"><time>2025-04-28T10:14:44.000Z</time><ele>528.6</ele></trkpt><trkpt lat="46.001966" lon="10.324122"><time>2025-04-28T10:14:45.000Z</time><ele>528.4</ele></trkpt><trkpt lat="46.001972" lon="10.324129"><time>2025-04-28T10:14:46.000Z</time><ele>528.4</ele></trkpt><trkpt lat="46.001977" lon="10.324137"><time>2025-04-28T10:14:47.000Z</time><ele>528.4</ele></trkpt><trkpt lat="46.001986" lon="10.324131"><time>2025-04-28T10:14:48.000Z</time><ele>528.2</ele></trkpt><trkpt lat="46.002002" lon="10.324123"><time>2025-04-28T10:14:49.000Z</time><ele>528.2</ele></trkpt><trkpt lat="46.002007" lon="10.324117"><time>2025-04-28T10:14:50.000Z</time><ele>528</ele></trkpt><trkpt lat="46.002019" lon="10.324123"><time>2025-04-28T10:14:51.000Z</time><ele>528</ele></trkpt><trkpt lat="46.002028" lon="10.324125"><time>2025-04-28T10:14:52.000Z</time><ele>528</ele></trkpt><trkpt lat="46.00204" lon="10.324135"><time>2025-04-28T10:14:53.000Z</time><ele>528</ele></trkpt><trkpt lat="46.002051" lon="10.324144"><time>2025-04-28T10:14:54.000Z</time><ele>527.8</ele></trkpt><trkpt lat="46.002061" lon="10.324151"><time>2025-04-28T10:14:55.000Z</time><ele>527.8</ele></trkpt><trkpt lat="46.002066" lon="10.324154"><time>2025-04-28T10:14:56.000Z</time><ele>527.8</ele></trkpt><trkpt lat="46.002069" lon="10.324155"><time>2025-04-28T10:14:57.000Z</time><ele>527.8</ele></trkpt><trkpt lat="46.002068" lon="10.324155"><time>2025-04-28T10:14:58.000Z</time><ele>527.8</ele></trkpt><trkpt lat="46.002067" lon="10.324156"><time>2025-04-28T10:14:59.000Z</time><ele>527.8</ele></trkpt><trkpt lat="46.002066" lon="10.324157"><time>2025-04-28T10:15:00.000Z</time><ele>527.8</ele></trkpt><trkpt lat="46.002065" lon="10.324159"><time>2025-04-28T10:15:01.000Z</time><ele>527.8</ele></trkpt><trkpt lat="46.002066" lon="10.32416"><time>2025-04-28T10:15:02.000Z</time><ele>527.8</ele></trkpt><trkpt lat="46.002066" lon="10.324159"><time>2025-04-28T10:15:03.000Z</time><ele>527.8</ele></trkpt><trkpt lat="46.002066" lon="10.324157"><time>2025-04-28T10:15:04.000Z</time><ele>527.8</ele></trkpt><trkpt lat="46.002067" lon="10.324155"><time>2025-04-28T10:15:05.000Z</time><ele>527.8</ele></trkpt><trkpt lat="46.002069" lon="10.324152"><time>2025-04-28T10:15:06.000Z</time><ele>527.8</ele></trkpt><trkpt lat="46.002069" lon="10.324149"><time>2025-04-28T10:15:07.000Z</time><ele>528</ele></trkpt><trkpt lat="46.002076" lon="10.324152"><time>2025-04-28T10:15:08.000Z</time><ele>528</ele></trkpt><trkpt lat="46.002075" lon="10.324153"><time>2025-04-28T10:15:09.000Z</time><ele>528</ele></trkpt><trkpt lat="46.002072" lon="10.324153"><time>2025-04-28T10:15:10.000Z</time><ele>528</ele></trkpt><trkpt lat="46.00207" lon="10.324153"><time>2025-04-28T10:15:11.000Z</time><ele>528</ele></trkpt><trkpt lat="46.00207" lon="10.324152"><time>2025-04-28T10:15:12.000Z</time><ele>528</ele></trkpt><trkpt lat="46.002068" lon="10.32415"><time>2025-04-28T10:15:13.000Z</time><ele>528</ele></trkpt><trkpt lat="46.002065" lon="10.324147"><time>2025-04-28T10:15:14.000Z</time><ele>528</ele></trkpt><trkpt lat="46.002064" lon="10.324148"><time>2025-04-28T10:15:15.000Z</time><ele>528</ele></trkpt><trkpt lat="46.002071" lon="10.32415"><time>2025-04-28T10:15:16.000Z</time><ele>528</ele></trkpt><trkpt lat="46.00208" lon="10.324152"><time>2025-04-28T10:15:17.000Z</time><ele>527.8</ele></trkpt><trkpt lat="46.002088" lon="10.324161"><time>2025-04-28T10:15:18.000Z</time><ele>527.6</ele></trkpt><trkpt lat="46.002098" lon="10.324172"><time>2025-04-28T10:15:19.000Z</time><ele>527.6</ele></trkpt><trkpt lat="46.002108" lon="10.324181"><time>2025-04-28T10:15:20.000Z</time><ele>527.4</ele></trkpt><trkpt lat="46.002119" lon="10.324192"><time>2025-04-28T10:15:21.000Z</time><ele>527.2</ele></trkpt><trkpt lat="46.002131" lon="10.32421"><time>2025-04-28T10:15:22.000Z</time><ele>527</ele></trkpt><trkpt lat="46.002145" lon="10.324226"><time>2025-04-28T10:15:23.000Z</time><ele>526.8</ele></trkpt><trkpt lat="46.002159" lon="10.324248"><time>2025-04-28T10:15:24.000Z</time><ele>526.6</ele></trkpt><trkpt lat="46.002173" lon="10.324263"><time>2025-04-28T10:15:25.000Z</time><ele>526.4</ele></trkpt><trkpt lat="46.002183" lon="10.324265"><time>2025-04-28T10:15:26.000Z</time><ele>526.4</ele></trkpt><trkpt lat="46.002192" lon="10.324268"><time>2025-04-28T10:15:27.000Z</time><ele>526.2</ele></trkpt><trkpt lat="46.0022" lon="10.324266"><time>2025-04-28T10:15:28.000Z</time><ele>525.8</ele></trkpt><trkpt lat="46.002209" lon="10.324265"><time>2025-04-28T10:15:29.000Z</time><ele>525.6</ele></trkpt><trkpt lat="46.002222" lon="10.324273"><time>2025-04-28T10:15:30.000Z</time><ele>525.4</ele></trkpt><trkpt lat="46.002236" lon="10.324279"><time>2025-04-28T10:15:31.000Z</time><ele>525.2</ele></trkpt><trkpt lat="46.002252" lon="10.324288"><time>2025-04-28T10:15:32.000Z</time><ele>525</ele></trkpt><trkpt lat="46.002272" lon="10.324286"><time>2025-04-28T10:15:33.000Z</time><ele>524.8</ele></trkpt><trkpt lat="46.002284" lon="10.324279"><time>2025-04-28T10:15:34.000Z</time><ele>524.8</ele></trkpt><trkpt lat="46.002305" lon="10.324271"><time>2025-04-28T10:15:35.000Z</time><ele>524.4</ele></trkpt><trkpt lat="46.002317" lon="10.324268"><time>2025-04-28T10:15:36.000Z</time><ele>524</ele></trkpt><trkpt lat="46.002327" lon="10.324262"><time>2025-04-28T10:15:37.000Z</time><ele>523.8</ele></trkpt><trkpt lat="46.002338" lon="10.324264"><time>2025-04-28T10:15:38.000Z</time><ele>523.6</ele></trkpt><trkpt lat="46.002349" lon="10.324268"><time>2025-04-28T10:15:39.000Z</time><ele>523.4</ele></trkpt><trkpt lat="46.00236" lon="10.324271"><time>2025-04-28T10:15:40.000Z</time><ele>523.4</ele></trkpt><trkpt lat="46.002368" lon="10.324273"><time>2025-04-28T10:15:41.000Z</time><ele>523.2</ele></trkpt><trkpt lat="46.002375" lon="10.324274"><time>2025-04-28T10:15:42.000Z</time><ele>523</ele></trkpt><trkpt lat="46.002379" lon="10.324277"><time>2025-04-28T10:15:43.000Z</time><ele>522.8</ele></trkpt><trkpt lat="46.002382" lon="10.324278"><time>2025-04-28T10:15:44.000Z</time><ele>522.8</ele></trkpt><trkpt lat="46.002383" lon="10.324277"><time>2025-04-28T10:15:45.000Z</time><ele>522.6</ele></trkpt><trkpt lat="46.002383" lon="10.324276"><time>2025-04-28T10:15:46.000Z</time><ele>522.6</ele></trkpt><trkpt lat="46.002384" lon="10.324277"><time>2025-04-28T10:15:47.000Z</time><ele>522.6</ele></trkpt><trkpt lat="46.002393" lon="10.324277"><time>2025-04-28T10:15:48.000Z</time><ele>522.6</ele></trkpt><trkpt lat="46.002403" lon="10.324278"><time>2025-04-28T10:15:49.000Z</time><ele>522.4</ele></trkpt><trkpt lat="46.002413" lon="10.32428"><time>2025-04-28T10:15:50.000Z</time><ele>522.4</ele></trkpt><trkpt lat="46.002425" lon="10.324289"><time>2025-04-28T10:15:51.000Z</time><ele>522</ele></trkpt><trkpt lat="46.002437" lon="10.324299"><time>2025-04-28T10:15:52.000Z</time><ele>521.8</ele></trkpt><trkpt lat="46.002448" lon="10.324313"><time>2025-04-28T10:15:53.000Z</time><ele>521.4</ele></trkpt><trkpt lat="46.002459" lon="10.324321"><time>2025-04-28T10:15:54.000Z</time><ele>521.2</ele></trkpt><trkpt lat="46.002469" lon="10.324329"><time>2025-04-28T10:15:55.000Z</time><ele>521</ele></trkpt><trkpt lat="46.002477" lon="10.324332"><time>2025-04-28T10:15:56.000Z</time><ele>520.8</ele></trkpt><trkpt lat="46.002487" lon="10.324331"><time>2025-04-28T10:15:57.000Z</time><ele>520.4</ele></trkpt><trkpt lat="46.002497" lon="10.32434"><time>2025-04-28T10:15:58.000Z</time><ele>520.2</ele></trkpt><trkpt lat="46.002503" lon="10.324351"><time>2025-04-28T10:15:59.000Z</time><ele>520</ele></trkpt><trkpt lat="46.00251" lon="10.324352"><time>2025-04-28T10:16:00.000Z</time><ele>520</ele></trkpt><trkpt lat="46.00252" lon="10.324357"><time>2025-04-28T10:16:01.000Z</time><ele>519.8</ele></trkpt><trkpt lat="46.00253" lon="10.32436"><time>2025-04-28T10:16:02.000Z</time><ele>519.6</ele></trkpt><trkpt lat="46.002542" lon="10.324366"><time>2025-04-28T10:16:03.000Z</time><ele>519.4</ele></trkpt><trkpt lat="46.002547" lon="10.324369"><time>2025-04-28T10:16:04.000Z</time><ele>519.4</ele></trkpt><trkpt lat="46.002555" lon="10.324368"><time>2025-04-28T10:16:05.000Z</time><ele>519.2</ele></trkpt><trkpt lat="46.002561" lon="10.324359"><time>2025-04-28T10:16:06.000Z</time><ele>519</ele></trkpt><trkpt lat="46.002576" lon="10.324365"><time>2025-04-28T10:16:07.000Z</time><ele>518.8</ele></trkpt><trkpt lat="46.002586" lon="10.324375"><time>2025-04-28T10:16:08.000Z</time><ele>518.4</ele></trkpt><trkpt lat="46.002608" lon="10.324377"><time>2025-04-28T10:16:09.000Z</time><ele>518.2</ele></trkpt><trkpt lat="46.002627" lon="10.324384"><time>2025-04-28T10:16:10.000Z</time><ele>518</ele></trkpt><trkpt lat="46.002636" lon="10.32439"><time>2025-04-28T10:16:11.000Z</time><ele>517.8</ele></trkpt><trkpt lat="46.002645" lon="10.324393"><time>2025-04-28T10:16:12.000Z</time><ele>517.6</ele></trkpt><trkpt lat="46.002654" lon="10.324394"><time>2025-04-28T10:16:13.000Z</time><ele>517.4</ele></trkpt><trkpt lat="46.002659" lon="10.32439"><time>2025-04-28T10:16:14.000Z</time><ele>517.4</ele></trkpt><trkpt lat="46.002662" lon="10.324386"><time>2025-04-28T10:16:15.000Z</time><ele>517.4</ele></trkpt><trkpt lat="46.002662" lon="10.324385"><time>2025-04-28T10:16:16.000Z</time><ele>517.4</ele></trkpt><trkpt lat="46.00266" lon="10.324387"><time>2025-04-28T10:16:17.000Z</time><ele>517.4</ele></trkpt><trkpt lat="46.002662" lon="10.324387"><time>2025-04-28T10:16:18.000Z</time><ele>517.4</ele></trkpt><trkpt lat="46.002676" lon="10.324383"><time>2025-04-28T10:16:19.000Z</time><ele>517.4</ele></trkpt><trkpt lat="46.002691" lon="10.324379"><time>2025-04-28T10:16:20.000Z</time><ele>517.2</ele></trkpt><trkpt lat="46.002705" lon="10.324369"><time>2025-04-28T10:16:21.000Z</time><ele>517</ele></trkpt><trkpt lat="46.002723" lon="10.324365"><time>2025-04-28T10:16:22.000Z</time><ele>517</ele></trkpt><trkpt lat="46.002739" lon="10.324361"><time>2025-04-28T10:16:23.000Z</time><ele>516.8</ele></trkpt><trkpt lat="46.002749" lon="10.324352"><time>2025-04-28T10:16:24.000Z</time><ele>516.6</ele></trkpt><trkpt lat="46.002764" lon="10.324346"><time>2025-04-28T10:16:25.000Z</time><ele>516.4</ele></trkpt><trkpt lat="46.002781" lon="10.324346"><time>2025-04-28T10:16:26.000Z</time><ele>516.2</ele></trkpt><trkpt lat="46.00279" lon="10.324346"><time>2025-04-28T10:16:27.000Z</time><ele>516.2</ele></trkpt><trkpt lat="46.002802" lon="10.324346"><time>2025-04-28T10:16:28.000Z</time><ele>516</ele></trkpt><trkpt lat="46.002822" lon="10.324344"><time>2025-04-28T10:16:29.000Z</time><ele>515.8</ele></trkpt><trkpt lat="46.002837" lon="10.324347"><time>2025-04-28T10:16:30.000Z</time><ele>515.6</ele></trkpt><trkpt lat="46.002852" lon="10.324346"><time>2025-04-28T10:16:31.000Z</time><ele>515.4</ele></trkpt><trkpt lat="46.00287" lon="10.324341"><time>2025-04-28T10:16:32.000Z</time><ele>515.2</ele></trkpt><trkpt lat="46.002886" lon="10.324339"><time>2025-04-28T10:16:33.000Z</time><ele>515</ele></trkpt><trkpt lat="46.002903" lon="10.324352"><time>2025-04-28T10:16:34.000Z</time><ele>514.8</ele></trkpt><trkpt lat="46.002917" lon="10.324356"><time>2025-04-28T10:16:35.000Z</time><ele>514.4</ele></trkpt><trkpt lat="46.00293" lon="10.32435"><time>2025-04-28T10:16:36.000Z</time><ele>514.4</ele></trkpt><trkpt lat="46.002946" lon="10.324354"><time>2025-04-28T10:16:37.000Z</time><ele>514.2</ele></trkpt><trkpt lat="46.00296" lon="10.324358"><time>2025-04-28T10:16:38.000Z</time><ele>514</ele></trkpt><trkpt lat="46.002967" lon="10.324359"><time>2025-04-28T10:16:39.000Z</time><ele>513.8</ele></trkpt><trkpt lat="46.002955" lon="10.324356"><time>2025-04-28T10:16:40.000Z</time><ele>513.6</ele></trkpt><trkpt lat="46.002948" lon="10.324352"><time>2025-04-28T10:16:41.000Z</time><ele>513.4</ele></trkpt><trkpt lat="46.002949" lon="10.32435"><time>2025-04-28T10:16:42.000Z</time><ele>513.2</ele></trkpt><trkpt lat="46.002954" lon="10.324342"><time>2025-04-28T10:16:43.000Z</time><ele>512.8</ele></trkpt><trkpt lat="46.002957" lon="10.324334"><time>2025-04-28T10:16:44.000Z</time><ele>512.6</ele></trkpt><trkpt lat="46.002961" lon="10.324327"><time>2025-04-28T10:16:45.000Z</time><ele>512.6</ele></trkpt><trkpt lat="46.002967" lon="10.32432"><time>2025-04-28T10:16:46.000Z</time><ele>512.4</ele></trkpt><trkpt lat="46.002978" lon="10.32432"><time>2025-04-28T10:16:47.000Z</time><ele>512.2</ele></trkpt><trkpt lat="46.002997" lon="10.324309"><time>2025-04-28T10:16:48.000Z</time><ele>512</ele></trkpt><trkpt lat="46.003022" lon="10.324312"><time>2025-04-28T10:16:49.000Z</time><ele>511.8</ele></trkpt><trkpt lat="46.003045" lon="10.324313"><time>2025-04-28T10:16:50.000Z</time><ele>511.4</ele></trkpt><trkpt lat="46.003058" lon="10.324309"><time>2025-04-28T10:16:51.000Z</time><ele>511.2</ele></trkpt><trkpt lat="46.003068" lon="10.324301"><time>2025-04-28T10:16:52.000Z</time><ele>511</ele></trkpt><trkpt lat="46.003076" lon="10.32429"><time>2025-04-28T10:16:53.000Z</time><ele>511</ele></trkpt><trkpt lat="46.003082" lon="10.324279"><time>2025-04-28T10:16:54.000Z</time><ele>510.8</ele></trkpt><trkpt lat="46.003094" lon="10.32427"><time>2025-04-28T10:16:55.000Z</time><ele>510.6</ele></trkpt><trkpt lat="46.003105" lon="10.324263"><time>2025-04-28T10:16:56.000Z</time><ele>510.4</ele></trkpt><trkpt lat="46.003113" lon="10.324252"><time>2025-04-28T10:16:57.000Z</time><ele>510.2</ele></trkpt><trkpt lat="46.003116" lon="10.324243"><time>2025-04-28T10:16:58.000Z</time><ele>510</ele></trkpt><trkpt lat="46.003119" lon="10.324237"><time>2025-04-28T10:16:59.000Z</time><ele>509.8</ele></trkpt><trkpt lat="46.00312" lon="10.324235"><time>2025-04-28T10:17:00.000Z</time><ele>509.6</ele></trkpt><trkpt lat="46.003125" lon="10.324232"><time>2025-04-28T10:17:01.000Z</time><ele>509.4</ele></trkpt><trkpt lat="46.003125" lon="10.324223"><time>2025-04-28T10:17:02.000Z</time><ele>509.2</ele></trkpt><trkpt lat="46.003122" lon="10.324203"><time>2025-04-28T10:17:03.000Z</time><ele>509.2</ele></trkpt><trkpt lat="46.003131" lon="10.324195"><time>2025-04-28T10:17:04.000Z</time><ele>509</ele></trkpt><trkpt lat="46.00314" lon="10.324189"><time>2025-04-28T10:17:05.000Z</time><ele>508.8</ele></trkpt><trkpt lat="46.003148" lon="10.324179"><time>2025-04-28T10:17:06.000Z</time><ele>508.8</ele></trkpt><trkpt lat="46.003167" lon="10.324164"><time>2025-04-28T10:17:07.000Z</time><ele>508.6</ele></trkpt><trkpt lat="46.003179" lon="10.324154"><time>2025-04-28T10:17:08.000Z</time><ele>508.6</ele></trkpt><trkpt lat="46.00319" lon="10.324142"><time>2025-04-28T10:17:09.000Z</time><ele>508.6</ele></trkpt><trkpt lat="46.003206" lon="10.324132"><time>2025-04-28T10:17:10.000Z</time><ele>508.6</ele></trkpt><trkpt lat="46.003219" lon="10.32412"><time>2025-04-28T10:17:11.000Z</time><ele>508.6</ele></trkpt><trkpt lat="46.00323" lon="10.324115"><time>2025-04-28T10:17:12.000Z</time><ele>508.6</ele></trkpt><trkpt lat="46.003233" lon="10.324119"><time>2025-04-28T10:17:13.000Z</time><ele>508.4</ele></trkpt><trkpt lat="46.003247" lon="10.324126"><time>2025-04-28T10:17:14.000Z</time><ele>508.4</ele></trkpt><trkpt lat="46.003269" lon="10.324135"><time>2025-04-28T10:17:15.000Z</time><ele>508.2</ele></trkpt><trkpt lat="46.003282" lon="10.324139"><time>2025-04-28T10:17:16.000Z</time><ele>508.2</ele></trkpt><trkpt lat="46.003297" lon="10.324141"><time>2025-04-28T10:17:17.000Z</time><ele>508.2</ele></trkpt><trkpt lat="46.003301" lon="10.324139"><time>2025-04-28T10:17:18.000Z</time><ele>508.2</ele></trkpt><trkpt lat="46.003311" lon="10.32414"><time>2025-04-28T10:17:19.000Z</time><ele>508.2</ele></trkpt><trkpt lat="46.003324" lon="10.324141"><time>2025-04-28T10:17:20.000Z</time><ele>508.2</ele></trkpt><trkpt lat="46.003337" lon="10.324145"><time>2025-04-28T10:17:21.000Z</time><ele>508.4</ele></trkpt><trkpt lat="46.003349" lon="10.324144"><time>2025-04-28T10:17:22.000Z</time><ele>508.4</ele></trkpt><trkpt lat="46.003372" lon="10.324141"><time>2025-04-28T10:17:23.000Z</time><ele>508.4</ele></trkpt><trkpt lat="46.003384" lon="10.324139"><time>2025-04-28T10:17:24.000Z</time><ele>508.4</ele></trkpt><trkpt lat="46.003391" lon="10.324099"><time>2025-04-28T10:17:25.000Z</time><ele>508.4</ele></trkpt><trkpt lat="46.003404" lon="10.324054"><time>2025-04-28T10:17:26.000Z</time><ele>508.2</ele></trkpt><trkpt lat="46.003381" lon="10.324009"><time>2025-04-28T10:17:27.000Z</time><ele>508.2</ele></trkpt><trkpt lat="46.003382" lon="10.32401"><time>2025-04-28T10:17:28.000Z</time><ele>508</ele></trkpt><trkpt lat="46.003397" lon="10.323987"><time>2025-04-28T10:17:29.000Z</time><ele>507.6</ele></trkpt><trkpt lat="46.003427" lon="10.32398"><time>2025-04-28T10:17:30.000Z</time><ele>507.4</ele></trkpt><trkpt lat="46.003434" lon="10.323979"><time>2025-04-28T10:17:31.000Z</time><ele>507.2</ele></trkpt><trkpt lat="46.003445" lon="10.323987"><time>2025-04-28T10:17:32.000Z</time><ele>507</ele></trkpt><trkpt lat="46.003458" lon="10.324002"><time>2025-04-28T10:17:33.000Z</time><ele>506.8</ele></trkpt><trkpt lat="46.003474" lon="10.324019"><time>2025-04-28T10:17:34.000Z</time><ele>506.6</ele></trkpt><trkpt lat="46.00349" lon="10.324035"><time>2025-04-28T10:17:35.000Z</time><ele>506.4</ele></trkpt><trkpt lat="46.003501" lon="10.324046"><time>2025-04-28T10:17:36.000Z</time><ele>506.2</ele></trkpt><trkpt lat="46.003514" lon="10.324049"><time>2025-04-28T10:17:37.000Z</time><ele>506</ele></trkpt><trkpt lat="46.003533" lon="10.324049"><time>2025-04-28T10:17:38.000Z</time><ele>506</ele></trkpt><trkpt lat="46.003544" lon="10.324043"><time>2025-04-28T10:17:39.000Z</time><ele>505.8</ele></trkpt><trkpt lat="46.00355" lon="10.324026"><time>2025-04-28T10:17:40.000Z</time><ele>505.8</ele></trkpt><trkpt lat="46.003565" lon="10.32401"><time>2025-04-28T10:17:41.000Z</time><ele>505.8</ele></trkpt><trkpt lat="46.003582" lon="10.324003"><time>2025-04-28T10:17:42.000Z</time><ele>505.6</ele></trkpt><trkpt lat="46.003599" lon="10.323997"><time>2025-04-28T10:17:43.000Z</time><ele>505.6</ele></trkpt><trkpt lat="46.003612" lon="10.323986"><time>2025-04-28T10:17:44.000Z</time><ele>505.6</ele></trkpt><trkpt lat="46.003628" lon="10.323981"><time>2025-04-28T10:17:45.000Z</time><ele>505.4</ele></trkpt><trkpt lat="46.003647" lon="10.323982"><time>2025-04-28T10:17:46.000Z</time><ele>505.4</ele></trkpt><trkpt lat="46.003663" lon="10.323987"><time>2025-04-28T10:17:47.000Z</time><ele>505.2</ele></trkpt><trkpt lat="46.003677" lon="10.323985"><time>2025-04-28T10:17:48.000Z</time><ele>505.2</ele></trkpt><trkpt lat="46.003686" lon="10.323981"><time>2025-04-28T10:17:49.000Z</time><ele>505.2</ele></trkpt><trkpt lat="46.003692" lon="10.323976"><time>2025-04-28T10:17:50.000Z</time><ele>505</ele></trkpt><trkpt lat="46.003698" lon="10.323959"><time>2025-04-28T10:17:51.000Z</time><ele>504.8</ele></trkpt><trkpt lat="46.003703" lon="10.32394"><time>2025-04-28T10:17:52.000Z</time><ele>504.6</ele></trkpt><trkpt lat="46.003714" lon="10.32393"><time>2025-04-28T10:17:53.000Z</time><ele>504.6</ele></trkpt><trkpt lat="46.003723" lon="10.323917"><time>2025-04-28T10:17:54.000Z</time><ele>504.4</ele></trkpt><trkpt lat="46.003735" lon="10.323904"><time>2025-04-28T10:17:55.000Z</time><ele>504.4</ele></trkpt><trkpt lat="46.003748" lon="10.323894"><time>2025-04-28T10:17:56.000Z</time><ele>504.2</ele></trkpt><trkpt lat="46.003759" lon="10.323884"><time>2025-04-28T10:17:57.000Z</time><ele>504.2</ele></trkpt><trkpt lat="46.003773" lon="10.323886"><time>2025-04-28T10:17:58.000Z</time><ele>503.8</ele></trkpt><trkpt lat="46.003785" lon="10.323896"><time>2025-04-28T10:17:59.000Z</time><ele>503.6</ele></trkpt><trkpt lat="46.003793" lon="10.323906"><time>2025-04-28T10:18:00.000Z</time><ele>503.4</ele></trkpt><trkpt lat="46.003792" lon="10.323904"><time>2025-04-28T10:18:01.000Z</time><ele>503.2</ele></trkpt><trkpt lat="46.003797" lon="10.323911"><time>2025-04-28T10:18:02.000Z</time><ele>503.2</ele></trkpt><trkpt lat="46.0038" lon="10.323908"><time>2025-04-28T10:18:03.000Z</time><ele>503</ele></trkpt><trkpt lat="46.003801" lon="10.323905"><time>2025-04-28T10:18:04.000Z</time><ele>503</ele></trkpt><trkpt lat="46.003801" lon="10.323903"><time>2025-04-28T10:18:05.000Z</time><ele>503</ele></trkpt><trkpt lat="46.003808" lon="10.323896"><time>2025-04-28T10:18:06.000Z</time><ele>503</ele></trkpt><trkpt lat="46.003808" lon="10.323892"><time>2025-04-28T10:18:07.000Z</time><ele>503.2</ele></trkpt><trkpt lat="46.003809" lon="10.32389"><time>2025-04-28T10:18:08.000Z</time><ele>503.2</ele></trkpt><trkpt lat="46.003809" lon="10.32389"><time>2025-04-28T10:18:09.000Z</time><ele>503.2</ele></trkpt><trkpt lat="46.00381" lon="10.32389"><time>2025-04-28T10:18:10.000Z</time><ele>503.2</ele></trkpt><trkpt lat="46.003811" lon="10.32389"><time>2025-04-28T10:18:11.000Z</time><ele>503.2</ele></trkpt><trkpt lat="46.003812" lon="10.323891"><time>2025-04-28T10:18:12.000Z</time><ele>503.2</ele></trkpt><trkpt lat="46.003814" lon="10.323893"><time>2025-04-28T10:18:13.000Z</time><ele>503.2</ele></trkpt><trkpt lat="46.003816" lon="10.323894"><time>2025-04-28T10:18:14.000Z</time><ele>503.2</ele></trkpt><trkpt lat="46.003816" lon="10.323895"><time>2025-04-28T10:18:15.000Z</time><ele>503.2</ele></trkpt><trkpt lat="46.003816" lon="10.323895"><time>2025-04-28T10:18:16.000Z</time><ele>503.2</ele></trkpt><trkpt lat="46.003816" lon="10.323895"><time>2025-04-28T10:18:17.000Z</time><ele>503.2</ele></trkpt><trkpt lat="46.003816" lon="10.323895"><time>2025-04-28T10:18:18.000Z</time><ele>503.2</ele></trkpt><trkpt lat="46.003816" lon="10.323895"><time>2025-04-28T10:18:19.000Z</time><ele>503.2</ele></trkpt><trkpt lat="46.003816" lon="10.323895"><time>2025-04-28T10:18:20.000Z</time><ele>503.2</ele></trkpt><trkpt lat="46.003816" lon="10.323895"><time>2025-04-28T10:18:21.000Z</time><ele>503.2</ele></trkpt><trkpt lat="46.003816" lon="10.323895"><time>2025-04-28T10:18:22.000Z</time><ele>503.2</ele></trkpt><trkpt lat="46.003816" lon="10.323895"><time>2025-04-28T10:18:23.000Z</time><ele>503.2</ele></trkpt><trkpt lat="46.003816" lon="10.323895"><time>2025-04-28T10:18:24.000Z</time><ele>503.2</ele></trkpt><trkpt lat="46.003816" lon="10.323895"><time>2025-04-28T10:18:25.000Z</time><ele>502.8</ele></trkpt><trkpt lat="46.003816" lon="10.323895"><time>2025-04-28T10:18:26.000Z</time><ele>502.6</ele></trkpt><trkpt lat="46.003814" lon="10.323903"><time>2025-04-28T10:18:27.000Z</time><ele>502.4</ele></trkpt><trkpt lat="46.003812" lon="10.323922"><time>2025-04-28T10:18:28.000Z</time><ele>502.4</ele></trkpt><trkpt lat="46.003808" lon="10.323943"><time>2025-04-28T10:18:29.000Z</time><ele>502.2</ele></trkpt><trkpt lat="46.003802" lon="10.323962"><time>2025-04-28T10:18:30.000Z</time><ele>501.6</ele></trkpt><trkpt lat="46.003799" lon="10.32399"><time>2025-04-28T10:18:31.000Z</time><ele>501.4</ele></trkpt><trkpt lat="46.003789" lon="10.324007"><time>2025-04-28T10:18:32.000Z</time><ele>501</ele></trkpt><trkpt lat="46.003781" lon="10.324027"><time>2025-04-28T10:18:33.000Z</time><ele>500.8</ele></trkpt><trkpt lat="46.003773" lon="10.324047"><time>2025-04-28T10:18:34.000Z</time><ele>500.6</ele></trkpt><trkpt lat="46.003766" lon="10.324069"><time>2025-04-28T10:18:35.000Z</time><ele>500.4</ele></trkpt><trkpt lat="46.003761" lon="10.32409"><time>2025-04-28T10:18:36.000Z</time><ele>500.2</ele></trkpt><trkpt lat="46.003757" lon="10.3241"><time>2025-04-28T10:18:37.000Z</time><ele>500</ele></trkpt><trkpt lat="46.003755" lon="10.324117"><time>2025-04-28T10:18:38.000Z</time><ele>499.8</ele></trkpt><trkpt lat="46.003751" lon="10.32413"><time>2025-04-28T10:18:39.000Z</time><ele>499.6</ele></trkpt><trkpt lat="46.00375" lon="10.324148"><time>2025-04-28T10:18:40.000Z</time><ele>499.2</ele></trkpt><trkpt lat="46.003745" lon="10.324164"><time>2025-04-28T10:18:41.000Z</time><ele>499.2</ele></trkpt><trkpt lat="46.003743" lon="10.324178"><time>2025-04-28T10:18:42.000Z</time><ele>499</ele></trkpt><trkpt lat="46.003739" lon="10.324194"><time>2025-04-28T10:18:43.000Z</time><ele>498.8</ele></trkpt><trkpt lat="46.003736" lon="10.324212"><time>2025-04-28T10:18:44.000Z</time><ele>498.6</ele></trkpt><trkpt lat="46.003729" lon="10.324225"><time>2025-04-28T10:18:45.000Z</time><ele>498.6</ele></trkpt><trkpt lat="46.003721" lon="10.324233"><time>2025-04-28T10:18:46.000Z</time><ele>498.4</ele></trkpt><trkpt lat="46.003715" lon="10.324233"><time>2025-04-28T10:18:47.000Z</time><ele>498.4</ele></trkpt><trkpt lat="46.003704" lon="10.324217"><time>2025-04-28T10:18:48.000Z</time><ele>498.4</ele></trkpt><trkpt lat="46.003689" lon="10.324203"><time>2025-04-28T10:18:49.000Z</time><ele>498.4</ele></trkpt><trkpt lat="46.003673" lon="10.324194"><time>2025-04-28T10:18:50.000Z</time><ele>498.2</ele></trkpt><trkpt lat="46.003656" lon="10.324185"><time>2025-04-28T10:18:51.000Z</time><ele>498.2</ele></trkpt><trkpt lat="46.003629" lon="10.324151"><time>2025-04-28T10:18:52.000Z</time><ele>498.2</ele></trkpt><trkpt lat="46.003618" lon="10.324144"><time>2025-04-28T10:18:53.000Z</time><ele>498.4</ele></trkpt><trkpt lat="46.003608" lon="10.324159"><time>2025-04-28T10:18:54.000Z</time><ele>498.4</ele></trkpt><trkpt lat="46.003605" lon="10.324174"><time>2025-04-28T10:18:55.000Z</time><ele>498.6</ele></trkpt><trkpt lat="46.003597" lon="10.324186"><time>2025-04-28T10:18:56.000Z</time><ele>498.6</ele></trkpt><trkpt lat="46.003589" lon="10.324195"><time>2025-04-28T10:18:57.000Z</time><ele>498.6</ele></trkpt><trkpt lat="46.003591" lon="10.324202"><time>2025-04-28T10:18:58.000Z</time><ele>498.6</ele></trkpt><trkpt lat="46.003589" lon="10.32421"><time>2025-04-28T10:18:59.000Z</time><ele>498.6</ele></trkpt><trkpt lat="46.003588" lon="10.324221"><time>2025-04-28T10:19:00.000Z</time><ele>498.6</ele></trkpt><trkpt lat="46.003585" lon="10.324222"><time>2025-04-28T10:19:01.000Z</time><ele>498.6</ele></trkpt><trkpt lat="46.003581" lon="10.324226"><time>2025-04-28T10:19:02.000Z</time><ele>498.4</ele></trkpt><trkpt lat="46.003577" lon="10.324234"><time>2025-04-28T10:19:03.000Z</time><ele>498.4</ele></trkpt><trkpt lat="46.003577" lon="10.324243"><time>2025-04-28T10:19:04.000Z</time><ele>498.4</ele></trkpt><trkpt lat="46.00358" lon="10.324261"><time>2025-04-28T10:19:05.000Z</time><ele>498</ele></trkpt><trkpt lat="46.003581" lon="10.324276"><time>2025-04-28T10:19:06.000Z</time><ele>497.8</ele></trkpt><trkpt lat="46.003589" lon="10.3243"><time>2025-04-28T10:19:07.000Z</time><ele>497.6</ele></trkpt><trkpt lat="46.003583" lon="10.324317"><time>2025-04-28T10:19:08.000Z</time><ele>497.2</ele></trkpt><trkpt lat="46.00358" lon="10.32433"><time>2025-04-28T10:19:09.000Z</time><ele>497</ele></trkpt><trkpt lat="46.003575" lon="10.324345"><time>2025-04-28T10:19:10.000Z</time><ele>496.8</ele></trkpt><trkpt lat="46.003571" lon="10.324362"><time>2025-04-28T10:19:11.000Z</time><ele>496.4</ele></trkpt><trkpt lat="46.003563" lon="10.324383"><time>2025-04-28T10:19:12.000Z</time><ele>496.2</ele></trkpt><trkpt lat="46.003562" lon="10.324395"><time>2025-04-28T10:19:13.000Z</time><ele>496</ele></trkpt><trkpt lat="46.003548" lon="10.324398"><time>2025-04-28T10:19:14.000Z</time><ele>495.8</ele></trkpt><trkpt lat="46.003545" lon="10.324422"><time>2025-04-28T10:19:15.000Z</time><ele>495.8</ele></trkpt><trkpt lat="46.003543" lon="10.324442"><time>2025-04-28T10:19:16.000Z</time><ele>495.8</ele></trkpt><trkpt lat="46.003542" lon="10.324476"><time>2025-04-28T10:19:17.000Z</time><ele>495.6</ele></trkpt><trkpt lat="46.003538" lon="10.324497"><time>2025-04-28T10:19:18.000Z</time><ele>495.6</ele></trkpt><trkpt lat="46.003528" lon="10.324512"><time>2025-04-28T10:19:19.000Z</time><ele>495.4</ele></trkpt><trkpt lat="46.003516" lon="10.324523"><time>2025-04-28T10:19:20.000Z</time><ele>495.2</ele></trkpt><trkpt lat="46.003503" lon="10.324528"><time>2025-04-28T10:19:21.000Z</time><ele>495</ele></trkpt><trkpt lat="46.003485" lon="10.324527"><time>2025-04-28T10:19:22.000Z</time><ele>494.6</ele></trkpt><trkpt lat="46.00347" lon="10.324527"><time>2025-04-28T10:19:23.000Z</time><ele>494.4</ele></trkpt><trkpt lat="46.003463" lon="10.324543"><time>2025-04-28T10:19:24.000Z</time><ele>494.2</ele></trkpt><trkpt lat="46.003454" lon="10.324553"><time>2025-04-28T10:19:25.000Z</time><ele>494.2</ele></trkpt><trkpt lat="46.003447" lon="10.324566"><time>2025-04-28T10:19:26.000Z</time><ele>494</ele></trkpt><trkpt lat="46.003439" lon="10.324579"><time>2025-04-28T10:19:27.000Z</time><ele>494</ele></trkpt><trkpt lat="46.003428" lon="10.324591"><time>2025-04-28T10:19:28.000Z</time><ele>493.8</ele></trkpt><trkpt lat="46.003409" lon="10.324588"><time>2025-04-28T10:19:29.000Z</time><ele>493.6</ele></trkpt><trkpt lat="46.003399" lon="10.324583"><time>2025-04-28T10:19:30.000Z</time><ele>493.6</ele></trkpt><trkpt lat="46.003385" lon="10.32457"><time>2025-04-28T10:19:31.000Z</time><ele>493.6</ele></trkpt><trkpt lat="46.003374" lon="10.324572"><time>2025-04-28T10:19:32.000Z</time><ele>493.6</ele></trkpt><trkpt lat="46.003364" lon="10.324599"><time>2025-04-28T10:19:33.000Z</time><ele>493.4</ele></trkpt><trkpt lat="46.003351" lon="10.324622"><time>2025-04-28T10:19:34.000Z</time><ele>493.2</ele></trkpt><trkpt lat="46.003337" lon="10.324652"><time>2025-04-28T10:19:35.000Z</time><ele>493</ele></trkpt><trkpt lat="46.003327" lon="10.324681"><time>2025-04-28T10:19:36.000Z</time><ele>492.8</ele></trkpt><trkpt lat="46.003316" lon="10.324713"><time>2025-04-28T10:19:37.000Z</time><ele>492.8</ele></trkpt><trkpt lat="46.003307" lon="10.324745"><time>2025-04-28T10:19:38.000Z</time><ele>492.6</ele></trkpt><trkpt lat="46.003295" lon="10.324767"><time>2025-04-28T10:19:39.000Z</time><ele>492.6</ele></trkpt><trkpt lat="46.003282" lon="10.324791"><time>2025-04-28T10:19:40.000Z</time><ele>492.6</ele></trkpt><trkpt lat="46.003273" lon="10.324807"><time>2025-04-28T10:19:41.000Z</time><ele>492.6</ele></trkpt><trkpt lat="46.003265" lon="10.324833"><time>2025-04-28T10:19:42.000Z</time><ele>492.4</ele></trkpt><trkpt lat="46.003259" lon="10.324854"><time>2025-04-28T10:19:43.000Z</time><ele>492.2</ele></trkpt><trkpt lat="46.003249" lon="10.324874"><time>2025-04-28T10:19:44.000Z</time><ele>492.2</ele></trkpt><trkpt lat="46.003245" lon="10.324897"><time>2025-04-28T10:19:45.000Z</time><ele>492</ele></trkpt><trkpt lat="46.003234" lon="10.324921"><time>2025-04-28T10:19:46.000Z</time><ele>491.8</ele></trkpt><trkpt lat="46.00322" lon="10.324937"><time>2025-04-28T10:19:47.000Z</time><ele>491.8</ele></trkpt><trkpt lat="46.003215" lon="10.324956"><time>2025-04-28T10:19:48.000Z</time><ele>491.8</ele></trkpt><trkpt lat="46.003214" lon="10.32497"><time>2025-04-28T10:19:49.000Z</time><ele>491.6</ele></trkpt><trkpt lat="46.003212" lon="10.32497"><time>2025-04-28T10:19:50.000Z</time><ele>491.6</ele></trkpt><trkpt lat="46.003206" lon="10.324982"><time>2025-04-28T10:19:51.000Z</time><ele>491.6</ele></trkpt><trkpt lat="46.003202" lon="10.324991"><time>2025-04-28T10:19:52.000Z</time><ele>491.6</ele></trkpt><trkpt lat="46.003198" lon="10.324989"><time>2025-04-28T10:19:53.000Z</time><ele>491.6</ele></trkpt><trkpt lat="46.003193" lon="10.324992"><time>2025-04-28T10:19:54.000Z</time><ele>491.8</ele></trkpt><trkpt lat="46.003197" lon="10.32497"><time>2025-04-28T10:19:55.000Z</time><ele>491.8</ele></trkpt><trkpt lat="46.003196" lon="10.324968"><time>2025-04-28T10:19:56.000Z</time><ele>491.8</ele></trkpt><trkpt lat="46.003205" lon="10.324959"><time>2025-04-28T10:19:57.000Z</time><ele>491.8</ele></trkpt><trkpt lat="46.003207" lon="10.324956"><time>2025-04-28T10:19:58.000Z</time><ele>491.8</ele></trkpt><trkpt lat="46.003208" lon="10.324955"><time>2025-04-28T10:19:59.000Z</time><ele>491.8</ele></trkpt><trkpt lat="46.003208" lon="10.324953"><time>2025-04-28T10:20:00.000Z</time><ele>491.8</ele></trkpt><trkpt lat="46.003208" lon="10.32495"><time>2025-04-28T10:20:01.000Z</time><ele>491.8</ele></trkpt><trkpt lat="46.003205" lon="10.324944"><time>2025-04-28T10:20:02.000Z</time><ele>491.8</ele></trkpt><trkpt lat="46.0032" lon="10.324939"><time>2025-04-28T10:20:03.000Z</time><ele>491.6</ele></trkpt><trkpt lat="46.003196" lon="10.324941"><time>2025-04-28T10:20:04.000Z</time><ele>491.6</ele></trkpt><trkpt lat="46.003187" lon="10.324942"><time>2025-04-28T10:20:05.000Z</time><ele>491.6</ele></trkpt><trkpt lat="46.003178" lon="10.324944"><time>2025-04-28T10:20:06.000Z</time><ele>491.4</ele></trkpt><trkpt lat="46.003169" lon="10.324953"><time>2025-04-28T10:20:07.000Z</time><ele>491.4</ele></trkpt><trkpt lat="46.003157" lon="10.32496"><time>2025-04-28T10:20:08.000Z</time><ele>491.4</ele></trkpt><trkpt lat="46.003146" lon="10.324964"><time>2025-04-28T10:20:09.000Z</time><ele>491.4</ele></trkpt><trkpt lat="46.003139" lon="10.324965"><time>2025-04-28T10:20:10.000Z</time><ele>491.4</ele></trkpt><trkpt lat="46.003128" lon="10.324963"><time>2025-04-28T10:20:11.000Z</time><ele>491.4</ele></trkpt><trkpt lat="46.003115" lon="10.32496"><time>2025-04-28T10:20:12.000Z</time><ele>491.2</ele></trkpt><trkpt lat="46.003102" lon="10.324958"><time>2025-04-28T10:20:13.000Z</time><ele>491.2</ele></trkpt><trkpt lat="46.003091" lon="10.32496"><time>2025-04-28T10:20:14.000Z</time><ele>491.2</ele></trkpt><trkpt lat="46.003079" lon="10.324961"><time>2025-04-28T10:20:15.000Z</time><ele>491.2</ele></trkpt><trkpt lat="46.003067" lon="10.324963"><time>2025-04-28T10:20:16.000Z</time><ele>491.4</ele></trkpt><trkpt lat="46.003055" lon="10.324961"><time>2025-04-28T10:20:17.000Z</time><ele>491.4</ele></trkpt><trkpt lat="46.00304" lon="10.324959"><time>2025-04-28T10:20:18.000Z</time><ele>491.4</ele></trkpt><trkpt lat="46.003028" lon="10.324965"><time>2025-04-28T10:20:19.000Z</time><ele>491.6</ele></trkpt><trkpt lat="46.003014" lon="10.324973"><time>2025-04-28T10:20:20.000Z</time><ele>491.8</ele></trkpt><trkpt lat="46.003003" lon="10.324977"><time>2025-04-28T10:20:21.000Z</time><ele>491.8</ele></trkpt><trkpt lat="46.002993" lon="10.324975"><time>2025-04-28T10:20:22.000Z</time><ele>491.8</ele></trkpt><trkpt lat="46.002982" lon="10.324972"><time>2025-04-28T10:20:23.000Z</time><ele>491.8</ele></trkpt><trkpt lat="46.002968" lon="10.324971"><time>2025-04-28T10:20:24.000Z</time><ele>491.8</ele></trkpt><trkpt lat="46.00295" lon="10.324973"><time>2025-04-28T10:20:25.000Z</time><ele>491.8</ele></trkpt><trkpt lat="46.002937" lon="10.324979"><time>2025-04-28T10:20:26.000Z</time><ele>491.8</ele></trkpt><trkpt lat="46.002917" lon="10.324982"><time>2025-04-28T10:20:27.000Z</time><ele>491.6</ele></trkpt><trkpt lat="46.002894" lon="10.324981"><time>2025-04-28T10:20:28.000Z</time><ele>491.6</ele></trkpt><trkpt lat="46.002875" lon="10.324984"><time>2025-04-28T10:20:29.000Z</time><ele>491.8</ele></trkpt><trkpt lat="46.002868" lon="10.32499"><time>2025-04-28T10:20:30.000Z</time><ele>491.8</ele></trkpt><trkpt lat="46.002864" lon="10.324994"><time>2025-04-28T10:20:31.000Z</time><ele>492.2</ele></trkpt><trkpt lat="46.002857" lon="10.325003"><time>2025-04-28T10:20:32.000Z</time><ele>492.6</ele></trkpt><trkpt lat="46.002854" lon="10.325013"><time>2025-04-28T10:20:33.000Z</time><ele>492.8</ele></trkpt><trkpt lat="46.002854" lon="10.325032"><time>2025-04-28T10:20:34.000Z</time><ele>492.8</ele></trkpt><trkpt lat="46.002866" lon="10.325054"><time>2025-04-28T10:20:35.000Z</time><ele>493</ele></trkpt><trkpt lat="46.002866" lon="10.325059"><time>2025-04-28T10:20:36.000Z</time><ele>493</ele></trkpt><trkpt lat="46.002867" lon="10.325061"><time>2025-04-28T10:20:37.000Z</time><ele>493</ele></trkpt><trkpt lat="46.00289" lon="10.325071"><time>2025-04-28T10:20:38.000Z</time><ele>493</ele></trkpt><trkpt lat="46.002891" lon="10.325072"><time>2025-04-28T10:20:39.000Z</time><ele>493</ele></trkpt><trkpt lat="46.002892" lon="10.325071"><time>2025-04-28T10:20:40.000Z</time><ele>493</ele></trkpt><trkpt lat="46.002892" lon="10.325071"><time>2025-04-28T10:20:41.000Z</time><ele>493</ele></trkpt><trkpt lat="46.002892" lon="10.325071"><time>2025-04-28T10:20:42.000Z</time><ele>493</ele></trkpt><trkpt lat="46.002893" lon="10.325071"><time>2025-04-28T10:20:43.000Z</time><ele>492.8</ele></trkpt><trkpt lat="46.002893" lon="10.325071"><time>2025-04-28T10:20:44.000Z</time><ele>492.8</ele></trkpt><trkpt lat="46.002892" lon="10.325068"><time>2025-04-28T10:20:45.000Z</time><ele>492.8</ele></trkpt><trkpt lat="46.002891" lon="10.325061"><time>2025-04-28T10:20:46.000Z</time><ele>492.8</ele></trkpt><trkpt lat="46.002883" lon="10.325051"><time>2025-04-28T10:20:47.000Z</time><ele>492.6</ele></trkpt><trkpt lat="46.002873" lon="10.325045"><time>2025-04-28T10:20:48.000Z</time><ele>492.4</ele></trkpt><trkpt lat="46.002861" lon="10.325041"><time>2025-04-28T10:20:49.000Z</time><ele>492.4</ele></trkpt><trkpt lat="46.002849" lon="10.325041"><time>2025-04-28T10:20:50.000Z</time><ele>492.2</ele></trkpt><trkpt lat="46.002842" lon="10.325041"><time>2025-04-28T10:20:51.000Z</time><ele>492.2</ele></trkpt><trkpt lat="46.002833" lon="10.325039"><time>2025-04-28T10:20:52.000Z</time><ele>492.2</ele></trkpt><trkpt lat="46.002822" lon="10.325039"><time>2025-04-28T10:20:53.000Z</time><ele>492</ele></trkpt><trkpt lat="46.002811" lon="10.325034"><time>2025-04-28T10:20:54.000Z</time><ele>492</ele></trkpt><trkpt lat="46.002801" lon="10.325024"><time>2025-04-28T10:20:55.000Z</time><ele>492</ele></trkpt><trkpt lat="46.002791" lon="10.325022"><time>2025-04-28T10:20:56.000Z</time><ele>492</ele></trkpt><trkpt lat="46.002783" lon="10.325019"><time>2025-04-28T10:20:57.000Z</time><ele>492</ele></trkpt><trkpt lat="46.002767" lon="10.325022"><time>2025-04-28T10:20:58.000Z</time><ele>492</ele></trkpt><trkpt lat="46.002767" lon="10.325022"><time>2025-04-28T10:20:59.000Z</time><ele>492</ele></trkpt><trkpt lat="46.002759" lon="10.325029"><time>2025-04-28T10:21:00.000Z</time><ele>491.8</ele></trkpt><trkpt lat="46.00275" lon="10.325028"><time>2025-04-28T10:21:01.000Z</time><ele>491.8</ele></trkpt><trkpt lat="46.00274" lon="10.32502"><time>2025-04-28T10:21:02.000Z</time><ele>491.6</ele></trkpt><trkpt lat="46.002727" lon="10.325012"><time>2025-04-28T10:21:03.000Z</time><ele>491.6</ele></trkpt><trkpt lat="46.002715" lon="10.325008"><time>2025-04-28T10:21:04.000Z</time><ele>491.2</ele></trkpt><trkpt lat="46.002702" lon="10.325003"><time>2025-04-28T10:21:05.000Z</time><ele>491.2</ele></trkpt><trkpt lat="46.002684" lon="10.324996"><time>2025-04-28T10:21:06.000Z</time><ele>491</ele></trkpt><trkpt lat="46.002668" lon="10.324993"><time>2025-04-28T10:21:07.000Z</time><ele>491</ele></trkpt><trkpt lat="46.00265" lon="10.324989"><time>2025-04-28T10:21:08.000Z</time><ele>491</ele></trkpt><trkpt lat="46.002636" lon="10.324986"><time>2025-04-28T10:21:09.000Z</time><ele>490.8</ele></trkpt><trkpt lat="46.002624" lon="10.324982"><time>2025-04-28T10:21:10.000Z</time><ele>490.8</ele></trkpt><trkpt lat="46.002609" lon="10.324978"><time>2025-04-28T10:21:11.000Z</time><ele>490.8</ele></trkpt><trkpt lat="46.002596" lon="10.324974"><time>2025-04-28T10:21:12.000Z</time><ele>490.8</ele></trkpt><trkpt lat="46.002583" lon="10.324956"><time>2025-04-28T10:21:13.000Z</time><ele>490.8</ele></trkpt><trkpt lat="46.002558" lon="10.324949"><time>2025-04-28T10:21:14.000Z</time><ele>490.6</ele></trkpt><trkpt lat="46.002537" lon="10.324946"><time>2025-04-28T10:21:15.000Z</time><ele>490.6</ele></trkpt><trkpt lat="46.002521" lon="10.324945"><time>2025-04-28T10:21:16.000Z</time><ele>490.4</ele></trkpt><trkpt lat="46.002507" lon="10.324943"><time>2025-04-28T10:21:17.000Z</time><ele>490.2</ele></trkpt><trkpt lat="46.00249" lon="10.324936"><time>2025-04-28T10:21:18.000Z</time><ele>490.2</ele></trkpt><trkpt lat="46.00247" lon="10.324938"><time>2025-04-28T10:21:19.000Z</time><ele>490</ele></trkpt><trkpt lat="46.002457" lon="10.324932"><time>2025-04-28T10:21:20.000Z</time><ele>490</ele></trkpt><trkpt lat="46.002446" lon="10.324939"><time>2025-04-28T10:21:21.000Z</time><ele>490</ele></trkpt><trkpt lat="46.002431" lon="10.324942"><time>2025-04-28T10:21:22.000Z</time><ele>490.2</ele></trkpt><trkpt lat="46.00242" lon="10.324943"><time>2025-04-28T10:21:23.000Z</time><ele>490.2</ele></trkpt><trkpt lat="46.002417" lon="10.324949"><time>2025-04-28T10:21:24.000Z</time><ele>490.2</ele></trkpt><trkpt lat="46.002404" lon="10.324946"><time>2025-04-28T10:21:25.000Z</time><ele>490.2</ele></trkpt><trkpt lat="46.002391" lon="10.32494"><time>2025-04-28T10:21:26.000Z</time><ele>490.2</ele></trkpt><trkpt lat="46.002373" lon="10.32494"><time>2025-04-28T10:21:27.000Z</time><ele>490.2</ele></trkpt><trkpt lat="46.002359" lon="10.324939"><time>2025-04-28T10:21:28.000Z</time><ele>489.8</ele></trkpt><trkpt lat="46.002345" lon="10.32494"><time>2025-04-28T10:21:29.000Z</time><ele>489.6</ele></trkpt><trkpt lat="46.002332" lon="10.32494"><time>2025-04-28T10:21:30.000Z</time><ele>489.4</ele></trkpt><trkpt lat="46.002322" lon="10.324936"><time>2025-04-28T10:21:31.000Z</time><ele>489.2</ele></trkpt><trkpt lat="46.002311" lon="10.324934"><time>2025-04-28T10:21:32.000Z</time><ele>489</ele></trkpt><trkpt lat="46.002296" lon="10.324932"><time>2025-04-28T10:21:33.000Z</time><ele>489</ele></trkpt><trkpt lat="46.002284" lon="10.324929"><time>2025-04-28T10:21:34.000Z</time><ele>488.6</ele></trkpt><trkpt lat="46.00227" lon="10.324928"><time>2025-04-28T10:21:35.000Z</time><ele>488.4</ele></trkpt><trkpt lat="46.002258" lon="10.324918"><time>2025-04-28T10:21:36.000Z</time><ele>488.2</ele></trkpt><trkpt lat="46.002244" lon="10.324913"><time>2025-04-28T10:21:37.000Z</time><ele>488</ele></trkpt><trkpt lat="46.002235" lon="10.324916"><time>2025-04-28T10:21:38.000Z</time><ele>487.8</ele></trkpt><trkpt lat="46.002222" lon="10.324909"><time>2025-04-28T10:21:39.000Z</time><ele>487.8</ele></trkpt><trkpt lat="46.002212" lon="10.324907"><time>2025-04-28T10:21:40.000Z</time><ele>487.6</ele></trkpt><trkpt lat="46.002199" lon="10.3249"><time>2025-04-28T10:21:41.000Z</time><ele>487.4</ele></trkpt><trkpt lat="46.00219" lon="10.324888"><time>2025-04-28T10:21:42.000Z</time><ele>487.4</ele></trkpt><trkpt lat="46.002181" lon="10.324879"><time>2025-04-28T10:21:43.000Z</time><ele>487.2</ele></trkpt><trkpt lat="46.002161" lon="10.324879"><time>2025-04-28T10:21:44.000Z</time><ele>487</ele></trkpt><trkpt lat="46.002142" lon="10.324885"><time>2025-04-28T10:21:45.000Z</time><ele>487</ele></trkpt><trkpt lat="46.002126" lon="10.324885"><time>2025-04-28T10:21:46.000Z</time><ele>487</ele></trkpt><trkpt lat="46.002116" lon="10.32488"><time>2025-04-28T10:21:47.000Z</time><ele>487.2</ele></trkpt><trkpt lat="46.0021" lon="10.324876"><time>2025-04-28T10:21:48.000Z</time><ele>487.2</ele></trkpt><trkpt lat="46.002087" lon="10.324874"><time>2025-04-28T10:21:49.000Z</time><ele>487.4</ele></trkpt><trkpt lat="46.002072" lon="10.324864"><time>2025-04-28T10:21:50.000Z</time><ele>487.4</ele></trkpt><trkpt lat="46.002066" lon="10.324853"><time>2025-04-28T10:21:51.000Z</time><ele>486.6</ele></trkpt><trkpt lat="46.002056" lon="10.324839"><time>2025-04-28T10:21:52.000Z</time><ele>486.2</ele></trkpt><trkpt lat="46.002047" lon="10.324836"><time>2025-04-28T10:21:53.000Z</time><ele>486</ele></trkpt><trkpt lat="46.002028" lon="10.324836"><time>2025-04-28T10:21:54.000Z</time><ele>485.8</ele></trkpt><trkpt lat="46.001998" lon="10.32487"><time>2025-04-28T10:21:55.000Z</time><ele>485.6</ele></trkpt><trkpt lat="46.001974" lon="10.32488"><time>2025-04-28T10:21:56.000Z</time><ele>485.6</ele></trkpt><trkpt lat="46.001958" lon="10.324881"><time>2025-04-28T10:21:57.000Z</time><ele>485.4</ele></trkpt><trkpt lat="46.001954" lon="10.324879"><time>2025-04-28T10:21:58.000Z</time><ele>485.2</ele></trkpt><trkpt lat="46.001937" lon="10.32488"><time>2025-04-28T10:21:59.000Z</time><ele>484.8</ele></trkpt><trkpt lat="46.001922" lon="10.324876"><time>2025-04-28T10:22:00.000Z</time><ele>484.8</ele></trkpt><trkpt lat="46.001906" lon="10.324871"><time>2025-04-28T10:22:01.000Z</time><ele>484.6</ele></trkpt><trkpt lat="46.001891" lon="10.324865"><time>2025-04-28T10:22:02.000Z</time><ele>484.4</ele></trkpt><trkpt lat="46.00188" lon="10.324865"><time>2025-04-28T10:22:03.000Z</time><ele>484.2</ele></trkpt><trkpt lat="46.001869" lon="10.324867"><time>2025-04-28T10:22:04.000Z</time><ele>484.2</ele></trkpt><trkpt lat="46.001854" lon="10.324869"><time>2025-04-28T10:22:05.000Z</time><ele>484</ele></trkpt><trkpt lat="46.001835" lon="10.324867"><time>2025-04-28T10:22:06.000Z</time><ele>483.6</ele></trkpt><trkpt lat="46.001821" lon="10.324869"><time>2025-04-28T10:22:07.000Z</time><ele>483.4</ele></trkpt><trkpt lat="46.001808" lon="10.324872"><time>2025-04-28T10:22:08.000Z</time><ele>483.2</ele></trkpt><trkpt lat="46.001788" lon="10.324873"><time>2025-04-28T10:22:09.000Z</time><ele>483</ele></trkpt><trkpt lat="46.001776" lon="10.324871"><time>2025-04-28T10:22:10.000Z</time><ele>482.8</ele></trkpt><trkpt lat="46.001763" lon="10.324885"><time>2025-04-28T10:22:11.000Z</time><ele>482.8</ele></trkpt><trkpt lat="46.001749" lon="10.324882"><time>2025-04-28T10:22:12.000Z</time><ele>482.4</ele></trkpt><trkpt lat="46.001738" lon="10.324878"><time>2025-04-28T10:22:13.000Z</time><ele>482.2</ele></trkpt><trkpt lat="46.001723" lon="10.324877"><time>2025-04-28T10:22:14.000Z</time><ele>482.2</ele></trkpt><trkpt lat="46.001708" lon="10.324873"><time>2025-04-28T10:22:15.000Z</time><ele>482</ele></trkpt><trkpt lat="46.001696" lon="10.324869"><time>2025-04-28T10:22:16.000Z</time><ele>481.8</ele></trkpt><trkpt lat="46.001685" lon="10.324867"><time>2025-04-28T10:22:17.000Z</time><ele>481.6</ele></trkpt><trkpt lat="46.00167" lon="10.324862"><time>2025-04-28T10:22:18.000Z</time><ele>481.4</ele></trkpt><trkpt lat="46.001656" lon="10.324859"><time>2025-04-28T10:22:19.000Z</time><ele>481.2</ele></trkpt><trkpt lat="46.001636" lon="10.324853"><time>2025-04-28T10:22:20.000Z</time><ele>481</ele></trkpt><trkpt lat="46.00162" lon="10.324851"><time>2025-04-28T10:22:21.000Z</time><ele>481</ele></trkpt><trkpt lat="46.001609" lon="10.324854"><time>2025-04-28T10:22:22.000Z</time><ele>480.8</ele></trkpt><trkpt lat="46.001597" lon="10.324849"><time>2025-04-28T10:22:23.000Z</time><ele>480.6</ele></trkpt><trkpt lat="46.001582" lon="10.324842"><time>2025-04-28T10:22:24.000Z</time><ele>480.4</ele></trkpt><trkpt lat="46.001569" lon="10.324835"><time>2025-04-28T10:22:25.000Z</time><ele>480.2</ele></trkpt><trkpt lat="46.001558" lon="10.324839"><time>2025-04-28T10:22:26.000Z</time><ele>480</ele></trkpt><trkpt lat="46.001546" lon="10.324843"><time>2025-04-28T10:22:27.000Z</time><ele>479.8</ele></trkpt><trkpt lat="46.001529" lon="10.324843"><time>2025-04-28T10:22:28.000Z</time><ele>479.6</ele></trkpt><trkpt lat="46.001515" lon="10.324841"><time>2025-04-28T10:22:29.000Z</time><ele>479.4</ele></trkpt><trkpt lat="46.001505" lon="10.324841"><time>2025-04-28T10:22:30.000Z</time><ele>479</ele></trkpt><trkpt lat="46.001486" lon="10.324835"><time>2025-04-28T10:22:31.000Z</time><ele>479</ele></trkpt><trkpt lat="46.001466" lon="10.324848"><time>2025-04-28T10:22:32.000Z</time><ele>478.8</ele></trkpt><trkpt lat="46.001444" lon="10.324849"><time>2025-04-28T10:22:33.000Z</time><ele>478.8</ele></trkpt><trkpt lat="46.001428" lon="10.324844"><time>2025-04-28T10:22:34.000Z</time><ele>478.6</ele></trkpt><trkpt lat="46.001421" lon="10.324846"><time>2025-04-28T10:22:35.000Z</time><ele>478.6</ele></trkpt><trkpt lat="46.001409" lon="10.324833"><time>2025-04-28T10:22:36.000Z</time><ele>478.6</ele></trkpt><trkpt lat="46.001397" lon="10.324833"><time>2025-04-28T10:22:37.000Z</time><ele>478.4</ele></trkpt><trkpt lat="46.001379" lon="10.32483"><time>2025-04-28T10:22:38.000Z</time><ele>478</ele></trkpt><trkpt lat="46.001364" lon="10.324834"><time>2025-04-28T10:22:39.000Z</time><ele>477.8</ele></trkpt><trkpt lat="46.001349" lon="10.324835"><time>2025-04-28T10:22:40.000Z</time><ele>477.6</ele></trkpt><trkpt lat="46.001333" lon="10.324836"><time>2025-04-28T10:22:41.000Z</time><ele>477.6</ele></trkpt><trkpt lat="46.001319" lon="10.324837"><time>2025-04-28T10:22:42.000Z</time><ele>477.4</ele></trkpt><trkpt lat="46.001299" lon="10.324835"><time>2025-04-28T10:22:43.000Z</time><ele>477.4</ele></trkpt><trkpt lat="46.001279" lon="10.324832"><time>2025-04-28T10:22:44.000Z</time><ele>477.2</ele></trkpt><trkpt lat="46.001266" lon="10.324832"><time>2025-04-28T10:22:45.000Z</time><ele>477</ele></trkpt><trkpt lat="46.001255" lon="10.324834"><time>2025-04-28T10:22:46.000Z</time><ele>476.6</ele></trkpt><trkpt lat="46.001241" lon="10.324836"><time>2025-04-28T10:22:47.000Z</time><ele>476.4</ele></trkpt><trkpt lat="46.001229" lon="10.324843"><time>2025-04-28T10:22:48.000Z</time><ele>476</ele></trkpt><trkpt lat="46.001211" lon="10.324851"><time>2025-04-28T10:22:49.000Z</time><ele>476</ele></trkpt><trkpt lat="46.001198" lon="10.324852"><time>2025-04-28T10:22:50.000Z</time><ele>475.8</ele></trkpt><trkpt lat="46.001183" lon="10.324853"><time>2025-04-28T10:22:51.000Z</time><ele>475.8</ele></trkpt><trkpt lat="46.001168" lon="10.32486"><time>2025-04-28T10:22:52.000Z</time><ele>475.8</ele></trkpt><trkpt lat="46.001155" lon="10.324878"><time>2025-04-28T10:22:53.000Z</time><ele>475.8</ele></trkpt><trkpt lat="46.001145" lon="10.324891"><time>2025-04-28T10:22:54.000Z</time><ele>475.8</ele></trkpt><trkpt lat="46.001134" lon="10.324901"><time>2025-04-28T10:22:55.000Z</time><ele>475.8</ele></trkpt><trkpt lat="46.001127" lon="10.324912"><time>2025-04-28T10:22:56.000Z</time><ele>475.8</ele></trkpt><trkpt lat="46.001119" lon="10.324926"><time>2025-04-28T10:22:57.000Z</time><ele>475.8</ele></trkpt><trkpt lat="46.001112" lon="10.324946"><time>2025-04-28T10:22:58.000Z</time><ele>475.6</ele></trkpt><trkpt lat="46.001106" lon="10.324966"><time>2025-04-28T10:22:59.000Z</time><ele>475.6</ele></trkpt><trkpt lat="46.001099" lon="10.324986"><time>2025-04-28T10:23:00.000Z</time><ele>475.4</ele></trkpt><trkpt lat="46.001086" lon="10.325001"><time>2025-04-28T10:23:01.000Z</time><ele>475.2</ele></trkpt><trkpt lat="46.001074" lon="10.325014"><time>2025-04-28T10:23:02.000Z</time><ele>475</ele></trkpt><trkpt lat="46.001064" lon="10.325028"><time>2025-04-28T10:23:03.000Z</time><ele>475</ele></trkpt><trkpt lat="46.001046" lon="10.325045"><time>2025-04-28T10:23:04.000Z</time><ele>474.8</ele></trkpt><trkpt lat="46.001031" lon="10.325049"><time>2025-04-28T10:23:05.000Z</time><ele>474.8</ele></trkpt><trkpt lat="46.001018" lon="10.325054"><time>2025-04-28T10:23:06.000Z</time><ele>474.8</ele></trkpt><trkpt lat="46.00101" lon="10.325069"><time>2025-04-28T10:23:07.000Z</time><ele>474.8</ele></trkpt><trkpt lat="46.000998" lon="10.325085"><time>2025-04-28T10:23:08.000Z</time><ele>474.8</ele></trkpt><trkpt lat="46.000996" lon="10.325119"><time>2025-04-28T10:23:09.000Z</time><ele>474.8</ele></trkpt><trkpt lat="46.000987" lon="10.325145"><time>2025-04-28T10:23:10.000Z</time><ele>474.6</ele></trkpt><trkpt lat="46.000973" lon="10.325166"><time>2025-04-28T10:23:11.000Z</time><ele>474.6</ele></trkpt><trkpt lat="46.000965" lon="10.325191"><time>2025-04-28T10:23:12.000Z</time><ele>474.6</ele></trkpt><trkpt lat="46.000963" lon="10.325207"><time>2025-04-28T10:23:13.000Z</time><ele>474.4</ele></trkpt><trkpt lat="46.000959" lon="10.325215"><time>2025-04-28T10:23:14.000Z</time><ele>474.4</ele></trkpt><trkpt lat="46.000949" lon="10.325219"><time>2025-04-28T10:23:15.000Z</time><ele>474.4</ele></trkpt><trkpt lat="46.000934" lon="10.325223"><time>2025-04-28T10:23:16.000Z</time><ele>474.4</ele></trkpt><trkpt lat="46.000922" lon="10.325227"><time>2025-04-28T10:23:17.000Z</time><ele>474.4</ele></trkpt><trkpt lat="46.000919" lon="10.325232"><time>2025-04-28T10:23:18.000Z</time><ele>474.4</ele></trkpt><trkpt lat="46.000918" lon="10.32524"><time>2025-04-28T10:23:19.000Z</time><ele>474.4</ele></trkpt><trkpt lat="46.000916" lon="10.325247"><time>2025-04-28T10:23:20.000Z</time><ele>474.4</ele></trkpt><trkpt lat="46.000916" lon="10.325251"><time>2025-04-28T10:23:21.000Z</time><ele>474.4</ele></trkpt><trkpt lat="46.000914" lon="10.325252"><time>2025-04-28T10:23:22.000Z</time><ele>474.4</ele></trkpt><trkpt lat="46.000915" lon="10.325263"><time>2025-04-28T10:23:23.000Z</time><ele>474.4</ele></trkpt><trkpt lat="46.000911" lon="10.325288"><time>2025-04-28T10:23:24.000Z</time><ele>474.2</ele></trkpt><trkpt lat="46.000902" lon="10.325322"><time>2025-04-28T10:23:25.000Z</time><ele>473.8</ele></trkpt><trkpt lat="46.000894" lon="10.325341"><time>2025-04-28T10:23:26.000Z</time><ele>473.6</ele></trkpt><trkpt lat="46.000884" lon="10.325358"><time>2025-04-28T10:23:27.000Z</time><ele>473.6</ele></trkpt><trkpt lat="46.000875" lon="10.325371"><time>2025-04-28T10:23:28.000Z</time><ele>473.4</ele></trkpt><trkpt lat="46.000865" lon="10.325384"><time>2025-04-28T10:23:29.000Z</time><ele>473.4</ele></trkpt><trkpt lat="46.000855" lon="10.325403"><time>2025-04-28T10:23:30.000Z</time><ele>473.2</ele></trkpt><trkpt lat="46.000845" lon="10.325421"><time>2025-04-28T10:23:31.000Z</time><ele>473.2</ele></trkpt><trkpt lat="46.000841" lon="10.325436"><time>2025-04-28T10:23:32.000Z</time><ele>473</ele></trkpt><trkpt lat="46.000834" lon="10.325452"><time>2025-04-28T10:23:33.000Z</time><ele>472.8</ele></trkpt><trkpt lat="46.000824" lon="10.325468"><time>2025-04-28T10:23:34.000Z</time><ele>472.8</ele></trkpt><trkpt lat="46.000813" lon="10.325486"><time>2025-04-28T10:23:35.000Z</time><ele>472.4</ele></trkpt><trkpt lat="46.000801" lon="10.325496"><time>2025-04-28T10:23:36.000Z</time><ele>472.2</ele></trkpt><trkpt lat="46.000788" lon="10.325506"><time>2025-04-28T10:23:37.000Z</time><ele>471.8</ele></trkpt><trkpt lat="46.00078" lon="10.325527"><time>2025-04-28T10:23:38.000Z</time><ele>471.6</ele></trkpt><trkpt lat="46.000772" lon="10.325545"><time>2025-04-28T10:23:39.000Z</time><ele>471.4</ele></trkpt><trkpt lat="46.000761" lon="10.325563"><time>2025-04-28T10:23:40.000Z</time><ele>471.4</ele></trkpt><trkpt lat="46.000757" lon="10.325581"><time>2025-04-28T10:23:41.000Z</time><ele>471.4</ele></trkpt><trkpt lat="46.00075" lon="10.325599"><time>2025-04-28T10:23:42.000Z</time><ele>471.8</ele></trkpt><trkpt lat="46.000742" lon="10.325614"><time>2025-04-28T10:23:43.000Z</time><ele>472.2</ele></trkpt><trkpt lat="46.000736" lon="10.32563"><time>2025-04-28T10:23:44.000Z</time><ele>472.4</ele></trkpt><trkpt lat="46.000722" lon="10.325641"><time>2025-04-28T10:23:45.000Z</time><ele>472.4</ele></trkpt><trkpt lat="46.000715" lon="10.325648"><time>2025-04-28T10:23:46.000Z</time><ele>472.4</ele></trkpt><trkpt lat="46.000708" lon="10.325657"><time>2025-04-28T10:23:47.000Z</time><ele>472.2</ele></trkpt><trkpt lat="46.000705" lon="10.325671"><time>2025-04-28T10:23:48.000Z</time><ele>472</ele></trkpt><trkpt lat="46.000701" lon="10.325685"><time>2025-04-28T10:23:49.000Z</time><ele>472</ele></trkpt><trkpt lat="46.000691" lon="10.325698"><time>2025-04-28T10:23:50.000Z</time><ele>471.8</ele></trkpt><trkpt lat="46.000668" lon="10.325705"><time>2025-04-28T10:23:51.000Z</time><ele>471.8</ele></trkpt><trkpt lat="46.000649" lon="10.325705"><time>2025-04-28T10:23:52.000Z</time><ele>471.6</ele></trkpt><trkpt lat="46.00064" lon="10.325705"><time>2025-04-28T10:23:53.000Z</time><ele>471.6</ele></trkpt><trkpt lat="46.000631" lon="10.325715"><time>2025-04-28T10:23:54.000Z</time><ele>471.6</ele></trkpt><trkpt lat="46.000629" lon="10.325729"><time>2025-04-28T10:23:55.000Z</time><ele>471.4</ele></trkpt><trkpt lat="46.000628" lon="10.325738"><time>2025-04-28T10:23:56.000Z</time><ele>471.2</ele></trkpt><trkpt lat="46.000632" lon="10.325755"><time>2025-04-28T10:23:57.000Z</time><ele>471</ele></trkpt><trkpt lat="46.000637" lon="10.325774"><time>2025-04-28T10:23:58.000Z</time><ele>471</ele></trkpt><trkpt lat="46.000652" lon="10.325779"><time>2025-04-28T10:23:59.000Z</time><ele>470.8</ele></trkpt><trkpt lat="46.000645" lon="10.325788"><time>2025-04-28T10:24:00.000Z</time><ele>470.6</ele></trkpt><trkpt lat="46.000637" lon="10.325796"><time>2025-04-28T10:24:01.000Z</time><ele>470.4</ele></trkpt><trkpt lat="46.00063" lon="10.325809"><time>2025-04-28T10:24:02.000Z</time><ele>470.4</ele></trkpt><trkpt lat="46.000621" lon="10.325826"><time>2025-04-28T10:24:03.000Z</time><ele>470.2</ele></trkpt><trkpt lat="46.000613" lon="10.325845"><time>2025-04-28T10:24:04.000Z</time><ele>470.2</ele></trkpt><trkpt lat="46.0006" lon="10.325857"><time>2025-04-28T10:24:05.000Z</time><ele>470.2</ele></trkpt><trkpt lat="46.000589" lon="10.325883"><time>2025-04-28T10:24:06.000Z</time><ele>470.2</ele></trkpt><trkpt lat="46.000582" lon="10.325892"><time>2025-04-28T10:24:07.000Z</time><ele>470.2</ele></trkpt><trkpt lat="46.000571" lon="10.325917"><time>2025-04-28T10:24:08.000Z</time><ele>470.2</ele></trkpt><trkpt lat="46.000562" lon="10.325928"><time>2025-04-28T10:24:09.000Z</time><ele>470</ele></trkpt><trkpt lat="46.000559" lon="10.325943"><time>2025-04-28T10:24:10.000Z</time><ele>470</ele></trkpt><trkpt lat="46.000555" lon="10.325958"><time>2025-04-28T10:24:11.000Z</time><ele>470</ele></trkpt><trkpt lat="46.000551" lon="10.325973"><time>2025-04-28T10:24:12.000Z</time><ele>470</ele></trkpt><trkpt lat="46.000549" lon="10.325987"><time>2025-04-28T10:24:13.000Z</time><ele>470</ele></trkpt><trkpt lat="46.000546" lon="10.326007"><time>2025-04-28T10:24:14.000Z</time><ele>470</ele></trkpt><trkpt lat="46.000543" lon="10.326028"><time>2025-04-28T10:24:15.000Z</time><ele>470</ele></trkpt><trkpt lat="46.00054" lon="10.326045"><time>2025-04-28T10:24:16.000Z</time><ele>469.8</ele></trkpt><trkpt lat="46.000533" lon="10.326059"><time>2025-04-28T10:24:17.000Z</time><ele>469.6</ele></trkpt><trkpt lat="46.000525" lon="10.326077"><time>2025-04-28T10:24:18.000Z</time><ele>469.6</ele></trkpt><trkpt lat="46.000515" lon="10.32609"><time>2025-04-28T10:24:19.000Z</time><ele>469.4</ele></trkpt><trkpt lat="46.000506" lon="10.326103"><time>2025-04-28T10:24:20.000Z</time><ele>469.2</ele></trkpt><trkpt lat="46.000495" lon="10.326115"><time>2025-04-28T10:24:21.000Z</time><ele>469.2</ele></trkpt><trkpt lat="46.000486" lon="10.326129"><time>2025-04-28T10:24:22.000Z</time><ele>469.2</ele></trkpt><trkpt lat="46.000481" lon="10.326145"><time>2025-04-28T10:24:23.000Z</time><ele>469</ele></trkpt><trkpt lat="46.000472" lon="10.32616"><time>2025-04-28T10:24:24.000Z</time><ele>468.8</ele></trkpt><trkpt lat="46.000462" lon="10.326176"><time>2025-04-28T10:24:25.000Z</time><ele>468.6</ele></trkpt><trkpt lat="46.000455" lon="10.326191"><time>2025-04-28T10:24:26.000Z</time><ele>468.6</ele></trkpt><trkpt lat="46.000443" lon="10.326209"><time>2025-04-28T10:24:27.000Z</time><ele>468.4</ele></trkpt><trkpt lat="46.000429" lon="10.326223"><time>2025-04-28T10:24:28.000Z</time><ele>468.4</ele></trkpt><trkpt lat="46.000418" lon="10.326236"><time>2025-04-28T10:24:29.000Z</time><ele>468.4</ele></trkpt><trkpt lat="46.000406" lon="10.326247"><time>2025-04-28T10:24:30.000Z</time><ele>468.4</ele></trkpt><trkpt lat="46.000394" lon="10.326258"><time>2025-04-28T10:24:31.000Z</time><ele>468.2</ele></trkpt><trkpt lat="46.000382" lon="10.326272"><time>2025-04-28T10:24:32.000Z</time><ele>468.2</ele></trkpt><trkpt lat="46.000371" lon="10.326285"><time>2025-04-28T10:24:33.000Z</time><ele>468.2</ele></trkpt><trkpt lat="46.000361" lon="10.326299"><time>2025-04-28T10:24:34.000Z</time><ele>468</ele></trkpt><trkpt lat="46.000347" lon="10.326309"><time>2025-04-28T10:24:35.000Z</time><ele>467.8</ele></trkpt><trkpt lat="46.000335" lon="10.326325"><time>2025-04-28T10:24:36.000Z</time><ele>467.6</ele></trkpt><trkpt lat="46.000322" lon="10.326338"><time>2025-04-28T10:24:37.000Z</time><ele>467.6</ele></trkpt><trkpt lat="46.000306" lon="10.326349"><time>2025-04-28T10:24:38.000Z</time><ele>467.4</ele></trkpt><trkpt lat="46.000292" lon="10.326365"><time>2025-04-28T10:24:39.000Z</time><ele>467.2</ele></trkpt><trkpt lat="46.000282" lon="10.326383"><time>2025-04-28T10:24:40.000Z</time><ele>467</ele></trkpt><trkpt lat="46.000281" lon="10.326407"><time>2025-04-28T10:24:41.000Z</time><ele>467</ele></trkpt><trkpt lat="46.000268" lon="10.326423"><time>2025-04-28T10:24:42.000Z</time><ele>466.8</ele></trkpt><trkpt lat="46.000255" lon="10.326437"><time>2025-04-28T10:24:43.000Z</time><ele>466.6</ele></trkpt><trkpt lat="46.00025" lon="10.326457"><time>2025-04-28T10:24:44.000Z</time><ele>466.6</ele></trkpt><trkpt lat="46.00024" lon="10.326472"><time>2025-04-28T10:24:45.000Z</time><ele>466.6</ele></trkpt><trkpt lat="46.000234" lon="10.326482"><time>2025-04-28T10:24:46.000Z</time><ele>466.6</ele></trkpt><trkpt lat="46.000231" lon="10.326489"><time>2025-04-28T10:24:47.000Z</time><ele>466.4</ele></trkpt><trkpt lat="46.000217" lon="10.326505"><time>2025-04-28T10:24:48.000Z</time><ele>466.4</ele></trkpt><trkpt lat="46.000203" lon="10.326518"><time>2025-04-28T10:24:49.000Z</time><ele>466.2</ele></trkpt><trkpt lat="46.000193" lon="10.326539"><time>2025-04-28T10:24:50.000Z</time><ele>466.2</ele></trkpt><trkpt lat="46.000182" lon="10.326552"><time>2025-04-28T10:24:51.000Z</time><ele>466.2</ele></trkpt><trkpt lat="46.000171" lon="10.326568"><time>2025-04-28T10:24:52.000Z</time><ele>466.2</ele></trkpt><trkpt lat="46.00016" lon="10.32658"><time>2025-04-28T10:24:53.000Z</time><ele>466</ele></trkpt><trkpt lat="46.000144" lon="10.326602"><time>2025-04-28T10:24:54.000Z</time><ele>465.8</ele></trkpt><trkpt lat="46.000135" lon="10.326625"><time>2025-04-28T10:24:55.000Z</time><ele>465.8</ele></trkpt><trkpt lat="46.000127" lon="10.326641"><time>2025-04-28T10:24:56.000Z</time><ele>465.6</ele></trkpt><trkpt lat="46.000113" lon="10.326653"><time>2025-04-28T10:24:57.000Z</time><ele>465.6</ele></trkpt><trkpt lat="46.000103" lon="10.326669"><time>2025-04-28T10:24:58.000Z</time><ele>465.6</ele></trkpt><trkpt lat="46.000093" lon="10.326683"><time>2025-04-28T10:24:59.000Z</time><ele>465.6</ele></trkpt><trkpt lat="46.000084" lon="10.326701"><time>2025-04-28T10:25:00.000Z</time><ele>465.6</ele></trkpt><trkpt lat="46.000082" lon="10.326723"><time>2025-04-28T10:25:01.000Z</time><ele>465.4</ele></trkpt><trkpt lat="46.000078" lon="10.326746"><time>2025-04-28T10:25:02.000Z</time><ele>465.2</ele></trkpt><trkpt lat="46.000073" lon="10.326765"><time>2025-04-28T10:25:03.000Z</time><ele>465.4</ele></trkpt><trkpt lat="46.000065" lon="10.326784"><time>2025-04-28T10:25:04.000Z</time><ele>465.2</ele></trkpt><trkpt lat="46.000058" lon="10.3268"><time>2025-04-28T10:25:05.000Z</time><ele>465.2</ele></trkpt><trkpt lat="46.000047" lon="10.326814"><time>2025-04-28T10:25:06.000Z</time><ele>465</ele></trkpt><trkpt lat="46.000037" lon="10.326827"><time>2025-04-28T10:25:07.000Z</time><ele>465</ele></trkpt><trkpt lat="46.000032" lon="10.326842"><time>2025-04-28T10:25:08.000Z</time><ele>465</ele></trkpt><trkpt lat="46.000023" lon="10.326855"><time>2025-04-28T10:25:09.000Z</time><ele>465</ele></trkpt><trkpt lat="46.000014" lon="10.326869"><time>2025-04-28T10:25:10.000Z</time><ele>464.6</ele></trkpt><trkpt lat="46.000006" lon="10.326887"><time>2025-04-28T10:25:11.000Z</time><ele>464.4</ele></trkpt><trkpt lat="45.999996" lon="10.326905"><time>2025-04-28T10:25:12.000Z</time><ele>464.2</ele></trkpt><trkpt lat="45.999987" lon="10.326917"><time>2025-04-28T10:25:13.000Z</time><ele>463.8</ele></trkpt><trkpt lat="45.999975" lon="10.326927"><time>2025-04-28T10:25:14.000Z</time><ele>463.6</ele></trkpt><trkpt lat="45.999961" lon="10.326941"><time>2025-04-28T10:25:15.000Z</time><ele>463.4</ele></trkpt><trkpt lat="45.999948" lon="10.326959"><time>2025-04-28T10:25:16.000Z</time><ele>463.4</ele></trkpt><trkpt lat="45.999935" lon="10.326968"><time>2025-04-28T10:25:17.000Z</time><ele>463.4</ele></trkpt><trkpt lat="45.999923" lon="10.326978"><time>2025-04-28T10:25:18.000Z</time><ele>463.4</ele></trkpt><trkpt lat="45.99991" lon="10.326989"><time>2025-04-28T10:25:19.000Z</time><ele>463.4</ele></trkpt><trkpt lat="45.999898" lon="10.327005"><time>2025-04-28T10:25:20.000Z</time><ele>463.4</ele></trkpt><trkpt lat="45.999888" lon="10.327018"><time>2025-04-28T10:25:21.000Z</time><ele>463.4</ele></trkpt><trkpt lat="45.999875" lon="10.32703"><time>2025-04-28T10:25:22.000Z</time><ele>463.2</ele></trkpt><trkpt lat="45.999865" lon="10.32705"><time>2025-04-28T10:25:23.000Z</time><ele>463.2</ele></trkpt><trkpt lat="45.999853" lon="10.327055"><time>2025-04-28T10:25:24.000Z</time><ele>463.2</ele></trkpt><trkpt lat="45.99984" lon="10.327063"><time>2025-04-28T10:25:25.000Z</time><ele>463.2</ele></trkpt><trkpt lat="45.999827" lon="10.327076"><time>2025-04-28T10:25:26.000Z</time><ele>463.2</ele></trkpt><trkpt lat="45.999819" lon="10.327088"><time>2025-04-28T10:25:27.000Z</time><ele>463.2</ele></trkpt><trkpt lat="45.999811" lon="10.327106"><time>2025-04-28T10:25:28.000Z</time><ele>463</ele></trkpt><trkpt lat="45.999806" lon="10.327121"><time>2025-04-28T10:25:29.000Z</time><ele>463</ele></trkpt><trkpt lat="45.999799" lon="10.327137"><time>2025-04-28T10:25:30.000Z</time><ele>463</ele></trkpt><trkpt lat="45.999793" lon="10.327153"><time>2025-04-28T10:25:31.000Z</time><ele>463</ele></trkpt><trkpt lat="45.999789" lon="10.32717"><time>2025-04-28T10:25:32.000Z</time><ele>463</ele></trkpt><trkpt lat="45.999783" lon="10.327188"><time>2025-04-28T10:25:33.000Z</time><ele>463</ele></trkpt><trkpt lat="45.999776" lon="10.3272"><time>2025-04-28T10:25:34.000Z</time><ele>463</ele></trkpt><trkpt lat="45.999769" lon="10.327211"><time>2025-04-28T10:25:35.000Z</time><ele>463</ele></trkpt><trkpt lat="45.99976" lon="10.327223"><time>2025-04-28T10:25:36.000Z</time><ele>463</ele></trkpt><trkpt lat="45.999752" lon="10.327236"><time>2025-04-28T10:25:37.000Z</time><ele>463</ele></trkpt><trkpt lat="45.999743" lon="10.327251"><time>2025-04-28T10:25:38.000Z</time><ele>463</ele></trkpt><trkpt lat="45.999737" lon="10.327265"><time>2025-04-28T10:25:39.000Z</time><ele>463</ele></trkpt><trkpt lat="45.999729" lon="10.327277"><time>2025-04-28T10:25:40.000Z</time><ele>463</ele></trkpt><trkpt lat="45.999719" lon="10.327287"><time>2025-04-28T10:25:41.000Z</time><ele>463</ele></trkpt><trkpt lat="45.999709" lon="10.327298"><time>2025-04-28T10:25:42.000Z</time><ele>463</ele></trkpt><trkpt lat="45.999696" lon="10.32731"><time>2025-04-28T10:25:43.000Z</time><ele>463</ele></trkpt><trkpt lat="45.999678" lon="10.327318"><time>2025-04-28T10:25:44.000Z</time><ele>463</ele></trkpt><trkpt lat="45.999661" lon="10.327325"><time>2025-04-28T10:25:45.000Z</time><ele>463.2</ele></trkpt><trkpt lat="45.999653" lon="10.32733"><time>2025-04-28T10:25:46.000Z</time><ele>463.4</ele></trkpt><trkpt lat="45.999645" lon="10.327333"><time>2025-04-28T10:25:47.000Z</time><ele>463.4</ele></trkpt><trkpt lat="45.999636" lon="10.327337"><time>2025-04-28T10:25:48.000Z</time><ele>463.6</ele></trkpt><trkpt lat="45.999626" lon="10.327342"><time>2025-04-28T10:25:49.000Z</time><ele>463.4</ele></trkpt><trkpt lat="45.999615" lon="10.327349"><time>2025-04-28T10:25:50.000Z</time><ele>463.4</ele></trkpt><trkpt lat="45.999609" lon="10.327359"><time>2025-04-28T10:25:51.000Z</time><ele>463.2</ele></trkpt><trkpt lat="45.999599" lon="10.327369"><time>2025-04-28T10:25:52.000Z</time><ele>463.2</ele></trkpt><trkpt lat="45.999593" lon="10.327381"><time>2025-04-28T10:25:53.000Z</time><ele>463.2</ele></trkpt><trkpt lat="45.999588" lon="10.32739"><time>2025-04-28T10:25:54.000Z</time><ele>463.2</ele></trkpt><trkpt lat="45.99958" lon="10.327398"><time>2025-04-28T10:25:55.000Z</time><ele>463.2</ele></trkpt><trkpt lat="45.999577" lon="10.327406"><time>2025-04-28T10:25:56.000Z</time><ele>463.2</ele></trkpt><trkpt lat="45.99957" lon="10.327418"><time>2025-04-28T10:25:57.000Z</time><ele>463.2</ele></trkpt><trkpt lat="45.999558" lon="10.327432"><time>2025-04-28T10:25:58.000Z</time><ele>463.2</ele></trkpt><trkpt lat="45.999551" lon="10.327442"><time>2025-04-28T10:25:59.000Z</time><ele>463.4</ele></trkpt><trkpt lat="45.999539" lon="10.327446"><time>2025-04-28T10:26:00.000Z</time><ele>463.4</ele></trkpt><trkpt lat="45.999525" lon="10.327451"><time>2025-04-28T10:26:01.000Z</time><ele>463.4</ele></trkpt><trkpt lat="45.999512" lon="10.32745"><time>2025-04-28T10:26:02.000Z</time><ele>463.6</ele></trkpt><trkpt lat="45.999501" lon="10.327447"><time>2025-04-28T10:26:03.000Z</time><ele>463.6</ele></trkpt><trkpt lat="45.999489" lon="10.327441"><time>2025-04-28T10:26:04.000Z</time><ele>463.6</ele></trkpt><trkpt lat="45.999475" lon="10.327445"><time>2025-04-28T10:26:05.000Z</time><ele>463.6</ele></trkpt><trkpt lat="45.999463" lon="10.32745"><time>2025-04-28T10:26:06.000Z</time><ele>463.6</ele></trkpt><trkpt lat="45.999447" lon="10.327448"><time>2025-04-28T10:26:07.000Z</time><ele>463.6</ele></trkpt><trkpt lat="45.999432" lon="10.327435"><time>2025-04-28T10:26:08.000Z</time><ele>463.6</ele></trkpt><trkpt lat="45.999416" lon="10.327432"><time>2025-04-28T10:26:09.000Z</time><ele>463.6</ele></trkpt><trkpt lat="45.999403" lon="10.327431"><time>2025-04-28T10:26:10.000Z</time><ele>463.8</ele></trkpt><trkpt lat="45.999379" lon="10.327428"><time>2025-04-28T10:26:11.000Z</time><ele>463.8</ele></trkpt><trkpt lat="45.999363" lon="10.327437"><time>2025-04-28T10:26:12.000Z</time><ele>463.8</ele></trkpt><trkpt lat="45.99935" lon="10.327446"><time>2025-04-28T10:26:13.000Z</time><ele>463.8</ele></trkpt><trkpt lat="45.999338" lon="10.327454"><time>2025-04-28T10:26:14.000Z</time><ele>464</ele></trkpt><trkpt lat="45.999327" lon="10.327458"><time>2025-04-28T10:26:15.000Z</time><ele>464</ele></trkpt><trkpt lat="45.999312" lon="10.327468"><time>2025-04-28T10:26:16.000Z</time><ele>464</ele></trkpt><trkpt lat="45.999298" lon="10.32748"><time>2025-04-28T10:26:17.000Z</time><ele>463.8</ele></trkpt><trkpt lat="45.999283" lon="10.327483"><time>2025-04-28T10:26:18.000Z</time><ele>463.8</ele></trkpt><trkpt lat="45.999267" lon="10.327477"><time>2025-04-28T10:26:19.000Z</time><ele>463.8</ele></trkpt><trkpt lat="45.99926" lon="10.327457"><time>2025-04-28T10:26:20.000Z</time><ele>463.8</ele></trkpt><trkpt lat="45.999249" lon="10.327454"><time>2025-04-28T10:26:21.000Z</time><ele>463.8</ele></trkpt><trkpt lat="45.999229" lon="10.32746"><time>2025-04-28T10:26:22.000Z</time><ele>463.8</ele></trkpt><trkpt lat="45.999217" lon="10.327456"><time>2025-04-28T10:26:23.000Z</time><ele>463.8</ele></trkpt><trkpt lat="45.99921" lon="10.327451"><time>2025-04-28T10:26:24.000Z</time><ele>464</ele></trkpt><trkpt lat="45.999204" lon="10.327441"><time>2025-04-28T10:26:25.000Z</time><ele>464</ele></trkpt><trkpt lat="45.999195" lon="10.327435"><time>2025-04-28T10:26:26.000Z</time><ele>464</ele></trkpt><trkpt lat="45.999179" lon="10.32743"><time>2025-04-28T10:26:27.000Z</time><ele>464</ele></trkpt><trkpt lat="45.999166" lon="10.327426"><time>2025-04-28T10:26:28.000Z</time><ele>463.8</ele></trkpt><trkpt lat="45.999155" lon="10.327425"><time>2025-04-28T10:26:29.000Z</time><ele>463.8</ele></trkpt><trkpt lat="45.999141" lon="10.327424"><time>2025-04-28T10:26:30.000Z</time><ele>463.8</ele></trkpt><trkpt lat="45.999131" lon="10.327428"><time>2025-04-28T10:26:31.000Z</time><ele>463.6</ele></trkpt><trkpt lat="45.999119" lon="10.327426"><time>2025-04-28T10:26:32.000Z</time><ele>463.4</ele></trkpt><trkpt lat="45.999106" lon="10.327423"><time>2025-04-28T10:26:33.000Z</time><ele>463.2</ele></trkpt><trkpt lat="45.999096" lon="10.327418"><time>2025-04-28T10:26:34.000Z</time><ele>463.2</ele></trkpt><trkpt lat="45.999084" lon="10.327415"><time>2025-04-28T10:26:35.000Z</time><ele>463</ele></trkpt><trkpt lat="45.999072" lon="10.327412"><time>2025-04-28T10:26:36.000Z</time><ele>462.8</ele></trkpt><trkpt lat="45.999056" lon="10.327408"><time>2025-04-28T10:26:37.000Z</time><ele>462.8</ele></trkpt><trkpt lat="45.99904" lon="10.327399"><time>2025-04-28T10:26:38.000Z</time><ele>462.6</ele></trkpt><trkpt lat="45.99901" lon="10.327372"><time>2025-04-28T10:26:39.000Z</time><ele>462.6</ele></trkpt><trkpt lat="45.99898" lon="10.327349"><time>2025-04-28T10:26:40.000Z</time><ele>462.6</ele></trkpt><trkpt lat="45.998955" lon="10.327348"><time>2025-04-28T10:26:41.000Z</time><ele>462.4</ele></trkpt><trkpt lat="45.998934" lon="10.327345"><time>2025-04-28T10:26:42.000Z</time><ele>462.4</ele></trkpt><trkpt lat="45.998918" lon="10.327342"><time>2025-04-28T10:26:43.000Z</time><ele>462.4</ele></trkpt><trkpt lat="45.998906" lon="10.32734"><time>2025-04-28T10:26:44.000Z</time><ele>462.2</ele></trkpt><trkpt lat="45.9989" lon="10.327351"><time>2025-04-28T10:26:45.000Z</time><ele>462.2</ele></trkpt><trkpt lat="45.998893" lon="10.327351"><time>2025-04-28T10:26:46.000Z</time><ele>462.2</ele></trkpt><trkpt lat="45.998886" lon="10.327355"><time>2025-04-28T10:26:47.000Z</time><ele>462.2</ele></trkpt><trkpt lat="45.998876" lon="10.327358"><time>2025-04-28T10:26:48.000Z</time><ele>462.2</ele></trkpt><trkpt lat="45.998864" lon="10.327363"><time>2025-04-28T10:26:49.000Z</time><ele>462.2</ele></trkpt><trkpt lat="45.998854" lon="10.327358"><time>2025-04-28T10:26:50.000Z</time><ele>462.2</ele></trkpt><trkpt lat="45.998841" lon="10.327348"><time>2025-04-28T10:26:51.000Z</time><ele>462.2</ele></trkpt><trkpt lat="45.998827" lon="10.32734"><time>2025-04-28T10:26:52.000Z</time><ele>462.2</ele></trkpt><trkpt lat="45.998811" lon="10.327334"><time>2025-04-28T10:26:53.000Z</time><ele>462.2</ele></trkpt><trkpt lat="45.998794" lon="10.327328"><time>2025-04-28T10:26:54.000Z</time><ele>462</ele></trkpt><trkpt lat="45.998777" lon="10.327324"><time>2025-04-28T10:26:55.000Z</time><ele>462</ele></trkpt><trkpt lat="45.998765" lon="10.32732"><time>2025-04-28T10:26:56.000Z</time><ele>462</ele></trkpt><trkpt lat="45.998758" lon="10.327315"><time>2025-04-28T10:26:57.000Z</time><ele>461.8</ele></trkpt><trkpt lat="45.998738" lon="10.327304"><time>2025-04-28T10:26:58.000Z</time><ele>461.8</ele></trkpt><trkpt lat="45.998717" lon="10.327301"><time>2025-04-28T10:26:59.000Z</time><ele>462</ele></trkpt><trkpt lat="45.998691" lon="10.327308"><time>2025-04-28T10:27:00.000Z</time><ele>462</ele></trkpt><trkpt lat="45.998671" lon="10.327314"><time>2025-04-28T10:27:01.000Z</time><ele>461.8</ele></trkpt><trkpt lat="45.99867" lon="10.327321"><time>2025-04-28T10:27:02.000Z</time><ele>462</ele></trkpt><trkpt lat="45.998664" lon="10.327326"><time>2025-04-28T10:27:03.000Z</time><ele>462</ele></trkpt><trkpt lat="45.998655" lon="10.327331"><time>2025-04-28T10:27:04.000Z</time><ele>462.2</ele></trkpt><trkpt lat="45.998646" lon="10.327339"><time>2025-04-28T10:27:05.000Z</time><ele>462.2</ele></trkpt><trkpt lat="45.998642" lon="10.327335"><time>2025-04-28T10:27:06.000Z</time><ele>462.2</ele></trkpt><trkpt lat="45.998633" lon="10.32733"><time>2025-04-28T10:27:07.000Z</time><ele>462</ele></trkpt><trkpt lat="45.998619" lon="10.327323"><time>2025-04-28T10:27:08.000Z</time><ele>462</ele></trkpt><trkpt lat="45.998598" lon="10.327318"><time>2025-04-28T10:27:09.000Z</time><ele>462</ele></trkpt><trkpt lat="45.998579" lon="10.327308"><time>2025-04-28T10:27:10.000Z</time><ele>461.8</ele></trkpt><trkpt lat="45.998566" lon="10.327311"><time>2025-04-28T10:27:11.000Z</time><ele>461.8</ele></trkpt><trkpt lat="45.998559" lon="10.327317"><time>2025-04-28T10:27:12.000Z</time><ele>461.8</ele></trkpt><trkpt lat="45.998546" lon="10.327323"><time>2025-04-28T10:27:13.000Z</time><ele>461.6</ele></trkpt><trkpt lat="45.998532" lon="10.327329"><time>2025-04-28T10:27:14.000Z</time><ele>461.6</ele></trkpt><trkpt lat="45.998514" lon="10.327331"><time>2025-04-28T10:27:15.000Z</time><ele>461.6</ele></trkpt><trkpt lat="45.998499" lon="10.327341"><time>2025-04-28T10:27:16.000Z</time><ele>461.6</ele></trkpt><trkpt lat="45.998484" lon="10.327345"><time>2025-04-28T10:27:17.000Z</time><ele>461.6</ele></trkpt><trkpt lat="45.998468" lon="10.327347"><time>2025-04-28T10:27:18.000Z</time><ele>461.6</ele></trkpt><trkpt lat="45.998454" lon="10.327349"><time>2025-04-28T10:27:19.000Z</time><ele>461.6</ele></trkpt><trkpt lat="45.99844" lon="10.327352"><time>2025-04-28T10:27:20.000Z</time><ele>461.6</ele></trkpt><trkpt lat="45.998425" lon="10.327354"><time>2025-04-28T10:27:21.000Z</time><ele>461.6</ele></trkpt><trkpt lat="45.99841" lon="10.327355"><time>2025-04-28T10:27:22.000Z</time><ele>461.4</ele></trkpt><trkpt lat="45.998396" lon="10.327354"><time>2025-04-28T10:27:23.000Z</time><ele>461.2</ele></trkpt><trkpt lat="45.998384" lon="10.327353"><time>2025-04-28T10:27:24.000Z</time><ele>461.2</ele></trkpt><trkpt lat="45.998372" lon="10.327352"><time>2025-04-28T10:27:25.000Z</time><ele>461</ele></trkpt><trkpt lat="45.99836" lon="10.327352"><time>2025-04-28T10:27:26.000Z</time><ele>461</ele></trkpt><trkpt lat="45.998347" lon="10.327355"><time>2025-04-28T10:27:27.000Z</time><ele>461</ele></trkpt><trkpt lat="45.998333" lon="10.32736"><time>2025-04-28T10:27:28.000Z</time><ele>461</ele></trkpt><trkpt lat="45.998321" lon="10.327362"><time>2025-04-28T10:27:29.000Z</time><ele>461</ele></trkpt><trkpt lat="45.998309" lon="10.327364"><time>2025-04-28T10:27:30.000Z</time><ele>461</ele></trkpt><trkpt lat="45.998296" lon="10.327365"><time>2025-04-28T10:27:31.000Z</time><ele>461</ele></trkpt><trkpt lat="45.998282" lon="10.327364"><time>2025-04-28T10:27:32.000Z</time><ele>461</ele></trkpt><trkpt lat="45.998267" lon="10.327366"><time>2025-04-28T10:27:33.000Z</time><ele>461</ele></trkpt><trkpt lat="45.998254" lon="10.327372"><time>2025-04-28T10:27:34.000Z</time><ele>461.2</ele></trkpt><trkpt lat="45.998241" lon="10.327376"><time>2025-04-28T10:27:35.000Z</time><ele>461.2</ele></trkpt><trkpt lat="45.998225" lon="10.327373"><time>2025-04-28T10:27:36.000Z</time><ele>461.2</ele></trkpt><trkpt lat="45.998209" lon="10.327374"><time>2025-04-28T10:27:37.000Z</time><ele>461.2</ele></trkpt><trkpt lat="45.998201" lon="10.327381"><time>2025-04-28T10:27:38.000Z</time><ele>461</ele></trkpt><trkpt lat="45.998189" lon="10.327395"><time>2025-04-28T10:27:39.000Z</time><ele>461</ele></trkpt><trkpt lat="45.998179" lon="10.327409"><time>2025-04-28T10:27:40.000Z</time><ele>461</ele></trkpt><trkpt lat="45.998166" lon="10.327417"><time>2025-04-28T10:27:41.000Z</time><ele>461</ele></trkpt><trkpt lat="45.998147" lon="10.327424"><time>2025-04-28T10:27:42.000Z</time><ele>461</ele></trkpt><trkpt lat="45.998124" lon="10.327421"><time>2025-04-28T10:27:43.000Z</time><ele>460.8</ele></trkpt><trkpt lat="45.998111" lon="10.327424"><time>2025-04-28T10:27:44.000Z</time><ele>460.8</ele></trkpt><trkpt lat="45.998101" lon="10.327427"><time>2025-04-28T10:27:45.000Z</time><ele>460.8</ele></trkpt><trkpt lat="45.998082" lon="10.327431"><time>2025-04-28T10:27:46.000Z</time><ele>460.6</ele></trkpt><trkpt lat="45.998065" lon="10.327433"><time>2025-04-28T10:27:47.000Z</time><ele>460.6</ele></trkpt><trkpt lat="45.998054" lon="10.327438"><time>2025-04-28T10:27:48.000Z</time><ele>460.6</ele></trkpt><trkpt lat="45.998038" lon="10.327443"><time>2025-04-28T10:27:49.000Z</time><ele>460.6</ele></trkpt><trkpt lat="45.998022" lon="10.32745"><time>2025-04-28T10:27:50.000Z</time><ele>460.6</ele></trkpt><trkpt lat="45.998011" lon="10.327462"><time>2025-04-28T10:27:51.000Z</time><ele>460.6</ele></trkpt><trkpt lat="45.997999" lon="10.327468"><time>2025-04-28T10:27:52.000Z</time><ele>460.4</ele></trkpt><trkpt lat="45.997986" lon="10.327466"><time>2025-04-28T10:27:53.000Z</time><ele>460.2</ele></trkpt><trkpt lat="45.997972" lon="10.327469"><time>2025-04-28T10:27:54.000Z</time><ele>460</ele></trkpt><trkpt lat="45.997962" lon="10.327474"><time>2025-04-28T10:27:55.000Z</time><ele>459.8</ele></trkpt><trkpt lat="45.997955" lon="10.327483"><time>2025-04-28T10:27:56.000Z</time><ele>459.8</ele></trkpt><trkpt lat="45.997945" lon="10.327494"><time>2025-04-28T10:27:57.000Z</time><ele>459.6</ele></trkpt><trkpt lat="45.997934" lon="10.327504"><time>2025-04-28T10:27:58.000Z</time><ele>459.4</ele></trkpt><trkpt lat="45.997925" lon="10.327514"><time>2025-04-28T10:27:59.000Z</time><ele>459.2</ele></trkpt><trkpt lat="45.997919" lon="10.327527"><time>2025-04-28T10:28:00.000Z</time><ele>459.2</ele></trkpt><trkpt lat="45.99791" lon="10.32754"><time>2025-04-28T10:28:01.000Z</time><ele>459</ele></trkpt><trkpt lat="45.997897" lon="10.32755"><time>2025-04-28T10:28:02.000Z</time><ele>459</ele></trkpt><trkpt lat="45.997885" lon="10.327559"><time>2025-04-28T10:28:03.000Z</time><ele>458.8</ele></trkpt><trkpt lat="45.997872" lon="10.327566"><time>2025-04-28T10:28:04.000Z</time><ele>458.8</ele></trkpt><trkpt lat="45.99786" lon="10.327569"><time>2025-04-28T10:28:05.000Z</time><ele>458.6</ele></trkpt><trkpt lat="45.997851" lon="10.327572"><time>2025-04-28T10:28:06.000Z</time><ele>458.6</ele></trkpt><trkpt lat="45.99784" lon="10.327575"><time>2025-04-28T10:28:07.000Z</time><ele>458.6</ele></trkpt><trkpt lat="45.997828" lon="10.327582"><time>2025-04-28T10:28:08.000Z</time><ele>458.4</ele></trkpt><trkpt lat="45.997817" lon="10.327594"><time>2025-04-28T10:28:09.000Z</time><ele>458.4</ele></trkpt><trkpt lat="45.997806" lon="10.327606"><time>2025-04-28T10:28:10.000Z</time><ele>458.4</ele></trkpt><trkpt lat="45.997796" lon="10.327616"><time>2025-04-28T10:28:11.000Z</time><ele>458.2</ele></trkpt><trkpt lat="45.997784" lon="10.327627"><time>2025-04-28T10:28:12.000Z</time><ele>458.2</ele></trkpt><trkpt lat="45.99777" lon="10.327634"><time>2025-04-28T10:28:13.000Z</time><ele>458.2</ele></trkpt><trkpt lat="45.997754" lon="10.327637"><time>2025-04-28T10:28:14.000Z</time><ele>458</ele></trkpt><trkpt lat="45.997745" lon="10.327643"><time>2025-04-28T10:28:15.000Z</time><ele>458</ele></trkpt><trkpt lat="45.997734" lon="10.327648"><time>2025-04-28T10:28:16.000Z</time><ele>458</ele></trkpt><trkpt lat="45.997723" lon="10.327655"><time>2025-04-28T10:28:17.000Z</time><ele>458</ele></trkpt><trkpt lat="45.997711" lon="10.327663"><time>2025-04-28T10:28:18.000Z</time><ele>458</ele></trkpt><trkpt lat="45.997699" lon="10.32767"><time>2025-04-28T10:28:19.000Z</time><ele>458</ele></trkpt><trkpt lat="45.997682" lon="10.327674"><time>2025-04-28T10:28:20.000Z</time><ele>458</ele></trkpt><trkpt lat="45.997671" lon="10.327683"><time>2025-04-28T10:28:21.000Z</time><ele>458</ele></trkpt><trkpt lat="45.99766" lon="10.327689"><time>2025-04-28T10:28:22.000Z</time><ele>458</ele></trkpt><trkpt lat="45.997649" lon="10.327702"><time>2025-04-28T10:28:23.000Z</time><ele>457.8</ele></trkpt><trkpt lat="45.997638" lon="10.327717"><time>2025-04-28T10:28:24.000Z</time><ele>457.8</ele></trkpt><trkpt lat="45.997623" lon="10.327721"><time>2025-04-28T10:28:25.000Z</time><ele>457.8</ele></trkpt><trkpt lat="45.997611" lon="10.327723"><time>2025-04-28T10:28:26.000Z</time><ele>457.6</ele></trkpt><trkpt lat="45.997598" lon="10.327725"><time>2025-04-28T10:28:27.000Z</time><ele>457.4</ele></trkpt><trkpt lat="45.997586" lon="10.327733"><time>2025-04-28T10:28:28.000Z</time><ele>457.4</ele></trkpt><trkpt lat="45.997575" lon="10.327745"><time>2025-04-28T10:28:29.000Z</time><ele>457.2</ele></trkpt><trkpt lat="45.997568" lon="10.327759"><time>2025-04-28T10:28:30.000Z</time><ele>457</ele></trkpt><trkpt lat="45.997557" lon="10.327769"><time>2025-04-28T10:28:31.000Z</time><ele>456.8</ele></trkpt><trkpt lat="45.997543" lon="10.327771"><time>2025-04-28T10:28:32.000Z</time><ele>456.6</ele></trkpt><trkpt lat="45.997527" lon="10.327773"><time>2025-04-28T10:28:33.000Z</time><ele>456.4</ele></trkpt><trkpt lat="45.997512" lon="10.327775"><time>2025-04-28T10:28:34.000Z</time><ele>456.4</ele></trkpt><trkpt lat="45.997503" lon="10.327779"><time>2025-04-28T10:28:35.000Z</time><ele>456.4</ele></trkpt><trkpt lat="45.997479" lon="10.327786"><time>2025-04-28T10:28:36.000Z</time><ele>456.2</ele></trkpt><trkpt lat="45.997467" lon="10.327794"><time>2025-04-28T10:28:37.000Z</time><ele>456</ele></trkpt><trkpt lat="45.99746" lon="10.327788"><time>2025-04-28T10:28:38.000Z</time><ele>455.8</ele></trkpt><trkpt lat="45.997441" lon="10.327785"><time>2025-04-28T10:28:39.000Z</time><ele>455.6</ele></trkpt><trkpt lat="45.997424" lon="10.327789"><time>2025-04-28T10:28:40.000Z</time><ele>455.6</ele></trkpt><trkpt lat="45.997403" lon="10.327791"><time>2025-04-28T10:28:41.000Z</time><ele>455.4</ele></trkpt><trkpt lat="45.997389" lon="10.327801"><time>2025-04-28T10:28:42.000Z</time><ele>455.4</ele></trkpt><trkpt lat="45.997379" lon="10.327813"><time>2025-04-28T10:28:43.000Z</time><ele>455.4</ele></trkpt><trkpt lat="45.997366" lon="10.327821"><time>2025-04-28T10:28:44.000Z</time><ele>455.4</ele></trkpt><trkpt lat="45.997352" lon="10.327827"><time>2025-04-28T10:28:45.000Z</time><ele>455.2</ele></trkpt><trkpt lat="45.997341" lon="10.32783"><time>2025-04-28T10:28:46.000Z</time><ele>455.2</ele></trkpt><trkpt lat="45.997333" lon="10.327835"><time>2025-04-28T10:28:47.000Z</time><ele>455.2</ele></trkpt><trkpt lat="45.997327" lon="10.327844"><time>2025-04-28T10:28:48.000Z</time><ele>455.2</ele></trkpt><trkpt lat="45.99732" lon="10.327855"><time>2025-04-28T10:28:49.000Z</time><ele>455</ele></trkpt><trkpt lat="45.99731" lon="10.327864"><time>2025-04-28T10:28:50.000Z</time><ele>455</ele></trkpt><trkpt lat="45.997296" lon="10.327874"><time>2025-04-28T10:28:51.000Z</time><ele>454.8</ele></trkpt><trkpt lat="45.997285" lon="10.327881"><time>2025-04-28T10:28:52.000Z</time><ele>454.8</ele></trkpt><trkpt lat="45.99727" lon="10.327894"><time>2025-04-28T10:28:53.000Z</time><ele>454.6</ele></trkpt><trkpt lat="45.997252" lon="10.327899"><time>2025-04-28T10:28:54.000Z</time><ele>454.4</ele></trkpt><trkpt lat="45.997223" lon="10.327893"><time>2025-04-28T10:28:55.000Z</time><ele>454.2</ele></trkpt><trkpt lat="45.997196" lon="10.327889"><time>2025-04-28T10:28:56.000Z</time><ele>454.2</ele></trkpt><trkpt lat="45.997182" lon="10.327891"><time>2025-04-28T10:28:57.000Z</time><ele>454</ele></trkpt><trkpt lat="45.997166" lon="10.327893"><time>2025-04-28T10:28:58.000Z</time><ele>454</ele></trkpt><trkpt lat="45.997155" lon="10.327903"><time>2025-04-28T10:28:59.000Z</time><ele>454</ele></trkpt><trkpt lat="45.997149" lon="10.327911"><time>2025-04-28T10:29:00.000Z</time><ele>453.8</ele></trkpt><trkpt lat="45.997133" lon="10.327916"><time>2025-04-28T10:29:01.000Z</time><ele>453.8</ele></trkpt><trkpt lat="45.997116" lon="10.327925"><time>2025-04-28T10:29:02.000Z</time><ele>453.6</ele></trkpt><trkpt lat="45.997109" lon="10.327933"><time>2025-04-28T10:29:03.000Z</time><ele>453.6</ele></trkpt><trkpt lat="45.997107" lon="10.327936"><time>2025-04-28T10:29:04.000Z</time><ele>453.6</ele></trkpt><trkpt lat="45.997099" lon="10.327939"><time>2025-04-28T10:29:05.000Z</time><ele>453.6</ele></trkpt><trkpt lat="45.997087" lon="10.327952"><time>2025-04-28T10:29:06.000Z</time><ele>453.8</ele></trkpt><trkpt lat="45.997072" lon="10.327955"><time>2025-04-28T10:29:07.000Z</time><ele>453.8</ele></trkpt><trkpt lat="45.997055" lon="10.327964"><time>2025-04-28T10:29:08.000Z</time><ele>453.8</ele></trkpt><trkpt lat="45.997029" lon="10.327972"><time>2025-04-28T10:29:09.000Z</time><ele>453.8</ele></trkpt><trkpt lat="45.997008" lon="10.327982"><time>2025-04-28T10:29:10.000Z</time><ele>453.8</ele></trkpt><trkpt lat="45.996998" lon="10.327997"><time>2025-04-28T10:29:11.000Z</time><ele>453.8</ele></trkpt><trkpt lat="45.996991" lon="10.328013"><time>2025-04-28T10:29:12.000Z</time><ele>453.8</ele></trkpt><trkpt lat="45.996983" lon="10.328029"><time>2025-04-28T10:29:13.000Z</time><ele>453.8</ele></trkpt><trkpt lat="45.996971" lon="10.328041"><time>2025-04-28T10:29:14.000Z</time><ele>453.6</ele></trkpt><trkpt lat="45.996957" lon="10.328056"><time>2025-04-28T10:29:15.000Z</time><ele>453.6</ele></trkpt><trkpt lat="45.996943" lon="10.328071"><time>2025-04-28T10:29:16.000Z</time><ele>453.8</ele></trkpt><trkpt lat="45.99693" lon="10.328084"><time>2025-04-28T10:29:17.000Z</time><ele>453.8</ele></trkpt><trkpt lat="45.996916" lon="10.328098"><time>2025-04-28T10:29:18.000Z</time><ele>453.8</ele></trkpt><trkpt lat="45.996903" lon="10.328105"><time>2025-04-28T10:29:19.000Z</time><ele>453.6</ele></trkpt><trkpt lat="45.996895" lon="10.328113"><time>2025-04-28T10:29:20.000Z</time><ele>453.4</ele></trkpt><trkpt lat="45.996882" lon="10.328121"><time>2025-04-28T10:29:21.000Z</time><ele>453.4</ele></trkpt><trkpt lat="45.996875" lon="10.32813"><time>2025-04-28T10:29:22.000Z</time><ele>453.4</ele></trkpt><trkpt lat="45.996867" lon="10.328144"><time>2025-04-28T10:29:23.000Z</time><ele>453.4</ele></trkpt><trkpt lat="45.99686" lon="10.328163"><time>2025-04-28T10:29:24.000Z</time><ele>453.4</ele></trkpt><trkpt lat="45.996853" lon="10.328179"><time>2025-04-28T10:29:25.000Z</time><ele>453.4</ele></trkpt><trkpt lat="45.996845" lon="10.32819"><time>2025-04-28T10:29:26.000Z</time><ele>453.4</ele></trkpt><trkpt lat="45.996833" lon="10.328201"><time>2025-04-28T10:29:27.000Z</time><ele>453.4</ele></trkpt><trkpt lat="45.996822" lon="10.328214"><time>2025-04-28T10:29:28.000Z</time><ele>453.4</ele></trkpt><trkpt lat="45.996812" lon="10.328226"><time>2025-04-28T10:29:29.000Z</time><ele>453.4</ele></trkpt><trkpt lat="45.996801" lon="10.328241"><time>2025-04-28T10:29:30.000Z</time><ele>453.4</ele></trkpt><trkpt lat="45.996795" lon="10.328256"><time>2025-04-28T10:29:31.000Z</time><ele>453.6</ele></trkpt><trkpt lat="45.996786" lon="10.328265"><time>2025-04-28T10:29:32.000Z</time><ele>453.8</ele></trkpt><trkpt lat="45.996774" lon="10.328272"><time>2025-04-28T10:29:33.000Z</time><ele>453.8</ele></trkpt><trkpt lat="45.996763" lon="10.328284"><time>2025-04-28T10:29:34.000Z</time><ele>453.8</ele></trkpt><trkpt lat="45.996749" lon="10.328297"><time>2025-04-28T10:29:35.000Z</time><ele>454</ele></trkpt><trkpt lat="45.996735" lon="10.328305"><time>2025-04-28T10:29:36.000Z</time><ele>454</ele></trkpt><trkpt lat="45.996721" lon="10.328311"><time>2025-04-28T10:29:37.000Z</time><ele>454.4</ele></trkpt><trkpt lat="45.996709" lon="10.328319"><time>2025-04-28T10:29:38.000Z</time><ele>454.4</ele></trkpt><trkpt lat="45.996697" lon="10.328329"><time>2025-04-28T10:29:39.000Z</time><ele>454.4</ele></trkpt><trkpt lat="45.996686" lon="10.32834"><time>2025-04-28T10:29:40.000Z</time><ele>454.6</ele></trkpt><trkpt lat="45.996671" lon="10.328348"><time>2025-04-28T10:29:41.000Z</time><ele>454.4</ele></trkpt><trkpt lat="45.996659" lon="10.328354"><time>2025-04-28T10:29:42.000Z</time><ele>454.2</ele></trkpt><trkpt lat="45.996647" lon="10.328361"><time>2025-04-28T10:29:43.000Z</time><ele>454.2</ele></trkpt><trkpt lat="45.996636" lon="10.32837"><time>2025-04-28T10:29:44.000Z</time><ele>454.2</ele></trkpt><trkpt lat="45.996625" lon="10.328376"><time>2025-04-28T10:29:45.000Z</time><ele>454.6</ele></trkpt><trkpt lat="45.996613" lon="10.328383"><time>2025-04-28T10:29:46.000Z</time><ele>454.8</ele></trkpt><trkpt lat="45.9966" lon="10.328387"><time>2025-04-28T10:29:47.000Z</time><ele>454.8</ele></trkpt><trkpt lat="45.996585" lon="10.328389"><time>2025-04-28T10:29:48.000Z</time><ele>455</ele></trkpt><trkpt lat="45.996572" lon="10.328387"><time>2025-04-28T10:29:49.000Z</time><ele>454.8</ele></trkpt><trkpt lat="45.996555" lon="10.328381"><time>2025-04-28T10:29:50.000Z</time><ele>454.4</ele></trkpt><trkpt lat="45.996541" lon="10.328379"><time>2025-04-28T10:29:51.000Z</time><ele>454.2</ele></trkpt><trkpt lat="45.99653" lon="10.328378"><time>2025-04-28T10:29:52.000Z</time><ele>453.8</ele></trkpt><trkpt lat="45.996518" lon="10.328377"><time>2025-04-28T10:29:53.000Z</time><ele>453.6</ele></trkpt><trkpt lat="45.996505" lon="10.328371"><time>2025-04-28T10:29:54.000Z</time><ele>453.4</ele></trkpt><trkpt lat="45.996492" lon="10.328366"><time>2025-04-28T10:29:55.000Z</time><ele>453.2</ele></trkpt><trkpt lat="45.996478" lon="10.328363"><time>2025-04-28T10:29:56.000Z</time><ele>452.4</ele></trkpt><trkpt lat="45.996466" lon="10.328358"><time>2025-04-28T10:29:57.000Z</time><ele>451.8</ele></trkpt><trkpt lat="45.996452" lon="10.328351"><time>2025-04-28T10:29:58.000Z</time><ele>451.6</ele></trkpt><trkpt lat="45.996438" lon="10.328344"><time>2025-04-28T10:29:59.000Z</time><ele>451.2</ele></trkpt><trkpt lat="45.996425" lon="10.328339"><time>2025-04-28T10:30:00.000Z</time><ele>451</ele></trkpt><trkpt lat="45.99641" lon="10.328334"><time>2025-04-28T10:30:01.000Z</time><ele>450.8</ele></trkpt><trkpt lat="45.996396" lon="10.32833"><time>2025-04-28T10:30:02.000Z</time><ele>450.8</ele></trkpt><trkpt lat="45.996382" lon="10.328323"><time>2025-04-28T10:30:03.000Z</time><ele>450.8</ele></trkpt><trkpt lat="45.99637" lon="10.328315"><time>2025-04-28T10:30:04.000Z</time><ele>450.8</ele></trkpt><trkpt lat="45.996359" lon="10.328308"><time>2025-04-28T10:30:05.000Z</time><ele>450.8</ele></trkpt><trkpt lat="45.996346" lon="10.328302"><time>2025-04-28T10:30:06.000Z</time><ele>450.8</ele></trkpt><trkpt lat="45.99633" lon="10.328296"><time>2025-04-28T10:30:07.000Z</time><ele>450.8</ele></trkpt><trkpt lat="45.996319" lon="10.328292"><time>2025-04-28T10:30:08.000Z</time><ele>450.8</ele></trkpt><trkpt lat="45.996315" lon="10.32829"><time>2025-04-28T10:30:09.000Z</time><ele>450.8</ele></trkpt><trkpt lat="45.996314" lon="10.32829"><time>2025-04-28T10:30:10.000Z</time><ele>450.8</ele></trkpt><trkpt lat="45.996315" lon="10.328289"><time>2025-04-28T10:30:11.000Z</time><ele>450.8</ele></trkpt><trkpt lat="45.996315" lon="10.328289"><time>2025-04-28T10:30:12.000Z</time><ele>450.8</ele></trkpt><trkpt lat="45.996315" lon="10.328288"><time>2025-04-28T10:30:13.000Z</time><ele>450.8</ele></trkpt><trkpt lat="45.996315" lon="10.328287"><time>2025-04-28T10:30:14.000Z</time><ele>450.8</ele></trkpt><trkpt lat="45.996313" lon="10.328284"><time>2025-04-28T10:30:15.000Z</time><ele>450.8</ele></trkpt><trkpt lat="45.996311" lon="10.328285"><time>2025-04-28T10:30:16.000Z</time><ele>451</ele></trkpt><trkpt lat="45.99631" lon="10.328287"><time>2025-04-28T10:30:17.000Z</time><ele>450.8</ele></trkpt><trkpt lat="45.996309" lon="10.328288"><time>2025-04-28T10:30:18.000Z</time><ele>450.8</ele></trkpt><trkpt lat="45.996312" lon="10.328287"><time>2025-04-28T10:30:19.000Z</time><ele>450.8</ele></trkpt><trkpt lat="45.996311" lon="10.328282"><time>2025-04-28T10:30:20.000Z</time><ele>450.6</ele></trkpt><trkpt lat="45.996306" lon="10.328276"><time>2025-04-28T10:30:21.000Z</time><ele>450.6</ele></trkpt><trkpt lat="45.996296" lon="10.32827"><time>2025-04-28T10:30:22.000Z</time><ele>450.6</ele></trkpt><trkpt lat="45.996283" lon="10.328265"><time>2025-04-28T10:30:23.000Z</time><ele>450.4</ele></trkpt><trkpt lat="45.996269" lon="10.328258"><time>2025-04-28T10:30:24.000Z</time><ele>450.4</ele></trkpt><trkpt lat="45.996258" lon="10.32825"><time>2025-04-28T10:30:25.000Z</time><ele>450.4</ele></trkpt><trkpt lat="45.996245" lon="10.328247"><time>2025-04-28T10:30:26.000Z</time><ele>450.4</ele></trkpt><trkpt lat="45.996231" lon="10.328242"><time>2025-04-28T10:30:27.000Z</time><ele>450.4</ele></trkpt><trkpt lat="45.996222" lon="10.328243"><time>2025-04-28T10:30:28.000Z</time><ele>450.6</ele></trkpt><trkpt lat="45.996209" lon="10.328237"><time>2025-04-28T10:30:29.000Z</time><ele>451</ele></trkpt><trkpt lat="45.996198" lon="10.328232"><time>2025-04-28T10:30:30.000Z</time><ele>451.2</ele></trkpt><trkpt lat="45.996186" lon="10.328227"><time>2025-04-28T10:30:31.000Z</time><ele>451.4</ele></trkpt><trkpt lat="45.996174" lon="10.328223"><time>2025-04-28T10:30:32.000Z</time><ele>451.4</ele></trkpt><trkpt lat="45.996161" lon="10.328227"><time>2025-04-28T10:30:33.000Z</time><ele>451.6</ele></trkpt><trkpt lat="45.996148" lon="10.328221"><time>2025-04-28T10:30:34.000Z</time><ele>451.6</ele></trkpt><trkpt lat="45.996136" lon="10.328219"><time>2025-04-28T10:30:35.000Z</time><ele>451.6</ele></trkpt><trkpt lat="45.996124" lon="10.328214"><time>2025-04-28T10:30:36.000Z</time><ele>451.6</ele></trkpt><trkpt lat="45.996112" lon="10.32821"><time>2025-04-28T10:30:37.000Z</time><ele>451.6</ele></trkpt><trkpt lat="45.996098" lon="10.328207"><time>2025-04-28T10:30:38.000Z</time><ele>451.6</ele></trkpt><trkpt lat="45.996083" lon="10.328203"><time>2025-04-28T10:30:39.000Z</time><ele>451.6</ele></trkpt><trkpt lat="45.99607" lon="10.328196"><time>2025-04-28T10:30:40.000Z</time><ele>451.6</ele></trkpt><trkpt lat="45.996054" lon="10.328192"><time>2025-04-28T10:30:41.000Z</time><ele>451.6</ele></trkpt><trkpt lat="45.996039" lon="10.328195"><time>2025-04-28T10:30:42.000Z</time><ele>451.4</ele></trkpt><trkpt lat="45.996027" lon="10.328199"><time>2025-04-28T10:30:43.000Z</time><ele>451.4</ele></trkpt><trkpt lat="45.996014" lon="10.328196"><time>2025-04-28T10:30:44.000Z</time><ele>451.4</ele></trkpt><trkpt lat="45.996" lon="10.328193"><time>2025-04-28T10:30:45.000Z</time><ele>451.4</ele></trkpt><trkpt lat="45.995986" lon="10.328193"><time>2025-04-28T10:30:46.000Z</time><ele>451.4</ele></trkpt><trkpt lat="45.995975" lon="10.328194"><time>2025-04-28T10:30:47.000Z</time><ele>451.4</ele></trkpt><trkpt lat="45.995958" lon="10.328194"><time>2025-04-28T10:30:48.000Z</time><ele>451.4</ele></trkpt><trkpt lat="45.995941" lon="10.328197"><time>2025-04-28T10:30:49.000Z</time><ele>451.4</ele></trkpt><trkpt lat="45.995926" lon="10.328196"><time>2025-04-28T10:30:50.000Z</time><ele>451.4</ele></trkpt><trkpt lat="45.995917" lon="10.328196"><time>2025-04-28T10:30:51.000Z</time><ele>451.4</ele></trkpt><trkpt lat="45.995903" lon="10.328197"><time>2025-04-28T10:30:52.000Z</time><ele>451.4</ele></trkpt><trkpt lat="45.995889" lon="10.328194"><time>2025-04-28T10:30:53.000Z</time><ele>451.4</ele></trkpt><trkpt lat="45.995868" lon="10.328188"><time>2025-04-28T10:30:54.000Z</time><ele>451.4</ele></trkpt><trkpt lat="45.995849" lon="10.328184"><time>2025-04-28T10:30:55.000Z</time><ele>451.4</ele></trkpt><trkpt lat="45.995833" lon="10.328183"><time>2025-04-28T10:30:56.000Z</time><ele>451.6</ele></trkpt><trkpt lat="45.99582" lon="10.328184"><time>2025-04-28T10:30:57.000Z</time><ele>451.6</ele></trkpt><trkpt lat="45.995806" lon="10.328178"><time>2025-04-28T10:30:58.000Z</time><ele>451.6</ele></trkpt><trkpt lat="45.995792" lon="10.328171"><time>2025-04-28T10:30:59.000Z</time><ele>451.6</ele></trkpt><trkpt lat="45.995769" lon="10.328168"><time>2025-04-28T10:31:00.000Z</time><ele>451.6</ele></trkpt><trkpt lat="45.99575" lon="10.328169"><time>2025-04-28T10:31:01.000Z</time><ele>451.4</ele></trkpt><trkpt lat="45.995736" lon="10.328168"><time>2025-04-28T10:31:02.000Z</time><ele>451.4</ele></trkpt><trkpt lat="45.995726" lon="10.328158"><time>2025-04-28T10:31:03.000Z</time><ele>451</ele></trkpt><trkpt lat="45.995716" lon="10.328143"><time>2025-04-28T10:31:04.000Z</time><ele>451</ele></trkpt><trkpt lat="45.995703" lon="10.328129"><time>2025-04-28T10:31:05.000Z</time><ele>450.8</ele></trkpt><trkpt lat="45.99569" lon="10.328118"><time>2025-04-28T10:31:06.000Z</time><ele>450.8</ele></trkpt><trkpt lat="45.995677" lon="10.328107"><time>2025-04-28T10:31:07.000Z</time><ele>450.6</ele></trkpt><trkpt lat="45.995665" lon="10.328099"><time>2025-04-28T10:31:08.000Z</time><ele>450.4</ele></trkpt><trkpt lat="45.995652" lon="10.328091"><time>2025-04-28T10:31:09.000Z</time><ele>450.2</ele></trkpt><trkpt lat="45.99564" lon="10.328081"><time>2025-04-28T10:31:10.000Z</time><ele>450.2</ele></trkpt><trkpt lat="45.995628" lon="10.328076"><time>2025-04-28T10:31:11.000Z</time><ele>450.2</ele></trkpt><trkpt lat="45.995614" lon="10.328069"><time>2025-04-28T10:31:12.000Z</time><ele>450.2</ele></trkpt><trkpt lat="45.995602" lon="10.32806"><time>2025-04-28T10:31:13.000Z</time><ele>450</ele></trkpt><trkpt lat="45.995587" lon="10.328049"><time>2025-04-28T10:31:14.000Z</time><ele>449.8</ele></trkpt><trkpt lat="45.995572" lon="10.32804"><time>2025-04-28T10:31:15.000Z</time><ele>449.6</ele></trkpt><trkpt lat="45.99556" lon="10.328035"><time>2025-04-28T10:31:16.000Z</time><ele>449.4</ele></trkpt><trkpt lat="45.995548" lon="10.328029"><time>2025-04-28T10:31:17.000Z</time><ele>449.4</ele></trkpt><trkpt lat="45.995533" lon="10.328022"><time>2025-04-28T10:31:18.000Z</time><ele>449.2</ele></trkpt><trkpt lat="45.995517" lon="10.328017"><time>2025-04-28T10:31:19.000Z</time><ele>449.2</ele></trkpt><trkpt lat="45.995503" lon="10.328009"><time>2025-04-28T10:31:20.000Z</time><ele>449.2</ele></trkpt><trkpt lat="45.995488" lon="10.328"><time>2025-04-28T10:31:21.000Z</time><ele>449.2</ele></trkpt><trkpt lat="45.995474" lon="10.327992"><time>2025-04-28T10:31:22.000Z</time><ele>449</ele></trkpt><trkpt lat="45.995459" lon="10.327986"><time>2025-04-28T10:31:23.000Z</time><ele>449</ele></trkpt><trkpt lat="45.995445" lon="10.327981"><time>2025-04-28T10:31:24.000Z</time><ele>448.8</ele></trkpt><trkpt lat="45.995433" lon="10.327977"><time>2025-04-28T10:31:25.000Z</time><ele>448.8</ele></trkpt><trkpt lat="45.995424" lon="10.327974"><time>2025-04-28T10:31:26.000Z</time><ele>448.8</ele></trkpt><trkpt lat="45.995417" lon="10.327974"><time>2025-04-28T10:31:27.000Z</time><ele>448.8</ele></trkpt><trkpt lat="45.995412" lon="10.327973"><time>2025-04-28T10:31:28.000Z</time><ele>448.6</ele></trkpt><trkpt lat="45.995409" lon="10.327972"><time>2025-04-28T10:31:29.000Z</time><ele>448.8</ele></trkpt><trkpt lat="45.995407" lon="10.327972"><time>2025-04-28T10:31:30.000Z</time><ele>448.8</ele></trkpt><trkpt lat="45.995406" lon="10.327973"><time>2025-04-28T10:31:31.000Z</time><ele>448.8</ele></trkpt><trkpt lat="45.995406" lon="10.327974"><time>2025-04-28T10:31:32.000Z</time><ele>448.8</ele></trkpt><trkpt lat="45.995406" lon="10.327974"><time>2025-04-28T10:31:33.000Z</time><ele>448.6</ele></trkpt><trkpt lat="45.995406" lon="10.327972"><time>2025-04-28T10:31:34.000Z</time><ele>448.6</ele></trkpt><trkpt lat="45.995404" lon="10.327972"><time>2025-04-28T10:31:35.000Z</time><ele>448.6</ele></trkpt><trkpt lat="45.995402" lon="10.327972"><time>2025-04-28T10:31:36.000Z</time><ele>448.6</ele></trkpt><trkpt lat="45.995399" lon="10.327971"><time>2025-04-28T10:31:37.000Z</time><ele>448.4</ele></trkpt><trkpt lat="45.995391" lon="10.32797"><time>2025-04-28T10:31:38.000Z</time><ele>448.4</ele></trkpt><trkpt lat="45.995383" lon="10.327969"><time>2025-04-28T10:31:39.000Z</time><ele>448.2</ele></trkpt><trkpt lat="45.995369" lon="10.327966"><time>2025-04-28T10:31:40.000Z</time><ele>448.2</ele></trkpt><trkpt lat="45.995356" lon="10.327963"><time>2025-04-28T10:31:41.000Z</time><ele>448.2</ele></trkpt><trkpt lat="45.995342" lon="10.32796"><time>2025-04-28T10:31:42.000Z</time><ele>448.2</ele></trkpt><trkpt lat="45.99533" lon="10.327961"><time>2025-04-28T10:31:43.000Z</time><ele>448.2</ele></trkpt><trkpt lat="45.995316" lon="10.327959"><time>2025-04-28T10:31:44.000Z</time><ele>448.2</ele></trkpt><trkpt lat="45.9953" lon="10.327954"><time>2025-04-28T10:31:45.000Z</time><ele>448.2</ele></trkpt><trkpt lat="45.995286" lon="10.32795"><time>2025-04-28T10:31:46.000Z</time><ele>448.2</ele></trkpt><trkpt lat="45.995273" lon="10.327948"><time>2025-04-28T10:31:47.000Z</time><ele>447.8</ele></trkpt><trkpt lat="45.995262" lon="10.327947"><time>2025-04-28T10:31:48.000Z</time><ele>447.6</ele></trkpt><trkpt lat="45.995254" lon="10.327947"><time>2025-04-28T10:31:49.000Z</time><ele>447.4</ele></trkpt><trkpt lat="45.995245" lon="10.327947"><time>2025-04-28T10:31:50.000Z</time><ele>447.2</ele></trkpt><trkpt lat="45.995233" lon="10.327946"><time>2025-04-28T10:31:51.000Z</time><ele>447</ele></trkpt><trkpt lat="45.995219" lon="10.327943"><time>2025-04-28T10:31:52.000Z</time><ele>447</ele></trkpt><trkpt lat="45.995203" lon="10.327937"><time>2025-04-28T10:31:53.000Z</time><ele>446.8</ele></trkpt><trkpt lat="45.995189" lon="10.327931"><time>2025-04-28T10:31:54.000Z</time><ele>446.8</ele></trkpt><trkpt lat="45.995174" lon="10.327927"><time>2025-04-28T10:31:55.000Z</time><ele>446.8</ele></trkpt><trkpt lat="45.995163" lon="10.327924"><time>2025-04-28T10:31:56.000Z</time><ele>446.8</ele></trkpt><trkpt lat="45.99515" lon="10.327919"><time>2025-04-28T10:31:57.000Z</time><ele>446.8</ele></trkpt><trkpt lat="45.995132" lon="10.327912"><time>2025-04-28T10:31:58.000Z</time><ele>446.8</ele></trkpt><trkpt lat="45.995116" lon="10.327904"><time>2025-04-28T10:31:59.000Z</time><ele>446.8</ele></trkpt><trkpt lat="45.9951" lon="10.327897"><time>2025-04-28T10:32:00.000Z</time><ele>446.8</ele></trkpt><trkpt lat="45.995086" lon="10.327891"><time>2025-04-28T10:32:01.000Z</time><ele>446.8</ele></trkpt><trkpt lat="45.995075" lon="10.327889"><time>2025-04-28T10:32:02.000Z</time><ele>446.6</ele></trkpt><trkpt lat="45.995061" lon="10.327885"><time>2025-04-28T10:32:03.000Z</time><ele>446.4</ele></trkpt><trkpt lat="45.995047" lon="10.327878"><time>2025-04-28T10:32:04.000Z</time><ele>446.4</ele></trkpt><trkpt lat="45.995031" lon="10.327867"><time>2025-04-28T10:32:05.000Z</time><ele>446.2</ele></trkpt><trkpt lat="45.995016" lon="10.327856"><time>2025-04-28T10:32:06.000Z</time><ele>446.2</ele></trkpt><trkpt lat="45.995003" lon="10.327853"><time>2025-04-28T10:32:07.000Z</time><ele>446.2</ele></trkpt><trkpt lat="45.994986" lon="10.32785"><time>2025-04-28T10:32:08.000Z</time><ele>446.2</ele></trkpt><trkpt lat="45.994973" lon="10.32785"><time>2025-04-28T10:32:09.000Z</time><ele>446</ele></trkpt><trkpt lat="45.99496" lon="10.327846"><time>2025-04-28T10:32:10.000Z</time><ele>445.8</ele></trkpt><trkpt lat="45.994947" lon="10.327841"><time>2025-04-28T10:32:11.000Z</time><ele>445.8</ele></trkpt><trkpt lat="45.994933" lon="10.327838"><time>2025-04-28T10:32:12.000Z</time><ele>445.6</ele></trkpt><trkpt lat="45.994916" lon="10.327835"><time>2025-04-28T10:32:13.000Z</time><ele>445.6</ele></trkpt><trkpt lat="45.994904" lon="10.327832"><time>2025-04-28T10:32:14.000Z</time><ele>445.6</ele></trkpt><trkpt lat="45.994893" lon="10.327831"><time>2025-04-28T10:32:15.000Z</time><ele>445.8</ele></trkpt><trkpt lat="45.994884" lon="10.32783"><time>2025-04-28T10:32:16.000Z</time><ele>445.8</ele></trkpt><trkpt lat="45.994871" lon="10.327828"><time>2025-04-28T10:32:17.000Z</time><ele>445.8</ele></trkpt><trkpt lat="45.99486" lon="10.327825"><time>2025-04-28T10:32:18.000Z</time><ele>445.8</ele></trkpt><trkpt lat="45.994848" lon="10.32782"><time>2025-04-28T10:32:19.000Z</time><ele>445.8</ele></trkpt><trkpt lat="45.994835" lon="10.327815"><time>2025-04-28T10:32:20.000Z</time><ele>445.8</ele></trkpt><trkpt lat="45.994817" lon="10.327812"><time>2025-04-28T10:32:21.000Z</time><ele>445.8</ele></trkpt><trkpt lat="45.994807" lon="10.327812"><time>2025-04-28T10:32:22.000Z</time><ele>445.6</ele></trkpt><trkpt lat="45.994797" lon="10.327796"><time>2025-04-28T10:32:23.000Z</time><ele>445.6</ele></trkpt><trkpt lat="45.994777" lon="10.327775"><time>2025-04-28T10:32:24.000Z</time><ele>445.6</ele></trkpt><trkpt lat="45.994759" lon="10.327761"><time>2025-04-28T10:32:25.000Z</time><ele>445.6</ele></trkpt><trkpt lat="45.994741" lon="10.327749"><time>2025-04-28T10:32:26.000Z</time><ele>445.6</ele></trkpt><trkpt lat="45.994724" lon="10.327742"><time>2025-04-28T10:32:27.000Z</time><ele>445.6</ele></trkpt><trkpt lat="45.994713" lon="10.327737"><time>2025-04-28T10:32:28.000Z</time><ele>445.6</ele></trkpt><trkpt lat="45.994701" lon="10.327733"><time>2025-04-28T10:32:29.000Z</time><ele>445.6</ele></trkpt><trkpt lat="45.994693" lon="10.327733"><time>2025-04-28T10:32:30.000Z</time><ele>445.6</ele></trkpt><trkpt lat="45.994684" lon="10.327725"><time>2025-04-28T10:32:31.000Z</time><ele>445.6</ele></trkpt><trkpt lat="45.994668" lon="10.327709"><time>2025-04-28T10:32:32.000Z</time><ele>445.4</ele></trkpt><trkpt lat="45.994656" lon="10.327701"><time>2025-04-28T10:32:33.000Z</time><ele>445.4</ele></trkpt><trkpt lat="45.994641" lon="10.327688"><time>2025-04-28T10:32:34.000Z</time><ele>445.6</ele></trkpt><trkpt lat="45.99463" lon="10.327682"><time>2025-04-28T10:32:35.000Z</time><ele>445.6</ele></trkpt><trkpt lat="45.994617" lon="10.327678"><time>2025-04-28T10:32:36.000Z</time><ele>445.8</ele></trkpt><trkpt lat="45.994605" lon="10.327669"><time>2025-04-28T10:32:37.000Z</time><ele>445.8</ele></trkpt><trkpt lat="45.994592" lon="10.327663"><time>2025-04-28T10:32:38.000Z</time><ele>446</ele></trkpt><trkpt lat="45.99458" lon="10.327657"><time>2025-04-28T10:32:39.000Z</time><ele>446.2</ele></trkpt><trkpt lat="45.99457" lon="10.32765"><time>2025-04-28T10:32:40.000Z</time><ele>446.2</ele></trkpt><trkpt lat="45.994569" lon="10.327644"><time>2025-04-28T10:32:41.000Z</time><ele>446.4</ele></trkpt><trkpt lat="45.994564" lon="10.327641"><time>2025-04-28T10:32:42.000Z</time><ele>446.4</ele></trkpt><trkpt lat="45.994557" lon="10.327634"><time>2025-04-28T10:32:43.000Z</time><ele>446.2</ele></trkpt><trkpt lat="45.994551" lon="10.327631"><time>2025-04-28T10:32:44.000Z</time><ele>446.2</ele></trkpt><trkpt lat="45.994545" lon="10.327626"><time>2025-04-28T10:32:45.000Z</time><ele>446.2</ele></trkpt><trkpt lat="45.994537" lon="10.327618"><time>2025-04-28T10:32:46.000Z</time><ele>446.2</ele></trkpt><trkpt lat="45.994528" lon="10.327608"><time>2025-04-28T10:32:47.000Z</time><ele>446.6</ele></trkpt><trkpt lat="45.994518" lon="10.327596"><time>2025-04-28T10:32:48.000Z</time><ele>447.2</ele></trkpt><trkpt lat="45.994507" lon="10.327583"><time>2025-04-28T10:32:49.000Z</time><ele>447.4</ele></trkpt><trkpt lat="45.994506" lon="10.327579"><time>2025-04-28T10:32:50.000Z</time><ele>447.6</ele></trkpt><trkpt lat="45.994504" lon="10.327576"><time>2025-04-28T10:32:51.000Z</time><ele>447.6</ele></trkpt><trkpt lat="45.994503" lon="10.327573"><time>2025-04-28T10:32:52.000Z</time><ele>447.6</ele></trkpt><trkpt lat="45.994499" lon="10.327572"><time>2025-04-28T10:32:53.000Z</time><ele>447.6</ele></trkpt><trkpt lat="45.994492" lon="10.32757"><time>2025-04-28T10:32:54.000Z</time><ele>447.4</ele></trkpt><trkpt lat="45.994484" lon="10.327564"><time>2025-04-28T10:32:55.000Z</time><ele>447.2</ele></trkpt><trkpt lat="45.994475" lon="10.327558"><time>2025-04-28T10:32:56.000Z</time><ele>447.2</ele></trkpt><trkpt lat="45.994468" lon="10.327556"><time>2025-04-28T10:32:57.000Z</time><ele>447</ele></trkpt><trkpt lat="45.99446" lon="10.32755"><time>2025-04-28T10:32:58.000Z</time><ele>447</ele></trkpt><trkpt lat="45.994451" lon="10.327545"><time>2025-04-28T10:32:59.000Z</time><ele>447.2</ele></trkpt><trkpt lat="45.994438" lon="10.32754"><time>2025-04-28T10:33:00.000Z</time><ele>447.2</ele></trkpt><trkpt lat="45.994426" lon="10.327535"><time>2025-04-28T10:33:01.000Z</time><ele>447.2</ele></trkpt><trkpt lat="45.994414" lon="10.327535"><time>2025-04-28T10:33:02.000Z</time><ele>447.4</ele></trkpt><trkpt lat="45.994402" lon="10.327537"><time>2025-04-28T10:33:03.000Z</time><ele>447.4</ele></trkpt><trkpt lat="45.99439" lon="10.327538"><time>2025-04-28T10:33:04.000Z</time><ele>447.4</ele></trkpt><trkpt lat="45.994383" lon="10.32754"><time>2025-04-28T10:33:05.000Z</time><ele>447.6</ele></trkpt><trkpt lat="45.994372" lon="10.327534"><time>2025-04-28T10:33:06.000Z</time><ele>447.6</ele></trkpt><trkpt lat="45.994363" lon="10.32753"><time>2025-04-28T10:33:07.000Z</time><ele>447.4</ele></trkpt><trkpt lat="45.994351" lon="10.327528"><time>2025-04-28T10:33:08.000Z</time><ele>447.4</ele></trkpt><trkpt lat="45.994342" lon="10.327526"><time>2025-04-28T10:33:09.000Z</time><ele>447.4</ele></trkpt><trkpt lat="45.994331" lon="10.327521"><time>2025-04-28T10:33:10.000Z</time><ele>447.4</ele></trkpt><trkpt lat="45.994316" lon="10.327515"><time>2025-04-28T10:33:11.000Z</time><ele>447.2</ele></trkpt><trkpt lat="45.994298" lon="10.327509"><time>2025-04-28T10:33:12.000Z</time><ele>447.2</ele></trkpt><trkpt lat="45.994283" lon="10.327497"><time>2025-04-28T10:33:13.000Z</time><ele>447.4</ele></trkpt><trkpt lat="45.994276" lon="10.327487"><time>2025-04-28T10:33:14.000Z</time><ele>447.4</ele></trkpt><trkpt lat="45.994256" lon="10.327492"><time>2025-04-28T10:33:15.000Z</time><ele>447.4</ele></trkpt><trkpt lat="45.994241" lon="10.327499"><time>2025-04-28T10:33:16.000Z</time><ele>447.4</ele></trkpt><trkpt lat="45.994227" lon="10.327494"><time>2025-04-28T10:33:17.000Z</time><ele>447.4</ele></trkpt><trkpt lat="45.994218" lon="10.327486"><time>2025-04-28T10:33:18.000Z</time><ele>447.4</ele></trkpt><trkpt lat="45.994209" lon="10.327478"><time>2025-04-28T10:33:19.000Z</time><ele>447.4</ele></trkpt><trkpt lat="45.994206" lon="10.327479"><time>2025-04-28T10:33:20.000Z</time><ele>447.4</ele></trkpt><trkpt lat="45.994198" lon="10.327467"><time>2025-04-28T10:33:21.000Z</time><ele>447.4</ele></trkpt><trkpt lat="45.994189" lon="10.327458"><time>2025-04-28T10:33:22.000Z</time><ele>447.4</ele></trkpt><trkpt lat="45.994186" lon="10.327452"><time>2025-04-28T10:33:23.000Z</time><ele>447.4</ele></trkpt><trkpt lat="45.994171" lon="10.327447"><time>2025-04-28T10:33:24.000Z</time><ele>447.4</ele></trkpt><trkpt lat="45.994149" lon="10.327443"><time>2025-04-28T10:33:25.000Z</time><ele>447.4</ele></trkpt><trkpt lat="45.994131" lon="10.327436"><time>2025-04-28T10:33:26.000Z</time><ele>447.4</ele></trkpt><trkpt lat="45.994113" lon="10.327427"><time>2025-04-28T10:33:27.000Z</time><ele>447.4</ele></trkpt><trkpt lat="45.994097" lon="10.327418"><time>2025-04-28T10:33:28.000Z</time><ele>447.4</ele></trkpt><trkpt lat="45.99408" lon="10.327407"><time>2025-04-28T10:33:29.000Z</time><ele>447.6</ele></trkpt><trkpt lat="45.994064" lon="10.327392"><time>2025-04-28T10:33:30.000Z</time><ele>447.4</ele></trkpt><trkpt lat="45.994051" lon="10.327377"><time>2025-04-28T10:33:31.000Z</time><ele>447.4</ele></trkpt><trkpt lat="45.994029" lon="10.327352"><time>2025-04-28T10:33:32.000Z</time><ele>447.4</ele></trkpt><trkpt lat="45.99401" lon="10.327336"><time>2025-04-28T10:33:33.000Z</time><ele>447.2</ele></trkpt><trkpt lat="45.993996" lon="10.327324"><time>2025-04-28T10:33:34.000Z</time><ele>447.4</ele></trkpt><trkpt lat="45.993977" lon="10.327307"><time>2025-04-28T10:33:35.000Z</time><ele>447.4</ele></trkpt><trkpt lat="45.993963" lon="10.327285"><time>2025-04-28T10:33:36.000Z</time><ele>447.4</ele></trkpt><trkpt lat="45.993954" lon="10.327271"><time>2025-04-28T10:33:37.000Z</time><ele>447.4</ele></trkpt><trkpt lat="45.993949" lon="10.327256"><time>2025-04-28T10:33:38.000Z</time><ele>447.4</ele></trkpt><trkpt lat="45.993939" lon="10.327243"><time>2025-04-28T10:33:39.000Z</time><ele>447.4</ele></trkpt><trkpt lat="45.993933" lon="10.327231"><time>2025-04-28T10:33:40.000Z</time><ele>447.4</ele></trkpt><trkpt lat="45.993921" lon="10.327219"><time>2025-04-28T10:33:41.000Z</time><ele>447.4</ele></trkpt><trkpt lat="45.993908" lon="10.327206"><time>2025-04-28T10:33:42.000Z</time><ele>447.4</ele></trkpt><trkpt lat="45.993898" lon="10.327196"><time>2025-04-28T10:33:43.000Z</time><ele>447.4</ele></trkpt><trkpt lat="45.993887" lon="10.327193"><time>2025-04-28T10:33:44.000Z</time><ele>447.4</ele></trkpt><trkpt lat="45.993873" lon="10.327184"><time>2025-04-28T10:33:45.000Z</time><ele>447.4</ele></trkpt><trkpt lat="45.993863" lon="10.327173"><time>2025-04-28T10:33:46.000Z</time><ele>447.4</ele></trkpt><trkpt lat="45.993852" lon="10.327164"><time>2025-04-28T10:33:47.000Z</time><ele>447.4</ele></trkpt><trkpt lat="45.993843" lon="10.327155"><time>2025-04-28T10:33:48.000Z</time><ele>447.4</ele></trkpt><trkpt lat="45.993832" lon="10.327147"><time>2025-04-28T10:33:49.000Z</time><ele>447.4</ele></trkpt><trkpt lat="45.993819" lon="10.327139"><time>2025-04-28T10:33:50.000Z</time><ele>447.4</ele></trkpt><trkpt lat="45.99381" lon="10.327135"><time>2025-04-28T10:33:51.000Z</time><ele>447.4</ele></trkpt><trkpt lat="45.993796" lon="10.327132"><time>2025-04-28T10:33:52.000Z</time><ele>447.2</ele></trkpt><trkpt lat="45.993786" lon="10.327132"><time>2025-04-28T10:33:53.000Z</time><ele>447.2</ele></trkpt><trkpt lat="45.993774" lon="10.327126"><time>2025-04-28T10:33:54.000Z</time><ele>447.2</ele></trkpt><trkpt lat="45.993764" lon="10.327121"><time>2025-04-28T10:33:55.000Z</time><ele>447</ele></trkpt><trkpt lat="45.993748" lon="10.327112"><time>2025-04-28T10:33:56.000Z</time><ele>447</ele></trkpt><trkpt lat="45.993736" lon="10.327104"><time>2025-04-28T10:33:57.000Z</time><ele>447</ele></trkpt><trkpt lat="45.993724" lon="10.327097"><time>2025-04-28T10:33:58.000Z</time><ele>447</ele></trkpt><trkpt lat="45.993712" lon="10.327089"><time>2025-04-28T10:33:59.000Z</time><ele>447</ele></trkpt><trkpt lat="45.9937" lon="10.327083"><time>2025-04-28T10:34:00.000Z</time><ele>447</ele></trkpt><trkpt lat="45.993687" lon="10.327075"><time>2025-04-28T10:34:01.000Z</time><ele>447.2</ele></trkpt><trkpt lat="45.993674" lon="10.327067"><time>2025-04-28T10:34:02.000Z</time><ele>447.4</ele></trkpt><trkpt lat="45.993661" lon="10.327058"><time>2025-04-28T10:34:03.000Z</time><ele>447.6</ele></trkpt><trkpt lat="45.993648" lon="10.327049"><time>2025-04-28T10:34:04.000Z</time><ele>447.6</ele></trkpt><trkpt lat="45.993634" lon="10.327038"><time>2025-04-28T10:34:05.000Z</time><ele>447.6</ele></trkpt><trkpt lat="45.993621" lon="10.32703"><time>2025-04-28T10:34:06.000Z</time><ele>447.6</ele></trkpt><trkpt lat="45.993606" lon="10.327022"><time>2025-04-28T10:34:07.000Z</time><ele>447.6</ele></trkpt><trkpt lat="45.993593" lon="10.327014"><time>2025-04-28T10:34:08.000Z</time><ele>447.6</ele></trkpt><trkpt lat="45.993578" lon="10.327005"><time>2025-04-28T10:34:09.000Z</time><ele>447.6</ele></trkpt><trkpt lat="45.993564" lon="10.326997"><time>2025-04-28T10:34:10.000Z</time><ele>447.6</ele></trkpt><trkpt lat="45.993551" lon="10.326989"><time>2025-04-28T10:34:11.000Z</time><ele>447.6</ele></trkpt><trkpt lat="45.993537" lon="10.326978"><time>2025-04-28T10:34:12.000Z</time><ele>447.4</ele></trkpt><trkpt lat="45.993521" lon="10.326964"><time>2025-04-28T10:34:13.000Z</time><ele>447.4</ele></trkpt><trkpt lat="45.993509" lon="10.326954"><time>2025-04-28T10:34:14.000Z</time><ele>447.4</ele></trkpt><trkpt lat="45.993498" lon="10.326945"><time>2025-04-28T10:34:15.000Z</time><ele>447</ele></trkpt><trkpt lat="45.993487" lon="10.326935"><time>2025-04-28T10:34:16.000Z</time><ele>446.6</ele></trkpt><trkpt lat="45.993479" lon="10.326926"><time>2025-04-28T10:34:17.000Z</time><ele>446.4</ele></trkpt><trkpt lat="45.993466" lon="10.326914"><time>2025-04-28T10:34:18.000Z</time><ele>446.2</ele></trkpt><trkpt lat="45.993453" lon="10.326904"><time>2025-04-28T10:34:19.000Z</time><ele>446.2</ele></trkpt><trkpt lat="45.993441" lon="10.326895"><time>2025-04-28T10:34:20.000Z</time><ele>446.2</ele></trkpt><trkpt lat="45.993429" lon="10.326885"><time>2025-04-28T10:34:21.000Z</time><ele>446.2</ele></trkpt><trkpt lat="45.993419" lon="10.326874"><time>2025-04-28T10:34:22.000Z</time><ele>446.2</ele></trkpt><trkpt lat="45.993407" lon="10.326862"><time>2025-04-28T10:34:23.000Z</time><ele>446</ele></trkpt><trkpt lat="45.993394" lon="10.326848"><time>2025-04-28T10:34:24.000Z</time><ele>446</ele></trkpt><trkpt lat="45.993384" lon="10.326835"><time>2025-04-28T10:34:25.000Z</time><ele>446</ele></trkpt><trkpt lat="45.993371" lon="10.326827"><time>2025-04-28T10:34:26.000Z</time><ele>445.8</ele></trkpt><trkpt lat="45.99336" lon="10.326819"><time>2025-04-28T10:34:27.000Z</time><ele>445.6</ele></trkpt><trkpt lat="45.993347" lon="10.326808"><time>2025-04-28T10:34:28.000Z</time><ele>445.6</ele></trkpt><trkpt lat="45.993333" lon="10.326797"><time>2025-04-28T10:34:29.000Z</time><ele>445.6</ele></trkpt><trkpt lat="45.993319" lon="10.326788"><time>2025-04-28T10:34:30.000Z</time><ele>445.6</ele></trkpt><trkpt lat="45.993305" lon="10.326775"><time>2025-04-28T10:34:31.000Z</time><ele>445.6</ele></trkpt><trkpt lat="45.993293" lon="10.326763"><time>2025-04-28T10:34:32.000Z</time><ele>445.6</ele></trkpt><trkpt lat="45.993283" lon="10.326753"><time>2025-04-28T10:34:33.000Z</time><ele>445.6</ele></trkpt><trkpt lat="45.993268" lon="10.326744"><time>2025-04-28T10:34:34.000Z</time><ele>445.6</ele></trkpt><trkpt lat="45.993254" lon="10.326738"><time>2025-04-28T10:34:35.000Z</time><ele>445.6</ele></trkpt><trkpt lat="45.993239" lon="10.32673"><time>2025-04-28T10:34:36.000Z</time><ele>445.8</ele></trkpt><trkpt lat="45.993223" lon="10.326723"><time>2025-04-28T10:34:37.000Z</time><ele>445.8</ele></trkpt><trkpt lat="45.993213" lon="10.32672"><time>2025-04-28T10:34:38.000Z</time><ele>445.8</ele></trkpt><trkpt lat="45.993201" lon="10.326712"><time>2025-04-28T10:34:39.000Z</time><ele>445.8</ele></trkpt><trkpt lat="45.993187" lon="10.326701"><time>2025-04-28T10:34:40.000Z</time><ele>445.6</ele></trkpt><trkpt lat="45.993176" lon="10.326689"><time>2025-04-28T10:34:41.000Z</time><ele>445.6</ele></trkpt><trkpt lat="45.993161" lon="10.326679"><time>2025-04-28T10:34:42.000Z</time><ele>445.6</ele></trkpt><trkpt lat="45.99315" lon="10.326673"><time>2025-04-28T10:34:43.000Z</time><ele>445.4</ele></trkpt><trkpt lat="45.993136" lon="10.326666"><time>2025-04-28T10:34:44.000Z</time><ele>445.6</ele></trkpt><trkpt lat="45.993118" lon="10.326654"><time>2025-04-28T10:34:45.000Z</time><ele>445.8</ele></trkpt><trkpt lat="45.993105" lon="10.326644"><time>2025-04-28T10:34:46.000Z</time><ele>445.8</ele></trkpt><trkpt lat="45.993092" lon="10.326637"><time>2025-04-28T10:34:47.000Z</time><ele>446</ele></trkpt><trkpt lat="45.993079" lon="10.326629"><time>2025-04-28T10:34:48.000Z</time><ele>446</ele></trkpt><trkpt lat="45.993066" lon="10.326621"><time>2025-04-28T10:34:49.000Z</time><ele>446.2</ele></trkpt><trkpt lat="45.99305" lon="10.326619"><time>2025-04-28T10:34:50.000Z</time><ele>446.6</ele></trkpt><trkpt lat="45.993043" lon="10.326615"><time>2025-04-28T10:34:51.000Z</time><ele>446.8</ele></trkpt><trkpt lat="45.993025" lon="10.326604"><time>2025-04-28T10:34:52.000Z</time><ele>447</ele></trkpt><trkpt lat="45.993011" lon="10.326597"><time>2025-04-28T10:34:53.000Z</time><ele>447.4</ele></trkpt><trkpt lat="45.992999" lon="10.326591"><time>2025-04-28T10:34:54.000Z</time><ele>447.6</ele></trkpt><trkpt lat="45.992985" lon="10.326583"><time>2025-04-28T10:34:55.000Z</time><ele>447.6</ele></trkpt><trkpt lat="45.992968" lon="10.326574"><time>2025-04-28T10:34:56.000Z</time><ele>447.4</ele></trkpt><trkpt lat="45.992954" lon="10.326568"><time>2025-04-28T10:34:57.000Z</time><ele>447</ele></trkpt><trkpt lat="45.992939" lon="10.32656"><time>2025-04-28T10:34:58.000Z</time><ele>446.8</ele></trkpt><trkpt lat="45.992924" lon="10.326552"><time>2025-04-28T10:34:59.000Z</time><ele>446.6</ele></trkpt><trkpt lat="45.992908" lon="10.326544"><time>2025-04-28T10:35:00.000Z</time><ele>446.6</ele></trkpt><trkpt lat="45.992893" lon="10.32654"><time>2025-04-28T10:35:01.000Z</time><ele>446.6</ele></trkpt><trkpt lat="45.992881" lon="10.326538"><time>2025-04-28T10:35:02.000Z</time><ele>446.6</ele></trkpt><trkpt lat="45.992871" lon="10.326536"><time>2025-04-28T10:35:03.000Z</time><ele>446.6</ele></trkpt><trkpt lat="45.992864" lon="10.326536"><time>2025-04-28T10:35:04.000Z</time><ele>446.8</ele></trkpt><trkpt lat="45.992849" lon="10.32653"><time>2025-04-28T10:35:05.000Z</time><ele>446.6</ele></trkpt><trkpt lat="45.992836" lon="10.32652"><time>2025-04-28T10:35:06.000Z</time><ele>446.4</ele></trkpt><trkpt lat="45.992824" lon="10.326513"><time>2025-04-28T10:35:07.000Z</time><ele>446.4</ele></trkpt><trkpt lat="45.992811" lon="10.326507"><time>2025-04-28T10:35:08.000Z</time><ele>446.2</ele></trkpt><trkpt lat="45.992798" lon="10.326499"><time>2025-04-28T10:35:09.000Z</time><ele>446.2</ele></trkpt><trkpt lat="45.992781" lon="10.326485"><time>2025-04-28T10:35:10.000Z</time><ele>446</ele></trkpt><trkpt lat="45.99277" lon="10.326479"><time>2025-04-28T10:35:11.000Z</time><ele>446</ele></trkpt><trkpt lat="45.992762" lon="10.326475"><time>2025-04-28T10:35:12.000Z</time><ele>446</ele></trkpt><trkpt lat="45.992752" lon="10.326469"><time>2025-04-28T10:35:13.000Z</time><ele>446</ele></trkpt><trkpt lat="45.992739" lon="10.326461"><time>2025-04-28T10:35:14.000Z</time><ele>446</ele></trkpt><trkpt lat="45.992726" lon="10.326451"><time>2025-04-28T10:35:15.000Z</time><ele>446.2</ele></trkpt><trkpt lat="45.99271" lon="10.326444"><time>2025-04-28T10:35:16.000Z</time><ele>446.2</ele></trkpt><trkpt lat="45.992692" lon="10.326437"><time>2025-04-28T10:35:17.000Z</time><ele>446.2</ele></trkpt><trkpt lat="45.992675" lon="10.326429"><time>2025-04-28T10:35:18.000Z</time><ele>446.2</ele></trkpt><trkpt lat="45.992662" lon="10.326421"><time>2025-04-28T10:35:19.000Z</time><ele>446.4</ele></trkpt><trkpt lat="45.99265" lon="10.326411"><time>2025-04-28T10:35:20.000Z</time><ele>446.4</ele></trkpt><trkpt lat="45.992639" lon="10.326398"><time>2025-04-28T10:35:21.000Z</time><ele>446.4</ele></trkpt><trkpt lat="45.992626" lon="10.326387"><time>2025-04-28T10:35:22.000Z</time><ele>446.2</ele></trkpt><trkpt lat="45.992617" lon="10.326381"><time>2025-04-28T10:35:23.000Z</time><ele>445.8</ele></trkpt><trkpt lat="45.992609" lon="10.326378"><time>2025-04-28T10:35:24.000Z</time><ele>445.6</ele></trkpt><trkpt lat="45.992594" lon="10.326368"><time>2025-04-28T10:35:25.000Z</time><ele>445.6</ele></trkpt><trkpt lat="45.992583" lon="10.326359"><time>2025-04-28T10:35:26.000Z</time><ele>445.4</ele></trkpt><trkpt lat="45.99257" lon="10.326352"><time>2025-04-28T10:35:27.000Z</time><ele>446</ele></trkpt><trkpt lat="45.992552" lon="10.326341"><time>2025-04-28T10:35:28.000Z</time><ele>446.2</ele></trkpt><trkpt lat="45.99254" lon="10.326329"><time>2025-04-28T10:35:29.000Z</time><ele>446.4</ele></trkpt><trkpt lat="45.992529" lon="10.326319"><time>2025-04-28T10:35:30.000Z</time><ele>446.4</ele></trkpt><trkpt lat="45.992514" lon="10.32631"><time>2025-04-28T10:35:31.000Z</time><ele>446.4</ele></trkpt><trkpt lat="45.992499" lon="10.326299"><time>2025-04-28T10:35:32.000Z</time><ele>446.4</ele></trkpt><trkpt lat="45.992486" lon="10.326288"><time>2025-04-28T10:35:33.000Z</time><ele>446.2</ele></trkpt><trkpt lat="45.992471" lon="10.326281"><time>2025-04-28T10:35:34.000Z</time><ele>446.2</ele></trkpt><trkpt lat="45.992457" lon="10.326273"><time>2025-04-28T10:35:35.000Z</time><ele>446</ele></trkpt><trkpt lat="45.992445" lon="10.326259"><time>2025-04-28T10:35:36.000Z</time><ele>446</ele></trkpt><trkpt lat="45.992433" lon="10.326248"><time>2025-04-28T10:35:37.000Z</time><ele>446</ele></trkpt><trkpt lat="45.992422" lon="10.326238"><time>2025-04-28T10:35:38.000Z</time><ele>446</ele></trkpt><trkpt lat="45.99241" lon="10.326228"><time>2025-04-28T10:35:39.000Z</time><ele>445.8</ele></trkpt><trkpt lat="45.992399" lon="10.326217"><time>2025-04-28T10:35:40.000Z</time><ele>445.8</ele></trkpt><trkpt lat="45.992387" lon="10.326204"><time>2025-04-28T10:35:41.000Z</time><ele>445.6</ele></trkpt><trkpt lat="45.992375" lon="10.32619"><time>2025-04-28T10:35:42.000Z</time><ele>445.4</ele></trkpt><trkpt lat="45.992362" lon="10.326179"><time>2025-04-28T10:35:43.000Z</time><ele>445.4</ele></trkpt><trkpt lat="45.992352" lon="10.326172"><time>2025-04-28T10:35:44.000Z</time><ele>445.2</ele></trkpt><trkpt lat="45.992337" lon="10.326163"><time>2025-04-28T10:35:45.000Z</time><ele>445.2</ele></trkpt><trkpt lat="45.992327" lon="10.326154"><time>2025-04-28T10:35:46.000Z</time><ele>445.2</ele></trkpt><trkpt lat="45.992312" lon="10.326137"><time>2025-04-28T10:35:47.000Z</time><ele>445</ele></trkpt><trkpt lat="45.992298" lon="10.326119"><time>2025-04-28T10:35:48.000Z</time><ele>445</ele></trkpt><trkpt lat="45.992285" lon="10.326106"><time>2025-04-28T10:35:49.000Z</time><ele>445</ele></trkpt><trkpt lat="45.992272" lon="10.326093"><time>2025-04-28T10:35:50.000Z</time><ele>445</ele></trkpt><trkpt lat="45.992256" lon="10.326081"><time>2025-04-28T10:35:51.000Z</time><ele>445</ele></trkpt><trkpt lat="45.992243" lon="10.32607"><time>2025-04-28T10:35:52.000Z</time><ele>445</ele></trkpt><trkpt lat="45.992232" lon="10.32606"><time>2025-04-28T10:35:53.000Z</time><ele>445</ele></trkpt><trkpt lat="45.992219" lon="10.326052"><time>2025-04-28T10:35:54.000Z</time><ele>445</ele></trkpt><trkpt lat="45.992203" lon="10.326039"><time>2025-04-28T10:35:55.000Z</time><ele>444.8</ele></trkpt><trkpt lat="45.992191" lon="10.326024"><time>2025-04-28T10:35:56.000Z</time><ele>444.8</ele></trkpt><trkpt lat="45.992179" lon="10.32601"><time>2025-04-28T10:35:57.000Z</time><ele>444.8</ele></trkpt><trkpt lat="45.992168" lon="10.326001"><time>2025-04-28T10:35:58.000Z</time><ele>444.8</ele></trkpt><trkpt lat="45.992155" lon="10.325988"><time>2025-04-28T10:35:59.000Z</time><ele>444.6</ele></trkpt><trkpt lat="45.992142" lon="10.325975"><time>2025-04-28T10:36:00.000Z</time><ele>444.6</ele></trkpt><trkpt lat="45.992128" lon="10.325964"><time>2025-04-28T10:36:01.000Z</time><ele>444.4</ele></trkpt><trkpt lat="45.992119" lon="10.325955"><time>2025-04-28T10:36:02.000Z</time><ele>444.4</ele></trkpt><trkpt lat="45.992104" lon="10.325943"><time>2025-04-28T10:36:03.000Z</time><ele>444.4</ele></trkpt><trkpt lat="45.992091" lon="10.325932"><time>2025-04-28T10:36:04.000Z</time><ele>444.4</ele></trkpt><trkpt lat="45.992079" lon="10.325923"><time>2025-04-28T10:36:05.000Z</time><ele>444.4</ele></trkpt><trkpt lat="45.992064" lon="10.325915"><time>2025-04-28T10:36:06.000Z</time><ele>444.2</ele></trkpt><trkpt lat="45.992051" lon="10.325906"><time>2025-04-28T10:36:07.000Z</time><ele>444</ele></trkpt><trkpt lat="45.992039" lon="10.325896"><time>2025-04-28T10:36:08.000Z</time><ele>443.6</ele></trkpt><trkpt lat="45.992027" lon="10.325885"><time>2025-04-28T10:36:09.000Z</time><ele>443.4</ele></trkpt><trkpt lat="45.992015" lon="10.325875"><time>2025-04-28T10:36:10.000Z</time><ele>443.4</ele></trkpt><trkpt lat="45.992001" lon="10.325866"><time>2025-04-28T10:36:11.000Z</time><ele>443.4</ele></trkpt><trkpt lat="45.991987" lon="10.325859"><time>2025-04-28T10:36:12.000Z</time><ele>443.4</ele></trkpt><trkpt lat="45.991972" lon="10.32585"><time>2025-04-28T10:36:13.000Z</time><ele>443.2</ele></trkpt><trkpt lat="45.991963" lon="10.325842"><time>2025-04-28T10:36:14.000Z</time><ele>443.2</ele></trkpt><trkpt lat="45.991945" lon="10.325832"><time>2025-04-28T10:36:15.000Z</time><ele>443</ele></trkpt><trkpt lat="45.991933" lon="10.325825"><time>2025-04-28T10:36:16.000Z</time><ele>443</ele></trkpt><trkpt lat="45.991921" lon="10.325816"><time>2025-04-28T10:36:17.000Z</time><ele>443</ele></trkpt><trkpt lat="45.991909" lon="10.325809"><time>2025-04-28T10:36:18.000Z</time><ele>443</ele></trkpt><trkpt lat="45.991894" lon="10.325804"><time>2025-04-28T10:36:19.000Z</time><ele>442.8</ele></trkpt><trkpt lat="45.991881" lon="10.325797"><time>2025-04-28T10:36:20.000Z</time><ele>442.6</ele></trkpt><trkpt lat="45.991867" lon="10.32579"><time>2025-04-28T10:36:21.000Z</time><ele>442.4</ele></trkpt><trkpt lat="45.991854" lon="10.325783"><time>2025-04-28T10:36:22.000Z</time><ele>442.2</ele></trkpt><trkpt lat="45.991839" lon="10.325773"><time>2025-04-28T10:36:23.000Z</time><ele>442.2</ele></trkpt><trkpt lat="45.991822" lon="10.325763"><time>2025-04-28T10:36:24.000Z</time><ele>442.2</ele></trkpt><trkpt lat="45.991812" lon="10.325757"><time>2025-04-28T10:36:25.000Z</time><ele>442</ele></trkpt><trkpt lat="45.9918" lon="10.325748"><time>2025-04-28T10:36:26.000Z</time><ele>442</ele></trkpt><trkpt lat="45.991784" lon="10.32574"><time>2025-04-28T10:36:27.000Z</time><ele>442</ele></trkpt><trkpt lat="45.991772" lon="10.325733"><time>2025-04-28T10:36:28.000Z</time><ele>442</ele></trkpt><trkpt lat="45.991759" lon="10.325725"><time>2025-04-28T10:36:29.000Z</time><ele>442</ele></trkpt><trkpt lat="45.991746" lon="10.325715"><time>2025-04-28T10:36:30.000Z</time><ele>441.8</ele></trkpt><trkpt lat="45.991732" lon="10.325707"><time>2025-04-28T10:36:31.000Z</time><ele>441.6</ele></trkpt><trkpt lat="45.991718" lon="10.3257"><time>2025-04-28T10:36:32.000Z</time><ele>441.6</ele></trkpt><trkpt lat="45.991707" lon="10.325692"><time>2025-04-28T10:36:33.000Z</time><ele>441.4</ele></trkpt><trkpt lat="45.991694" lon="10.325681"><time>2025-04-28T10:36:34.000Z</time><ele>441.4</ele></trkpt><trkpt lat="45.99168" lon="10.325671"><time>2025-04-28T10:36:35.000Z</time><ele>441.4</ele></trkpt><trkpt lat="45.991665" lon="10.325661"><time>2025-04-28T10:36:36.000Z</time><ele>441.2</ele></trkpt><trkpt lat="45.991651" lon="10.325652"><time>2025-04-28T10:36:37.000Z</time><ele>441.2</ele></trkpt><trkpt lat="45.991639" lon="10.325644"><time>2025-04-28T10:36:38.000Z</time><ele>441.2</ele></trkpt><trkpt lat="45.991626" lon="10.325636"><time>2025-04-28T10:36:39.000Z</time><ele>441</ele></trkpt><trkpt lat="45.991611" lon="10.325628"><time>2025-04-28T10:36:40.000Z</time><ele>440.8</ele></trkpt><trkpt lat="45.991597" lon="10.325618"><time>2025-04-28T10:36:41.000Z</time><ele>440.6</ele></trkpt><trkpt lat="45.99158" lon="10.325609"><time>2025-04-28T10:36:42.000Z</time><ele>440.4</ele></trkpt><trkpt lat="45.991565" lon="10.325602"><time>2025-04-28T10:36:43.000Z</time><ele>440.4</ele></trkpt><trkpt lat="45.991552" lon="10.325595"><time>2025-04-28T10:36:44.000Z</time><ele>440.4</ele></trkpt><trkpt lat="45.991538" lon="10.325587"><time>2025-04-28T10:36:45.000Z</time><ele>440.4</ele></trkpt><trkpt lat="45.991524" lon="10.325579"><time>2025-04-28T10:36:46.000Z</time><ele>440.4</ele></trkpt><trkpt lat="45.99151" lon="10.325572"><time>2025-04-28T10:36:47.000Z</time><ele>440.4</ele></trkpt><trkpt lat="45.991494" lon="10.325567"><time>2025-04-28T10:36:48.000Z</time><ele>440.4</ele></trkpt><trkpt lat="45.991482" lon="10.325561"><time>2025-04-28T10:36:49.000Z</time><ele>440</ele></trkpt><trkpt lat="45.99147" lon="10.325555"><time>2025-04-28T10:36:50.000Z</time><ele>439.8</ele></trkpt><trkpt lat="45.991456" lon="10.325547"><time>2025-04-28T10:36:51.000Z</time><ele>439.6</ele></trkpt><trkpt lat="45.991445" lon="10.325538"><time>2025-04-28T10:36:52.000Z</time><ele>439.6</ele></trkpt><trkpt lat="45.991434" lon="10.325529"><time>2025-04-28T10:36:53.000Z</time><ele>439.4</ele></trkpt><trkpt lat="45.991423" lon="10.325518"><time>2025-04-28T10:36:54.000Z</time><ele>439.6</ele></trkpt><trkpt lat="45.99141" lon="10.325507"><time>2025-04-28T10:36:55.000Z</time><ele>439.6</ele></trkpt><trkpt lat="45.991399" lon="10.325494"><time>2025-04-28T10:36:56.000Z</time><ele>439.6</ele></trkpt><trkpt lat="45.991388" lon="10.325481"><time>2025-04-28T10:36:57.000Z</time><ele>439.8</ele></trkpt><trkpt lat="45.991377" lon="10.325473"><time>2025-04-28T10:36:58.000Z</time><ele>439.8</ele></trkpt><trkpt lat="45.991365" lon="10.325464"><time>2025-04-28T10:36:59.000Z</time><ele>440</ele></trkpt><trkpt lat="45.991352" lon="10.325453"><time>2025-04-28T10:37:00.000Z</time><ele>440</ele></trkpt><trkpt lat="45.991339" lon="10.32544"><time>2025-04-28T10:37:01.000Z</time><ele>440.2</ele></trkpt><trkpt lat="45.991326" lon="10.325429"><time>2025-04-28T10:37:02.000Z</time><ele>440.2</ele></trkpt><trkpt lat="45.991312" lon="10.325418"><time>2025-04-28T10:37:03.000Z</time><ele>440.2</ele></trkpt><trkpt lat="45.991297" lon="10.325405"><time>2025-04-28T10:37:04.000Z</time><ele>440.2</ele></trkpt><trkpt lat="45.991286" lon="10.325391"><time>2025-04-28T10:37:05.000Z</time><ele>439.4</ele></trkpt><trkpt lat="45.991278" lon="10.325381"><time>2025-04-28T10:37:06.000Z</time><ele>439</ele></trkpt><trkpt lat="45.991268" lon="10.325366"><time>2025-04-28T10:37:07.000Z</time><ele>438.6</ele></trkpt><trkpt lat="45.991258" lon="10.325354"><time>2025-04-28T10:37:08.000Z</time><ele>438</ele></trkpt><trkpt lat="45.991249" lon="10.325339"><time>2025-04-28T10:37:09.000Z</time><ele>437.6</ele></trkpt><trkpt lat="45.991241" lon="10.325324"><time>2025-04-28T10:37:10.000Z</time><ele>437.4</ele></trkpt><trkpt lat="45.991231" lon="10.325306"><time>2025-04-28T10:37:11.000Z</time><ele>437.2</ele></trkpt><trkpt lat="45.99122" lon="10.325292"><time>2025-04-28T10:37:12.000Z</time><ele>437.8</ele></trkpt><trkpt lat="45.991208" lon="10.325279"><time>2025-04-28T10:37:13.000Z</time><ele>438</ele></trkpt><trkpt lat="45.991195" lon="10.32527"><time>2025-04-28T10:37:14.000Z</time><ele>438.2</ele></trkpt><trkpt lat="45.991179" lon="10.325262"><time>2025-04-28T10:37:15.000Z</time><ele>438.2</ele></trkpt><trkpt lat="45.991167" lon="10.325255"><time>2025-04-28T10:37:16.000Z</time><ele>438.2</ele></trkpt><trkpt lat="45.991153" lon="10.325251"><time>2025-04-28T10:37:17.000Z</time><ele>438.2</ele></trkpt><trkpt lat="45.991142" lon="10.32524"><time>2025-04-28T10:37:18.000Z</time><ele>438.2</ele></trkpt><trkpt lat="45.991123" lon="10.325233"><time>2025-04-28T10:37:19.000Z</time><ele>438</ele></trkpt><trkpt lat="45.991109" lon="10.325226"><time>2025-04-28T10:37:20.000Z</time><ele>438</ele></trkpt><trkpt lat="45.9911" lon="10.325216"><time>2025-04-28T10:37:21.000Z</time><ele>437.8</ele></trkpt><trkpt lat="45.991085" lon="10.32521"><time>2025-04-28T10:37:22.000Z</time><ele>437.6</ele></trkpt><trkpt lat="45.991069" lon="10.325205"><time>2025-04-28T10:37:23.000Z</time><ele>437.4</ele></trkpt><trkpt lat="45.991052" lon="10.325196"><time>2025-04-28T10:37:24.000Z</time><ele>437.4</ele></trkpt><trkpt lat="45.99104" lon="10.325187"><time>2025-04-28T10:37:25.000Z</time><ele>437.2</ele></trkpt><trkpt lat="45.991026" lon="10.325179"><time>2025-04-28T10:37:26.000Z</time><ele>437.2</ele></trkpt><trkpt lat="45.991016" lon="10.325167"><time>2025-04-28T10:37:27.000Z</time><ele>437</ele></trkpt><trkpt lat="45.991" lon="10.325157"><time>2025-04-28T10:37:28.000Z</time><ele>437</ele></trkpt><trkpt lat="45.990983" lon="10.325148"><time>2025-04-28T10:37:29.000Z</time><ele>437</ele></trkpt><trkpt lat="45.990966" lon="10.325141"><time>2025-04-28T10:37:30.000Z</time><ele>436.8</ele></trkpt><trkpt lat="45.990948" lon="10.325133"><time>2025-04-28T10:37:31.000Z</time><ele>436.8</ele></trkpt><trkpt lat="45.990931" lon="10.325121"><time>2025-04-28T10:37:32.000Z</time><ele>436.8</ele></trkpt><trkpt lat="45.990915" lon="10.325113"><time>2025-04-28T10:37:33.000Z</time><ele>436.6</ele></trkpt><trkpt lat="45.990898" lon="10.325103"><time>2025-04-28T10:37:34.000Z</time><ele>436.6</ele></trkpt><trkpt lat="45.990887" lon="10.325091"><time>2025-04-28T10:37:35.000Z</time><ele>436.4</ele></trkpt><trkpt lat="45.990874" lon="10.325087"><time>2025-04-28T10:37:36.000Z</time><ele>436.2</ele></trkpt><trkpt lat="45.990859" lon="10.325079"><time>2025-04-28T10:37:37.000Z</time><ele>436.2</ele></trkpt><trkpt lat="45.990844" lon="10.325065"><time>2025-04-28T10:37:38.000Z</time><ele>435.6</ele></trkpt><trkpt lat="45.990835" lon="10.325055"><time>2025-04-28T10:37:39.000Z</time><ele>435.2</ele></trkpt><trkpt lat="45.990826" lon="10.32505"><time>2025-04-28T10:37:40.000Z</time><ele>434.8</ele></trkpt><trkpt lat="45.990814" lon="10.325044"><time>2025-04-28T10:37:41.000Z</time><ele>434.8</ele></trkpt><trkpt lat="45.9908" lon="10.325041"><time>2025-04-28T10:37:42.000Z</time><ele>434.6</ele></trkpt><trkpt lat="45.990788" lon="10.325031"><time>2025-04-28T10:37:43.000Z</time><ele>434.4</ele></trkpt><trkpt lat="45.990772" lon="10.325023"><time>2025-04-28T10:37:44.000Z</time><ele>434.2</ele></trkpt><trkpt lat="45.990757" lon="10.325014"><time>2025-04-28T10:37:45.000Z</time><ele>434</ele></trkpt><trkpt lat="45.99074" lon="10.325004"><time>2025-04-28T10:37:46.000Z</time><ele>433.6</ele></trkpt><trkpt lat="45.990724" lon="10.324998"><time>2025-04-28T10:37:47.000Z</time><ele>433.4</ele></trkpt><trkpt lat="45.990709" lon="10.324992"><time>2025-04-28T10:37:48.000Z</time><ele>433.2</ele></trkpt><trkpt lat="45.990692" lon="10.324986"><time>2025-04-28T10:37:49.000Z</time><ele>433</ele></trkpt><trkpt lat="45.990676" lon="10.324978"><time>2025-04-28T10:37:50.000Z</time><ele>432.8</ele></trkpt><trkpt lat="45.990663" lon="10.324978"><time>2025-04-28T10:37:51.000Z</time><ele>432.8</ele></trkpt><trkpt lat="45.990648" lon="10.324977"><time>2025-04-28T10:37:52.000Z</time><ele>432.6</ele></trkpt><trkpt lat="45.99063" lon="10.324976"><time>2025-04-28T10:37:53.000Z</time><ele>432.6</ele></trkpt><trkpt lat="45.990615" lon="10.324972"><time>2025-04-28T10:37:54.000Z</time><ele>432.4</ele></trkpt><trkpt lat="45.9906" lon="10.324967"><time>2025-04-28T10:37:55.000Z</time><ele>432.4</ele></trkpt><trkpt lat="45.990586" lon="10.32496"><time>2025-04-28T10:37:56.000Z</time><ele>432.2</ele></trkpt><trkpt lat="45.990571" lon="10.324952"><time>2025-04-28T10:37:57.000Z</time><ele>432.2</ele></trkpt><trkpt lat="45.990557" lon="10.324948"><time>2025-04-28T10:37:58.000Z</time><ele>432.2</ele></trkpt><trkpt lat="45.990542" lon="10.324941"><time>2025-04-28T10:37:59.000Z</time><ele>432</ele></trkpt><trkpt lat="45.990525" lon="10.324934"><time>2025-04-28T10:38:00.000Z</time><ele>432</ele></trkpt><trkpt lat="45.990509" lon="10.324926"><time>2025-04-28T10:38:01.000Z</time><ele>431.8</ele></trkpt><trkpt lat="45.990497" lon="10.324918"><time>2025-04-28T10:38:02.000Z</time><ele>431.6</ele></trkpt><trkpt lat="45.990482" lon="10.324908"><time>2025-04-28T10:38:03.000Z</time><ele>431.4</ele></trkpt><trkpt lat="45.990466" lon="10.324896"><time>2025-04-28T10:38:04.000Z</time><ele>431.4</ele></trkpt><trkpt lat="45.990453" lon="10.324883"><time>2025-04-28T10:38:05.000Z</time><ele>431.2</ele></trkpt><trkpt lat="45.990437" lon="10.324874"><time>2025-04-28T10:38:06.000Z</time><ele>431.2</ele></trkpt><trkpt lat="45.990422" lon="10.324872"><time>2025-04-28T10:38:07.000Z</time><ele>431.4</ele></trkpt><trkpt lat="45.990406" lon="10.324864"><time>2025-04-28T10:38:08.000Z</time><ele>431.6</ele></trkpt><trkpt lat="45.990392" lon="10.324856"><time>2025-04-28T10:38:09.000Z</time><ele>431.4</ele></trkpt><trkpt lat="45.990379" lon="10.324849"><time>2025-04-28T10:38:10.000Z</time><ele>431.6</ele></trkpt><trkpt lat="45.990364" lon="10.324842"><time>2025-04-28T10:38:11.000Z</time><ele>431.2</ele></trkpt><trkpt lat="45.990352" lon="10.324837"><time>2025-04-28T10:38:12.000Z</time><ele>431</ele></trkpt><trkpt lat="45.99034" lon="10.324835"><time>2025-04-28T10:38:13.000Z</time><ele>431</ele></trkpt><trkpt lat="45.990328" lon="10.324829"><time>2025-04-28T10:38:14.000Z</time><ele>431</ele></trkpt><trkpt lat="45.990314" lon="10.324821"><time>2025-04-28T10:38:15.000Z</time><ele>431.2</ele></trkpt><trkpt lat="45.9903" lon="10.324812"><time>2025-04-28T10:38:16.000Z</time><ele>431.4</ele></trkpt><trkpt lat="45.990285" lon="10.324801"><time>2025-04-28T10:38:17.000Z</time><ele>431.6</ele></trkpt><trkpt lat="45.990266" lon="10.324793"><time>2025-04-28T10:38:18.000Z</time><ele>431.6</ele></trkpt><trkpt lat="45.990254" lon="10.324787"><time>2025-04-28T10:38:19.000Z</time><ele>431.6</ele></trkpt><trkpt lat="45.990243" lon="10.324778"><time>2025-04-28T10:38:20.000Z</time><ele>431.6</ele></trkpt><trkpt lat="45.99023" lon="10.324769"><time>2025-04-28T10:38:21.000Z</time><ele>430.6</ele></trkpt><trkpt lat="45.990218" lon="10.324757"><time>2025-04-28T10:38:22.000Z</time><ele>430.2</ele></trkpt><trkpt lat="45.990205" lon="10.324741"><time>2025-04-28T10:38:23.000Z</time><ele>429.8</ele></trkpt><trkpt lat="45.99019" lon="10.324726"><time>2025-04-28T10:38:24.000Z</time><ele>429.6</ele></trkpt><trkpt lat="45.990176" lon="10.324716"><time>2025-04-28T10:38:25.000Z</time><ele>429.4</ele></trkpt><trkpt lat="45.990162" lon="10.324703"><time>2025-04-28T10:38:26.000Z</time><ele>429.2</ele></trkpt><trkpt lat="45.990149" lon="10.324692"><time>2025-04-28T10:38:27.000Z</time><ele>429</ele></trkpt><trkpt lat="45.990136" lon="10.324682"><time>2025-04-28T10:38:28.000Z</time><ele>428.8</ele></trkpt><trkpt lat="45.990122" lon="10.324672"><time>2025-04-28T10:38:29.000Z</time><ele>428.6</ele></trkpt><trkpt lat="45.990107" lon="10.324663"><time>2025-04-28T10:38:30.000Z</time><ele>428.4</ele></trkpt><trkpt lat="45.990093" lon="10.324654"><time>2025-04-28T10:38:31.000Z</time><ele>428.2</ele></trkpt><trkpt lat="45.990079" lon="10.324642"><time>2025-04-28T10:38:32.000Z</time><ele>428</ele></trkpt><trkpt lat="45.990068" lon="10.324633"><time>2025-04-28T10:38:33.000Z</time><ele>427.8</ele></trkpt><trkpt lat="45.990058" lon="10.324624"><time>2025-04-28T10:38:34.000Z</time><ele>427.6</ele></trkpt><trkpt lat="45.990042" lon="10.324613"><time>2025-04-28T10:38:35.000Z</time><ele>427.6</ele></trkpt><trkpt lat="45.990029" lon="10.324602"><time>2025-04-28T10:38:36.000Z</time><ele>427.4</ele></trkpt><trkpt lat="45.990013" lon="10.324591"><time>2025-04-28T10:38:37.000Z</time><ele>427.4</ele></trkpt><trkpt lat="45.989999" lon="10.324584"><time>2025-04-28T10:38:38.000Z</time><ele>427.4</ele></trkpt><trkpt lat="45.989987" lon="10.324574"><time>2025-04-28T10:38:39.000Z</time><ele>427.4</ele></trkpt><trkpt lat="45.989976" lon="10.324564"><time>2025-04-28T10:38:40.000Z</time><ele>427</ele></trkpt><trkpt lat="45.989968" lon="10.324555"><time>2025-04-28T10:38:41.000Z</time><ele>426.8</ele></trkpt><trkpt lat="45.989953" lon="10.324541"><time>2025-04-28T10:38:42.000Z</time><ele>426.8</ele></trkpt><trkpt lat="45.989939" lon="10.324527"><time>2025-04-28T10:38:43.000Z</time><ele>426.6</ele></trkpt><trkpt lat="45.989925" lon="10.324516"><time>2025-04-28T10:38:44.000Z</time><ele>426.4</ele></trkpt><trkpt lat="45.989912" lon="10.324505"><time>2025-04-28T10:38:45.000Z</time><ele>426.4</ele></trkpt><trkpt lat="45.989901" lon="10.324495"><time>2025-04-28T10:38:46.000Z</time><ele>426.4</ele></trkpt><trkpt lat="45.989886" lon="10.324485"><time>2025-04-28T10:38:47.000Z</time><ele>426.2</ele></trkpt><trkpt lat="45.98987" lon="10.324473"><time>2025-04-28T10:38:48.000Z</time><ele>426.2</ele></trkpt><trkpt lat="45.989859" lon="10.324463"><time>2025-04-28T10:38:49.000Z</time><ele>426</ele></trkpt><trkpt lat="45.989847" lon="10.324451"><time>2025-04-28T10:38:50.000Z</time><ele>426</ele></trkpt><trkpt lat="45.989835" lon="10.324439"><time>2025-04-28T10:38:51.000Z</time><ele>425.6</ele></trkpt><trkpt lat="45.989824" lon="10.32443"><time>2025-04-28T10:38:52.000Z</time><ele>425.2</ele></trkpt><trkpt lat="45.989812" lon="10.324418"><time>2025-04-28T10:38:53.000Z</time><ele>425</ele></trkpt><trkpt lat="45.989798" lon="10.324403"><time>2025-04-28T10:38:54.000Z</time><ele>425</ele></trkpt><trkpt lat="45.989787" lon="10.324387"><time>2025-04-28T10:38:55.000Z</time><ele>424.8</ele></trkpt><trkpt lat="45.989773" lon="10.324371"><time>2025-04-28T10:38:56.000Z</time><ele>424.8</ele></trkpt><trkpt lat="45.989764" lon="10.324364"><time>2025-04-28T10:38:57.000Z</time><ele>424.8</ele></trkpt><trkpt lat="45.989748" lon="10.32435"><time>2025-04-28T10:38:58.000Z</time><ele>424.8</ele></trkpt><trkpt lat="45.989734" lon="10.32434"><time>2025-04-28T10:38:59.000Z</time><ele>424.8</ele></trkpt><trkpt lat="45.989719" lon="10.324329"><time>2025-04-28T10:39:00.000Z</time><ele>424.8</ele></trkpt><trkpt lat="45.989702" lon="10.324317"><time>2025-04-28T10:39:01.000Z</time><ele>424.8</ele></trkpt><trkpt lat="45.989689" lon="10.324306"><time>2025-04-28T10:39:02.000Z</time><ele>424.6</ele></trkpt><trkpt lat="45.989678" lon="10.324297"><time>2025-04-28T10:39:03.000Z</time><ele>424.4</ele></trkpt><trkpt lat="45.989672" lon="10.324292"><time>2025-04-28T10:39:04.000Z</time><ele>424.2</ele></trkpt><trkpt lat="45.989669" lon="10.324291"><time>2025-04-28T10:39:05.000Z</time><ele>424.2</ele></trkpt><trkpt lat="45.98967" lon="10.324292"><time>2025-04-28T10:39:06.000Z</time><ele>424.2</ele></trkpt><trkpt lat="45.989671" lon="10.324292"><time>2025-04-28T10:39:07.000Z</time><ele>424.4</ele></trkpt><trkpt lat="45.98967" lon="10.324294"><time>2025-04-28T10:39:08.000Z</time><ele>424.4</ele></trkpt><trkpt lat="45.989668" lon="10.324296"><time>2025-04-28T10:39:09.000Z</time><ele>424.4</ele></trkpt><trkpt lat="45.989669" lon="10.324296"><time>2025-04-28T10:39:10.000Z</time><ele>424.4</ele></trkpt><trkpt lat="45.989669" lon="10.324296"><time>2025-04-28T10:39:11.000Z</time><ele>424.6</ele></trkpt><trkpt lat="45.989669" lon="10.324294"><time>2025-04-28T10:39:12.000Z</time><ele>424.6</ele></trkpt><trkpt lat="45.989667" lon="10.324294"><time>2025-04-28T10:39:13.000Z</time><ele>424.6</ele></trkpt><trkpt lat="45.989666" lon="10.324296"><time>2025-04-28T10:39:14.000Z</time><ele>424.6</ele></trkpt><trkpt lat="45.989666" lon="10.324297"><time>2025-04-28T10:39:15.000Z</time><ele>424.6</ele></trkpt><trkpt lat="45.989667" lon="10.324295"><time>2025-04-28T10:39:16.000Z</time><ele>424.6</ele></trkpt><trkpt lat="45.989667" lon="10.324294"><time>2025-04-28T10:39:17.000Z</time><ele>424.6</ele></trkpt><trkpt lat="45.989667" lon="10.324294"><time>2025-04-28T10:39:18.000Z</time><ele>424.6</ele></trkpt><trkpt lat="45.989666" lon="10.324294"><time>2025-04-28T10:39:19.000Z</time><ele>424.6</ele></trkpt><trkpt lat="45.989666" lon="10.324294"><time>2025-04-28T10:39:20.000Z</time><ele>424.6</ele></trkpt><trkpt lat="45.989666" lon="10.324294"><time>2025-04-28T10:39:21.000Z</time><ele>424.4</ele></trkpt><trkpt lat="45.989666" lon="10.324294"><time>2025-04-28T10:39:22.000Z</time><ele>424.2</ele></trkpt><trkpt lat="45.989666" lon="10.324294"><time>2025-04-28T10:39:23.000Z</time><ele>424</ele></trkpt><trkpt lat="45.989666" lon="10.324294"><time>2025-04-28T10:39:24.000Z</time><ele>423.8</ele></trkpt><trkpt lat="45.989664" lon="10.324291"><time>2025-04-28T10:39:25.000Z</time><ele>423.6</ele></trkpt><trkpt lat="45.989653" lon="10.324278"><time>2025-04-28T10:39:26.000Z</time><ele>423.6</ele></trkpt><trkpt lat="45.989644" lon="10.324267"><time>2025-04-28T10:39:27.000Z</time><ele>423.4</ele></trkpt><trkpt lat="45.989635" lon="10.324253"><time>2025-04-28T10:39:28.000Z</time><ele>423.4</ele></trkpt><trkpt lat="45.989621" lon="10.324234"><time>2025-04-28T10:39:29.000Z</time><ele>423.4</ele></trkpt><trkpt lat="45.989608" lon="10.324215"><time>2025-04-28T10:39:30.000Z</time><ele>423.2</ele></trkpt><trkpt lat="45.989594" lon="10.324198"><time>2025-04-28T10:39:31.000Z</time><ele>423.2</ele></trkpt><trkpt lat="45.989578" lon="10.324178"><time>2025-04-28T10:39:32.000Z</time><ele>423</ele></trkpt><trkpt lat="45.989564" lon="10.324162"><time>2025-04-28T10:39:33.000Z</time><ele>422.8</ele></trkpt><trkpt lat="45.98955" lon="10.324144"><time>2025-04-28T10:39:34.000Z</time><ele>422.6</ele></trkpt><trkpt lat="45.989538" lon="10.324129"><time>2025-04-28T10:39:35.000Z</time><ele>422.4</ele></trkpt><trkpt lat="45.989526" lon="10.324111"><time>2025-04-28T10:39:36.000Z</time><ele>422.4</ele></trkpt><trkpt lat="45.98952" lon="10.324098"><time>2025-04-28T10:39:37.000Z</time><ele>422.2</ele></trkpt><trkpt lat="45.989513" lon="10.324088"><time>2025-04-28T10:39:38.000Z</time><ele>422</ele></trkpt><trkpt lat="45.98951" lon="10.324081"><time>2025-04-28T10:39:39.000Z</time><ele>421.8</ele></trkpt><trkpt lat="45.989508" lon="10.32407"><time>2025-04-28T10:39:40.000Z</time><ele>421.6</ele></trkpt><trkpt lat="45.989507" lon="10.324056"><time>2025-04-28T10:39:41.000Z</time><ele>421.4</ele></trkpt><trkpt lat="45.989499" lon="10.324037"><time>2025-04-28T10:39:42.000Z</time><ele>421.2</ele></trkpt><trkpt lat="45.989486" lon="10.324021"><time>2025-04-28T10:39:43.000Z</time><ele>421</ele></trkpt><trkpt lat="45.98947" lon="10.324004"><time>2025-04-28T10:39:44.000Z</time><ele>420.8</ele></trkpt><trkpt lat="45.989458" lon="10.323997"><time>2025-04-28T10:39:45.000Z</time><ele>420.6</ele></trkpt><trkpt lat="45.989451" lon="10.323994"><time>2025-04-28T10:39:46.000Z</time><ele>420.4</ele></trkpt><trkpt lat="45.989436" lon="10.323981"><time>2025-04-28T10:39:47.000Z</time><ele>420.2</ele></trkpt><trkpt lat="45.989425" lon="10.323966"><time>2025-04-28T10:39:48.000Z</time><ele>420</ele></trkpt><trkpt lat="45.989419" lon="10.323948"><time>2025-04-28T10:39:49.000Z</time><ele>420</ele></trkpt><trkpt lat="45.989411" lon="10.323924"><time>2025-04-28T10:39:50.000Z</time><ele>420</ele></trkpt><trkpt lat="45.989406" lon="10.323899"><time>2025-04-28T10:39:51.000Z</time><ele>420</ele></trkpt><trkpt lat="45.989395" lon="10.323881"><time>2025-04-28T10:39:52.000Z</time><ele>419.6</ele></trkpt><trkpt lat="45.989385" lon="10.323866"><time>2025-04-28T10:39:53.000Z</time><ele>419.4</ele></trkpt><trkpt lat="45.989372" lon="10.323856"><time>2025-04-28T10:39:54.000Z</time><ele>419.2</ele></trkpt><trkpt lat="45.989354" lon="10.323843"><time>2025-04-28T10:39:55.000Z</time><ele>419</ele></trkpt><trkpt lat="45.989341" lon="10.32383"><time>2025-04-28T10:39:56.000Z</time><ele>419</ele></trkpt><trkpt lat="45.98933" lon="10.32382"><time>2025-04-28T10:39:57.000Z</time><ele>419</ele></trkpt><trkpt lat="45.989312" lon="10.323803"><time>2025-04-28T10:39:58.000Z</time><ele>419</ele></trkpt><trkpt lat="45.989291" lon="10.323782"><time>2025-04-28T10:39:59.000Z</time><ele>419</ele></trkpt><trkpt lat="45.989272" lon="10.323766"><time>2025-04-28T10:40:00.000Z</time><ele>419</ele></trkpt><trkpt lat="45.989259" lon="10.323751"><time>2025-04-28T10:40:01.000Z</time><ele>419</ele></trkpt><trkpt lat="45.98925" lon="10.323735"><time>2025-04-28T10:40:02.000Z</time><ele>419</ele></trkpt><trkpt lat="45.989243" lon="10.323723"><time>2025-04-28T10:40:03.000Z</time><ele>419</ele></trkpt><trkpt lat="45.989232" lon="10.323712"><time>2025-04-28T10:40:04.000Z</time><ele>419</ele></trkpt><trkpt lat="45.989219" lon="10.323704"><time>2025-04-28T10:40:05.000Z</time><ele>419</ele></trkpt><trkpt lat="45.989205" lon="10.323694"><time>2025-04-28T10:40:06.000Z</time><ele>419</ele></trkpt><trkpt lat="45.989192" lon="10.323682"><time>2025-04-28T10:40:07.000Z</time><ele>419</ele></trkpt><trkpt lat="45.989182" lon="10.323667"><time>2025-04-28T10:40:08.000Z</time><ele>419</ele></trkpt><trkpt lat="45.989172" lon="10.323651"><time>2025-04-28T10:40:09.000Z</time><ele>419</ele></trkpt><trkpt lat="45.989158" lon="10.323635"><time>2025-04-28T10:40:10.000Z</time><ele>419</ele></trkpt><trkpt lat="45.989146" lon="10.323619"><time>2025-04-28T10:40:11.000Z</time><ele>419</ele></trkpt><trkpt lat="45.989133" lon="10.323603"><time>2025-04-28T10:40:12.000Z</time><ele>419</ele></trkpt><trkpt lat="45.989123" lon="10.323581"><time>2025-04-28T10:40:13.000Z</time><ele>419.2</ele></trkpt><trkpt lat="45.989117" lon="10.323565"><time>2025-04-28T10:40:14.000Z</time><ele>419.2</ele></trkpt><trkpt lat="45.989113" lon="10.323549"><time>2025-04-28T10:40:15.000Z</time><ele>419</ele></trkpt><trkpt lat="45.989109" lon="10.323533"><time>2025-04-28T10:40:16.000Z</time><ele>419</ele></trkpt><trkpt lat="45.989105" lon="10.323512"><time>2025-04-28T10:40:17.000Z</time><ele>419</ele></trkpt><trkpt lat="45.9891" lon="10.323498"><time>2025-04-28T10:40:18.000Z</time><ele>419</ele></trkpt><trkpt lat="45.989092" lon="10.323479"><time>2025-04-28T10:40:19.000Z</time><ele>419</ele></trkpt><trkpt lat="45.989082" lon="10.32346"><time>2025-04-28T10:40:20.000Z</time><ele>418.8</ele></trkpt><trkpt lat="45.989071" lon="10.323444"><time>2025-04-28T10:40:21.000Z</time><ele>418.8</ele></trkpt><trkpt lat="45.989061" lon="10.323428"><time>2025-04-28T10:40:22.000Z</time><ele>418.8</ele></trkpt><trkpt lat="45.989053" lon="10.323415"><time>2025-04-28T10:40:23.000Z</time><ele>418.6</ele></trkpt><trkpt lat="45.989047" lon="10.323402"><time>2025-04-28T10:40:24.000Z</time><ele>418.6</ele></trkpt><trkpt lat="45.98904" lon="10.323389"><time>2025-04-28T10:40:25.000Z</time><ele>418.6</ele></trkpt><trkpt lat="45.989025" lon="10.323364"><time>2025-04-28T10:40:26.000Z</time><ele>418.4</ele></trkpt><trkpt lat="45.989013" lon="10.323335"><time>2025-04-28T10:40:27.000Z</time><ele>418.4</ele></trkpt><trkpt lat="45.989007" lon="10.323311"><time>2025-04-28T10:40:28.000Z</time><ele>418.4</ele></trkpt><trkpt lat="45.988997" lon="10.323289"><time>2025-04-28T10:40:29.000Z</time><ele>418.6</ele></trkpt><trkpt lat="45.988986" lon="10.323276"><time>2025-04-28T10:40:30.000Z</time><ele>418.6</ele></trkpt><trkpt lat="45.988969" lon="10.323257"><time>2025-04-28T10:40:31.000Z</time><ele>418.4</ele></trkpt><trkpt lat="45.98895" lon="10.323238"><time>2025-04-28T10:40:32.000Z</time><ele>418.2</ele></trkpt><trkpt lat="45.988941" lon="10.323221"><time>2025-04-28T10:40:33.000Z</time><ele>418.2</ele></trkpt><trkpt lat="45.988932" lon="10.323207"><time>2025-04-28T10:40:34.000Z</time><ele>418.2</ele></trkpt><trkpt lat="45.988922" lon="10.323196"><time>2025-04-28T10:40:35.000Z</time><ele>418</ele></trkpt><trkpt lat="45.988913" lon="10.323184"><time>2025-04-28T10:40:36.000Z</time><ele>418</ele></trkpt><trkpt lat="45.988902" lon="10.323172"><time>2025-04-28T10:40:37.000Z</time><ele>418</ele></trkpt><trkpt lat="45.988893" lon="10.323161"><time>2025-04-28T10:40:38.000Z</time><ele>418.2</ele></trkpt><trkpt lat="45.988882" lon="10.323148"><time>2025-04-28T10:40:39.000Z</time><ele>418</ele></trkpt><trkpt lat="45.988873" lon="10.323138"><time>2025-04-28T10:40:40.000Z</time><ele>418</ele></trkpt><trkpt lat="45.988864" lon="10.323126"><time>2025-04-28T10:40:41.000Z</time><ele>418</ele></trkpt><trkpt lat="45.988854" lon="10.323117"><time>2025-04-28T10:40:42.000Z</time><ele>417.4</ele></trkpt><trkpt lat="45.988842" lon="10.323106"><time>2025-04-28T10:40:43.000Z</time><ele>417.2</ele></trkpt><trkpt lat="45.988833" lon="10.323093"><time>2025-04-28T10:40:44.000Z</time><ele>417.2</ele></trkpt><trkpt lat="45.988824" lon="10.323077"><time>2025-04-28T10:40:45.000Z</time><ele>417</ele></trkpt><trkpt lat="45.988816" lon="10.323064"><time>2025-04-28T10:40:46.000Z</time><ele>417</ele></trkpt><trkpt lat="45.988805" lon="10.323044"><time>2025-04-28T10:40:47.000Z</time><ele>416.8</ele></trkpt><trkpt lat="45.988799" lon="10.323031"><time>2025-04-28T10:40:48.000Z</time><ele>416.8</ele></trkpt><trkpt lat="45.988791" lon="10.323017"><time>2025-04-28T10:40:49.000Z</time><ele>416.8</ele></trkpt><trkpt lat="45.988782" lon="10.322998"><time>2025-04-28T10:40:50.000Z</time><ele>416.6</ele></trkpt><trkpt lat="45.988775" lon="10.322981"><time>2025-04-28T10:40:51.000Z</time><ele>416.4</ele></trkpt><trkpt lat="45.988766" lon="10.322965"><time>2025-04-28T10:40:52.000Z</time><ele>416.4</ele></trkpt><trkpt lat="45.988758" lon="10.322947"><time>2025-04-28T10:40:53.000Z</time><ele>416.4</ele></trkpt><trkpt lat="45.988746" lon="10.322931"><time>2025-04-28T10:40:54.000Z</time><ele>416.4</ele></trkpt><trkpt lat="45.98874" lon="10.32292"><time>2025-04-28T10:40:55.000Z</time><ele>416.4</ele></trkpt><trkpt lat="45.98873" lon="10.322903"><time>2025-04-28T10:40:56.000Z</time><ele>416.6</ele></trkpt><trkpt lat="45.988725" lon="10.322888"><time>2025-04-28T10:40:57.000Z</time><ele>416.8</ele></trkpt><trkpt lat="45.98872" lon="10.322877"><time>2025-04-28T10:40:58.000Z</time><ele>416.8</ele></trkpt><trkpt lat="45.988715" lon="10.322866"><time>2025-04-28T10:40:59.000Z</time><ele>416.8</ele></trkpt><trkpt lat="45.988711" lon="10.322858"><time>2025-04-28T10:41:00.000Z</time><ele>417</ele></trkpt><trkpt lat="45.98871" lon="10.322856"><time>2025-04-28T10:41:01.000Z</time><ele>417</ele></trkpt><trkpt lat="45.988709" lon="10.322852"><time>2025-04-28T10:41:02.000Z</time><ele>417</ele></trkpt><trkpt lat="45.988706" lon="10.322845"><time>2025-04-28T10:41:03.000Z</time><ele>416.8</ele></trkpt><trkpt lat="45.988699" lon="10.322836"><time>2025-04-28T10:41:04.000Z</time><ele>416.6</ele></trkpt><trkpt lat="45.98869" lon="10.322827"><time>2025-04-28T10:41:05.000Z</time><ele>416.2</ele></trkpt><trkpt lat="45.988681" lon="10.322818"><time>2025-04-28T10:41:06.000Z</time><ele>415.8</ele></trkpt><trkpt lat="45.98867" lon="10.322804"><time>2025-04-28T10:41:07.000Z</time><ele>415.6</ele></trkpt><trkpt lat="45.988659" lon="10.322793"><time>2025-04-28T10:41:08.000Z</time><ele>415.4</ele></trkpt><trkpt lat="45.988649" lon="10.322781"><time>2025-04-28T10:41:09.000Z</time><ele>415.4</ele></trkpt><trkpt lat="45.988638" lon="10.32277"><time>2025-04-28T10:41:10.000Z</time><ele>415.2</ele></trkpt><trkpt lat="45.988626" lon="10.322756"><time>2025-04-28T10:41:11.000Z</time><ele>415.2</ele></trkpt><trkpt lat="45.988617" lon="10.322747"><time>2025-04-28T10:41:12.000Z</time><ele>415.2</ele></trkpt><trkpt lat="45.988605" lon="10.322734"><time>2025-04-28T10:41:13.000Z</time><ele>415</ele></trkpt><trkpt lat="45.988596" lon="10.322722"><time>2025-04-28T10:41:14.000Z</time><ele>415</ele></trkpt><trkpt lat="45.988588" lon="10.322711"><time>2025-04-28T10:41:15.000Z</time><ele>415</ele></trkpt><trkpt lat="45.988582" lon="10.322698"><time>2025-04-28T10:41:16.000Z</time><ele>414.8</ele></trkpt><trkpt lat="45.988577" lon="10.322686"><time>2025-04-28T10:41:17.000Z</time><ele>414.8</ele></trkpt><trkpt lat="45.98857" lon="10.322674"><time>2025-04-28T10:41:18.000Z</time><ele>414.8</ele></trkpt><trkpt lat="45.988561" lon="10.322655"><time>2025-04-28T10:41:19.000Z</time><ele>414.8</ele></trkpt><trkpt lat="45.988555" lon="10.322642"><time>2025-04-28T10:41:20.000Z</time><ele>414.8</ele></trkpt><trkpt lat="45.988541" lon="10.322626"><time>2025-04-28T10:41:21.000Z</time><ele>414.8</ele></trkpt><trkpt lat="45.98853" lon="10.322606"><time>2025-04-28T10:41:22.000Z</time><ele>415</ele></trkpt><trkpt lat="45.988518" lon="10.322583"><time>2025-04-28T10:41:23.000Z</time><ele>415</ele></trkpt><trkpt lat="45.988507" lon="10.322568"><time>2025-04-28T10:41:24.000Z</time><ele>415</ele></trkpt><trkpt lat="45.988496" lon="10.322555"><time>2025-04-28T10:41:25.000Z</time><ele>414.8</ele></trkpt><trkpt lat="45.98849" lon="10.322547"><time>2025-04-28T10:41:26.000Z</time><ele>414.8</ele></trkpt><trkpt lat="45.988481" lon="10.322541"><time>2025-04-28T10:41:27.000Z</time><ele>414.8</ele></trkpt><trkpt lat="45.988473" lon="10.322536"><time>2025-04-28T10:41:28.000Z</time><ele>414.6</ele></trkpt><trkpt lat="45.988465" lon="10.322529"><time>2025-04-28T10:41:29.000Z</time><ele>414.4</ele></trkpt><trkpt lat="45.988458" lon="10.322519"><time>2025-04-28T10:41:30.000Z</time><ele>414.4</ele></trkpt><trkpt lat="45.988452" lon="10.322504"><time>2025-04-28T10:41:31.000Z</time><ele>414.4</ele></trkpt><trkpt lat="45.988442" lon="10.322487"><time>2025-04-28T10:41:32.000Z</time><ele>414.2</ele></trkpt><trkpt lat="45.988427" lon="10.322466"><time>2025-04-28T10:41:33.000Z</time><ele>414</ele></trkpt><trkpt lat="45.988417" lon="10.322446"><time>2025-04-28T10:41:34.000Z</time><ele>413.8</ele></trkpt><trkpt lat="45.988408" lon="10.322429"><time>2025-04-28T10:41:35.000Z</time><ele>413.6</ele></trkpt><trkpt lat="45.988403" lon="10.322417"><time>2025-04-28T10:41:36.000Z</time><ele>413.4</ele></trkpt><trkpt lat="45.988394" lon="10.322399"><time>2025-04-28T10:41:37.000Z</time><ele>413.4</ele></trkpt><trkpt lat="45.988384" lon="10.322389"><time>2025-04-28T10:41:38.000Z</time><ele>413.2</ele></trkpt><trkpt lat="45.988373" lon="10.322372"><time>2025-04-28T10:41:39.000Z</time><ele>413.2</ele></trkpt><trkpt lat="45.98836" lon="10.322355"><time>2025-04-28T10:41:40.000Z</time><ele>413.2</ele></trkpt><trkpt lat="45.988346" lon="10.32234"><time>2025-04-28T10:41:41.000Z</time><ele>413.2</ele></trkpt><trkpt lat="45.988338" lon="10.322327"><time>2025-04-28T10:41:42.000Z</time><ele>413.2</ele></trkpt><trkpt lat="45.988328" lon="10.322317"><time>2025-04-28T10:41:43.000Z</time><ele>413</ele></trkpt><trkpt lat="45.988317" lon="10.322301"><time>2025-04-28T10:41:44.000Z</time><ele>412.8</ele></trkpt><trkpt lat="45.988303" lon="10.32228"><time>2025-04-28T10:41:45.000Z</time><ele>412.8</ele></trkpt><trkpt lat="45.988292" lon="10.32226"><time>2025-04-28T10:41:46.000Z</time><ele>412.8</ele></trkpt><trkpt lat="45.988283" lon="10.322243"><time>2025-04-28T10:41:47.000Z</time><ele>412.8</ele></trkpt><trkpt lat="45.988274" lon="10.322225"><time>2025-04-28T10:41:48.000Z</time><ele>412.8</ele></trkpt><trkpt lat="45.988266" lon="10.322211"><time>2025-04-28T10:41:49.000Z</time><ele>412.8</ele></trkpt><trkpt lat="45.988261" lon="10.322197"><time>2025-04-28T10:41:50.000Z</time><ele>412.8</ele></trkpt><trkpt lat="45.988253" lon="10.322179"><time>2025-04-28T10:41:51.000Z</time><ele>412.8</ele></trkpt><trkpt lat="45.988243" lon="10.322157"><time>2025-04-28T10:41:52.000Z</time><ele>412.8</ele></trkpt><trkpt lat="45.988239" lon="10.322144"><time>2025-04-28T10:41:53.000Z</time><ele>412.6</ele></trkpt><trkpt lat="45.988228" lon="10.322123"><time>2025-04-28T10:41:54.000Z</time><ele>412.4</ele></trkpt><trkpt lat="45.988222" lon="10.322109"><time>2025-04-28T10:41:55.000Z</time><ele>412.2</ele></trkpt><trkpt lat="45.988215" lon="10.322092"><time>2025-04-28T10:41:56.000Z</time><ele>412</ele></trkpt><trkpt lat="45.98821" lon="10.322074"><time>2025-04-28T10:41:57.000Z</time><ele>411.8</ele></trkpt><trkpt lat="45.988206" lon="10.322055"><time>2025-04-28T10:41:58.000Z</time><ele>411.8</ele></trkpt><trkpt lat="45.988201" lon="10.322038"><time>2025-04-28T10:41:59.000Z</time><ele>411.6</ele></trkpt><trkpt lat="45.988197" lon="10.322017"><time>2025-04-28T10:42:00.000Z</time><ele>411.4</ele></trkpt><trkpt lat="45.988191" lon="10.321997"><time>2025-04-28T10:42:01.000Z</time><ele>411.2</ele></trkpt><trkpt lat="45.988192" lon="10.321985"><time>2025-04-28T10:42:02.000Z</time><ele>411.2</ele></trkpt><trkpt lat="45.988188" lon="10.321967"><time>2025-04-28T10:42:03.000Z</time><ele>411</ele></trkpt><trkpt lat="45.98819" lon="10.321957"><time>2025-04-28T10:42:04.000Z</time><ele>411</ele></trkpt><trkpt lat="45.988196" lon="10.321943"><time>2025-04-28T10:42:05.000Z</time><ele>410.8</ele></trkpt><trkpt lat="45.988181" lon="10.321927"><time>2025-04-28T10:42:06.000Z</time><ele>410.8</ele></trkpt><trkpt lat="45.988167" lon="10.321905"><time>2025-04-28T10:42:07.000Z</time><ele>410.8</ele></trkpt><trkpt lat="45.988159" lon="10.32188"><time>2025-04-28T10:42:08.000Z</time><ele>410.8</ele></trkpt><trkpt lat="45.988149" lon="10.321861"><time>2025-04-28T10:42:09.000Z</time><ele>410.8</ele></trkpt><trkpt lat="45.988138" lon="10.321839"><time>2025-04-28T10:42:10.000Z</time><ele>410.6</ele></trkpt><trkpt lat="45.98813" lon="10.321819"><time>2025-04-28T10:42:11.000Z</time><ele>410.6</ele></trkpt><trkpt lat="45.98812" lon="10.321798"><time>2025-04-28T10:42:12.000Z</time><ele>410.4</ele></trkpt><trkpt lat="45.988112" lon="10.321776"><time>2025-04-28T10:42:13.000Z</time><ele>410.4</ele></trkpt><trkpt lat="45.988101" lon="10.321753"><time>2025-04-28T10:42:14.000Z</time><ele>410.4</ele></trkpt><trkpt lat="45.98809" lon="10.32173"><time>2025-04-28T10:42:15.000Z</time><ele>410.2</ele></trkpt><trkpt lat="45.988076" lon="10.321704"><time>2025-04-28T10:42:16.000Z</time><ele>410.2</ele></trkpt><trkpt lat="45.98807" lon="10.321686"><time>2025-04-28T10:42:17.000Z</time><ele>410</ele></trkpt><trkpt lat="45.988063" lon="10.321674"><time>2025-04-28T10:42:18.000Z</time><ele>410</ele></trkpt><trkpt lat="45.988054" lon="10.321659"><time>2025-04-28T10:42:19.000Z</time><ele>409.6</ele></trkpt><trkpt lat="45.988048" lon="10.321642"><time>2025-04-28T10:42:20.000Z</time><ele>409.2</ele></trkpt><trkpt lat="45.988042" lon="10.321628"><time>2025-04-28T10:42:21.000Z</time><ele>409</ele></trkpt><trkpt lat="45.988035" lon="10.321609"><time>2025-04-28T10:42:22.000Z</time><ele>408.8</ele></trkpt><trkpt lat="45.988031" lon="10.321596"><time>2025-04-28T10:42:23.000Z</time><ele>408.8</ele></trkpt><trkpt lat="45.988024" lon="10.321576"><time>2025-04-28T10:42:24.000Z</time><ele>408.6</ele></trkpt><trkpt lat="45.988019" lon="10.32156"><time>2025-04-28T10:42:25.000Z</time><ele>408.6</ele></trkpt><trkpt lat="45.988016" lon="10.321543"><time>2025-04-28T10:42:26.000Z</time><ele>408.6</ele></trkpt><trkpt lat="45.98801" lon="10.321524"><time>2025-04-28T10:42:27.000Z</time><ele>408.6</ele></trkpt><trkpt lat="45.988004" lon="10.321505"><time>2025-04-28T10:42:28.000Z</time><ele>408.6</ele></trkpt><trkpt lat="45.987992" lon="10.321484"><time>2025-04-28T10:42:29.000Z</time><ele>408.4</ele></trkpt><trkpt lat="45.987984" lon="10.321464"><time>2025-04-28T10:42:30.000Z</time><ele>408.4</ele></trkpt><trkpt lat="45.987977" lon="10.321445"><time>2025-04-28T10:42:31.000Z</time><ele>408.4</ele></trkpt><trkpt lat="45.987976" lon="10.321426"><time>2025-04-28T10:42:32.000Z</time><ele>408.2</ele></trkpt><trkpt lat="45.987973" lon="10.32141"><time>2025-04-28T10:42:33.000Z</time><ele>408.2</ele></trkpt><trkpt lat="45.98797" lon="10.321399"><time>2025-04-28T10:42:34.000Z</time><ele>408</ele></trkpt><trkpt lat="45.987967" lon="10.321388"><time>2025-04-28T10:42:35.000Z</time><ele>408</ele></trkpt><trkpt lat="45.987965" lon="10.321372"><time>2025-04-28T10:42:36.000Z</time><ele>408</ele></trkpt><trkpt lat="45.98796" lon="10.321357"><time>2025-04-28T10:42:37.000Z</time><ele>408</ele></trkpt><trkpt lat="45.987954" lon="10.321337"><time>2025-04-28T10:42:38.000Z</time><ele>407.8</ele></trkpt><trkpt lat="45.987948" lon="10.321319"><time>2025-04-28T10:42:39.000Z</time><ele>408</ele></trkpt><trkpt lat="45.987947" lon="10.321305"><time>2025-04-28T10:42:40.000Z</time><ele>408</ele></trkpt><trkpt lat="45.987945" lon="10.321288"><time>2025-04-28T10:42:41.000Z</time><ele>408</ele></trkpt><trkpt lat="45.987942" lon="10.321271"><time>2025-04-28T10:42:42.000Z</time><ele>407.8</ele></trkpt><trkpt lat="45.987937" lon="10.321251"><time>2025-04-28T10:42:43.000Z</time><ele>407.8</ele></trkpt><trkpt lat="45.987935" lon="10.321237"><time>2025-04-28T10:42:44.000Z</time><ele>407.8</ele></trkpt><trkpt lat="45.987929" lon="10.32122"><time>2025-04-28T10:42:45.000Z</time><ele>407.8</ele></trkpt><trkpt lat="45.987917" lon="10.321193"><time>2025-04-28T10:42:46.000Z</time><ele>407.8</ele></trkpt><trkpt lat="45.987912" lon="10.321171"><time>2025-04-28T10:42:47.000Z</time><ele>407.6</ele></trkpt><trkpt lat="45.987909" lon="10.32115"><time>2025-04-28T10:42:48.000Z</time><ele>407.6</ele></trkpt><trkpt lat="45.987909" lon="10.321131"><time>2025-04-28T10:42:49.000Z</time><ele>407.6</ele></trkpt><trkpt lat="45.987904" lon="10.321111"><time>2025-04-28T10:42:50.000Z</time><ele>407.6</ele></trkpt><trkpt lat="45.987894" lon="10.321092"><time>2025-04-28T10:42:51.000Z</time><ele>407.6</ele></trkpt><trkpt lat="45.987883" lon="10.321076"><time>2025-04-28T10:42:52.000Z</time><ele>407.6</ele></trkpt><trkpt lat="45.987877" lon="10.321058"><time>2025-04-28T10:42:53.000Z</time><ele>407.4</ele></trkpt><trkpt lat="45.987872" lon="10.321033"><time>2025-04-28T10:42:54.000Z</time><ele>407.6</ele></trkpt><trkpt lat="45.987866" lon="10.321005"><time>2025-04-28T10:42:55.000Z</time><ele>407.4</ele></trkpt><trkpt lat="45.987864" lon="10.320987"><time>2025-04-28T10:42:56.000Z</time><ele>407.4</ele></trkpt><trkpt lat="45.987859" lon="10.32097"><time>2025-04-28T10:42:57.000Z</time><ele>407.6</ele></trkpt><trkpt lat="45.987853" lon="10.320959"><time>2025-04-28T10:42:58.000Z</time><ele>407.8</ele></trkpt><trkpt lat="45.987848" lon="10.320946"><time>2025-04-28T10:42:59.000Z</time><ele>408</ele></trkpt><trkpt lat="45.987848" lon="10.320931"><time>2025-04-28T10:43:00.000Z</time><ele>408</ele></trkpt><trkpt lat="45.987846" lon="10.320908"><time>2025-04-28T10:43:01.000Z</time><ele>408</ele></trkpt><trkpt lat="45.98784" lon="10.320886"><time>2025-04-28T10:43:02.000Z</time><ele>408.2</ele></trkpt><trkpt lat="45.987836" lon="10.320865"><time>2025-04-28T10:43:03.000Z</time><ele>408.2</ele></trkpt><trkpt lat="45.987836" lon="10.320846"><time>2025-04-28T10:43:04.000Z</time><ele>408</ele></trkpt><trkpt lat="45.987835" lon="10.320828"><time>2025-04-28T10:43:05.000Z</time><ele>407.8</ele></trkpt><trkpt lat="45.987834" lon="10.320814"><time>2025-04-28T10:43:06.000Z</time><ele>407.6</ele></trkpt><trkpt lat="45.987832" lon="10.320793"><time>2025-04-28T10:43:07.000Z</time><ele>407.4</ele></trkpt><trkpt lat="45.987828" lon="10.320773"><time>2025-04-28T10:43:08.000Z</time><ele>407.4</ele></trkpt><trkpt lat="45.987823" lon="10.320751"><time>2025-04-28T10:43:09.000Z</time><ele>407.6</ele></trkpt><trkpt lat="45.987819" lon="10.320734"><time>2025-04-28T10:43:10.000Z</time><ele>407.6</ele></trkpt><trkpt lat="45.987814" lon="10.32071"><time>2025-04-28T10:43:11.000Z</time><ele>407.6</ele></trkpt><trkpt lat="45.98781" lon="10.320686"><time>2025-04-28T10:43:12.000Z</time><ele>407.6</ele></trkpt><trkpt lat="45.987807" lon="10.320662"><time>2025-04-28T10:43:13.000Z</time><ele>407.8</ele></trkpt><trkpt lat="45.987801" lon="10.320637"><time>2025-04-28T10:43:14.000Z</time><ele>407.8</ele></trkpt><trkpt lat="45.987793" lon="10.320616"><time>2025-04-28T10:43:15.000Z</time><ele>407.8</ele></trkpt><trkpt lat="45.987786" lon="10.320598"><time>2025-04-28T10:43:16.000Z</time><ele>407.8</ele></trkpt><trkpt lat="45.987781" lon="10.320582"><time>2025-04-28T10:43:17.000Z</time><ele>408</ele></trkpt><trkpt lat="45.987778" lon="10.320566"><time>2025-04-28T10:43:18.000Z</time><ele>408</ele></trkpt><trkpt lat="45.987775" lon="10.320546"><time>2025-04-28T10:43:19.000Z</time><ele>408</ele></trkpt><trkpt lat="45.987769" lon="10.320526"><time>2025-04-28T10:43:20.000Z</time><ele>408</ele></trkpt><trkpt lat="45.98776" lon="10.320505"><time>2025-04-28T10:43:21.000Z</time><ele>408</ele></trkpt><trkpt lat="45.987754" lon="10.320484"><time>2025-04-28T10:43:22.000Z</time><ele>408</ele></trkpt><trkpt lat="45.987749" lon="10.320465"><time>2025-04-28T10:43:23.000Z</time><ele>408</ele></trkpt><trkpt lat="45.987746" lon="10.320445"><time>2025-04-28T10:43:24.000Z</time><ele>408</ele></trkpt><trkpt lat="45.987742" lon="10.320423"><time>2025-04-28T10:43:25.000Z</time><ele>408</ele></trkpt><trkpt lat="45.987741" lon="10.320402"><time>2025-04-28T10:43:26.000Z</time><ele>408</ele></trkpt><trkpt lat="45.987736" lon="10.320379"><time>2025-04-28T10:43:27.000Z</time><ele>408</ele></trkpt><trkpt lat="45.987729" lon="10.320358"><time>2025-04-28T10:43:28.000Z</time><ele>407.8</ele></trkpt><trkpt lat="45.987725" lon="10.320336"><time>2025-04-28T10:43:29.000Z</time><ele>407.8</ele></trkpt><trkpt lat="45.987719" lon="10.320319"><time>2025-04-28T10:43:30.000Z</time><ele>407.4</ele></trkpt><trkpt lat="45.987714" lon="10.320303"><time>2025-04-28T10:43:31.000Z</time><ele>407.2</ele></trkpt><trkpt lat="45.987707" lon="10.320285"><time>2025-04-28T10:43:32.000Z</time><ele>407.2</ele></trkpt><trkpt lat="45.9877" lon="10.320266"><time>2025-04-28T10:43:33.000Z</time><ele>407</ele></trkpt><trkpt lat="45.987694" lon="10.320245"><time>2025-04-28T10:43:34.000Z</time><ele>406.8</ele></trkpt><trkpt lat="45.987687" lon="10.320223"><time>2025-04-28T10:43:35.000Z</time><ele>406.8</ele></trkpt><trkpt lat="45.987678" lon="10.320204"><time>2025-04-28T10:43:36.000Z</time><ele>406.4</ele></trkpt><trkpt lat="45.987671" lon="10.320187"><time>2025-04-28T10:43:37.000Z</time><ele>406</ele></trkpt><trkpt lat="45.987666" lon="10.320171"><time>2025-04-28T10:43:38.000Z</time><ele>405.8</ele></trkpt><trkpt lat="45.987659" lon="10.320153"><time>2025-04-28T10:43:39.000Z</time><ele>405.6</ele></trkpt><trkpt lat="45.987649" lon="10.320132"><time>2025-04-28T10:43:40.000Z</time><ele>405.6</ele></trkpt><trkpt lat="45.98764" lon="10.320114"><time>2025-04-28T10:43:41.000Z</time><ele>405.6</ele></trkpt><trkpt lat="45.987637" lon="10.320093"><time>2025-04-28T10:43:42.000Z</time><ele>405.6</ele></trkpt><trkpt lat="45.987633" lon="10.320077"><time>2025-04-28T10:43:43.000Z</time><ele>405.6</ele></trkpt><trkpt lat="45.987626" lon="10.320065"><time>2025-04-28T10:43:44.000Z</time><ele>405.6</ele></trkpt><trkpt lat="45.987615" lon="10.320046"><time>2025-04-28T10:43:45.000Z</time><ele>405.6</ele></trkpt><trkpt lat="45.987605" lon="10.320026"><time>2025-04-28T10:43:46.000Z</time><ele>405.4</ele></trkpt><trkpt lat="45.987594" lon="10.320002"><time>2025-04-28T10:43:47.000Z</time><ele>405.4</ele></trkpt><trkpt lat="45.98759" lon="10.319985"><time>2025-04-28T10:43:48.000Z</time><ele>405.2</ele></trkpt><trkpt lat="45.987586" lon="10.319973"><time>2025-04-28T10:43:49.000Z</time><ele>405.2</ele></trkpt><trkpt lat="45.98758" lon="10.319953"><time>2025-04-28T10:43:50.000Z</time><ele>405</ele></trkpt><trkpt lat="45.987578" lon="10.319948"><time>2025-04-28T10:43:51.000Z</time><ele>405</ele></trkpt><trkpt lat="45.987575" lon="10.319938"><time>2025-04-28T10:43:52.000Z</time><ele>405</ele></trkpt><trkpt lat="45.987568" lon="10.319925"><time>2025-04-28T10:43:53.000Z</time><ele>404.8</ele></trkpt><trkpt lat="45.987557" lon="10.319912"><time>2025-04-28T10:43:54.000Z</time><ele>404.8</ele></trkpt><trkpt lat="45.987542" lon="10.319905"><time>2025-04-28T10:43:55.000Z</time><ele>404.6</ele></trkpt><trkpt lat="45.987529" lon="10.319904"><time>2025-04-28T10:43:56.000Z</time><ele>404.6</ele></trkpt><trkpt lat="45.987515" lon="10.319894"><time>2025-04-28T10:43:57.000Z</time><ele>404.4</ele></trkpt><trkpt lat="45.987504" lon="10.319878"><time>2025-04-28T10:43:58.000Z</time><ele>404.4</ele></trkpt><trkpt lat="45.98749" lon="10.319857"><time>2025-04-28T10:43:59.000Z</time><ele>404.4</ele></trkpt><trkpt lat="45.987478" lon="10.319832"><time>2025-04-28T10:44:00.000Z</time><ele>404.4</ele></trkpt><trkpt lat="45.987466" lon="10.319806"><time>2025-04-28T10:44:01.000Z</time><ele>404.4</ele></trkpt><trkpt lat="45.987458" lon="10.319783"><time>2025-04-28T10:44:02.000Z</time><ele>404.4</ele></trkpt><trkpt lat="45.987456" lon="10.319772"><time>2025-04-28T10:44:03.000Z</time><ele>404.6</ele></trkpt><trkpt lat="45.987453" lon="10.319765"><time>2025-04-28T10:44:04.000Z</time><ele>404.6</ele></trkpt><trkpt lat="45.987445" lon="10.319759"><time>2025-04-28T10:44:05.000Z</time><ele>404.6</ele></trkpt><trkpt lat="45.987436" lon="10.319749"><time>2025-04-28T10:44:06.000Z</time><ele>404.4</ele></trkpt><trkpt lat="45.987431" lon="10.31974"><time>2025-04-28T10:44:07.000Z</time><ele>404.4</ele></trkpt><trkpt lat="45.987418" lon="10.319723"><time>2025-04-28T10:44:08.000Z</time><ele>404.4</ele></trkpt><trkpt lat="45.987409" lon="10.319707"><time>2025-04-28T10:44:09.000Z</time><ele>404.2</ele></trkpt><trkpt lat="45.987401" lon="10.319698"><time>2025-04-28T10:44:10.000Z</time><ele>404</ele></trkpt><trkpt lat="45.987388" lon="10.319693"><time>2025-04-28T10:44:11.000Z</time><ele>404</ele></trkpt><trkpt lat="45.987379" lon="10.319683"><time>2025-04-28T10:44:12.000Z</time><ele>404</ele></trkpt><trkpt lat="45.987371" lon="10.319666"><time>2025-04-28T10:44:13.000Z</time><ele>404</ele></trkpt><trkpt lat="45.987357" lon="10.319651"><time>2025-04-28T10:44:14.000Z</time><ele>404</ele></trkpt><trkpt lat="45.987346" lon="10.319635"><time>2025-04-28T10:44:15.000Z</time><ele>404</ele></trkpt><trkpt lat="45.987336" lon="10.319619"><time>2025-04-28T10:44:16.000Z</time><ele>404</ele></trkpt><trkpt lat="45.987327" lon="10.319602"><time>2025-04-28T10:44:17.000Z</time><ele>404.2</ele></trkpt><trkpt lat="45.987323" lon="10.319599"><time>2025-04-28T10:44:18.000Z</time><ele>404.2</ele></trkpt><trkpt lat="45.987309" lon="10.319572"><time>2025-04-28T10:44:19.000Z</time><ele>404</ele></trkpt><trkpt lat="45.987301" lon="10.319554"><time>2025-04-28T10:44:20.000Z</time><ele>404</ele></trkpt><trkpt lat="45.987291" lon="10.319534"><time>2025-04-28T10:44:21.000Z</time><ele>404</ele></trkpt><trkpt lat="45.987271" lon="10.319518"><time>2025-04-28T10:44:22.000Z</time><ele>404</ele></trkpt><trkpt lat="45.98726" lon="10.31951"><time>2025-04-28T10:44:23.000Z</time><ele>404</ele></trkpt><trkpt lat="45.987249" lon="10.319488"><time>2025-04-28T10:44:24.000Z</time><ele>404.2</ele></trkpt><trkpt lat="45.98724" lon="10.319457"><time>2025-04-28T10:44:25.000Z</time><ele>404.2</ele></trkpt><trkpt lat="45.987229" lon="10.319435"><time>2025-04-28T10:44:26.000Z</time><ele>404.2</ele></trkpt><trkpt lat="45.987205" lon="10.319412"><time>2025-04-28T10:44:27.000Z</time><ele>404.2</ele></trkpt><trkpt lat="45.987183" lon="10.319387"><time>2025-04-28T10:44:28.000Z</time><ele>404</ele></trkpt><trkpt lat="45.987168" lon="10.319363"><time>2025-04-28T10:44:29.000Z</time><ele>404.2</ele></trkpt><trkpt lat="45.987162" lon="10.319338"><time>2025-04-28T10:44:30.000Z</time><ele>404.2</ele></trkpt><trkpt lat="45.987157" lon="10.319318"><time>2025-04-28T10:44:31.000Z</time><ele>404.2</ele></trkpt><trkpt lat="45.987152" lon="10.319304"><time>2025-04-28T10:44:32.000Z</time><ele>404.2</ele></trkpt><trkpt lat="45.987145" lon="10.319287"><time>2025-04-28T10:44:33.000Z</time><ele>404.2</ele></trkpt><trkpt lat="45.987136" lon="10.319274"><time>2025-04-28T10:44:34.000Z</time><ele>404</ele></trkpt><trkpt lat="45.987127" lon="10.319262"><time>2025-04-28T10:44:35.000Z</time><ele>404.2</ele></trkpt><trkpt lat="45.987117" lon="10.319246"><time>2025-04-28T10:44:36.000Z</time><ele>404.2</ele></trkpt><trkpt lat="45.98711" lon="10.319239"><time>2025-04-28T10:44:37.000Z</time><ele>404.2</ele></trkpt><trkpt lat="45.987101" lon="10.319223"><time>2025-04-28T10:44:38.000Z</time><ele>404.2</ele></trkpt><trkpt lat="45.98709" lon="10.319207"><time>2025-04-28T10:44:39.000Z</time><ele>404.4</ele></trkpt><trkpt lat="45.987087" lon="10.319193"><time>2025-04-28T10:44:40.000Z</time><ele>404.6</ele></trkpt><trkpt lat="45.987084" lon="10.319171"><time>2025-04-28T10:44:41.000Z</time><ele>404.6</ele></trkpt><trkpt lat="45.987071" lon="10.319152"><time>2025-04-28T10:44:42.000Z</time><ele>404.6</ele></trkpt><trkpt lat="45.987071" lon="10.319121"><time>2025-04-28T10:44:43.000Z</time><ele>404.6</ele></trkpt><trkpt lat="45.987062" lon="10.319093"><time>2025-04-28T10:44:44.000Z</time><ele>404.6</ele></trkpt><trkpt lat="45.987055" lon="10.319078"><time>2025-04-28T10:44:45.000Z</time><ele>404.6</ele></trkpt><trkpt lat="45.987045" lon="10.319069"><time>2025-04-28T10:44:46.000Z</time><ele>404.6</ele></trkpt><trkpt lat="45.987039" lon="10.319068"><time>2025-04-28T10:44:47.000Z</time><ele>404.6</ele></trkpt><trkpt lat="45.98703" lon="10.319068"><time>2025-04-28T10:44:48.000Z</time><ele>404.6</ele></trkpt><trkpt lat="45.987026" lon="10.319082"><time>2025-04-28T10:44:49.000Z</time><ele>404.6</ele></trkpt><trkpt lat="45.987022" lon="10.319075"><time>2025-04-28T10:44:50.000Z</time><ele>404.6</ele></trkpt><trkpt lat="45.98702" lon="10.319063"><time>2025-04-28T10:44:51.000Z</time><ele>404.6</ele></trkpt><trkpt lat="45.98701" lon="10.319044"><time>2025-04-28T10:44:52.000Z</time><ele>404.8</ele></trkpt><trkpt lat="45.987001" lon="10.31903"><time>2025-04-28T10:44:53.000Z</time><ele>405</ele></trkpt><trkpt lat="45.986993" lon="10.319015"><time>2025-04-28T10:44:54.000Z</time><ele>405</ele></trkpt><trkpt lat="45.98699" lon="10.319003"><time>2025-04-28T10:44:55.000Z</time><ele>405.2</ele></trkpt><trkpt lat="45.986985" lon="10.318989"><time>2025-04-28T10:44:56.000Z</time><ele>405.4</ele></trkpt><trkpt lat="45.986984" lon="10.318988"><time>2025-04-28T10:44:57.000Z</time><ele>405.6</ele></trkpt><trkpt lat="45.986984" lon="10.318987"><time>2025-04-28T10:44:58.000Z</time><ele>405.6</ele></trkpt><trkpt lat="45.986985" lon="10.318985"><time>2025-04-28T10:44:59.000Z</time><ele>405.4</ele></trkpt><trkpt lat="45.986985" lon="10.31898"><time>2025-04-28T10:45:00.000Z</time><ele>405.4</ele></trkpt><trkpt lat="45.986979" lon="10.318965"><time>2025-04-28T10:45:01.000Z</time><ele>405.2</ele></trkpt><trkpt lat="45.986974" lon="10.318953"><time>2025-04-28T10:45:02.000Z</time><ele>405</ele></trkpt><trkpt lat="45.986969" lon="10.318943"><time>2025-04-28T10:45:03.000Z</time><ele>404.8</ele></trkpt><trkpt lat="45.98696" lon="10.318931"><time>2025-04-28T10:45:04.000Z</time><ele>404.6</ele></trkpt><trkpt lat="45.986954" lon="10.318921"><time>2025-04-28T10:45:05.000Z</time><ele>404.4</ele></trkpt><trkpt lat="45.986945" lon="10.318906"><time>2025-04-28T10:45:06.000Z</time><ele>404.4</ele></trkpt><trkpt lat="45.98693" lon="10.318889"><time>2025-04-28T10:45:07.000Z</time><ele>404.4</ele></trkpt><trkpt lat="45.986925" lon="10.318881"><time>2025-04-28T10:45:08.000Z</time><ele>404.4</ele></trkpt><trkpt lat="45.986917" lon="10.318868"><time>2025-04-28T10:45:09.000Z</time><ele>404.6</ele></trkpt><trkpt lat="45.986916" lon="10.318868"><time>2025-04-28T10:45:10.000Z</time><ele>404.6</ele></trkpt><trkpt lat="45.986913" lon="10.318863"><time>2025-04-28T10:45:11.000Z</time><ele>404.8</ele></trkpt><trkpt lat="45.98691" lon="10.318861"><time>2025-04-28T10:45:12.000Z</time><ele>405.2</ele></trkpt><trkpt lat="45.986909" lon="10.318856"><time>2025-04-28T10:45:13.000Z</time><ele>405.4</ele></trkpt><trkpt lat="45.986906" lon="10.318853"><time>2025-04-28T10:45:14.000Z</time><ele>405.4</ele></trkpt><trkpt lat="45.986901" lon="10.318851"><time>2025-04-28T10:45:15.000Z</time><ele>405.4</ele></trkpt><trkpt lat="45.986891" lon="10.318849"><time>2025-04-28T10:45:16.000Z</time><ele>405.4</ele></trkpt><trkpt lat="45.986878" lon="10.318843"><time>2025-04-28T10:45:17.000Z</time><ele>405.4</ele></trkpt><trkpt lat="45.986869" lon="10.318826"><time>2025-04-28T10:45:18.000Z</time><ele>405.2</ele></trkpt><trkpt lat="45.986858" lon="10.318805"><time>2025-04-28T10:45:19.000Z</time><ele>405</ele></trkpt><trkpt lat="45.986849" lon="10.318787"><time>2025-04-28T10:45:20.000Z</time><ele>405</ele></trkpt><trkpt lat="45.986842" lon="10.318769"><time>2025-04-28T10:45:21.000Z</time><ele>405</ele></trkpt><trkpt lat="45.986832" lon="10.318751"><time>2025-04-28T10:45:22.000Z</time><ele>405</ele></trkpt><trkpt lat="45.986822" lon="10.318738"><time>2025-04-28T10:45:23.000Z</time><ele>405.2</ele></trkpt><trkpt lat="45.986811" lon="10.318727"><time>2025-04-28T10:45:24.000Z</time><ele>405.4</ele></trkpt><trkpt lat="45.986799" lon="10.318713"><time>2025-04-28T10:45:25.000Z</time><ele>405.6</ele></trkpt><trkpt lat="45.986787" lon="10.3187"><time>2025-04-28T10:45:26.000Z</time><ele>405.6</ele></trkpt><trkpt lat="45.986779" lon="10.318687"><time>2025-04-28T10:45:27.000Z</time><ele>405.6</ele></trkpt><trkpt lat="45.98677" lon="10.318669"><time>2025-04-28T10:45:28.000Z</time><ele>405.6</ele></trkpt><trkpt lat="45.986755" lon="10.318654"><time>2025-04-28T10:45:29.000Z</time><ele>405.6</ele></trkpt><trkpt lat="45.986738" lon="10.318641"><time>2025-04-28T10:45:30.000Z</time><ele>405.4</ele></trkpt><trkpt lat="45.986723" lon="10.318628"><time>2025-04-28T10:45:31.000Z</time><ele>405.2</ele></trkpt><trkpt lat="45.986709" lon="10.318615"><time>2025-04-28T10:45:32.000Z</time><ele>405</ele></trkpt><trkpt lat="45.9867" lon="10.318607"><time>2025-04-28T10:45:33.000Z</time><ele>404.8</ele></trkpt><trkpt lat="45.986692" lon="10.318603"><time>2025-04-28T10:45:34.000Z</time><ele>404.4</ele></trkpt><trkpt lat="45.986679" lon="10.318603"><time>2025-04-28T10:45:35.000Z</time><ele>404.4</ele></trkpt><trkpt lat="45.986667" lon="10.318595"><time>2025-04-28T10:45:36.000Z</time><ele>404.2</ele></trkpt><trkpt lat="45.986655" lon="10.318582"><time>2025-04-28T10:45:37.000Z</time><ele>404.4</ele></trkpt><trkpt lat="45.986641" lon="10.318569"><time>2025-04-28T10:45:38.000Z</time><ele>404.4</ele></trkpt><trkpt lat="45.986632" lon="10.318561"><time>2025-04-28T10:45:39.000Z</time><ele>404.4</ele></trkpt><trkpt lat="45.98662" lon="10.318541"><time>2025-04-28T10:45:40.000Z</time><ele>404.4</ele></trkpt><trkpt lat="45.986611" lon="10.318525"><time>2025-04-28T10:45:41.000Z</time><ele>404.4</ele></trkpt><trkpt lat="45.986602" lon="10.318509"><time>2025-04-28T10:45:42.000Z</time><ele>404.2</ele></trkpt><trkpt lat="45.986593" lon="10.318491"><time>2025-04-28T10:45:43.000Z</time><ele>404.2</ele></trkpt><trkpt lat="45.986584" lon="10.318478"><time>2025-04-28T10:45:44.000Z</time><ele>404.2</ele></trkpt><trkpt lat="45.986575" lon="10.318465"><time>2025-04-28T10:45:45.000Z</time><ele>404</ele></trkpt><trkpt lat="45.98656" lon="10.318437"><time>2025-04-28T10:45:46.000Z</time><ele>404</ele></trkpt><trkpt lat="45.986548" lon="10.318416"><time>2025-04-28T10:45:47.000Z</time><ele>404</ele></trkpt><trkpt lat="45.986538" lon="10.3184"><time>2025-04-28T10:45:48.000Z</time><ele>404</ele></trkpt><trkpt lat="45.986528" lon="10.318385"><time>2025-04-28T10:45:49.000Z</time><ele>404</ele></trkpt><trkpt lat="45.986523" lon="10.318369"><time>2025-04-28T10:45:50.000Z</time><ele>404.2</ele></trkpt><trkpt lat="45.986522" lon="10.318351"><time>2025-04-28T10:45:51.000Z</time><ele>404.2</ele></trkpt><trkpt lat="45.986518" lon="10.318337"><time>2025-04-28T10:45:52.000Z</time><ele>404.2</ele></trkpt><trkpt lat="45.9865" lon="10.318323"><time>2025-04-28T10:45:53.000Z</time><ele>404.2</ele></trkpt><trkpt lat="45.986484" lon="10.318317"><time>2025-04-28T10:45:54.000Z</time><ele>404</ele></trkpt><trkpt lat="45.986472" lon="10.318306"><time>2025-04-28T10:45:55.000Z</time><ele>403.6</ele></trkpt><trkpt lat="45.986463" lon="10.31829"><time>2025-04-28T10:45:56.000Z</time><ele>403.4</ele></trkpt><trkpt lat="45.98645" lon="10.318279"><time>2025-04-28T10:45:57.000Z</time><ele>403.4</ele></trkpt><trkpt lat="45.986436" lon="10.318267"><time>2025-04-28T10:45:58.000Z</time><ele>403.2</ele></trkpt><trkpt lat="45.986424" lon="10.318255"><time>2025-04-28T10:45:59.000Z</time><ele>403</ele></trkpt><trkpt lat="45.986415" lon="10.318239"><time>2025-04-28T10:46:00.000Z</time><ele>403</ele></trkpt><trkpt lat="45.986408" lon="10.318223"><time>2025-04-28T10:46:01.000Z</time><ele>403</ele></trkpt><trkpt lat="45.986399" lon="10.318209"><time>2025-04-28T10:46:02.000Z</time><ele>403</ele></trkpt><trkpt lat="45.986387" lon="10.318197"><time>2025-04-28T10:46:03.000Z</time><ele>403</ele></trkpt><trkpt lat="45.986375" lon="10.318178"><time>2025-04-28T10:46:04.000Z</time><ele>403</ele></trkpt><trkpt lat="45.986364" lon="10.318161"><time>2025-04-28T10:46:05.000Z</time><ele>403</ele></trkpt><trkpt lat="45.986347" lon="10.318144"><time>2025-04-28T10:46:06.000Z</time><ele>403</ele></trkpt><trkpt lat="45.986325" lon="10.318131"><time>2025-04-28T10:46:07.000Z</time><ele>403.2</ele></trkpt><trkpt lat="45.986311" lon="10.318115"><time>2025-04-28T10:46:08.000Z</time><ele>403.4</ele></trkpt><trkpt lat="45.986299" lon="10.318101"><time>2025-04-28T10:46:09.000Z</time><ele>403.4</ele></trkpt><trkpt lat="45.986288" lon="10.318089"><time>2025-04-28T10:46:10.000Z</time><ele>403.2</ele></trkpt><trkpt lat="45.986278" lon="10.318074"><time>2025-04-28T10:46:11.000Z</time><ele>403</ele></trkpt><trkpt lat="45.986274" lon="10.318067"><time>2025-04-28T10:46:12.000Z</time><ele>403</ele></trkpt><trkpt lat="45.98627" lon="10.318058"><time>2025-04-28T10:46:13.000Z</time><ele>403</ele></trkpt><trkpt lat="45.986271" lon="10.318045"><time>2025-04-28T10:46:14.000Z</time><ele>402.8</ele></trkpt><trkpt lat="45.986261" lon="10.318028"><time>2025-04-28T10:46:15.000Z</time><ele>402.8</ele></trkpt><trkpt lat="45.986247" lon="10.318012"><time>2025-04-28T10:46:16.000Z</time><ele>402.8</ele></trkpt><trkpt lat="45.986232" lon="10.317998"><time>2025-04-28T10:46:17.000Z</time><ele>402.8</ele></trkpt><trkpt lat="45.986222" lon="10.317991"><time>2025-04-28T10:46:18.000Z</time><ele>402.8</ele></trkpt><trkpt lat="45.986205" lon="10.317978"><time>2025-04-28T10:46:19.000Z</time><ele>402.8</ele></trkpt><trkpt lat="45.986192" lon="10.317965"><time>2025-04-28T10:46:20.000Z</time><ele>402.8</ele></trkpt><trkpt lat="45.986176" lon="10.317954"><time>2025-04-28T10:46:21.000Z</time><ele>402.8</ele></trkpt><trkpt lat="45.986159" lon="10.317939"><time>2025-04-28T10:46:22.000Z</time><ele>402.6</ele></trkpt><trkpt lat="45.986142" lon="10.317924"><time>2025-04-28T10:46:23.000Z</time><ele>402.6</ele></trkpt><trkpt lat="45.986124" lon="10.317908"><time>2025-04-28T10:46:24.000Z</time><ele>402.6</ele></trkpt><trkpt lat="45.986112" lon="10.317893"><time>2025-04-28T10:46:25.000Z</time><ele>402.6</ele></trkpt><trkpt lat="45.986098" lon="10.317885"><time>2025-04-28T10:46:26.000Z</time><ele>402.6</ele></trkpt><trkpt lat="45.986088" lon="10.317878"><time>2025-04-28T10:46:27.000Z</time><ele>402.6</ele></trkpt><trkpt lat="45.986081" lon="10.31787"><time>2025-04-28T10:46:28.000Z</time><ele>402.8</ele></trkpt><trkpt lat="45.986072" lon="10.317859"><time>2025-04-28T10:46:29.000Z</time><ele>403</ele></trkpt><trkpt lat="45.986062" lon="10.317845"><time>2025-04-28T10:46:30.000Z</time><ele>403</ele></trkpt><trkpt lat="45.986051" lon="10.317829"><time>2025-04-28T10:46:31.000Z</time><ele>403</ele></trkpt><trkpt lat="45.986038" lon="10.317818"><time>2025-04-28T10:46:32.000Z</time><ele>403</ele></trkpt><trkpt lat="45.986032" lon="10.317802"><time>2025-04-28T10:46:33.000Z</time><ele>403</ele></trkpt><trkpt lat="45.98602" lon="10.317787"><time>2025-04-28T10:46:34.000Z</time><ele>403</ele></trkpt><trkpt lat="45.986004" lon="10.317773"><time>2025-04-28T10:46:35.000Z</time><ele>403</ele></trkpt><trkpt lat="45.985991" lon="10.317764"><time>2025-04-28T10:46:36.000Z</time><ele>403</ele></trkpt><trkpt lat="45.985976" lon="10.317766"><time>2025-04-28T10:46:37.000Z</time><ele>403.4</ele></trkpt><trkpt lat="45.985964" lon="10.317759"><time>2025-04-28T10:46:38.000Z</time><ele>403.6</ele></trkpt><trkpt lat="45.985954" lon="10.317753"><time>2025-04-28T10:46:39.000Z</time><ele>403.6</ele></trkpt><trkpt lat="45.985943" lon="10.317751"><time>2025-04-28T10:46:40.000Z</time><ele>403.8</ele></trkpt><trkpt lat="45.985935" lon="10.317745"><time>2025-04-28T10:46:41.000Z</time><ele>403.8</ele></trkpt><trkpt lat="45.985925" lon="10.317734"><time>2025-04-28T10:46:42.000Z</time><ele>403.6</ele></trkpt><trkpt lat="45.98592" lon="10.317724"><time>2025-04-28T10:46:43.000Z</time><ele>403.8</ele></trkpt><trkpt lat="45.985916" lon="10.317714"><time>2025-04-28T10:46:44.000Z</time><ele>403.8</ele></trkpt><trkpt lat="45.985909" lon="10.317706"><time>2025-04-28T10:46:45.000Z</time><ele>403.8</ele></trkpt><trkpt lat="45.985903" lon="10.317703"><time>2025-04-28T10:46:46.000Z</time><ele>404</ele></trkpt><trkpt lat="45.985894" lon="10.317708"><time>2025-04-28T10:46:47.000Z</time><ele>404.2</ele></trkpt><trkpt lat="45.985882" lon="10.317709"><time>2025-04-28T10:46:48.000Z</time><ele>404.4</ele></trkpt><trkpt lat="45.985874" lon="10.317698"><time>2025-04-28T10:46:49.000Z</time><ele>404.4</ele></trkpt><trkpt lat="45.985869" lon="10.31768"><time>2025-04-28T10:46:50.000Z</time><ele>404.6</ele></trkpt><trkpt lat="45.985859" lon="10.317667"><time>2025-04-28T10:46:51.000Z</time><ele>404.6</ele></trkpt><trkpt lat="45.985852" lon="10.317658"><time>2025-04-28T10:46:52.000Z</time><ele>404.6</ele></trkpt><trkpt lat="45.985851" lon="10.317643"><time>2025-04-28T10:46:53.000Z</time><ele>404.6</ele></trkpt><trkpt lat="45.985846" lon="10.317617"><time>2025-04-28T10:46:54.000Z</time><ele>404.6</ele></trkpt><trkpt lat="45.985836" lon="10.317599"><time>2025-04-28T10:46:55.000Z</time><ele>404.6</ele></trkpt><trkpt lat="45.985824" lon="10.317587"><time>2025-04-28T10:46:56.000Z</time><ele>404.8</ele></trkpt><trkpt lat="45.985807" lon="10.317569"><time>2025-04-28T10:46:57.000Z</time><ele>404.8</ele></trkpt><trkpt lat="45.985801" lon="10.317542"><time>2025-04-28T10:46:58.000Z</time><ele>404.8</ele></trkpt><trkpt lat="45.985804" lon="10.317523"><time>2025-04-28T10:46:59.000Z</time><ele>404.8</ele></trkpt><trkpt lat="45.985795" lon="10.317518"><time>2025-04-28T10:47:00.000Z</time><ele>405</ele></trkpt><trkpt lat="45.985777" lon="10.317505"><time>2025-04-28T10:47:01.000Z</time><ele>405</ele></trkpt><trkpt lat="45.985765" lon="10.317488"><time>2025-04-28T10:47:02.000Z</time><ele>405.2</ele></trkpt><trkpt lat="45.985754" lon="10.317475"><time>2025-04-28T10:47:03.000Z</time><ele>405.4</ele></trkpt><trkpt lat="45.985745" lon="10.317461"><time>2025-04-28T10:47:04.000Z</time><ele>405.4</ele></trkpt><trkpt lat="45.985745" lon="10.317449"><time>2025-04-28T10:47:05.000Z</time><ele>405.4</ele></trkpt><trkpt lat="45.985744" lon="10.317436"><time>2025-04-28T10:47:06.000Z</time><ele>405.6</ele></trkpt><trkpt lat="45.985738" lon="10.317427"><time>2025-04-28T10:47:07.000Z</time><ele>405.6</ele></trkpt><trkpt lat="45.985729" lon="10.317423"><time>2025-04-28T10:47:08.000Z</time><ele>405.6</ele></trkpt><trkpt lat="45.985717" lon="10.317415"><time>2025-04-28T10:47:09.000Z</time><ele>405.8</ele></trkpt><trkpt lat="45.985705" lon="10.317402"><time>2025-04-28T10:47:10.000Z</time><ele>406</ele></trkpt><trkpt lat="45.985693" lon="10.317384"><time>2025-04-28T10:47:11.000Z</time><ele>406</ele></trkpt><trkpt lat="45.985688" lon="10.317376"><time>2025-04-28T10:47:12.000Z</time><ele>406</ele></trkpt><trkpt lat="45.985686" lon="10.31737"><time>2025-04-28T10:47:13.000Z</time><ele>406.4</ele></trkpt><trkpt lat="45.985685" lon="10.317366"><time>2025-04-28T10:47:14.000Z</time><ele>406.4</ele></trkpt><trkpt lat="45.985684" lon="10.317359"><time>2025-04-28T10:47:15.000Z</time><ele>406.6</ele></trkpt><trkpt lat="45.985684" lon="10.317354"><time>2025-04-28T10:47:16.000Z</time><ele>406.8</ele></trkpt><trkpt lat="45.985677" lon="10.317337"><time>2025-04-28T10:47:17.000Z</time><ele>406.8</ele></trkpt><trkpt lat="45.985669" lon="10.317319"><time>2025-04-28T10:47:18.000Z</time><ele>406.8</ele></trkpt><trkpt lat="45.985653" lon="10.317302"><time>2025-04-28T10:47:19.000Z</time><ele>407</ele></trkpt><trkpt lat="45.985635" lon="10.317288"><time>2025-04-28T10:47:20.000Z</time><ele>407</ele></trkpt><trkpt lat="45.985619" lon="10.317273"><time>2025-04-28T10:47:21.000Z</time><ele>407</ele></trkpt><trkpt lat="45.985604" lon="10.317262"><time>2025-04-28T10:47:22.000Z</time><ele>407</ele></trkpt><trkpt lat="45.985593" lon="10.317251"><time>2025-04-28T10:47:23.000Z</time><ele>407</ele></trkpt><trkpt lat="45.985587" lon="10.31724"><time>2025-04-28T10:47:24.000Z</time><ele>407</ele></trkpt><trkpt lat="45.98558" lon="10.31723"><time>2025-04-28T10:47:25.000Z</time><ele>407</ele></trkpt><trkpt lat="45.985578" lon="10.317224"><time>2025-04-28T10:47:26.000Z</time><ele>407</ele></trkpt><trkpt lat="45.98557" lon="10.317218"><time>2025-04-28T10:47:27.000Z</time><ele>407</ele></trkpt><trkpt lat="45.985561" lon="10.317209"><time>2025-04-28T10:47:28.000Z</time><ele>406.8</ele></trkpt><trkpt lat="45.985555" lon="10.3172"><time>2025-04-28T10:47:29.000Z</time><ele>406.8</ele></trkpt><trkpt lat="45.985553" lon="10.317201"><time>2025-04-28T10:47:30.000Z</time><ele>406.6</ele></trkpt><trkpt lat="45.985551" lon="10.317201"><time>2025-04-28T10:47:31.000Z</time><ele>406.6</ele></trkpt><trkpt lat="45.985539" lon="10.317198"><time>2025-04-28T10:47:32.000Z</time><ele>406.8</ele></trkpt><trkpt lat="45.985522" lon="10.317188"><time>2025-04-28T10:47:33.000Z</time><ele>406.8</ele></trkpt><trkpt lat="45.98551" lon="10.317167"><time>2025-04-28T10:47:34.000Z</time><ele>406.8</ele></trkpt><trkpt lat="45.985501" lon="10.317134"><time>2025-04-28T10:47:35.000Z</time><ele>406.8</ele></trkpt><trkpt lat="45.98549" lon="10.317109"><time>2025-04-28T10:47:36.000Z</time><ele>406.8</ele></trkpt><trkpt lat="45.98548" lon="10.317095"><time>2025-04-28T10:47:37.000Z</time><ele>406.8</ele></trkpt><trkpt lat="45.985472" lon="10.31708"><time>2025-04-28T10:47:38.000Z</time><ele>406.4</ele></trkpt><trkpt lat="45.985463" lon="10.317065"><time>2025-04-28T10:47:39.000Z</time><ele>406.2</ele></trkpt><trkpt lat="45.98545" lon="10.317053"><time>2025-04-28T10:47:40.000Z</time><ele>406.2</ele></trkpt><trkpt lat="45.985438" lon="10.31704"><time>2025-04-28T10:47:41.000Z</time><ele>406</ele></trkpt><trkpt lat="45.985428" lon="10.31703"><time>2025-04-28T10:47:42.000Z</time><ele>406</ele></trkpt><trkpt lat="45.985416" lon="10.317021"><time>2025-04-28T10:47:43.000Z</time><ele>406</ele></trkpt><trkpt lat="45.985398" lon="10.317012"><time>2025-04-28T10:47:44.000Z</time><ele>406</ele></trkpt><trkpt lat="45.985379" lon="10.317002"><time>2025-04-28T10:47:45.000Z</time><ele>406</ele></trkpt><trkpt lat="45.985365" lon="10.316993"><time>2025-04-28T10:47:46.000Z</time><ele>406</ele></trkpt><trkpt lat="45.985356" lon="10.316978"><time>2025-04-28T10:47:47.000Z</time><ele>406</ele></trkpt><trkpt lat="45.985348" lon="10.316962"><time>2025-04-28T10:47:48.000Z</time><ele>406</ele></trkpt><trkpt lat="45.985336" lon="10.31695"><time>2025-04-28T10:47:49.000Z</time><ele>406</ele></trkpt><trkpt lat="45.985324" lon="10.316936"><time>2025-04-28T10:47:50.000Z</time><ele>406</ele></trkpt><trkpt lat="45.985309" lon="10.316921"><time>2025-04-28T10:47:51.000Z</time><ele>406</ele></trkpt><trkpt lat="45.985298" lon="10.316904"><time>2025-04-28T10:47:52.000Z</time><ele>406</ele></trkpt><trkpt lat="45.985287" lon="10.31689"><time>2025-04-28T10:47:53.000Z</time><ele>406</ele></trkpt><trkpt lat="45.985279" lon="10.316877"><time>2025-04-28T10:47:54.000Z</time><ele>406</ele></trkpt><trkpt lat="45.985274" lon="10.316874"><time>2025-04-28T10:47:55.000Z</time><ele>405.8</ele></trkpt><trkpt lat="45.985266" lon="10.316869"><time>2025-04-28T10:47:56.000Z</time><ele>405.8</ele></trkpt><trkpt lat="45.985268" lon="10.316857"><time>2025-04-28T10:47:57.000Z</time><ele>405.6</ele></trkpt><trkpt lat="45.985265" lon="10.316841"><time>2025-04-28T10:47:58.000Z</time><ele>405.6</ele></trkpt><trkpt lat="45.985259" lon="10.316824"><time>2025-04-28T10:47:59.000Z</time><ele>405.6</ele></trkpt><trkpt lat="45.985246" lon="10.316806"><time>2025-04-28T10:48:00.000Z</time><ele>405.6</ele></trkpt><trkpt lat="45.98523" lon="10.31679"><time>2025-04-28T10:48:01.000Z</time><ele>405.6</ele></trkpt><trkpt lat="45.985214" lon="10.316775"><time>2025-04-28T10:48:02.000Z</time><ele>405.6</ele></trkpt><trkpt lat="45.985199" lon="10.31676"><time>2025-04-28T10:48:03.000Z</time><ele>405.6</ele></trkpt><trkpt lat="45.985187" lon="10.316748"><time>2025-04-28T10:48:04.000Z</time><ele>405.6</ele></trkpt><trkpt lat="45.985177" lon="10.316741"><time>2025-04-28T10:48:05.000Z</time><ele>405.6</ele></trkpt><trkpt lat="45.985165" lon="10.316725"><time>2025-04-28T10:48:06.000Z</time><ele>405.4</ele></trkpt><trkpt lat="45.985152" lon="10.316714"><time>2025-04-28T10:48:07.000Z</time><ele>405.4</ele></trkpt><trkpt lat="45.985138" lon="10.316701"><time>2025-04-28T10:48:08.000Z</time><ele>405.4</ele></trkpt><trkpt lat="45.985125" lon="10.316687"><time>2025-04-28T10:48:09.000Z</time><ele>405.2</ele></trkpt><trkpt lat="45.985117" lon="10.316674"><time>2025-04-28T10:48:10.000Z</time><ele>405.2</ele></trkpt><trkpt lat="45.985108" lon="10.31666"><time>2025-04-28T10:48:11.000Z</time><ele>405.2</ele></trkpt><trkpt lat="45.985103" lon="10.316642"><time>2025-04-28T10:48:12.000Z</time><ele>405</ele></trkpt><trkpt lat="45.985102" lon="10.316621"><time>2025-04-28T10:48:13.000Z</time><ele>405</ele></trkpt><trkpt lat="45.985094" lon="10.316602"><time>2025-04-28T10:48:14.000Z</time><ele>404.8</ele></trkpt><trkpt lat="45.985075" lon="10.31658"><time>2025-04-28T10:48:15.000Z</time><ele>404.8</ele></trkpt><trkpt lat="45.985051" lon="10.316553"><time>2025-04-28T10:48:16.000Z</time><ele>404.8</ele></trkpt><trkpt lat="45.985041" lon="10.316529"><time>2025-04-28T10:48:17.000Z</time><ele>404.8</ele></trkpt><trkpt lat="45.985034" lon="10.316506"><time>2025-04-28T10:48:18.000Z</time><ele>405</ele></trkpt><trkpt lat="45.985015" lon="10.316492"><time>2025-04-28T10:48:19.000Z</time><ele>405</ele></trkpt><trkpt lat="45.985001" lon="10.316485"><time>2025-04-28T10:48:20.000Z</time><ele>405.2</ele></trkpt><trkpt lat="45.984994" lon="10.316479"><time>2025-04-28T10:48:21.000Z</time><ele>405.2</ele></trkpt><trkpt lat="45.984988" lon="10.316468"><time>2025-04-28T10:48:22.000Z</time><ele>405.4</ele></trkpt><trkpt lat="45.984986" lon="10.316469"><time>2025-04-28T10:48:23.000Z</time><ele>405.4</ele></trkpt><trkpt lat="45.98498" lon="10.316456"><time>2025-04-28T10:48:24.000Z</time><ele>405.4</ele></trkpt><trkpt lat="45.984975" lon="10.316441"><time>2025-04-28T10:48:25.000Z</time><ele>405.4</ele></trkpt><trkpt lat="45.984962" lon="10.316422"><time>2025-04-28T10:48:26.000Z</time><ele>405.6</ele></trkpt><trkpt lat="45.984957" lon="10.3164"><time>2025-04-28T10:48:27.000Z</time><ele>405.6</ele></trkpt><trkpt lat="45.984955" lon="10.316375"><time>2025-04-28T10:48:28.000Z</time><ele>405.6</ele></trkpt><trkpt lat="45.98496" lon="10.316357"><time>2025-04-28T10:48:29.000Z</time><ele>405.6</ele></trkpt><trkpt lat="45.984961" lon="10.316328"><time>2025-04-28T10:48:30.000Z</time><ele>405.6</ele></trkpt><trkpt lat="45.984965" lon="10.316296"><time>2025-04-28T10:48:31.000Z</time><ele>405.6</ele></trkpt><trkpt lat="45.984954" lon="10.316265"><time>2025-04-28T10:48:32.000Z</time><ele>405.6</ele></trkpt><trkpt lat="45.984944" lon="10.31625"><time>2025-04-28T10:48:33.000Z</time><ele>405.6</ele></trkpt><trkpt lat="45.984927" lon="10.316234"><time>2025-04-28T10:48:34.000Z</time><ele>405.8</ele></trkpt><trkpt lat="45.98491" lon="10.31622"><time>2025-04-28T10:48:35.000Z</time><ele>405.8</ele></trkpt><trkpt lat="45.984902" lon="10.3162"><time>2025-04-28T10:48:36.000Z</time><ele>405.8</ele></trkpt><trkpt lat="45.984894" lon="10.316177"><time>2025-04-28T10:48:37.000Z</time><ele>405.8</ele></trkpt><trkpt lat="45.984895" lon="10.316158"><time>2025-04-28T10:48:38.000Z</time><ele>405.8</ele></trkpt><trkpt lat="45.984893" lon="10.316141"><time>2025-04-28T10:48:39.000Z</time><ele>405.8</ele></trkpt><trkpt lat="45.984887" lon="10.31612"><time>2025-04-28T10:48:40.000Z</time><ele>405.8</ele></trkpt><trkpt lat="45.984883" lon="10.316103"><time>2025-04-28T10:48:41.000Z</time><ele>405.8</ele></trkpt><trkpt lat="45.984884" lon="10.316086"><time>2025-04-28T10:48:42.000Z</time><ele>406</ele></trkpt><trkpt lat="45.984886" lon="10.316076"><time>2025-04-28T10:48:43.000Z</time><ele>406</ele></trkpt><trkpt lat="45.984886" lon="10.31607"><time>2025-04-28T10:48:44.000Z</time><ele>406</ele></trkpt><trkpt lat="45.984887" lon="10.316072"><time>2025-04-28T10:48:45.000Z</time><ele>406</ele></trkpt><trkpt lat="45.98489" lon="10.316074"><time>2025-04-28T10:48:46.000Z</time><ele>406</ele></trkpt><trkpt lat="45.984888" lon="10.316042"><time>2025-04-28T10:48:47.000Z</time><ele>406.2</ele></trkpt><trkpt lat="45.984886" lon="10.316019"><time>2025-04-28T10:48:48.000Z</time><ele>406.2</ele></trkpt><trkpt lat="45.984885" lon="10.316009"><time>2025-04-28T10:48:49.000Z</time><ele>406.2</ele></trkpt><trkpt lat="45.984879" lon="10.315995"><time>2025-04-28T10:48:50.000Z</time><ele>406.2</ele></trkpt><trkpt lat="45.984873" lon="10.315977"><time>2025-04-28T10:48:51.000Z</time><ele>406.2</ele></trkpt><trkpt lat="45.984862" lon="10.315963"><time>2025-04-28T10:48:52.000Z</time><ele>406.2</ele></trkpt><trkpt lat="45.984846" lon="10.315947"><time>2025-04-28T10:48:53.000Z</time><ele>406.2</ele></trkpt><trkpt lat="45.984838" lon="10.31594"><time>2025-04-28T10:48:54.000Z</time><ele>406.4</ele></trkpt><trkpt lat="45.984829" lon="10.315932"><time>2025-04-28T10:48:55.000Z</time><ele>406.4</ele></trkpt><trkpt lat="45.984821" lon="10.315924"><time>2025-04-28T10:48:56.000Z</time><ele>406.6</ele></trkpt><trkpt lat="45.98481" lon="10.315915"><time>2025-04-28T10:48:57.000Z</time><ele>406.6</ele></trkpt><trkpt lat="45.984806" lon="10.315904"><time>2025-04-28T10:48:58.000Z</time><ele>406.6</ele></trkpt><trkpt lat="45.984801" lon="10.315892"><time>2025-04-28T10:48:59.000Z</time><ele>406.8</ele></trkpt><trkpt lat="45.984797" lon="10.315876"><time>2025-04-28T10:49:00.000Z</time><ele>406.8</ele></trkpt><trkpt lat="45.984782" lon="10.315868"><time>2025-04-28T10:49:01.000Z</time><ele>406.8</ele></trkpt><trkpt lat="45.98477" lon="10.315853"><time>2025-04-28T10:49:02.000Z</time><ele>407</ele></trkpt><trkpt lat="45.984754" lon="10.31584"><time>2025-04-28T10:49:03.000Z</time><ele>407.2</ele></trkpt><trkpt lat="45.984737" lon="10.315824"><time>2025-04-28T10:49:04.000Z</time><ele>407.6</ele></trkpt><trkpt lat="45.984726" lon="10.315804"><time>2025-04-28T10:49:05.000Z</time><ele>407.8</ele></trkpt><trkpt lat="45.984736" lon="10.315806"><time>2025-04-28T10:49:06.000Z</time><ele>407.8</ele></trkpt><trkpt lat="45.984761" lon="10.315743"><time>2025-04-28T10:49:07.000Z</time><ele>408.2</ele></trkpt><trkpt lat="45.984687" lon="10.315708"><time>2025-04-28T10:49:08.000Z</time><ele>408.4</ele></trkpt><trkpt lat="45.984668" lon="10.315673"><time>2025-04-28T10:49:09.000Z</time><ele>408.6</ele></trkpt><trkpt lat="45.984676" lon="10.315702"><time>2025-04-28T10:49:10.000Z</time><ele>408.8</ele></trkpt><trkpt lat="45.984678" lon="10.315698"><time>2025-04-28T10:49:11.000Z</time><ele>409</ele></trkpt><trkpt lat="45.984673" lon="10.315688"><time>2025-04-28T10:49:12.000Z</time><ele>409</ele></trkpt><trkpt lat="45.98467" lon="10.315684"><time>2025-04-28T10:49:13.000Z</time><ele>409</ele></trkpt><trkpt lat="45.984666" lon="10.315675"><time>2025-04-28T10:49:14.000Z</time><ele>409</ele></trkpt><trkpt lat="45.984663" lon="10.315661"><time>2025-04-28T10:49:15.000Z</time><ele>409</ele></trkpt><trkpt lat="45.984662" lon="10.315649"><time>2025-04-28T10:49:16.000Z</time><ele>408.8</ele></trkpt><trkpt lat="45.984661" lon="10.315644"><time>2025-04-28T10:49:17.000Z</time><ele>408.8</ele></trkpt><trkpt lat="45.984659" lon="10.315638"><time>2025-04-28T10:49:18.000Z</time><ele>408.6</ele></trkpt><trkpt lat="45.984656" lon="10.315616"><time>2025-04-28T10:49:19.000Z</time><ele>408.6</ele></trkpt><trkpt lat="45.984654" lon="10.315586"><time>2025-04-28T10:49:20.000Z</time><ele>408.6</ele></trkpt><trkpt lat="45.98465" lon="10.315551"><time>2025-04-28T10:49:21.000Z</time><ele>408.8</ele></trkpt><trkpt lat="45.984639" lon="10.315536"><time>2025-04-28T10:49:22.000Z</time><ele>409</ele></trkpt><trkpt lat="45.984635" lon="10.315525"><time>2025-04-28T10:49:23.000Z</time><ele>409.2</ele></trkpt><trkpt lat="45.984632" lon="10.315507"><time>2025-04-28T10:49:24.000Z</time><ele>409.4</ele></trkpt><trkpt lat="45.984624" lon="10.315495"><time>2025-04-28T10:49:25.000Z</time><ele>409.4</ele></trkpt><trkpt lat="45.984619" lon="10.315479"><time>2025-04-28T10:49:26.000Z</time><ele>409.4</ele></trkpt><trkpt lat="45.984615" lon="10.315445"><time>2025-04-28T10:49:27.000Z</time><ele>409.4</ele></trkpt><trkpt lat="45.984602" lon="10.315425"><time>2025-04-28T10:49:28.000Z</time><ele>409.4</ele></trkpt><trkpt lat="45.9846" lon="10.315404"><time>2025-04-28T10:49:29.000Z</time><ele>409.2</ele></trkpt><trkpt lat="45.98461" lon="10.315375"><time>2025-04-28T10:49:30.000Z</time><ele>409.2</ele></trkpt><trkpt lat="45.984616" lon="10.315351"><time>2025-04-28T10:49:31.000Z</time><ele>409.2</ele></trkpt><trkpt lat="45.984607" lon="10.315328"><time>2025-04-28T10:49:32.000Z</time><ele>409.2</ele></trkpt><trkpt lat="45.984599" lon="10.315304"><time>2025-04-28T10:49:33.000Z</time><ele>409.4</ele></trkpt><trkpt lat="45.984592" lon="10.315281"><time>2025-04-28T10:49:34.000Z</time><ele>409.4</ele></trkpt><trkpt lat="45.984589" lon="10.315265"><time>2025-04-28T10:49:35.000Z</time><ele>409.4</ele></trkpt><trkpt lat="45.984584" lon="10.315248"><time>2025-04-28T10:49:36.000Z</time><ele>409.4</ele></trkpt><trkpt lat="45.984581" lon="10.315206"><time>2025-04-28T10:49:37.000Z</time><ele>409.4</ele></trkpt><trkpt lat="45.984579" lon="10.315185"><time>2025-04-28T10:49:38.000Z</time><ele>409.2</ele></trkpt><trkpt lat="45.984562" lon="10.31515"><time>2025-04-28T10:49:39.000Z</time><ele>409</ele></trkpt><trkpt lat="45.98456" lon="10.315155"><time>2025-04-28T10:49:40.000Z</time><ele>408.6</ele></trkpt><trkpt lat="45.984557" lon="10.31514"><time>2025-04-28T10:49:41.000Z</time><ele>408.4</ele></trkpt><trkpt lat="45.984551" lon="10.315115"><time>2025-04-28T10:49:42.000Z</time><ele>408</ele></trkpt><trkpt lat="45.984562" lon="10.31511"><time>2025-04-28T10:49:43.000Z</time><ele>408</ele></trkpt><trkpt lat="45.984572" lon="10.315102"><time>2025-04-28T10:49:44.000Z</time><ele>407.8</ele></trkpt><trkpt lat="45.984574" lon="10.31509"><time>2025-04-28T10:49:45.000Z</time><ele>407.8</ele></trkpt><trkpt lat="45.984574" lon="10.315078"><time>2025-04-28T10:49:46.000Z</time><ele>407.8</ele></trkpt><trkpt lat="45.984576" lon="10.315076"><time>2025-04-28T10:49:47.000Z</time><ele>408</ele></trkpt><trkpt lat="45.984573" lon="10.315072"><time>2025-04-28T10:49:48.000Z</time><ele>408</ele></trkpt><trkpt lat="45.984554" lon="10.315051"><time>2025-04-28T10:49:49.000Z</time><ele>408.2</ele></trkpt><trkpt lat="45.984548" lon="10.315045"><time>2025-04-28T10:49:50.000Z</time><ele>408.2</ele></trkpt><trkpt lat="45.984545" lon="10.315044"><time>2025-04-28T10:49:51.000Z</time><ele>408.2</ele></trkpt><trkpt lat="45.984546" lon="10.315043"><time>2025-04-28T10:49:52.000Z</time><ele>408.2</ele></trkpt><trkpt lat="45.984545" lon="10.315028"><time>2025-04-28T10:49:53.000Z</time><ele>408</ele></trkpt><trkpt lat="45.984546" lon="10.315006"><time>2025-04-28T10:49:54.000Z</time><ele>408</ele></trkpt><trkpt lat="45.984547" lon="10.314985"><time>2025-04-28T10:49:55.000Z</time><ele>407.8</ele></trkpt><trkpt lat="45.984549" lon="10.314967"><time>2025-04-28T10:49:56.000Z</time><ele>407.8</ele></trkpt><trkpt lat="45.984557" lon="10.314961"><time>2025-04-28T10:49:57.000Z</time><ele>407.8</ele></trkpt><trkpt lat="45.984562" lon="10.314948"><time>2025-04-28T10:49:58.000Z</time><ele>407.6</ele></trkpt><trkpt lat="45.984568" lon="10.314928"><time>2025-04-28T10:49:59.000Z</time><ele>407.6</ele></trkpt><trkpt lat="45.984575" lon="10.314909"><time>2025-04-28T10:50:00.000Z</time><ele>407.4</ele></trkpt><trkpt lat="45.984584" lon="10.314886"><time>2025-04-28T10:50:01.000Z</time><ele>407.4</ele></trkpt><trkpt lat="45.984592" lon="10.314865"><time>2025-04-28T10:50:02.000Z</time><ele>407.4</ele></trkpt><trkpt lat="45.984603" lon="10.314853"><time>2025-04-28T10:50:03.000Z</time><ele>407.2</ele></trkpt><trkpt lat="45.984621" lon="10.314847"><time>2025-04-28T10:50:04.000Z</time><ele>407.2</ele></trkpt><trkpt lat="45.984641" lon="10.31484"><time>2025-04-28T10:50:05.000Z</time><ele>407</ele></trkpt><trkpt lat="45.984664" lon="10.314839"><time>2025-04-28T10:50:06.000Z</time><ele>407</ele></trkpt><trkpt lat="45.984678" lon="10.314829"><time>2025-04-28T10:50:07.000Z</time><ele>407</ele></trkpt><trkpt lat="45.984686" lon="10.314816"><time>2025-04-28T10:50:08.000Z</time><ele>406.8</ele></trkpt><trkpt lat="45.984695" lon="10.314784"><time>2025-04-28T10:50:09.000Z</time><ele>406.8</ele></trkpt><trkpt lat="45.984691" lon="10.31475"><time>2025-04-28T10:50:10.000Z</time><ele>406.6</ele></trkpt><trkpt lat="45.984692" lon="10.314724"><time>2025-04-28T10:50:11.000Z</time><ele>406.6</ele></trkpt><trkpt lat="45.9847" lon="10.314714"><time>2025-04-28T10:50:12.000Z</time><ele>406.6</ele></trkpt><trkpt lat="45.984703" lon="10.3147"><time>2025-04-28T10:50:13.000Z</time><ele>406.6</ele></trkpt><trkpt lat="45.984704" lon="10.31469"><time>2025-04-28T10:50:14.000Z</time><ele>406.6</ele></trkpt><trkpt lat="45.984705" lon="10.314683"><time>2025-04-28T10:50:15.000Z</time><ele>406.6</ele></trkpt><trkpt lat="45.984703" lon="10.314664"><time>2025-04-28T10:50:16.000Z</time><ele>406.6</ele></trkpt><trkpt lat="45.9847" lon="10.314633"><time>2025-04-28T10:50:17.000Z</time><ele>406.6</ele></trkpt><trkpt lat="45.984701" lon="10.314605"><time>2025-04-28T10:50:18.000Z</time><ele>406.8</ele></trkpt><trkpt lat="45.984707" lon="10.314587"><time>2025-04-28T10:50:19.000Z</time><ele>406.8</ele></trkpt><trkpt lat="45.984712" lon="10.314565"><time>2025-04-28T10:50:20.000Z</time><ele>407</ele></trkpt><trkpt lat="45.984718" lon="10.31455"><time>2025-04-28T10:50:21.000Z</time><ele>407</ele></trkpt><trkpt lat="45.984728" lon="10.314547"><time>2025-04-28T10:50:22.000Z</time><ele>407.2</ele></trkpt><trkpt lat="45.984729" lon="10.314535"><time>2025-04-28T10:50:23.000Z</time><ele>407.2</ele></trkpt><trkpt lat="45.984738" lon="10.314525"><time>2025-04-28T10:50:24.000Z</time><ele>407.4</ele></trkpt><trkpt lat="45.984747" lon="10.314519"><time>2025-04-28T10:50:25.000Z</time><ele>407.6</ele></trkpt><trkpt lat="45.984758" lon="10.31452"><time>2025-04-28T10:50:26.000Z</time><ele>407.8</ele></trkpt><trkpt lat="45.984763" lon="10.314527"><time>2025-04-28T10:50:27.000Z</time><ele>408</ele></trkpt><trkpt lat="45.984767" lon="10.314531"><time>2025-04-28T10:50:28.000Z</time><ele>408.6</ele></trkpt><trkpt lat="45.98477" lon="10.31453"><time>2025-04-28T10:50:29.000Z</time><ele>408.8</ele></trkpt><trkpt lat="45.984771" lon="10.314527"><time>2025-04-28T10:50:30.000Z</time><ele>409</ele></trkpt><trkpt lat="45.984767" lon="10.314517"><time>2025-04-28T10:50:31.000Z</time><ele>409.2</ele></trkpt><trkpt lat="45.984764" lon="10.314514"><time>2025-04-28T10:50:32.000Z</time><ele>409.2</ele></trkpt><trkpt lat="45.984765" lon="10.314517"><time>2025-04-28T10:50:33.000Z</time><ele>409.2</ele></trkpt><trkpt lat="45.984765" lon="10.314519"><time>2025-04-28T10:50:34.000Z</time><ele>409.2</ele></trkpt><trkpt lat="45.98477" lon="10.314517"><time>2025-04-28T10:50:35.000Z</time><ele>409.2</ele></trkpt><trkpt lat="45.984771" lon="10.314507"><time>2025-04-28T10:50:36.000Z</time><ele>409.2</ele></trkpt><trkpt lat="45.984773" lon="10.314493"><time>2025-04-28T10:50:37.000Z</time><ele>409.2</ele></trkpt><trkpt lat="45.984774" lon="10.314482"><time>2025-04-28T10:50:38.000Z</time><ele>409.2</ele></trkpt><trkpt lat="45.984785" lon="10.314476"><time>2025-04-28T10:50:39.000Z</time><ele>409.2</ele></trkpt><trkpt lat="45.984796" lon="10.314464"><time>2025-04-28T10:50:40.000Z</time><ele>409.2</ele></trkpt><trkpt lat="45.984798" lon="10.314442"><time>2025-04-28T10:50:41.000Z</time><ele>409.4</ele></trkpt><trkpt lat="45.984798" lon="10.314434"><time>2025-04-28T10:50:42.000Z</time><ele>409.6</ele></trkpt><trkpt lat="45.984802" lon="10.31442"><time>2025-04-28T10:50:43.000Z</time><ele>409.6</ele></trkpt><trkpt lat="45.984813" lon="10.314406"><time>2025-04-28T10:50:44.000Z</time><ele>409.6</ele></trkpt><trkpt lat="45.984817" lon="10.314388"><time>2025-04-28T10:50:45.000Z</time><ele>409.8</ele></trkpt><trkpt lat="45.984826" lon="10.314383"><time>2025-04-28T10:50:46.000Z</time><ele>410</ele></trkpt><trkpt lat="45.984848" lon="10.314379"><time>2025-04-28T10:50:47.000Z</time><ele>410</ele></trkpt><trkpt lat="45.984861" lon="10.314368"><time>2025-04-28T10:50:48.000Z</time><ele>410</ele></trkpt><trkpt lat="45.984867" lon="10.314352"><time>2025-04-28T10:50:49.000Z</time><ele>410.2</ele></trkpt><trkpt lat="45.984871" lon="10.314338"><time>2025-04-28T10:50:50.000Z</time><ele>410.2</ele></trkpt><trkpt lat="45.984871" lon="10.314316"><time>2025-04-28T10:50:51.000Z</time><ele>410.4</ele></trkpt><trkpt lat="45.984868" lon="10.314293"><time>2025-04-28T10:50:52.000Z</time><ele>410.4</ele></trkpt><trkpt lat="45.984869" lon="10.314262"><time>2025-04-28T10:50:53.000Z</time><ele>410.6</ele></trkpt><trkpt lat="45.98487" lon="10.314237"><time>2025-04-28T10:50:54.000Z</time><ele>410.8</ele></trkpt><trkpt lat="45.984881" lon="10.314213"><time>2025-04-28T10:50:55.000Z</time><ele>410.8</ele></trkpt><trkpt lat="45.98489" lon="10.314198"><time>2025-04-28T10:50:56.000Z</time><ele>411</ele></trkpt><trkpt lat="45.984887" lon="10.314182"><time>2025-04-28T10:50:57.000Z</time><ele>411.2</ele></trkpt><trkpt lat="45.984886" lon="10.314165"><time>2025-04-28T10:50:58.000Z</time><ele>411.2</ele></trkpt><trkpt lat="45.984892" lon="10.314145"><time>2025-04-28T10:50:59.000Z</time><ele>411.4</ele></trkpt><trkpt lat="45.984901" lon="10.314133"><time>2025-04-28T10:51:00.000Z</time><ele>411.6</ele></trkpt><trkpt lat="45.984908" lon="10.314119"><time>2025-04-28T10:51:01.000Z</time><ele>411.8</ele></trkpt><trkpt lat="45.984914" lon="10.314111"><time>2025-04-28T10:51:02.000Z</time><ele>412</ele></trkpt><trkpt lat="45.984913" lon="10.314105"><time>2025-04-28T10:51:03.000Z</time><ele>412.4</ele></trkpt><trkpt lat="45.984912" lon="10.31409"><time>2025-04-28T10:51:04.000Z</time><ele>412.4</ele></trkpt><trkpt lat="45.984911" lon="10.314076"><time>2025-04-28T10:51:05.000Z</time><ele>413</ele></trkpt><trkpt lat="45.984913" lon="10.314072"><time>2025-04-28T10:51:06.000Z</time><ele>413.4</ele></trkpt><trkpt lat="45.984918" lon="10.31406"><time>2025-04-28T10:51:07.000Z</time><ele>413.6</ele></trkpt><trkpt lat="45.984929" lon="10.314046"><time>2025-04-28T10:51:08.000Z</time><ele>413.8</ele></trkpt><trkpt lat="45.984935" lon="10.314034"><time>2025-04-28T10:51:09.000Z</time><ele>413.8</ele></trkpt><trkpt lat="45.984935" lon="10.31402"><time>2025-04-28T10:51:10.000Z</time><ele>414</ele></trkpt><trkpt lat="45.98494" lon="10.31401"><time>2025-04-28T10:51:11.000Z</time><ele>414.2</ele></trkpt><trkpt lat="45.984948" lon="10.314"><time>2025-04-28T10:51:12.000Z</time><ele>414.4</ele></trkpt><trkpt lat="45.984954" lon="10.313991"><time>2025-04-28T10:51:13.000Z</time><ele>414.6</ele></trkpt><trkpt lat="45.984959" lon="10.313984"><time>2025-04-28T10:51:14.000Z</time><ele>414.8</ele></trkpt><trkpt lat="45.984962" lon="10.313972"><time>2025-04-28T10:51:15.000Z</time><ele>414.8</ele></trkpt><trkpt lat="45.984966" lon="10.313961"><time>2025-04-28T10:51:16.000Z</time><ele>415</ele></trkpt><trkpt lat="45.98497" lon="10.313953"><time>2025-04-28T10:51:17.000Z</time><ele>415.2</ele></trkpt><trkpt lat="45.984977" lon="10.313947"><time>2025-04-28T10:51:18.000Z</time><ele>415.6</ele></trkpt><trkpt lat="45.984985" lon="10.31394"><time>2025-04-28T10:51:19.000Z</time><ele>415.6</ele></trkpt><trkpt lat="45.984992" lon="10.313931"><time>2025-04-28T10:51:20.000Z</time><ele>415.8</ele></trkpt><trkpt lat="45.984996" lon="10.313921"><time>2025-04-28T10:51:21.000Z</time><ele>415.8</ele></trkpt><trkpt lat="45.985001" lon="10.31391"><time>2025-04-28T10:51:22.000Z</time><ele>416.2</ele></trkpt><trkpt lat="45.985002" lon="10.3139"><time>2025-04-28T10:51:23.000Z</time><ele>416.4</ele></trkpt><trkpt lat="45.985008" lon="10.313889"><time>2025-04-28T10:51:24.000Z</time><ele>416.6</ele></trkpt><trkpt lat="45.985014" lon="10.31388"><time>2025-04-28T10:51:25.000Z</time><ele>416.8</ele></trkpt><trkpt lat="45.985019" lon="10.313868"><time>2025-04-28T10:51:26.000Z</time><ele>417.2</ele></trkpt><trkpt lat="45.985024" lon="10.313857"><time>2025-04-28T10:51:27.000Z</time><ele>417.4</ele></trkpt><trkpt lat="45.985024" lon="10.313848"><time>2025-04-28T10:51:28.000Z</time><ele>417.6</ele></trkpt><trkpt lat="45.985026" lon="10.313838"><time>2025-04-28T10:51:29.000Z</time><ele>417.8</ele></trkpt><trkpt lat="45.985031" lon="10.313828"><time>2025-04-28T10:51:30.000Z</time><ele>418</ele></trkpt><trkpt lat="45.985033" lon="10.313819"><time>2025-04-28T10:51:31.000Z</time><ele>418.2</ele></trkpt><trkpt lat="45.985038" lon="10.313813"><time>2025-04-28T10:51:32.000Z</time><ele>418.4</ele></trkpt><trkpt lat="45.985045" lon="10.313802"><time>2025-04-28T10:51:33.000Z</time><ele>418.6</ele></trkpt><trkpt lat="45.98505" lon="10.313794"><time>2025-04-28T10:51:34.000Z</time><ele>418.6</ele></trkpt><trkpt lat="45.985054" lon="10.313789"><time>2025-04-28T10:51:35.000Z</time><ele>418.8</ele></trkpt><trkpt lat="45.985058" lon="10.313783"><time>2025-04-28T10:51:36.000Z</time><ele>419</ele></trkpt><trkpt lat="45.985062" lon="10.313775"><time>2025-04-28T10:51:37.000Z</time><ele>419.2</ele></trkpt><trkpt lat="45.985063" lon="10.313768"><time>2025-04-28T10:51:38.000Z</time><ele>419.4</ele></trkpt><trkpt lat="45.985068" lon="10.313749"><time>2025-04-28T10:51:39.000Z</time><ele>419.6</ele></trkpt><trkpt lat="45.985075" lon="10.313738"><time>2025-04-28T10:51:40.000Z</time><ele>419.8</ele></trkpt><trkpt lat="45.985078" lon="10.313731"><time>2025-04-28T10:51:41.000Z</time><ele>420.2</ele></trkpt><trkpt lat="45.985085" lon="10.313723"><time>2025-04-28T10:51:42.000Z</time><ele>420.4</ele></trkpt><trkpt lat="45.985085" lon="10.313714"><time>2025-04-28T10:51:43.000Z</time><ele>420.6</ele></trkpt><trkpt lat="45.985081" lon="10.313706"><time>2025-04-28T10:51:44.000Z</time><ele>420.8</ele></trkpt><trkpt lat="45.985077" lon="10.313693"><time>2025-04-28T10:51:45.000Z</time><ele>421</ele></trkpt><trkpt lat="45.985075" lon="10.313682"><time>2025-04-28T10:51:46.000Z</time><ele>421.2</ele></trkpt><trkpt lat="45.985066" lon="10.313672"><time>2025-04-28T10:51:47.000Z</time><ele>421.4</ele></trkpt><trkpt lat="45.985063" lon="10.313662"><time>2025-04-28T10:51:48.000Z</time><ele>421.6</ele></trkpt><trkpt lat="45.985058" lon="10.313652"><time>2025-04-28T10:51:49.000Z</time><ele>421.8</ele></trkpt><trkpt lat="45.985052" lon="10.313646"><time>2025-04-28T10:51:50.000Z</time><ele>422</ele></trkpt><trkpt lat="45.985046" lon="10.313637"><time>2025-04-28T10:51:51.000Z</time><ele>422.2</ele></trkpt><trkpt lat="45.985041" lon="10.31363"><time>2025-04-28T10:51:52.000Z</time><ele>422.2</ele></trkpt><trkpt lat="45.985034" lon="10.313625"><time>2025-04-28T10:51:53.000Z</time><ele>422.2</ele></trkpt><trkpt lat="45.985026" lon="10.313613"><time>2025-04-28T10:51:54.000Z</time><ele>422.4</ele></trkpt><trkpt lat="45.985018" lon="10.313603"><time>2025-04-28T10:51:55.000Z</time><ele>422.6</ele></trkpt><trkpt lat="45.985014" lon="10.313597"><time>2025-04-28T10:51:56.000Z</time><ele>422.8</ele></trkpt><trkpt lat="45.985012" lon="10.313585"><time>2025-04-28T10:51:57.000Z</time><ele>423.2</ele></trkpt><trkpt lat="45.98501" lon="10.313565"><time>2025-04-28T10:51:58.000Z</time><ele>423.4</ele></trkpt><trkpt lat="45.985008" lon="10.31355"><time>2025-04-28T10:51:59.000Z</time><ele>423.6</ele></trkpt><trkpt lat="45.985005" lon="10.31354"><time>2025-04-28T10:52:00.000Z</time><ele>423.8</ele></trkpt><trkpt lat="45.985" lon="10.313528"><time>2025-04-28T10:52:01.000Z</time><ele>424.2</ele></trkpt><trkpt lat="45.984997" lon="10.313515"><time>2025-04-28T10:52:02.000Z</time><ele>424.4</ele></trkpt><trkpt lat="45.984996" lon="10.313506"><time>2025-04-28T10:52:03.000Z</time><ele>424.6</ele></trkpt><trkpt lat="45.984996" lon="10.313495"><time>2025-04-28T10:52:04.000Z</time><ele>424.8</ele></trkpt><trkpt lat="45.984998" lon="10.313484"><time>2025-04-28T10:52:05.000Z</time><ele>425</ele></trkpt><trkpt lat="45.984997" lon="10.313473"><time>2025-04-28T10:52:06.000Z</time><ele>425.2</ele></trkpt><trkpt lat="45.984997" lon="10.313462"><time>2025-04-28T10:52:07.000Z</time><ele>425.6</ele></trkpt><trkpt lat="45.984998" lon="10.313458"><time>2025-04-28T10:52:08.000Z</time><ele>425.8</ele></trkpt><trkpt lat="45.984996" lon="10.313453"><time>2025-04-28T10:52:09.000Z</time><ele>426</ele></trkpt><trkpt lat="45.984993" lon="10.313455"><time>2025-04-28T10:52:10.000Z</time><ele>426.4</ele></trkpt><trkpt lat="45.984992" lon="10.313455"><time>2025-04-28T10:52:11.000Z</time><ele>426.4</ele></trkpt><trkpt lat="45.984988" lon="10.313449"><time>2025-04-28T10:52:12.000Z</time><ele>426.6</ele></trkpt><trkpt lat="45.984974" lon="10.313436"><time>2025-04-28T10:52:13.000Z</time><ele>426.6</ele></trkpt><trkpt lat="45.984961" lon="10.313428"><time>2025-04-28T10:52:14.000Z</time><ele>426.6</ele></trkpt><trkpt lat="45.98496" lon="10.313422"><time>2025-04-28T10:52:15.000Z</time><ele>426.6</ele></trkpt><trkpt lat="45.984961" lon="10.313417"><time>2025-04-28T10:52:16.000Z</time><ele>426.6</ele></trkpt><trkpt lat="45.984964" lon="10.313416"><time>2025-04-28T10:52:17.000Z</time><ele>426.6</ele></trkpt><trkpt lat="45.984954" lon="10.313425"><time>2025-04-28T10:52:18.000Z</time><ele>426.6</ele></trkpt><trkpt lat="45.984957" lon="10.313424"><time>2025-04-28T10:52:19.000Z</time><ele>426.6</ele></trkpt><trkpt lat="45.984957" lon="10.313424"><time>2025-04-28T10:52:20.000Z</time><ele>426.6</ele></trkpt><trkpt lat="45.984957" lon="10.313425"><time>2025-04-28T10:52:21.000Z</time><ele>426.6</ele></trkpt><trkpt lat="45.984958" lon="10.313429"><time>2025-04-28T10:52:22.000Z</time><ele>426.6</ele></trkpt><trkpt lat="45.984959" lon="10.313433"><time>2025-04-28T10:52:23.000Z</time><ele>426.6</ele></trkpt><trkpt lat="45.984962" lon="10.313431"><time>2025-04-28T10:52:24.000Z</time><ele>426.6</ele></trkpt><trkpt lat="45.984963" lon="10.313427"><time>2025-04-28T10:52:25.000Z</time><ele>426.6</ele></trkpt><trkpt lat="45.984957" lon="10.313432"><time>2025-04-28T10:52:26.000Z</time><ele>426.6</ele></trkpt><trkpt lat="45.984951" lon="10.31344"><time>2025-04-28T10:52:27.000Z</time><ele>426.6</ele></trkpt><trkpt lat="45.984948" lon="10.313443"><time>2025-04-28T10:52:28.000Z</time><ele>426.6</ele></trkpt><trkpt lat="45.984947" lon="10.313442"><time>2025-04-28T10:52:29.000Z</time><ele>426.6</ele></trkpt><trkpt lat="45.984947" lon="10.313443"><time>2025-04-28T10:52:30.000Z</time><ele>426.8</ele></trkpt><trkpt lat="45.984946" lon="10.313446"><time>2025-04-28T10:52:31.000Z</time><ele>426.8</ele></trkpt><trkpt lat="45.984946" lon="10.313447"><time>2025-04-28T10:52:32.000Z</time><ele>426.8</ele></trkpt><trkpt lat="45.984948" lon="10.313449"><time>2025-04-28T10:52:33.000Z</time><ele>426.6</ele></trkpt><trkpt lat="45.984949" lon="10.313449"><time>2025-04-28T10:52:34.000Z</time><ele>426.6</ele></trkpt><trkpt lat="45.984946" lon="10.31345"><time>2025-04-28T10:52:35.000Z</time><ele>426.6</ele></trkpt><trkpt lat="45.984944" lon="10.313455"><time>2025-04-28T10:52:36.000Z</time><ele>426.6</ele></trkpt><trkpt lat="45.984936" lon="10.313458"><time>2025-04-28T10:52:37.000Z</time><ele>426.6</ele></trkpt><trkpt lat="45.984929" lon="10.313461"><time>2025-04-28T10:52:38.000Z</time><ele>426.6</ele></trkpt><trkpt lat="45.984928" lon="10.313464"><time>2025-04-28T10:52:39.000Z</time><ele>426.6</ele></trkpt><trkpt lat="45.984916" lon="10.313453"><time>2025-04-28T10:52:40.000Z</time><ele>426.6</ele></trkpt><trkpt lat="45.984915" lon="10.313455"><time>2025-04-28T10:52:41.000Z</time><ele>426.6</ele></trkpt><trkpt lat="45.984915" lon="10.313452"><time>2025-04-28T10:52:42.000Z</time><ele>426.6</ele></trkpt><trkpt lat="45.984917" lon="10.313451"><time>2025-04-28T10:52:43.000Z</time><ele>426.6</ele></trkpt><trkpt lat="45.984914" lon="10.31345"><time>2025-04-28T10:52:44.000Z</time><ele>426.6</ele></trkpt><trkpt lat="45.984913" lon="10.313452"><time>2025-04-28T10:52:45.000Z</time><ele>426.6</ele></trkpt><trkpt lat="45.98491" lon="10.313455"><time>2025-04-28T10:52:46.000Z</time><ele>426.6</ele></trkpt><trkpt lat="45.984909" lon="10.313459"><time>2025-04-28T10:52:47.000Z</time><ele>426.6</ele></trkpt><trkpt lat="45.984908" lon="10.313461"><time>2025-04-28T10:52:48.000Z</time><ele>426.6</ele></trkpt><trkpt lat="45.984906" lon="10.313467"><time>2025-04-28T10:52:49.000Z</time><ele>426.6</ele></trkpt><trkpt lat="45.984904" lon="10.313472"><time>2025-04-28T10:52:50.000Z</time><ele>426.6</ele></trkpt><trkpt lat="45.984899" lon="10.313479"><time>2025-04-28T10:52:51.000Z</time><ele>426.6</ele></trkpt><trkpt lat="45.984895" lon="10.313486"><time>2025-04-28T10:52:52.000Z</time><ele>426.6</ele></trkpt><trkpt lat="45.984891" lon="10.313488"><time>2025-04-28T10:52:53.000Z</time><ele>426.6</ele></trkpt><trkpt lat="45.984892" lon="10.313489"><time>2025-04-28T10:52:54.000Z</time><ele>426.6</ele></trkpt><trkpt lat="45.984896" lon="10.313493"><time>2025-04-28T10:52:55.000Z</time><ele>426.6</ele></trkpt><trkpt lat="45.984898" lon="10.313497"><time>2025-04-28T10:52:56.000Z</time><ele>426.6</ele></trkpt><trkpt lat="45.984892" lon="10.313495"><time>2025-04-28T10:52:57.000Z</time><ele>426.6</ele></trkpt><trkpt lat="45.984885" lon="10.31349"><time>2025-04-28T10:52:58.000Z</time><ele>426.6</ele></trkpt><trkpt lat="45.984881" lon="10.313484"><time>2025-04-28T10:52:59.000Z</time><ele>426.6</ele></trkpt><trkpt lat="45.984873" lon="10.313471"><time>2025-04-28T10:53:00.000Z</time><ele>426.6</ele></trkpt><trkpt lat="45.984869" lon="10.313454"><time>2025-04-28T10:53:01.000Z</time><ele>426.6</ele></trkpt><trkpt lat="45.984869" lon="10.313436"><time>2025-04-28T10:53:02.000Z</time><ele>426.6</ele></trkpt><trkpt lat="45.984873" lon="10.313417"><time>2025-04-28T10:53:03.000Z</time><ele>426.6</ele></trkpt><trkpt lat="45.984876" lon="10.313398"><time>2025-04-28T10:53:04.000Z</time><ele>426.6</ele></trkpt><trkpt lat="45.984877" lon="10.313379"><time>2025-04-28T10:53:05.000Z</time><ele>426.6</ele></trkpt><trkpt lat="45.984881" lon="10.313366"><time>2025-04-28T10:53:06.000Z</time><ele>426.6</ele></trkpt><trkpt lat="45.984883" lon="10.313353"><time>2025-04-28T10:53:07.000Z</time><ele>426.6</ele></trkpt><trkpt lat="45.984877" lon="10.313333"><time>2025-04-28T10:53:08.000Z</time><ele>426.6</ele></trkpt><trkpt lat="45.984878" lon="10.313317"><time>2025-04-28T10:53:09.000Z</time><ele>426.6</ele></trkpt><trkpt lat="45.984884" lon="10.313296"><time>2025-04-28T10:53:10.000Z</time><ele>426.6</ele></trkpt><trkpt lat="45.98489" lon="10.313278"><time>2025-04-28T10:53:11.000Z</time><ele>426.6</ele></trkpt><trkpt lat="45.984897" lon="10.313257"><time>2025-04-28T10:53:12.000Z</time><ele>426.6</ele></trkpt><trkpt lat="45.984906" lon="10.313235"><time>2025-04-28T10:53:13.000Z</time><ele>426.6</ele></trkpt><trkpt lat="45.984917" lon="10.313212"><time>2025-04-28T10:53:14.000Z</time><ele>426.6</ele></trkpt><trkpt lat="45.984917" lon="10.313193"><time>2025-04-28T10:53:15.000Z</time><ele>428.2</ele></trkpt><trkpt lat="45.98492" lon="10.313173"><time>2025-04-28T10:53:16.000Z</time><ele>428.8</ele></trkpt><trkpt lat="45.984928" lon="10.313153"><time>2025-04-28T10:53:17.000Z</time><ele>429.4</ele></trkpt><trkpt lat="45.984924" lon="10.313121"><time>2025-04-28T10:53:18.000Z</time><ele>429.6</ele></trkpt><trkpt lat="45.984929" lon="10.313101"><time>2025-04-28T10:53:19.000Z</time><ele>429.8</ele></trkpt><trkpt lat="45.984944" lon="10.313086"><time>2025-04-28T10:53:20.000Z</time><ele>430</ele></trkpt><trkpt lat="45.984959" lon="10.313074"><time>2025-04-28T10:53:21.000Z</time><ele>430.2</ele></trkpt><trkpt lat="45.984966" lon="10.313062"><time>2025-04-28T10:53:22.000Z</time><ele>430.6</ele></trkpt><trkpt lat="45.984966" lon="10.313049"><time>2025-04-28T10:53:23.000Z</time><ele>430.8</ele></trkpt><trkpt lat="45.984978" lon="10.313042"><time>2025-04-28T10:53:24.000Z</time><ele>431</ele></trkpt><trkpt lat="45.98499" lon="10.313035"><time>2025-04-28T10:53:25.000Z</time><ele>431</ele></trkpt><trkpt lat="45.984997" lon="10.313031"><time>2025-04-28T10:53:26.000Z</time><ele>431.2</ele></trkpt><trkpt lat="45.985" lon="10.313025"><time>2025-04-28T10:53:27.000Z</time><ele>431.4</ele></trkpt><trkpt lat="45.985015" lon="10.313021"><time>2025-04-28T10:53:28.000Z</time><ele>431.6</ele></trkpt><trkpt lat="45.985028" lon="10.31301"><time>2025-04-28T10:53:29.000Z</time><ele>431.8</ele></trkpt><trkpt lat="45.985039" lon="10.312996"><time>2025-04-28T10:53:30.000Z</time><ele>432</ele></trkpt><trkpt lat="45.985047" lon="10.312986"><time>2025-04-28T10:53:31.000Z</time><ele>432.2</ele></trkpt><trkpt lat="45.985049" lon="10.312969"><time>2025-04-28T10:53:32.000Z</time><ele>432.4</ele></trkpt><trkpt lat="45.985042" lon="10.312951"><time>2025-04-28T10:53:33.000Z</time><ele>432.6</ele></trkpt><trkpt lat="45.985048" lon="10.312941"><time>2025-04-28T10:53:34.000Z</time><ele>432.8</ele></trkpt><trkpt lat="45.985054" lon="10.31294"><time>2025-04-28T10:53:35.000Z</time><ele>433</ele></trkpt><trkpt lat="45.985067" lon="10.312944"><time>2025-04-28T10:53:36.000Z</time><ele>433.4</ele></trkpt><trkpt lat="45.985069" lon="10.312944"><time>2025-04-28T10:53:37.000Z</time><ele>433.6</ele></trkpt><trkpt lat="45.985069" lon="10.312941"><time>2025-04-28T10:53:38.000Z</time><ele>433.8</ele></trkpt><trkpt lat="45.985069" lon="10.312937"><time>2025-04-28T10:53:39.000Z</time><ele>433.8</ele></trkpt><trkpt lat="45.985068" lon="10.312934"><time>2025-04-28T10:53:40.000Z</time><ele>434.2</ele></trkpt><trkpt lat="45.985069" lon="10.312931"><time>2025-04-28T10:53:41.000Z</time><ele>434.4</ele></trkpt><trkpt lat="45.985077" lon="10.312928"><time>2025-04-28T10:53:42.000Z</time><ele>434.8</ele></trkpt><trkpt lat="45.985079" lon="10.312927"><time>2025-04-28T10:53:43.000Z</time><ele>435</ele></trkpt><trkpt lat="45.98508" lon="10.312929"><time>2025-04-28T10:53:44.000Z</time><ele>435.2</ele></trkpt><trkpt lat="45.985086" lon="10.31293"><time>2025-04-28T10:53:45.000Z</time><ele>435.4</ele></trkpt><trkpt lat="45.985085" lon="10.312929"><time>2025-04-28T10:53:46.000Z</time><ele>435.6</ele></trkpt><trkpt lat="45.985084" lon="10.31293"><time>2025-04-28T10:53:47.000Z</time><ele>436</ele></trkpt><trkpt lat="45.985085" lon="10.312927"><time>2025-04-28T10:53:48.000Z</time><ele>436.2</ele></trkpt><trkpt lat="45.985081" lon="10.312925"><time>2025-04-28T10:53:49.000Z</time><ele>436.6</ele></trkpt><trkpt lat="45.985082" lon="10.312919"><time>2025-04-28T10:53:50.000Z</time><ele>436.8</ele></trkpt><trkpt lat="45.985088" lon="10.312908"><time>2025-04-28T10:53:51.000Z</time><ele>437</ele></trkpt><trkpt lat="45.985089" lon="10.312903"><time>2025-04-28T10:53:52.000Z</time><ele>437.4</ele></trkpt><trkpt lat="45.985092" lon="10.312892"><time>2025-04-28T10:53:53.000Z</time><ele>437.6</ele></trkpt><trkpt lat="45.985095" lon="10.31289"><time>2025-04-28T10:53:54.000Z</time><ele>438</ele></trkpt><trkpt lat="45.985105" lon="10.312881"><time>2025-04-28T10:53:55.000Z</time><ele>438.2</ele></trkpt><trkpt lat="45.985108" lon="10.312876"><time>2025-04-28T10:53:56.000Z</time><ele>438.4</ele></trkpt><trkpt lat="45.985111" lon="10.312873"><time>2025-04-28T10:53:57.000Z</time><ele>438.6</ele></trkpt><trkpt lat="45.98512" lon="10.31287"><time>2025-04-28T10:53:58.000Z</time><ele>438.8</ele></trkpt><trkpt lat="45.98512" lon="10.312869"><time>2025-04-28T10:53:59.000Z</time><ele>439</ele></trkpt><trkpt lat="45.985119" lon="10.312871"><time>2025-04-28T10:54:00.000Z</time><ele>439</ele></trkpt><trkpt lat="45.98512" lon="10.312868"><time>2025-04-28T10:54:01.000Z</time><ele>439.2</ele></trkpt><trkpt lat="45.985125" lon="10.312868"><time>2025-04-28T10:54:02.000Z</time><ele>439.4</ele></trkpt><trkpt lat="45.985129" lon="10.312865"><time>2025-04-28T10:54:03.000Z</time><ele>439.4</ele></trkpt><trkpt lat="45.985132" lon="10.312863"><time>2025-04-28T10:54:04.000Z</time><ele>439.6</ele></trkpt><trkpt lat="45.985135" lon="10.312861"><time>2025-04-28T10:54:05.000Z</time><ele>439.8</ele></trkpt><trkpt lat="45.985148" lon="10.312858"><time>2025-04-28T10:54:06.000Z</time><ele>440</ele></trkpt><trkpt lat="45.98516" lon="10.312855"><time>2025-04-28T10:54:07.000Z</time><ele>440.2</ele></trkpt><trkpt lat="45.985166" lon="10.312852"><time>2025-04-28T10:54:08.000Z</time><ele>440.4</ele></trkpt><trkpt lat="45.98517" lon="10.312849"><time>2025-04-28T10:54:09.000Z</time><ele>440.6</ele></trkpt><trkpt lat="45.985179" lon="10.312846"><time>2025-04-28T10:54:10.000Z</time><ele>441</ele></trkpt><trkpt lat="45.98519" lon="10.312843"><time>2025-04-28T10:54:11.000Z</time><ele>441</ele></trkpt><trkpt lat="45.985195" lon="10.31284"><time>2025-04-28T10:54:12.000Z</time><ele>441.4</ele></trkpt><trkpt lat="45.985201" lon="10.312838"><time>2025-04-28T10:54:13.000Z</time><ele>441.4</ele></trkpt><trkpt lat="45.985205" lon="10.312839"><time>2025-04-28T10:54:14.000Z</time><ele>441.6</ele></trkpt><trkpt lat="45.985212" lon="10.312841"><time>2025-04-28T10:54:15.000Z</time><ele>441.8</ele></trkpt><trkpt lat="45.985223" lon="10.312842"><time>2025-04-28T10:54:16.000Z</time><ele>442</ele></trkpt><trkpt lat="45.98523" lon="10.312841"><time>2025-04-28T10:54:17.000Z</time><ele>442</ele></trkpt><trkpt lat="45.985232" lon="10.312837"><time>2025-04-28T10:54:18.000Z</time><ele>442.2</ele></trkpt><trkpt lat="45.985233" lon="10.312834"><time>2025-04-28T10:54:19.000Z</time><ele>442.8</ele></trkpt><trkpt lat="45.985236" lon="10.312833"><time>2025-04-28T10:54:20.000Z</time><ele>443</ele></trkpt><trkpt lat="45.985243" lon="10.312826"><time>2025-04-28T10:54:21.000Z</time><ele>443.2</ele></trkpt><trkpt lat="45.985246" lon="10.312823"><time>2025-04-28T10:54:22.000Z</time><ele>443.4</ele></trkpt><trkpt lat="45.98526" lon="10.312818"><time>2025-04-28T10:54:23.000Z</time><ele>443.6</ele></trkpt><trkpt lat="45.985272" lon="10.312814"><time>2025-04-28T10:54:24.000Z</time><ele>443.8</ele></trkpt><trkpt lat="45.985275" lon="10.312816"><time>2025-04-28T10:54:25.000Z</time><ele>444.2</ele></trkpt><trkpt lat="45.98528" lon="10.312817"><time>2025-04-28T10:54:26.000Z</time><ele>444.4</ele></trkpt><trkpt lat="45.985283" lon="10.312815"><time>2025-04-28T10:54:27.000Z</time><ele>444.4</ele></trkpt><trkpt lat="45.985297" lon="10.312792"><time>2025-04-28T10:54:28.000Z</time><ele>444.8</ele></trkpt><trkpt lat="45.985297" lon="10.312788"><time>2025-04-28T10:54:29.000Z</time><ele>445</ele></trkpt><trkpt lat="45.985297" lon="10.312788"><time>2025-04-28T10:54:30.000Z</time><ele>445.4</ele></trkpt><trkpt lat="45.9853" lon="10.312789"><time>2025-04-28T10:54:31.000Z</time><ele>445.6</ele></trkpt><trkpt lat="45.9853" lon="10.312792"><time>2025-04-28T10:54:32.000Z</time><ele>445.8</ele></trkpt><trkpt lat="45.985303" lon="10.312781"><time>2025-04-28T10:54:33.000Z</time><ele>446</ele></trkpt><trkpt lat="45.985307" lon="10.312769"><time>2025-04-28T10:54:34.000Z</time><ele>446.2</ele></trkpt><trkpt lat="45.985308" lon="10.312766"><time>2025-04-28T10:54:35.000Z</time><ele>446.2</ele></trkpt><trkpt lat="45.985311" lon="10.312766"><time>2025-04-28T10:54:36.000Z</time><ele>446.4</ele></trkpt><trkpt lat="45.985319" lon="10.312774"><time>2025-04-28T10:54:37.000Z</time><ele>446.4</ele></trkpt><trkpt lat="45.985325" lon="10.312771"><time>2025-04-28T10:54:38.000Z</time><ele>446.6</ele></trkpt><trkpt lat="45.985329" lon="10.312773"><time>2025-04-28T10:54:39.000Z</time><ele>446.8</ele></trkpt><trkpt lat="45.985332" lon="10.312772"><time>2025-04-28T10:54:40.000Z</time><ele>446.8</ele></trkpt><trkpt lat="45.985341" lon="10.312773"><time>2025-04-28T10:54:41.000Z</time><ele>447</ele></trkpt><trkpt lat="45.985349" lon="10.312772"><time>2025-04-28T10:54:42.000Z</time><ele>447</ele></trkpt><trkpt lat="45.985356" lon="10.312768"><time>2025-04-28T10:54:43.000Z</time><ele>447.2</ele></trkpt><trkpt lat="45.985362" lon="10.31276"><time>2025-04-28T10:54:44.000Z</time><ele>447.4</ele></trkpt><trkpt lat="45.985367" lon="10.312753"><time>2025-04-28T10:54:45.000Z</time><ele>447.4</ele></trkpt><trkpt lat="45.985372" lon="10.312752"><time>2025-04-28T10:54:46.000Z</time><ele>447.6</ele></trkpt><trkpt lat="45.985381" lon="10.312745"><time>2025-04-28T10:54:47.000Z</time><ele>447.8</ele></trkpt><trkpt lat="45.98539" lon="10.312737"><time>2025-04-28T10:54:48.000Z</time><ele>448</ele></trkpt><trkpt lat="45.985401" lon="10.312731"><time>2025-04-28T10:54:49.000Z</time><ele>448.2</ele></trkpt><trkpt lat="45.985409" lon="10.312726"><time>2025-04-28T10:54:50.000Z</time><ele>448.4</ele></trkpt><trkpt lat="45.985415" lon="10.312722"><time>2025-04-28T10:54:51.000Z</time><ele>448.6</ele></trkpt><trkpt lat="45.985423" lon="10.312719"><time>2025-04-28T10:54:52.000Z</time><ele>448.8</ele></trkpt><trkpt lat="45.985428" lon="10.312716"><time>2025-04-28T10:54:53.000Z</time><ele>448.8</ele></trkpt><trkpt lat="45.985435" lon="10.312707"><time>2025-04-28T10:54:54.000Z</time><ele>449</ele></trkpt><trkpt lat="45.985438" lon="10.312693"><time>2025-04-28T10:54:55.000Z</time><ele>449</ele></trkpt><trkpt lat="45.985441" lon="10.312687"><time>2025-04-28T10:54:56.000Z</time><ele>449.4</ele></trkpt><trkpt lat="45.985444" lon="10.312677"><time>2025-04-28T10:54:57.000Z</time><ele>449.6</ele></trkpt><trkpt lat="45.985446" lon="10.312668"><time>2025-04-28T10:54:58.000Z</time><ele>449.8</ele></trkpt><trkpt lat="45.985452" lon="10.312661"><time>2025-04-28T10:54:59.000Z</time><ele>449.8</ele></trkpt><trkpt lat="45.985455" lon="10.312656"><time>2025-04-28T10:55:00.000Z</time><ele>450</ele></trkpt><trkpt lat="45.985457" lon="10.312641"><time>2025-04-28T10:55:01.000Z</time><ele>450</ele></trkpt><trkpt lat="45.985468" lon="10.312628"><time>2025-04-28T10:55:02.000Z</time><ele>450</ele></trkpt><trkpt lat="45.985474" lon="10.312621"><time>2025-04-28T10:55:03.000Z</time><ele>450.2</ele></trkpt><trkpt lat="45.985481" lon="10.312614"><time>2025-04-28T10:55:04.000Z</time><ele>450.2</ele></trkpt><trkpt lat="45.985472" lon="10.312596"><time>2025-04-28T10:55:05.000Z</time><ele>450</ele></trkpt><trkpt lat="45.98547" lon="10.312584"><time>2025-04-28T10:55:06.000Z</time><ele>450</ele></trkpt><trkpt lat="45.985469" lon="10.312576"><time>2025-04-28T10:55:07.000Z</time><ele>449.8</ele></trkpt><trkpt lat="45.985471" lon="10.31257"><time>2025-04-28T10:55:08.000Z</time><ele>449.8</ele></trkpt><trkpt lat="45.985472" lon="10.312568"><time>2025-04-28T10:55:09.000Z</time><ele>449.6</ele></trkpt><trkpt lat="45.985469" lon="10.312568"><time>2025-04-28T10:55:10.000Z</time><ele>449.6</ele></trkpt><trkpt lat="45.985463" lon="10.312548"><time>2025-04-28T10:55:11.000Z</time><ele>449.4</ele></trkpt><trkpt lat="45.985462" lon="10.312547"><time>2025-04-28T10:55:12.000Z</time><ele>449.2</ele></trkpt><trkpt lat="45.985465" lon="10.312541"><time>2025-04-28T10:55:13.000Z</time><ele>449</ele></trkpt><trkpt lat="45.985464" lon="10.312535"><time>2025-04-28T10:55:14.000Z</time><ele>448.8</ele></trkpt><trkpt lat="45.985465" lon="10.312536"><time>2025-04-28T10:55:15.000Z</time><ele>448.8</ele></trkpt><trkpt lat="45.985465" lon="10.312538"><time>2025-04-28T10:55:16.000Z</time><ele>448.8</ele></trkpt><trkpt lat="45.985465" lon="10.312542"><time>2025-04-28T10:55:17.000Z</time><ele>448.6</ele></trkpt><trkpt lat="45.985467" lon="10.312548"><time>2025-04-28T10:55:18.000Z</time><ele>448.6</ele></trkpt><trkpt lat="45.985473" lon="10.312515"><time>2025-04-28T10:55:19.000Z</time><ele>448.6</ele></trkpt><trkpt lat="45.985476" lon="10.312488"><time>2025-04-28T10:55:20.000Z</time><ele>448.6</ele></trkpt><trkpt lat="45.985477" lon="10.312488"><time>2025-04-28T10:55:21.000Z</time><ele>448.8</ele></trkpt><trkpt lat="45.985475" lon="10.312485"><time>2025-04-28T10:55:22.000Z</time><ele>448.8</ele></trkpt><trkpt lat="45.985475" lon="10.312485"><time>2025-04-28T10:55:23.000Z</time><ele>448.8</ele></trkpt><trkpt lat="45.985474" lon="10.312485"><time>2025-04-28T10:55:24.000Z</time><ele>448.8</ele></trkpt><trkpt lat="45.985475" lon="10.312485"><time>2025-04-28T10:55:25.000Z</time><ele>448.8</ele></trkpt><trkpt lat="45.985475" lon="10.312485"><time>2025-04-28T10:55:26.000Z</time><ele>448.8</ele></trkpt><trkpt lat="45.985475" lon="10.312484"><time>2025-04-28T10:55:27.000Z</time><ele>448.8</ele></trkpt><trkpt lat="45.985471" lon="10.312482"><time>2025-04-28T10:55:28.000Z</time><ele>448.8</ele></trkpt><trkpt lat="45.985467" lon="10.312478"><time>2025-04-28T10:55:29.000Z</time><ele>448.8</ele></trkpt><trkpt lat="45.985467" lon="10.312477"><time>2025-04-28T10:55:30.000Z</time><ele>448.8</ele></trkpt><trkpt lat="45.985468" lon="10.312477"><time>2025-04-28T10:55:31.000Z</time><ele>448.8</ele></trkpt><trkpt lat="45.985469" lon="10.312478"><time>2025-04-28T10:55:32.000Z</time><ele>448.8</ele></trkpt><trkpt lat="45.985471" lon="10.312476"><time>2025-04-28T10:55:33.000Z</time><ele>448.8</ele></trkpt><trkpt lat="45.985472" lon="10.312476"><time>2025-04-28T10:55:34.000Z</time><ele>448.8</ele></trkpt><trkpt lat="45.985472" lon="10.312473"><time>2025-04-28T10:55:35.000Z</time><ele>448.8</ele></trkpt><trkpt lat="45.985473" lon="10.312471"><time>2025-04-28T10:55:36.000Z</time><ele>448.8</ele></trkpt><trkpt lat="45.985476" lon="10.312472"><time>2025-04-28T10:55:37.000Z</time><ele>448.8</ele></trkpt><trkpt lat="45.985478" lon="10.312474"><time>2025-04-28T10:55:38.000Z</time><ele>448.8</ele></trkpt><trkpt lat="45.985479" lon="10.312474"><time>2025-04-28T10:55:39.000Z</time><ele>448.8</ele></trkpt><trkpt lat="45.985479" lon="10.312474"><time>2025-04-28T10:55:40.000Z</time><ele>448.8</ele></trkpt><trkpt lat="45.985477" lon="10.312473"><time>2025-04-28T10:55:41.000Z</time><ele>448.8</ele></trkpt><trkpt lat="45.985477" lon="10.312471"><time>2025-04-28T10:55:42.000Z</time><ele>448.8</ele></trkpt><trkpt lat="45.985472" lon="10.312466"><time>2025-04-28T10:55:43.000Z</time><ele>448.8</ele></trkpt><trkpt lat="45.985474" lon="10.312465"><time>2025-04-28T10:55:44.000Z</time><ele>448.8</ele></trkpt><trkpt lat="45.985475" lon="10.312465"><time>2025-04-28T10:55:45.000Z</time><ele>448.8</ele></trkpt><trkpt lat="45.985475" lon="10.312469"><time>2025-04-28T10:55:46.000Z</time><ele>448.8</ele></trkpt><trkpt lat="45.98547" lon="10.312477"><time>2025-04-28T10:55:47.000Z</time><ele>448.8</ele></trkpt><trkpt lat="45.985471" lon="10.312488"><time>2025-04-28T10:55:48.000Z</time><ele>448.8</ele></trkpt><trkpt lat="45.985472" lon="10.312495"><time>2025-04-28T10:55:49.000Z</time><ele>448.8</ele></trkpt><trkpt lat="45.985471" lon="10.312497"><time>2025-04-28T10:55:50.000Z</time><ele>449</ele></trkpt><trkpt lat="45.985467" lon="10.312493"><time>2025-04-28T10:55:51.000Z</time><ele>449</ele></trkpt><trkpt lat="45.985462" lon="10.312491"><time>2025-04-28T10:55:52.000Z</time><ele>449.2</ele></trkpt><trkpt lat="45.985457" lon="10.312492"><time>2025-04-28T10:55:53.000Z</time><ele>449.2</ele></trkpt><trkpt lat="45.985449" lon="10.312494"><time>2025-04-28T10:55:54.000Z</time><ele>449.4</ele></trkpt><trkpt lat="45.985441" lon="10.312501"><time>2025-04-28T10:55:55.000Z</time><ele>449.6</ele></trkpt><trkpt lat="45.985437" lon="10.312512"><time>2025-04-28T10:55:56.000Z</time><ele>449.8</ele></trkpt><trkpt lat="45.985433" lon="10.312526"><time>2025-04-28T10:55:57.000Z</time><ele>450</ele></trkpt><trkpt lat="45.985428" lon="10.312536"><time>2025-04-28T10:55:58.000Z</time><ele>450.2</ele></trkpt><trkpt lat="45.985423" lon="10.312542"><time>2025-04-28T10:55:59.000Z</time><ele>450.2</ele></trkpt><trkpt lat="45.985415" lon="10.312549"><time>2025-04-28T10:56:00.000Z</time><ele>450.4</ele></trkpt><trkpt lat="45.98541" lon="10.312559"><time>2025-04-28T10:56:01.000Z</time><ele>450.4</ele></trkpt><trkpt lat="45.985406" lon="10.312569"><time>2025-04-28T10:56:02.000Z</time><ele>450.4</ele></trkpt><trkpt lat="45.985403" lon="10.312562"><time>2025-04-28T10:56:03.000Z</time><ele>450.4</ele></trkpt><trkpt lat="45.985395" lon="10.312553"><time>2025-04-28T10:56:04.000Z</time><ele>450.2</ele></trkpt><trkpt lat="45.985389" lon="10.312553"><time>2025-04-28T10:56:05.000Z</time><ele>449.8</ele></trkpt><trkpt lat="45.985378" lon="10.312544"><time>2025-04-28T10:56:06.000Z</time><ele>449.6</ele></trkpt><trkpt lat="45.985368" lon="10.312536"><time>2025-04-28T10:56:07.000Z</time><ele>449.4</ele></trkpt><trkpt lat="45.985358" lon="10.312535"><time>2025-04-28T10:56:08.000Z</time><ele>449</ele></trkpt><trkpt lat="45.985352" lon="10.31254"><time>2025-04-28T10:56:09.000Z</time><ele>448.8</ele></trkpt><trkpt lat="45.985349" lon="10.312548"><time>2025-04-28T10:56:10.000Z</time><ele>448.4</ele></trkpt><trkpt lat="45.985348" lon="10.312557"><time>2025-04-28T10:56:11.000Z</time><ele>448</ele></trkpt><trkpt lat="45.985349" lon="10.312571"><time>2025-04-28T10:56:12.000Z</time><ele>447.8</ele></trkpt><trkpt lat="45.985352" lon="10.312589"><time>2025-04-28T10:56:13.000Z</time><ele>447.4</ele></trkpt><trkpt lat="45.985354" lon="10.312605"><time>2025-04-28T10:56:14.000Z</time><ele>447.2</ele></trkpt><trkpt lat="45.985348" lon="10.312606"><time>2025-04-28T10:56:15.000Z</time><ele>447</ele></trkpt><trkpt lat="45.985341" lon="10.312606"><time>2025-04-28T10:56:16.000Z</time><ele>446.6</ele></trkpt><trkpt lat="45.985339" lon="10.312617"><time>2025-04-28T10:56:17.000Z</time><ele>446.4</ele></trkpt><trkpt lat="45.985339" lon="10.312623"><time>2025-04-28T10:56:18.000Z</time><ele>446.2</ele></trkpt><trkpt lat="45.985338" lon="10.312618"><time>2025-04-28T10:56:19.000Z</time><ele>445.8</ele></trkpt><trkpt lat="45.985335" lon="10.312615"><time>2025-04-28T10:56:20.000Z</time><ele>445.6</ele></trkpt><trkpt lat="45.985331" lon="10.312618"><time>2025-04-28T10:56:21.000Z</time><ele>445.6</ele></trkpt><trkpt lat="45.985323" lon="10.312615"><time>2025-04-28T10:56:22.000Z</time><ele>445.4</ele></trkpt><trkpt lat="45.985312" lon="10.312618"><time>2025-04-28T10:56:23.000Z</time><ele>445.2</ele></trkpt><trkpt lat="45.985306" lon="10.312621"><time>2025-04-28T10:56:24.000Z</time><ele>445.2</ele></trkpt><trkpt lat="45.985297" lon="10.312626"><time>2025-04-28T10:56:25.000Z</time><ele>445</ele></trkpt><trkpt lat="45.985294" lon="10.312637"><time>2025-04-28T10:56:26.000Z</time><ele>444.6</ele></trkpt><trkpt lat="45.985292" lon="10.312649"><time>2025-04-28T10:56:27.000Z</time><ele>444.2</ele></trkpt><trkpt lat="45.985284" lon="10.312662"><time>2025-04-28T10:56:28.000Z</time><ele>443.8</ele></trkpt><trkpt lat="45.985279" lon="10.312668"><time>2025-04-28T10:56:29.000Z</time><ele>443.6</ele></trkpt><trkpt lat="45.985271" lon="10.312681"><time>2025-04-28T10:56:30.000Z</time><ele>443.2</ele></trkpt><trkpt lat="45.985264" lon="10.312686"><time>2025-04-28T10:56:31.000Z</time><ele>443</ele></trkpt><trkpt lat="45.985258" lon="10.3127"><time>2025-04-28T10:56:32.000Z</time><ele>442.6</ele></trkpt><trkpt lat="45.985254" lon="10.312707"><time>2025-04-28T10:56:33.000Z</time><ele>442.4</ele></trkpt><trkpt lat="45.985244" lon="10.312712"><time>2025-04-28T10:56:34.000Z</time><ele>442.2</ele></trkpt><trkpt lat="45.985231" lon="10.312709"><time>2025-04-28T10:56:35.000Z</time><ele>442</ele></trkpt><trkpt lat="45.985223" lon="10.312705"><time>2025-04-28T10:56:36.000Z</time><ele>441.8</ele></trkpt><trkpt lat="45.985215" lon="10.312706"><time>2025-04-28T10:56:37.000Z</time><ele>441.6</ele></trkpt><trkpt lat="45.985208" lon="10.312708"><time>2025-04-28T10:56:38.000Z</time><ele>441.4</ele></trkpt><trkpt lat="45.985199" lon="10.312704"><time>2025-04-28T10:56:39.000Z</time><ele>441</ele></trkpt><trkpt lat="45.985189" lon="10.3127"><time>2025-04-28T10:56:40.000Z</time><ele>440.8</ele></trkpt><trkpt lat="45.985182" lon="10.312704"><time>2025-04-28T10:56:41.000Z</time><ele>440.6</ele></trkpt><trkpt lat="45.985174" lon="10.312714"><time>2025-04-28T10:56:42.000Z</time><ele>440.4</ele></trkpt><trkpt lat="45.98517" lon="10.312719"><time>2025-04-28T10:56:43.000Z</time><ele>440.2</ele></trkpt><trkpt lat="45.985168" lon="10.312725"><time>2025-04-28T10:56:44.000Z</time><ele>439.8</ele></trkpt><trkpt lat="45.985161" lon="10.312725"><time>2025-04-28T10:56:45.000Z</time><ele>439.6</ele></trkpt><trkpt lat="45.985158" lon="10.312732"><time>2025-04-28T10:56:46.000Z</time><ele>439.6</ele></trkpt><trkpt lat="45.985156" lon="10.312743"><time>2025-04-28T10:56:47.000Z</time><ele>439.2</ele></trkpt><trkpt lat="45.985151" lon="10.312752"><time>2025-04-28T10:56:48.000Z</time><ele>439</ele></trkpt><trkpt lat="45.985149" lon="10.312759"><time>2025-04-28T10:56:49.000Z</time><ele>438.8</ele></trkpt><trkpt lat="45.985142" lon="10.312763"><time>2025-04-28T10:56:50.000Z</time><ele>438.4</ele></trkpt><trkpt lat="45.985131" lon="10.312764"><time>2025-04-28T10:56:51.000Z</time><ele>438.4</ele></trkpt><trkpt lat="45.985122" lon="10.312768"><time>2025-04-28T10:56:52.000Z</time><ele>438</ele></trkpt><trkpt lat="45.985119" lon="10.312773"><time>2025-04-28T10:56:53.000Z</time><ele>437.8</ele></trkpt><trkpt lat="45.985117" lon="10.312784"><time>2025-04-28T10:56:54.000Z</time><ele>437.6</ele></trkpt><trkpt lat="45.985111" lon="10.312791"><time>2025-04-28T10:56:55.000Z</time><ele>437.2</ele></trkpt><trkpt lat="45.985105" lon="10.3128"><time>2025-04-28T10:56:56.000Z</time><ele>437</ele></trkpt><trkpt lat="45.985102" lon="10.312805"><time>2025-04-28T10:56:57.000Z</time><ele>436.8</ele></trkpt><trkpt lat="45.985105" lon="10.312808"><time>2025-04-28T10:56:58.000Z</time><ele>436.4</ele></trkpt><trkpt lat="45.985106" lon="10.312812"><time>2025-04-28T10:56:59.000Z</time><ele>436.2</ele></trkpt><trkpt lat="45.985101" lon="10.31282"><time>2025-04-28T10:57:00.000Z</time><ele>436</ele></trkpt><trkpt lat="45.985093" lon="10.312828"><time>2025-04-28T10:57:01.000Z</time><ele>435.6</ele></trkpt><trkpt lat="45.985085" lon="10.312833"><time>2025-04-28T10:57:02.000Z</time><ele>435.4</ele></trkpt><trkpt lat="45.985076" lon="10.312837"><time>2025-04-28T10:57:03.000Z</time><ele>435.2</ele></trkpt><trkpt lat="45.985072" lon="10.312843"><time>2025-04-28T10:57:04.000Z</time><ele>435</ele></trkpt><trkpt lat="45.985066" lon="10.312849"><time>2025-04-28T10:57:05.000Z</time><ele>434.6</ele></trkpt><trkpt lat="45.985063" lon="10.312853"><time>2025-04-28T10:57:06.000Z</time><ele>434.4</ele></trkpt><trkpt lat="45.985066" lon="10.312861"><time>2025-04-28T10:57:07.000Z</time><ele>434</ele></trkpt><trkpt lat="45.98507" lon="10.312867"><time>2025-04-28T10:57:08.000Z</time><ele>433.8</ele></trkpt><trkpt lat="45.985065" lon="10.312875"><time>2025-04-28T10:57:09.000Z</time><ele>433.6</ele></trkpt><trkpt lat="45.985052" lon="10.312874"><time>2025-04-28T10:57:10.000Z</time><ele>433.2</ele></trkpt><trkpt lat="45.985046" lon="10.31288"><time>2025-04-28T10:57:11.000Z</time><ele>432.8</ele></trkpt><trkpt lat="45.985032" lon="10.312881"><time>2025-04-28T10:57:12.000Z</time><ele>432.6</ele></trkpt><trkpt lat="45.985022" lon="10.312889"><time>2025-04-28T10:57:13.000Z</time><ele>432.4</ele></trkpt><trkpt lat="45.985013" lon="10.312894"><time>2025-04-28T10:57:14.000Z</time><ele>432.2</ele></trkpt><trkpt lat="45.985004" lon="10.312898"><time>2025-04-28T10:57:15.000Z</time><ele>432</ele></trkpt><trkpt lat="45.984995" lon="10.312904"><time>2025-04-28T10:57:16.000Z</time><ele>431.8</ele></trkpt><trkpt lat="45.984986" lon="10.312911"><time>2025-04-28T10:57:17.000Z</time><ele>431.6</ele></trkpt><trkpt lat="45.984978" lon="10.312922"><time>2025-04-28T10:57:18.000Z</time><ele>431.6</ele></trkpt><trkpt lat="45.984972" lon="10.312934"><time>2025-04-28T10:57:19.000Z</time><ele>431.6</ele></trkpt><trkpt lat="45.984965" lon="10.312943"><time>2025-04-28T10:57:20.000Z</time><ele>431.2</ele></trkpt><trkpt lat="45.984959" lon="10.312953"><time>2025-04-28T10:57:21.000Z</time><ele>431.2</ele></trkpt><trkpt lat="45.984956" lon="10.31298"><time>2025-04-28T10:57:22.000Z</time><ele>431</ele></trkpt><trkpt lat="45.984955" lon="10.313"><time>2025-04-28T10:57:23.000Z</time><ele>430.8</ele></trkpt><trkpt lat="45.984956" lon="10.313017"><time>2025-04-28T10:57:24.000Z</time><ele>430.6</ele></trkpt><trkpt lat="45.98495" lon="10.31303"><time>2025-04-28T10:57:25.000Z</time><ele>430.4</ele></trkpt><trkpt lat="45.984946" lon="10.313044"><time>2025-04-28T10:57:26.000Z</time><ele>430.4</ele></trkpt><trkpt lat="45.984939" lon="10.313055"><time>2025-04-28T10:57:27.000Z</time><ele>430</ele></trkpt><trkpt lat="45.984934" lon="10.313067"><time>2025-04-28T10:57:28.000Z</time><ele>429.8</ele></trkpt><trkpt lat="45.984934" lon="10.313082"><time>2025-04-28T10:57:29.000Z</time><ele>429.6</ele></trkpt><trkpt lat="45.984949" lon="10.313098"><time>2025-04-28T10:57:30.000Z</time><ele>429.4</ele></trkpt><trkpt lat="45.984965" lon="10.313131"><time>2025-04-28T10:57:31.000Z</time><ele>429.2</ele></trkpt><trkpt lat="45.98497" lon="10.313146"><time>2025-04-28T10:57:32.000Z</time><ele>429</ele></trkpt><trkpt lat="45.984969" lon="10.313162"><time>2025-04-28T10:57:33.000Z</time><ele>428.8</ele></trkpt><trkpt lat="45.984962" lon="10.313174"><time>2025-04-28T10:57:34.000Z</time><ele>428.6</ele></trkpt><trkpt lat="45.984956" lon="10.31318"><time>2025-04-28T10:57:35.000Z</time><ele>428.4</ele></trkpt><trkpt lat="45.984951" lon="10.313187"><time>2025-04-28T10:57:36.000Z</time><ele>428.2</ele></trkpt><trkpt lat="45.984947" lon="10.313195"><time>2025-04-28T10:57:37.000Z</time><ele>428.2</ele></trkpt><trkpt lat="45.984948" lon="10.313204"><time>2025-04-28T10:57:38.000Z</time><ele>428</ele></trkpt><trkpt lat="45.984948" lon="10.313217"><time>2025-04-28T10:57:39.000Z</time><ele>427.8</ele></trkpt><trkpt lat="45.984945" lon="10.313236"><time>2025-04-28T10:57:40.000Z</time><ele>427.4</ele></trkpt><trkpt lat="45.984945" lon="10.313254"><time>2025-04-28T10:57:41.000Z</time><ele>427.2</ele></trkpt><trkpt lat="45.984948" lon="10.313267"><time>2025-04-28T10:57:42.000Z</time><ele>427</ele></trkpt><trkpt lat="45.984952" lon="10.313277"><time>2025-04-28T10:57:43.000Z</time><ele>427</ele></trkpt><trkpt lat="45.984948" lon="10.313291"><time>2025-04-28T10:57:44.000Z</time><ele>427</ele></trkpt><trkpt lat="45.984945" lon="10.313297"><time>2025-04-28T10:57:45.000Z</time><ele>426.8</ele></trkpt><trkpt lat="45.984944" lon="10.313303"><time>2025-04-28T10:57:46.000Z</time><ele>427</ele></trkpt><trkpt lat="45.984947" lon="10.313313"><time>2025-04-28T10:57:47.000Z</time><ele>427</ele></trkpt><trkpt lat="45.984945" lon="10.313325"><time>2025-04-28T10:57:48.000Z</time><ele>427</ele></trkpt><trkpt lat="45.984945" lon="10.313339"><time>2025-04-28T10:57:49.000Z</time><ele>427</ele></trkpt><trkpt lat="45.984946" lon="10.313357"><time>2025-04-28T10:57:50.000Z</time><ele>427</ele></trkpt><trkpt lat="45.984947" lon="10.313377"><time>2025-04-28T10:57:51.000Z</time><ele>426.8</ele></trkpt><trkpt lat="45.984948" lon="10.313392"><time>2025-04-28T10:57:52.000Z</time><ele>426.6</ele></trkpt><trkpt lat="45.984948" lon="10.313409"><time>2025-04-28T10:57:53.000Z</time><ele>426.2</ele></trkpt><trkpt lat="45.984949" lon="10.313424"><time>2025-04-28T10:57:54.000Z</time><ele>426</ele></trkpt><trkpt lat="45.984951" lon="10.313434"><time>2025-04-28T10:57:55.000Z</time><ele>426</ele></trkpt><trkpt lat="45.984957" lon="10.313444"><time>2025-04-28T10:57:56.000Z</time><ele>425.6</ele></trkpt><trkpt lat="45.984959" lon="10.313461"><time>2025-04-28T10:57:57.000Z</time><ele>425.4</ele></trkpt><trkpt lat="45.984961" lon="10.313471"><time>2025-04-28T10:57:58.000Z</time><ele>425.4</ele></trkpt><trkpt lat="45.984967" lon="10.313486"><time>2025-04-28T10:57:59.000Z</time><ele>425.2</ele></trkpt><trkpt lat="45.984974" lon="10.3135"><time>2025-04-28T10:58:00.000Z</time><ele>424.8</ele></trkpt><trkpt lat="45.984978" lon="10.313518"><time>2025-04-28T10:58:01.000Z</time><ele>424.6</ele></trkpt><trkpt lat="45.984978" lon="10.31354"><time>2025-04-28T10:58:02.000Z</time><ele>424.6</ele></trkpt><trkpt lat="45.984984" lon="10.313564"><time>2025-04-28T10:58:03.000Z</time><ele>424.4</ele></trkpt><trkpt lat="45.984988" lon="10.313584"><time>2025-04-28T10:58:04.000Z</time><ele>424</ele></trkpt><trkpt lat="45.984991" lon="10.3136"><time>2025-04-28T10:58:05.000Z</time><ele>423.6</ele></trkpt><trkpt lat="45.985002" lon="10.313611"><time>2025-04-28T10:58:06.000Z</time><ele>423.6</ele></trkpt><trkpt lat="45.985005" lon="10.313621"><time>2025-04-28T10:58:07.000Z</time><ele>423.2</ele></trkpt><trkpt lat="45.985013" lon="10.313633"><time>2025-04-28T10:58:08.000Z</time><ele>422.8</ele></trkpt><trkpt lat="45.985014" lon="10.31365"><time>2025-04-28T10:58:09.000Z</time><ele>422.4</ele></trkpt><trkpt lat="45.985013" lon="10.313668"><time>2025-04-28T10:58:10.000Z</time><ele>422.2</ele></trkpt><trkpt lat="45.985015" lon="10.313681"><time>2025-04-28T10:58:11.000Z</time><ele>422</ele></trkpt><trkpt lat="45.985016" lon="10.313687"><time>2025-04-28T10:58:12.000Z</time><ele>421.8</ele></trkpt><trkpt lat="45.985018" lon="10.313691"><time>2025-04-28T10:58:13.000Z</time><ele>421.6</ele></trkpt><trkpt lat="45.985015" lon="10.313698"><time>2025-04-28T10:58:14.000Z</time><ele>421.2</ele></trkpt><trkpt lat="45.985015" lon="10.313708"><time>2025-04-28T10:58:15.000Z</time><ele>421</ele></trkpt><trkpt lat="45.98501" lon="10.313713"><time>2025-04-28T10:58:16.000Z</time><ele>420.8</ele></trkpt><trkpt lat="45.985006" lon="10.313727"><time>2025-04-28T10:58:17.000Z</time><ele>420.6</ele></trkpt><trkpt lat="45.985001" lon="10.313735"><time>2025-04-28T10:58:18.000Z</time><ele>420.4</ele></trkpt><trkpt lat="45.984996" lon="10.31374"><time>2025-04-28T10:58:19.000Z</time><ele>420.2</ele></trkpt><trkpt lat="45.984993" lon="10.313746"><time>2025-04-28T10:58:20.000Z</time><ele>419.8</ele></trkpt><trkpt lat="45.984994" lon="10.313755"><time>2025-04-28T10:58:21.000Z</time><ele>419.8</ele></trkpt><trkpt lat="45.984991" lon="10.313773"><time>2025-04-28T10:58:22.000Z</time><ele>419.4</ele></trkpt><trkpt lat="45.98499" lon="10.313788"><time>2025-04-28T10:58:23.000Z</time><ele>419.2</ele></trkpt><trkpt lat="45.984985" lon="10.313803"><time>2025-04-28T10:58:24.000Z</time><ele>419</ele></trkpt><trkpt lat="45.984987" lon="10.313819"><time>2025-04-28T10:58:25.000Z</time><ele>418.8</ele></trkpt><trkpt lat="45.98498" lon="10.313831"><time>2025-04-28T10:58:26.000Z</time><ele>418.6</ele></trkpt><trkpt lat="45.984973" lon="10.31384"><time>2025-04-28T10:58:27.000Z</time><ele>418.4</ele></trkpt><trkpt lat="45.984962" lon="10.313841"><time>2025-04-28T10:58:28.000Z</time><ele>418</ele></trkpt><trkpt lat="45.984955" lon="10.313846"><time>2025-04-28T10:58:29.000Z</time><ele>417.8</ele></trkpt><trkpt lat="45.984949" lon="10.313856"><time>2025-04-28T10:58:30.000Z</time><ele>417.4</ele></trkpt><trkpt lat="45.984944" lon="10.313865"><time>2025-04-28T10:58:31.000Z</time><ele>417.2</ele></trkpt><trkpt lat="45.984933" lon="10.313875"><time>2025-04-28T10:58:32.000Z</time><ele>417</ele></trkpt><trkpt lat="45.984925" lon="10.313891"><time>2025-04-28T10:58:33.000Z</time><ele>417</ele></trkpt><trkpt lat="45.984921" lon="10.313907"><time>2025-04-28T10:58:34.000Z</time><ele>416.8</ele></trkpt><trkpt lat="45.984917" lon="10.31392"><time>2025-04-28T10:58:35.000Z</time><ele>416.6</ele></trkpt><trkpt lat="45.984908" lon="10.313926"><time>2025-04-28T10:58:36.000Z</time><ele>416.4</ele></trkpt><trkpt lat="45.984902" lon="10.313933"><time>2025-04-28T10:58:37.000Z</time><ele>416.2</ele></trkpt><trkpt lat="45.984898" lon="10.313942"><time>2025-04-28T10:58:38.000Z</time><ele>416</ele></trkpt><trkpt lat="45.984894" lon="10.313951"><time>2025-04-28T10:58:39.000Z</time><ele>415.6</ele></trkpt><trkpt lat="45.984892" lon="10.313966"><time>2025-04-28T10:58:40.000Z</time><ele>415.4</ele></trkpt><trkpt lat="45.984884" lon="10.313978"><time>2025-04-28T10:58:41.000Z</time><ele>415</ele></trkpt><trkpt lat="45.984882" lon="10.313995"><time>2025-04-28T10:58:42.000Z</time><ele>415</ele></trkpt><trkpt lat="45.984883" lon="10.314011"><time>2025-04-28T10:58:43.000Z</time><ele>414.6</ele></trkpt><trkpt lat="45.984881" lon="10.314024"><time>2025-04-28T10:58:44.000Z</time><ele>414.4</ele></trkpt><trkpt lat="45.984878" lon="10.314043"><time>2025-04-28T10:58:45.000Z</time><ele>414.2</ele></trkpt><trkpt lat="45.984875" lon="10.31406"><time>2025-04-28T10:58:46.000Z</time><ele>413.8</ele></trkpt><trkpt lat="45.984869" lon="10.314078"><time>2025-04-28T10:58:47.000Z</time><ele>413.6</ele></trkpt><trkpt lat="45.984864" lon="10.314094"><time>2025-04-28T10:58:48.000Z</time><ele>413.2</ele></trkpt><trkpt lat="45.984857" lon="10.314111"><time>2025-04-28T10:58:49.000Z</time><ele>413</ele></trkpt><trkpt lat="45.984854" lon="10.314132"><time>2025-04-28T10:58:50.000Z</time><ele>413</ele></trkpt><trkpt lat="45.98485" lon="10.314149"><time>2025-04-28T10:58:51.000Z</time><ele>412.8</ele></trkpt><trkpt lat="45.984848" lon="10.314166"><time>2025-04-28T10:58:52.000Z</time><ele>412.6</ele></trkpt><trkpt lat="45.984845" lon="10.314185"><time>2025-04-28T10:58:53.000Z</time><ele>412.4</ele></trkpt><trkpt lat="45.984838" lon="10.3142"><time>2025-04-28T10:58:54.000Z</time><ele>412.2</ele></trkpt><trkpt lat="45.984832" lon="10.314214"><time>2025-04-28T10:58:55.000Z</time><ele>412</ele></trkpt><trkpt lat="45.984828" lon="10.314233"><time>2025-04-28T10:58:56.000Z</time><ele>412</ele></trkpt><trkpt lat="45.984829" lon="10.314252"><time>2025-04-28T10:58:57.000Z</time><ele>411.8</ele></trkpt><trkpt lat="45.98483" lon="10.314268"><time>2025-04-28T10:58:58.000Z</time><ele>411.6</ele></trkpt><trkpt lat="45.984828" lon="10.314281"><time>2025-04-28T10:58:59.000Z</time><ele>411.4</ele></trkpt><trkpt lat="45.984827" lon="10.314299"><time>2025-04-28T10:59:00.000Z</time><ele>411.2</ele></trkpt><trkpt lat="45.984826" lon="10.314313"><time>2025-04-28T10:59:01.000Z</time><ele>411.2</ele></trkpt><trkpt lat="45.984821" lon="10.314332"><time>2025-04-28T10:59:02.000Z</time><ele>411</ele></trkpt><trkpt lat="45.984815" lon="10.314346"><time>2025-04-28T10:59:03.000Z</time><ele>411</ele></trkpt><trkpt lat="45.98481" lon="10.314364"><time>2025-04-28T10:59:04.000Z</time><ele>411</ele></trkpt><trkpt lat="45.984804" lon="10.314381"><time>2025-04-28T10:59:05.000Z</time><ele>410.8</ele></trkpt><trkpt lat="45.984794" lon="10.314394"><time>2025-04-28T10:59:06.000Z</time><ele>410.8</ele></trkpt><trkpt lat="45.98479" lon="10.314407"><time>2025-04-28T10:59:07.000Z</time><ele>410.6</ele></trkpt><trkpt lat="45.984787" lon="10.314418"><time>2025-04-28T10:59:08.000Z</time><ele>410.6</ele></trkpt><trkpt lat="45.984779" lon="10.314429"><time>2025-04-28T10:59:09.000Z</time><ele>410.4</ele></trkpt><trkpt lat="45.984767" lon="10.314436"><time>2025-04-28T10:59:10.000Z</time><ele>410.2</ele></trkpt><trkpt lat="45.984762" lon="10.314444"><time>2025-04-28T10:59:11.000Z</time><ele>410.2</ele></trkpt><trkpt lat="45.984754" lon="10.314457"><time>2025-04-28T10:59:12.000Z</time><ele>410</ele></trkpt><trkpt lat="45.984752" lon="10.314473"><time>2025-04-28T10:59:13.000Z</time><ele>409.8</ele></trkpt><trkpt lat="45.984749" lon="10.314483"><time>2025-04-28T10:59:14.000Z</time><ele>409.4</ele></trkpt><trkpt lat="45.984739" lon="10.314492"><time>2025-04-28T10:59:15.000Z</time><ele>409.2</ele></trkpt><trkpt lat="45.984736" lon="10.314502"><time>2025-04-28T10:59:16.000Z</time><ele>409</ele></trkpt><trkpt lat="45.984728" lon="10.314514"><time>2025-04-28T10:59:17.000Z</time><ele>409</ele></trkpt><trkpt lat="45.984719" lon="10.314529"><time>2025-04-28T10:59:18.000Z</time><ele>408.8</ele></trkpt><trkpt lat="45.984712" lon="10.314544"><time>2025-04-28T10:59:19.000Z</time><ele>408.6</ele></trkpt><trkpt lat="45.984707" lon="10.314558"><time>2025-04-28T10:59:20.000Z</time><ele>408.4</ele></trkpt><trkpt lat="45.984702" lon="10.31457"><time>2025-04-28T10:59:21.000Z</time><ele>408.2</ele></trkpt><trkpt lat="45.984697" lon="10.314586"><time>2025-04-28T10:59:22.000Z</time><ele>408</ele></trkpt><trkpt lat="45.984689" lon="10.314601"><time>2025-04-28T10:59:23.000Z</time><ele>407.8</ele></trkpt><trkpt lat="45.984681" lon="10.314619"><time>2025-04-28T10:59:24.000Z</time><ele>407.8</ele></trkpt><trkpt lat="45.984671" lon="10.314639"><time>2025-04-28T10:59:25.000Z</time><ele>407.6</ele></trkpt><trkpt lat="45.984663" lon="10.314654"><time>2025-04-28T10:59:26.000Z</time><ele>407.4</ele></trkpt><trkpt lat="45.984659" lon="10.314671"><time>2025-04-28T10:59:27.000Z</time><ele>407.2</ele></trkpt><trkpt lat="45.984656" lon="10.314685"><time>2025-04-28T10:59:28.000Z</time><ele>407.2</ele></trkpt><trkpt lat="45.984652" lon="10.314699"><time>2025-04-28T10:59:29.000Z</time><ele>407</ele></trkpt><trkpt lat="45.984647" lon="10.314713"><time>2025-04-28T10:59:30.000Z</time><ele>407</ele></trkpt><trkpt lat="45.98464" lon="10.314734"><time>2025-04-28T10:59:31.000Z</time><ele>407</ele></trkpt><trkpt lat="45.984632" lon="10.314749"><time>2025-04-28T10:59:32.000Z</time><ele>407</ele></trkpt><trkpt lat="45.984629" lon="10.314763"><time>2025-04-28T10:59:33.000Z</time><ele>407</ele></trkpt><trkpt lat="45.984623" lon="10.314777"><time>2025-04-28T10:59:34.000Z</time><ele>406.8</ele></trkpt><trkpt lat="45.984617" lon="10.314788"><time>2025-04-28T10:59:35.000Z</time><ele>406.8</ele></trkpt><trkpt lat="45.984615" lon="10.314803"><time>2025-04-28T10:59:36.000Z</time><ele>406.8</ele></trkpt><trkpt lat="45.98461" lon="10.314819"><time>2025-04-28T10:59:37.000Z</time><ele>407</ele></trkpt><trkpt lat="45.984607" lon="10.314837"><time>2025-04-28T10:59:38.000Z</time><ele>407</ele></trkpt><trkpt lat="45.984599" lon="10.314857"><time>2025-04-28T10:59:39.000Z</time><ele>407</ele></trkpt><trkpt lat="45.984595" lon="10.314874"><time>2025-04-28T10:59:40.000Z</time><ele>407.2</ele></trkpt><trkpt lat="45.98459" lon="10.314893"><time>2025-04-28T10:59:41.000Z</time><ele>407.2</ele></trkpt><trkpt lat="45.984588" lon="10.314908"><time>2025-04-28T10:59:42.000Z</time><ele>407.2</ele></trkpt><trkpt lat="45.984585" lon="10.314922"><time>2025-04-28T10:59:43.000Z</time><ele>407.4</ele></trkpt><trkpt lat="45.984579" lon="10.314941"><time>2025-04-28T10:59:44.000Z</time><ele>407.2</ele></trkpt><trkpt lat="45.984576" lon="10.314962"><time>2025-04-28T10:59:45.000Z</time><ele>407.4</ele></trkpt><trkpt lat="45.984572" lon="10.314984"><time>2025-04-28T10:59:46.000Z</time><ele>407.4</ele></trkpt><trkpt lat="45.984567" lon="10.315"><time>2025-04-28T10:59:47.000Z</time><ele>407.4</ele></trkpt><trkpt lat="45.98456" lon="10.315012"><time>2025-04-28T10:59:48.000Z</time><ele>407.4</ele></trkpt><trkpt lat="45.984558" lon="10.315024"><time>2025-04-28T10:59:49.000Z</time><ele>407.4</ele></trkpt><trkpt lat="45.984556" lon="10.31503"><time>2025-04-28T10:59:50.000Z</time><ele>407.4</ele></trkpt><trkpt lat="45.984556" lon="10.315039"><time>2025-04-28T10:59:51.000Z</time><ele>407.6</ele></trkpt><trkpt lat="45.98455" lon="10.315047"><time>2025-04-28T10:59:52.000Z</time><ele>408</ele></trkpt><trkpt lat="45.984539" lon="10.315048"><time>2025-04-28T10:59:53.000Z</time><ele>408.2</ele></trkpt><trkpt lat="45.984528" lon="10.315055"><time>2025-04-28T10:59:54.000Z</time><ele>408.4</ele></trkpt><trkpt lat="45.98452" lon="10.315058"><time>2025-04-28T10:59:55.000Z</time><ele>408.6</ele></trkpt><trkpt lat="45.984517" lon="10.315063"><time>2025-04-28T10:59:56.000Z</time><ele>408.6</ele></trkpt><trkpt lat="45.984515" lon="10.315072"><time>2025-04-28T10:59:57.000Z</time><ele>408.6</ele></trkpt><trkpt lat="45.984517" lon="10.315092"><time>2025-04-28T10:59:58.000Z</time><ele>408.6</ele></trkpt><trkpt lat="45.98453" lon="10.315124"><time>2025-04-28T10:59:59.000Z</time><ele>408.4</ele></trkpt><trkpt lat="45.984524" lon="10.315131"><time>2025-04-28T11:00:00.000Z</time><ele>408.2</ele></trkpt><trkpt lat="45.984519" lon="10.315149"><time>2025-04-28T11:00:01.000Z</time><ele>408</ele></trkpt><trkpt lat="45.984507" lon="10.315165"><time>2025-04-28T11:00:02.000Z</time><ele>407.8</ele></trkpt><trkpt lat="45.984497" lon="10.315183"><time>2025-04-28T11:00:03.000Z</time><ele>407.6</ele></trkpt><trkpt lat="45.984469" lon="10.315189"><time>2025-04-28T11:00:04.000Z</time><ele>407.4</ele></trkpt><trkpt lat="45.984459" lon="10.315197"><time>2025-04-28T11:00:05.000Z</time><ele>407.4</ele></trkpt><trkpt lat="45.98445" lon="10.315206"><time>2025-04-28T11:00:06.000Z</time><ele>407.2</ele></trkpt><trkpt lat="45.984443" lon="10.315206"><time>2025-04-28T11:00:07.000Z</time><ele>407</ele></trkpt><trkpt lat="45.984456" lon="10.315219"><time>2025-04-28T11:00:08.000Z</time><ele>406.8</ele></trkpt><trkpt lat="45.984461" lon="10.315242"><time>2025-04-28T11:00:09.000Z</time><ele>406.6</ele></trkpt><trkpt lat="45.984459" lon="10.315268"><time>2025-04-28T11:00:10.000Z</time><ele>406.2</ele></trkpt><trkpt lat="45.984458" lon="10.315266"><time>2025-04-28T11:00:11.000Z</time><ele>406</ele></trkpt><trkpt lat="45.984462" lon="10.315268"><time>2025-04-28T11:00:12.000Z</time><ele>405.8</ele></trkpt><trkpt lat="45.984465" lon="10.31527"><time>2025-04-28T11:00:13.000Z</time><ele>405.8</ele></trkpt><trkpt lat="45.984466" lon="10.315273"><time>2025-04-28T11:00:14.000Z</time><ele>405.8</ele></trkpt><trkpt lat="45.984465" lon="10.315273"><time>2025-04-28T11:00:15.000Z</time><ele>405.8</ele></trkpt><trkpt lat="45.984471" lon="10.315351"><time>2025-04-28T11:00:41.000Z</time><ele>403.8</ele></trkpt><trkpt lat="45.984332" lon="10.315548"><time>2025-04-28T11:00:42.000Z</time><ele>403.4</ele></trkpt><trkpt lat="45.98433" lon="10.315548"><time>2025-04-28T11:00:43.000Z</time><ele>403</ele></trkpt><trkpt lat="45.984311" lon="10.315482"><time>2025-04-28T11:00:44.000Z</time><ele>402.6</ele></trkpt><trkpt lat="45.984237" lon="10.315404"><time>2025-04-28T11:00:45.000Z</time><ele>402.4</ele></trkpt><trkpt lat="45.984224" lon="10.315408"><time>2025-04-28T11:00:46.000Z</time><ele>402</ele></trkpt><trkpt lat="45.984223" lon="10.315413"><time>2025-04-28T11:00:47.000Z</time><ele>401.8</ele></trkpt><trkpt lat="45.984206" lon="10.31541"><time>2025-04-28T11:00:48.000Z</time><ele>401.4</ele></trkpt><trkpt lat="45.984201" lon="10.315426"><time>2025-04-28T11:00:49.000Z</time><ele>401</ele></trkpt><trkpt lat="45.98421" lon="10.315439"><time>2025-04-28T11:00:50.000Z</time><ele>400.8</ele></trkpt><trkpt lat="45.984216" lon="10.315438"><time>2025-04-28T11:00:51.000Z</time><ele>400.2</ele></trkpt><trkpt lat="45.984215" lon="10.315435"><time>2025-04-28T11:00:52.000Z</time><ele>399.8</ele></trkpt><trkpt lat="45.984226" lon="10.315431"><time>2025-04-28T11:00:53.000Z</time><ele>399.6</ele></trkpt><trkpt lat="45.984228" lon="10.315414"><time>2025-04-28T11:00:54.000Z</time><ele>399.4</ele></trkpt><trkpt lat="45.98422" lon="10.31541"><time>2025-04-28T11:00:55.000Z</time><ele>399.4</ele></trkpt><trkpt lat="45.984222" lon="10.315415"><time>2025-04-28T11:00:56.000Z</time><ele>399.2</ele></trkpt><trkpt lat="45.984235" lon="10.315418"><time>2025-04-28T11:00:57.000Z</time><ele>399.2</ele></trkpt><trkpt lat="45.984251" lon="10.315425"><time>2025-04-28T11:00:58.000Z</time><ele>399.2</ele></trkpt><trkpt lat="45.984264" lon="10.315423"><time>2025-04-28T11:00:59.000Z</time><ele>399.2</ele></trkpt><trkpt lat="45.98427" lon="10.315419"><time>2025-04-28T11:01:00.000Z</time><ele>399.2</ele></trkpt><trkpt lat="45.984269" lon="10.315415"><time>2025-04-28T11:01:01.000Z</time><ele>399</ele></trkpt><trkpt lat="45.984273" lon="10.315419"><time>2025-04-28T11:01:02.000Z</time><ele>398.6</ele></trkpt><trkpt lat="45.984273" lon="10.315417"><time>2025-04-28T11:01:03.000Z</time><ele>398.4</ele></trkpt><trkpt lat="45.984272" lon="10.31542"><time>2025-04-28T11:01:04.000Z</time><ele>398</ele></trkpt><trkpt lat="45.984275" lon="10.315426"><time>2025-04-28T11:01:05.000Z</time><ele>398</ele></trkpt><trkpt lat="45.984276" lon="10.31543"><time>2025-04-28T11:01:06.000Z</time><ele>397.8</ele></trkpt><trkpt lat="45.984271" lon="10.315436"><time>2025-04-28T11:01:07.000Z</time><ele>397.6</ele></trkpt><trkpt lat="45.984268" lon="10.315438"><time>2025-04-28T11:01:08.000Z</time><ele>397.4</ele></trkpt><trkpt lat="45.984267" lon="10.315446"><time>2025-04-28T11:01:09.000Z</time><ele>397.2</ele></trkpt><trkpt lat="45.984261" lon="10.315453"><time>2025-04-28T11:01:10.000Z</time><ele>396.8</ele></trkpt><trkpt lat="45.98425" lon="10.315452"><time>2025-04-28T11:01:11.000Z</time><ele>396.6</ele></trkpt><trkpt lat="45.984243" lon="10.315462"><time>2025-04-28T11:01:12.000Z</time><ele>396.4</ele></trkpt><trkpt lat="45.984239" lon="10.315472"><time>2025-04-28T11:01:13.000Z</time><ele>396.2</ele></trkpt><trkpt lat="45.984239" lon="10.315483"><time>2025-04-28T11:01:14.000Z</time><ele>396.2</ele></trkpt><trkpt lat="45.984234" lon="10.315492"><time>2025-04-28T11:01:15.000Z</time><ele>396</ele></trkpt><trkpt lat="45.984229" lon="10.3155"><time>2025-04-28T11:01:16.000Z</time><ele>395.8</ele></trkpt><trkpt lat="45.984224" lon="10.315511"><time>2025-04-28T11:01:17.000Z</time><ele>395.8</ele></trkpt><trkpt lat="45.984216" lon="10.315524"><time>2025-04-28T11:01:18.000Z</time><ele>395.6</ele></trkpt><trkpt lat="45.984211" lon="10.315539"><time>2025-04-28T11:01:19.000Z</time><ele>395.6</ele></trkpt><trkpt lat="45.984201" lon="10.315561"><time>2025-04-28T11:01:20.000Z</time><ele>395.4</ele></trkpt><trkpt lat="45.984197" lon="10.315576"><time>2025-04-28T11:01:21.000Z</time><ele>395.2</ele></trkpt><trkpt lat="45.984193" lon="10.315589"><time>2025-04-28T11:01:22.000Z</time><ele>395</ele></trkpt><trkpt lat="45.984192" lon="10.315595"><time>2025-04-28T11:01:23.000Z</time><ele>394.8</ele></trkpt><trkpt lat="45.984183" lon="10.315606"><time>2025-04-28T11:01:24.000Z</time><ele>394.6</ele></trkpt><trkpt lat="45.984176" lon="10.315622"><time>2025-04-28T11:01:25.000Z</time><ele>394.4</ele></trkpt><trkpt lat="45.984169" lon="10.315639"><time>2025-04-28T11:01:26.000Z</time><ele>394.2</ele></trkpt><trkpt lat="45.984171" lon="10.315662"><time>2025-04-28T11:01:27.000Z</time><ele>393.8</ele></trkpt><trkpt lat="45.984171" lon="10.315683"><time>2025-04-28T11:01:28.000Z</time><ele>393.8</ele></trkpt><trkpt lat="45.984177" lon="10.315706"><time>2025-04-28T11:01:29.000Z</time><ele>393.4</ele></trkpt><trkpt lat="45.984179" lon="10.315721"><time>2025-04-28T11:01:30.000Z</time><ele>393.2</ele></trkpt><trkpt lat="45.984172" lon="10.315737"><time>2025-04-28T11:01:31.000Z</time><ele>393</ele></trkpt><trkpt lat="45.984166" lon="10.315757"><time>2025-04-28T11:01:32.000Z</time><ele>393</ele></trkpt><trkpt lat="45.984158" lon="10.31578"><time>2025-04-28T11:01:33.000Z</time><ele>393</ele></trkpt><trkpt lat="45.984146" lon="10.315808"><time>2025-04-28T11:01:34.000Z</time><ele>393</ele></trkpt><trkpt lat="45.984142" lon="10.315837"><time>2025-04-28T11:01:35.000Z</time><ele>392.8</ele></trkpt><trkpt lat="45.98414" lon="10.315856"><time>2025-04-28T11:01:36.000Z</time><ele>392.8</ele></trkpt><trkpt lat="45.984141" lon="10.315874"><time>2025-04-28T11:01:37.000Z</time><ele>392.6</ele></trkpt><trkpt lat="45.984153" lon="10.31589"><time>2025-04-28T11:01:38.000Z</time><ele>392.6</ele></trkpt><trkpt lat="45.984158" lon="10.315907"><time>2025-04-28T11:01:39.000Z</time><ele>392.6</ele></trkpt><trkpt lat="45.984157" lon="10.31593"><time>2025-04-28T11:01:40.000Z</time><ele>392.6</ele></trkpt><trkpt lat="45.984152" lon="10.315961"><time>2025-04-28T11:01:41.000Z</time><ele>392.4</ele></trkpt><trkpt lat="45.984152" lon="10.315985"><time>2025-04-28T11:01:42.000Z</time><ele>392.4</ele></trkpt><trkpt lat="45.984151" lon="10.316009"><time>2025-04-28T11:01:43.000Z</time><ele>392.2</ele></trkpt><trkpt lat="45.984149" lon="10.316024"><time>2025-04-28T11:01:44.000Z</time><ele>392</ele></trkpt><trkpt lat="45.984145" lon="10.316042"><time>2025-04-28T11:01:45.000Z</time><ele>392</ele></trkpt><trkpt lat="45.984141" lon="10.316063"><time>2025-04-28T11:01:46.000Z</time><ele>391.6</ele></trkpt><trkpt lat="45.984137" lon="10.316082"><time>2025-04-28T11:01:47.000Z</time><ele>391.4</ele></trkpt><trkpt lat="45.984131" lon="10.316097"><time>2025-04-28T11:01:48.000Z</time><ele>390.8</ele></trkpt><trkpt lat="45.984131" lon="10.316107"><time>2025-04-28T11:01:49.000Z</time><ele>390.4</ele></trkpt><trkpt lat="45.984132" lon="10.316116"><time>2025-04-28T11:01:50.000Z</time><ele>390.2</ele></trkpt><trkpt lat="45.984133" lon="10.316125"><time>2025-04-28T11:01:51.000Z</time><ele>390</ele></trkpt><trkpt lat="45.98413" lon="10.316134"><time>2025-04-28T11:01:52.000Z</time><ele>389.8</ele></trkpt><trkpt lat="45.984125" lon="10.316142"><time>2025-04-28T11:01:53.000Z</time><ele>389.6</ele></trkpt><trkpt lat="45.98412" lon="10.316153"><time>2025-04-28T11:01:54.000Z</time><ele>389.6</ele></trkpt><trkpt lat="45.984114" lon="10.316169"><time>2025-04-28T11:01:55.000Z</time><ele>389</ele></trkpt><trkpt lat="45.984112" lon="10.316183"><time>2025-04-28T11:01:56.000Z</time><ele>388.8</ele></trkpt><trkpt lat="45.984109" lon="10.316202"><time>2025-04-28T11:01:57.000Z</time><ele>388.6</ele></trkpt><trkpt lat="45.984104" lon="10.316222"><time>2025-04-28T11:01:58.000Z</time><ele>388.6</ele></trkpt><trkpt lat="45.984097" lon="10.316252"><time>2025-04-28T11:01:59.000Z</time><ele>388.6</ele></trkpt><trkpt lat="45.984095" lon="10.316271"><time>2025-04-28T11:02:00.000Z</time><ele>388.6</ele></trkpt><trkpt lat="45.984091" lon="10.316292"><time>2025-04-28T11:02:01.000Z</time><ele>388.6</ele></trkpt><trkpt lat="45.984083" lon="10.316315"><time>2025-04-28T11:02:02.000Z</time><ele>388.6</ele></trkpt><trkpt lat="45.984079" lon="10.316331"><time>2025-04-28T11:02:03.000Z</time><ele>388.6</ele></trkpt><trkpt lat="45.984079" lon="10.316348"><time>2025-04-28T11:02:04.000Z</time><ele>388.6</ele></trkpt><trkpt lat="45.98408" lon="10.316362"><time>2025-04-28T11:02:05.000Z</time><ele>388.6</ele></trkpt><trkpt lat="45.984079" lon="10.31637"><time>2025-04-28T11:02:06.000Z</time><ele>388.4</ele></trkpt><trkpt lat="45.984075" lon="10.316384"><time>2025-04-28T11:02:07.000Z</time><ele>388.4</ele></trkpt><trkpt lat="45.984073" lon="10.316399"><time>2025-04-28T11:02:08.000Z</time><ele>388.2</ele></trkpt><trkpt lat="45.984075" lon="10.316409"><time>2025-04-28T11:02:09.000Z</time><ele>388.2</ele></trkpt><trkpt lat="45.984073" lon="10.316429"><time>2025-04-28T11:02:10.000Z</time><ele>388.2</ele></trkpt><trkpt lat="45.984075" lon="10.316438"><time>2025-04-28T11:02:11.000Z</time><ele>388</ele></trkpt><trkpt lat="45.984079" lon="10.316455"><time>2025-04-28T11:02:12.000Z</time><ele>387.8</ele></trkpt><trkpt lat="45.984078" lon="10.31647"><time>2025-04-28T11:02:13.000Z</time><ele>387.6</ele></trkpt><trkpt lat="45.984075" lon="10.316491"><time>2025-04-28T11:02:14.000Z</time><ele>387.6</ele></trkpt><trkpt lat="45.984078" lon="10.3165"><time>2025-04-28T11:02:15.000Z</time><ele>387.4</ele></trkpt><trkpt lat="45.98408" lon="10.316513"><time>2025-04-28T11:02:16.000Z</time><ele>387.2</ele></trkpt><trkpt lat="45.984081" lon="10.316531"><time>2025-04-28T11:02:17.000Z</time><ele>387.2</ele></trkpt><trkpt lat="45.984081" lon="10.316551"><time>2025-04-28T11:02:18.000Z</time><ele>386.8</ele></trkpt><trkpt lat="45.984083" lon="10.316568"><time>2025-04-28T11:02:19.000Z</time><ele>386.6</ele></trkpt><trkpt lat="45.984084" lon="10.316584"><time>2025-04-28T11:02:20.000Z</time><ele>386.6</ele></trkpt><trkpt lat="45.984082" lon="10.316596"><time>2025-04-28T11:02:21.000Z</time><ele>386.4</ele></trkpt><trkpt lat="45.98408" lon="10.316609"><time>2025-04-28T11:02:22.000Z</time><ele>386.4</ele></trkpt><trkpt lat="45.984076" lon="10.316614"><time>2025-04-28T11:02:23.000Z</time><ele>386.2</ele></trkpt><trkpt lat="45.984073" lon="10.316605"><time>2025-04-28T11:02:24.000Z</time><ele>386.2</ele></trkpt><trkpt lat="45.984076" lon="10.316594"><time>2025-04-28T11:02:25.000Z</time><ele>386.2</ele></trkpt><trkpt lat="45.984074" lon="10.316576"><time>2025-04-28T11:02:26.000Z</time><ele>386</ele></trkpt><trkpt lat="45.984068" lon="10.316553"><time>2025-04-28T11:02:27.000Z</time><ele>385.8</ele></trkpt><trkpt lat="45.984063" lon="10.31654"><time>2025-04-28T11:02:28.000Z</time><ele>385.6</ele></trkpt><trkpt lat="45.984062" lon="10.316533"><time>2025-04-28T11:02:29.000Z</time><ele>385.6</ele></trkpt><trkpt lat="45.984056" lon="10.31652"><time>2025-04-28T11:02:30.000Z</time><ele>385.2</ele></trkpt><trkpt lat="45.984045" lon="10.316503"><time>2025-04-28T11:02:31.000Z</time><ele>385.2</ele></trkpt><trkpt lat="45.98403" lon="10.316485"><time>2025-04-28T11:02:32.000Z</time><ele>385</ele></trkpt><trkpt lat="45.984015" lon="10.316469"><time>2025-04-28T11:02:33.000Z</time><ele>384.6</ele></trkpt><trkpt lat="45.984" lon="10.316454"><time>2025-04-28T11:02:34.000Z</time><ele>384.6</ele></trkpt><trkpt lat="45.983987" lon="10.316439"><time>2025-04-28T11:02:35.000Z</time><ele>384.4</ele></trkpt><trkpt lat="45.983973" lon="10.316429"><time>2025-04-28T11:02:36.000Z</time><ele>384.4</ele></trkpt><trkpt lat="45.983963" lon="10.316425"><time>2025-04-28T11:02:37.000Z</time><ele>384.4</ele></trkpt><trkpt lat="45.983951" lon="10.316426"><time>2025-04-28T11:02:38.000Z</time><ele>384.4</ele></trkpt><trkpt lat="45.983941" lon="10.316426"><time>2025-04-28T11:02:39.000Z</time><ele>384.4</ele></trkpt><trkpt lat="45.983934" lon="10.316425"><time>2025-04-28T11:02:40.000Z</time><ele>384.4</ele></trkpt><trkpt lat="45.983927" lon="10.316427"><time>2025-04-28T11:02:41.000Z</time><ele>384.4</ele></trkpt><trkpt lat="45.983919" lon="10.316432"><time>2025-04-28T11:02:42.000Z</time><ele>384.4</ele></trkpt><trkpt lat="45.983911" lon="10.31644"><time>2025-04-28T11:02:43.000Z</time><ele>384.4</ele></trkpt><trkpt lat="45.983902" lon="10.316445"><time>2025-04-28T11:02:44.000Z</time><ele>384.4</ele></trkpt><trkpt lat="45.983897" lon="10.31643"><time>2025-04-28T11:02:45.000Z</time><ele>384.4</ele></trkpt><trkpt lat="45.983886" lon="10.316426"><time>2025-04-28T11:02:46.000Z</time><ele>384.4</ele></trkpt><trkpt lat="45.983877" lon="10.316429"><time>2025-04-28T11:02:47.000Z</time><ele>384.4</ele></trkpt><trkpt lat="45.983875" lon="10.316432"><time>2025-04-28T11:02:48.000Z</time><ele>384.6</ele></trkpt><trkpt lat="45.983875" lon="10.316435"><time>2025-04-28T11:02:49.000Z</time><ele>384.6</ele></trkpt><trkpt lat="45.983862" lon="10.316444"><time>2025-04-28T11:02:50.000Z</time><ele>384.8</ele></trkpt><trkpt lat="45.983852" lon="10.316437"><time>2025-04-28T11:02:51.000Z</time><ele>384.8</ele></trkpt><trkpt lat="45.983843" lon="10.316441"><time>2025-04-28T11:02:52.000Z</time><ele>385</ele></trkpt><trkpt lat="45.983829" lon="10.316451"><time>2025-04-28T11:02:53.000Z</time><ele>385</ele></trkpt><trkpt lat="45.983802" lon="10.316454"><time>2025-04-28T11:02:54.000Z</time><ele>385</ele></trkpt><trkpt lat="45.983782" lon="10.316464"><time>2025-04-28T11:02:55.000Z</time><ele>385</ele></trkpt><trkpt lat="45.983772" lon="10.316477"><time>2025-04-28T11:02:56.000Z</time><ele>385.2</ele></trkpt><trkpt lat="45.983761" lon="10.316489"><time>2025-04-28T11:02:57.000Z</time><ele>385.2</ele></trkpt><trkpt lat="45.983752" lon="10.3165"><time>2025-04-28T11:02:58.000Z</time><ele>385.4</ele></trkpt><trkpt lat="45.983742" lon="10.316513"><time>2025-04-28T11:02:59.000Z</time><ele>385.6</ele></trkpt><trkpt lat="45.98373" lon="10.316524"><time>2025-04-28T11:03:00.000Z</time><ele>385.8</ele></trkpt><trkpt lat="45.983727" lon="10.316531"><time>2025-04-28T11:03:01.000Z</time><ele>386</ele></trkpt><trkpt lat="45.983725" lon="10.316542"><time>2025-04-28T11:03:02.000Z</time><ele>386.2</ele></trkpt><trkpt lat="45.983722" lon="10.316553"><time>2025-04-28T11:03:03.000Z</time><ele>386.2</ele></trkpt><trkpt lat="45.983716" lon="10.316568"><time>2025-04-28T11:03:04.000Z</time><ele>386.4</ele></trkpt><trkpt lat="45.98371" lon="10.316577"><time>2025-04-28T11:03:05.000Z</time><ele>386.4</ele></trkpt><trkpt lat="45.983704" lon="10.316589"><time>2025-04-28T11:03:06.000Z</time><ele>386.4</ele></trkpt><trkpt lat="45.983699" lon="10.316601"><time>2025-04-28T11:03:07.000Z</time><ele>386.4</ele></trkpt><trkpt lat="45.983691" lon="10.316616"><time>2025-04-28T11:03:08.000Z</time><ele>386.4</ele></trkpt><trkpt lat="45.983688" lon="10.316632"><time>2025-04-28T11:03:09.000Z</time><ele>386.4</ele></trkpt><trkpt lat="45.983691" lon="10.316647"><time>2025-04-28T11:03:10.000Z</time><ele>386.4</ele></trkpt><trkpt lat="45.983687" lon="10.316659"><time>2025-04-28T11:03:11.000Z</time><ele>386.4</ele></trkpt><trkpt lat="45.983682" lon="10.316674"><time>2025-04-28T11:03:12.000Z</time><ele>386.4</ele></trkpt><trkpt lat="45.98368" lon="10.316683"><time>2025-04-28T11:03:13.000Z</time><ele>386.4</ele></trkpt><trkpt lat="45.983674" lon="10.316693"><time>2025-04-28T11:03:14.000Z</time><ele>386.6</ele></trkpt><trkpt lat="45.983668" lon="10.316706"><time>2025-04-28T11:03:15.000Z</time><ele>386.6</ele></trkpt><trkpt lat="45.983664" lon="10.316723"><time>2025-04-28T11:03:16.000Z</time><ele>386.6</ele></trkpt><trkpt lat="45.983657" lon="10.316742"><time>2025-04-28T11:03:17.000Z</time><ele>386.6</ele></trkpt><trkpt lat="45.98365" lon="10.316758"><time>2025-04-28T11:03:18.000Z</time><ele>386.8</ele></trkpt><trkpt lat="45.983647" lon="10.316772"><time>2025-04-28T11:03:19.000Z</time><ele>386.8</ele></trkpt><trkpt lat="45.983646" lon="10.316787"><time>2025-04-28T11:03:20.000Z</time><ele>386.8</ele></trkpt><trkpt lat="45.983636" lon="10.3168"><time>2025-04-28T11:03:21.000Z</time><ele>386.8</ele></trkpt><trkpt lat="45.983624" lon="10.316816"><time>2025-04-28T11:03:22.000Z</time><ele>386.8</ele></trkpt><trkpt lat="45.983614" lon="10.316844"><time>2025-04-28T11:03:23.000Z</time><ele>386.8</ele></trkpt><trkpt lat="45.983592" lon="10.316855"><time>2025-04-28T11:03:24.000Z</time><ele>386.8</ele></trkpt><trkpt lat="45.983585" lon="10.316872"><time>2025-04-28T11:03:25.000Z</time><ele>386.8</ele></trkpt><trkpt lat="45.983583" lon="10.316886"><time>2025-04-28T11:03:26.000Z</time><ele>386.8</ele></trkpt><trkpt lat="45.983579" lon="10.316897"><time>2025-04-28T11:03:27.000Z</time><ele>386.8</ele></trkpt><trkpt lat="45.983581" lon="10.316913"><time>2025-04-28T11:03:28.000Z</time><ele>387</ele></trkpt><trkpt lat="45.983582" lon="10.316927"><time>2025-04-28T11:03:29.000Z</time><ele>387</ele></trkpt><trkpt lat="45.983583" lon="10.316941"><time>2025-04-28T11:03:30.000Z</time><ele>387.2</ele></trkpt><trkpt lat="45.983587" lon="10.316959"><time>2025-04-28T11:03:31.000Z</time><ele>387.2</ele></trkpt><trkpt lat="45.983589" lon="10.316979"><time>2025-04-28T11:03:32.000Z</time><ele>387.2</ele></trkpt><trkpt lat="45.983581" lon="10.316988"><time>2025-04-28T11:03:33.000Z</time><ele>387.2</ele></trkpt><trkpt lat="45.983568" lon="10.316999"><time>2025-04-28T11:03:34.000Z</time><ele>387.2</ele></trkpt><trkpt lat="45.983556" lon="10.317016"><time>2025-04-28T11:03:35.000Z</time><ele>387.2</ele></trkpt><trkpt lat="45.983544" lon="10.317031"><time>2025-04-28T11:03:36.000Z</time><ele>387.2</ele></trkpt><trkpt lat="45.983533" lon="10.317047"><time>2025-04-28T11:03:37.000Z</time><ele>387.2</ele></trkpt><trkpt lat="45.983528" lon="10.317067"><time>2025-04-28T11:03:38.000Z</time><ele>387.2</ele></trkpt><trkpt lat="45.983521" lon="10.317086"><time>2025-04-28T11:03:39.000Z</time><ele>387.2</ele></trkpt><trkpt lat="45.983509" lon="10.317109"><time>2025-04-28T11:03:40.000Z</time><ele>387.2</ele></trkpt><trkpt lat="45.983495" lon="10.317127"><time>2025-04-28T11:03:41.000Z</time><ele>387.2</ele></trkpt><trkpt lat="45.983483" lon="10.31714"><time>2025-04-28T11:03:42.000Z</time><ele>387.2</ele></trkpt><trkpt lat="45.983479" lon="10.317152"><time>2025-04-28T11:03:43.000Z</time><ele>387.2</ele></trkpt><trkpt lat="45.983468" lon="10.317169"><time>2025-04-28T11:03:44.000Z</time><ele>387.4</ele></trkpt><trkpt lat="45.983452" lon="10.317191"><time>2025-04-28T11:03:45.000Z</time><ele>387.6</ele></trkpt><trkpt lat="45.983444" lon="10.317205"><time>2025-04-28T11:03:46.000Z</time><ele>387.6</ele></trkpt><trkpt lat="45.983432" lon="10.317219"><time>2025-04-28T11:03:47.000Z</time><ele>387.8</ele></trkpt><trkpt lat="45.983425" lon="10.317225"><time>2025-04-28T11:03:48.000Z</time><ele>387.8</ele></trkpt><trkpt lat="45.983415" lon="10.317243"><time>2025-04-28T11:03:49.000Z</time><ele>388</ele></trkpt><trkpt lat="45.983402" lon="10.317261"><time>2025-04-28T11:03:50.000Z</time><ele>388</ele></trkpt><trkpt lat="45.983385" lon="10.317273"><time>2025-04-28T11:03:51.000Z</time><ele>388</ele></trkpt><trkpt lat="45.983377" lon="10.317293"><time>2025-04-28T11:03:52.000Z</time><ele>388</ele></trkpt><trkpt lat="45.983368" lon="10.317309"><time>2025-04-28T11:03:53.000Z</time><ele>387.8</ele></trkpt><trkpt lat="45.983346" lon="10.31731"><time>2025-04-28T11:03:54.000Z</time><ele>387.6</ele></trkpt><trkpt lat="45.983329" lon="10.31731"><time>2025-04-28T11:03:55.000Z</time><ele>387.6</ele></trkpt><trkpt lat="45.983319" lon="10.317316"><time>2025-04-28T11:03:56.000Z</time><ele>387.4</ele></trkpt><trkpt lat="45.983259" lon="10.317344"><time>2025-04-28T11:04:00.000Z</time><ele>386.8</ele></trkpt><trkpt lat="45.983248" lon="10.317353"><time>2025-04-28T11:04:01.000Z</time><ele>386.4</ele></trkpt><trkpt lat="45.983233" lon="10.31735"><time>2025-04-28T11:04:02.000Z</time><ele>386.4</ele></trkpt><trkpt lat="45.983218" lon="10.317344"><time>2025-04-28T11:04:03.000Z</time><ele>386.2</ele></trkpt><trkpt lat="45.983219" lon="10.317315"><time>2025-04-28T11:04:04.000Z</time><ele>386</ele></trkpt><trkpt lat="45.983192" lon="10.317299"><time>2025-04-28T11:04:05.000Z</time><ele>386</ele></trkpt><trkpt lat="45.983177" lon="10.317289"><time>2025-04-28T11:04:06.000Z</time><ele>386</ele></trkpt><trkpt lat="45.983165" lon="10.31728"><time>2025-04-28T11:04:07.000Z</time><ele>385.8</ele></trkpt><trkpt lat="45.983149" lon="10.317277"><time>2025-04-28T11:04:08.000Z</time><ele>385.8</ele></trkpt><trkpt lat="45.983136" lon="10.317278"><time>2025-04-28T11:04:09.000Z</time><ele>385.6</ele></trkpt><trkpt lat="45.983119" lon="10.317279"><time>2025-04-28T11:04:10.000Z</time><ele>385.6</ele></trkpt><trkpt lat="45.983102" lon="10.317283"><time>2025-04-28T11:04:11.000Z</time><ele>385.4</ele></trkpt><trkpt lat="45.983086" lon="10.317287"><time>2025-04-28T11:04:12.000Z</time><ele>385.2</ele></trkpt><trkpt lat="45.983076" lon="10.317293"><time>2025-04-28T11:04:13.000Z</time><ele>385</ele></trkpt><trkpt lat="45.983065" lon="10.3173"><time>2025-04-28T11:04:14.000Z</time><ele>384.8</ele></trkpt><trkpt lat="45.983056" lon="10.317312"><time>2025-04-28T11:04:15.000Z</time><ele>384.6</ele></trkpt><trkpt lat="45.983041" lon="10.317318"><time>2025-04-28T11:04:16.000Z</time><ele>384.2</ele></trkpt><trkpt lat="45.983019" lon="10.317317"><time>2025-04-28T11:04:17.000Z</time><ele>384</ele></trkpt><trkpt lat="45.983002" lon="10.31732"><time>2025-04-28T11:04:18.000Z</time><ele>383.6</ele></trkpt><trkpt lat="45.982985" lon="10.317328"><time>2025-04-28T11:04:19.000Z</time><ele>383.4</ele></trkpt><trkpt lat="45.982968" lon="10.317343"><time>2025-04-28T11:04:20.000Z</time><ele>383.4</ele></trkpt><trkpt lat="45.982955" lon="10.317358"><time>2025-04-28T11:04:21.000Z</time><ele>383.2</ele></trkpt><trkpt lat="45.982936" lon="10.317378"><time>2025-04-28T11:04:22.000Z</time><ele>383</ele></trkpt><trkpt lat="45.982923" lon="10.317391"><time>2025-04-28T11:04:23.000Z</time><ele>383</ele></trkpt><trkpt lat="45.982911" lon="10.317402"><time>2025-04-28T11:04:24.000Z</time><ele>382.8</ele></trkpt><trkpt lat="45.982899" lon="10.317414"><time>2025-04-28T11:04:25.000Z</time><ele>382.8</ele></trkpt><trkpt lat="45.982887" lon="10.317427"><time>2025-04-28T11:04:26.000Z</time><ele>382.8</ele></trkpt><trkpt lat="45.982878" lon="10.317446"><time>2025-04-28T11:04:27.000Z</time><ele>382.6</ele></trkpt><trkpt lat="45.982873" lon="10.317459"><time>2025-04-28T11:04:28.000Z</time><ele>382.4</ele></trkpt><trkpt lat="45.982861" lon="10.317464"><time>2025-04-28T11:04:29.000Z</time><ele>382.6</ele></trkpt><trkpt lat="45.98285" lon="10.317472"><time>2025-04-28T11:04:30.000Z</time><ele>382.4</ele></trkpt><trkpt lat="45.982835" lon="10.317485"><time>2025-04-28T11:04:31.000Z</time><ele>382.4</ele></trkpt><trkpt lat="45.982822" lon="10.317497"><time>2025-04-28T11:04:32.000Z</time><ele>382.2</ele></trkpt><trkpt lat="45.982807" lon="10.317509"><time>2025-04-28T11:04:33.000Z</time><ele>381.8</ele></trkpt><trkpt lat="45.982796" lon="10.317519"><time>2025-04-28T11:04:34.000Z</time><ele>381.6</ele></trkpt><trkpt lat="45.982783" lon="10.317529"><time>2025-04-28T11:04:35.000Z</time><ele>381.6</ele></trkpt><trkpt lat="45.982772" lon="10.317531"><time>2025-04-28T11:04:36.000Z</time><ele>381.4</ele></trkpt><trkpt lat="45.98276" lon="10.317531"><time>2025-04-28T11:04:37.000Z</time><ele>381.4</ele></trkpt><trkpt lat="45.982749" lon="10.317526"><time>2025-04-28T11:04:38.000Z</time><ele>381.4</ele></trkpt><trkpt lat="45.982738" lon="10.31752"><time>2025-04-28T11:04:39.000Z</time><ele>381.4</ele></trkpt><trkpt lat="45.982727" lon="10.31752"><time>2025-04-28T11:04:40.000Z</time><ele>381.2</ele></trkpt><trkpt lat="45.982713" lon="10.317525"><time>2025-04-28T11:04:41.000Z</time><ele>380.8</ele></trkpt><trkpt lat="45.982698" lon="10.317533"><time>2025-04-28T11:04:42.000Z</time><ele>380.8</ele></trkpt><trkpt lat="45.982682" lon="10.31754"><time>2025-04-28T11:04:43.000Z</time><ele>380.6</ele></trkpt><trkpt lat="45.982665" lon="10.317549"><time>2025-04-28T11:04:44.000Z</time><ele>380.6</ele></trkpt><trkpt lat="45.982656" lon="10.317556"><time>2025-04-28T11:04:45.000Z</time><ele>380.6</ele></trkpt><trkpt lat="45.982645" lon="10.31756"><time>2025-04-28T11:04:46.000Z</time><ele>380.4</ele></trkpt><trkpt lat="45.982635" lon="10.317569"><time>2025-04-28T11:04:47.000Z</time><ele>380.2</ele></trkpt><trkpt lat="45.98262" lon="10.317575"><time>2025-04-28T11:04:48.000Z</time><ele>380</ele></trkpt><trkpt lat="45.982605" lon="10.317577"><time>2025-04-28T11:04:49.000Z</time><ele>379.8</ele></trkpt><trkpt lat="45.982593" lon="10.317581"><time>2025-04-28T11:04:50.000Z</time><ele>379.8</ele></trkpt><trkpt lat="45.982582" lon="10.31759"><time>2025-04-28T11:04:51.000Z</time><ele>379.6</ele></trkpt><trkpt lat="45.982568" lon="10.317591"><time>2025-04-28T11:04:52.000Z</time><ele>379.4</ele></trkpt><trkpt lat="45.982554" lon="10.317595"><time>2025-04-28T11:04:53.000Z</time><ele>379.2</ele></trkpt><trkpt lat="45.982537" lon="10.3176"><time>2025-04-28T11:04:54.000Z</time><ele>379.2</ele></trkpt><trkpt lat="45.982521" lon="10.317607"><time>2025-04-28T11:04:55.000Z</time><ele>379</ele></trkpt><trkpt lat="45.98251" lon="10.317615"><time>2025-04-28T11:04:56.000Z</time><ele>379</ele></trkpt><trkpt lat="45.982499" lon="10.317624"><time>2025-04-28T11:04:57.000Z</time><ele>379</ele></trkpt><trkpt lat="45.982486" lon="10.317632"><time>2025-04-28T11:04:58.000Z</time><ele>378.8</ele></trkpt><trkpt lat="45.982471" lon="10.31764"><time>2025-04-28T11:04:59.000Z</time><ele>378.8</ele></trkpt><trkpt lat="45.982454" lon="10.317649"><time>2025-04-28T11:05:00.000Z</time><ele>378.4</ele></trkpt><trkpt lat="45.982436" lon="10.317664"><time>2025-04-28T11:05:01.000Z</time><ele>378.2</ele></trkpt><trkpt lat="45.982417" lon="10.317666"><time>2025-04-28T11:05:02.000Z</time><ele>378</ele></trkpt><trkpt lat="45.982397" lon="10.317663"><time>2025-04-28T11:05:03.000Z</time><ele>377.8</ele></trkpt><trkpt lat="45.982378" lon="10.317663"><time>2025-04-28T11:05:04.000Z</time><ele>377.6</ele></trkpt><trkpt lat="45.982361" lon="10.317667"><time>2025-04-28T11:05:05.000Z</time><ele>377.6</ele></trkpt><trkpt lat="45.982343" lon="10.317681"><time>2025-04-28T11:05:06.000Z</time><ele>377.6</ele></trkpt><trkpt lat="45.982326" lon="10.317702"><time>2025-04-28T11:05:07.000Z</time><ele>377.4</ele></trkpt><trkpt lat="45.982307" lon="10.317709"><time>2025-04-28T11:05:08.000Z</time><ele>377.4</ele></trkpt><trkpt lat="45.982287" lon="10.317716"><time>2025-04-28T11:05:09.000Z</time><ele>377.4</ele></trkpt><trkpt lat="45.982274" lon="10.317724"><time>2025-04-28T11:05:10.000Z</time><ele>377.4</ele></trkpt><trkpt lat="45.982258" lon="10.317737"><time>2025-04-28T11:05:11.000Z</time><ele>377.4</ele></trkpt><trkpt lat="45.982234" lon="10.317753"><time>2025-04-28T11:05:12.000Z</time><ele>377.2</ele></trkpt><trkpt lat="45.982208" lon="10.317772"><time>2025-04-28T11:05:13.000Z</time><ele>376.8</ele></trkpt><trkpt lat="45.982197" lon="10.317777"><time>2025-04-28T11:05:14.000Z</time><ele>376.6</ele></trkpt><trkpt lat="45.982182" lon="10.317776"><time>2025-04-28T11:05:15.000Z</time><ele>376.4</ele></trkpt><trkpt lat="45.982168" lon="10.317775"><time>2025-04-28T11:05:16.000Z</time><ele>376.4</ele></trkpt><trkpt lat="45.982154" lon="10.31777"><time>2025-04-28T11:05:17.000Z</time><ele>376.4</ele></trkpt><trkpt lat="45.982138" lon="10.317762"><time>2025-04-28T11:05:18.000Z</time><ele>376.2</ele></trkpt><trkpt lat="45.982126" lon="10.317759"><time>2025-04-28T11:05:19.000Z</time><ele>376.2</ele></trkpt><trkpt lat="45.982118" lon="10.317753"><time>2025-04-28T11:05:20.000Z</time><ele>376.2</ele></trkpt><trkpt lat="45.982105" lon="10.317754"><time>2025-04-28T11:05:21.000Z</time><ele>376.2</ele></trkpt><trkpt lat="45.982096" lon="10.317749"><time>2025-04-28T11:05:22.000Z</time><ele>376.2</ele></trkpt><trkpt lat="45.982084" lon="10.317752"><time>2025-04-28T11:05:23.000Z</time><ele>376</ele></trkpt><trkpt lat="45.98207" lon="10.31775"><time>2025-04-28T11:05:24.000Z</time><ele>376</ele></trkpt><trkpt lat="45.982057" lon="10.317748"><time>2025-04-28T11:05:25.000Z</time><ele>375.8</ele></trkpt><trkpt lat="45.982044" lon="10.317746"><time>2025-04-28T11:05:26.000Z</time><ele>375.6</ele></trkpt><trkpt lat="45.982029" lon="10.317744"><time>2025-04-28T11:05:27.000Z</time><ele>375.6</ele></trkpt><trkpt lat="45.982018" lon="10.317742"><time>2025-04-28T11:05:28.000Z</time><ele>375.2</ele></trkpt><trkpt lat="45.982004" lon="10.317736"><time>2025-04-28T11:05:29.000Z</time><ele>374.8</ele></trkpt><trkpt lat="45.981989" lon="10.317737"><time>2025-04-28T11:05:30.000Z</time><ele>374.6</ele></trkpt><trkpt lat="45.981975" lon="10.317736"><time>2025-04-28T11:05:31.000Z</time><ele>374.4</ele></trkpt><trkpt lat="45.981957" lon="10.317742"><time>2025-04-28T11:05:32.000Z</time><ele>374.2</ele></trkpt><trkpt lat="45.981942" lon="10.317744"><time>2025-04-28T11:05:33.000Z</time><ele>374</ele></trkpt><trkpt lat="45.981924" lon="10.317743"><time>2025-04-28T11:05:34.000Z</time><ele>374</ele></trkpt><trkpt lat="45.981914" lon="10.317748"><time>2025-04-28T11:05:35.000Z</time><ele>374</ele></trkpt><trkpt lat="45.981896" lon="10.317751"><time>2025-04-28T11:05:36.000Z</time><ele>373.8</ele></trkpt><trkpt lat="45.981877" lon="10.317748"><time>2025-04-28T11:05:37.000Z</time><ele>373.8</ele></trkpt><trkpt lat="45.981862" lon="10.317744"><time>2025-04-28T11:05:38.000Z</time><ele>373.8</ele></trkpt><trkpt lat="45.981846" lon="10.317748"><time>2025-04-28T11:05:39.000Z</time><ele>373.6</ele></trkpt><trkpt lat="45.98183" lon="10.317751"><time>2025-04-28T11:05:40.000Z</time><ele>373.2</ele></trkpt><trkpt lat="45.981818" lon="10.317749"><time>2025-04-28T11:05:41.000Z</time><ele>373</ele></trkpt><trkpt lat="45.981802" lon="10.317757"><time>2025-04-28T11:05:42.000Z</time><ele>373</ele></trkpt><trkpt lat="45.981791" lon="10.317763"><time>2025-04-28T11:05:43.000Z</time><ele>373</ele></trkpt><trkpt lat="45.981778" lon="10.317768"><time>2025-04-28T11:05:44.000Z</time><ele>373.2</ele></trkpt><trkpt lat="45.981764" lon="10.317783"><time>2025-04-28T11:05:45.000Z</time><ele>373.6</ele></trkpt><trkpt lat="45.981757" lon="10.31779"><time>2025-04-28T11:05:46.000Z</time><ele>373.8</ele></trkpt><trkpt lat="45.981744" lon="10.317789"><time>2025-04-28T11:05:47.000Z</time><ele>374</ele></trkpt><trkpt lat="45.981736" lon="10.317785"><time>2025-04-28T11:05:48.000Z</time><ele>373.6</ele></trkpt><trkpt lat="45.981718" lon="10.317779"><time>2025-04-28T11:05:49.000Z</time><ele>373.4</ele></trkpt><trkpt lat="45.981705" lon="10.317775"><time>2025-04-28T11:05:50.000Z</time><ele>373</ele></trkpt><trkpt lat="45.981695" lon="10.317763"><time>2025-04-28T11:05:51.000Z</time><ele>372.6</ele></trkpt><trkpt lat="45.981682" lon="10.317755"><time>2025-04-28T11:05:52.000Z</time><ele>372.2</ele></trkpt><trkpt lat="45.981668" lon="10.317754"><time>2025-04-28T11:05:53.000Z</time><ele>371.8</ele></trkpt><trkpt lat="45.981656" lon="10.317749"><time>2025-04-28T11:05:54.000Z</time><ele>371.4</ele></trkpt><trkpt lat="45.981648" lon="10.317751"><time>2025-04-28T11:05:55.000Z</time><ele>371.2</ele></trkpt><trkpt lat="45.981635" lon="10.317744"><time>2025-04-28T11:05:56.000Z</time><ele>370.6</ele></trkpt><trkpt lat="45.98162" lon="10.317728"><time>2025-04-28T11:05:57.000Z</time><ele>370.2</ele></trkpt><trkpt lat="45.981607" lon="10.317707"><time>2025-04-28T11:05:58.000Z</time><ele>370</ele></trkpt><trkpt lat="45.981596" lon="10.317693"><time>2025-04-28T11:05:59.000Z</time><ele>369.8</ele></trkpt><trkpt lat="45.981574" lon="10.317674"><time>2025-04-28T11:06:00.000Z</time><ele>369.6</ele></trkpt><trkpt lat="45.981557" lon="10.317666"><time>2025-04-28T11:06:01.000Z</time><ele>369.2</ele></trkpt><trkpt lat="45.981543" lon="10.317655"><time>2025-04-28T11:06:02.000Z</time><ele>368.8</ele></trkpt><trkpt lat="45.98153" lon="10.31765"><time>2025-04-28T11:06:03.000Z</time><ele>367.8</ele></trkpt><trkpt lat="45.981526" lon="10.317643"><time>2025-04-28T11:06:04.000Z</time><ele>367</ele></trkpt><trkpt lat="45.981521" lon="10.317642"><time>2025-04-28T11:06:05.000Z</time><ele>366.8</ele></trkpt><trkpt lat="45.981514" lon="10.317633"><time>2025-04-28T11:06:06.000Z</time><ele>366.6</ele></trkpt><trkpt lat="45.981501" lon="10.317622"><time>2025-04-28T11:06:07.000Z</time><ele>366.4</ele></trkpt><trkpt lat="45.98149" lon="10.317611"><time>2025-04-28T11:06:08.000Z</time><ele>366.2</ele></trkpt><trkpt lat="45.981478" lon="10.317599"><time>2025-04-28T11:06:09.000Z</time><ele>365.8</ele></trkpt><trkpt lat="45.981465" lon="10.317588"><time>2025-04-28T11:06:10.000Z</time><ele>366</ele></trkpt><trkpt lat="45.98145" lon="10.31758"><time>2025-04-28T11:06:11.000Z</time><ele>366.2</ele></trkpt><trkpt lat="45.981436" lon="10.317571"><time>2025-04-28T11:06:12.000Z</time><ele>366.4</ele></trkpt><trkpt lat="45.981427" lon="10.317559"><time>2025-04-28T11:06:13.000Z</time><ele>366.4</ele></trkpt><trkpt lat="45.981416" lon="10.317543"><time>2025-04-28T11:06:14.000Z</time><ele>366.4</ele></trkpt><trkpt lat="45.981405" lon="10.317524"><time>2025-04-28T11:06:15.000Z</time><ele>366.4</ele></trkpt><trkpt lat="45.98139" lon="10.317505"><time>2025-04-28T11:06:16.000Z</time><ele>366.4</ele></trkpt><trkpt lat="45.98137" lon="10.317496"><time>2025-04-28T11:06:17.000Z</time><ele>366.2</ele></trkpt><trkpt lat="45.981356" lon="10.317493"><time>2025-04-28T11:06:18.000Z</time><ele>366</ele></trkpt><trkpt lat="45.981342" lon="10.317479"><time>2025-04-28T11:06:19.000Z</time><ele>365.6</ele></trkpt><trkpt lat="45.98133" lon="10.317462"><time>2025-04-28T11:06:20.000Z</time><ele>365.2</ele></trkpt><trkpt lat="45.981318" lon="10.317444"><time>2025-04-28T11:06:21.000Z</time><ele>365</ele></trkpt><trkpt lat="45.981306" lon="10.317428"><time>2025-04-28T11:06:22.000Z</time><ele>364.6</ele></trkpt><trkpt lat="45.981293" lon="10.317408"><time>2025-04-28T11:06:23.000Z</time><ele>364.4</ele></trkpt><trkpt lat="45.98128" lon="10.317383"><time>2025-04-28T11:06:24.000Z</time><ele>364.4</ele></trkpt><trkpt lat="45.98127" lon="10.317362"><time>2025-04-28T11:06:25.000Z</time><ele>364</ele></trkpt><trkpt lat="45.981257" lon="10.317342"><time>2025-04-28T11:06:26.000Z</time><ele>363.8</ele></trkpt><trkpt lat="45.981244" lon="10.317332"><time>2025-04-28T11:06:27.000Z</time><ele>363.6</ele></trkpt><trkpt lat="45.981231" lon="10.317324"><time>2025-04-28T11:06:28.000Z</time><ele>363.2</ele></trkpt><trkpt lat="45.981218" lon="10.317316"><time>2025-04-28T11:06:29.000Z</time><ele>362.8</ele></trkpt><trkpt lat="45.981206" lon="10.317305"><time>2025-04-28T11:06:30.000Z</time><ele>362.6</ele></trkpt><trkpt lat="45.981191" lon="10.31729"><time>2025-04-28T11:06:31.000Z</time><ele>362.4</ele></trkpt><trkpt lat="45.981174" lon="10.317274"><time>2025-04-28T11:06:32.000Z</time><ele>362.2</ele></trkpt><trkpt lat="45.98116" lon="10.317261"><time>2025-04-28T11:06:33.000Z</time><ele>362.2</ele></trkpt><trkpt lat="45.981147" lon="10.31725"><time>2025-04-28T11:06:34.000Z</time><ele>362</ele></trkpt><trkpt lat="45.981137" lon="10.317238"><time>2025-04-28T11:06:35.000Z</time><ele>362</ele></trkpt><trkpt lat="45.981123" lon="10.317225"><time>2025-04-28T11:06:36.000Z</time><ele>361.8</ele></trkpt><trkpt lat="45.98111" lon="10.317214"><time>2025-04-28T11:06:37.000Z</time><ele>361.4</ele></trkpt><trkpt lat="45.981096" lon="10.317213"><time>2025-04-28T11:06:38.000Z</time><ele>361.2</ele></trkpt><trkpt lat="45.981082" lon="10.317209"><time>2025-04-28T11:06:39.000Z</time><ele>361</ele></trkpt><trkpt lat="45.981072" lon="10.317196"><time>2025-04-28T11:06:40.000Z</time><ele>361</ele></trkpt><trkpt lat="45.981054" lon="10.317175"><time>2025-04-28T11:06:41.000Z</time><ele>361</ele></trkpt><trkpt lat="45.981041" lon="10.317158"><time>2025-04-28T11:06:42.000Z</time><ele>361.2</ele></trkpt><trkpt lat="45.981026" lon="10.31714"><time>2025-04-28T11:06:43.000Z</time><ele>361.2</ele></trkpt><trkpt lat="45.981009" lon="10.317126"><time>2025-04-28T11:06:44.000Z</time><ele>361.2</ele></trkpt><trkpt lat="45.980992" lon="10.317108"><time>2025-04-28T11:06:45.000Z</time><ele>360.8</ele></trkpt><trkpt lat="45.98098" lon="10.317087"><time>2025-04-28T11:06:46.000Z</time><ele>360.4</ele></trkpt><trkpt lat="45.98097" lon="10.317084"><time>2025-04-28T11:06:47.000Z</time><ele>360</ele></trkpt><trkpt lat="45.980958" lon="10.317074"><time>2025-04-28T11:06:48.000Z</time><ele>359.8</ele></trkpt><trkpt lat="45.980945" lon="10.317065"><time>2025-04-28T11:06:49.000Z</time><ele>359.6</ele></trkpt><trkpt lat="45.980933" lon="10.317054"><time>2025-04-28T11:06:50.000Z</time><ele>359.4</ele></trkpt><trkpt lat="45.980919" lon="10.317043"><time>2025-04-28T11:06:51.000Z</time><ele>359.4</ele></trkpt><trkpt lat="45.980903" lon="10.317027"><time>2025-04-28T11:06:52.000Z</time><ele>359.4</ele></trkpt><trkpt lat="45.98089" lon="10.317017"><time>2025-04-28T11:06:53.000Z</time><ele>359.2</ele></trkpt><trkpt lat="45.98087" lon="10.316999"><time>2025-04-28T11:06:54.000Z</time><ele>359.2</ele></trkpt><trkpt lat="45.980858" lon="10.316991"><time>2025-04-28T11:06:55.000Z</time><ele>359</ele></trkpt><trkpt lat="45.980846" lon="10.316983"><time>2025-04-28T11:06:56.000Z</time><ele>358.8</ele></trkpt><trkpt lat="45.980835" lon="10.316974"><time>2025-04-28T11:06:57.000Z</time><ele>358.4</ele></trkpt><trkpt lat="45.980822" lon="10.316963"><time>2025-04-28T11:06:58.000Z</time><ele>358.2</ele></trkpt><trkpt lat="45.98081" lon="10.31695"><time>2025-04-28T11:06:59.000Z</time><ele>357.8</ele></trkpt><trkpt lat="45.980795" lon="10.316937"><time>2025-04-28T11:07:00.000Z</time><ele>357.8</ele></trkpt><trkpt lat="45.980783" lon="10.316919"><time>2025-04-28T11:07:01.000Z</time><ele>357.6</ele></trkpt><trkpt lat="45.980771" lon="10.316901"><time>2025-04-28T11:07:02.000Z</time><ele>357.6</ele></trkpt><trkpt lat="45.980757" lon="10.316884"><time>2025-04-28T11:07:03.000Z</time><ele>357.6</ele></trkpt><trkpt lat="45.980744" lon="10.31687"><time>2025-04-28T11:07:04.000Z</time><ele>357.6</ele></trkpt><trkpt lat="45.980732" lon="10.316859"><time>2025-04-28T11:07:05.000Z</time><ele>357.6</ele></trkpt><trkpt lat="45.98072" lon="10.316848"><time>2025-04-28T11:07:06.000Z</time><ele>357.6</ele></trkpt><trkpt lat="45.980707" lon="10.316833"><time>2025-04-28T11:07:07.000Z</time><ele>357.6</ele></trkpt><trkpt lat="45.980691" lon="10.316816"><time>2025-04-28T11:07:08.000Z</time><ele>357.6</ele></trkpt><trkpt lat="45.980678" lon="10.316803"><time>2025-04-28T11:07:09.000Z</time><ele>357.6</ele></trkpt><trkpt lat="45.980668" lon="10.316786"><time>2025-04-28T11:07:10.000Z</time><ele>357.2</ele></trkpt><trkpt lat="45.980659" lon="10.316771"><time>2025-04-28T11:07:11.000Z</time><ele>356.8</ele></trkpt><trkpt lat="45.980649" lon="10.316757"><time>2025-04-28T11:07:12.000Z</time><ele>356.6</ele></trkpt><trkpt lat="45.980638" lon="10.316741"><time>2025-04-28T11:07:13.000Z</time><ele>356.4</ele></trkpt><trkpt lat="45.980619" lon="10.316728"><time>2025-04-28T11:07:14.000Z</time><ele>356.2</ele></trkpt><trkpt lat="45.980604" lon="10.316716"><time>2025-04-28T11:07:15.000Z</time><ele>356</ele></trkpt><trkpt lat="45.980591" lon="10.316702"><time>2025-04-28T11:07:16.000Z</time><ele>356</ele></trkpt><trkpt lat="45.980581" lon="10.316686"><time>2025-04-28T11:07:17.000Z</time><ele>355.8</ele></trkpt><trkpt lat="45.980568" lon="10.316675"><time>2025-04-28T11:07:18.000Z</time><ele>355.8</ele></trkpt><trkpt lat="45.980555" lon="10.316662"><time>2025-04-28T11:07:19.000Z</time><ele>355.8</ele></trkpt><trkpt lat="45.980542" lon="10.316646"><time>2025-04-28T11:07:20.000Z</time><ele>355.6</ele></trkpt><trkpt lat="45.980526" lon="10.316626"><time>2025-04-28T11:07:21.000Z</time><ele>355.4</ele></trkpt><trkpt lat="45.980513" lon="10.316605"><time>2025-04-28T11:07:22.000Z</time><ele>355.2</ele></trkpt><trkpt lat="45.9805" lon="10.31659"><time>2025-04-28T11:07:23.000Z</time><ele>355</ele></trkpt><trkpt lat="45.980486" lon="10.316578"><time>2025-04-28T11:07:24.000Z</time><ele>354.8</ele></trkpt><trkpt lat="45.980476" lon="10.316564"><time>2025-04-28T11:07:25.000Z</time><ele>354.4</ele></trkpt><trkpt lat="45.980471" lon="10.31655"><time>2025-04-28T11:07:26.000Z</time><ele>354.2</ele></trkpt><trkpt lat="45.980463" lon="10.316537"><time>2025-04-28T11:07:27.000Z</time><ele>354</ele></trkpt><trkpt lat="45.980453" lon="10.316524"><time>2025-04-28T11:07:28.000Z</time><ele>354</ele></trkpt><trkpt lat="45.980441" lon="10.316514"><time>2025-04-28T11:07:29.000Z</time><ele>353.6</ele></trkpt><trkpt lat="45.980425" lon="10.316504"><time>2025-04-28T11:07:30.000Z</time><ele>353.6</ele></trkpt><trkpt lat="45.98041" lon="10.316494"><time>2025-04-28T11:07:31.000Z</time><ele>353.4</ele></trkpt><trkpt lat="45.980393" lon="10.316481"><time>2025-04-28T11:07:32.000Z</time><ele>353.4</ele></trkpt><trkpt lat="45.980376" lon="10.316469"><time>2025-04-28T11:07:33.000Z</time><ele>353.4</ele></trkpt><trkpt lat="45.980357" lon="10.316453"><time>2025-04-28T11:07:34.000Z</time><ele>353.4</ele></trkpt><trkpt lat="45.980341" lon="10.316443"><time>2025-04-28T11:07:35.000Z</time><ele>353.4</ele></trkpt><trkpt lat="45.980325" lon="10.316433"><time>2025-04-28T11:07:36.000Z</time><ele>353.4</ele></trkpt><trkpt lat="45.980311" lon="10.316429"><time>2025-04-28T11:07:37.000Z</time><ele>353.4</ele></trkpt><trkpt lat="45.9803" lon="10.316424"><time>2025-04-28T11:07:38.000Z</time><ele>353.2</ele></trkpt><trkpt lat="45.980291" lon="10.316414"><time>2025-04-28T11:07:39.000Z</time><ele>353.2</ele></trkpt><trkpt lat="45.980276" lon="10.316403"><time>2025-04-28T11:07:40.000Z</time><ele>353.2</ele></trkpt><trkpt lat="45.980258" lon="10.316391"><time>2025-04-28T11:07:41.000Z</time><ele>352.8</ele></trkpt><trkpt lat="45.980241" lon="10.316386"><time>2025-04-28T11:07:42.000Z</time><ele>352.6</ele></trkpt><trkpt lat="45.980225" lon="10.316384"><time>2025-04-28T11:07:43.000Z</time><ele>352.4</ele></trkpt><trkpt lat="45.98021" lon="10.316379"><time>2025-04-28T11:07:44.000Z</time><ele>352.2</ele></trkpt><trkpt lat="45.980191" lon="10.31637"><time>2025-04-28T11:07:45.000Z</time><ele>352</ele></trkpt><trkpt lat="45.980174" lon="10.31636"><time>2025-04-28T11:07:46.000Z</time><ele>351.8</ele></trkpt><trkpt lat="45.980158" lon="10.316346"><time>2025-04-28T11:07:47.000Z</time><ele>351.8</ele></trkpt><trkpt lat="45.98014" lon="10.316333"><time>2025-04-28T11:07:48.000Z</time><ele>351.8</ele></trkpt><trkpt lat="45.980128" lon="10.316326"><time>2025-04-28T11:07:49.000Z</time><ele>351.6</ele></trkpt><trkpt lat="45.980116" lon="10.316316"><time>2025-04-28T11:07:50.000Z</time><ele>351.2</ele></trkpt><trkpt lat="45.980104" lon="10.316309"><time>2025-04-28T11:07:51.000Z</time><ele>350.6</ele></trkpt><trkpt lat="45.980086" lon="10.316294"><time>2025-04-28T11:07:52.000Z</time><ele>350.2</ele></trkpt><trkpt lat="45.98007" lon="10.316281"><time>2025-04-28T11:07:53.000Z</time><ele>350</ele></trkpt><trkpt lat="45.980055" lon="10.31627"><time>2025-04-28T11:07:54.000Z</time><ele>349.8</ele></trkpt><trkpt lat="45.980042" lon="10.316263"><time>2025-04-28T11:07:55.000Z</time><ele>349.8</ele></trkpt><trkpt lat="45.980031" lon="10.316253"><time>2025-04-28T11:07:56.000Z</time><ele>349.8</ele></trkpt><trkpt lat="45.980017" lon="10.316246"><time>2025-04-28T11:07:57.000Z</time><ele>349.6</ele></trkpt><trkpt lat="45.980001" lon="10.316237"><time>2025-04-28T11:07:58.000Z</time><ele>349.4</ele></trkpt><trkpt lat="45.97998" lon="10.316223"><time>2025-04-28T11:07:59.000Z</time><ele>349.2</ele></trkpt><trkpt lat="45.979967" lon="10.316219"><time>2025-04-28T11:08:00.000Z</time><ele>349</ele></trkpt><trkpt lat="45.979953" lon="10.316215"><time>2025-04-28T11:08:01.000Z</time><ele>348.8</ele></trkpt><trkpt lat="45.979939" lon="10.316202"><time>2025-04-28T11:08:02.000Z</time><ele>348.8</ele></trkpt><trkpt lat="45.979921" lon="10.316196"><time>2025-04-28T11:08:03.000Z</time><ele>348.6</ele></trkpt><trkpt lat="45.979905" lon="10.316189"><time>2025-04-28T11:08:04.000Z</time><ele>348.4</ele></trkpt><trkpt lat="45.979893" lon="10.316183"><time>2025-04-28T11:08:05.000Z</time><ele>348.2</ele></trkpt><trkpt lat="45.979875" lon="10.316173"><time>2025-04-28T11:08:06.000Z</time><ele>348.2</ele></trkpt><trkpt lat="45.979864" lon="10.316162"><time>2025-04-28T11:08:07.000Z</time><ele>348.2</ele></trkpt><trkpt lat="45.979845" lon="10.316152"><time>2025-04-28T11:08:08.000Z</time><ele>348.2</ele></trkpt><trkpt lat="45.979824" lon="10.316139"><time>2025-04-28T11:08:09.000Z</time><ele>348</ele></trkpt><trkpt lat="45.979808" lon="10.316128"><time>2025-04-28T11:08:10.000Z</time><ele>348</ele></trkpt><trkpt lat="45.97979" lon="10.316113"><time>2025-04-28T11:08:11.000Z</time><ele>348</ele></trkpt><trkpt lat="45.979772" lon="10.316102"><time>2025-04-28T11:08:12.000Z</time><ele>347.8</ele></trkpt><trkpt lat="45.979756" lon="10.316097"><time>2025-04-28T11:08:13.000Z</time><ele>347.6</ele></trkpt><trkpt lat="45.979743" lon="10.316096"><time>2025-04-28T11:08:14.000Z</time><ele>347.4</ele></trkpt><trkpt lat="45.979732" lon="10.316096"><time>2025-04-28T11:08:15.000Z</time><ele>347.2</ele></trkpt><trkpt lat="45.97972" lon="10.316096"><time>2025-04-28T11:08:16.000Z</time><ele>347.2</ele></trkpt><trkpt lat="45.979702" lon="10.31609"><time>2025-04-28T11:08:17.000Z</time><ele>347</ele></trkpt><trkpt lat="45.979687" lon="10.316082"><time>2025-04-28T11:08:18.000Z</time><ele>346.8</ele></trkpt><trkpt lat="45.97967" lon="10.31607"><time>2025-04-28T11:08:19.000Z</time><ele>346.8</ele></trkpt><trkpt lat="45.979649" lon="10.316053"><time>2025-04-28T11:08:20.000Z</time><ele>346.6</ele></trkpt><trkpt lat="45.979634" lon="10.31604"><time>2025-04-28T11:08:21.000Z</time><ele>346.4</ele></trkpt><trkpt lat="45.979618" lon="10.316036"><time>2025-04-28T11:08:22.000Z</time><ele>346.4</ele></trkpt><trkpt lat="45.979601" lon="10.316034"><time>2025-04-28T11:08:23.000Z</time><ele>346.2</ele></trkpt><trkpt lat="45.979586" lon="10.316032"><time>2025-04-28T11:08:24.000Z</time><ele>345.8</ele></trkpt><trkpt lat="45.979568" lon="10.316029"><time>2025-04-28T11:08:25.000Z</time><ele>345.8</ele></trkpt><trkpt lat="45.979548" lon="10.31602"><time>2025-04-28T11:08:26.000Z</time><ele>345.6</ele></trkpt><trkpt lat="45.97953" lon="10.316017"><time>2025-04-28T11:08:27.000Z</time><ele>345.4</ele></trkpt><trkpt lat="45.979516" lon="10.316021"><time>2025-04-28T11:08:28.000Z</time><ele>345.4</ele></trkpt><trkpt lat="45.9795" lon="10.316025"><time>2025-04-28T11:08:29.000Z</time><ele>345.2</ele></trkpt><trkpt lat="45.979484" lon="10.31602"><time>2025-04-28T11:08:30.000Z</time><ele>345.2</ele></trkpt><trkpt lat="45.97947" lon="10.31603"><time>2025-04-28T11:08:31.000Z</time><ele>345</ele></trkpt><trkpt lat="45.979457" lon="10.316041"><time>2025-04-28T11:08:32.000Z</time><ele>345</ele></trkpt><trkpt lat="45.97944" lon="10.31604"><time>2025-04-28T11:08:33.000Z</time><ele>344.8</ele></trkpt><trkpt lat="45.979422" lon="10.316038"><time>2025-04-28T11:08:34.000Z</time><ele>344.6</ele></trkpt><trkpt lat="45.979405" lon="10.316037"><time>2025-04-28T11:08:35.000Z</time><ele>344.4</ele></trkpt><trkpt lat="45.979388" lon="10.31604"><time>2025-04-28T11:08:36.000Z</time><ele>344.4</ele></trkpt><trkpt lat="45.979374" lon="10.316037"><time>2025-04-28T11:08:37.000Z</time><ele>344.2</ele></trkpt><trkpt lat="45.979359" lon="10.316038"><time>2025-04-28T11:08:38.000Z</time><ele>344.2</ele></trkpt><trkpt lat="45.979344" lon="10.316038"><time>2025-04-28T11:08:39.000Z</time><ele>344</ele></trkpt><trkpt lat="45.979327" lon="10.316039"><time>2025-04-28T11:08:40.000Z</time><ele>343.6</ele></trkpt><trkpt lat="45.979312" lon="10.316043"><time>2025-04-28T11:08:41.000Z</time><ele>343.2</ele></trkpt><trkpt lat="45.979295" lon="10.316046"><time>2025-04-28T11:08:42.000Z</time><ele>343</ele></trkpt><trkpt lat="45.979279" lon="10.316048"><time>2025-04-28T11:08:43.000Z</time><ele>342.8</ele></trkpt><trkpt lat="45.979259" lon="10.316043"><time>2025-04-28T11:08:44.000Z</time><ele>342.8</ele></trkpt><trkpt lat="45.979238" lon="10.316036"><time>2025-04-28T11:08:45.000Z</time><ele>342.6</ele></trkpt><trkpt lat="45.979219" lon="10.316035"><time>2025-04-28T11:08:46.000Z</time><ele>342.6</ele></trkpt><trkpt lat="45.979201" lon="10.316039"><time>2025-04-28T11:08:47.000Z</time><ele>342.6</ele></trkpt><trkpt lat="45.979188" lon="10.316047"><time>2025-04-28T11:08:48.000Z</time><ele>342.6</ele></trkpt><trkpt lat="45.979175" lon="10.316058"><time>2025-04-28T11:08:49.000Z</time><ele>342.4</ele></trkpt><trkpt lat="45.979157" lon="10.316063"><time>2025-04-28T11:08:50.000Z</time><ele>342.6</ele></trkpt><trkpt lat="45.97914" lon="10.316065"><time>2025-04-28T11:08:51.000Z</time><ele>342.6</ele></trkpt><trkpt lat="45.979123" lon="10.316065"><time>2025-04-28T11:08:52.000Z</time><ele>342.4</ele></trkpt><trkpt lat="45.979107" lon="10.316067"><time>2025-04-28T11:08:53.000Z</time><ele>342.2</ele></trkpt><trkpt lat="45.979091" lon="10.316069"><time>2025-04-28T11:08:54.000Z</time><ele>342</ele></trkpt><trkpt lat="45.979078" lon="10.316077"><time>2025-04-28T11:08:55.000Z</time><ele>341.8</ele></trkpt><trkpt lat="45.979064" lon="10.316085"><time>2025-04-28T11:08:56.000Z</time><ele>341.6</ele></trkpt><trkpt lat="45.979048" lon="10.316092"><time>2025-04-28T11:08:57.000Z</time><ele>341.4</ele></trkpt><trkpt lat="45.979031" lon="10.316097"><time>2025-04-28T11:08:58.000Z</time><ele>341.2</ele></trkpt><trkpt lat="45.979017" lon="10.316104"><time>2025-04-28T11:08:59.000Z</time><ele>341.2</ele></trkpt><trkpt lat="45.979003" lon="10.316107"><time>2025-04-28T11:09:00.000Z</time><ele>341</ele></trkpt><trkpt lat="45.978989" lon="10.316108"><time>2025-04-28T11:09:01.000Z</time><ele>340.8</ele></trkpt><trkpt lat="45.978972" lon="10.31611"><time>2025-04-28T11:09:02.000Z</time><ele>340.4</ele></trkpt><trkpt lat="45.978956" lon="10.316115"><time>2025-04-28T11:09:03.000Z</time><ele>340.2</ele></trkpt><trkpt lat="45.97894" lon="10.316118"><time>2025-04-28T11:09:04.000Z</time><ele>340</ele></trkpt><trkpt lat="45.978923" lon="10.316122"><time>2025-04-28T11:09:05.000Z</time><ele>339.8</ele></trkpt><trkpt lat="45.978907" lon="10.316128"><time>2025-04-28T11:09:06.000Z</time><ele>339.8</ele></trkpt><trkpt lat="45.978889" lon="10.316131"><time>2025-04-28T11:09:07.000Z</time><ele>339.6</ele></trkpt><trkpt lat="45.978871" lon="10.316135"><time>2025-04-28T11:09:08.000Z</time><ele>339.6</ele></trkpt><trkpt lat="45.978855" lon="10.316135"><time>2025-04-28T11:09:09.000Z</time><ele>339.6</ele></trkpt><trkpt lat="45.97884" lon="10.316137"><time>2025-04-28T11:09:10.000Z</time><ele>339.6</ele></trkpt><trkpt lat="45.978824" lon="10.316143"><time>2025-04-28T11:09:11.000Z</time><ele>339.6</ele></trkpt><trkpt lat="45.978809" lon="10.316148"><time>2025-04-28T11:09:12.000Z</time><ele>339.4</ele></trkpt><trkpt lat="45.978794" lon="10.316149"><time>2025-04-28T11:09:13.000Z</time><ele>339.2</ele></trkpt><trkpt lat="45.978781" lon="10.316149"><time>2025-04-28T11:09:14.000Z</time><ele>339</ele></trkpt><trkpt lat="45.978763" lon="10.316146"><time>2025-04-28T11:09:15.000Z</time><ele>338.8</ele></trkpt><trkpt lat="45.978748" lon="10.316148"><time>2025-04-28T11:09:16.000Z</time><ele>338.6</ele></trkpt><trkpt lat="45.978734" lon="10.316149"><time>2025-04-28T11:09:17.000Z</time><ele>338.4</ele></trkpt><trkpt lat="45.978717" lon="10.316152"><time>2025-04-28T11:09:18.000Z</time><ele>338.4</ele></trkpt><trkpt lat="45.978701" lon="10.31616"><time>2025-04-28T11:09:19.000Z</time><ele>338.4</ele></trkpt><trkpt lat="45.978683" lon="10.316163"><time>2025-04-28T11:09:20.000Z</time><ele>338.2</ele></trkpt><trkpt lat="45.978669" lon="10.316165"><time>2025-04-28T11:09:21.000Z</time><ele>338.2</ele></trkpt><trkpt lat="45.978653" lon="10.316168"><time>2025-04-28T11:09:22.000Z</time><ele>338</ele></trkpt><trkpt lat="45.97864" lon="10.316172"><time>2025-04-28T11:09:23.000Z</time><ele>338</ele></trkpt><trkpt lat="45.978626" lon="10.316176"><time>2025-04-28T11:09:24.000Z</time><ele>337.8</ele></trkpt><trkpt lat="45.978614" lon="10.316177"><time>2025-04-28T11:09:25.000Z</time><ele>337.8</ele></trkpt><trkpt lat="45.9786" lon="10.316178"><time>2025-04-28T11:09:26.000Z</time><ele>337.6</ele></trkpt><trkpt lat="45.978584" lon="10.316178"><time>2025-04-28T11:09:27.000Z</time><ele>337.4</ele></trkpt><trkpt lat="45.978568" lon="10.316184"><time>2025-04-28T11:09:28.000Z</time><ele>337.2</ele></trkpt><trkpt lat="45.978554" lon="10.316196"><time>2025-04-28T11:09:29.000Z</time><ele>337.2</ele></trkpt><trkpt lat="45.978543" lon="10.316213"><time>2025-04-28T11:09:30.000Z</time><ele>337</ele></trkpt><trkpt lat="45.978528" lon="10.316227"><time>2025-04-28T11:09:31.000Z</time><ele>336.8</ele></trkpt><trkpt lat="45.978514" lon="10.316242"><time>2025-04-28T11:09:32.000Z</time><ele>336.8</ele></trkpt><trkpt lat="45.978499" lon="10.316257"><time>2025-04-28T11:09:33.000Z</time><ele>336.6</ele></trkpt><trkpt lat="45.978483" lon="10.316269"><time>2025-04-28T11:09:34.000Z</time><ele>336.6</ele></trkpt><trkpt lat="45.978465" lon="10.316278"><time>2025-04-28T11:09:35.000Z</time><ele>336.6</ele></trkpt><trkpt lat="45.978449" lon="10.316285"><time>2025-04-28T11:09:36.000Z</time><ele>336.4</ele></trkpt><trkpt lat="45.978438" lon="10.316294"><time>2025-04-28T11:09:37.000Z</time><ele>336.2</ele></trkpt><trkpt lat="45.978426" lon="10.316304"><time>2025-04-28T11:09:38.000Z</time><ele>336.2</ele></trkpt><trkpt lat="45.978413" lon="10.316315"><time>2025-04-28T11:09:39.000Z</time><ele>336</ele></trkpt><trkpt lat="45.978398" lon="10.316324"><time>2025-04-28T11:09:40.000Z</time><ele>336</ele></trkpt><trkpt lat="45.978385" lon="10.316336"><time>2025-04-28T11:09:41.000Z</time><ele>335.8</ele></trkpt><trkpt lat="45.978371" lon="10.316344"><time>2025-04-28T11:09:42.000Z</time><ele>335.6</ele></trkpt><trkpt lat="45.978358" lon="10.316356"><time>2025-04-28T11:09:43.000Z</time><ele>335.6</ele></trkpt><trkpt lat="45.978347" lon="10.316371"><time>2025-04-28T11:09:44.000Z</time><ele>335.6</ele></trkpt><trkpt lat="45.978333" lon="10.316384"><time>2025-04-28T11:09:45.000Z</time><ele>335.4</ele></trkpt><trkpt lat="45.978321" lon="10.316392"><time>2025-04-28T11:09:46.000Z</time><ele>335.4</ele></trkpt><trkpt lat="45.978307" lon="10.316403"><time>2025-04-28T11:09:47.000Z</time><ele>335.4</ele></trkpt><trkpt lat="45.978296" lon="10.316418"><time>2025-04-28T11:09:48.000Z</time><ele>335.2</ele></trkpt><trkpt lat="45.978289" lon="10.316443"><time>2025-04-28T11:09:49.000Z</time><ele>335</ele></trkpt><trkpt lat="45.978285" lon="10.316464"><time>2025-04-28T11:09:50.000Z</time><ele>334.8</ele></trkpt><trkpt lat="45.978283" lon="10.316483"><time>2025-04-28T11:09:51.000Z</time><ele>334.6</ele></trkpt><trkpt lat="45.978282" lon="10.316506"><time>2025-04-28T11:09:52.000Z</time><ele>334.6</ele></trkpt><trkpt lat="45.978284" lon="10.316528"><time>2025-04-28T11:09:53.000Z</time><ele>334.4</ele></trkpt><trkpt lat="45.978286" lon="10.316553"><time>2025-04-28T11:09:54.000Z</time><ele>334.4</ele></trkpt><trkpt lat="45.97829" lon="10.316575"><time>2025-04-28T11:09:55.000Z</time><ele>334.4</ele></trkpt><trkpt lat="45.978292" lon="10.316594"><time>2025-04-28T11:09:56.000Z</time><ele>334.2</ele></trkpt><trkpt lat="45.978289" lon="10.316613"><time>2025-04-28T11:09:57.000Z</time><ele>334.2</ele></trkpt><trkpt lat="45.978286" lon="10.316625"><time>2025-04-28T11:09:58.000Z</time><ele>334.2</ele></trkpt><trkpt lat="45.978277" lon="10.316637"><time>2025-04-28T11:09:59.000Z</time><ele>334.2</ele></trkpt><trkpt lat="45.978265" lon="10.316653"><time>2025-04-28T11:10:00.000Z</time><ele>334.2</ele></trkpt><trkpt lat="45.978257" lon="10.316661"><time>2025-04-28T11:10:01.000Z</time><ele>334</ele></trkpt><trkpt lat="45.978252" lon="10.316668"><time>2025-04-28T11:10:02.000Z</time><ele>333.8</ele></trkpt><trkpt lat="45.978246" lon="10.316665"><time>2025-04-28T11:10:03.000Z</time><ele>333.8</ele></trkpt><trkpt lat="45.978238" lon="10.31666"><time>2025-04-28T11:10:04.000Z</time><ele>333.6</ele></trkpt><trkpt lat="45.978226" lon="10.316652"><time>2025-04-28T11:10:05.000Z</time><ele>333.8</ele></trkpt><trkpt lat="45.978212" lon="10.316641"><time>2025-04-28T11:10:06.000Z</time><ele>333.8</ele></trkpt><trkpt lat="45.978197" lon="10.316633"><time>2025-04-28T11:10:07.000Z</time><ele>333.8</ele></trkpt><trkpt lat="45.97818" lon="10.316623"><time>2025-04-28T11:10:08.000Z</time><ele>333.8</ele></trkpt><trkpt lat="45.978167" lon="10.316621"><time>2025-04-28T11:10:09.000Z</time><ele>333.8</ele></trkpt><trkpt lat="45.978154" lon="10.316622"><time>2025-04-28T11:10:10.000Z</time><ele>333.8</ele></trkpt><trkpt lat="45.97814" lon="10.316623"><time>2025-04-28T11:10:11.000Z</time><ele>333.8</ele></trkpt><trkpt lat="45.978124" lon="10.316623"><time>2025-04-28T11:10:12.000Z</time><ele>333.8</ele></trkpt><trkpt lat="45.978108" lon="10.316621"><time>2025-04-28T11:10:13.000Z</time><ele>333.8</ele></trkpt><trkpt lat="45.978091" lon="10.316618"><time>2025-04-28T11:10:14.000Z</time><ele>333.8</ele></trkpt><trkpt lat="45.978074" lon="10.316618"><time>2025-04-28T11:10:15.000Z</time><ele>333.8</ele></trkpt><trkpt lat="45.978057" lon="10.316621"><time>2025-04-28T11:10:16.000Z</time><ele>333.6</ele></trkpt><trkpt lat="45.97804" lon="10.316623"><time>2025-04-28T11:10:17.000Z</time><ele>333.6</ele></trkpt><trkpt lat="45.97802" lon="10.316622"><time>2025-04-28T11:10:18.000Z</time><ele>333.4</ele></trkpt><trkpt lat="45.978004" lon="10.316629"><time>2025-04-28T11:10:19.000Z</time><ele>333.4</ele></trkpt><trkpt lat="45.97799" lon="10.316639"><time>2025-04-28T11:10:20.000Z</time><ele>333.2</ele></trkpt><trkpt lat="45.977978" lon="10.316652"><time>2025-04-28T11:10:21.000Z</time><ele>333.2</ele></trkpt><trkpt lat="45.977968" lon="10.316665"><time>2025-04-28T11:10:22.000Z</time><ele>333.2</ele></trkpt><trkpt lat="45.977956" lon="10.316677"><time>2025-04-28T11:10:23.000Z</time><ele>333.2</ele></trkpt><trkpt lat="45.977941" lon="10.31669"><time>2025-04-28T11:10:24.000Z</time><ele>333</ele></trkpt><trkpt lat="45.977926" lon="10.316704"><time>2025-04-28T11:10:25.000Z</time><ele>333</ele></trkpt><trkpt lat="45.977912" lon="10.316715"><time>2025-04-28T11:10:26.000Z</time><ele>332.8</ele></trkpt><trkpt lat="45.9779" lon="10.316726"><time>2025-04-28T11:10:27.000Z</time><ele>332.6</ele></trkpt><trkpt lat="45.977888" lon="10.31674"><time>2025-04-28T11:10:28.000Z</time><ele>332.6</ele></trkpt><trkpt lat="45.977874" lon="10.316753"><time>2025-04-28T11:10:29.000Z</time><ele>332.4</ele></trkpt><trkpt lat="45.977863" lon="10.316765"><time>2025-04-28T11:10:30.000Z</time><ele>332.4</ele></trkpt><trkpt lat="45.977854" lon="10.31678"><time>2025-04-28T11:10:31.000Z</time><ele>332.4</ele></trkpt><trkpt lat="45.977847" lon="10.316794"><time>2025-04-28T11:10:32.000Z</time><ele>332.2</ele></trkpt><trkpt lat="45.977842" lon="10.316806"><time>2025-04-28T11:10:33.000Z</time><ele>332.2</ele></trkpt><trkpt lat="45.977838" lon="10.316817"><time>2025-04-28T11:10:34.000Z</time><ele>332</ele></trkpt><trkpt lat="45.977834" lon="10.316826"><time>2025-04-28T11:10:35.000Z</time><ele>332</ele></trkpt><trkpt lat="45.977834" lon="10.316844"><time>2025-04-28T11:10:36.000Z</time><ele>332</ele></trkpt><trkpt lat="45.977847" lon="10.316854"><time>2025-04-28T11:10:37.000Z</time><ele>331.8</ele></trkpt><trkpt lat="45.977864" lon="10.316859"><time>2025-04-28T11:10:38.000Z</time><ele>331.8</ele></trkpt><trkpt lat="45.977879" lon="10.316854"><time>2025-04-28T11:10:39.000Z</time><ele>331.6</ele></trkpt><trkpt lat="45.977896" lon="10.316843"><time>2025-04-28T11:10:40.000Z</time><ele>331.4</ele></trkpt><trkpt lat="45.977907" lon="10.316838"><time>2025-04-28T11:10:41.000Z</time><ele>331</ele></trkpt><trkpt lat="45.977921" lon="10.316831"><time>2025-04-28T11:10:42.000Z</time><ele>330.8</ele></trkpt><trkpt lat="45.977933" lon="10.316827"><time>2025-04-28T11:10:43.000Z</time><ele>330.6</ele></trkpt><trkpt lat="45.977947" lon="10.316825"><time>2025-04-28T11:10:44.000Z</time><ele>330.2</ele></trkpt><trkpt lat="45.977961" lon="10.31682"><time>2025-04-28T11:10:45.000Z</time><ele>330</ele></trkpt><trkpt lat="45.977974" lon="10.316819"><time>2025-04-28T11:10:46.000Z</time><ele>329.8</ele></trkpt><trkpt lat="45.977988" lon="10.316821"><time>2025-04-28T11:10:47.000Z</time><ele>329.6</ele></trkpt><trkpt lat="45.978002" lon="10.316818"><time>2025-04-28T11:10:48.000Z</time><ele>329.2</ele></trkpt><trkpt lat="45.978014" lon="10.316821"><time>2025-04-28T11:10:49.000Z</time><ele>329</ele></trkpt><trkpt lat="45.978026" lon="10.316824"><time>2025-04-28T11:10:50.000Z</time><ele>328.8</ele></trkpt><trkpt lat="45.978037" lon="10.316829"><time>2025-04-28T11:10:51.000Z</time><ele>328.4</ele></trkpt><trkpt lat="45.978052" lon="10.316829"><time>2025-04-28T11:10:52.000Z</time><ele>328.2</ele></trkpt><trkpt lat="45.978067" lon="10.316832"><time>2025-04-28T11:10:53.000Z</time><ele>328.2</ele></trkpt><trkpt lat="45.978082" lon="10.316834"><time>2025-04-28T11:10:54.000Z</time><ele>328</ele></trkpt><trkpt lat="45.978096" lon="10.316835"><time>2025-04-28T11:10:55.000Z</time><ele>328</ele></trkpt><trkpt lat="45.978112" lon="10.316838"><time>2025-04-28T11:10:56.000Z</time><ele>328.2</ele></trkpt><trkpt lat="45.978128" lon="10.316844"><time>2025-04-28T11:10:57.000Z</time><ele>328.2</ele></trkpt><trkpt lat="45.978145" lon="10.316852"><time>2025-04-28T11:10:58.000Z</time><ele>328.2</ele></trkpt><trkpt lat="45.97816" lon="10.316859"><time>2025-04-28T11:10:59.000Z</time><ele>328.4</ele></trkpt><trkpt lat="45.978174" lon="10.316865"><time>2025-04-28T11:11:00.000Z</time><ele>328.4</ele></trkpt><trkpt lat="45.97819" lon="10.31687"><time>2025-04-28T11:11:01.000Z</time><ele>328.4</ele></trkpt><trkpt lat="45.978203" lon="10.316876"><time>2025-04-28T11:11:02.000Z</time><ele>328.4</ele></trkpt><trkpt lat="45.978214" lon="10.31688"><time>2025-04-28T11:11:03.000Z</time><ele>328.4</ele></trkpt><trkpt lat="45.978227" lon="10.316886"><time>2025-04-28T11:11:04.000Z</time><ele>328.4</ele></trkpt><trkpt lat="45.978238" lon="10.316884"><time>2025-04-28T11:11:05.000Z</time><ele>328.2</ele></trkpt><trkpt lat="45.978252" lon="10.316886"><time>2025-04-28T11:11:06.000Z</time><ele>328.2</ele></trkpt><trkpt lat="45.978266" lon="10.316888"><time>2025-04-28T11:11:07.000Z</time><ele>328</ele></trkpt><trkpt lat="45.97828" lon="10.316899"><time>2025-04-28T11:11:08.000Z</time><ele>328</ele></trkpt><trkpt lat="45.978293" lon="10.316898"><time>2025-04-28T11:11:09.000Z</time><ele>328</ele></trkpt><trkpt lat="45.978303" lon="10.316906"><time>2025-04-28T11:11:10.000Z</time><ele>327.8</ele></trkpt><trkpt lat="45.978312" lon="10.316913"><time>2025-04-28T11:11:11.000Z</time><ele>327.6</ele></trkpt><trkpt lat="45.978322" lon="10.316922"><time>2025-04-28T11:11:12.000Z</time><ele>327.6</ele></trkpt><trkpt lat="45.978327" lon="10.316933"><time>2025-04-28T11:11:13.000Z</time><ele>327.6</ele></trkpt><trkpt lat="45.978335" lon="10.316945"><time>2025-04-28T11:11:14.000Z</time><ele>327.6</ele></trkpt><trkpt lat="45.978348" lon="10.316947"><time>2025-04-28T11:11:15.000Z</time><ele>327.4</ele></trkpt><trkpt lat="45.978361" lon="10.316941"><time>2025-04-28T11:11:16.000Z</time><ele>327.4</ele></trkpt><trkpt lat="45.978376" lon="10.316944"><time>2025-04-28T11:11:17.000Z</time><ele>327.4</ele></trkpt><trkpt lat="45.978389" lon="10.316946"><time>2025-04-28T11:11:18.000Z</time><ele>327.4</ele></trkpt><trkpt lat="45.978401" lon="10.316942"><time>2025-04-28T11:11:19.000Z</time><ele>327.4</ele></trkpt><trkpt lat="45.978406" lon="10.316941"><time>2025-04-28T11:11:20.000Z</time><ele>327.4</ele></trkpt><trkpt lat="45.978406" lon="10.316943"><time>2025-04-28T11:11:21.000Z</time><ele>327.4</ele></trkpt><trkpt lat="45.978406" lon="10.316944"><time>2025-04-28T11:11:22.000Z</time><ele>327.4</ele></trkpt><trkpt lat="45.978405" lon="10.316946"><time>2025-04-28T11:11:23.000Z</time><ele>327.4</ele></trkpt><trkpt lat="45.978404" lon="10.316947"><time>2025-04-28T11:11:24.000Z</time><ele>327.4</ele></trkpt><trkpt lat="45.978402" lon="10.316947"><time>2025-04-28T11:11:25.000Z</time><ele>327.4</ele></trkpt><trkpt lat="45.978402" lon="10.316946"><time>2025-04-28T11:11:26.000Z</time><ele>327.4</ele></trkpt><trkpt lat="45.978406" lon="10.316946"><time>2025-04-28T11:11:27.000Z</time><ele>327.4</ele></trkpt><trkpt lat="45.978405" lon="10.316946"><time>2025-04-28T11:11:28.000Z</time><ele>327.4</ele></trkpt><trkpt lat="45.978406" lon="10.316946"><time>2025-04-28T11:11:29.000Z</time><ele>327.4</ele></trkpt><trkpt lat="45.978398" lon="10.316943"><time>2025-04-28T11:11:30.000Z</time><ele>327.4</ele></trkpt><trkpt lat="45.978398" lon="10.316944"><time>2025-04-28T11:11:31.000Z</time><ele>327.4</ele></trkpt><trkpt lat="45.978397" lon="10.316945"><time>2025-04-28T11:11:32.000Z</time><ele>327.4</ele></trkpt><trkpt lat="45.978397" lon="10.316945"><time>2025-04-28T11:11:33.000Z</time><ele>327.4</ele></trkpt><trkpt lat="45.978397" lon="10.316943"><time>2025-04-28T11:11:34.000Z</time><ele>327.4</ele></trkpt><trkpt lat="45.978398" lon="10.316944"><time>2025-04-28T11:11:35.000Z</time><ele>327.4</ele></trkpt><trkpt lat="45.978401" lon="10.316947"><time>2025-04-28T11:11:36.000Z</time><ele>327.6</ele></trkpt><trkpt lat="45.978402" lon="10.316949"><time>2025-04-28T11:11:37.000Z</time><ele>327.6</ele></trkpt><trkpt lat="45.9784" lon="10.316947"><time>2025-04-28T11:11:38.000Z</time><ele>327.6</ele></trkpt><trkpt lat="45.978399" lon="10.316946"><time>2025-04-28T11:11:39.000Z</time><ele>327.6</ele></trkpt><trkpt lat="45.978401" lon="10.316947"><time>2025-04-28T11:11:40.000Z</time><ele>327.6</ele></trkpt><trkpt lat="45.978402" lon="10.31695"><time>2025-04-28T11:11:41.000Z</time><ele>327.4</ele></trkpt><trkpt lat="45.978402" lon="10.316951"><time>2025-04-28T11:11:42.000Z</time><ele>327.4</ele></trkpt><trkpt lat="45.978402" lon="10.316951"><time>2025-04-28T11:11:43.000Z</time><ele>327.2</ele></trkpt><trkpt lat="45.978402" lon="10.316951"><time>2025-04-28T11:11:44.000Z</time><ele>327.2</ele></trkpt><trkpt lat="45.978402" lon="10.316951"><time>2025-04-28T11:11:45.000Z</time><ele>327.2</ele></trkpt><trkpt lat="45.978402" lon="10.316951"><time>2025-04-28T11:11:46.000Z</time><ele>327.2</ele></trkpt><trkpt lat="45.978402" lon="10.316951"><time>2025-04-28T11:11:47.000Z</time><ele>327.2</ele></trkpt><trkpt lat="45.978402" lon="10.316951"><time>2025-04-28T11:11:48.000Z</time><ele>327.2</ele></trkpt><trkpt lat="45.978402" lon="10.316951"><time>2025-04-28T11:11:49.000Z</time><ele>327.2</ele></trkpt><trkpt lat="45.978402" lon="10.316951"><time>2025-04-28T11:11:50.000Z</time><ele>327.2</ele></trkpt><trkpt lat="45.978402" lon="10.316951"><time>2025-04-28T11:11:51.000Z</time><ele>327.2</ele></trkpt><trkpt lat="45.978402" lon="10.316951"><time>2025-04-28T11:11:52.000Z</time><ele>327.2</ele></trkpt><trkpt lat="45.978402" lon="10.316951"><time>2025-04-28T11:11:53.000Z</time><ele>327.2</ele></trkpt><trkpt lat="45.978402" lon="10.316951"><time>2025-04-28T11:11:54.000Z</time><ele>327.2</ele></trkpt><trkpt lat="45.978402" lon="10.316951"><time>2025-04-28T11:11:55.000Z</time><ele>327.2</ele></trkpt><trkpt lat="45.978402" lon="10.316951"><time>2025-04-28T11:11:56.000Z</time><ele>327.2</ele></trkpt><trkpt lat="45.978402" lon="10.316951"><time>2025-04-28T11:11:57.000Z</time><ele>327.2</ele></trkpt><trkpt lat="45.978408" lon="10.316958"><time>2025-04-28T11:11:58.000Z</time><ele>327.2</ele></trkpt><trkpt lat="45.97841" lon="10.316959"><time>2025-04-28T11:11:59.000Z</time><ele>327.2</ele></trkpt><trkpt lat="45.978411" lon="10.31696"><time>2025-04-28T11:12:00.000Z</time><ele>327.2</ele></trkpt><trkpt lat="45.978411" lon="10.31696"><time>2025-04-28T11:12:01.000Z</time><ele>327.2</ele></trkpt><trkpt lat="45.978411" lon="10.316961"><time>2025-04-28T11:12:02.000Z</time><ele>327.2</ele></trkpt><trkpt lat="45.978411" lon="10.316961"><time>2025-04-28T11:12:03.000Z</time><ele>327.4</ele></trkpt><trkpt lat="45.978411" lon="10.316961"><time>2025-04-28T11:12:04.000Z</time><ele>327.6</ele></trkpt><trkpt lat="45.978411" lon="10.316961"><time>2025-04-28T11:12:05.000Z</time><ele>327.6</ele></trkpt><trkpt lat="45.978411" lon="10.316962"><time>2025-04-28T11:12:06.000Z</time><ele>327.6</ele></trkpt><trkpt lat="45.978411" lon="10.316962"><time>2025-04-28T11:12:07.000Z</time><ele>327.4</ele></trkpt><trkpt lat="45.978411" lon="10.316963"><time>2025-04-28T11:12:08.000Z</time><ele>327.4</ele></trkpt><trkpt lat="45.978411" lon="10.316963"><time>2025-04-28T11:12:09.000Z</time><ele>327.4</ele></trkpt><trkpt lat="45.978411" lon="10.316963"><time>2025-04-28T11:12:10.000Z</time><ele>327.4</ele></trkpt><trkpt lat="45.978411" lon="10.316964"><time>2025-04-28T11:12:11.000Z</time><ele>327.4</ele></trkpt><trkpt lat="45.978411" lon="10.316964"><time>2025-04-28T11:12:12.000Z</time><ele>327.4</ele></trkpt><trkpt lat="45.978411" lon="10.316964"><time>2025-04-28T11:12:13.000Z</time><ele>327.4</ele></trkpt><trkpt lat="45.978412" lon="10.316964"><time>2025-04-28T11:12:14.000Z</time><ele>327.4</ele></trkpt><trkpt lat="45.978412" lon="10.316965"><time>2025-04-28T11:12:15.000Z</time><ele>327.4</ele></trkpt><trkpt lat="45.978412" lon="10.316965"><time>2025-04-28T11:12:16.000Z</time><ele>327.4</ele></trkpt><trkpt lat="45.978412" lon="10.316966"><time>2025-04-28T11:12:17.000Z</time><ele>327.4</ele></trkpt><trkpt lat="45.978412" lon="10.316966"><time>2025-04-28T11:12:18.000Z</time><ele>327.4</ele></trkpt><trkpt lat="45.978412" lon="10.316966"><time>2025-04-28T11:12:19.000Z</time><ele>327.6</ele></trkpt><trkpt lat="45.978412" lon="10.316966"><time>2025-04-28T11:12:20.000Z</time><ele>327.6</ele></trkpt><trkpt lat="45.978412" lon="10.316967"><time>2025-04-28T11:12:21.000Z</time><ele>327.6</ele></trkpt><trkpt lat="45.978412" lon="10.316967"><time>2025-04-28T11:12:22.000Z</time><ele>327.6</ele></trkpt><trkpt lat="45.978413" lon="10.316967"><time>2025-04-28T11:12:23.000Z</time><ele>327.8</ele></trkpt><trkpt lat="45.978414" lon="10.316967"><time>2025-04-28T11:12:24.000Z</time><ele>327.8</ele></trkpt><trkpt lat="45.978414" lon="10.316968"><time>2025-04-28T11:12:25.000Z</time><ele>327.8</ele></trkpt><trkpt lat="45.978415" lon="10.316969"><time>2025-04-28T11:12:26.000Z</time><ele>328</ele></trkpt><trkpt lat="45.978415" lon="10.31697"><time>2025-04-28T11:12:27.000Z</time><ele>328</ele></trkpt><trkpt lat="45.978415" lon="10.31697"><time>2025-04-28T11:12:28.000Z</time><ele>328</ele></trkpt><trkpt lat="45.978416" lon="10.31697"><time>2025-04-28T11:12:29.000Z</time><ele>328</ele></trkpt><trkpt lat="45.978419" lon="10.316974"><time>2025-04-28T11:12:30.000Z</time><ele>328</ele></trkpt><trkpt lat="45.978419" lon="10.316978"><time>2025-04-28T11:12:31.000Z</time><ele>328</ele></trkpt><trkpt lat="45.978422" lon="10.316983"><time>2025-04-28T11:12:32.000Z</time><ele>328</ele></trkpt><trkpt lat="45.978426" lon="10.316989"><time>2025-04-28T11:12:33.000Z</time><ele>328</ele></trkpt><trkpt lat="45.97843" lon="10.316992"><time>2025-04-28T11:12:34.000Z</time><ele>328</ele></trkpt><trkpt lat="45.978433" lon="10.316998"><time>2025-04-28T11:12:35.000Z</time><ele>328</ele></trkpt><trkpt lat="45.978436" lon="10.317"><time>2025-04-28T11:12:36.000Z</time><ele>328</ele></trkpt><trkpt lat="45.978436" lon="10.317"><time>2025-04-28T11:12:37.000Z</time><ele>328</ele></trkpt><trkpt lat="45.978436" lon="10.317"><time>2025-04-28T11:12:38.000Z</time><ele>328</ele></trkpt><trkpt lat="45.978436" lon="10.317"><time>2025-04-28T11:12:39.000Z</time><ele>328</ele></trkpt><trkpt lat="45.978436" lon="10.317"><time>2025-04-28T11:12:40.000Z</time><ele>328</ele></trkpt><trkpt lat="45.978436" lon="10.317"><time>2025-04-28T11:12:41.000Z</time><ele>328</ele></trkpt><trkpt lat="45.978436" lon="10.317"><time>2025-04-28T11:12:42.000Z</time><ele>328</ele></trkpt><trkpt lat="45.978436" lon="10.317"><time>2025-04-28T11:12:43.000Z</time><ele>328</ele></trkpt><trkpt lat="45.978436" lon="10.317"><time>2025-04-28T11:12:44.000Z</time><ele>328</ele></trkpt><trkpt lat="45.978436" lon="10.317"><time>2025-04-28T11:12:45.000Z</time><ele>328</ele></trkpt><trkpt lat="45.978436" lon="10.317"><time>2025-04-28T11:12:46.000Z</time><ele>328</ele></trkpt><trkpt lat="45.978436" lon="10.317"><time>2025-04-28T11:12:47.000Z</time><ele>328</ele></trkpt><trkpt lat="45.978436" lon="10.317"><time>2025-04-28T11:12:48.000Z</time><ele>328</ele></trkpt><trkpt lat="45.978436" lon="10.317001"><time>2025-04-28T11:12:49.000Z</time><ele>328</ele></trkpt><trkpt lat="45.978436" lon="10.317002"><time>2025-04-28T11:12:50.000Z</time><ele>328</ele></trkpt><trkpt lat="45.978436" lon="10.317002"><time>2025-04-28T11:12:51.000Z</time><ele>328</ele></trkpt><trkpt lat="45.978436" lon="10.317002"><time>2025-04-28T11:12:52.000Z</time><ele>328</ele></trkpt><trkpt lat="45.978436" lon="10.317003"><time>2025-04-28T11:12:53.000Z</time><ele>328</ele></trkpt><trkpt lat="45.978437" lon="10.317005"><time>2025-04-28T11:12:54.000Z</time><ele>328</ele></trkpt><trkpt lat="45.978438" lon="10.317006"><time>2025-04-28T11:12:55.000Z</time><ele>328</ele></trkpt><trkpt lat="45.978438" lon="10.317006"><time>2025-04-28T11:12:56.000Z</time><ele>328</ele></trkpt><trkpt lat="45.978438" lon="10.317007"><time>2025-04-28T11:12:57.000Z</time><ele>328</ele></trkpt><trkpt lat="45.978437" lon="10.317007"><time>2025-04-28T11:12:58.000Z</time><ele>328</ele></trkpt><trkpt lat="45.978437" lon="10.317007"><time>2025-04-28T11:12:59.000Z</time><ele>328</ele></trkpt><trkpt lat="45.978437" lon="10.317007"><time>2025-04-28T11:13:00.000Z</time><ele>328</ele></trkpt><trkpt lat="45.978437" lon="10.317007"><time>2025-04-28T11:13:01.000Z</time><ele>328</ele></trkpt><trkpt lat="45.978437" lon="10.317007"><time>2025-04-28T11:13:02.000Z</time><ele>328</ele></trkpt><trkpt lat="45.978437" lon="10.317008"><time>2025-04-28T11:13:03.000Z</time><ele>328</ele></trkpt><trkpt lat="45.978437" lon="10.317008"><time>2025-04-28T11:13:04.000Z</time><ele>328</ele></trkpt><trkpt lat="45.978437" lon="10.317008"><time>2025-04-28T11:13:05.000Z</time><ele>328</ele></trkpt><trkpt lat="45.978437" lon="10.317008"><time>2025-04-28T11:13:06.000Z</time><ele>328</ele></trkpt><trkpt lat="45.978437" lon="10.317008"><time>2025-04-28T11:13:07.000Z</time><ele>328</ele></trkpt><trkpt lat="45.978437" lon="10.317008"><time>2025-04-28T11:13:08.000Z</time><ele>328</ele></trkpt><trkpt lat="45.978438" lon="10.317008"><time>2025-04-28T11:13:09.000Z</time><ele>328</ele></trkpt><trkpt lat="45.97844" lon="10.31701"><time>2025-04-28T11:13:10.000Z</time><ele>328</ele></trkpt><trkpt lat="45.97844" lon="10.317012"><time>2025-04-28T11:13:11.000Z</time><ele>328</ele></trkpt><trkpt lat="45.978441" lon="10.317012"><time>2025-04-28T11:13:12.000Z</time><ele>328</ele></trkpt><trkpt lat="45.978441" lon="10.317013"><time>2025-04-28T11:13:13.000Z</time><ele>328</ele></trkpt><trkpt lat="45.978442" lon="10.317013"><time>2025-04-28T11:13:14.000Z</time><ele>328</ele></trkpt><trkpt lat="45.978442" lon="10.317013"><time>2025-04-28T11:13:15.000Z</time><ele>328</ele></trkpt><trkpt lat="45.978442" lon="10.317012"><time>2025-04-28T11:13:16.000Z</time><ele>328</ele></trkpt><trkpt lat="45.978442" lon="10.317003"><time>2025-04-28T11:13:17.000Z</time><ele>328</ele></trkpt><trkpt lat="45.978441" lon="10.317002"><time>2025-04-28T11:13:18.000Z</time><ele>328</ele></trkpt><trkpt lat="45.978437" lon="10.317001"><time>2025-04-28T11:13:19.000Z</time><ele>328</ele></trkpt><trkpt lat="45.978435" lon="10.316996"><time>2025-04-28T11:13:20.000Z</time><ele>328</ele></trkpt><trkpt lat="45.978434" lon="10.316989"><time>2025-04-28T11:13:21.000Z</time><ele>328</ele></trkpt><trkpt lat="45.978429" lon="10.316985"><time>2025-04-28T11:13:22.000Z</time><ele>328</ele></trkpt><trkpt lat="45.978426" lon="10.316983"><time>2025-04-28T11:13:23.000Z</time><ele>328</ele></trkpt><trkpt lat="45.978425" lon="10.316984"><time>2025-04-28T11:13:24.000Z</time><ele>328</ele></trkpt><trkpt lat="45.978425" lon="10.316982"><time>2025-04-28T11:13:25.000Z</time><ele>328</ele></trkpt><trkpt lat="45.978426" lon="10.316983"><time>2025-04-28T11:13:26.000Z</time><ele>328</ele></trkpt><trkpt lat="45.978426" lon="10.316985"><time>2025-04-28T11:13:27.000Z</time><ele>328</ele></trkpt><trkpt lat="45.978425" lon="10.316986"><time>2025-04-28T11:13:28.000Z</time><ele>328</ele></trkpt><trkpt lat="45.978425" lon="10.316987"><time>2025-04-28T11:13:29.000Z</time><ele>328</ele></trkpt><trkpt lat="45.978426" lon="10.316986"><time>2025-04-28T11:13:30.000Z</time><ele>328</ele></trkpt><trkpt lat="45.978426" lon="10.316986"><time>2025-04-28T11:13:31.000Z</time><ele>328</ele></trkpt><trkpt lat="45.978426" lon="10.316986"><time>2025-04-28T11:13:32.000Z</time><ele>328</ele></trkpt><trkpt lat="45.978426" lon="10.316986"><time>2025-04-28T11:13:33.000Z</time><ele>328</ele></trkpt><trkpt lat="45.978426" lon="10.316986"><time>2025-04-28T11:13:34.000Z</time><ele>328</ele></trkpt><trkpt lat="45.978426" lon="10.316986"><time>2025-04-28T11:13:35.000Z</time><ele>328</ele></trkpt><trkpt lat="45.978426" lon="10.316986"><time>2025-04-28T11:13:36.000Z</time><ele>328</ele></trkpt><trkpt lat="45.978426" lon="10.316986"><time>2025-04-28T11:13:37.000Z</time><ele>328</ele></trkpt><trkpt lat="45.978426" lon="10.316986"><time>2025-04-28T11:13:38.000Z</time><ele>328</ele></trkpt><trkpt lat="45.978426" lon="10.316986"><time>2025-04-28T11:13:39.000Z</time><ele>328</ele></trkpt><trkpt lat="45.978426" lon="10.316985"><time>2025-04-28T11:13:40.000Z</time><ele>328</ele></trkpt><trkpt lat="45.978426" lon="10.316985"><time>2025-04-28T11:13:41.000Z</time><ele>328</ele></trkpt><trkpt lat="45.978426" lon="10.316985"><time>2025-04-28T11:13:42.000Z</time><ele>328</ele></trkpt><trkpt lat="45.978426" lon="10.316985"><time>2025-04-28T11:13:43.000Z</time><ele>328</ele></trkpt><trkpt lat="45.978426" lon="10.316985"><time>2025-04-28T11:13:44.000Z</time><ele>328</ele></trkpt><trkpt lat="45.978426" lon="10.316985"><time>2025-04-28T11:13:45.000Z</time><ele>328</ele></trkpt><trkpt lat="45.978424" lon="10.316983"><time>2025-04-28T11:13:46.000Z</time><ele>328</ele></trkpt><trkpt lat="45.978421" lon="10.316978"><time>2025-04-28T11:13:47.000Z</time><ele>328</ele></trkpt><trkpt lat="45.978419" lon="10.316978"><time>2025-04-28T11:13:48.000Z</time><ele>328</ele></trkpt><trkpt lat="45.978419" lon="10.316978"><time>2025-04-28T11:13:49.000Z</time><ele>328</ele></trkpt><trkpt lat="45.978419" lon="10.316978"><time>2025-04-28T11:13:50.000Z</time><ele>328</ele></trkpt><trkpt lat="45.978419" lon="10.316978"><time>2025-04-28T11:13:51.000Z</time><ele>328</ele></trkpt><trkpt lat="45.978419" lon="10.316978"><time>2025-04-28T11:13:52.000Z</time><ele>328</ele></trkpt><trkpt lat="45.978419" lon="10.316978"><time>2025-04-28T11:13:53.000Z</time><ele>328</ele></trkpt><trkpt lat="45.978419" lon="10.316978"><time>2025-04-28T11:13:54.000Z</time><ele>328</ele></trkpt><trkpt lat="45.978419" lon="10.316978"><time>2025-04-28T11:13:55.000Z</time><ele>328</ele></trkpt><trkpt lat="45.978419" lon="10.316978"><time>2025-04-28T11:13:56.000Z</time><ele>328</ele></trkpt><trkpt lat="45.978419" lon="10.316978"><time>2025-04-28T11:13:57.000Z</time><ele>328</ele></trkpt><trkpt lat="45.978419" lon="10.316978"><time>2025-04-28T11:13:58.000Z</time><ele>328</ele></trkpt><trkpt lat="45.978418" lon="10.316978"><time>2025-04-28T11:13:59.000Z</time><ele>328</ele></trkpt><trkpt lat="45.978413" lon="10.316976"><time>2025-04-28T11:14:00.000Z</time><ele>328</ele></trkpt><trkpt lat="45.978408" lon="10.316968"><time>2025-04-28T11:14:01.000Z</time><ele>328</ele></trkpt><trkpt lat="45.978408" lon="10.316967"><time>2025-04-28T11:14:02.000Z</time><ele>328</ele></trkpt><trkpt lat="45.978408" lon="10.316967"><time>2025-04-28T11:14:03.000Z</time><ele>328</ele></trkpt><trkpt lat="45.978408" lon="10.316967"><time>2025-04-28T11:14:04.000Z</time><ele>328</ele></trkpt><trkpt lat="45.978408" lon="10.316967"><time>2025-04-28T11:14:05.000Z</time><ele>328</ele></trkpt><trkpt lat="45.978408" lon="10.316967"><time>2025-04-28T11:14:06.000Z</time><ele>328</ele></trkpt><trkpt lat="45.978408" lon="10.316967"><time>2025-04-28T11:14:07.000Z</time><ele>328</ele></trkpt><trkpt lat="45.978408" lon="10.316967"><time>2025-04-28T11:14:08.000Z</time><ele>328</ele></trkpt><trkpt lat="45.978408" lon="10.316967"><time>2025-04-28T11:14:09.000Z</time><ele>328</ele></trkpt><trkpt lat="45.978408" lon="10.316967"><time>2025-04-28T11:14:10.000Z</time><ele>328</ele></trkpt><trkpt lat="45.978408" lon="10.316967"><time>2025-04-28T11:14:11.000Z</time><ele>328</ele></trkpt><trkpt lat="45.978408" lon="10.316967"><time>2025-04-28T11:14:12.000Z</time><ele>328</ele></trkpt><trkpt lat="45.978408" lon="10.316967"><time>2025-04-28T11:14:13.000Z</time><ele>328</ele></trkpt><trkpt lat="45.978408" lon="10.316967"><time>2025-04-28T11:14:14.000Z</time><ele>328</ele></trkpt><trkpt lat="45.978408" lon="10.316967"><time>2025-04-28T11:14:15.000Z</time><ele>328</ele></trkpt><trkpt lat="45.978408" lon="10.316968"><time>2025-04-28T11:14:16.000Z</time><ele>328</ele></trkpt><trkpt lat="45.978409" lon="10.316969"><time>2025-04-28T11:14:17.000Z</time><ele>328</ele></trkpt><trkpt lat="45.978409" lon="10.316969"><time>2025-04-28T11:14:18.000Z</time><ele>328</ele></trkpt><trkpt lat="45.978409" lon="10.31697"><time>2025-04-28T11:14:19.000Z</time><ele>328</ele></trkpt><trkpt lat="45.978409" lon="10.31697"><time>2025-04-28T11:14:20.000Z</time><ele>328</ele></trkpt><trkpt lat="45.978409" lon="10.316971"><time>2025-04-28T11:14:21.000Z</time><ele>328</ele></trkpt><trkpt lat="45.978409" lon="10.316971"><time>2025-04-28T11:14:22.000Z</time><ele>328</ele></trkpt><trkpt lat="45.978409" lon="10.316972"><time>2025-04-28T11:14:23.000Z</time><ele>328</ele></trkpt><trkpt lat="45.97841" lon="10.316972"><time>2025-04-28T11:14:24.000Z</time><ele>328</ele></trkpt><trkpt lat="45.97841" lon="10.316973"><time>2025-04-28T11:14:25.000Z</time><ele>328</ele></trkpt><trkpt lat="45.97841" lon="10.316974"><time>2025-04-28T11:14:26.000Z</time><ele>328</ele></trkpt><trkpt lat="45.97841" lon="10.316974"><time>2025-04-28T11:14:27.000Z</time><ele>328</ele></trkpt><trkpt lat="45.978411" lon="10.316974"><time>2025-04-28T11:14:28.000Z</time><ele>328</ele></trkpt><trkpt lat="45.978411" lon="10.316975"><time>2025-04-28T11:14:29.000Z</time><ele>328</ele></trkpt><trkpt lat="45.978413" lon="10.316976"><time>2025-04-28T11:14:30.000Z</time><ele>328</ele></trkpt><trkpt lat="45.978414" lon="10.316977"><time>2025-04-28T11:14:31.000Z</time><ele>328</ele></trkpt><trkpt lat="45.978414" lon="10.316978"><time>2025-04-28T11:14:32.000Z</time><ele>328</ele></trkpt><trkpt lat="45.978414" lon="10.316978"><time>2025-04-28T11:14:33.000Z</time><ele>328</ele></trkpt><trkpt lat="45.978414" lon="10.316978"><time>2025-04-28T11:14:34.000Z</time><ele>328</ele></trkpt><trkpt lat="45.978415" lon="10.316978"><time>2025-04-28T11:14:35.000Z</time><ele>328</ele></trkpt><trkpt lat="45.978415" lon="10.316978"><time>2025-04-28T11:14:36.000Z</time><ele>328</ele></trkpt><trkpt lat="45.978415" lon="10.316978"><time>2025-04-28T11:14:37.000Z</time><ele>328</ele></trkpt><trkpt lat="45.978415" lon="10.316978"><time>2025-04-28T11:14:38.000Z</time><ele>328</ele></trkpt><trkpt lat="45.978416" lon="10.316978"><time>2025-04-28T11:14:39.000Z</time><ele>328</ele></trkpt><trkpt lat="45.978417" lon="10.316978"><time>2025-04-28T11:14:40.000Z</time><ele>328</ele></trkpt><trkpt lat="45.978418" lon="10.316978"><time>2025-04-28T11:14:41.000Z</time><ele>328</ele></trkpt><trkpt lat="45.978418" lon="10.316978"><time>2025-04-28T11:14:42.000Z</time><ele>328</ele></trkpt><trkpt lat="45.978418" lon="10.316978"><time>2025-04-28T11:14:43.000Z</time><ele>328</ele></trkpt><trkpt lat="45.978419" lon="10.316978"><time>2025-04-28T11:14:44.000Z</time><ele>328</ele></trkpt><trkpt lat="45.978419" lon="10.316978"><time>2025-04-28T11:14:45.000Z</time><ele>328</ele></trkpt><trkpt lat="45.978419" lon="10.316978"><time>2025-04-28T11:14:46.000Z</time><ele>328</ele></trkpt><trkpt lat="45.978419" lon="10.316978"><time>2025-04-28T11:14:47.000Z</time><ele>328</ele></trkpt><trkpt lat="45.978419" lon="10.316978"><time>2025-04-28T11:14:48.000Z</time><ele>328</ele></trkpt><trkpt lat="45.97842" lon="10.316977"><time>2025-04-28T11:14:49.000Z</time><ele>328</ele></trkpt><trkpt lat="45.97842" lon="10.316977"><time>2025-04-28T11:14:50.000Z</time><ele>328</ele></trkpt><trkpt lat="45.97842" lon="10.316977"><time>2025-04-28T11:14:51.000Z</time><ele>328</ele></trkpt><trkpt lat="45.97842" lon="10.316976"><time>2025-04-28T11:14:52.000Z</time><ele>328</ele></trkpt><trkpt lat="45.97842" lon="10.316971"><time>2025-04-28T11:14:53.000Z</time><ele>328</ele></trkpt><trkpt lat="45.97842" lon="10.316969"><time>2025-04-28T11:14:54.000Z</time><ele>328</ele></trkpt><trkpt lat="45.97842" lon="10.316967"><time>2025-04-28T11:14:55.000Z</time><ele>328</ele></trkpt><trkpt lat="45.97842" lon="10.316966"><time>2025-04-28T11:14:56.000Z</time><ele>328</ele></trkpt><trkpt lat="45.978421" lon="10.316965"><time>2025-04-28T11:14:57.000Z</time><ele>328</ele></trkpt><trkpt lat="45.978421" lon="10.316963"><time>2025-04-28T11:14:58.000Z</time><ele>328</ele></trkpt><trkpt lat="45.978421" lon="10.31696"><time>2025-04-28T11:14:59.000Z</time><ele>328</ele></trkpt><trkpt lat="45.978421" lon="10.316958"><time>2025-04-28T11:15:00.000Z</time><ele>328</ele></trkpt><trkpt lat="45.978422" lon="10.316958"><time>2025-04-28T11:15:01.000Z</time><ele>328</ele></trkpt><trkpt lat="45.978422" lon="10.316957"><time>2025-04-28T11:15:02.000Z</time><ele>328</ele></trkpt><trkpt lat="45.978422" lon="10.316957"><time>2025-04-28T11:15:03.000Z</time><ele>328</ele></trkpt><trkpt lat="45.978422" lon="10.316956"><time>2025-04-28T11:15:04.000Z</time><ele>328</ele></trkpt><trkpt lat="45.978423" lon="10.316955"><time>2025-04-28T11:15:05.000Z</time><ele>328</ele></trkpt><trkpt lat="45.978426" lon="10.316951"><time>2025-04-28T11:15:06.000Z</time><ele>328</ele></trkpt><trkpt lat="45.978428" lon="10.316952"><time>2025-04-28T11:15:07.000Z</time><ele>328</ele></trkpt><trkpt lat="45.978431" lon="10.316951"><time>2025-04-28T11:15:08.000Z</time><ele>328</ele></trkpt><trkpt lat="45.978432" lon="10.316952"><time>2025-04-28T11:15:09.000Z</time><ele>328</ele></trkpt><trkpt lat="45.978434" lon="10.316948"><time>2025-04-28T11:15:10.000Z</time><ele>328</ele></trkpt><trkpt lat="45.978438" lon="10.316951"><time>2025-04-28T11:15:11.000Z</time><ele>328</ele></trkpt><trkpt lat="45.978438" lon="10.316952"><time>2025-04-28T11:15:12.000Z</time><ele>328</ele></trkpt><trkpt lat="45.978434" lon="10.316954"><time>2025-04-28T11:15:13.000Z</time><ele>328</ele></trkpt><trkpt lat="45.978432" lon="10.316954"><time>2025-04-28T11:15:14.000Z</time><ele>328</ele></trkpt><trkpt lat="45.978431" lon="10.316955"><time>2025-04-28T11:15:15.000Z</time><ele>328</ele></trkpt><trkpt lat="45.97843" lon="10.316955"><time>2025-04-28T11:15:16.000Z</time><ele>328</ele></trkpt><trkpt lat="45.97843" lon="10.316956"><time>2025-04-28T11:15:17.000Z</time><ele>328</ele></trkpt><trkpt lat="45.978431" lon="10.316956"><time>2025-04-28T11:15:18.000Z</time><ele>328</ele></trkpt><trkpt lat="45.978432" lon="10.316958"><time>2025-04-28T11:15:19.000Z</time><ele>328</ele></trkpt><trkpt lat="45.978431" lon="10.316959"><time>2025-04-28T11:15:20.000Z</time><ele>328</ele></trkpt><trkpt lat="45.97843" lon="10.31696"><time>2025-04-28T11:15:21.000Z</time><ele>328</ele></trkpt><trkpt lat="45.978428" lon="10.31696"><time>2025-04-28T11:15:22.000Z</time><ele>328</ele></trkpt><trkpt lat="45.978428" lon="10.31696"><time>2025-04-28T11:15:23.000Z</time><ele>328</ele></trkpt><trkpt lat="45.978428" lon="10.31696"><time>2025-04-28T11:15:24.000Z</time><ele>328</ele></trkpt><trkpt lat="45.978427" lon="10.316959"><time>2025-04-28T11:15:25.000Z</time><ele>328</ele></trkpt><trkpt lat="45.978426" lon="10.316957"><time>2025-04-28T11:15:26.000Z</time><ele>328</ele></trkpt><trkpt lat="45.978427" lon="10.316955"><time>2025-04-28T11:15:27.000Z</time><ele>328</ele></trkpt><trkpt lat="45.978426" lon="10.316954"><time>2025-04-28T11:15:28.000Z</time><ele>328</ele></trkpt><trkpt lat="45.978425" lon="10.316952"><time>2025-04-28T11:15:29.000Z</time><ele>328</ele></trkpt><trkpt lat="45.978423" lon="10.316951"><time>2025-04-28T11:15:30.000Z</time><ele>328</ele></trkpt><trkpt lat="45.978422" lon="10.31695"><time>2025-04-28T11:15:31.000Z</time><ele>328</ele></trkpt><trkpt lat="45.978419" lon="10.316948"><time>2025-04-28T11:15:32.000Z</time><ele>328</ele></trkpt><trkpt lat="45.978416" lon="10.316946"><time>2025-04-28T11:15:33.000Z</time><ele>328</ele></trkpt><trkpt lat="45.978414" lon="10.316946"><time>2025-04-28T11:15:34.000Z</time><ele>328</ele></trkpt><trkpt lat="45.978411" lon="10.316947"><time>2025-04-28T11:15:35.000Z</time><ele>328</ele></trkpt><trkpt lat="45.978405" lon="10.316946"><time>2025-04-28T11:15:36.000Z</time><ele>328</ele></trkpt><trkpt lat="45.978403" lon="10.316948"><time>2025-04-28T11:15:37.000Z</time><ele>328</ele></trkpt><trkpt lat="45.978402" lon="10.31695"><time>2025-04-28T11:15:38.000Z</time><ele>328</ele></trkpt><trkpt lat="45.978402" lon="10.316951"><time>2025-04-28T11:15:39.000Z</time><ele>328</ele></trkpt><trkpt lat="45.978402" lon="10.316951"><time>2025-04-28T11:15:40.000Z</time><ele>328</ele></trkpt><trkpt lat="45.978402" lon="10.316951"><time>2025-04-28T11:15:41.000Z</time><ele>328</ele></trkpt><trkpt lat="45.978402" lon="10.316951"><time>2025-04-28T11:15:42.000Z</time><ele>328</ele></trkpt><trkpt lat="45.978402" lon="10.316951"><time>2025-04-28T11:15:43.000Z</time><ele>328</ele></trkpt><trkpt lat="45.978402" lon="10.316951"><time>2025-04-28T11:15:44.000Z</time><ele>328</ele></trkpt><trkpt lat="45.978402" lon="10.316951"><time>2025-04-28T11:15:45.000Z</time><ele>328</ele></trkpt><trkpt lat="45.978402" lon="10.316951"><time>2025-04-28T11:15:46.000Z</time><ele>328</ele></trkpt><trkpt lat="45.978402" lon="10.316951"><time>2025-04-28T11:15:47.000Z</time><ele>328</ele></trkpt><trkpt lat="45.978402" lon="10.316951"><time>2025-04-28T11:15:48.000Z</time><ele>328</ele></trkpt><trkpt lat="45.978402" lon="10.316951"><time>2025-04-28T11:15:49.000Z</time><ele>328</ele></trkpt><trkpt lat="45.978402" lon="10.316951"><time>2025-04-28T11:15:50.000Z</time><ele>328</ele></trkpt><trkpt lat="45.978402" lon="10.316951"><time>2025-04-28T11:15:51.000Z</time><ele>328</ele></trkpt><trkpt lat="45.978402" lon="10.316951"><time>2025-04-28T11:15:52.000Z</time><ele>328</ele></trkpt><trkpt lat="45.978402" lon="10.316951"><time>2025-04-28T11:15:53.000Z</time><ele>328</ele></trkpt><trkpt lat="45.978402" lon="10.316951"><time>2025-04-28T11:15:54.000Z</time><ele>328</ele></trkpt><trkpt lat="45.978402" lon="10.316951"><time>2025-04-28T11:15:55.000Z</time><ele>328</ele></trkpt><trkpt lat="45.978403" lon="10.316951"><time>2025-04-28T11:15:56.000Z</time><ele>328</ele></trkpt><trkpt lat="45.978403" lon="10.316951"><time>2025-04-28T11:15:57.000Z</time><ele>328</ele></trkpt><trkpt lat="45.978404" lon="10.316951"><time>2025-04-28T11:15:58.000Z</time><ele>328</ele></trkpt><trkpt lat="45.978404" lon="10.316951"><time>2025-04-28T11:15:59.000Z</time><ele>328</ele></trkpt><trkpt lat="45.978404" lon="10.316954"><time>2025-04-28T11:16:00.000Z</time><ele>328</ele></trkpt><trkpt lat="45.978404" lon="10.316956"><time>2025-04-28T11:16:01.000Z</time><ele>328</ele></trkpt><trkpt lat="45.978404" lon="10.316958"><time>2025-04-28T11:16:02.000Z</time><ele>328</ele></trkpt><trkpt lat="45.978404" lon="10.31696"><time>2025-04-28T11:16:03.000Z</time><ele>328</ele></trkpt><trkpt lat="45.978404" lon="10.316962"><time>2025-04-28T11:16:04.000Z</time><ele>328</ele></trkpt><trkpt lat="45.978404" lon="10.316962"><time>2025-04-28T11:16:05.000Z</time><ele>328</ele></trkpt><trkpt lat="45.978404" lon="10.316963"><time>2025-04-28T11:16:06.000Z</time><ele>328</ele></trkpt><trkpt lat="45.978405" lon="10.316963"><time>2025-04-28T11:16:07.000Z</time><ele>328</ele></trkpt><trkpt lat="45.978405" lon="10.316963"><time>2025-04-28T11:16:08.000Z</time><ele>328</ele></trkpt><trkpt lat="45.978405" lon="10.316963"><time>2025-04-28T11:16:09.000Z</time><ele>328</ele></trkpt><trkpt lat="45.978406" lon="10.316963"><time>2025-04-28T11:16:10.000Z</time><ele>328</ele></trkpt><trkpt lat="45.978406" lon="10.316964"><time>2025-04-28T11:16:11.000Z</time><ele>328</ele></trkpt><trkpt lat="45.978406" lon="10.316964"><time>2025-04-28T11:16:12.000Z</time><ele>328</ele></trkpt><trkpt lat="45.978406" lon="10.316964"><time>2025-04-28T11:16:13.000Z</time><ele>328</ele></trkpt><trkpt lat="45.978406" lon="10.316965"><time>2025-04-28T11:16:14.000Z</time><ele>328</ele></trkpt><trkpt lat="45.978406" lon="10.316965"><time>2025-04-28T11:16:15.000Z</time><ele>328</ele></trkpt><trkpt lat="45.978406" lon="10.316965"><time>2025-04-28T11:16:16.000Z</time><ele>328</ele></trkpt><trkpt lat="45.978406" lon="10.316966"><time>2025-04-28T11:16:17.000Z</time><ele>328</ele></trkpt><trkpt lat="45.978406" lon="10.316967"><time>2025-04-28T11:16:18.000Z</time><ele>328</ele></trkpt><trkpt lat="45.978406" lon="10.316967"><time>2025-04-28T11:16:19.000Z</time><ele>328</ele></trkpt><trkpt lat="45.978406" lon="10.316968"><time>2025-04-28T11:16:20.000Z</time><ele>328</ele></trkpt><trkpt lat="45.978406" lon="10.316968"><time>2025-04-28T11:16:21.000Z</time><ele>328</ele></trkpt><trkpt lat="45.978406" lon="10.316969"><time>2025-04-28T11:16:22.000Z</time><ele>328</ele></trkpt><trkpt lat="45.978406" lon="10.316969"><time>2025-04-28T11:16:23.000Z</time><ele>328</ele></trkpt><trkpt lat="45.978406" lon="10.316969"><time>2025-04-28T11:16:24.000Z</time><ele>328</ele></trkpt><trkpt lat="45.978406" lon="10.31697"><time>2025-04-28T11:16:25.000Z</time><ele>328</ele></trkpt><trkpt lat="45.978406" lon="10.316971"><time>2025-04-28T11:16:26.000Z</time><ele>328</ele></trkpt><trkpt lat="45.978406" lon="10.316971"><time>2025-04-28T11:16:27.000Z</time><ele>328</ele></trkpt><trkpt lat="45.978406" lon="10.316972"><time>2025-04-28T11:16:28.000Z</time><ele>328</ele></trkpt><trkpt lat="45.978406" lon="10.316972"><time>2025-04-28T11:16:29.000Z</time><ele>328</ele></trkpt><trkpt lat="45.978406" lon="10.316973"><time>2025-04-28T11:16:30.000Z</time><ele>328</ele></trkpt><trkpt lat="45.978407" lon="10.316973"><time>2025-04-28T11:16:31.000Z</time><ele>328</ele></trkpt><trkpt lat="45.978407" lon="10.316974"><time>2025-04-28T11:16:32.000Z</time><ele>328</ele></trkpt><trkpt lat="45.978407" lon="10.316974"><time>2025-04-28T11:16:33.000Z</time><ele>328</ele></trkpt><trkpt lat="45.978406" lon="10.316976"><time>2025-04-28T11:16:34.000Z</time><ele>328</ele></trkpt><trkpt lat="45.978406" lon="10.316976"><time>2025-04-28T11:16:35.000Z</time><ele>328</ele></trkpt><trkpt lat="45.978406" lon="10.316976"><time>2025-04-28T11:16:36.000Z</time><ele>328</ele></trkpt><trkpt lat="45.978406" lon="10.316977"><time>2025-04-28T11:16:37.000Z</time><ele>328</ele></trkpt><trkpt lat="45.978406" lon="10.316977"><time>2025-04-28T11:16:38.000Z</time><ele>328</ele></trkpt><trkpt lat="45.978406" lon="10.316977"><time>2025-04-28T11:16:39.000Z</time><ele>328</ele></trkpt><trkpt lat="45.978406" lon="10.316978"><time>2025-04-28T11:16:40.000Z</time><ele>328</ele></trkpt><trkpt lat="45.978406" lon="10.316978"><time>2025-04-28T11:16:41.000Z</time><ele>328</ele></trkpt><trkpt lat="45.978406" lon="10.316978"><time>2025-04-28T11:16:42.000Z</time><ele>328</ele></trkpt><trkpt lat="45.978406" lon="10.316978"><time>2025-04-28T11:16:43.000Z</time><ele>328</ele></trkpt><trkpt lat="45.978406" lon="10.316978"><time>2025-04-28T11:16:44.000Z</time><ele>328</ele></trkpt><trkpt lat="45.978406" lon="10.316978"><time>2025-04-28T11:16:45.000Z</time><ele>328</ele></trkpt><trkpt lat="45.978406" lon="10.316978"><time>2025-04-28T11:16:46.000Z</time><ele>328</ele></trkpt><trkpt lat="45.978406" lon="10.316978"><time>2025-04-28T11:16:47.000Z</time><ele>328</ele></trkpt><trkpt lat="45.978406" lon="10.316978"><time>2025-04-28T11:16:48.000Z</time><ele>328</ele></trkpt><trkpt lat="45.978406" lon="10.316978"><time>2025-04-28T11:16:49.000Z</time><ele>328</ele></trkpt><trkpt lat="45.978406" lon="10.316978"><time>2025-04-28T11:16:50.000Z</time><ele>328</ele></trkpt><trkpt lat="45.978406" lon="10.316978"><time>2025-04-28T11:16:51.000Z</time><ele>328</ele></trkpt><trkpt lat="45.978405" lon="10.316978"><time>2025-04-28T11:16:52.000Z</time><ele>328</ele></trkpt><trkpt lat="45.978404" lon="10.316978"><time>2025-04-28T11:16:53.000Z</time><ele>328</ele></trkpt><trkpt lat="45.978403" lon="10.316978"><time>2025-04-28T11:16:54.000Z</time><ele>328</ele></trkpt><trkpt lat="45.978402" lon="10.316977"><time>2025-04-28T11:16:55.000Z</time><ele>328</ele></trkpt><trkpt lat="45.978401" lon="10.316975"><time>2025-04-28T11:16:56.000Z</time><ele>328</ele></trkpt><trkpt lat="45.9784" lon="10.316973"><time>2025-04-28T11:16:57.000Z</time><ele>328</ele></trkpt><trkpt lat="45.978398" lon="10.316969"><time>2025-04-28T11:16:58.000Z</time><ele>328</ele></trkpt><trkpt lat="45.978396" lon="10.316967"><time>2025-04-28T11:16:59.000Z</time><ele>328</ele></trkpt><trkpt lat="45.978394" lon="10.316967"><time>2025-04-28T11:17:00.000Z</time><ele>328</ele></trkpt><trkpt lat="45.978393" lon="10.316966"><time>2025-04-28T11:17:01.000Z</time><ele>328</ele></trkpt><trkpt lat="45.978391" lon="10.316965"><time>2025-04-28T11:17:02.000Z</time><ele>328</ele></trkpt><trkpt lat="45.978387" lon="10.316959"><time>2025-04-28T11:17:03.000Z</time><ele>328</ele></trkpt><trkpt lat="45.978382" lon="10.31695"><time>2025-04-28T11:17:04.000Z</time><ele>328</ele></trkpt><trkpt lat="45.978379" lon="10.316941"><time>2025-04-28T11:17:05.000Z</time><ele>328</ele></trkpt><trkpt lat="45.978376" lon="10.316937"><time>2025-04-28T11:17:06.000Z</time><ele>328</ele></trkpt><trkpt lat="45.978374" lon="10.316935"><time>2025-04-28T11:17:07.000Z</time><ele>328</ele></trkpt><trkpt lat="45.978373" lon="10.316928"><time>2025-04-28T11:17:08.000Z</time><ele>328</ele></trkpt><trkpt lat="45.978373" lon="10.316922"><time>2025-04-28T11:17:09.000Z</time><ele>328</ele></trkpt><trkpt lat="45.978372" lon="10.316919"><time>2025-04-28T11:17:10.000Z</time><ele>328</ele></trkpt><trkpt lat="45.978371" lon="10.316917"><time>2025-04-28T11:17:11.000Z</time><ele>328</ele></trkpt><trkpt lat="45.978371" lon="10.316914"><time>2025-04-28T11:17:12.000Z</time><ele>328</ele></trkpt><trkpt lat="45.97837" lon="10.316911"><time>2025-04-28T11:17:13.000Z</time><ele>328</ele></trkpt><trkpt lat="45.978364" lon="10.316909"><time>2025-04-28T11:17:14.000Z</time><ele>328</ele></trkpt><trkpt lat="45.978358" lon="10.316909"><time>2025-04-28T11:17:15.000Z</time><ele>328</ele></trkpt><trkpt lat="45.978356" lon="10.316908"><time>2025-04-28T11:17:16.000Z</time><ele>328</ele></trkpt><trkpt lat="45.978354" lon="10.316908"><time>2025-04-28T11:17:17.000Z</time><ele>328</ele></trkpt><trkpt lat="45.978352" lon="10.316908"><time>2025-04-28T11:17:18.000Z</time><ele>328</ele></trkpt><trkpt lat="45.978351" lon="10.316908"><time>2025-04-28T11:17:19.000Z</time><ele>328</ele></trkpt><trkpt lat="45.97835" lon="10.316908"><time>2025-04-28T11:17:20.000Z</time><ele>328</ele></trkpt><trkpt lat="45.97835" lon="10.316908"><time>2025-04-28T11:17:21.000Z</time><ele>328</ele></trkpt><trkpt lat="45.97835" lon="10.316908"><time>2025-04-28T11:17:22.000Z</time><ele>328</ele></trkpt><trkpt lat="45.97835" lon="10.316908"><time>2025-04-28T11:17:23.000Z</time><ele>328</ele></trkpt><trkpt lat="45.978349" lon="10.316908"><time>2025-04-28T11:17:24.000Z</time><ele>328</ele></trkpt><trkpt lat="45.978349" lon="10.316908"><time>2025-04-28T11:17:25.000Z</time><ele>328</ele></trkpt><trkpt lat="45.978349" lon="10.316908"><time>2025-04-28T11:17:26.000Z</time><ele>328</ele></trkpt><trkpt lat="45.978349" lon="10.316908"><time>2025-04-28T11:17:27.000Z</time><ele>328</ele></trkpt><trkpt lat="45.978349" lon="10.316909"><time>2025-04-28T11:17:28.000Z</time><ele>328</ele></trkpt><trkpt lat="45.978349" lon="10.316911"><time>2025-04-28T11:17:29.000Z</time><ele>328</ele></trkpt><trkpt lat="45.978349" lon="10.316912"><time>2025-04-28T11:17:30.000Z</time><ele>328</ele></trkpt><trkpt lat="45.97835" lon="10.316913"><time>2025-04-28T11:17:31.000Z</time><ele>328</ele></trkpt><trkpt lat="45.97835" lon="10.316913"><time>2025-04-28T11:17:32.000Z</time><ele>328</ele></trkpt><trkpt lat="45.97835" lon="10.316913"><time>2025-04-28T11:17:33.000Z</time><ele>328</ele></trkpt><trkpt lat="45.97835" lon="10.316914"><time>2025-04-28T11:17:34.000Z</time><ele>328</ele></trkpt><trkpt lat="45.97835" lon="10.316914"><time>2025-04-28T11:17:35.000Z</time><ele>328</ele></trkpt><trkpt lat="45.97835" lon="10.316914"><time>2025-04-28T11:17:36.000Z</time><ele>328</ele></trkpt><trkpt lat="45.97835" lon="10.316914"><time>2025-04-28T11:17:37.000Z</time><ele>328</ele></trkpt><trkpt lat="45.97835" lon="10.316914"><time>2025-04-28T11:17:38.000Z</time><ele>328</ele></trkpt><trkpt lat="45.97835" lon="10.316914"><time>2025-04-28T11:17:39.000Z</time><ele>328</ele></trkpt><trkpt lat="45.97835" lon="10.316914"><time>2025-04-28T11:17:40.000Z</time><ele>328</ele></trkpt><trkpt lat="45.97835" lon="10.316914"><time>2025-04-28T11:17:41.000Z</time><ele>328</ele></trkpt><trkpt lat="45.97835" lon="10.316914"><time>2025-04-28T11:17:42.000Z</time><ele>328</ele></trkpt><trkpt lat="45.97835" lon="10.316914"><time>2025-04-28T11:17:43.000Z</time><ele>328</ele></trkpt><trkpt lat="45.97835" lon="10.316914"><time>2025-04-28T11:17:44.000Z</time><ele>328</ele></trkpt><trkpt lat="45.97835" lon="10.316914"><time>2025-04-28T11:17:45.000Z</time><ele>328</ele></trkpt><trkpt lat="45.97835" lon="10.316914"><time>2025-04-28T11:17:46.000Z</time><ele>328</ele></trkpt><trkpt lat="45.97835" lon="10.316914"><time>2025-04-28T11:17:47.000Z</time><ele>328</ele></trkpt><trkpt lat="45.97835" lon="10.316914"><time>2025-04-28T11:17:48.000Z</time><ele>328</ele></trkpt><trkpt lat="45.97835" lon="10.316914"><time>2025-04-28T11:17:49.000Z</time><ele>328</ele></trkpt><trkpt lat="45.97835" lon="10.316914"><time>2025-04-28T11:17:50.000Z</time><ele>328</ele></trkpt><trkpt lat="45.97835" lon="10.316914"><time>2025-04-28T11:17:51.000Z</time><ele>328</ele></trkpt><trkpt lat="45.97835" lon="10.316913"><time>2025-04-28T11:17:52.000Z</time><ele>328</ele></trkpt><trkpt lat="45.97835" lon="10.316913"><time>2025-04-28T11:17:53.000Z</time><ele>328</ele></trkpt><trkpt lat="45.97835" lon="10.316913"><time>2025-04-28T11:17:54.000Z</time><ele>328</ele></trkpt><trkpt lat="45.97835" lon="10.316913"><time>2025-04-28T11:17:55.000Z</time><ele>328</ele></trkpt><trkpt lat="45.97835" lon="10.316913"><time>2025-04-28T11:17:56.000Z</time><ele>328</ele></trkpt><trkpt lat="45.97835" lon="10.316913"><time>2025-04-28T11:17:57.000Z</time><ele>328</ele></trkpt><trkpt lat="45.97835" lon="10.316913"><time>2025-04-28T11:17:58.000Z</time><ele>328</ele></trkpt><trkpt lat="45.97835" lon="10.316913"><time>2025-04-28T11:17:59.000Z</time><ele>328</ele></trkpt><trkpt lat="45.97835" lon="10.316914"><time>2025-04-28T11:18:00.000Z</time><ele>328</ele></trkpt><trkpt lat="45.97835" lon="10.316914"><time>2025-04-28T11:18:01.000Z</time><ele>328</ele></trkpt><trkpt lat="45.97835" lon="10.316914"><time>2025-04-28T11:18:02.000Z</time><ele>328</ele></trkpt><trkpt lat="45.97835" lon="10.316914"><time>2025-04-28T11:18:03.000Z</time><ele>328</ele></trkpt><trkpt lat="45.978351" lon="10.316915"><time>2025-04-28T11:18:04.000Z</time><ele>328</ele></trkpt><trkpt lat="45.978351" lon="10.316915"><time>2025-04-28T11:18:05.000Z</time><ele>328</ele></trkpt><trkpt lat="45.978352" lon="10.316916"><time>2025-04-28T11:18:06.000Z</time><ele>328</ele></trkpt><trkpt lat="45.978352" lon="10.316917"><time>2025-04-28T11:18:07.000Z</time><ele>328</ele></trkpt><trkpt lat="45.978355" lon="10.316921"><time>2025-04-28T11:18:08.000Z</time><ele>328</ele></trkpt><trkpt lat="45.978356" lon="10.316926"><time>2025-04-28T11:18:09.000Z</time><ele>328</ele></trkpt><trkpt lat="45.978359" lon="10.316929"><time>2025-04-28T11:18:10.000Z</time><ele>328</ele></trkpt><trkpt lat="45.978362" lon="10.316937"><time>2025-04-28T11:18:11.000Z</time><ele>328</ele></trkpt><trkpt lat="45.978364" lon="10.316939"><time>2025-04-28T11:18:12.000Z</time><ele>328</ele></trkpt><trkpt lat="45.978365" lon="10.316943"><time>2025-04-28T11:18:13.000Z</time><ele>328</ele></trkpt><trkpt lat="45.978368" lon="10.31695"><time>2025-04-28T11:18:14.000Z</time><ele>328</ele></trkpt><trkpt lat="45.978374" lon="10.316952"><time>2025-04-28T11:18:15.000Z</time><ele>328</ele></trkpt><trkpt lat="45.978374" lon="10.316952"><time>2025-04-28T11:18:16.000Z</time><ele>328</ele></trkpt><trkpt lat="45.978374" lon="10.316952"><time>2025-04-28T11:18:17.000Z</time><ele>328</ele></trkpt><trkpt lat="45.978374" lon="10.316952"><time>2025-04-28T11:18:18.000Z</time><ele>328</ele></trkpt><trkpt lat="45.978374" lon="10.316952"><time>2025-04-28T11:18:19.000Z</time><ele>328</ele></trkpt><trkpt lat="45.978374" lon="10.316952"><time>2025-04-28T11:18:20.000Z</time><ele>328</ele></trkpt><trkpt lat="45.978374" lon="10.316952"><time>2025-04-28T11:18:21.000Z</time><ele>328</ele></trkpt><trkpt lat="45.978376" lon="10.316952"><time>2025-04-28T11:18:22.000Z</time><ele>328</ele></trkpt><trkpt lat="45.978377" lon="10.316952"><time>2025-04-28T11:18:23.000Z</time><ele>328</ele></trkpt><trkpt lat="45.978377" lon="10.316952"><time>2025-04-28T11:18:24.000Z</time><ele>328</ele></trkpt><trkpt lat="45.978378" lon="10.316952"><time>2025-04-28T11:18:25.000Z</time><ele>328</ele></trkpt><trkpt lat="45.978378" lon="10.316952"><time>2025-04-28T11:18:26.000Z</time><ele>328</ele></trkpt><trkpt lat="45.978378" lon="10.316952"><time>2025-04-28T11:18:27.000Z</time><ele>328</ele></trkpt><trkpt lat="45.978378" lon="10.316952"><time>2025-04-28T11:18:28.000Z</time><ele>328</ele></trkpt><trkpt lat="45.978378" lon="10.316952"><time>2025-04-28T11:18:29.000Z</time><ele>328</ele></trkpt><trkpt lat="45.978378" lon="10.316952"><time>2025-04-28T11:18:30.000Z</time><ele>328</ele></trkpt><trkpt lat="45.978378" lon="10.316952"><time>2025-04-28T11:18:31.000Z</time><ele>328</ele></trkpt><trkpt lat="45.978378" lon="10.316952"><time>2025-04-28T11:18:32.000Z</time><ele>328</ele></trkpt><trkpt lat="45.978378" lon="10.316952"><time>2025-04-28T11:18:33.000Z</time><ele>328</ele></trkpt><trkpt lat="45.978378" lon="10.316952"><time>2025-04-28T11:18:34.000Z</time><ele>328</ele></trkpt><trkpt lat="45.978378" lon="10.316952"><time>2025-04-28T11:18:35.000Z</time><ele>328</ele></trkpt><trkpt lat="45.978378" lon="10.316952"><time>2025-04-28T11:18:36.000Z</time><ele>328</ele></trkpt><trkpt lat="45.978378" lon="10.316952"><time>2025-04-28T11:18:37.000Z</time><ele>328</ele></trkpt><trkpt lat="45.978378" lon="10.316952"><time>2025-04-28T11:18:38.000Z</time><ele>328</ele></trkpt><trkpt lat="45.978377" lon="10.316952"><time>2025-04-28T11:18:39.000Z</time><ele>328</ele></trkpt><trkpt lat="45.978377" lon="10.316951"><time>2025-04-28T11:18:40.000Z</time><ele>328</ele></trkpt><trkpt lat="45.978377" lon="10.316951"><time>2025-04-28T11:18:41.000Z</time><ele>328</ele></trkpt><trkpt lat="45.978376" lon="10.316951"><time>2025-04-28T11:18:42.000Z</time><ele>328</ele></trkpt><trkpt lat="45.978376" lon="10.316951"><time>2025-04-28T11:18:43.000Z</time><ele>328</ele></trkpt><trkpt lat="45.978376" lon="10.31695"><time>2025-04-28T11:18:44.000Z</time><ele>328</ele></trkpt><trkpt lat="45.978375" lon="10.316949"><time>2025-04-28T11:18:45.000Z</time><ele>328</ele></trkpt><trkpt lat="45.978375" lon="10.316948"><time>2025-04-28T11:18:46.000Z</time><ele>328</ele></trkpt><trkpt lat="45.978375" lon="10.316947"><time>2025-04-28T11:18:47.000Z</time><ele>328</ele></trkpt><trkpt lat="45.978375" lon="10.316946"><time>2025-04-28T11:18:48.000Z</time><ele>328</ele></trkpt><trkpt lat="45.978375" lon="10.316945"><time>2025-04-28T11:18:49.000Z</time><ele>328</ele></trkpt><trkpt lat="45.978375" lon="10.316944"><time>2025-04-28T11:18:50.000Z</time><ele>328</ele></trkpt><trkpt lat="45.978375" lon="10.316944"><time>2025-04-28T11:18:51.000Z</time><ele>328</ele></trkpt><trkpt lat="45.978375" lon="10.316944"><time>2025-04-28T11:18:52.000Z</time><ele>328</ele></trkpt><trkpt lat="45.978375" lon="10.316943"><time>2025-04-28T11:18:53.000Z</time><ele>328</ele></trkpt><trkpt lat="45.978375" lon="10.316938"><time>2025-04-28T11:18:54.000Z</time><ele>328</ele></trkpt><trkpt lat="45.97838" lon="10.316924"><time>2025-04-28T11:18:55.000Z</time><ele>328</ele></trkpt><trkpt lat="45.978382" lon="10.316913"><time>2025-04-28T11:18:56.000Z</time><ele>328</ele></trkpt><trkpt lat="45.978379" lon="10.31691"><time>2025-04-28T11:18:57.000Z</time><ele>328</ele></trkpt><trkpt lat="45.978378" lon="10.316901"><time>2025-04-28T11:18:58.000Z</time><ele>328</ele></trkpt><trkpt lat="45.978376" lon="10.316897"><time>2025-04-28T11:18:59.000Z</time><ele>328</ele></trkpt><trkpt lat="45.978376" lon="10.316894"><time>2025-04-28T11:19:00.000Z</time><ele>328</ele></trkpt><trkpt lat="45.978382" lon="10.316905"><time>2025-04-28T11:19:01.000Z</time><ele>328</ele></trkpt><trkpt lat="45.978383" lon="10.316909"><time>2025-04-28T11:19:02.000Z</time><ele>328</ele></trkpt><trkpt lat="45.978383" lon="10.316909"><time>2025-04-28T11:19:03.000Z</time><ele>328</ele></trkpt><trkpt lat="45.978386" lon="10.316917"><time>2025-04-28T11:19:04.000Z</time><ele>328</ele></trkpt><trkpt lat="45.978396" lon="10.316929"><time>2025-04-28T11:19:05.000Z</time><ele>328</ele></trkpt><trkpt lat="45.978404" lon="10.316939"><time>2025-04-28T11:19:06.000Z</time><ele>328</ele></trkpt><trkpt lat="45.978407" lon="10.316946"><time>2025-04-28T11:19:07.000Z</time><ele>328</ele></trkpt><trkpt lat="45.978416" lon="10.316954"><time>2025-04-28T11:19:08.000Z</time><ele>328</ele></trkpt><trkpt lat="45.97843" lon="10.316978"><time>2025-04-28T11:19:09.000Z</time><ele>328</ele></trkpt><trkpt lat="45.978438" lon="10.316992"><time>2025-04-28T11:19:10.000Z</time><ele>328</ele></trkpt><trkpt lat="45.978439" lon="10.317006"><time>2025-04-28T11:19:11.000Z</time><ele>328</ele></trkpt><trkpt lat="45.978434" lon="10.317008"><time>2025-04-28T11:19:12.000Z</time><ele>328</ele></trkpt><trkpt lat="45.978429" lon="10.31701"><time>2025-04-28T11:19:13.000Z</time><ele>328</ele></trkpt><trkpt lat="45.978426" lon="10.317011"><time>2025-04-28T11:19:14.000Z</time><ele>328</ele></trkpt><trkpt lat="45.978425" lon="10.317005"><time>2025-04-28T11:19:15.000Z</time><ele>328</ele></trkpt><trkpt lat="45.978424" lon="10.317005"><time>2025-04-28T11:19:16.000Z</time><ele>328</ele></trkpt><trkpt lat="45.978422" lon="10.316994"><time>2025-04-28T11:19:17.000Z</time><ele>328</ele></trkpt><trkpt lat="45.97842" lon="10.316993"><time>2025-04-28T11:19:18.000Z</time><ele>328</ele></trkpt><trkpt lat="45.978419" lon="10.31699"><time>2025-04-28T11:19:19.000Z</time><ele>328</ele></trkpt><trkpt lat="45.978417" lon="10.316987"><time>2025-04-28T11:19:20.000Z</time><ele>328</ele></trkpt><trkpt lat="45.978418" lon="10.316975"><time>2025-04-28T11:19:21.000Z</time><ele>328</ele></trkpt><trkpt lat="45.978419" lon="10.316975"><time>2025-04-28T11:19:22.000Z</time><ele>328</ele></trkpt><trkpt lat="45.978419" lon="10.316974"><time>2025-04-28T11:19:23.000Z</time><ele>328</ele></trkpt><trkpt lat="45.978419" lon="10.316975"><time>2025-04-28T11:19:24.000Z</time><ele>328</ele></trkpt><trkpt lat="45.978416" lon="10.316964"><time>2025-04-28T11:19:25.000Z</time><ele>328</ele></trkpt><trkpt lat="45.978415" lon="10.316961"><time>2025-04-28T11:19:26.000Z</time><ele>328</ele></trkpt><trkpt lat="45.978415" lon="10.316961"><time>2025-04-28T11:19:27.000Z</time><ele>328</ele></trkpt><trkpt lat="45.978416" lon="10.316959"><time>2025-04-28T11:19:28.000Z</time><ele>328</ele></trkpt><trkpt lat="45.978418" lon="10.316961"><time>2025-04-28T11:19:29.000Z</time><ele>328</ele></trkpt><trkpt lat="45.978418" lon="10.316965"><time>2025-04-28T11:19:30.000Z</time><ele>328</ele></trkpt><trkpt lat="45.978418" lon="10.316967"><time>2025-04-28T11:19:31.000Z</time><ele>328</ele></trkpt><trkpt lat="45.978419" lon="10.316968"><time>2025-04-28T11:19:32.000Z</time><ele>328</ele></trkpt><trkpt lat="45.97842" lon="10.316971"><time>2025-04-28T11:19:33.000Z</time><ele>328</ele></trkpt><trkpt lat="45.978416" lon="10.316977"><time>2025-04-28T11:19:34.000Z</time><ele>328</ele></trkpt><trkpt lat="45.97841" lon="10.316985"><time>2025-04-28T11:19:35.000Z</time><ele>328</ele></trkpt><trkpt lat="45.978405" lon="10.316997"><time>2025-04-28T11:19:36.000Z</time><ele>328</ele></trkpt><trkpt lat="45.978405" lon="10.317001"><time>2025-04-28T11:19:37.000Z</time><ele>328</ele></trkpt><trkpt lat="45.978405" lon="10.317014"><time>2025-04-28T11:19:38.000Z</time><ele>328</ele></trkpt><trkpt lat="45.978403" lon="10.317025"><time>2025-04-28T11:19:39.000Z</time><ele>328</ele></trkpt><trkpt lat="45.978401" lon="10.317033"><time>2025-04-28T11:19:40.000Z</time><ele>328</ele></trkpt><trkpt lat="45.978399" lon="10.317041"><time>2025-04-28T11:19:41.000Z</time><ele>328</ele></trkpt><trkpt lat="45.978397" lon="10.317052"><time>2025-04-28T11:19:42.000Z</time><ele>328</ele></trkpt><trkpt lat="45.978396" lon="10.317063"><time>2025-04-28T11:19:43.000Z</time><ele>328</ele></trkpt><trkpt lat="45.978396" lon="10.317074"><time>2025-04-28T11:19:44.000Z</time><ele>328</ele></trkpt><trkpt lat="45.978393" lon="10.317074"><time>2025-04-28T11:19:45.000Z</time><ele>328</ele></trkpt><trkpt lat="45.978396" lon="10.317079"><time>2025-04-28T11:19:46.000Z</time><ele>328</ele></trkpt><trkpt lat="45.978393" lon="10.317084"><time>2025-04-28T11:19:47.000Z</time><ele>328</ele></trkpt><trkpt lat="45.978387" lon="10.317087"><time>2025-04-28T11:19:48.000Z</time><ele>328</ele></trkpt><trkpt lat="45.978387" lon="10.317084"><time>2025-04-28T11:19:49.000Z</time><ele>328</ele></trkpt><trkpt lat="45.97839" lon="10.317078"><time>2025-04-28T11:19:50.000Z</time><ele>328</ele></trkpt><trkpt lat="45.978394" lon="10.31707"><time>2025-04-28T11:19:51.000Z</time><ele>328</ele></trkpt><trkpt lat="45.978396" lon="10.317065"><time>2025-04-28T11:19:52.000Z</time><ele>328</ele></trkpt><trkpt lat="45.978401" lon="10.317052"><time>2025-04-28T11:19:53.000Z</time><ele>328</ele></trkpt><trkpt lat="45.978404" lon="10.317043"><time>2025-04-28T11:19:54.000Z</time><ele>328</ele></trkpt><trkpt lat="45.978407" lon="10.317032"><time>2025-04-28T11:19:55.000Z</time><ele>328</ele></trkpt><trkpt lat="45.978404" lon="10.317021"><time>2025-04-28T11:19:56.000Z</time><ele>328</ele></trkpt><trkpt lat="45.978406" lon="10.317009"><time>2025-04-28T11:19:57.000Z</time><ele>328</ele></trkpt><trkpt lat="45.978409" lon="10.316989"><time>2025-04-28T11:19:58.000Z</time><ele>328</ele></trkpt><trkpt lat="45.978407" lon="10.316984"><time>2025-04-28T11:19:59.000Z</time><ele>328</ele></trkpt><trkpt lat="45.978407" lon="10.316978"><time>2025-04-28T11:20:00.000Z</time><ele>328</ele></trkpt><trkpt lat="45.978407" lon="10.316976"><time>2025-04-28T11:20:01.000Z</time><ele>328</ele></trkpt><trkpt lat="45.978406" lon="10.316976"><time>2025-04-28T11:20:02.000Z</time><ele>328</ele></trkpt><trkpt lat="45.978405" lon="10.316978"><time>2025-04-28T11:20:03.000Z</time><ele>328</ele></trkpt><trkpt lat="45.978404" lon="10.316982"><time>2025-04-28T11:20:04.000Z</time><ele>328</ele></trkpt><trkpt lat="45.978404" lon="10.316986"><time>2025-04-28T11:20:05.000Z</time><ele>328</ele></trkpt><trkpt lat="45.978409" lon="10.316991"><time>2025-04-28T11:20:06.000Z</time><ele>328</ele></trkpt><trkpt lat="45.97841" lon="10.316993"><time>2025-04-28T11:20:07.000Z</time><ele>328</ele></trkpt><trkpt lat="45.978411" lon="10.316995"><time>2025-04-28T11:20:08.000Z</time><ele>328</ele></trkpt><trkpt lat="45.97841" lon="10.316997"><time>2025-04-28T11:20:09.000Z</time><ele>328</ele></trkpt><trkpt lat="45.978411" lon="10.316997"><time>2025-04-28T11:20:10.000Z</time><ele>328</ele></trkpt><trkpt lat="45.978411" lon="10.316997"><time>2025-04-28T11:20:11.000Z</time><ele>328</ele></trkpt><trkpt lat="45.978411" lon="10.316996"><time>2025-04-28T11:20:12.000Z</time><ele>328</ele></trkpt><trkpt lat="45.978411" lon="10.316992"><time>2025-04-28T11:20:13.000Z</time><ele>328</ele></trkpt><trkpt lat="45.978414" lon="10.316977"><time>2025-04-28T11:20:14.000Z</time><ele>328</ele></trkpt><trkpt lat="45.978417" lon="10.316981"><time>2025-04-28T11:20:15.000Z</time><ele>328</ele></trkpt><trkpt lat="45.97842" lon="10.316981"><time>2025-04-28T11:20:16.000Z</time><ele>328</ele></trkpt><trkpt lat="45.978422" lon="10.316981"><time>2025-04-28T11:20:17.000Z</time><ele>328</ele></trkpt><trkpt lat="45.978425" lon="10.316978"><time>2025-04-28T11:20:18.000Z</time><ele>328</ele></trkpt><trkpt lat="45.978426" lon="10.316975"><time>2025-04-28T11:20:19.000Z</time><ele>328</ele></trkpt><trkpt lat="45.978426" lon="10.316979"><time>2025-04-28T11:20:20.000Z</time><ele>328</ele></trkpt><trkpt lat="45.978426" lon="10.316979"><time>2025-04-28T11:20:21.000Z</time><ele>328</ele></trkpt><trkpt lat="45.978426" lon="10.316979"><time>2025-04-28T11:20:22.000Z</time><ele>328</ele></trkpt><trkpt lat="45.978426" lon="10.316979"><time>2025-04-28T11:20:23.000Z</time><ele>328</ele></trkpt><trkpt lat="45.978426" lon="10.316979"><time>2025-04-28T11:20:24.000Z</time><ele>328</ele></trkpt><trkpt lat="45.978422" lon="10.316979"><time>2025-04-28T11:20:38.000Z</time><ele>328</ele></trkpt><trkpt lat="45.978422" lon="10.316979"><time>2025-04-28T11:20:39.000Z</time><ele>328</ele></trkpt><trkpt lat="45.978422" lon="10.316979"><time>2025-04-28T11:20:40.000Z</time><ele>328</ele></trkpt><trkpt lat="45.978422" lon="10.316978"><time>2025-04-28T11:20:41.000Z</time><ele>328</ele></trkpt><trkpt lat="45.978423" lon="10.316977"><time>2025-04-28T11:20:42.000Z</time><ele>328</ele></trkpt><trkpt lat="45.978423" lon="10.316975"><time>2025-04-28T11:20:43.000Z</time><ele>328</ele></trkpt><trkpt lat="45.978423" lon="10.316974"><time>2025-04-28T11:20:44.000Z</time><ele>328</ele></trkpt><trkpt lat="45.978423" lon="10.316971"><time>2025-04-28T11:20:45.000Z</time><ele>328</ele></trkpt><trkpt lat="45.978423" lon="10.316971"><time>2025-04-28T11:20:46.000Z</time><ele>328</ele></trkpt><trkpt lat="45.978424" lon="10.316971"><time>2025-04-28T11:20:47.000Z</time><ele>328</ele></trkpt><trkpt lat="45.978424" lon="10.316971"><time>2025-04-28T11:20:48.000Z</time><ele>328</ele></trkpt><trkpt lat="45.978424" lon="10.31697"><time>2025-04-28T11:20:49.000Z</time><ele>328</ele></trkpt><trkpt lat="45.978424" lon="10.31697"><time>2025-04-28T11:20:50.000Z</time><ele>328</ele></trkpt><trkpt lat="45.978424" lon="10.31697"><time>2025-04-28T11:20:51.000Z</time><ele>328</ele></trkpt><trkpt lat="45.978424" lon="10.31697"><time>2025-04-28T11:20:52.000Z</time><ele>328</ele></trkpt><trkpt lat="45.978424" lon="10.316969"><time>2025-04-28T11:20:53.000Z</time><ele>328</ele></trkpt><trkpt lat="45.978424" lon="10.316969"><time>2025-04-28T11:20:54.000Z</time><ele>328</ele></trkpt><trkpt lat="45.978419" lon="10.316967"><time>2025-04-28T11:20:55.000Z</time><ele>328</ele></trkpt><trkpt lat="45.978405" lon="10.316963"><time>2025-04-28T11:20:56.000Z</time><ele>328</ele></trkpt><trkpt lat="45.978387" lon="10.316957"><time>2025-04-28T11:20:57.000Z</time><ele>328</ele></trkpt><trkpt lat="45.978371" lon="10.31695"><time>2025-04-28T11:20:58.000Z</time><ele>328</ele></trkpt><trkpt lat="45.978356" lon="10.31694"><time>2025-04-28T11:20:59.000Z</time><ele>328</ele></trkpt><trkpt lat="45.97834" lon="10.316932"><time>2025-04-28T11:21:00.000Z</time><ele>328</ele></trkpt><trkpt lat="45.978324" lon="10.316924"><time>2025-04-28T11:21:01.000Z</time><ele>328</ele></trkpt><trkpt lat="45.978306" lon="10.316915"><time>2025-04-28T11:21:02.000Z</time><ele>328</ele></trkpt><trkpt lat="45.978288" lon="10.316907"><time>2025-04-28T11:21:03.000Z</time><ele>328</ele></trkpt><trkpt lat="45.97827" lon="10.316908"><time>2025-04-28T11:21:04.000Z</time><ele>328</ele></trkpt><trkpt lat="45.978255" lon="10.316909"><time>2025-04-28T11:21:05.000Z</time><ele>328</ele></trkpt><trkpt lat="45.978244" lon="10.316904"><time>2025-04-28T11:21:06.000Z</time><ele>328</ele></trkpt><trkpt lat="45.978234" lon="10.316897"><time>2025-04-28T11:21:07.000Z</time><ele>328</ele></trkpt><trkpt lat="45.978215" lon="10.316889"><time>2025-04-28T11:21:08.000Z</time><ele>328</ele></trkpt><trkpt lat="45.978203" lon="10.316878"><time>2025-04-28T11:21:09.000Z</time><ele>328</ele></trkpt><trkpt lat="45.978192" lon="10.316864"><time>2025-04-28T11:21:10.000Z</time><ele>328</ele></trkpt><trkpt lat="45.978177" lon="10.316853"><time>2025-04-28T11:21:11.000Z</time><ele>328</ele></trkpt><trkpt lat="45.978163" lon="10.316846"><time>2025-04-28T11:21:12.000Z</time><ele>328</ele></trkpt><trkpt lat="45.978151" lon="10.316837"><time>2025-04-28T11:21:13.000Z</time><ele>328</ele></trkpt><trkpt lat="45.97814" lon="10.316821"><time>2025-04-28T11:21:14.000Z</time><ele>328</ele></trkpt><trkpt lat="45.978129" lon="10.316807"><time>2025-04-28T11:21:15.000Z</time><ele>328</ele></trkpt><trkpt lat="45.978118" lon="10.3168"><time>2025-04-28T11:21:16.000Z</time><ele>328</ele></trkpt><trkpt lat="45.978109" lon="10.316791"><time>2025-04-28T11:21:17.000Z</time><ele>327.8</ele></trkpt><trkpt lat="45.978095" lon="10.316785"><time>2025-04-28T11:21:18.000Z</time><ele>327.8</ele></trkpt><trkpt lat="45.978083" lon="10.316774"><time>2025-04-28T11:21:19.000Z</time><ele>328</ele></trkpt><trkpt lat="45.978072" lon="10.316764"><time>2025-04-28T11:21:20.000Z</time><ele>328</ele></trkpt><trkpt lat="45.97806" lon="10.316752"><time>2025-04-28T11:21:21.000Z</time><ele>328</ele></trkpt><trkpt lat="45.978046" lon="10.316746"><time>2025-04-28T11:21:22.000Z</time><ele>328</ele></trkpt><trkpt lat="45.978052" lon="10.316753"><time>2025-04-28T11:21:23.000Z</time><ele>328</ele></trkpt><trkpt lat="45.97805" lon="10.316756"><time>2025-04-28T11:21:24.000Z</time><ele>328</ele></trkpt><trkpt lat="45.978048" lon="10.316758"><time>2025-04-28T11:21:25.000Z</time><ele>328</ele></trkpt><trkpt lat="45.978044" lon="10.316756"><time>2025-04-28T11:21:26.000Z</time><ele>328.2</ele></trkpt><trkpt lat="45.978038" lon="10.316757"><time>2025-04-28T11:21:27.000Z</time><ele>328.2</ele></trkpt><trkpt lat="45.978037" lon="10.316754"><time>2025-04-28T11:21:28.000Z</time><ele>328.2</ele></trkpt><trkpt lat="45.978041" lon="10.316748"><time>2025-04-28T11:21:29.000Z</time><ele>328.2</ele></trkpt><trkpt lat="45.978044" lon="10.316746"><time>2025-04-28T11:21:30.000Z</time><ele>328.4</ele></trkpt><trkpt lat="45.978046" lon="10.316746"><time>2025-04-28T11:21:31.000Z</time><ele>328.4</ele></trkpt><trkpt lat="45.978047" lon="10.316747"><time>2025-04-28T11:21:32.000Z</time><ele>328.2</ele></trkpt><trkpt lat="45.978047" lon="10.316748"><time>2025-04-28T11:21:33.000Z</time><ele>328.2</ele></trkpt><trkpt lat="45.978047" lon="10.316748"><time>2025-04-28T11:21:34.000Z</time><ele>328.2</ele></trkpt><trkpt lat="45.978047" lon="10.316747"><time>2025-04-28T11:21:35.000Z</time><ele>328.2</ele></trkpt><trkpt lat="45.978047" lon="10.316747"><time>2025-04-28T11:21:36.000Z</time><ele>328.2</ele></trkpt><trkpt lat="45.978047" lon="10.316747"><time>2025-04-28T11:21:37.000Z</time><ele>328.2</ele></trkpt><trkpt lat="45.978047" lon="10.316747"><time>2025-04-28T11:21:38.000Z</time><ele>328.2</ele></trkpt><trkpt lat="45.978047" lon="10.316747"><time>2025-04-28T11:21:39.000Z</time><ele>328.2</ele></trkpt><trkpt lat="45.978047" lon="10.316747"><time>2025-04-28T11:21:40.000Z</time><ele>328.2</ele></trkpt><trkpt lat="45.978047" lon="10.316747"><time>2025-04-28T11:21:41.000Z</time><ele>328.2</ele></trkpt><trkpt lat="45.978047" lon="10.316747"><time>2025-04-28T11:21:42.000Z</time><ele>328.2</ele></trkpt><trkpt lat="45.978047" lon="10.316747"><time>2025-04-28T11:21:43.000Z</time><ele>328.2</ele></trkpt><trkpt lat="45.978047" lon="10.316747"><time>2025-04-28T11:21:44.000Z</time><ele>328</ele></trkpt><trkpt lat="45.978047" lon="10.316747"><time>2025-04-28T11:21:45.000Z</time><ele>328</ele></trkpt><trkpt lat="45.978047" lon="10.316747"><time>2025-04-28T11:21:46.000Z</time><ele>328</ele></trkpt><trkpt lat="45.978047" lon="10.316747"><time>2025-04-28T11:21:47.000Z</time><ele>328</ele></trkpt><trkpt lat="45.978047" lon="10.316747"><time>2025-04-28T11:21:48.000Z</time><ele>328</ele></trkpt><trkpt lat="45.978047" lon="10.316747"><time>2025-04-28T11:21:49.000Z</time><ele>328</ele></trkpt><trkpt lat="45.978047" lon="10.316747"><time>2025-04-28T11:21:50.000Z</time><ele>328</ele></trkpt><trkpt lat="45.978047" lon="10.316747"><time>2025-04-28T11:21:51.000Z</time><ele>328</ele></trkpt><trkpt lat="45.978047" lon="10.316747"><time>2025-04-28T11:21:52.000Z</time><ele>328</ele></trkpt><trkpt lat="45.978047" lon="10.316747"><time>2025-04-28T11:21:53.000Z</time><ele>328</ele></trkpt><trkpt lat="45.978047" lon="10.316747"><time>2025-04-28T11:21:54.000Z</time><ele>328.2</ele></trkpt><trkpt lat="45.978044" lon="10.316749"><time>2025-04-28T11:21:55.000Z</time><ele>328.4</ele></trkpt><trkpt lat="45.978031" lon="10.316759"><time>2025-04-28T11:21:56.000Z</time><ele>328.4</ele></trkpt><trkpt lat="45.978015" lon="10.316769"><time>2025-04-28T11:21:57.000Z</time><ele>328.6</ele></trkpt><trkpt lat="45.977999" lon="10.316778"><time>2025-04-28T11:21:58.000Z</time><ele>328.6</ele></trkpt><trkpt lat="45.977984" lon="10.316788"><time>2025-04-28T11:21:59.000Z</time><ele>328.8</ele></trkpt><trkpt lat="45.977972" lon="10.316796"><time>2025-04-28T11:22:00.000Z</time><ele>329</ele></trkpt><trkpt lat="45.977958" lon="10.316799"><time>2025-04-28T11:22:01.000Z</time><ele>329.2</ele></trkpt><trkpt lat="45.977947" lon="10.316803"><time>2025-04-28T11:22:02.000Z</time><ele>329.4</ele></trkpt><trkpt lat="45.977934" lon="10.316806"><time>2025-04-28T11:22:03.000Z</time><ele>329.4</ele></trkpt><trkpt lat="45.977916" lon="10.316811"><time>2025-04-28T11:22:04.000Z</time><ele>329.6</ele></trkpt><trkpt lat="45.977911" lon="10.31682"><time>2025-04-28T11:22:05.000Z</time><ele>329.8</ele></trkpt><trkpt lat="45.977902" lon="10.316832"><time>2025-04-28T11:22:06.000Z</time><ele>330</ele></trkpt><trkpt lat="45.977893" lon="10.316838"><time>2025-04-28T11:22:07.000Z</time><ele>330.2</ele></trkpt><trkpt lat="45.977884" lon="10.316841"><time>2025-04-28T11:22:08.000Z</time><ele>330.2</ele></trkpt><trkpt lat="45.977877" lon="10.316848"><time>2025-04-28T11:22:09.000Z</time><ele>330.4</ele></trkpt><trkpt lat="45.97787" lon="10.316847"><time>2025-04-28T11:22:10.000Z</time><ele>330.6</ele></trkpt><trkpt lat="45.977865" lon="10.316845"><time>2025-04-28T11:22:11.000Z</time><ele>330.6</ele></trkpt><trkpt lat="45.977864" lon="10.316837"><time>2025-04-28T11:22:12.000Z</time><ele>330.8</ele></trkpt><trkpt lat="45.977867" lon="10.316828"><time>2025-04-28T11:22:13.000Z</time><ele>331</ele></trkpt><trkpt lat="45.977875" lon="10.316822"><time>2025-04-28T11:22:14.000Z</time><ele>331.2</ele></trkpt><trkpt lat="45.977885" lon="10.316813"><time>2025-04-28T11:22:15.000Z</time><ele>331.2</ele></trkpt><trkpt lat="45.977895" lon="10.316804"><time>2025-04-28T11:22:16.000Z</time><ele>331.2</ele></trkpt><trkpt lat="45.977902" lon="10.316795"><time>2025-04-28T11:22:17.000Z</time><ele>331.4</ele></trkpt><trkpt lat="45.977912" lon="10.316784"><time>2025-04-28T11:22:18.000Z</time><ele>331.4</ele></trkpt><trkpt lat="45.977922" lon="10.316772"><time>2025-04-28T11:22:19.000Z</time><ele>331.6</ele></trkpt><trkpt lat="45.977931" lon="10.316759"><time>2025-04-28T11:22:20.000Z</time><ele>331.8</ele></trkpt><trkpt lat="45.977942" lon="10.316747"><time>2025-04-28T11:22:21.000Z</time><ele>331.8</ele></trkpt><trkpt lat="45.977953" lon="10.316736"><time>2025-04-28T11:22:22.000Z</time><ele>332</ele></trkpt><trkpt lat="45.977965" lon="10.316725"><time>2025-04-28T11:22:23.000Z</time><ele>332.2</ele></trkpt><trkpt lat="45.977975" lon="10.316714"><time>2025-04-28T11:22:24.000Z</time><ele>332.2</ele></trkpt><trkpt lat="45.977986" lon="10.316704"><time>2025-04-28T11:22:25.000Z</time><ele>332.2</ele></trkpt><trkpt lat="45.977999" lon="10.316693"><time>2025-04-28T11:22:26.000Z</time><ele>332.4</ele></trkpt><trkpt lat="45.978011" lon="10.316684"><time>2025-04-28T11:22:27.000Z</time><ele>332.4</ele></trkpt><trkpt lat="45.978023" lon="10.316676"><time>2025-04-28T11:22:28.000Z</time><ele>332.6</ele></trkpt><trkpt lat="45.978035" lon="10.316669"><time>2025-04-28T11:22:29.000Z</time><ele>332.6</ele></trkpt><trkpt lat="45.978047" lon="10.31666"><time>2025-04-28T11:22:30.000Z</time><ele>332.6</ele></trkpt><trkpt lat="45.978059" lon="10.316653"><time>2025-04-28T11:22:31.000Z</time><ele>332.6</ele></trkpt><trkpt lat="45.978069" lon="10.316649"><time>2025-04-28T11:22:32.000Z</time><ele>332.8</ele></trkpt><trkpt lat="45.97808" lon="10.316644"><time>2025-04-28T11:22:33.000Z</time><ele>332.8</ele></trkpt><trkpt lat="45.97809" lon="10.316639"><time>2025-04-28T11:22:34.000Z</time><ele>332.8</ele></trkpt><trkpt lat="45.9781" lon="10.316637"><time>2025-04-28T11:22:35.000Z</time><ele>332.8</ele></trkpt><trkpt lat="45.978113" lon="10.316636"><time>2025-04-28T11:22:36.000Z</time><ele>333</ele></trkpt><trkpt lat="45.978124" lon="10.316634"><time>2025-04-28T11:22:37.000Z</time><ele>333</ele></trkpt><trkpt lat="45.978134" lon="10.316636"><time>2025-04-28T11:22:38.000Z</time><ele>333</ele></trkpt><trkpt lat="45.978144" lon="10.316636"><time>2025-04-28T11:22:39.000Z</time><ele>333.2</ele></trkpt><trkpt lat="45.978155" lon="10.316641"><time>2025-04-28T11:22:40.000Z</time><ele>333.2</ele></trkpt><trkpt lat="45.978167" lon="10.316646"><time>2025-04-28T11:22:41.000Z</time><ele>333.2</ele></trkpt><trkpt lat="45.978177" lon="10.316651"><time>2025-04-28T11:22:42.000Z</time><ele>333.4</ele></trkpt><trkpt lat="45.978188" lon="10.316656"><time>2025-04-28T11:22:43.000Z</time><ele>333.4</ele></trkpt><trkpt lat="45.978198" lon="10.316664"><time>2025-04-28T11:22:44.000Z</time><ele>333.6</ele></trkpt><trkpt lat="45.978209" lon="10.31667"><time>2025-04-28T11:22:45.000Z</time><ele>333.6</ele></trkpt><trkpt lat="45.978223" lon="10.316673"><time>2025-04-28T11:22:46.000Z</time><ele>333.6</ele></trkpt><trkpt lat="45.978235" lon="10.316671"><time>2025-04-28T11:22:47.000Z</time><ele>333.6</ele></trkpt><trkpt lat="45.978249" lon="10.316664"><time>2025-04-28T11:22:48.000Z</time><ele>333.8</ele></trkpt><trkpt lat="45.978262" lon="10.31666"><time>2025-04-28T11:22:49.000Z</time><ele>333.8</ele></trkpt><trkpt lat="45.978277" lon="10.316658"><time>2025-04-28T11:22:50.000Z</time><ele>333.8</ele></trkpt><trkpt lat="45.978288" lon="10.316657"><time>2025-04-28T11:22:51.000Z</time><ele>333.6</ele></trkpt><trkpt lat="45.978302" lon="10.316656"><time>2025-04-28T11:22:52.000Z</time><ele>333.6</ele></trkpt><trkpt lat="45.978317" lon="10.316655"><time>2025-04-28T11:22:53.000Z</time><ele>333.6</ele></trkpt><trkpt lat="45.97833" lon="10.316658"><time>2025-04-28T11:22:54.000Z</time><ele>333.6</ele></trkpt><trkpt lat="45.978343" lon="10.316664"><time>2025-04-28T11:22:55.000Z</time><ele>333.6</ele></trkpt><trkpt lat="45.978355" lon="10.316676"><time>2025-04-28T11:22:56.000Z</time><ele>333.6</ele></trkpt><trkpt lat="45.978367" lon="10.316682"><time>2025-04-28T11:22:57.000Z</time><ele>333.4</ele></trkpt><trkpt lat="45.978379" lon="10.316689"><time>2025-04-28T11:22:58.000Z</time><ele>333.4</ele></trkpt><trkpt lat="45.97839" lon="10.316697"><time>2025-04-28T11:22:59.000Z</time><ele>333.2</ele></trkpt><trkpt lat="45.978401" lon="10.3167"><time>2025-04-28T11:23:00.000Z</time><ele>333.2</ele></trkpt><trkpt lat="45.978415" lon="10.316698"><time>2025-04-28T11:23:01.000Z</time><ele>333</ele></trkpt><trkpt lat="45.978424" lon="10.316697"><time>2025-04-28T11:23:02.000Z</time><ele>333</ele></trkpt><trkpt lat="45.978438" lon="10.316685"><time>2025-04-28T11:23:03.000Z</time><ele>333</ele></trkpt><trkpt lat="45.97845" lon="10.316669"><time>2025-04-28T11:23:04.000Z</time><ele>332.8</ele></trkpt><trkpt lat="45.978463" lon="10.31665"><time>2025-04-28T11:23:05.000Z</time><ele>332.8</ele></trkpt><trkpt lat="45.978468" lon="10.316642"><time>2025-04-28T11:23:06.000Z</time><ele>332.8</ele></trkpt><trkpt lat="45.978469" lon="10.316646"><time>2025-04-28T11:23:07.000Z</time><ele>332.6</ele></trkpt><trkpt lat="45.97847" lon="10.316648"><time>2025-04-28T11:23:08.000Z</time><ele>332.6</ele></trkpt><trkpt lat="45.978471" lon="10.316655"><time>2025-04-28T11:23:09.000Z</time><ele>332.6</ele></trkpt><trkpt lat="45.97847" lon="10.316656"><time>2025-04-28T11:23:10.000Z</time><ele>332.6</ele></trkpt><trkpt lat="45.978466" lon="10.316657"><time>2025-04-28T11:23:11.000Z</time><ele>332.4</ele></trkpt><trkpt lat="45.978465" lon="10.316651"><time>2025-04-28T11:23:12.000Z</time><ele>332.4</ele></trkpt><trkpt lat="45.978466" lon="10.316649"><time>2025-04-28T11:23:13.000Z</time><ele>332.4</ele></trkpt><trkpt lat="45.978467" lon="10.316648"><time>2025-04-28T11:23:14.000Z</time><ele>332.4</ele></trkpt><trkpt lat="45.978468" lon="10.316647"><time>2025-04-28T11:23:15.000Z</time><ele>332.2</ele></trkpt><trkpt lat="45.978469" lon="10.316645"><time>2025-04-28T11:23:16.000Z</time><ele>332.2</ele></trkpt><trkpt lat="45.978463" lon="10.316653"><time>2025-04-28T11:23:17.000Z</time><ele>332</ele></trkpt><trkpt lat="45.978465" lon="10.316656"><time>2025-04-28T11:23:18.000Z</time><ele>332</ele></trkpt><trkpt lat="45.978466" lon="10.316657"><time>2025-04-28T11:23:19.000Z</time><ele>332</ele></trkpt><trkpt lat="45.978466" lon="10.316657"><time>2025-04-28T11:23:20.000Z</time><ele>332</ele></trkpt><trkpt lat="45.978461" lon="10.31666"><time>2025-04-28T11:23:21.000Z</time><ele>332</ele></trkpt><trkpt lat="45.978458" lon="10.316662"><time>2025-04-28T11:23:22.000Z</time><ele>332</ele></trkpt><trkpt lat="45.978455" lon="10.316665"><time>2025-04-28T11:23:23.000Z</time><ele>332.2</ele></trkpt><trkpt lat="45.978454" lon="10.316665"><time>2025-04-28T11:23:24.000Z</time><ele>332.2</ele></trkpt><trkpt lat="45.978453" lon="10.316666"><time>2025-04-28T11:23:25.000Z</time><ele>332.2</ele></trkpt><trkpt lat="45.978451" lon="10.316666"><time>2025-04-28T11:23:26.000Z</time><ele>332.2</ele></trkpt><trkpt lat="45.97845" lon="10.316668"><time>2025-04-28T11:23:27.000Z</time><ele>332.2</ele></trkpt><trkpt lat="45.97845" lon="10.316667"><time>2025-04-28T11:23:28.000Z</time><ele>332.2</ele></trkpt><trkpt lat="45.978451" lon="10.316666"><time>2025-04-28T11:23:29.000Z</time><ele>332.4</ele></trkpt><trkpt lat="45.978449" lon="10.316668"><time>2025-04-28T11:23:30.000Z</time><ele>332.2</ele></trkpt><trkpt lat="45.978448" lon="10.31667"><time>2025-04-28T11:23:31.000Z</time><ele>332.2</ele></trkpt><trkpt lat="45.978448" lon="10.316669"><time>2025-04-28T11:23:32.000Z</time><ele>332</ele></trkpt><trkpt lat="45.978448" lon="10.316669"><time>2025-04-28T11:23:33.000Z</time><ele>332</ele></trkpt><trkpt lat="45.978448" lon="10.316669"><time>2025-04-28T11:23:34.000Z</time><ele>332</ele></trkpt><trkpt lat="45.978448" lon="10.316669"><time>2025-04-28T11:23:35.000Z</time><ele>332</ele></trkpt><trkpt lat="45.978448" lon="10.316669"><time>2025-04-28T11:23:36.000Z</time><ele>332.2</ele></trkpt><trkpt lat="45.978448" lon="10.316669"><time>2025-04-28T11:23:37.000Z</time><ele>332.2</ele></trkpt><trkpt lat="45.978448" lon="10.316669"><time>2025-04-28T11:23:38.000Z</time><ele>332.4</ele></trkpt><trkpt lat="45.978448" lon="10.316669"><time>2025-04-28T11:23:39.000Z</time><ele>332.4</ele></trkpt><trkpt lat="45.978448" lon="10.316669"><time>2025-04-28T11:23:40.000Z</time><ele>332.2</ele></trkpt><trkpt lat="45.978448" lon="10.316669"><time>2025-04-28T11:23:41.000Z</time><ele>332.2</ele></trkpt><trkpt lat="45.978448" lon="10.316669"><time>2025-04-28T11:23:42.000Z</time><ele>332.2</ele></trkpt><trkpt lat="45.978448" lon="10.316668"><time>2025-04-28T11:23:43.000Z</time><ele>332.2</ele></trkpt><trkpt lat="45.978448" lon="10.316668"><time>2025-04-28T11:23:44.000Z</time><ele>332.2</ele></trkpt></trkseg></trk></gpx>